<?xml version="1.0" encoding="UTF-8" standalone="no" ?>
<gpx xmlns="http://www.topografix.com/GPX/1/1" xmlns:xsi="http://www.w3.org/2001/XMLSchema-instance" xsi:schemaLocation="http://www.topografix.com/GPX/1/1 http://www.topografix.com/GPX/1/1/gpx.xsd" version="1.1" creator="VisuGPX - https://www.visugpx.com">
  <metadata>
    <name>2018-08-16 Bike ride-Le Saule d'Oingt-Oingt v51k</name>
    <desc><![CDATA[2018-08-16 Bike ride-Le Saule d'Oingt-Oingt v51k]]></desc>
  </metadata>
  <wpt lat="45.92456" lon="4.73713">
    <ele>174</ele>
    <name><![CDATA[2018-08-16 10:26 (Start)]]></name>
  </wpt>
  <wpt lat="45.92459" lon="4.73708">
    <ele>174</ele>
    <name><![CDATA[2018-08-16 10:26 (End)]]></name>
  </wpt>
  <trk>
    <name><![CDATA[2018-08-16 10:26]]></name>
    <trkseg>
      <trkpt lat="45.92456" lon="4.73713">
        <ele>174</ele>
        <time>2018-08-16T08:26:55.783Z</time>
      </trkpt>
      <trkpt lat="45.92456" lon="4.73711">
        <ele>174</ele>
        <time>2018-08-16T08:27:23Z</time>
      </trkpt>
      <trkpt lat="45.92456" lon="4.73711">
        <ele>174</ele>
        <time>2018-08-16T08:27:24Z</time>
      </trkpt>
      <trkpt lat="45.92457" lon="4.73712">
        <ele>174</ele>
        <time>2018-08-16T08:27:25Z</time>
      </trkpt>
      <trkpt lat="45.92457" lon="4.73713">
        <ele>174</ele>
        <time>2018-08-16T08:27:26Z</time>
      </trkpt>
      <trkpt lat="45.92463" lon="4.73706">
        <ele>174</ele>
        <time>2018-08-16T08:27:43Z</time>
      </trkpt>
      <trkpt lat="45.92464" lon="4.73704">
        <ele>174</ele>
        <time>2018-08-16T08:27:44Z</time>
      </trkpt>
      <trkpt lat="45.92467" lon="4.73693">
        <ele>174</ele>
        <time>2018-08-16T08:27:48Z</time>
      </trkpt>
      <trkpt lat="45.92468" lon="4.73689">
        <ele>174</ele>
        <time>2018-08-16T08:27:49Z</time>
      </trkpt>
      <trkpt lat="45.9247" lon="4.73678">
        <ele>174</ele>
        <time>2018-08-16T08:27:52Z</time>
      </trkpt>
      <trkpt lat="45.9247" lon="4.73675">
        <ele>174</ele>
        <time>2018-08-16T08:27:53Z</time>
      </trkpt>
      <trkpt lat="45.92473" lon="4.73663">
        <ele>174</ele>
        <time>2018-08-16T08:27:54Z</time>
      </trkpt>
      <trkpt lat="45.92473" lon="4.73657">
        <ele>174</ele>
        <time>2018-08-16T08:27:55Z</time>
      </trkpt>
      <trkpt lat="45.92474" lon="4.73651">
        <ele>174</ele>
        <time>2018-08-16T08:27:56Z</time>
      </trkpt>
      <trkpt lat="45.92474" lon="4.73644">
        <ele>174</ele>
        <time>2018-08-16T08:27:57Z</time>
      </trkpt>
      <trkpt lat="45.92473" lon="4.73637">
        <ele>174</ele>
        <time>2018-08-16T08:27:58Z</time>
      </trkpt>
      <trkpt lat="45.92473" lon="4.7363">
        <ele>174</ele>
        <time>2018-08-16T08:27:59Z</time>
      </trkpt>
      <trkpt lat="45.9247" lon="4.7362">
        <ele>174</ele>
        <time>2018-08-16T08:28:00Z</time>
      </trkpt>
      <trkpt lat="45.9247" lon="4.73614">
        <ele>174</ele>
        <time>2018-08-16T08:28:01Z</time>
      </trkpt>
      <trkpt lat="45.9247" lon="4.73608">
        <ele>174</ele>
        <time>2018-08-16T08:28:02Z</time>
      </trkpt>
      <trkpt lat="45.92469" lon="4.73601">
        <ele>174</ele>
        <time>2018-08-16T08:28:03Z</time>
      </trkpt>
      <trkpt lat="45.92468" lon="4.73593">
        <ele>174</ele>
        <time>2018-08-16T08:28:04Z</time>
      </trkpt>
      <trkpt lat="45.92468" lon="4.73588">
        <ele>174</ele>
        <time>2018-08-16T08:28:05Z</time>
      </trkpt>
      <trkpt lat="45.92466" lon="4.73581">
        <ele>173</ele>
        <time>2018-08-16T08:28:06Z</time>
      </trkpt>
      <trkpt lat="45.92466" lon="4.73575">
        <ele>173</ele>
        <time>2018-08-16T08:28:07Z</time>
      </trkpt>
      <trkpt lat="45.92467" lon="4.73563">
        <ele>173</ele>
        <time>2018-08-16T08:28:09Z</time>
      </trkpt>
      <trkpt lat="45.92467" lon="4.73561">
        <ele>173</ele>
        <time>2018-08-16T08:28:10Z</time>
      </trkpt>
      <trkpt lat="45.92467" lon="4.7355">
        <ele>173</ele>
        <time>2018-08-16T08:28:13Z</time>
      </trkpt>
      <trkpt lat="45.92468" lon="4.73546">
        <ele>173</ele>
        <time>2018-08-16T08:28:14Z</time>
      </trkpt>
      <trkpt lat="45.92468" lon="4.73542">
        <ele>174</ele>
        <time>2018-08-16T08:28:15Z</time>
      </trkpt>
      <trkpt lat="45.92468" lon="4.73529">
        <ele>174</ele>
        <time>2018-08-16T08:28:16Z</time>
      </trkpt>
      <trkpt lat="45.92468" lon="4.73518">
        <ele>174</ele>
        <time>2018-08-16T08:28:18Z</time>
      </trkpt>
      <trkpt lat="45.92469" lon="4.73511">
        <ele>174</ele>
        <time>2018-08-16T08:28:19Z</time>
      </trkpt>
      <trkpt lat="45.9247" lon="4.73504">
        <ele>174</ele>
        <time>2018-08-16T08:28:20Z</time>
      </trkpt>
      <trkpt lat="45.92471" lon="4.73496">
        <ele>173</ele>
        <time>2018-08-16T08:28:21Z</time>
      </trkpt>
      <trkpt lat="45.92471" lon="4.73488">
        <ele>173</ele>
        <time>2018-08-16T08:28:22Z</time>
      </trkpt>
      <trkpt lat="45.9247" lon="4.73482">
        <ele>173</ele>
        <time>2018-08-16T08:28:23Z</time>
      </trkpt>
      <trkpt lat="45.92471" lon="4.73475">
        <ele>173</ele>
        <time>2018-08-16T08:28:24Z</time>
      </trkpt>
      <trkpt lat="45.92469" lon="4.73467">
        <ele>173</ele>
        <time>2018-08-16T08:28:25Z</time>
      </trkpt>
      <trkpt lat="45.92468" lon="4.73459">
        <ele>173</ele>
        <time>2018-08-16T08:28:26Z</time>
      </trkpt>
      <trkpt lat="45.92466" lon="4.73452">
        <ele>173</ele>
        <time>2018-08-16T08:28:27Z</time>
      </trkpt>
      <trkpt lat="45.92465" lon="4.73444">
        <ele>173</ele>
        <time>2018-08-16T08:28:28Z</time>
      </trkpt>
      <trkpt lat="45.92461" lon="4.73437">
        <ele>173</ele>
        <time>2018-08-16T08:28:29Z</time>
      </trkpt>
      <trkpt lat="45.92457" lon="4.7343">
        <ele>173</ele>
        <time>2018-08-16T08:28:30Z</time>
      </trkpt>
      <trkpt lat="45.92453" lon="4.73426">
        <ele>173</ele>
        <time>2018-08-16T08:28:31Z</time>
      </trkpt>
      <trkpt lat="45.92447" lon="4.73423">
        <ele>173</ele>
        <time>2018-08-16T08:28:32Z</time>
      </trkpt>
      <trkpt lat="45.92443" lon="4.73421">
        <ele>173</ele>
        <time>2018-08-16T08:28:33Z</time>
      </trkpt>
      <trkpt lat="45.92437" lon="4.73418">
        <ele>173</ele>
        <time>2018-08-16T08:28:34Z</time>
      </trkpt>
      <trkpt lat="45.92433" lon="4.73413">
        <ele>172</ele>
        <time>2018-08-16T08:28:35Z</time>
      </trkpt>
      <trkpt lat="45.92428" lon="4.73409">
        <ele>172</ele>
        <time>2018-08-16T08:28:36Z</time>
      </trkpt>
      <trkpt lat="45.92425" lon="4.73402">
        <ele>172</ele>
        <time>2018-08-16T08:28:37Z</time>
      </trkpt>
      <trkpt lat="45.92424" lon="4.73394">
        <ele>172</ele>
        <time>2018-08-16T08:28:38Z</time>
      </trkpt>
      <trkpt lat="45.92422" lon="4.73386">
        <ele>172</ele>
        <time>2018-08-16T08:28:39Z</time>
      </trkpt>
      <trkpt lat="45.92421" lon="4.73379">
        <ele>172</ele>
        <time>2018-08-16T08:28:40Z</time>
      </trkpt>
      <trkpt lat="45.9242" lon="4.73371">
        <ele>172</ele>
        <time>2018-08-16T08:28:41Z</time>
      </trkpt>
      <trkpt lat="45.92419" lon="4.73364">
        <ele>172</ele>
        <time>2018-08-16T08:28:42Z</time>
      </trkpt>
      <trkpt lat="45.92417" lon="4.73355">
        <ele>171</ele>
        <time>2018-08-16T08:28:43Z</time>
      </trkpt>
      <trkpt lat="45.92416" lon="4.73348">
        <ele>171</ele>
        <time>2018-08-16T08:28:44Z</time>
      </trkpt>
      <trkpt lat="45.92415" lon="4.73341">
        <ele>171</ele>
        <time>2018-08-16T08:28:45Z</time>
      </trkpt>
      <trkpt lat="45.92415" lon="4.73334">
        <ele>171</ele>
        <time>2018-08-16T08:28:46Z</time>
      </trkpt>
      <trkpt lat="45.92415" lon="4.73326">
        <ele>171</ele>
        <time>2018-08-16T08:28:47Z</time>
      </trkpt>
      <trkpt lat="45.92415" lon="4.73318">
        <ele>171</ele>
        <time>2018-08-16T08:28:48Z</time>
      </trkpt>
      <trkpt lat="45.92416" lon="4.7331">
        <ele>171</ele>
        <time>2018-08-16T08:28:49Z</time>
      </trkpt>
      <trkpt lat="45.92415" lon="4.73303">
        <ele>171</ele>
        <time>2018-08-16T08:28:50Z</time>
      </trkpt>
      <trkpt lat="45.92414" lon="4.73295">
        <ele>171</ele>
        <time>2018-08-16T08:28:51Z</time>
      </trkpt>
      <trkpt lat="45.92413" lon="4.73288">
        <ele>171</ele>
        <time>2018-08-16T08:28:52Z</time>
      </trkpt>
      <trkpt lat="45.92412" lon="4.7328">
        <ele>171</ele>
        <time>2018-08-16T08:28:53Z</time>
      </trkpt>
      <trkpt lat="45.92412" lon="4.73273">
        <ele>171</ele>
        <time>2018-08-16T08:28:54Z</time>
      </trkpt>
      <trkpt lat="45.92412" lon="4.73265">
        <ele>171</ele>
        <time>2018-08-16T08:28:55Z</time>
      </trkpt>
      <trkpt lat="45.92412" lon="4.73256">
        <ele>171</ele>
        <time>2018-08-16T08:28:56Z</time>
      </trkpt>
      <trkpt lat="45.92412" lon="4.73248">
        <ele>171</ele>
        <time>2018-08-16T08:28:57Z</time>
      </trkpt>
      <trkpt lat="45.92411" lon="4.73239">
        <ele>171</ele>
        <time>2018-08-16T08:28:58Z</time>
      </trkpt>
      <trkpt lat="45.9241" lon="4.73231">
        <ele>171</ele>
        <time>2018-08-16T08:28:59Z</time>
      </trkpt>
      <trkpt lat="45.92409" lon="4.73222">
        <ele>171</ele>
        <time>2018-08-16T08:29:00Z</time>
      </trkpt>
      <trkpt lat="45.92406" lon="4.73212">
        <ele>171</ele>
        <time>2018-08-16T08:29:01Z</time>
      </trkpt>
      <trkpt lat="45.92406" lon="4.73203">
        <ele>171</ele>
        <time>2018-08-16T08:29:02Z</time>
      </trkpt>
      <trkpt lat="45.92406" lon="4.73194">
        <ele>171</ele>
        <time>2018-08-16T08:29:03Z</time>
      </trkpt>
      <trkpt lat="45.92407" lon="4.73185">
        <ele>171</ele>
        <time>2018-08-16T08:29:04Z</time>
      </trkpt>
      <trkpt lat="45.92407" lon="4.73177">
        <ele>171</ele>
        <time>2018-08-16T08:29:05Z</time>
      </trkpt>
      <trkpt lat="45.92407" lon="4.73169">
        <ele>170</ele>
        <time>2018-08-16T08:29:06Z</time>
      </trkpt>
      <trkpt lat="45.92407" lon="4.73159">
        <ele>170</ele>
        <time>2018-08-16T08:29:07Z</time>
      </trkpt>
      <trkpt lat="45.92408" lon="4.73152">
        <ele>171</ele>
        <time>2018-08-16T08:29:08Z</time>
      </trkpt>
      <trkpt lat="45.92408" lon="4.73144">
        <ele>171</ele>
        <time>2018-08-16T08:29:09Z</time>
      </trkpt>
      <trkpt lat="45.92409" lon="4.73136">
        <ele>171</ele>
        <time>2018-08-16T08:29:10Z</time>
      </trkpt>
      <trkpt lat="45.92409" lon="4.7313">
        <ele>171</ele>
        <time>2018-08-16T08:29:11Z</time>
      </trkpt>
      <trkpt lat="45.92412" lon="4.73123">
        <ele>171</ele>
        <time>2018-08-16T08:29:12Z</time>
      </trkpt>
      <trkpt lat="45.92416" lon="4.73119">
        <ele>171</ele>
        <time>2018-08-16T08:29:13Z</time>
      </trkpt>
      <trkpt lat="45.9242" lon="4.73114">
        <ele>170</ele>
        <time>2018-08-16T08:29:14Z</time>
      </trkpt>
      <trkpt lat="45.92422" lon="4.73109">
        <ele>170</ele>
        <time>2018-08-16T08:29:15Z</time>
      </trkpt>
      <trkpt lat="45.92427" lon="4.73104">
        <ele>171</ele>
        <time>2018-08-16T08:29:16Z</time>
      </trkpt>
      <trkpt lat="45.92432" lon="4.73102">
        <ele>171</ele>
        <time>2018-08-16T08:29:17Z</time>
      </trkpt>
      <trkpt lat="45.92437" lon="4.73098">
        <ele>170</ele>
        <time>2018-08-16T08:29:18Z</time>
      </trkpt>
      <trkpt lat="45.92443" lon="4.73095">
        <ele>170</ele>
        <time>2018-08-16T08:29:19Z</time>
      </trkpt>
      <trkpt lat="45.92448" lon="4.7309">
        <ele>170</ele>
        <time>2018-08-16T08:29:20Z</time>
      </trkpt>
      <trkpt lat="45.92454" lon="4.73084">
        <ele>170</ele>
        <time>2018-08-16T08:29:21Z</time>
      </trkpt>
      <trkpt lat="45.9246" lon="4.7308">
        <ele>170</ele>
        <time>2018-08-16T08:29:22Z</time>
      </trkpt>
      <trkpt lat="45.92464" lon="4.73075">
        <ele>170</ele>
        <time>2018-08-16T08:29:23Z</time>
      </trkpt>
      <trkpt lat="45.92469" lon="4.7307">
        <ele>170</ele>
        <time>2018-08-16T08:29:24Z</time>
      </trkpt>
      <trkpt lat="45.92476" lon="4.73065">
        <ele>170</ele>
        <time>2018-08-16T08:29:25Z</time>
      </trkpt>
      <trkpt lat="45.9248" lon="4.7306">
        <ele>170</ele>
        <time>2018-08-16T08:29:26Z</time>
      </trkpt>
      <trkpt lat="45.92485" lon="4.73056">
        <ele>170</ele>
        <time>2018-08-16T08:29:27Z</time>
      </trkpt>
      <trkpt lat="45.92491" lon="4.73051">
        <ele>170</ele>
        <time>2018-08-16T08:29:28Z</time>
      </trkpt>
      <trkpt lat="45.92496" lon="4.73047">
        <ele>170</ele>
        <time>2018-08-16T08:29:29Z</time>
      </trkpt>
      <trkpt lat="45.92502" lon="4.73042">
        <ele>169</ele>
        <time>2018-08-16T08:29:30Z</time>
      </trkpt>
      <trkpt lat="45.92507" lon="4.73037">
        <ele>169</ele>
        <time>2018-08-16T08:29:31Z</time>
      </trkpt>
      <trkpt lat="45.92513" lon="4.73032">
        <ele>169</ele>
        <time>2018-08-16T08:29:32Z</time>
      </trkpt>
      <trkpt lat="45.92518" lon="4.73027">
        <ele>169</ele>
        <time>2018-08-16T08:29:33Z</time>
      </trkpt>
      <trkpt lat="45.92524" lon="4.73022">
        <ele>169</ele>
        <time>2018-08-16T08:29:34Z</time>
      </trkpt>
      <trkpt lat="45.9253" lon="4.73017">
        <ele>169</ele>
        <time>2018-08-16T08:29:35Z</time>
      </trkpt>
      <trkpt lat="45.92535" lon="4.73012">
        <ele>169</ele>
        <time>2018-08-16T08:29:36Z</time>
      </trkpt>
      <trkpt lat="45.92541" lon="4.73006">
        <ele>169</ele>
        <time>2018-08-16T08:29:37Z</time>
      </trkpt>
      <trkpt lat="45.92546" lon="4.73001">
        <ele>169</ele>
        <time>2018-08-16T08:29:38Z</time>
      </trkpt>
      <trkpt lat="45.9255" lon="4.72996">
        <ele>169</ele>
        <time>2018-08-16T08:29:39Z</time>
      </trkpt>
      <trkpt lat="45.92555" lon="4.72992">
        <ele>169</ele>
        <time>2018-08-16T08:29:40Z</time>
      </trkpt>
      <trkpt lat="45.9256" lon="4.72987">
        <ele>169</ele>
        <time>2018-08-16T08:29:41Z</time>
      </trkpt>
      <trkpt lat="45.92564" lon="4.72982">
        <ele>169</ele>
        <time>2018-08-16T08:29:42Z</time>
      </trkpt>
      <trkpt lat="45.92567" lon="4.72979">
        <ele>169</ele>
        <time>2018-08-16T08:29:43Z</time>
      </trkpt>
      <trkpt lat="45.92572" lon="4.72973">
        <ele>169</ele>
        <time>2018-08-16T08:29:44Z</time>
      </trkpt>
      <trkpt lat="45.92577" lon="4.72967">
        <ele>169</ele>
        <time>2018-08-16T08:29:45Z</time>
      </trkpt>
      <trkpt lat="45.9258" lon="4.72963">
        <ele>169</ele>
        <time>2018-08-16T08:29:46Z</time>
      </trkpt>
      <trkpt lat="45.92585" lon="4.72957">
        <ele>169</ele>
        <time>2018-08-16T08:29:47Z</time>
      </trkpt>
      <trkpt lat="45.9259" lon="4.72952">
        <ele>169</ele>
        <time>2018-08-16T08:29:48Z</time>
      </trkpt>
      <trkpt lat="45.92595" lon="4.72948">
        <ele>169</ele>
        <time>2018-08-16T08:29:49Z</time>
      </trkpt>
      <trkpt lat="45.92599" lon="4.72942">
        <ele>169</ele>
        <time>2018-08-16T08:29:50Z</time>
      </trkpt>
      <trkpt lat="45.92605" lon="4.72937">
        <ele>169</ele>
        <time>2018-08-16T08:29:51Z</time>
      </trkpt>
      <trkpt lat="45.92609" lon="4.72931">
        <ele>169</ele>
        <time>2018-08-16T08:29:52Z</time>
      </trkpt>
      <trkpt lat="45.92614" lon="4.72926">
        <ele>169</ele>
        <time>2018-08-16T08:29:53Z</time>
      </trkpt>
      <trkpt lat="45.92619" lon="4.72922">
        <ele>169</ele>
        <time>2018-08-16T08:29:54Z</time>
      </trkpt>
      <trkpt lat="45.92624" lon="4.72919">
        <ele>169</ele>
        <time>2018-08-16T08:29:55Z</time>
      </trkpt>
      <trkpt lat="45.9263" lon="4.72911">
        <ele>169</ele>
        <time>2018-08-16T08:29:56Z</time>
      </trkpt>
      <trkpt lat="45.92633" lon="4.72909">
        <ele>169</ele>
        <time>2018-08-16T08:29:57Z</time>
      </trkpt>
      <trkpt lat="45.92639" lon="4.72905">
        <ele>169</ele>
        <time>2018-08-16T08:29:58Z</time>
      </trkpt>
      <trkpt lat="45.92645" lon="4.72897">
        <ele>169</ele>
        <time>2018-08-16T08:29:59Z</time>
      </trkpt>
      <trkpt lat="45.9265" lon="4.7289">
        <ele>169</ele>
        <time>2018-08-16T08:30:00Z</time>
      </trkpt>
      <trkpt lat="45.92656" lon="4.72887">
        <ele>169</ele>
        <time>2018-08-16T08:30:01Z</time>
      </trkpt>
      <trkpt lat="45.92661" lon="4.72882">
        <ele>169</ele>
        <time>2018-08-16T08:30:02Z</time>
      </trkpt>
      <trkpt lat="45.92667" lon="4.72878">
        <ele>170</ele>
        <time>2018-08-16T08:30:03Z</time>
      </trkpt>
      <trkpt lat="45.92673" lon="4.72873">
        <ele>169</ele>
        <time>2018-08-16T08:30:04Z</time>
      </trkpt>
      <trkpt lat="45.92678" lon="4.72869">
        <ele>169</ele>
        <time>2018-08-16T08:30:05Z</time>
      </trkpt>
      <trkpt lat="45.92684" lon="4.72866">
        <ele>169</ele>
        <time>2018-08-16T08:30:06Z</time>
      </trkpt>
      <trkpt lat="45.9269" lon="4.72863">
        <ele>169</ele>
        <time>2018-08-16T08:30:07Z</time>
      </trkpt>
      <trkpt lat="45.92695" lon="4.72859">
        <ele>169</ele>
        <time>2018-08-16T08:30:08Z</time>
      </trkpt>
      <trkpt lat="45.92702" lon="4.72851">
        <ele>169</ele>
        <time>2018-08-16T08:30:09Z</time>
      </trkpt>
      <trkpt lat="45.92708" lon="4.72847">
        <ele>169</ele>
        <time>2018-08-16T08:30:10Z</time>
      </trkpt>
      <trkpt lat="45.92715" lon="4.72841">
        <ele>169</ele>
        <time>2018-08-16T08:30:11Z</time>
      </trkpt>
      <trkpt lat="45.9272" lon="4.72838">
        <ele>169</ele>
        <time>2018-08-16T08:30:12Z</time>
      </trkpt>
      <trkpt lat="45.92725" lon="4.72834">
        <ele>169</ele>
        <time>2018-08-16T08:30:13Z</time>
      </trkpt>
      <trkpt lat="45.92732" lon="4.72831">
        <ele>169</ele>
        <time>2018-08-16T08:30:14Z</time>
      </trkpt>
      <trkpt lat="45.92738" lon="4.72827">
        <ele>169</ele>
        <time>2018-08-16T08:30:15Z</time>
      </trkpt>
      <trkpt lat="45.92743" lon="4.72822">
        <ele>169</ele>
        <time>2018-08-16T08:30:16Z</time>
      </trkpt>
      <trkpt lat="45.92749" lon="4.72818">
        <ele>169</ele>
        <time>2018-08-16T08:30:17Z</time>
      </trkpt>
      <trkpt lat="45.92751" lon="4.72815">
        <ele>170</ele>
        <time>2018-08-16T08:30:18Z</time>
      </trkpt>
      <trkpt lat="45.92757" lon="4.7281">
        <ele>170</ele>
        <time>2018-08-16T08:30:19Z</time>
      </trkpt>
      <trkpt lat="45.9276" lon="4.72806">
        <ele>170</ele>
        <time>2018-08-16T08:30:20Z</time>
      </trkpt>
      <trkpt lat="45.92766" lon="4.72802">
        <ele>170</ele>
        <time>2018-08-16T08:30:21Z</time>
      </trkpt>
      <trkpt lat="45.92771" lon="4.72799">
        <ele>170</ele>
        <time>2018-08-16T08:30:22Z</time>
      </trkpt>
      <trkpt lat="45.92776" lon="4.72796">
        <ele>170</ele>
        <time>2018-08-16T08:30:23Z</time>
      </trkpt>
      <trkpt lat="45.92781" lon="4.72795">
        <ele>170</ele>
        <time>2018-08-16T08:30:24Z</time>
      </trkpt>
      <trkpt lat="45.92786" lon="4.72793">
        <ele>170</ele>
        <time>2018-08-16T08:30:25Z</time>
      </trkpt>
      <trkpt lat="45.9279" lon="4.72792">
        <ele>170</ele>
        <time>2018-08-16T08:30:26Z</time>
      </trkpt>
      <trkpt lat="45.92795" lon="4.72787">
        <ele>171</ele>
        <time>2018-08-16T08:30:27Z</time>
      </trkpt>
      <trkpt lat="45.92799" lon="4.72797">
        <ele>171</ele>
        <time>2018-08-16T08:30:29Z</time>
      </trkpt>
      <trkpt lat="45.92801" lon="4.72805">
        <ele>171</ele>
        <time>2018-08-16T08:30:30Z</time>
      </trkpt>
      <trkpt lat="45.92804" lon="4.72816">
        <ele>171</ele>
        <time>2018-08-16T08:30:32Z</time>
      </trkpt>
      <trkpt lat="45.92804" lon="4.72823">
        <ele>171</ele>
        <time>2018-08-16T08:30:33Z</time>
      </trkpt>
      <trkpt lat="45.92804" lon="4.72832">
        <ele>171</ele>
        <time>2018-08-16T08:30:34Z</time>
      </trkpt>
      <trkpt lat="45.92807" lon="4.72838">
        <ele>170</ele>
        <time>2018-08-16T08:30:35Z</time>
      </trkpt>
      <trkpt lat="45.92812" lon="4.72845">
        <ele>170</ele>
        <time>2018-08-16T08:30:36Z</time>
      </trkpt>
      <trkpt lat="45.92814" lon="4.72853">
        <ele>170</ele>
        <time>2018-08-16T08:30:37Z</time>
      </trkpt>
      <trkpt lat="45.92814" lon="4.7286">
        <ele>170</ele>
        <time>2018-08-16T08:30:38Z</time>
      </trkpt>
      <trkpt lat="45.92817" lon="4.72868">
        <ele>170</ele>
        <time>2018-08-16T08:30:39Z</time>
      </trkpt>
      <trkpt lat="45.92818" lon="4.72876">
        <ele>170</ele>
        <time>2018-08-16T08:30:40Z</time>
      </trkpt>
      <trkpt lat="45.92821" lon="4.72884">
        <ele>170</ele>
        <time>2018-08-16T08:30:41Z</time>
      </trkpt>
      <trkpt lat="45.92823" lon="4.72892">
        <ele>170</ele>
        <time>2018-08-16T08:30:42Z</time>
      </trkpt>
      <trkpt lat="45.92823" lon="4.72899">
        <ele>170</ele>
        <time>2018-08-16T08:30:43Z</time>
      </trkpt>
      <trkpt lat="45.92825" lon="4.72906">
        <ele>170</ele>
        <time>2018-08-16T08:30:44Z</time>
      </trkpt>
      <trkpt lat="45.92826" lon="4.72915">
        <ele>170</ele>
        <time>2018-08-16T08:30:45Z</time>
      </trkpt>
      <trkpt lat="45.92826" lon="4.72924">
        <ele>170</ele>
        <time>2018-08-16T08:30:46Z</time>
      </trkpt>
      <trkpt lat="45.92826" lon="4.72932">
        <ele>170</ele>
        <time>2018-08-16T08:30:47Z</time>
      </trkpt>
      <trkpt lat="45.92827" lon="4.72941">
        <ele>170</ele>
        <time>2018-08-16T08:30:48Z</time>
      </trkpt>
      <trkpt lat="45.92827" lon="4.72949">
        <ele>170</ele>
        <time>2018-08-16T08:30:49Z</time>
      </trkpt>
      <trkpt lat="45.92827" lon="4.72957">
        <ele>170</ele>
        <time>2018-08-16T08:30:50Z</time>
      </trkpt>
      <trkpt lat="45.92828" lon="4.72966">
        <ele>170</ele>
        <time>2018-08-16T08:30:51Z</time>
      </trkpt>
      <trkpt lat="45.92829" lon="4.72974">
        <ele>170</ele>
        <time>2018-08-16T08:30:52Z</time>
      </trkpt>
      <trkpt lat="45.9283" lon="4.72983">
        <ele>170</ele>
        <time>2018-08-16T08:30:53Z</time>
      </trkpt>
      <trkpt lat="45.92831" lon="4.72992">
        <ele>170</ele>
        <time>2018-08-16T08:30:54Z</time>
      </trkpt>
      <trkpt lat="45.92832" lon="4.73">
        <ele>170</ele>
        <time>2018-08-16T08:30:55Z</time>
      </trkpt>
      <trkpt lat="45.92835" lon="4.73009">
        <ele>170</ele>
        <time>2018-08-16T08:30:56Z</time>
      </trkpt>
      <trkpt lat="45.92835" lon="4.73017">
        <ele>171</ele>
        <time>2018-08-16T08:30:57Z</time>
      </trkpt>
      <trkpt lat="45.92836" lon="4.73025">
        <ele>171</ele>
        <time>2018-08-16T08:30:58Z</time>
      </trkpt>
      <trkpt lat="45.92837" lon="4.73031">
        <ele>171</ele>
        <time>2018-08-16T08:30:59Z</time>
      </trkpt>
      <trkpt lat="45.92838" lon="4.73039">
        <ele>171</ele>
        <time>2018-08-16T08:31:00Z</time>
      </trkpt>
      <trkpt lat="45.92839" lon="4.73046">
        <ele>171</ele>
        <time>2018-08-16T08:31:01Z</time>
      </trkpt>
      <trkpt lat="45.92841" lon="4.73053">
        <ele>171</ele>
        <time>2018-08-16T08:31:02Z</time>
      </trkpt>
      <trkpt lat="45.92841" lon="4.7306">
        <ele>171</ele>
        <time>2018-08-16T08:31:03Z</time>
      </trkpt>
      <trkpt lat="45.92843" lon="4.73068">
        <ele>171</ele>
        <time>2018-08-16T08:31:04Z</time>
      </trkpt>
      <trkpt lat="45.92844" lon="4.73076">
        <ele>171</ele>
        <time>2018-08-16T08:31:05Z</time>
      </trkpt>
      <trkpt lat="45.92844" lon="4.73084">
        <ele>171</ele>
        <time>2018-08-16T08:31:06Z</time>
      </trkpt>
      <trkpt lat="45.92846" lon="4.73091">
        <ele>171</ele>
        <time>2018-08-16T08:31:07Z</time>
      </trkpt>
      <trkpt lat="45.9285" lon="4.73102">
        <ele>171</ele>
        <time>2018-08-16T08:31:09Z</time>
      </trkpt>
      <trkpt lat="45.92853" lon="4.73104">
        <ele>171</ele>
        <time>2018-08-16T08:31:10Z</time>
      </trkpt>
      <trkpt lat="45.92859" lon="4.73103">
        <ele>171</ele>
        <time>2018-08-16T08:31:12Z</time>
      </trkpt>
      <trkpt lat="45.9286" lon="4.73096">
        <ele>171</ele>
        <time>2018-08-16T08:31:13Z</time>
      </trkpt>
      <trkpt lat="45.92866" lon="4.73088">
        <ele>172</ele>
        <time>2018-08-16T08:31:15Z</time>
      </trkpt>
      <trkpt lat="45.9287" lon="4.73086">
        <ele>172</ele>
        <time>2018-08-16T08:31:16Z</time>
      </trkpt>
      <trkpt lat="45.92878" lon="4.73081">
        <ele>172</ele>
        <time>2018-08-16T08:31:18Z</time>
      </trkpt>
      <trkpt lat="45.92882" lon="4.73079">
        <ele>172</ele>
        <time>2018-08-16T08:31:19Z</time>
      </trkpt>
      <trkpt lat="45.92887" lon="4.73074">
        <ele>172</ele>
        <time>2018-08-16T08:31:20Z</time>
      </trkpt>
      <trkpt lat="45.9289" lon="4.73069">
        <ele>172</ele>
        <time>2018-08-16T08:31:21Z</time>
      </trkpt>
      <trkpt lat="45.92893" lon="4.73062">
        <ele>172</ele>
        <time>2018-08-16T08:31:22Z</time>
      </trkpt>
      <trkpt lat="45.92896" lon="4.73056">
        <ele>172</ele>
        <time>2018-08-16T08:31:23Z</time>
      </trkpt>
      <trkpt lat="45.92899" lon="4.7305">
        <ele>172</ele>
        <time>2018-08-16T08:31:24Z</time>
      </trkpt>
      <trkpt lat="45.92902" lon="4.73044">
        <ele>172</ele>
        <time>2018-08-16T08:31:25Z</time>
      </trkpt>
      <trkpt lat="45.92907" lon="4.73038">
        <ele>172</ele>
        <time>2018-08-16T08:31:26Z</time>
      </trkpt>
      <trkpt lat="45.92911" lon="4.73033">
        <ele>172</ele>
        <time>2018-08-16T08:31:27Z</time>
      </trkpt>
      <trkpt lat="45.92916" lon="4.73027">
        <ele>172</ele>
        <time>2018-08-16T08:31:28Z</time>
      </trkpt>
      <trkpt lat="45.92921" lon="4.73022">
        <ele>172</ele>
        <time>2018-08-16T08:31:29Z</time>
      </trkpt>
      <trkpt lat="45.92926" lon="4.73016">
        <ele>172</ele>
        <time>2018-08-16T08:31:30Z</time>
      </trkpt>
      <trkpt lat="45.92931" lon="4.73009">
        <ele>171</ele>
        <time>2018-08-16T08:31:31Z</time>
      </trkpt>
      <trkpt lat="45.92935" lon="4.73004">
        <ele>171</ele>
        <time>2018-08-16T08:31:32Z</time>
      </trkpt>
      <trkpt lat="45.92939" lon="4.73">
        <ele>171</ele>
        <time>2018-08-16T08:31:33Z</time>
      </trkpt>
      <trkpt lat="45.92945" lon="4.72991">
        <ele>171</ele>
        <time>2018-08-16T08:31:35Z</time>
      </trkpt>
      <trkpt lat="45.92951" lon="4.72984">
        <ele>171</ele>
        <time>2018-08-16T08:31:36Z</time>
      </trkpt>
      <trkpt lat="45.92956" lon="4.72979">
        <ele>171</ele>
        <time>2018-08-16T08:31:37Z</time>
      </trkpt>
      <trkpt lat="45.92962" lon="4.72973">
        <ele>171</ele>
        <time>2018-08-16T08:31:38Z</time>
      </trkpt>
      <trkpt lat="45.92969" lon="4.72967">
        <ele>171</ele>
        <time>2018-08-16T08:31:39Z</time>
      </trkpt>
      <trkpt lat="45.92972" lon="4.72962">
        <ele>171</ele>
        <time>2018-08-16T08:31:40Z</time>
      </trkpt>
      <trkpt lat="45.92976" lon="4.72955">
        <ele>171</ele>
        <time>2018-08-16T08:31:41Z</time>
      </trkpt>
      <trkpt lat="45.92981" lon="4.72949">
        <ele>171</ele>
        <time>2018-08-16T08:31:42Z</time>
      </trkpt>
      <trkpt lat="45.92986" lon="4.72945">
        <ele>171</ele>
        <time>2018-08-16T08:31:43Z</time>
      </trkpt>
      <trkpt lat="45.92989" lon="4.7294">
        <ele>171</ele>
        <time>2018-08-16T08:31:44Z</time>
      </trkpt>
      <trkpt lat="45.92995" lon="4.72935">
        <ele>171</ele>
        <time>2018-08-16T08:31:45Z</time>
      </trkpt>
      <trkpt lat="45.92999" lon="4.72929">
        <ele>171</ele>
        <time>2018-08-16T08:31:46Z</time>
      </trkpt>
      <trkpt lat="45.93004" lon="4.72924">
        <ele>170</ele>
        <time>2018-08-16T08:31:47Z</time>
      </trkpt>
      <trkpt lat="45.93009" lon="4.72917">
        <ele>170</ele>
        <time>2018-08-16T08:31:48Z</time>
      </trkpt>
      <trkpt lat="45.93015" lon="4.72911">
        <ele>171</ele>
        <time>2018-08-16T08:31:49Z</time>
      </trkpt>
      <trkpt lat="45.93019" lon="4.72905">
        <ele>172</ele>
        <time>2018-08-16T08:31:50Z</time>
      </trkpt>
      <trkpt lat="45.93024" lon="4.72898">
        <ele>172</ele>
        <time>2018-08-16T08:31:51Z</time>
      </trkpt>
      <trkpt lat="45.93027" lon="4.72891">
        <ele>172</ele>
        <time>2018-08-16T08:31:52Z</time>
      </trkpt>
      <trkpt lat="45.93032" lon="4.72885">
        <ele>172</ele>
        <time>2018-08-16T08:31:53Z</time>
      </trkpt>
      <trkpt lat="45.93037" lon="4.72879">
        <ele>172</ele>
        <time>2018-08-16T08:31:54Z</time>
      </trkpt>
      <trkpt lat="45.93041" lon="4.72874">
        <ele>172</ele>
        <time>2018-08-16T08:31:55Z</time>
      </trkpt>
      <trkpt lat="45.93046" lon="4.72869">
        <ele>172</ele>
        <time>2018-08-16T08:31:56Z</time>
      </trkpt>
      <trkpt lat="45.9305" lon="4.72864">
        <ele>172</ele>
        <time>2018-08-16T08:31:57Z</time>
      </trkpt>
      <trkpt lat="45.93055" lon="4.72859">
        <ele>172</ele>
        <time>2018-08-16T08:31:58Z</time>
      </trkpt>
      <trkpt lat="45.93059" lon="4.72854">
        <ele>172</ele>
        <time>2018-08-16T08:31:59Z</time>
      </trkpt>
      <trkpt lat="45.93064" lon="4.72848">
        <ele>172</ele>
        <time>2018-08-16T08:32:00Z</time>
      </trkpt>
      <trkpt lat="45.93068" lon="4.72844">
        <ele>173</ele>
        <time>2018-08-16T08:32:01Z</time>
      </trkpt>
      <trkpt lat="45.93072" lon="4.72839">
        <ele>173</ele>
        <time>2018-08-16T08:32:02Z</time>
      </trkpt>
      <trkpt lat="45.93104" lon="4.728">
        <ele>171</ele>
        <time>2018-08-16T08:32:09Z</time>
      </trkpt>
      <trkpt lat="45.93106" lon="4.72797">
        <ele>171</ele>
        <time>2018-08-16T08:32:10Z</time>
      </trkpt>
      <trkpt lat="45.93114" lon="4.72788">
        <ele>171</ele>
        <time>2018-08-16T08:32:11Z</time>
      </trkpt>
      <trkpt lat="45.93117" lon="4.72784">
        <ele>171</ele>
        <time>2018-08-16T08:32:12Z</time>
      </trkpt>
      <trkpt lat="45.93123" lon="4.72778">
        <ele>171</ele>
        <time>2018-08-16T08:32:13Z</time>
      </trkpt>
      <trkpt lat="45.93128" lon="4.72776">
        <ele>171</ele>
        <time>2018-08-16T08:32:14Z</time>
      </trkpt>
      <trkpt lat="45.93132" lon="4.72772">
        <ele>171</ele>
        <time>2018-08-16T08:32:15Z</time>
      </trkpt>
      <trkpt lat="45.93137" lon="4.72766">
        <ele>171</ele>
        <time>2018-08-16T08:32:16Z</time>
      </trkpt>
      <trkpt lat="45.93142" lon="4.72763">
        <ele>171</ele>
        <time>2018-08-16T08:32:17Z</time>
      </trkpt>
      <trkpt lat="45.93147" lon="4.72757">
        <ele>170</ele>
        <time>2018-08-16T08:32:18Z</time>
      </trkpt>
      <trkpt lat="45.93152" lon="4.72752">
        <ele>170</ele>
        <time>2018-08-16T08:32:19Z</time>
      </trkpt>
      <trkpt lat="45.93157" lon="4.72745">
        <ele>170</ele>
        <time>2018-08-16T08:32:20Z</time>
      </trkpt>
      <trkpt lat="45.93162" lon="4.7274">
        <ele>170</ele>
        <time>2018-08-16T08:32:21Z</time>
      </trkpt>
      <trkpt lat="45.93167" lon="4.72734">
        <ele>170</ele>
        <time>2018-08-16T08:32:22Z</time>
      </trkpt>
      <trkpt lat="45.93172" lon="4.72728">
        <ele>170</ele>
        <time>2018-08-16T08:32:23Z</time>
      </trkpt>
      <trkpt lat="45.93174" lon="4.72722">
        <ele>170</ele>
        <time>2018-08-16T08:32:24Z</time>
      </trkpt>
      <trkpt lat="45.93179" lon="4.72717">
        <ele>169</ele>
        <time>2018-08-16T08:32:25Z</time>
      </trkpt>
      <trkpt lat="45.93184" lon="4.72711">
        <ele>169</ele>
        <time>2018-08-16T08:32:26Z</time>
      </trkpt>
      <trkpt lat="45.93188" lon="4.72706">
        <ele>169</ele>
        <time>2018-08-16T08:32:27Z</time>
      </trkpt>
      <trkpt lat="45.93195" lon="4.727">
        <ele>169</ele>
        <time>2018-08-16T08:32:28Z</time>
      </trkpt>
      <trkpt lat="45.93199" lon="4.72694">
        <ele>169</ele>
        <time>2018-08-16T08:32:29Z</time>
      </trkpt>
      <trkpt lat="45.93205" lon="4.72688">
        <ele>169</ele>
        <time>2018-08-16T08:32:30Z</time>
      </trkpt>
      <trkpt lat="45.93209" lon="4.72684">
        <ele>169</ele>
        <time>2018-08-16T08:32:31Z</time>
      </trkpt>
      <trkpt lat="45.93215" lon="4.72679">
        <ele>169</ele>
        <time>2018-08-16T08:32:32Z</time>
      </trkpt>
      <trkpt lat="45.9322" lon="4.72672">
        <ele>169</ele>
        <time>2018-08-16T08:32:33Z</time>
      </trkpt>
      <trkpt lat="45.93224" lon="4.72666">
        <ele>170</ele>
        <time>2018-08-16T08:32:34Z</time>
      </trkpt>
      <trkpt lat="45.93228" lon="4.72661">
        <ele>169</ele>
        <time>2018-08-16T08:32:35Z</time>
      </trkpt>
      <trkpt lat="45.93232" lon="4.72655">
        <ele>169</ele>
        <time>2018-08-16T08:32:36Z</time>
      </trkpt>
      <trkpt lat="45.93237" lon="4.72651">
        <ele>169</ele>
        <time>2018-08-16T08:32:37Z</time>
      </trkpt>
      <trkpt lat="45.93242" lon="4.72644">
        <ele>170</ele>
        <time>2018-08-16T08:32:38Z</time>
      </trkpt>
      <trkpt lat="45.93246" lon="4.72639">
        <ele>170</ele>
        <time>2018-08-16T08:32:39Z</time>
      </trkpt>
      <trkpt lat="45.93251" lon="4.72633">
        <ele>170</ele>
        <time>2018-08-16T08:32:40Z</time>
      </trkpt>
      <trkpt lat="45.93256" lon="4.72627">
        <ele>170</ele>
        <time>2018-08-16T08:32:41Z</time>
      </trkpt>
      <trkpt lat="45.9326" lon="4.72622">
        <ele>170</ele>
        <time>2018-08-16T08:32:42Z</time>
      </trkpt>
      <trkpt lat="45.93264" lon="4.72617">
        <ele>170</ele>
        <time>2018-08-16T08:32:43Z</time>
      </trkpt>
      <trkpt lat="45.93266" lon="4.72613">
        <ele>170</ele>
        <time>2018-08-16T08:32:44Z</time>
      </trkpt>
      <trkpt lat="45.93273" lon="4.72607">
        <ele>170</ele>
        <time>2018-08-16T08:32:45Z</time>
      </trkpt>
      <trkpt lat="45.93279" lon="4.72597">
        <ele>170</ele>
        <time>2018-08-16T08:32:47Z</time>
      </trkpt>
      <trkpt lat="45.93283" lon="4.72593">
        <ele>170</ele>
        <time>2018-08-16T08:32:48Z</time>
      </trkpt>
      <trkpt lat="45.93287" lon="4.72587">
        <ele>170</ele>
        <time>2018-08-16T08:32:49Z</time>
      </trkpt>
      <trkpt lat="45.93292" lon="4.72581">
        <ele>171</ele>
        <time>2018-08-16T08:32:50Z</time>
      </trkpt>
      <trkpt lat="45.93297" lon="4.72576">
        <ele>171</ele>
        <time>2018-08-16T08:32:51Z</time>
      </trkpt>
      <trkpt lat="45.933" lon="4.72571">
        <ele>171</ele>
        <time>2018-08-16T08:32:52Z</time>
      </trkpt>
      <trkpt lat="45.93308" lon="4.72567">
        <ele>171</ele>
        <time>2018-08-16T08:32:53Z</time>
      </trkpt>
      <trkpt lat="45.93312" lon="4.72562">
        <ele>171</ele>
        <time>2018-08-16T08:32:54Z</time>
      </trkpt>
      <trkpt lat="45.93317" lon="4.72555">
        <ele>172</ele>
        <time>2018-08-16T08:32:55Z</time>
      </trkpt>
      <trkpt lat="45.93321" lon="4.72549">
        <ele>172</ele>
        <time>2018-08-16T08:32:56Z</time>
      </trkpt>
      <trkpt lat="45.93326" lon="4.72544">
        <ele>172</ele>
        <time>2018-08-16T08:32:57Z</time>
      </trkpt>
      <trkpt lat="45.9333" lon="4.72539">
        <ele>172</ele>
        <time>2018-08-16T08:32:58Z</time>
      </trkpt>
      <trkpt lat="45.93333" lon="4.72534">
        <ele>172</ele>
        <time>2018-08-16T08:32:59Z</time>
      </trkpt>
      <trkpt lat="45.93338" lon="4.72529">
        <ele>172</ele>
        <time>2018-08-16T08:33:00Z</time>
      </trkpt>
      <trkpt lat="45.93342" lon="4.72522">
        <ele>172</ele>
        <time>2018-08-16T08:33:01Z</time>
      </trkpt>
      <trkpt lat="45.93347" lon="4.72518">
        <ele>172</ele>
        <time>2018-08-16T08:33:02Z</time>
      </trkpt>
      <trkpt lat="45.93352" lon="4.72511">
        <ele>172</ele>
        <time>2018-08-16T08:33:03Z</time>
      </trkpt>
      <trkpt lat="45.93357" lon="4.72505">
        <ele>172</ele>
        <time>2018-08-16T08:33:04Z</time>
      </trkpt>
      <trkpt lat="45.93363" lon="4.72496">
        <ele>173</ele>
        <time>2018-08-16T08:33:06Z</time>
      </trkpt>
      <trkpt lat="45.93368" lon="4.72492">
        <ele>173</ele>
        <time>2018-08-16T08:33:07Z</time>
      </trkpt>
      <trkpt lat="45.93372" lon="4.72487">
        <ele>173</ele>
        <time>2018-08-16T08:33:08Z</time>
      </trkpt>
      <trkpt lat="45.93377" lon="4.72484">
        <ele>173</ele>
        <time>2018-08-16T08:33:09Z</time>
      </trkpt>
      <trkpt lat="45.93379" lon="4.72479">
        <ele>173</ele>
        <time>2018-08-16T08:33:10Z</time>
      </trkpt>
      <trkpt lat="45.93383" lon="4.72473">
        <ele>173</ele>
        <time>2018-08-16T08:33:11Z</time>
      </trkpt>
      <trkpt lat="45.93387" lon="4.72468">
        <ele>173</ele>
        <time>2018-08-16T08:33:12Z</time>
      </trkpt>
      <trkpt lat="45.93391" lon="4.72464">
        <ele>173</ele>
        <time>2018-08-16T08:33:13Z</time>
      </trkpt>
      <trkpt lat="45.93395" lon="4.72455">
        <ele>173</ele>
        <time>2018-08-16T08:33:15Z</time>
      </trkpt>
      <trkpt lat="45.93396" lon="4.72449">
        <ele>173</ele>
        <time>2018-08-16T08:33:16Z</time>
      </trkpt>
      <trkpt lat="45.93399" lon="4.72437">
        <ele>173</ele>
        <time>2018-08-16T08:33:18Z</time>
      </trkpt>
      <trkpt lat="45.93401" lon="4.72432">
        <ele>173</ele>
        <time>2018-08-16T08:33:19Z</time>
      </trkpt>
      <trkpt lat="45.93404" lon="4.72427">
        <ele>173</ele>
        <time>2018-08-16T08:33:20Z</time>
      </trkpt>
      <trkpt lat="45.93408" lon="4.72421">
        <ele>174</ele>
        <time>2018-08-16T08:33:21Z</time>
      </trkpt>
      <trkpt lat="45.93413" lon="4.72418">
        <ele>174</ele>
        <time>2018-08-16T08:33:22Z</time>
      </trkpt>
      <trkpt lat="45.93417" lon="4.72415">
        <ele>174</ele>
        <time>2018-08-16T08:33:23Z</time>
      </trkpt>
      <trkpt lat="45.93422" lon="4.72413">
        <ele>174</ele>
        <time>2018-08-16T08:33:24Z</time>
      </trkpt>
      <trkpt lat="45.93427" lon="4.72411">
        <ele>174</ele>
        <time>2018-08-16T08:33:25Z</time>
      </trkpt>
      <trkpt lat="45.93432" lon="4.72408">
        <ele>174</ele>
        <time>2018-08-16T08:33:26Z</time>
      </trkpt>
      <trkpt lat="45.93437" lon="4.72405">
        <ele>174</ele>
        <time>2018-08-16T08:33:27Z</time>
      </trkpt>
      <trkpt lat="45.93443" lon="4.724">
        <ele>173</ele>
        <time>2018-08-16T08:33:28Z</time>
      </trkpt>
      <trkpt lat="45.93448" lon="4.72397">
        <ele>173</ele>
        <time>2018-08-16T08:33:29Z</time>
      </trkpt>
      <trkpt lat="45.93452" lon="4.72393">
        <ele>173</ele>
        <time>2018-08-16T08:33:30Z</time>
      </trkpt>
      <trkpt lat="45.93457" lon="4.72387">
        <ele>173</ele>
        <time>2018-08-16T08:33:31Z</time>
      </trkpt>
      <trkpt lat="45.93461" lon="4.72381">
        <ele>173</ele>
        <time>2018-08-16T08:33:32Z</time>
      </trkpt>
      <trkpt lat="45.93466" lon="4.72374">
        <ele>173</ele>
        <time>2018-08-16T08:33:33Z</time>
      </trkpt>
      <trkpt lat="45.93471" lon="4.72369">
        <ele>173</ele>
        <time>2018-08-16T08:33:34Z</time>
      </trkpt>
      <trkpt lat="45.93476" lon="4.72362">
        <ele>173</ele>
        <time>2018-08-16T08:33:35Z</time>
      </trkpt>
      <trkpt lat="45.93479" lon="4.72356">
        <ele>173</ele>
        <time>2018-08-16T08:33:36Z</time>
      </trkpt>
      <trkpt lat="45.93485" lon="4.72349">
        <ele>173</ele>
        <time>2018-08-16T08:33:37Z</time>
      </trkpt>
      <trkpt lat="45.9349" lon="4.72343">
        <ele>173</ele>
        <time>2018-08-16T08:33:38Z</time>
      </trkpt>
      <trkpt lat="45.93494" lon="4.72337">
        <ele>173</ele>
        <time>2018-08-16T08:33:39Z</time>
      </trkpt>
      <trkpt lat="45.93499" lon="4.7233">
        <ele>173</ele>
        <time>2018-08-16T08:33:40Z</time>
      </trkpt>
      <trkpt lat="45.93504" lon="4.72323">
        <ele>173</ele>
        <time>2018-08-16T08:33:41Z</time>
      </trkpt>
      <trkpt lat="45.93508" lon="4.72317">
        <ele>173</ele>
        <time>2018-08-16T08:33:42Z</time>
      </trkpt>
      <trkpt lat="45.93512" lon="4.72311">
        <ele>173</ele>
        <time>2018-08-16T08:33:43Z</time>
      </trkpt>
      <trkpt lat="45.93516" lon="4.72305">
        <ele>173</ele>
        <time>2018-08-16T08:33:44Z</time>
      </trkpt>
      <trkpt lat="45.9352" lon="4.72299">
        <ele>172</ele>
        <time>2018-08-16T08:33:45Z</time>
      </trkpt>
      <trkpt lat="45.93523" lon="4.72293">
        <ele>172</ele>
        <time>2018-08-16T08:33:46Z</time>
      </trkpt>
      <trkpt lat="45.93525" lon="4.72286">
        <ele>172</ele>
        <time>2018-08-16T08:33:47Z</time>
      </trkpt>
      <trkpt lat="45.93528" lon="4.72279">
        <ele>172</ele>
        <time>2018-08-16T08:33:48Z</time>
      </trkpt>
      <trkpt lat="45.9353" lon="4.72274">
        <ele>172</ele>
        <time>2018-08-16T08:33:49Z</time>
      </trkpt>
      <trkpt lat="45.93533" lon="4.72267">
        <ele>172</ele>
        <time>2018-08-16T08:33:50Z</time>
      </trkpt>
      <trkpt lat="45.93535" lon="4.72261">
        <ele>172</ele>
        <time>2018-08-16T08:33:51Z</time>
      </trkpt>
      <trkpt lat="45.9354" lon="4.72251">
        <ele>172</ele>
        <time>2018-08-16T08:33:53Z</time>
      </trkpt>
      <trkpt lat="45.93542" lon="4.72246">
        <ele>172</ele>
        <time>2018-08-16T08:33:54Z</time>
      </trkpt>
      <trkpt lat="45.93545" lon="4.72241">
        <ele>172</ele>
        <time>2018-08-16T08:33:55Z</time>
      </trkpt>
      <trkpt lat="45.93547" lon="4.72233">
        <ele>172</ele>
        <time>2018-08-16T08:33:56Z</time>
      </trkpt>
      <trkpt lat="45.93551" lon="4.72226">
        <ele>172</ele>
        <time>2018-08-16T08:33:57Z</time>
      </trkpt>
      <trkpt lat="45.93556" lon="4.72219">
        <ele>173</ele>
        <time>2018-08-16T08:33:58Z</time>
      </trkpt>
      <trkpt lat="45.9356" lon="4.72212">
        <ele>173</ele>
        <time>2018-08-16T08:33:59Z</time>
      </trkpt>
      <trkpt lat="45.93566" lon="4.72206">
        <ele>173</ele>
        <time>2018-08-16T08:34:00Z</time>
      </trkpt>
      <trkpt lat="45.93572" lon="4.72201">
        <ele>173</ele>
        <time>2018-08-16T08:34:01Z</time>
      </trkpt>
      <trkpt lat="45.93577" lon="4.72195">
        <ele>173</ele>
        <time>2018-08-16T08:34:02Z</time>
      </trkpt>
      <trkpt lat="45.93586" lon="4.72188">
        <ele>173</ele>
        <time>2018-08-16T08:34:03Z</time>
      </trkpt>
      <trkpt lat="45.93591" lon="4.72183">
        <ele>173</ele>
        <time>2018-08-16T08:34:04Z</time>
      </trkpt>
      <trkpt lat="45.93596" lon="4.7218">
        <ele>173</ele>
        <time>2018-08-16T08:34:05Z</time>
      </trkpt>
      <trkpt lat="45.93601" lon="4.72174">
        <ele>173</ele>
        <time>2018-08-16T08:34:06Z</time>
      </trkpt>
      <trkpt lat="45.93606" lon="4.72169">
        <ele>173</ele>
        <time>2018-08-16T08:34:07Z</time>
      </trkpt>
      <trkpt lat="45.93612" lon="4.72165">
        <ele>173</ele>
        <time>2018-08-16T08:34:08Z</time>
      </trkpt>
      <trkpt lat="45.93618" lon="4.7216">
        <ele>173</ele>
        <time>2018-08-16T08:34:09Z</time>
      </trkpt>
      <trkpt lat="45.93623" lon="4.72154">
        <ele>173</ele>
        <time>2018-08-16T08:34:10Z</time>
      </trkpt>
      <trkpt lat="45.93628" lon="4.72146">
        <ele>173</ele>
        <time>2018-08-16T08:34:11Z</time>
      </trkpt>
      <trkpt lat="45.93631" lon="4.7214">
        <ele>173</ele>
        <time>2018-08-16T08:34:12Z</time>
      </trkpt>
      <trkpt lat="45.93636" lon="4.72133">
        <ele>173</ele>
        <time>2018-08-16T08:34:13Z</time>
      </trkpt>
      <trkpt lat="45.9364" lon="4.72128">
        <ele>173</ele>
        <time>2018-08-16T08:34:14Z</time>
      </trkpt>
      <trkpt lat="45.93644" lon="4.72122">
        <ele>173</ele>
        <time>2018-08-16T08:34:15Z</time>
      </trkpt>
      <trkpt lat="45.93648" lon="4.72115">
        <ele>173</ele>
        <time>2018-08-16T08:34:16Z</time>
      </trkpt>
      <trkpt lat="45.93652" lon="4.72109">
        <ele>173</ele>
        <time>2018-08-16T08:34:17Z</time>
      </trkpt>
      <trkpt lat="45.93655" lon="4.72101">
        <ele>173</ele>
        <time>2018-08-16T08:34:18Z</time>
      </trkpt>
      <trkpt lat="45.93658" lon="4.72094">
        <ele>173</ele>
        <time>2018-08-16T08:34:19Z</time>
      </trkpt>
      <trkpt lat="45.93662" lon="4.72089">
        <ele>172</ele>
        <time>2018-08-16T08:34:20Z</time>
      </trkpt>
      <trkpt lat="45.93665" lon="4.72084">
        <ele>172</ele>
        <time>2018-08-16T08:34:21Z</time>
      </trkpt>
      <trkpt lat="45.93669" lon="4.72077">
        <ele>172</ele>
        <time>2018-08-16T08:34:22Z</time>
      </trkpt>
      <trkpt lat="45.93671" lon="4.7207">
        <ele>172</ele>
        <time>2018-08-16T08:34:23Z</time>
      </trkpt>
      <trkpt lat="45.93675" lon="4.72062">
        <ele>172</ele>
        <time>2018-08-16T08:34:24Z</time>
      </trkpt>
      <trkpt lat="45.9368" lon="4.72055">
        <ele>172</ele>
        <time>2018-08-16T08:34:25Z</time>
      </trkpt>
      <trkpt lat="45.93683" lon="4.72048">
        <ele>172</ele>
        <time>2018-08-16T08:34:26Z</time>
      </trkpt>
      <trkpt lat="45.93687" lon="4.72041">
        <ele>173</ele>
        <time>2018-08-16T08:34:27Z</time>
      </trkpt>
      <trkpt lat="45.93691" lon="4.72034">
        <ele>173</ele>
        <time>2018-08-16T08:34:28Z</time>
      </trkpt>
      <trkpt lat="45.93696" lon="4.72028">
        <ele>172</ele>
        <time>2018-08-16T08:34:29Z</time>
      </trkpt>
      <trkpt lat="45.937" lon="4.72022">
        <ele>172</ele>
        <time>2018-08-16T08:34:30Z</time>
      </trkpt>
      <trkpt lat="45.93703" lon="4.72016">
        <ele>172</ele>
        <time>2018-08-16T08:34:31Z</time>
      </trkpt>
      <trkpt lat="45.93708" lon="4.72011">
        <ele>172</ele>
        <time>2018-08-16T08:34:32Z</time>
      </trkpt>
      <trkpt lat="45.93712" lon="4.72004">
        <ele>172</ele>
        <time>2018-08-16T08:34:33Z</time>
      </trkpt>
      <trkpt lat="45.93717" lon="4.71997">
        <ele>172</ele>
        <time>2018-08-16T08:34:34Z</time>
      </trkpt>
      <trkpt lat="45.93721" lon="4.71989">
        <ele>172</ele>
        <time>2018-08-16T08:34:35Z</time>
      </trkpt>
      <trkpt lat="45.93724" lon="4.71985">
        <ele>172</ele>
        <time>2018-08-16T08:34:36Z</time>
      </trkpt>
      <trkpt lat="45.93727" lon="4.71978">
        <ele>172</ele>
        <time>2018-08-16T08:34:37Z</time>
      </trkpt>
      <trkpt lat="45.93731" lon="4.71971">
        <ele>172</ele>
        <time>2018-08-16T08:34:38Z</time>
      </trkpt>
      <trkpt lat="45.93734" lon="4.71966">
        <ele>172</ele>
        <time>2018-08-16T08:34:39Z</time>
      </trkpt>
      <trkpt lat="45.93739" lon="4.71962">
        <ele>172</ele>
        <time>2018-08-16T08:34:40Z</time>
      </trkpt>
      <trkpt lat="45.93743" lon="4.71959">
        <ele>172</ele>
        <time>2018-08-16T08:34:41Z</time>
      </trkpt>
      <trkpt lat="45.93751" lon="4.71952">
        <ele>171</ele>
        <time>2018-08-16T08:34:43Z</time>
      </trkpt>
      <trkpt lat="45.93755" lon="4.71949">
        <ele>171</ele>
        <time>2018-08-16T08:34:44Z</time>
      </trkpt>
      <trkpt lat="45.93761" lon="4.71941">
        <ele>171</ele>
        <time>2018-08-16T08:34:50Z</time>
      </trkpt>
      <trkpt lat="45.93762" lon="4.7194">
        <ele>171</ele>
        <time>2018-08-16T08:34:51Z</time>
      </trkpt>
      <trkpt lat="45.93766" lon="4.71929">
        <ele>171</ele>
        <time>2018-08-16T08:35:07Z</time>
      </trkpt>
      <trkpt lat="45.93767" lon="4.71928">
        <ele>171</ele>
        <time>2018-08-16T08:35:08Z</time>
      </trkpt>
      <trkpt lat="45.93772" lon="4.7192">
        <ele>171</ele>
        <time>2018-08-16T08:35:11Z</time>
      </trkpt>
      <trkpt lat="45.93773" lon="4.71917">
        <ele>171</ele>
        <time>2018-08-16T08:35:12Z</time>
      </trkpt>
      <trkpt lat="45.93778" lon="4.71906">
        <ele>172</ele>
        <time>2018-08-16T08:35:13Z</time>
      </trkpt>
      <trkpt lat="45.93779" lon="4.719">
        <ele>172</ele>
        <time>2018-08-16T08:35:14Z</time>
      </trkpt>
      <trkpt lat="45.93779" lon="4.71893">
        <ele>172</ele>
        <time>2018-08-16T08:35:15Z</time>
      </trkpt>
      <trkpt lat="45.9378" lon="4.71886">
        <ele>172</ele>
        <time>2018-08-16T08:35:16Z</time>
      </trkpt>
      <trkpt lat="45.9378" lon="4.7188">
        <ele>172</ele>
        <time>2018-08-16T08:35:17Z</time>
      </trkpt>
      <trkpt lat="45.93786" lon="4.71874">
        <ele>172</ele>
        <time>2018-08-16T08:35:18Z</time>
      </trkpt>
      <trkpt lat="45.93788" lon="4.71869">
        <ele>172</ele>
        <time>2018-08-16T08:35:19Z</time>
      </trkpt>
      <trkpt lat="45.93792" lon="4.71863">
        <ele>172</ele>
        <time>2018-08-16T08:35:20Z</time>
      </trkpt>
      <trkpt lat="45.93795" lon="4.71854">
        <ele>172</ele>
        <time>2018-08-16T08:35:21Z</time>
      </trkpt>
      <trkpt lat="45.938" lon="4.7185">
        <ele>172</ele>
        <time>2018-08-16T08:35:22Z</time>
      </trkpt>
      <trkpt lat="45.93803" lon="4.71846">
        <ele>172</ele>
        <time>2018-08-16T08:35:23Z</time>
      </trkpt>
      <trkpt lat="45.93808" lon="4.71838">
        <ele>172</ele>
        <time>2018-08-16T08:35:24Z</time>
      </trkpt>
      <trkpt lat="45.93811" lon="4.71833">
        <ele>173</ele>
        <time>2018-08-16T08:35:25Z</time>
      </trkpt>
      <trkpt lat="45.93815" lon="4.71828">
        <ele>173</ele>
        <time>2018-08-16T08:35:26Z</time>
      </trkpt>
      <trkpt lat="45.93817" lon="4.71822">
        <ele>173</ele>
        <time>2018-08-16T08:35:27Z</time>
      </trkpt>
      <trkpt lat="45.93821" lon="4.71817">
        <ele>173</ele>
        <time>2018-08-16T08:35:28Z</time>
      </trkpt>
      <trkpt lat="45.93825" lon="4.71809">
        <ele>173</ele>
        <time>2018-08-16T08:35:29Z</time>
      </trkpt>
      <trkpt lat="45.93828" lon="4.71804">
        <ele>174</ele>
        <time>2018-08-16T08:35:30Z</time>
      </trkpt>
      <trkpt lat="45.93831" lon="4.71797">
        <ele>174</ele>
        <time>2018-08-16T08:35:31Z</time>
      </trkpt>
      <trkpt lat="45.93835" lon="4.7179">
        <ele>173</ele>
        <time>2018-08-16T08:35:32Z</time>
      </trkpt>
      <trkpt lat="45.93838" lon="4.71784">
        <ele>173</ele>
        <time>2018-08-16T08:35:33Z</time>
      </trkpt>
      <trkpt lat="45.93842" lon="4.71779">
        <ele>173</ele>
        <time>2018-08-16T08:35:34Z</time>
      </trkpt>
      <trkpt lat="45.93847" lon="4.71773">
        <ele>173</ele>
        <time>2018-08-16T08:35:35Z</time>
      </trkpt>
      <trkpt lat="45.9385" lon="4.71767">
        <ele>173</ele>
        <time>2018-08-16T08:35:36Z</time>
      </trkpt>
      <trkpt lat="45.93855" lon="4.71756">
        <ele>173</ele>
        <time>2018-08-16T08:35:38Z</time>
      </trkpt>
      <trkpt lat="45.93861" lon="4.7175">
        <ele>173</ele>
        <time>2018-08-16T08:35:39Z</time>
      </trkpt>
      <trkpt lat="45.93865" lon="4.71745">
        <ele>174</ele>
        <time>2018-08-16T08:35:40Z</time>
      </trkpt>
      <trkpt lat="45.93869" lon="4.7174">
        <ele>174</ele>
        <time>2018-08-16T08:35:41Z</time>
      </trkpt>
      <trkpt lat="45.93873" lon="4.71736">
        <ele>174</ele>
        <time>2018-08-16T08:35:42Z</time>
      </trkpt>
      <trkpt lat="45.93877" lon="4.7173">
        <ele>174</ele>
        <time>2018-08-16T08:35:43Z</time>
      </trkpt>
      <trkpt lat="45.93882" lon="4.71726">
        <ele>174</ele>
        <time>2018-08-16T08:35:44Z</time>
      </trkpt>
      <trkpt lat="45.93887" lon="4.71721">
        <ele>174</ele>
        <time>2018-08-16T08:35:45Z</time>
      </trkpt>
      <trkpt lat="45.9389" lon="4.71717">
        <ele>174</ele>
        <time>2018-08-16T08:35:46Z</time>
      </trkpt>
      <trkpt lat="45.93895" lon="4.71711">
        <ele>174</ele>
        <time>2018-08-16T08:35:47Z</time>
      </trkpt>
      <trkpt lat="45.93899" lon="4.71706">
        <ele>174</ele>
        <time>2018-08-16T08:35:48Z</time>
      </trkpt>
      <trkpt lat="45.93905" lon="4.71701">
        <ele>174</ele>
        <time>2018-08-16T08:35:49Z</time>
      </trkpt>
      <trkpt lat="45.9391" lon="4.71701">
        <ele>174</ele>
        <time>2018-08-16T08:35:50Z</time>
      </trkpt>
      <trkpt lat="45.93914" lon="4.71698">
        <ele>174</ele>
        <time>2018-08-16T08:35:51Z</time>
      </trkpt>
      <trkpt lat="45.9392" lon="4.71696">
        <ele>174</ele>
        <time>2018-08-16T08:35:52Z</time>
      </trkpt>
      <trkpt lat="45.93926" lon="4.71695">
        <ele>174</ele>
        <time>2018-08-16T08:35:53Z</time>
      </trkpt>
      <trkpt lat="45.93932" lon="4.71693">
        <ele>175</ele>
        <time>2018-08-16T08:35:54Z</time>
      </trkpt>
      <trkpt lat="45.93938" lon="4.7169">
        <ele>175</ele>
        <time>2018-08-16T08:35:55Z</time>
      </trkpt>
      <trkpt lat="45.93943" lon="4.71688">
        <ele>175</ele>
        <time>2018-08-16T08:35:56Z</time>
      </trkpt>
      <trkpt lat="45.93948" lon="4.71685">
        <ele>175</ele>
        <time>2018-08-16T08:35:57Z</time>
      </trkpt>
      <trkpt lat="45.93953" lon="4.71684">
        <ele>175</ele>
        <time>2018-08-16T08:35:58Z</time>
      </trkpt>
      <trkpt lat="45.93958" lon="4.71682">
        <ele>175</ele>
        <time>2018-08-16T08:35:59Z</time>
      </trkpt>
      <trkpt lat="45.93962" lon="4.7168">
        <ele>175</ele>
        <time>2018-08-16T08:36:00Z</time>
      </trkpt>
      <trkpt lat="45.93968" lon="4.71676">
        <ele>175</ele>
        <time>2018-08-16T08:36:01Z</time>
      </trkpt>
      <trkpt lat="45.93973" lon="4.71674">
        <ele>175</ele>
        <time>2018-08-16T08:36:02Z</time>
      </trkpt>
      <trkpt lat="45.93978" lon="4.71672">
        <ele>176</ele>
        <time>2018-08-16T08:36:03Z</time>
      </trkpt>
      <trkpt lat="45.93985" lon="4.7167">
        <ele>176</ele>
        <time>2018-08-16T08:36:04Z</time>
      </trkpt>
      <trkpt lat="45.93988" lon="4.71673">
        <ele>176</ele>
        <time>2018-08-16T08:36:05Z</time>
      </trkpt>
      <trkpt lat="45.93993" lon="4.71683">
        <ele>176</ele>
        <time>2018-08-16T08:36:07Z</time>
      </trkpt>
      <trkpt lat="45.93997" lon="4.71685">
        <ele>176</ele>
        <time>2018-08-16T08:36:08Z</time>
      </trkpt>
      <trkpt lat="45.94002" lon="4.71686">
        <ele>175</ele>
        <time>2018-08-16T08:36:09Z</time>
      </trkpt>
      <trkpt lat="45.94007" lon="4.7168">
        <ele>176</ele>
        <time>2018-08-16T08:36:10Z</time>
      </trkpt>
      <trkpt lat="45.94011" lon="4.71673">
        <ele>176</ele>
        <time>2018-08-16T08:36:11Z</time>
      </trkpt>
      <trkpt lat="45.94013" lon="4.71668">
        <ele>176</ele>
        <time>2018-08-16T08:36:12Z</time>
      </trkpt>
      <trkpt lat="45.94018" lon="4.71663">
        <ele>176</ele>
        <time>2018-08-16T08:36:13Z</time>
      </trkpt>
      <trkpt lat="45.94021" lon="4.71659">
        <ele>176</ele>
        <time>2018-08-16T08:36:14Z</time>
      </trkpt>
      <trkpt lat="45.94027" lon="4.71655">
        <ele>175</ele>
        <time>2018-08-16T08:36:15Z</time>
      </trkpt>
      <trkpt lat="45.94033" lon="4.71652">
        <ele>175</ele>
        <time>2018-08-16T08:36:16Z</time>
      </trkpt>
      <trkpt lat="45.94038" lon="4.71652">
        <ele>175</ele>
        <time>2018-08-16T08:36:17Z</time>
      </trkpt>
      <trkpt lat="45.94044" lon="4.7165">
        <ele>175</ele>
        <time>2018-08-16T08:36:18Z</time>
      </trkpt>
      <trkpt lat="45.9405" lon="4.71648">
        <ele>175</ele>
        <time>2018-08-16T08:36:19Z</time>
      </trkpt>
      <trkpt lat="45.94055" lon="4.71646">
        <ele>174</ele>
        <time>2018-08-16T08:36:20Z</time>
      </trkpt>
      <trkpt lat="45.94062" lon="4.71643">
        <ele>174</ele>
        <time>2018-08-16T08:36:21Z</time>
      </trkpt>
      <trkpt lat="45.94068" lon="4.71642">
        <ele>174</ele>
        <time>2018-08-16T08:36:22Z</time>
      </trkpt>
      <trkpt lat="45.94074" lon="4.71638">
        <ele>174</ele>
        <time>2018-08-16T08:36:23Z</time>
      </trkpt>
      <trkpt lat="45.94081" lon="4.71634">
        <ele>174</ele>
        <time>2018-08-16T08:36:24Z</time>
      </trkpt>
      <trkpt lat="45.94086" lon="4.71632">
        <ele>173</ele>
        <time>2018-08-16T08:36:25Z</time>
      </trkpt>
      <trkpt lat="45.94091" lon="4.7163">
        <ele>173</ele>
        <time>2018-08-16T08:36:26Z</time>
      </trkpt>
      <trkpt lat="45.94101" lon="4.71624">
        <ele>173</ele>
        <time>2018-08-16T08:36:27Z</time>
      </trkpt>
      <trkpt lat="45.9411" lon="4.71623">
        <ele>173</ele>
        <time>2018-08-16T08:36:29Z</time>
      </trkpt>
      <trkpt lat="45.94117" lon="4.71621">
        <ele>173</ele>
        <time>2018-08-16T08:36:30Z</time>
      </trkpt>
      <trkpt lat="45.94121" lon="4.71619">
        <ele>173</ele>
        <time>2018-08-16T08:36:31Z</time>
      </trkpt>
      <trkpt lat="45.94127" lon="4.71617">
        <ele>173</ele>
        <time>2018-08-16T08:36:32Z</time>
      </trkpt>
      <trkpt lat="45.94136" lon="4.71616">
        <ele>173</ele>
        <time>2018-08-16T08:36:34Z</time>
      </trkpt>
      <trkpt lat="45.94141" lon="4.71615">
        <ele>173</ele>
        <time>2018-08-16T08:36:35Z</time>
      </trkpt>
      <trkpt lat="45.94147" lon="4.71611">
        <ele>173</ele>
        <time>2018-08-16T08:36:36Z</time>
      </trkpt>
      <trkpt lat="45.94153" lon="4.71608">
        <ele>173</ele>
        <time>2018-08-16T08:36:37Z</time>
      </trkpt>
      <trkpt lat="45.94159" lon="4.71606">
        <ele>173</ele>
        <time>2018-08-16T08:36:38Z</time>
      </trkpt>
      <trkpt lat="45.94166" lon="4.71603">
        <ele>173</ele>
        <time>2018-08-16T08:36:39Z</time>
      </trkpt>
      <trkpt lat="45.94172" lon="4.716">
        <ele>173</ele>
        <time>2018-08-16T08:36:40Z</time>
      </trkpt>
      <trkpt lat="45.94177" lon="4.71597">
        <ele>173</ele>
        <time>2018-08-16T08:36:41Z</time>
      </trkpt>
      <trkpt lat="45.94183" lon="4.71595">
        <ele>173</ele>
        <time>2018-08-16T08:36:42Z</time>
      </trkpt>
      <trkpt lat="45.94189" lon="4.71593">
        <ele>173</ele>
        <time>2018-08-16T08:36:43Z</time>
      </trkpt>
      <trkpt lat="45.94198" lon="4.71589">
        <ele>173</ele>
        <time>2018-08-16T08:36:44Z</time>
      </trkpt>
      <trkpt lat="45.94204" lon="4.71587">
        <ele>173</ele>
        <time>2018-08-16T08:36:45Z</time>
      </trkpt>
      <trkpt lat="45.94209" lon="4.71585">
        <ele>173</ele>
        <time>2018-08-16T08:36:46Z</time>
      </trkpt>
      <trkpt lat="45.94214" lon="4.71582">
        <ele>174</ele>
        <time>2018-08-16T08:36:47Z</time>
      </trkpt>
      <trkpt lat="45.94219" lon="4.7158">
        <ele>174</ele>
        <time>2018-08-16T08:36:48Z</time>
      </trkpt>
      <trkpt lat="45.94225" lon="4.71578">
        <ele>174</ele>
        <time>2018-08-16T08:36:49Z</time>
      </trkpt>
      <trkpt lat="45.9423" lon="4.71576">
        <ele>174</ele>
        <time>2018-08-16T08:36:50Z</time>
      </trkpt>
      <trkpt lat="45.94238" lon="4.71573">
        <ele>174</ele>
        <time>2018-08-16T08:36:52Z</time>
      </trkpt>
      <trkpt lat="45.94243" lon="4.71571">
        <ele>174</ele>
        <time>2018-08-16T08:36:53Z</time>
      </trkpt>
      <trkpt lat="45.9425" lon="4.71567">
        <ele>174</ele>
        <time>2018-08-16T08:36:54Z</time>
      </trkpt>
      <trkpt lat="45.94255" lon="4.71565">
        <ele>175</ele>
        <time>2018-08-16T08:36:55Z</time>
      </trkpt>
      <trkpt lat="45.94261" lon="4.71562">
        <ele>175</ele>
        <time>2018-08-16T08:36:56Z</time>
      </trkpt>
      <trkpt lat="45.94266" lon="4.7156">
        <ele>175</ele>
        <time>2018-08-16T08:36:57Z</time>
      </trkpt>
      <trkpt lat="45.94272" lon="4.71558">
        <ele>175</ele>
        <time>2018-08-16T08:36:58Z</time>
      </trkpt>
      <trkpt lat="45.94276" lon="4.71554">
        <ele>175</ele>
        <time>2018-08-16T08:36:59Z</time>
      </trkpt>
      <trkpt lat="45.94282" lon="4.7155">
        <ele>175</ele>
        <time>2018-08-16T08:37:00Z</time>
      </trkpt>
      <trkpt lat="45.94287" lon="4.71549">
        <ele>175</ele>
        <time>2018-08-16T08:37:01Z</time>
      </trkpt>
      <trkpt lat="45.94292" lon="4.71547">
        <ele>175</ele>
        <time>2018-08-16T08:37:02Z</time>
      </trkpt>
      <trkpt lat="45.94297" lon="4.71545">
        <ele>175</ele>
        <time>2018-08-16T08:37:03Z</time>
      </trkpt>
      <trkpt lat="45.94302" lon="4.71542">
        <ele>175</ele>
        <time>2018-08-16T08:37:04Z</time>
      </trkpt>
      <trkpt lat="45.94307" lon="4.71539">
        <ele>175</ele>
        <time>2018-08-16T08:37:05Z</time>
      </trkpt>
      <trkpt lat="45.94315" lon="4.71536">
        <ele>175</ele>
        <time>2018-08-16T08:37:07Z</time>
      </trkpt>
      <trkpt lat="45.9432" lon="4.71536">
        <ele>175</ele>
        <time>2018-08-16T08:37:08Z</time>
      </trkpt>
      <trkpt lat="45.94327" lon="4.71536">
        <ele>176</ele>
        <time>2018-08-16T08:37:10Z</time>
      </trkpt>
      <trkpt lat="45.94332" lon="4.71535">
        <ele>176</ele>
        <time>2018-08-16T08:37:11Z</time>
      </trkpt>
      <trkpt lat="45.9434" lon="4.71535">
        <ele>176</ele>
        <time>2018-08-16T08:37:13Z</time>
      </trkpt>
      <trkpt lat="45.94346" lon="4.71534">
        <ele>176</ele>
        <time>2018-08-16T08:37:14Z</time>
      </trkpt>
      <trkpt lat="45.94352" lon="4.71533">
        <ele>176</ele>
        <time>2018-08-16T08:37:15Z</time>
      </trkpt>
      <trkpt lat="45.94357" lon="4.71531">
        <ele>176</ele>
        <time>2018-08-16T08:37:16Z</time>
      </trkpt>
      <trkpt lat="45.94362" lon="4.71529">
        <ele>176</ele>
        <time>2018-08-16T08:37:17Z</time>
      </trkpt>
      <trkpt lat="45.94367" lon="4.71525">
        <ele>176</ele>
        <time>2018-08-16T08:37:18Z</time>
      </trkpt>
      <trkpt lat="45.94371" lon="4.71523">
        <ele>176</ele>
        <time>2018-08-16T08:37:19Z</time>
      </trkpt>
      <trkpt lat="45.94378" lon="4.71522">
        <ele>176</ele>
        <time>2018-08-16T08:37:20Z</time>
      </trkpt>
      <trkpt lat="45.94384" lon="4.71519">
        <ele>177</ele>
        <time>2018-08-16T08:37:21Z</time>
      </trkpt>
      <trkpt lat="45.9439" lon="4.71517">
        <ele>177</ele>
        <time>2018-08-16T08:37:22Z</time>
      </trkpt>
      <trkpt lat="45.94395" lon="4.71516">
        <ele>177</ele>
        <time>2018-08-16T08:37:23Z</time>
      </trkpt>
      <trkpt lat="45.94401" lon="4.71513">
        <ele>177</ele>
        <time>2018-08-16T08:37:24Z</time>
      </trkpt>
      <trkpt lat="45.94405" lon="4.71512">
        <ele>177</ele>
        <time>2018-08-16T08:37:25Z</time>
      </trkpt>
      <trkpt lat="45.9441" lon="4.71508">
        <ele>177</ele>
        <time>2018-08-16T08:37:26Z</time>
      </trkpt>
      <trkpt lat="45.94415" lon="4.71508">
        <ele>178</ele>
        <time>2018-08-16T08:37:27Z</time>
      </trkpt>
      <trkpt lat="45.94421" lon="4.71507">
        <ele>177</ele>
        <time>2018-08-16T08:37:28Z</time>
      </trkpt>
      <trkpt lat="45.94426" lon="4.71503">
        <ele>177</ele>
        <time>2018-08-16T08:37:29Z</time>
      </trkpt>
      <trkpt lat="45.94431" lon="4.71499">
        <ele>178</ele>
        <time>2018-08-16T08:37:30Z</time>
      </trkpt>
      <trkpt lat="45.94437" lon="4.71495">
        <ele>178</ele>
        <time>2018-08-16T08:37:31Z</time>
      </trkpt>
      <trkpt lat="45.94442" lon="4.71494">
        <ele>178</ele>
        <time>2018-08-16T08:37:32Z</time>
      </trkpt>
      <trkpt lat="45.94446" lon="4.71491">
        <ele>179</ele>
        <time>2018-08-16T08:37:33Z</time>
      </trkpt>
      <trkpt lat="45.94451" lon="4.71489">
        <ele>179</ele>
        <time>2018-08-16T08:37:34Z</time>
      </trkpt>
      <trkpt lat="45.94456" lon="4.71486">
        <ele>179</ele>
        <time>2018-08-16T08:37:35Z</time>
      </trkpt>
      <trkpt lat="45.9446" lon="4.71483">
        <ele>179</ele>
        <time>2018-08-16T08:37:36Z</time>
      </trkpt>
      <trkpt lat="45.94465" lon="4.71481">
        <ele>179</ele>
        <time>2018-08-16T08:37:37Z</time>
      </trkpt>
      <trkpt lat="45.94471" lon="4.71477">
        <ele>179</ele>
        <time>2018-08-16T08:37:38Z</time>
      </trkpt>
      <trkpt lat="45.94476" lon="4.71476">
        <ele>179</ele>
        <time>2018-08-16T08:37:39Z</time>
      </trkpt>
      <trkpt lat="45.9448" lon="4.71473">
        <ele>179</ele>
        <time>2018-08-16T08:37:40Z</time>
      </trkpt>
      <trkpt lat="45.94489" lon="4.71471">
        <ele>179</ele>
        <time>2018-08-16T08:37:42Z</time>
      </trkpt>
      <trkpt lat="45.94494" lon="4.71469">
        <ele>179</ele>
        <time>2018-08-16T08:37:43Z</time>
      </trkpt>
      <trkpt lat="45.94498" lon="4.71466">
        <ele>179</ele>
        <time>2018-08-16T08:37:44Z</time>
      </trkpt>
      <trkpt lat="45.94502" lon="4.71465">
        <ele>179</ele>
        <time>2018-08-16T08:37:45Z</time>
      </trkpt>
      <trkpt lat="45.9451" lon="4.71463">
        <ele>180</ele>
        <time>2018-08-16T08:37:47Z</time>
      </trkpt>
      <trkpt lat="45.94513" lon="4.71461">
        <ele>180</ele>
        <time>2018-08-16T08:37:48Z</time>
      </trkpt>
      <trkpt lat="45.94518" lon="4.71459">
        <ele>180</ele>
        <time>2018-08-16T08:37:49Z</time>
      </trkpt>
      <trkpt lat="45.94522" lon="4.71457">
        <ele>180</ele>
        <time>2018-08-16T08:37:50Z</time>
      </trkpt>
      <trkpt lat="45.9453" lon="4.71453">
        <ele>180</ele>
        <time>2018-08-16T08:37:52Z</time>
      </trkpt>
      <trkpt lat="45.94534" lon="4.7145">
        <ele>180</ele>
        <time>2018-08-16T08:37:53Z</time>
      </trkpt>
      <trkpt lat="45.94539" lon="4.7145">
        <ele>180</ele>
        <time>2018-08-16T08:37:54Z</time>
      </trkpt>
      <trkpt lat="45.94544" lon="4.71449">
        <ele>180</ele>
        <time>2018-08-16T08:37:55Z</time>
      </trkpt>
      <trkpt lat="45.94549" lon="4.71448">
        <ele>181</ele>
        <time>2018-08-16T08:37:56Z</time>
      </trkpt>
      <trkpt lat="45.94554" lon="4.71449">
        <ele>181</ele>
        <time>2018-08-16T08:37:57Z</time>
      </trkpt>
      <trkpt lat="45.94563" lon="4.71447">
        <ele>181</ele>
        <time>2018-08-16T08:37:59Z</time>
      </trkpt>
      <trkpt lat="45.94567" lon="4.71446">
        <ele>181</ele>
        <time>2018-08-16T08:38:00Z</time>
      </trkpt>
      <trkpt lat="45.94573" lon="4.71447">
        <ele>181</ele>
        <time>2018-08-16T08:38:01Z</time>
      </trkpt>
      <trkpt lat="45.94578" lon="4.71447">
        <ele>181</ele>
        <time>2018-08-16T08:38:02Z</time>
      </trkpt>
      <trkpt lat="45.94583" lon="4.71446">
        <ele>181</ele>
        <time>2018-08-16T08:38:03Z</time>
      </trkpt>
      <trkpt lat="45.94588" lon="4.71447">
        <ele>181</ele>
        <time>2018-08-16T08:38:04Z</time>
      </trkpt>
      <trkpt lat="45.94597" lon="4.71447">
        <ele>181</ele>
        <time>2018-08-16T08:38:06Z</time>
      </trkpt>
      <trkpt lat="45.94602" lon="4.71447">
        <ele>181</ele>
        <time>2018-08-16T08:38:07Z</time>
      </trkpt>
      <trkpt lat="45.94607" lon="4.71446">
        <ele>181</ele>
        <time>2018-08-16T08:38:08Z</time>
      </trkpt>
      <trkpt lat="45.94613" lon="4.71446">
        <ele>181</ele>
        <time>2018-08-16T08:38:09Z</time>
      </trkpt>
      <trkpt lat="45.94618" lon="4.71447">
        <ele>181</ele>
        <time>2018-08-16T08:38:10Z</time>
      </trkpt>
      <trkpt lat="45.94623" lon="4.71448">
        <ele>181</ele>
        <time>2018-08-16T08:38:11Z</time>
      </trkpt>
      <trkpt lat="45.94628" lon="4.71447">
        <ele>181</ele>
        <time>2018-08-16T08:38:12Z</time>
      </trkpt>
      <trkpt lat="45.94634" lon="4.71448">
        <ele>181</ele>
        <time>2018-08-16T08:38:13Z</time>
      </trkpt>
      <trkpt lat="45.94639" lon="4.71448">
        <ele>181</ele>
        <time>2018-08-16T08:38:14Z</time>
      </trkpt>
      <trkpt lat="45.94644" lon="4.71449">
        <ele>181</ele>
        <time>2018-08-16T08:38:15Z</time>
      </trkpt>
      <trkpt lat="45.9465" lon="4.7145">
        <ele>181</ele>
        <time>2018-08-16T08:38:16Z</time>
      </trkpt>
      <trkpt lat="45.94655" lon="4.7145">
        <ele>181</ele>
        <time>2018-08-16T08:38:17Z</time>
      </trkpt>
      <trkpt lat="45.94661" lon="4.71451">
        <ele>181</ele>
        <time>2018-08-16T08:38:18Z</time>
      </trkpt>
      <trkpt lat="45.94665" lon="4.71451">
        <ele>181</ele>
        <time>2018-08-16T08:38:19Z</time>
      </trkpt>
      <trkpt lat="45.9467" lon="4.71452">
        <ele>182</ele>
        <time>2018-08-16T08:38:20Z</time>
      </trkpt>
      <trkpt lat="45.94675" lon="4.7145">
        <ele>182</ele>
        <time>2018-08-16T08:38:21Z</time>
      </trkpt>
      <trkpt lat="45.94681" lon="4.7145">
        <ele>182</ele>
        <time>2018-08-16T08:38:22Z</time>
      </trkpt>
      <trkpt lat="45.94686" lon="4.71451">
        <ele>182</ele>
        <time>2018-08-16T08:38:23Z</time>
      </trkpt>
      <trkpt lat="45.94692" lon="4.71452">
        <ele>182</ele>
        <time>2018-08-16T08:38:24Z</time>
      </trkpt>
      <trkpt lat="45.94697" lon="4.71452">
        <ele>182</ele>
        <time>2018-08-16T08:38:25Z</time>
      </trkpt>
      <trkpt lat="45.94702" lon="4.71453">
        <ele>182</ele>
        <time>2018-08-16T08:38:26Z</time>
      </trkpt>
      <trkpt lat="45.94707" lon="4.71453">
        <ele>182</ele>
        <time>2018-08-16T08:38:27Z</time>
      </trkpt>
      <trkpt lat="45.94713" lon="4.71453">
        <ele>182</ele>
        <time>2018-08-16T08:38:28Z</time>
      </trkpt>
      <trkpt lat="45.9472" lon="4.71451">
        <ele>182</ele>
        <time>2018-08-16T08:38:29Z</time>
      </trkpt>
      <trkpt lat="45.94724" lon="4.71454">
        <ele>182</ele>
        <time>2018-08-16T08:38:30Z</time>
      </trkpt>
      <trkpt lat="45.94731" lon="4.71454">
        <ele>182</ele>
        <time>2018-08-16T08:38:31Z</time>
      </trkpt>
      <trkpt lat="45.94736" lon="4.71455">
        <ele>182</ele>
        <time>2018-08-16T08:38:32Z</time>
      </trkpt>
      <trkpt lat="45.94742" lon="4.71454">
        <ele>182</ele>
        <time>2018-08-16T08:38:33Z</time>
      </trkpt>
      <trkpt lat="45.94747" lon="4.71455">
        <ele>182</ele>
        <time>2018-08-16T08:38:34Z</time>
      </trkpt>
      <trkpt lat="45.94753" lon="4.71456">
        <ele>183</ele>
        <time>2018-08-16T08:38:35Z</time>
      </trkpt>
      <trkpt lat="45.94759" lon="4.71457">
        <ele>183</ele>
        <time>2018-08-16T08:38:36Z</time>
      </trkpt>
      <trkpt lat="45.94765" lon="4.71458">
        <ele>183</ele>
        <time>2018-08-16T08:38:37Z</time>
      </trkpt>
      <trkpt lat="45.9477" lon="4.7146">
        <ele>183</ele>
        <time>2018-08-16T08:38:38Z</time>
      </trkpt>
      <trkpt lat="45.94774" lon="4.71459">
        <ele>183</ele>
        <time>2018-08-16T08:38:39Z</time>
      </trkpt>
      <trkpt lat="45.9478" lon="4.71461">
        <ele>183</ele>
        <time>2018-08-16T08:38:40Z</time>
      </trkpt>
      <trkpt lat="45.94784" lon="4.71462">
        <ele>183</ele>
        <time>2018-08-16T08:38:41Z</time>
      </trkpt>
      <trkpt lat="45.9479" lon="4.71463">
        <ele>183</ele>
        <time>2018-08-16T08:38:42Z</time>
      </trkpt>
      <trkpt lat="45.94797" lon="4.71463">
        <ele>183</ele>
        <time>2018-08-16T08:38:43Z</time>
      </trkpt>
      <trkpt lat="45.94804" lon="4.71463">
        <ele>183</ele>
        <time>2018-08-16T08:38:44Z</time>
      </trkpt>
      <trkpt lat="45.9481" lon="4.71464">
        <ele>183</ele>
        <time>2018-08-16T08:38:45Z</time>
      </trkpt>
      <trkpt lat="45.94816" lon="4.71464">
        <ele>183</ele>
        <time>2018-08-16T08:38:46Z</time>
      </trkpt>
      <trkpt lat="45.94821" lon="4.71465">
        <ele>183</ele>
        <time>2018-08-16T08:38:47Z</time>
      </trkpt>
      <trkpt lat="45.94828" lon="4.71466">
        <ele>183</ele>
        <time>2018-08-16T08:38:48Z</time>
      </trkpt>
      <trkpt lat="45.94834" lon="4.71468">
        <ele>183</ele>
        <time>2018-08-16T08:38:49Z</time>
      </trkpt>
      <trkpt lat="45.94842" lon="4.71468">
        <ele>183</ele>
        <time>2018-08-16T08:38:50Z</time>
      </trkpt>
      <trkpt lat="45.94849" lon="4.71469">
        <ele>183</ele>
        <time>2018-08-16T08:38:51Z</time>
      </trkpt>
      <trkpt lat="45.94855" lon="4.71471">
        <ele>183</ele>
        <time>2018-08-16T08:38:52Z</time>
      </trkpt>
      <trkpt lat="45.9486" lon="4.71471">
        <ele>183</ele>
        <time>2018-08-16T08:38:53Z</time>
      </trkpt>
      <trkpt lat="45.94866" lon="4.71472">
        <ele>183</ele>
        <time>2018-08-16T08:38:54Z</time>
      </trkpt>
      <trkpt lat="45.94873" lon="4.71472">
        <ele>183</ele>
        <time>2018-08-16T08:38:55Z</time>
      </trkpt>
      <trkpt lat="45.94879" lon="4.71473">
        <ele>183</ele>
        <time>2018-08-16T08:38:56Z</time>
      </trkpt>
      <trkpt lat="45.94885" lon="4.71474">
        <ele>183</ele>
        <time>2018-08-16T08:38:57Z</time>
      </trkpt>
      <trkpt lat="45.94891" lon="4.71476">
        <ele>183</ele>
        <time>2018-08-16T08:38:58Z</time>
      </trkpt>
      <trkpt lat="45.94896" lon="4.71477">
        <ele>183</ele>
        <time>2018-08-16T08:38:59Z</time>
      </trkpt>
      <trkpt lat="45.94901" lon="4.71478">
        <ele>182</ele>
        <time>2018-08-16T08:39:00Z</time>
      </trkpt>
      <trkpt lat="45.94905" lon="4.7148">
        <ele>182</ele>
        <time>2018-08-16T08:39:01Z</time>
      </trkpt>
      <trkpt lat="45.9491" lon="4.7148">
        <ele>182</ele>
        <time>2018-08-16T08:39:02Z</time>
      </trkpt>
      <trkpt lat="45.94915" lon="4.71479">
        <ele>182</ele>
        <time>2018-08-16T08:39:03Z</time>
      </trkpt>
      <trkpt lat="45.94919" lon="4.7148">
        <ele>182</ele>
        <time>2018-08-16T08:39:04Z</time>
      </trkpt>
      <trkpt lat="45.94926" lon="4.71479">
        <ele>182</ele>
        <time>2018-08-16T08:39:05Z</time>
      </trkpt>
      <trkpt lat="45.94932" lon="4.71478">
        <ele>182</ele>
        <time>2018-08-16T08:39:06Z</time>
      </trkpt>
      <trkpt lat="45.94937" lon="4.71479">
        <ele>182</ele>
        <time>2018-08-16T08:39:07Z</time>
      </trkpt>
      <trkpt lat="45.94944" lon="4.71482">
        <ele>182</ele>
        <time>2018-08-16T08:39:08Z</time>
      </trkpt>
      <trkpt lat="45.9495" lon="4.71486">
        <ele>182</ele>
        <time>2018-08-16T08:39:09Z</time>
      </trkpt>
      <trkpt lat="45.94953" lon="4.71492">
        <ele>182</ele>
        <time>2018-08-16T08:39:10Z</time>
      </trkpt>
      <trkpt lat="45.94958" lon="4.71495">
        <ele>182</ele>
        <time>2018-08-16T08:39:11Z</time>
      </trkpt>
      <trkpt lat="45.94965" lon="4.71495">
        <ele>182</ele>
        <time>2018-08-16T08:39:12Z</time>
      </trkpt>
      <trkpt lat="45.94971" lon="4.71494">
        <ele>182</ele>
        <time>2018-08-16T08:39:13Z</time>
      </trkpt>
      <trkpt lat="45.94977" lon="4.71493">
        <ele>182</ele>
        <time>2018-08-16T08:39:14Z</time>
      </trkpt>
      <trkpt lat="45.94982" lon="4.7149">
        <ele>182</ele>
        <time>2018-08-16T08:39:15Z</time>
      </trkpt>
      <trkpt lat="45.94989" lon="4.71486">
        <ele>182</ele>
        <time>2018-08-16T08:39:16Z</time>
      </trkpt>
      <trkpt lat="45.94995" lon="4.71485">
        <ele>182</ele>
        <time>2018-08-16T08:39:17Z</time>
      </trkpt>
      <trkpt lat="45.95001" lon="4.71485">
        <ele>181</ele>
        <time>2018-08-16T08:39:18Z</time>
      </trkpt>
      <trkpt lat="45.95007" lon="4.71484">
        <ele>181</ele>
        <time>2018-08-16T08:39:19Z</time>
      </trkpt>
      <trkpt lat="45.95012" lon="4.71482">
        <ele>181</ele>
        <time>2018-08-16T08:39:20Z</time>
      </trkpt>
      <trkpt lat="45.95018" lon="4.71483">
        <ele>181</ele>
        <time>2018-08-16T08:39:21Z</time>
      </trkpt>
      <trkpt lat="45.95024" lon="4.71484">
        <ele>181</ele>
        <time>2018-08-16T08:39:22Z</time>
      </trkpt>
      <trkpt lat="45.9503" lon="4.71483">
        <ele>181</ele>
        <time>2018-08-16T08:39:23Z</time>
      </trkpt>
      <trkpt lat="45.95038" lon="4.71485">
        <ele>181</ele>
        <time>2018-08-16T08:39:24Z</time>
      </trkpt>
      <trkpt lat="45.95046" lon="4.71484">
        <ele>181</ele>
        <time>2018-08-16T08:39:25Z</time>
      </trkpt>
      <trkpt lat="45.95054" lon="4.71484">
        <ele>181</ele>
        <time>2018-08-16T08:39:26Z</time>
      </trkpt>
      <trkpt lat="45.95063" lon="4.71484">
        <ele>181</ele>
        <time>2018-08-16T08:39:27Z</time>
      </trkpt>
      <trkpt lat="45.95072" lon="4.71484">
        <ele>180</ele>
        <time>2018-08-16T08:39:28Z</time>
      </trkpt>
      <trkpt lat="45.9508" lon="4.71487">
        <ele>180</ele>
        <time>2018-08-16T08:39:29Z</time>
      </trkpt>
      <trkpt lat="45.95089" lon="4.71491">
        <ele>179</ele>
        <time>2018-08-16T08:39:30Z</time>
      </trkpt>
      <trkpt lat="45.95099" lon="4.71493">
        <ele>179</ele>
        <time>2018-08-16T08:39:31Z</time>
      </trkpt>
      <trkpt lat="45.9511" lon="4.71484">
        <ele>179</ele>
        <time>2018-08-16T08:39:32Z</time>
      </trkpt>
      <trkpt lat="45.95123" lon="4.71478">
        <ele>178</ele>
        <time>2018-08-16T08:39:33Z</time>
      </trkpt>
      <trkpt lat="45.95128" lon="4.71481">
        <ele>178</ele>
        <time>2018-08-16T08:39:34Z</time>
      </trkpt>
      <trkpt lat="45.95138" lon="4.71481">
        <ele>178</ele>
        <time>2018-08-16T08:39:35Z</time>
      </trkpt>
      <trkpt lat="45.9515" lon="4.71482">
        <ele>178</ele>
        <time>2018-08-16T08:39:36Z</time>
      </trkpt>
      <trkpt lat="45.95155" lon="4.71481">
        <ele>178</ele>
        <time>2018-08-16T08:39:37Z</time>
      </trkpt>
      <trkpt lat="45.95165" lon="4.71485">
        <ele>178</ele>
        <time>2018-08-16T08:39:38Z</time>
      </trkpt>
      <trkpt lat="45.95172" lon="4.71488">
        <ele>177</ele>
        <time>2018-08-16T08:39:39Z</time>
      </trkpt>
      <trkpt lat="45.95177" lon="4.71499">
        <ele>177</ele>
        <time>2018-08-16T08:39:40Z</time>
      </trkpt>
      <trkpt lat="45.95187" lon="4.71498">
        <ele>177</ele>
        <time>2018-08-16T08:39:41Z</time>
      </trkpt>
      <trkpt lat="45.95196" lon="4.71497">
        <ele>177</ele>
        <time>2018-08-16T08:39:42Z</time>
      </trkpt>
      <trkpt lat="45.95203" lon="4.71498">
        <ele>177</ele>
        <time>2018-08-16T08:39:43Z</time>
      </trkpt>
      <trkpt lat="45.95212" lon="4.71498">
        <ele>177</ele>
        <time>2018-08-16T08:39:44Z</time>
      </trkpt>
      <trkpt lat="45.9522" lon="4.715">
        <ele>176</ele>
        <time>2018-08-16T08:39:45Z</time>
      </trkpt>
      <trkpt lat="45.9523" lon="4.71501">
        <ele>176</ele>
        <time>2018-08-16T08:39:46Z</time>
      </trkpt>
      <trkpt lat="45.95239" lon="4.71502">
        <ele>176</ele>
        <time>2018-08-16T08:39:47Z</time>
      </trkpt>
      <trkpt lat="45.95247" lon="4.71502">
        <ele>177</ele>
        <time>2018-08-16T08:39:48Z</time>
      </trkpt>
      <trkpt lat="45.95254" lon="4.71503">
        <ele>176</ele>
        <time>2018-08-16T08:39:49Z</time>
      </trkpt>
      <trkpt lat="45.95264" lon="4.71505">
        <ele>176</ele>
        <time>2018-08-16T08:39:50Z</time>
      </trkpt>
      <trkpt lat="45.95276" lon="4.71501">
        <ele>175</ele>
        <time>2018-08-16T08:39:51Z</time>
      </trkpt>
      <trkpt lat="45.95284" lon="4.71503">
        <ele>175</ele>
        <time>2018-08-16T08:39:52Z</time>
      </trkpt>
      <trkpt lat="45.95293" lon="4.71505">
        <ele>175</ele>
        <time>2018-08-16T08:39:53Z</time>
      </trkpt>
      <trkpt lat="45.95302" lon="4.71504">
        <ele>174</ele>
        <time>2018-08-16T08:39:54Z</time>
      </trkpt>
      <trkpt lat="45.95309" lon="4.71503">
        <ele>174</ele>
        <time>2018-08-16T08:39:55Z</time>
      </trkpt>
      <trkpt lat="45.95317" lon="4.71504">
        <ele>174</ele>
        <time>2018-08-16T08:39:56Z</time>
      </trkpt>
      <trkpt lat="45.95324" lon="4.71506">
        <ele>174</ele>
        <time>2018-08-16T08:39:57Z</time>
      </trkpt>
      <trkpt lat="45.95332" lon="4.71506">
        <ele>174</ele>
        <time>2018-08-16T08:39:58Z</time>
      </trkpt>
      <trkpt lat="45.95339" lon="4.71505">
        <ele>174</ele>
        <time>2018-08-16T08:39:59Z</time>
      </trkpt>
      <trkpt lat="45.95343" lon="4.71504">
        <ele>174</ele>
        <time>2018-08-16T08:40:00Z</time>
      </trkpt>
      <trkpt lat="45.9535" lon="4.71504">
        <ele>174</ele>
        <time>2018-08-16T08:40:01Z</time>
      </trkpt>
      <trkpt lat="45.95356" lon="4.71505">
        <ele>174</ele>
        <time>2018-08-16T08:40:02Z</time>
      </trkpt>
      <trkpt lat="45.95363" lon="4.71505">
        <ele>174</ele>
        <time>2018-08-16T08:40:03Z</time>
      </trkpt>
      <trkpt lat="45.95371" lon="4.71505">
        <ele>174</ele>
        <time>2018-08-16T08:40:04Z</time>
      </trkpt>
      <trkpt lat="45.95376" lon="4.71503">
        <ele>174</ele>
        <time>2018-08-16T08:40:05Z</time>
      </trkpt>
      <trkpt lat="45.95383" lon="4.71503">
        <ele>174</ele>
        <time>2018-08-16T08:40:06Z</time>
      </trkpt>
      <trkpt lat="45.95388" lon="4.71505">
        <ele>174</ele>
        <time>2018-08-16T08:40:07Z</time>
      </trkpt>
      <trkpt lat="45.95395" lon="4.71506">
        <ele>174</ele>
        <time>2018-08-16T08:40:08Z</time>
      </trkpt>
      <trkpt lat="45.95402" lon="4.71506">
        <ele>174</ele>
        <time>2018-08-16T08:40:09Z</time>
      </trkpt>
      <trkpt lat="45.95409" lon="4.71507">
        <ele>174</ele>
        <time>2018-08-16T08:40:10Z</time>
      </trkpt>
      <trkpt lat="45.95416" lon="4.71505">
        <ele>174</ele>
        <time>2018-08-16T08:40:11Z</time>
      </trkpt>
      <trkpt lat="45.95421" lon="4.71507">
        <ele>174</ele>
        <time>2018-08-16T08:40:12Z</time>
      </trkpt>
      <trkpt lat="45.95427" lon="4.71508">
        <ele>174</ele>
        <time>2018-08-16T08:40:13Z</time>
      </trkpt>
      <trkpt lat="45.95434" lon="4.7151">
        <ele>175</ele>
        <time>2018-08-16T08:40:14Z</time>
      </trkpt>
      <trkpt lat="45.95439" lon="4.71512">
        <ele>175</ele>
        <time>2018-08-16T08:40:15Z</time>
      </trkpt>
      <trkpt lat="45.95446" lon="4.71512">
        <ele>175</ele>
        <time>2018-08-16T08:40:16Z</time>
      </trkpt>
      <trkpt lat="45.95452" lon="4.71514">
        <ele>175</ele>
        <time>2018-08-16T08:40:17Z</time>
      </trkpt>
      <trkpt lat="45.95459" lon="4.71515">
        <ele>175</ele>
        <time>2018-08-16T08:40:18Z</time>
      </trkpt>
      <trkpt lat="45.95465" lon="4.71515">
        <ele>175</ele>
        <time>2018-08-16T08:40:19Z</time>
      </trkpt>
      <trkpt lat="45.95471" lon="4.71516">
        <ele>175</ele>
        <time>2018-08-16T08:40:20Z</time>
      </trkpt>
      <trkpt lat="45.95478" lon="4.71515">
        <ele>176</ele>
        <time>2018-08-16T08:40:21Z</time>
      </trkpt>
      <trkpt lat="45.95485" lon="4.71515">
        <ele>176</ele>
        <time>2018-08-16T08:40:22Z</time>
      </trkpt>
      <trkpt lat="45.95492" lon="4.71515">
        <ele>176</ele>
        <time>2018-08-16T08:40:23Z</time>
      </trkpt>
      <trkpt lat="45.95496" lon="4.71517">
        <ele>176</ele>
        <time>2018-08-16T08:40:24Z</time>
      </trkpt>
      <trkpt lat="45.95505" lon="4.71519">
        <ele>177</ele>
        <time>2018-08-16T08:40:25Z</time>
      </trkpt>
      <trkpt lat="45.95511" lon="4.71518">
        <ele>177</ele>
        <time>2018-08-16T08:40:26Z</time>
      </trkpt>
      <trkpt lat="45.95517" lon="4.71518">
        <ele>177</ele>
        <time>2018-08-16T08:40:27Z</time>
      </trkpt>
      <trkpt lat="45.95526" lon="4.71519">
        <ele>177</ele>
        <time>2018-08-16T08:40:29Z</time>
      </trkpt>
      <trkpt lat="45.95532" lon="4.7152">
        <ele>177</ele>
        <time>2018-08-16T08:40:30Z</time>
      </trkpt>
      <trkpt lat="45.95539" lon="4.7152">
        <ele>177</ele>
        <time>2018-08-16T08:40:31Z</time>
      </trkpt>
      <trkpt lat="45.95547" lon="4.7152">
        <ele>177</ele>
        <time>2018-08-16T08:40:32Z</time>
      </trkpt>
      <trkpt lat="45.95553" lon="4.71518">
        <ele>178</ele>
        <time>2018-08-16T08:40:33Z</time>
      </trkpt>
      <trkpt lat="45.95558" lon="4.71517">
        <ele>178</ele>
        <time>2018-08-16T08:40:34Z</time>
      </trkpt>
      <trkpt lat="45.95559" lon="4.71511">
        <ele>178</ele>
        <time>2018-08-16T08:40:36Z</time>
      </trkpt>
      <trkpt lat="45.9557" lon="4.71514">
        <ele>178</ele>
        <time>2018-08-16T08:40:37Z</time>
      </trkpt>
      <trkpt lat="45.95577" lon="4.71515">
        <ele>179</ele>
        <time>2018-08-16T08:40:38Z</time>
      </trkpt>
      <trkpt lat="45.95584" lon="4.71518">
        <ele>179</ele>
        <time>2018-08-16T08:40:39Z</time>
      </trkpt>
      <trkpt lat="45.95591" lon="4.71518">
        <ele>179</ele>
        <time>2018-08-16T08:40:40Z</time>
      </trkpt>
      <trkpt lat="45.95597" lon="4.71518">
        <ele>179</ele>
        <time>2018-08-16T08:40:41Z</time>
      </trkpt>
      <trkpt lat="45.95603" lon="4.71516">
        <ele>179</ele>
        <time>2018-08-16T08:40:42Z</time>
      </trkpt>
      <trkpt lat="45.95608" lon="4.71517">
        <ele>179</ele>
        <time>2018-08-16T08:40:43Z</time>
      </trkpt>
      <trkpt lat="45.95615" lon="4.71515">
        <ele>179</ele>
        <time>2018-08-16T08:40:44Z</time>
      </trkpt>
      <trkpt lat="45.95621" lon="4.71515">
        <ele>179</ele>
        <time>2018-08-16T08:40:45Z</time>
      </trkpt>
      <trkpt lat="45.95626" lon="4.71514">
        <ele>179</ele>
        <time>2018-08-16T08:40:46Z</time>
      </trkpt>
      <trkpt lat="45.95631" lon="4.71515">
        <ele>180</ele>
        <time>2018-08-16T08:40:47Z</time>
      </trkpt>
      <trkpt lat="45.95639" lon="4.71515">
        <ele>180</ele>
        <time>2018-08-16T08:40:48Z</time>
      </trkpt>
      <trkpt lat="45.95645" lon="4.71515">
        <ele>180</ele>
        <time>2018-08-16T08:40:49Z</time>
      </trkpt>
      <trkpt lat="45.95652" lon="4.7152">
        <ele>180</ele>
        <time>2018-08-16T08:40:51Z</time>
      </trkpt>
      <trkpt lat="45.95658" lon="4.7152">
        <ele>180</ele>
        <time>2018-08-16T08:40:52Z</time>
      </trkpt>
      <trkpt lat="45.95664" lon="4.7152">
        <ele>180</ele>
        <time>2018-08-16T08:40:53Z</time>
      </trkpt>
      <trkpt lat="45.95669" lon="4.71521">
        <ele>180</ele>
        <time>2018-08-16T08:40:54Z</time>
      </trkpt>
      <trkpt lat="45.95675" lon="4.71521">
        <ele>180</ele>
        <time>2018-08-16T08:40:55Z</time>
      </trkpt>
      <trkpt lat="45.95681" lon="4.71522">
        <ele>180</ele>
        <time>2018-08-16T08:40:56Z</time>
      </trkpt>
      <trkpt lat="45.95686" lon="4.71522">
        <ele>180</ele>
        <time>2018-08-16T08:40:57Z</time>
      </trkpt>
      <trkpt lat="45.95691" lon="4.71523">
        <ele>180</ele>
        <time>2018-08-16T08:40:58Z</time>
      </trkpt>
      <trkpt lat="45.95696" lon="4.71523">
        <ele>180</ele>
        <time>2018-08-16T08:40:59Z</time>
      </trkpt>
      <trkpt lat="45.957" lon="4.71526">
        <ele>180</ele>
        <time>2018-08-16T08:41:00Z</time>
      </trkpt>
      <trkpt lat="45.95705" lon="4.71525">
        <ele>180</ele>
        <time>2018-08-16T08:41:01Z</time>
      </trkpt>
      <trkpt lat="45.9571" lon="4.71527">
        <ele>180</ele>
        <time>2018-08-16T08:41:02Z</time>
      </trkpt>
      <trkpt lat="45.95714" lon="4.71528">
        <ele>180</ele>
        <time>2018-08-16T08:41:03Z</time>
      </trkpt>
      <trkpt lat="45.95719" lon="4.71528">
        <ele>180</ele>
        <time>2018-08-16T08:41:04Z</time>
      </trkpt>
      <trkpt lat="45.95724" lon="4.71528">
        <ele>180</ele>
        <time>2018-08-16T08:41:05Z</time>
      </trkpt>
      <trkpt lat="45.9573" lon="4.71529">
        <ele>180</ele>
        <time>2018-08-16T08:41:06Z</time>
      </trkpt>
      <trkpt lat="45.95735" lon="4.7153">
        <ele>180</ele>
        <time>2018-08-16T08:41:07Z</time>
      </trkpt>
      <trkpt lat="45.9574" lon="4.71531">
        <ele>180</ele>
        <time>2018-08-16T08:41:08Z</time>
      </trkpt>
      <trkpt lat="45.95745" lon="4.71531">
        <ele>180</ele>
        <time>2018-08-16T08:41:09Z</time>
      </trkpt>
      <trkpt lat="45.95749" lon="4.71532">
        <ele>180</ele>
        <time>2018-08-16T08:41:10Z</time>
      </trkpt>
      <trkpt lat="45.95753" lon="4.71532">
        <ele>180</ele>
        <time>2018-08-16T08:41:11Z</time>
      </trkpt>
      <trkpt lat="45.95759" lon="4.71533">
        <ele>180</ele>
        <time>2018-08-16T08:41:12Z</time>
      </trkpt>
      <trkpt lat="45.95765" lon="4.71534">
        <ele>180</ele>
        <time>2018-08-16T08:41:14Z</time>
      </trkpt>
      <trkpt lat="45.95771" lon="4.71535">
        <ele>180</ele>
        <time>2018-08-16T08:41:15Z</time>
      </trkpt>
      <trkpt lat="45.95776" lon="4.71536">
        <ele>180</ele>
        <time>2018-08-16T08:41:16Z</time>
      </trkpt>
      <trkpt lat="45.95782" lon="4.71535">
        <ele>180</ele>
        <time>2018-08-16T08:41:17Z</time>
      </trkpt>
      <trkpt lat="45.95787" lon="4.71535">
        <ele>180</ele>
        <time>2018-08-16T08:41:18Z</time>
      </trkpt>
      <trkpt lat="45.95792" lon="4.71533">
        <ele>181</ele>
        <time>2018-08-16T08:41:19Z</time>
      </trkpt>
      <trkpt lat="45.95796" lon="4.71533">
        <ele>181</ele>
        <time>2018-08-16T08:41:20Z</time>
      </trkpt>
      <trkpt lat="45.95801" lon="4.71534">
        <ele>181</ele>
        <time>2018-08-16T08:41:21Z</time>
      </trkpt>
      <trkpt lat="45.95806" lon="4.71534">
        <ele>181</ele>
        <time>2018-08-16T08:41:22Z</time>
      </trkpt>
      <trkpt lat="45.95812" lon="4.71534">
        <ele>181</ele>
        <time>2018-08-16T08:41:23Z</time>
      </trkpt>
      <trkpt lat="45.95821" lon="4.71536">
        <ele>181</ele>
        <time>2018-08-16T08:41:25Z</time>
      </trkpt>
      <trkpt lat="45.95826" lon="4.71536">
        <ele>181</ele>
        <time>2018-08-16T08:41:26Z</time>
      </trkpt>
      <trkpt lat="45.95831" lon="4.71536">
        <ele>181</ele>
        <time>2018-08-16T08:41:27Z</time>
      </trkpt>
      <trkpt lat="45.95836" lon="4.71537">
        <ele>181</ele>
        <time>2018-08-16T08:41:28Z</time>
      </trkpt>
      <trkpt lat="45.9584" lon="4.71537">
        <ele>181</ele>
        <time>2018-08-16T08:41:29Z</time>
      </trkpt>
      <trkpt lat="45.95845" lon="4.71537">
        <ele>181</ele>
        <time>2018-08-16T08:41:30Z</time>
      </trkpt>
      <trkpt lat="45.95849" lon="4.71538">
        <ele>181</ele>
        <time>2018-08-16T08:41:31Z</time>
      </trkpt>
      <trkpt lat="45.95854" lon="4.71538">
        <ele>181</ele>
        <time>2018-08-16T08:41:32Z</time>
      </trkpt>
      <trkpt lat="45.9586" lon="4.71539">
        <ele>181</ele>
        <time>2018-08-16T08:41:33Z</time>
      </trkpt>
      <trkpt lat="45.95866" lon="4.71538">
        <ele>181</ele>
        <time>2018-08-16T08:41:34Z</time>
      </trkpt>
      <trkpt lat="45.95871" lon="4.71539">
        <ele>181</ele>
        <time>2018-08-16T08:41:35Z</time>
      </trkpt>
      <trkpt lat="45.95878" lon="4.71539">
        <ele>181</ele>
        <time>2018-08-16T08:41:36Z</time>
      </trkpt>
      <trkpt lat="45.95883" lon="4.71539">
        <ele>181</ele>
        <time>2018-08-16T08:41:37Z</time>
      </trkpt>
      <trkpt lat="45.95888" lon="4.7154">
        <ele>181</ele>
        <time>2018-08-16T08:41:38Z</time>
      </trkpt>
      <trkpt lat="45.95893" lon="4.7154">
        <ele>181</ele>
        <time>2018-08-16T08:41:39Z</time>
      </trkpt>
      <trkpt lat="45.95898" lon="4.71543">
        <ele>181</ele>
        <time>2018-08-16T08:41:40Z</time>
      </trkpt>
      <trkpt lat="45.95907" lon="4.71542">
        <ele>181</ele>
        <time>2018-08-16T08:41:42Z</time>
      </trkpt>
      <trkpt lat="45.95912" lon="4.71542">
        <ele>181</ele>
        <time>2018-08-16T08:41:43Z</time>
      </trkpt>
      <trkpt lat="45.95916" lon="4.71543">
        <ele>181</ele>
        <time>2018-08-16T08:41:44Z</time>
      </trkpt>
      <trkpt lat="45.95921" lon="4.71543">
        <ele>183</ele>
        <time>2018-08-16T08:41:45Z</time>
      </trkpt>
      <trkpt lat="45.95925" lon="4.71545">
        <ele>182</ele>
        <time>2018-08-16T08:41:46Z</time>
      </trkpt>
      <trkpt lat="45.9593" lon="4.71545">
        <ele>183</ele>
        <time>2018-08-16T08:41:47Z</time>
      </trkpt>
      <trkpt lat="45.95935" lon="4.71545">
        <ele>183</ele>
        <time>2018-08-16T08:41:48Z</time>
      </trkpt>
      <trkpt lat="45.9594" lon="4.71546">
        <ele>183</ele>
        <time>2018-08-16T08:41:49Z</time>
      </trkpt>
      <trkpt lat="45.95944" lon="4.71547">
        <ele>183</ele>
        <time>2018-08-16T08:41:50Z</time>
      </trkpt>
      <trkpt lat="45.95949" lon="4.71548">
        <ele>183</ele>
        <time>2018-08-16T08:41:51Z</time>
      </trkpt>
      <trkpt lat="45.95954" lon="4.71548">
        <ele>183</ele>
        <time>2018-08-16T08:41:52Z</time>
      </trkpt>
      <trkpt lat="45.9596" lon="4.71548">
        <ele>183</ele>
        <time>2018-08-16T08:41:53Z</time>
      </trkpt>
      <trkpt lat="45.95967" lon="4.71553">
        <ele>183</ele>
        <time>2018-08-16T08:41:55Z</time>
      </trkpt>
      <trkpt lat="45.95971" lon="4.71557">
        <ele>183</ele>
        <time>2018-08-16T08:41:56Z</time>
      </trkpt>
      <trkpt lat="45.95976" lon="4.71558">
        <ele>183</ele>
        <time>2018-08-16T08:41:57Z</time>
      </trkpt>
      <trkpt lat="45.95981" lon="4.71556">
        <ele>183</ele>
        <time>2018-08-16T08:41:58Z</time>
      </trkpt>
      <trkpt lat="45.95986" lon="4.71555">
        <ele>183</ele>
        <time>2018-08-16T08:41:59Z</time>
      </trkpt>
      <trkpt lat="45.95992" lon="4.71551">
        <ele>183</ele>
        <time>2018-08-16T08:42:00Z</time>
      </trkpt>
      <trkpt lat="45.95996" lon="4.71551">
        <ele>183</ele>
        <time>2018-08-16T08:42:01Z</time>
      </trkpt>
      <trkpt lat="45.96002" lon="4.71548">
        <ele>185</ele>
        <time>2018-08-16T08:42:02Z</time>
      </trkpt>
      <trkpt lat="45.9601" lon="4.71547">
        <ele>185</ele>
        <time>2018-08-16T08:42:04Z</time>
      </trkpt>
      <trkpt lat="45.96015" lon="4.71546">
        <ele>185</ele>
        <time>2018-08-16T08:42:05Z</time>
      </trkpt>
      <trkpt lat="45.9602" lon="4.71547">
        <ele>185</ele>
        <time>2018-08-16T08:42:06Z</time>
      </trkpt>
      <trkpt lat="45.96026" lon="4.71547">
        <ele>185</ele>
        <time>2018-08-16T08:42:07Z</time>
      </trkpt>
      <trkpt lat="45.96031" lon="4.71547">
        <ele>185</ele>
        <time>2018-08-16T08:42:08Z</time>
      </trkpt>
      <trkpt lat="45.96037" lon="4.71547">
        <ele>185</ele>
        <time>2018-08-16T08:42:09Z</time>
      </trkpt>
      <trkpt lat="45.96043" lon="4.7155">
        <ele>185</ele>
        <time>2018-08-16T08:42:10Z</time>
      </trkpt>
      <trkpt lat="45.9605" lon="4.71554">
        <ele>185</ele>
        <time>2018-08-16T08:42:11Z</time>
      </trkpt>
      <trkpt lat="45.96056" lon="4.71556">
        <ele>185</ele>
        <time>2018-08-16T08:42:12Z</time>
      </trkpt>
      <trkpt lat="45.9606" lon="4.71557">
        <ele>185</ele>
        <time>2018-08-16T08:42:13Z</time>
      </trkpt>
      <trkpt lat="45.96069" lon="4.71556">
        <ele>185</ele>
        <time>2018-08-16T08:42:15Z</time>
      </trkpt>
      <trkpt lat="45.96075" lon="4.71557">
        <ele>185</ele>
        <time>2018-08-16T08:42:16Z</time>
      </trkpt>
      <trkpt lat="45.96079" lon="4.71558">
        <ele>185</ele>
        <time>2018-08-16T08:42:17Z</time>
      </trkpt>
      <trkpt lat="45.96086" lon="4.71561">
        <ele>184</ele>
        <time>2018-08-16T08:42:18Z</time>
      </trkpt>
      <trkpt lat="45.96091" lon="4.71562">
        <ele>184</ele>
        <time>2018-08-16T08:42:19Z</time>
      </trkpt>
      <trkpt lat="45.96096" lon="4.7156">
        <ele>184</ele>
        <time>2018-08-16T08:42:20Z</time>
      </trkpt>
      <trkpt lat="45.96102" lon="4.71561">
        <ele>184</ele>
        <time>2018-08-16T08:42:21Z</time>
      </trkpt>
      <trkpt lat="45.96108" lon="4.71561">
        <ele>184</ele>
        <time>2018-08-16T08:42:22Z</time>
      </trkpt>
      <trkpt lat="45.96113" lon="4.71559">
        <ele>184</ele>
        <time>2018-08-16T08:42:23Z</time>
      </trkpt>
      <trkpt lat="45.96119" lon="4.7156">
        <ele>184</ele>
        <time>2018-08-16T08:42:24Z</time>
      </trkpt>
      <trkpt lat="45.96124" lon="4.7156">
        <ele>184</ele>
        <time>2018-08-16T08:42:25Z</time>
      </trkpt>
      <trkpt lat="45.96131" lon="4.71562">
        <ele>184</ele>
        <time>2018-08-16T08:42:26Z</time>
      </trkpt>
      <trkpt lat="45.96137" lon="4.7156">
        <ele>184</ele>
        <time>2018-08-16T08:42:27Z</time>
      </trkpt>
      <trkpt lat="45.96144" lon="4.71561">
        <ele>184</ele>
        <time>2018-08-16T08:42:28Z</time>
      </trkpt>
      <trkpt lat="45.96151" lon="4.7156">
        <ele>183</ele>
        <time>2018-08-16T08:42:29Z</time>
      </trkpt>
      <trkpt lat="45.96157" lon="4.7156">
        <ele>183</ele>
        <time>2018-08-16T08:42:30Z</time>
      </trkpt>
      <trkpt lat="45.96163" lon="4.71564">
        <ele>183</ele>
        <time>2018-08-16T08:42:31Z</time>
      </trkpt>
      <trkpt lat="45.9617" lon="4.71564">
        <ele>182</ele>
        <time>2018-08-16T08:42:32Z</time>
      </trkpt>
      <trkpt lat="45.96177" lon="4.71563">
        <ele>183</ele>
        <time>2018-08-16T08:42:33Z</time>
      </trkpt>
      <trkpt lat="45.96184" lon="4.71563">
        <ele>183</ele>
        <time>2018-08-16T08:42:34Z</time>
      </trkpt>
      <trkpt lat="45.9619" lon="4.71564">
        <ele>183</ele>
        <time>2018-08-16T08:42:35Z</time>
      </trkpt>
      <trkpt lat="45.96198" lon="4.71567">
        <ele>183</ele>
        <time>2018-08-16T08:42:36Z</time>
      </trkpt>
      <trkpt lat="45.96204" lon="4.7157">
        <ele>183</ele>
        <time>2018-08-16T08:42:37Z</time>
      </trkpt>
      <trkpt lat="45.96211" lon="4.71571">
        <ele>183</ele>
        <time>2018-08-16T08:42:38Z</time>
      </trkpt>
      <trkpt lat="45.96217" lon="4.71573">
        <ele>183</ele>
        <time>2018-08-16T08:42:39Z</time>
      </trkpt>
      <trkpt lat="45.96224" lon="4.71574">
        <ele>183</ele>
        <time>2018-08-16T08:42:40Z</time>
      </trkpt>
      <trkpt lat="45.96231" lon="4.71576">
        <ele>183</ele>
        <time>2018-08-16T08:42:41Z</time>
      </trkpt>
      <trkpt lat="45.96238" lon="4.71578">
        <ele>182</ele>
        <time>2018-08-16T08:42:42Z</time>
      </trkpt>
      <trkpt lat="45.96243" lon="4.7158">
        <ele>182</ele>
        <time>2018-08-16T08:42:43Z</time>
      </trkpt>
      <trkpt lat="45.96249" lon="4.71583">
        <ele>181</ele>
        <time>2018-08-16T08:42:44Z</time>
      </trkpt>
      <trkpt lat="45.96255" lon="4.71582">
        <ele>182</ele>
        <time>2018-08-16T08:42:45Z</time>
      </trkpt>
      <trkpt lat="45.96261" lon="4.71583">
        <ele>182</ele>
        <time>2018-08-16T08:42:46Z</time>
      </trkpt>
      <trkpt lat="45.96269" lon="4.71584">
        <ele>180</ele>
        <time>2018-08-16T08:42:47Z</time>
      </trkpt>
      <trkpt lat="45.96276" lon="4.71585">
        <ele>180</ele>
        <time>2018-08-16T08:42:48Z</time>
      </trkpt>
      <trkpt lat="45.96282" lon="4.71585">
        <ele>180</ele>
        <time>2018-08-16T08:42:49Z</time>
      </trkpt>
      <trkpt lat="45.96288" lon="4.71585">
        <ele>181</ele>
        <time>2018-08-16T08:42:50Z</time>
      </trkpt>
      <trkpt lat="45.96295" lon="4.71586">
        <ele>181</ele>
        <time>2018-08-16T08:42:51Z</time>
      </trkpt>
      <trkpt lat="45.96301" lon="4.71588">
        <ele>181</ele>
        <time>2018-08-16T08:42:52Z</time>
      </trkpt>
      <trkpt lat="45.96307" lon="4.71589">
        <ele>181</ele>
        <time>2018-08-16T08:42:53Z</time>
      </trkpt>
      <trkpt lat="45.96313" lon="4.71591">
        <ele>181</ele>
        <time>2018-08-16T08:42:54Z</time>
      </trkpt>
      <trkpt lat="45.96319" lon="4.71592">
        <ele>181</ele>
        <time>2018-08-16T08:42:55Z</time>
      </trkpt>
      <trkpt lat="45.96325" lon="4.71593">
        <ele>182</ele>
        <time>2018-08-16T08:42:56Z</time>
      </trkpt>
      <trkpt lat="45.96332" lon="4.71595">
        <ele>182</ele>
        <time>2018-08-16T08:42:57Z</time>
      </trkpt>
      <trkpt lat="45.96338" lon="4.71594">
        <ele>182</ele>
        <time>2018-08-16T08:42:58Z</time>
      </trkpt>
      <trkpt lat="45.96345" lon="4.71593">
        <ele>182</ele>
        <time>2018-08-16T08:42:59Z</time>
      </trkpt>
      <trkpt lat="45.96351" lon="4.71593">
        <ele>182</ele>
        <time>2018-08-16T08:43:00Z</time>
      </trkpt>
      <trkpt lat="45.96357" lon="4.71596">
        <ele>182</ele>
        <time>2018-08-16T08:43:01Z</time>
      </trkpt>
      <trkpt lat="45.96363" lon="4.71598">
        <ele>182</ele>
        <time>2018-08-16T08:43:02Z</time>
      </trkpt>
      <trkpt lat="45.96367" lon="4.71597">
        <ele>182</ele>
        <time>2018-08-16T08:43:03Z</time>
      </trkpt>
      <trkpt lat="45.96374" lon="4.71598">
        <ele>182</ele>
        <time>2018-08-16T08:43:04Z</time>
      </trkpt>
      <trkpt lat="45.9638" lon="4.71599">
        <ele>182</ele>
        <time>2018-08-16T08:43:05Z</time>
      </trkpt>
      <trkpt lat="45.96386" lon="4.71599">
        <ele>182</ele>
        <time>2018-08-16T08:43:06Z</time>
      </trkpt>
      <trkpt lat="45.96392" lon="4.71599">
        <ele>183</ele>
        <time>2018-08-16T08:43:07Z</time>
      </trkpt>
      <trkpt lat="45.96398" lon="4.71597">
        <ele>183</ele>
        <time>2018-08-16T08:43:08Z</time>
      </trkpt>
      <trkpt lat="45.96405" lon="4.71599">
        <ele>183</ele>
        <time>2018-08-16T08:43:09Z</time>
      </trkpt>
      <trkpt lat="45.96412" lon="4.71601">
        <ele>183</ele>
        <time>2018-08-16T08:43:10Z</time>
      </trkpt>
      <trkpt lat="45.96419" lon="4.71603">
        <ele>184</ele>
        <time>2018-08-16T08:43:11Z</time>
      </trkpt>
      <trkpt lat="45.96425" lon="4.71605">
        <ele>183</ele>
        <time>2018-08-16T08:43:12Z</time>
      </trkpt>
      <trkpt lat="45.96432" lon="4.71606">
        <ele>183</ele>
        <time>2018-08-16T08:43:13Z</time>
      </trkpt>
      <trkpt lat="45.96437" lon="4.71607">
        <ele>183</ele>
        <time>2018-08-16T08:43:14Z</time>
      </trkpt>
      <trkpt lat="45.96443" lon="4.71609">
        <ele>183</ele>
        <time>2018-08-16T08:43:15Z</time>
      </trkpt>
      <trkpt lat="45.96449" lon="4.7161">
        <ele>183</ele>
        <time>2018-08-16T08:43:16Z</time>
      </trkpt>
      <trkpt lat="45.96455" lon="4.71613">
        <ele>183</ele>
        <time>2018-08-16T08:43:17Z</time>
      </trkpt>
      <trkpt lat="45.96461" lon="4.71614">
        <ele>183</ele>
        <time>2018-08-16T08:43:18Z</time>
      </trkpt>
      <trkpt lat="45.96466" lon="4.71615">
        <ele>183</ele>
        <time>2018-08-16T08:43:19Z</time>
      </trkpt>
      <trkpt lat="45.96473" lon="4.71614">
        <ele>183</ele>
        <time>2018-08-16T08:43:20Z</time>
      </trkpt>
      <trkpt lat="45.96479" lon="4.71613">
        <ele>183</ele>
        <time>2018-08-16T08:43:21Z</time>
      </trkpt>
      <trkpt lat="45.96483" lon="4.71615">
        <ele>183</ele>
        <time>2018-08-16T08:43:22Z</time>
      </trkpt>
      <trkpt lat="45.96488" lon="4.71616">
        <ele>183</ele>
        <time>2018-08-16T08:43:23Z</time>
      </trkpt>
      <trkpt lat="45.96494" lon="4.71617">
        <ele>183</ele>
        <time>2018-08-16T08:43:24Z</time>
      </trkpt>
      <trkpt lat="45.96499" lon="4.71618">
        <ele>183</ele>
        <time>2018-08-16T08:43:25Z</time>
      </trkpt>
      <trkpt lat="45.96505" lon="4.71618">
        <ele>184</ele>
        <time>2018-08-16T08:43:26Z</time>
      </trkpt>
      <trkpt lat="45.96509" lon="4.71621">
        <ele>184</ele>
        <time>2018-08-16T08:43:27Z</time>
      </trkpt>
      <trkpt lat="45.96512" lon="4.71625">
        <ele>184</ele>
        <time>2018-08-16T08:43:28Z</time>
      </trkpt>
      <trkpt lat="45.96516" lon="4.7163">
        <ele>184</ele>
        <time>2018-08-16T08:43:29Z</time>
      </trkpt>
      <trkpt lat="45.9652" lon="4.71634">
        <ele>183</ele>
        <time>2018-08-16T08:43:30Z</time>
      </trkpt>
      <trkpt lat="45.96525" lon="4.71633">
        <ele>184</ele>
        <time>2018-08-16T08:43:31Z</time>
      </trkpt>
      <trkpt lat="45.9653" lon="4.71634">
        <ele>184</ele>
        <time>2018-08-16T08:43:32Z</time>
      </trkpt>
      <trkpt lat="45.96536" lon="4.71633">
        <ele>184</ele>
        <time>2018-08-16T08:43:33Z</time>
      </trkpt>
      <trkpt lat="45.96542" lon="4.7163">
        <ele>184</ele>
        <time>2018-08-16T08:43:34Z</time>
      </trkpt>
      <trkpt lat="45.96547" lon="4.71626">
        <ele>184</ele>
        <time>2018-08-16T08:43:35Z</time>
      </trkpt>
      <trkpt lat="45.96552" lon="4.71624">
        <ele>185</ele>
        <time>2018-08-16T08:43:36Z</time>
      </trkpt>
      <trkpt lat="45.96558" lon="4.71624">
        <ele>185</ele>
        <time>2018-08-16T08:43:37Z</time>
      </trkpt>
      <trkpt lat="45.96564" lon="4.71625">
        <ele>185</ele>
        <time>2018-08-16T08:43:38Z</time>
      </trkpt>
      <trkpt lat="45.96569" lon="4.71626">
        <ele>185</ele>
        <time>2018-08-16T08:43:39Z</time>
      </trkpt>
      <trkpt lat="45.96575" lon="4.71627">
        <ele>185</ele>
        <time>2018-08-16T08:43:40Z</time>
      </trkpt>
      <trkpt lat="45.9658" lon="4.71628">
        <ele>185</ele>
        <time>2018-08-16T08:43:41Z</time>
      </trkpt>
      <trkpt lat="45.96585" lon="4.71629">
        <ele>187</ele>
        <time>2018-08-16T08:43:42Z</time>
      </trkpt>
      <trkpt lat="45.96591" lon="4.71631">
        <ele>187</ele>
        <time>2018-08-16T08:43:43Z</time>
      </trkpt>
      <trkpt lat="45.96597" lon="4.71632">
        <ele>187</ele>
        <time>2018-08-16T08:43:44Z</time>
      </trkpt>
      <trkpt lat="45.96602" lon="4.71635">
        <ele>187</ele>
        <time>2018-08-16T08:43:45Z</time>
      </trkpt>
      <trkpt lat="45.96608" lon="4.71636">
        <ele>187</ele>
        <time>2018-08-16T08:43:46Z</time>
      </trkpt>
      <trkpt lat="45.96613" lon="4.71637">
        <ele>187</ele>
        <time>2018-08-16T08:43:47Z</time>
      </trkpt>
      <trkpt lat="45.9662" lon="4.71633">
        <ele>187</ele>
        <time>2018-08-16T08:43:48Z</time>
      </trkpt>
      <trkpt lat="45.96627" lon="4.71634">
        <ele>187</ele>
        <time>2018-08-16T08:43:49Z</time>
      </trkpt>
      <trkpt lat="45.96632" lon="4.71636">
        <ele>188</ele>
        <time>2018-08-16T08:43:50Z</time>
      </trkpt>
      <trkpt lat="45.96634" lon="4.71639">
        <ele>188</ele>
        <time>2018-08-16T08:43:51Z</time>
      </trkpt>
      <trkpt lat="45.9664" lon="4.71639">
        <ele>188</ele>
        <time>2018-08-16T08:43:52Z</time>
      </trkpt>
      <trkpt lat="45.96647" lon="4.71642">
        <ele>188</ele>
        <time>2018-08-16T08:43:54Z</time>
      </trkpt>
      <trkpt lat="45.96652" lon="4.71643">
        <ele>188</ele>
        <time>2018-08-16T08:43:55Z</time>
      </trkpt>
      <trkpt lat="45.96657" lon="4.71641">
        <ele>188</ele>
        <time>2018-08-16T08:43:56Z</time>
      </trkpt>
      <trkpt lat="45.96662" lon="4.71642">
        <ele>188</ele>
        <time>2018-08-16T08:43:57Z</time>
      </trkpt>
      <trkpt lat="45.96667" lon="4.71643">
        <ele>189</ele>
        <time>2018-08-16T08:43:58Z</time>
      </trkpt>
      <trkpt lat="45.96673" lon="4.71644">
        <ele>189</ele>
        <time>2018-08-16T08:43:59Z</time>
      </trkpt>
      <trkpt lat="45.96678" lon="4.71645">
        <ele>189</ele>
        <time>2018-08-16T08:44:00Z</time>
      </trkpt>
      <trkpt lat="45.96683" lon="4.71646">
        <ele>189</ele>
        <time>2018-08-16T08:44:01Z</time>
      </trkpt>
      <trkpt lat="45.96691" lon="4.7165">
        <ele>189</ele>
        <time>2018-08-16T08:44:03Z</time>
      </trkpt>
      <trkpt lat="45.96696" lon="4.7165">
        <ele>190</ele>
        <time>2018-08-16T08:44:04Z</time>
      </trkpt>
      <trkpt lat="45.967" lon="4.71652">
        <ele>190</ele>
        <time>2018-08-16T08:44:05Z</time>
      </trkpt>
      <trkpt lat="45.96706" lon="4.71653">
        <ele>190</ele>
        <time>2018-08-16T08:44:06Z</time>
      </trkpt>
      <trkpt lat="45.96712" lon="4.71652">
        <ele>190</ele>
        <time>2018-08-16T08:44:07Z</time>
      </trkpt>
      <trkpt lat="45.96717" lon="4.71653">
        <ele>190</ele>
        <time>2018-08-16T08:44:08Z</time>
      </trkpt>
      <trkpt lat="45.96723" lon="4.71652">
        <ele>190</ele>
        <time>2018-08-16T08:44:09Z</time>
      </trkpt>
      <trkpt lat="45.96728" lon="4.71653">
        <ele>190</ele>
        <time>2018-08-16T08:44:10Z</time>
      </trkpt>
      <trkpt lat="45.96734" lon="4.71654">
        <ele>190</ele>
        <time>2018-08-16T08:44:11Z</time>
      </trkpt>
      <trkpt lat="45.9674" lon="4.71655">
        <ele>190</ele>
        <time>2018-08-16T08:44:12Z</time>
      </trkpt>
      <trkpt lat="45.96748" lon="4.71658">
        <ele>189</ele>
        <time>2018-08-16T08:44:14Z</time>
      </trkpt>
      <trkpt lat="45.96752" lon="4.7166">
        <ele>190</ele>
        <time>2018-08-16T08:44:15Z</time>
      </trkpt>
      <trkpt lat="45.96757" lon="4.71661">
        <ele>190</ele>
        <time>2018-08-16T08:44:16Z</time>
      </trkpt>
      <trkpt lat="45.96762" lon="4.71663">
        <ele>191</ele>
        <time>2018-08-16T08:44:17Z</time>
      </trkpt>
      <trkpt lat="45.96767" lon="4.71664">
        <ele>191</ele>
        <time>2018-08-16T08:44:18Z</time>
      </trkpt>
      <trkpt lat="45.96772" lon="4.71664">
        <ele>191</ele>
        <time>2018-08-16T08:44:19Z</time>
      </trkpt>
      <trkpt lat="45.96777" lon="4.71666">
        <ele>192</ele>
        <time>2018-08-16T08:44:20Z</time>
      </trkpt>
      <trkpt lat="45.96782" lon="4.71665">
        <ele>192</ele>
        <time>2018-08-16T08:44:21Z</time>
      </trkpt>
      <trkpt lat="45.96788" lon="4.71666">
        <ele>192</ele>
        <time>2018-08-16T08:44:22Z</time>
      </trkpt>
      <trkpt lat="45.96794" lon="4.71666">
        <ele>192</ele>
        <time>2018-08-16T08:44:23Z</time>
      </trkpt>
      <trkpt lat="45.96799" lon="4.71666">
        <ele>192</ele>
        <time>2018-08-16T08:44:24Z</time>
      </trkpt>
      <trkpt lat="45.96804" lon="4.71668">
        <ele>189</ele>
        <time>2018-08-16T08:44:25Z</time>
      </trkpt>
      <trkpt lat="45.9681" lon="4.71667">
        <ele>189</ele>
        <time>2018-08-16T08:44:26Z</time>
      </trkpt>
      <trkpt lat="45.96818" lon="4.71666">
        <ele>192</ele>
        <time>2018-08-16T08:44:27Z</time>
      </trkpt>
      <trkpt lat="45.96824" lon="4.71666">
        <ele>192</ele>
        <time>2018-08-16T08:44:28Z</time>
      </trkpt>
      <trkpt lat="45.96828" lon="4.71668">
        <ele>191</ele>
        <time>2018-08-16T08:44:29Z</time>
      </trkpt>
      <trkpt lat="45.96835" lon="4.71669">
        <ele>192</ele>
        <time>2018-08-16T08:44:30Z</time>
      </trkpt>
      <trkpt lat="45.96841" lon="4.71671">
        <ele>191</ele>
        <time>2018-08-16T08:44:31Z</time>
      </trkpt>
      <trkpt lat="45.96845" lon="4.71674">
        <ele>191</ele>
        <time>2018-08-16T08:44:32Z</time>
      </trkpt>
      <trkpt lat="45.9685" lon="4.71676">
        <ele>190</ele>
        <time>2018-08-16T08:44:33Z</time>
      </trkpt>
      <trkpt lat="45.96854" lon="4.71676">
        <ele>190</ele>
        <time>2018-08-16T08:44:34Z</time>
      </trkpt>
      <trkpt lat="45.96859" lon="4.71677">
        <ele>190</ele>
        <time>2018-08-16T08:44:35Z</time>
      </trkpt>
      <trkpt lat="45.96864" lon="4.71676">
        <ele>190</ele>
        <time>2018-08-16T08:44:36Z</time>
      </trkpt>
      <trkpt lat="45.96868" lon="4.71675">
        <ele>190</ele>
        <time>2018-08-16T08:44:37Z</time>
      </trkpt>
      <trkpt lat="45.96872" lon="4.7168">
        <ele>190</ele>
        <time>2018-08-16T08:44:38Z</time>
      </trkpt>
      <trkpt lat="45.96877" lon="4.7168">
        <ele>190</ele>
        <time>2018-08-16T08:44:39Z</time>
      </trkpt>
      <trkpt lat="45.96881" lon="4.71682">
        <ele>190</ele>
        <time>2018-08-16T08:44:40Z</time>
      </trkpt>
      <trkpt lat="45.9689" lon="4.71681">
        <ele>191</ele>
        <time>2018-08-16T08:44:41Z</time>
      </trkpt>
      <trkpt lat="45.96897" lon="4.71683">
        <ele>191</ele>
        <time>2018-08-16T08:44:43Z</time>
      </trkpt>
      <trkpt lat="45.969" lon="4.71686">
        <ele>191</ele>
        <time>2018-08-16T08:44:44Z</time>
      </trkpt>
      <trkpt lat="45.96906" lon="4.71687">
        <ele>191</ele>
        <time>2018-08-16T08:44:45Z</time>
      </trkpt>
      <trkpt lat="45.96912" lon="4.71685">
        <ele>192</ele>
        <time>2018-08-16T08:44:46Z</time>
      </trkpt>
      <trkpt lat="45.96919" lon="4.71682">
        <ele>193</ele>
        <time>2018-08-16T08:44:47Z</time>
      </trkpt>
      <trkpt lat="45.96925" lon="4.71683">
        <ele>192</ele>
        <time>2018-08-16T08:44:48Z</time>
      </trkpt>
      <trkpt lat="45.96931" lon="4.71683">
        <ele>192</ele>
        <time>2018-08-16T08:44:49Z</time>
      </trkpt>
      <trkpt lat="45.96937" lon="4.71684">
        <ele>192</ele>
        <time>2018-08-16T08:44:50Z</time>
      </trkpt>
      <trkpt lat="45.96942" lon="4.71684">
        <ele>192</ele>
        <time>2018-08-16T08:44:51Z</time>
      </trkpt>
      <trkpt lat="45.96946" lon="4.71683">
        <ele>192</ele>
        <time>2018-08-16T08:44:52Z</time>
      </trkpt>
      <trkpt lat="45.96951" lon="4.71682">
        <ele>192</ele>
        <time>2018-08-16T08:44:53Z</time>
      </trkpt>
      <trkpt lat="45.9696" lon="4.71685">
        <ele>192</ele>
        <time>2018-08-16T08:44:54Z</time>
      </trkpt>
      <trkpt lat="45.96965" lon="4.71685">
        <ele>192</ele>
        <time>2018-08-16T08:44:55Z</time>
      </trkpt>
      <trkpt lat="45.9697" lon="4.71686">
        <ele>192</ele>
        <time>2018-08-16T08:44:56Z</time>
      </trkpt>
      <trkpt lat="45.96973" lon="4.71686">
        <ele>192</ele>
        <time>2018-08-16T08:44:57Z</time>
      </trkpt>
      <trkpt lat="45.96979" lon="4.71688">
        <ele>192</ele>
        <time>2018-08-16T08:44:58Z</time>
      </trkpt>
      <trkpt lat="45.96984" lon="4.71689">
        <ele>192</ele>
        <time>2018-08-16T08:44:59Z</time>
      </trkpt>
      <trkpt lat="45.96988" lon="4.7169">
        <ele>192</ele>
        <time>2018-08-16T08:45:00Z</time>
      </trkpt>
      <trkpt lat="45.96994" lon="4.7169">
        <ele>192</ele>
        <time>2018-08-16T08:45:01Z</time>
      </trkpt>
      <trkpt lat="45.96998" lon="4.7169">
        <ele>192</ele>
        <time>2018-08-16T08:45:02Z</time>
      </trkpt>
      <trkpt lat="45.97007" lon="4.71692">
        <ele>193</ele>
        <time>2018-08-16T08:45:04Z</time>
      </trkpt>
      <trkpt lat="45.9701" lon="4.71693">
        <ele>192</ele>
        <time>2018-08-16T08:45:05Z</time>
      </trkpt>
      <trkpt lat="45.97015" lon="4.71694">
        <ele>192</ele>
        <time>2018-08-16T08:45:06Z</time>
      </trkpt>
      <trkpt lat="45.97021" lon="4.71693">
        <ele>192</ele>
        <time>2018-08-16T08:45:07Z</time>
      </trkpt>
      <trkpt lat="45.97028" lon="4.71695">
        <ele>192</ele>
        <time>2018-08-16T08:45:08Z</time>
      </trkpt>
      <trkpt lat="45.97034" lon="4.71695">
        <ele>192</ele>
        <time>2018-08-16T08:45:09Z</time>
      </trkpt>
      <trkpt lat="45.97038" lon="4.71696">
        <ele>192</ele>
        <time>2018-08-16T08:45:10Z</time>
      </trkpt>
      <trkpt lat="45.97044" lon="4.71696">
        <ele>192</ele>
        <time>2018-08-16T08:45:11Z</time>
      </trkpt>
      <trkpt lat="45.97049" lon="4.71697">
        <ele>192</ele>
        <time>2018-08-16T08:45:12Z</time>
      </trkpt>
      <trkpt lat="45.97054" lon="4.71697">
        <ele>192</ele>
        <time>2018-08-16T08:45:13Z</time>
      </trkpt>
      <trkpt lat="45.97059" lon="4.71698">
        <ele>192</ele>
        <time>2018-08-16T08:45:14Z</time>
      </trkpt>
      <trkpt lat="45.97065" lon="4.71699">
        <ele>193</ele>
        <time>2018-08-16T08:45:15Z</time>
      </trkpt>
      <trkpt lat="45.9707" lon="4.71699">
        <ele>193</ele>
        <time>2018-08-16T08:45:16Z</time>
      </trkpt>
      <trkpt lat="45.97074" lon="4.717">
        <ele>193</ele>
        <time>2018-08-16T08:45:17Z</time>
      </trkpt>
      <trkpt lat="45.9708" lon="4.717">
        <ele>193</ele>
        <time>2018-08-16T08:45:18Z</time>
      </trkpt>
      <trkpt lat="45.97084" lon="4.717">
        <ele>194</ele>
        <time>2018-08-16T08:45:19Z</time>
      </trkpt>
      <trkpt lat="45.97088" lon="4.717">
        <ele>194</ele>
        <time>2018-08-16T08:45:20Z</time>
      </trkpt>
      <trkpt lat="45.97094" lon="4.71701">
        <ele>194</ele>
        <time>2018-08-16T08:45:21Z</time>
      </trkpt>
      <trkpt lat="45.97103" lon="4.71699">
        <ele>194</ele>
        <time>2018-08-16T08:45:23Z</time>
      </trkpt>
      <trkpt lat="45.97106" lon="4.717">
        <ele>194</ele>
        <time>2018-08-16T08:45:24Z</time>
      </trkpt>
      <trkpt lat="45.97115" lon="4.71701">
        <ele>194</ele>
        <time>2018-08-16T08:45:26Z</time>
      </trkpt>
      <trkpt lat="45.97119" lon="4.71702">
        <ele>194</ele>
        <time>2018-08-16T08:45:27Z</time>
      </trkpt>
      <trkpt lat="45.97128" lon="4.71704">
        <ele>194</ele>
        <time>2018-08-16T08:45:29Z</time>
      </trkpt>
      <trkpt lat="45.97132" lon="4.71704">
        <ele>194</ele>
        <time>2018-08-16T08:45:30Z</time>
      </trkpt>
      <trkpt lat="45.97137" lon="4.71705">
        <ele>194</ele>
        <time>2018-08-16T08:45:31Z</time>
      </trkpt>
      <trkpt lat="45.97142" lon="4.71705">
        <ele>194</ele>
        <time>2018-08-16T08:45:32Z</time>
      </trkpt>
      <trkpt lat="45.97147" lon="4.71706">
        <ele>194</ele>
        <time>2018-08-16T08:45:33Z</time>
      </trkpt>
      <trkpt lat="45.97152" lon="4.71705">
        <ele>195</ele>
        <time>2018-08-16T08:45:34Z</time>
      </trkpt>
      <trkpt lat="45.97157" lon="4.71706">
        <ele>195</ele>
        <time>2018-08-16T08:45:35Z</time>
      </trkpt>
      <trkpt lat="45.97162" lon="4.71707">
        <ele>195</ele>
        <time>2018-08-16T08:45:36Z</time>
      </trkpt>
      <trkpt lat="45.97168" lon="4.71708">
        <ele>196</ele>
        <time>2018-08-16T08:45:37Z</time>
      </trkpt>
      <trkpt lat="45.97172" lon="4.71709">
        <ele>196</ele>
        <time>2018-08-16T08:45:38Z</time>
      </trkpt>
      <trkpt lat="45.97178" lon="4.7171">
        <ele>196</ele>
        <time>2018-08-16T08:45:39Z</time>
      </trkpt>
      <trkpt lat="45.97183" lon="4.7171">
        <ele>196</ele>
        <time>2018-08-16T08:45:40Z</time>
      </trkpt>
      <trkpt lat="45.97187" lon="4.7171">
        <ele>196</ele>
        <time>2018-08-16T08:45:41Z</time>
      </trkpt>
      <trkpt lat="45.97193" lon="4.7171">
        <ele>196</ele>
        <time>2018-08-16T08:45:42Z</time>
      </trkpt>
      <trkpt lat="45.97199" lon="4.7171">
        <ele>196</ele>
        <time>2018-08-16T08:45:43Z</time>
      </trkpt>
      <trkpt lat="45.97204" lon="4.7171">
        <ele>196</ele>
        <time>2018-08-16T08:45:44Z</time>
      </trkpt>
      <trkpt lat="45.9721" lon="4.71711">
        <ele>196</ele>
        <time>2018-08-16T08:45:45Z</time>
      </trkpt>
      <trkpt lat="45.97215" lon="4.71712">
        <ele>196</ele>
        <time>2018-08-16T08:45:46Z</time>
      </trkpt>
      <trkpt lat="45.9722" lon="4.71711">
        <ele>196</ele>
        <time>2018-08-16T08:45:47Z</time>
      </trkpt>
      <trkpt lat="45.97225" lon="4.71711">
        <ele>196</ele>
        <time>2018-08-16T08:45:48Z</time>
      </trkpt>
      <trkpt lat="45.97231" lon="4.71711">
        <ele>196</ele>
        <time>2018-08-16T08:45:49Z</time>
      </trkpt>
      <trkpt lat="45.97237" lon="4.71712">
        <ele>196</ele>
        <time>2018-08-16T08:45:50Z</time>
      </trkpt>
      <trkpt lat="45.97243" lon="4.71712">
        <ele>196</ele>
        <time>2018-08-16T08:45:51Z</time>
      </trkpt>
      <trkpt lat="45.97249" lon="4.71712">
        <ele>196</ele>
        <time>2018-08-16T08:45:52Z</time>
      </trkpt>
      <trkpt lat="45.97254" lon="4.71713">
        <ele>196</ele>
        <time>2018-08-16T08:45:53Z</time>
      </trkpt>
      <trkpt lat="45.97262" lon="4.71713">
        <ele>196</ele>
        <time>2018-08-16T08:45:54Z</time>
      </trkpt>
      <trkpt lat="45.97266" lon="4.71713">
        <ele>196</ele>
        <time>2018-08-16T08:45:55Z</time>
      </trkpt>
      <trkpt lat="45.97272" lon="4.71715">
        <ele>196</ele>
        <time>2018-08-16T08:45:56Z</time>
      </trkpt>
      <trkpt lat="45.97281" lon="4.71718">
        <ele>196</ele>
        <time>2018-08-16T08:45:59Z</time>
      </trkpt>
      <trkpt lat="45.97285" lon="4.71726">
        <ele>196</ele>
        <time>2018-08-16T08:46:00Z</time>
      </trkpt>
      <trkpt lat="45.97292" lon="4.71733">
        <ele>196</ele>
        <time>2018-08-16T08:46:02Z</time>
      </trkpt>
      <trkpt lat="45.97296" lon="4.71736">
        <ele>196</ele>
        <time>2018-08-16T08:46:03Z</time>
      </trkpt>
      <trkpt lat="45.973" lon="4.71738">
        <ele>196</ele>
        <time>2018-08-16T08:46:04Z</time>
      </trkpt>
      <trkpt lat="45.97305" lon="4.7174">
        <ele>195</ele>
        <time>2018-08-16T08:46:05Z</time>
      </trkpt>
      <trkpt lat="45.97309" lon="4.71736">
        <ele>195</ele>
        <time>2018-08-16T08:46:06Z</time>
      </trkpt>
      <trkpt lat="45.97314" lon="4.71734">
        <ele>195</ele>
        <time>2018-08-16T08:46:07Z</time>
      </trkpt>
      <trkpt lat="45.97318" lon="4.71728">
        <ele>195</ele>
        <time>2018-08-16T08:46:08Z</time>
      </trkpt>
      <trkpt lat="45.97323" lon="4.71724">
        <ele>196</ele>
        <time>2018-08-16T08:46:09Z</time>
      </trkpt>
      <trkpt lat="45.9733" lon="4.71721">
        <ele>196</ele>
        <time>2018-08-16T08:46:11Z</time>
      </trkpt>
      <trkpt lat="45.97335" lon="4.71723">
        <ele>195</ele>
        <time>2018-08-16T08:46:12Z</time>
      </trkpt>
      <trkpt lat="45.97341" lon="4.71722">
        <ele>195</ele>
        <time>2018-08-16T08:46:13Z</time>
      </trkpt>
      <trkpt lat="45.97346" lon="4.71723">
        <ele>195</ele>
        <time>2018-08-16T08:46:14Z</time>
      </trkpt>
      <trkpt lat="45.97351" lon="4.71725">
        <ele>195</ele>
        <time>2018-08-16T08:46:15Z</time>
      </trkpt>
      <trkpt lat="45.97356" lon="4.71725">
        <ele>195</ele>
        <time>2018-08-16T08:46:16Z</time>
      </trkpt>
      <trkpt lat="45.97361" lon="4.71726">
        <ele>195</ele>
        <time>2018-08-16T08:46:17Z</time>
      </trkpt>
      <trkpt lat="45.97368" lon="4.71726">
        <ele>195</ele>
        <time>2018-08-16T08:46:18Z</time>
      </trkpt>
      <trkpt lat="45.97373" lon="4.71727">
        <ele>195</ele>
        <time>2018-08-16T08:46:19Z</time>
      </trkpt>
      <trkpt lat="45.97381" lon="4.71726">
        <ele>195</ele>
        <time>2018-08-16T08:46:20Z</time>
      </trkpt>
      <trkpt lat="45.97387" lon="4.71726">
        <ele>195</ele>
        <time>2018-08-16T08:46:21Z</time>
      </trkpt>
      <trkpt lat="45.97398" lon="4.71717">
        <ele>195</ele>
        <time>2018-08-16T08:46:22Z</time>
      </trkpt>
      <trkpt lat="45.97404" lon="4.71721">
        <ele>195</ele>
        <time>2018-08-16T08:46:24Z</time>
      </trkpt>
      <trkpt lat="45.9741" lon="4.71718">
        <ele>195</ele>
        <time>2018-08-16T08:46:25Z</time>
      </trkpt>
      <trkpt lat="45.97415" lon="4.71721">
        <ele>195</ele>
        <time>2018-08-16T08:46:26Z</time>
      </trkpt>
      <trkpt lat="45.97419" lon="4.71723">
        <ele>196</ele>
        <time>2018-08-16T08:46:27Z</time>
      </trkpt>
      <trkpt lat="45.97423" lon="4.71724">
        <ele>196</ele>
        <time>2018-08-16T08:46:28Z</time>
      </trkpt>
      <trkpt lat="45.97429" lon="4.71724">
        <ele>196</ele>
        <time>2018-08-16T08:46:29Z</time>
      </trkpt>
      <trkpt lat="45.97434" lon="4.71724">
        <ele>196</ele>
        <time>2018-08-16T08:46:30Z</time>
      </trkpt>
      <trkpt lat="45.97439" lon="4.71723">
        <ele>196</ele>
        <time>2018-08-16T08:46:31Z</time>
      </trkpt>
      <trkpt lat="45.97445" lon="4.71723">
        <ele>196</ele>
        <time>2018-08-16T08:46:32Z</time>
      </trkpt>
      <trkpt lat="45.97451" lon="4.71724">
        <ele>197</ele>
        <time>2018-08-16T08:46:33Z</time>
      </trkpt>
      <trkpt lat="45.97455" lon="4.71725">
        <ele>197</ele>
        <time>2018-08-16T08:46:34Z</time>
      </trkpt>
      <trkpt lat="45.9746" lon="4.71726">
        <ele>197</ele>
        <time>2018-08-16T08:46:35Z</time>
      </trkpt>
      <trkpt lat="45.97466" lon="4.71726">
        <ele>197</ele>
        <time>2018-08-16T08:46:36Z</time>
      </trkpt>
      <trkpt lat="45.97471" lon="4.71727">
        <ele>197</ele>
        <time>2018-08-16T08:46:37Z</time>
      </trkpt>
      <trkpt lat="45.97479" lon="4.7173">
        <ele>197</ele>
        <time>2018-08-16T08:46:39Z</time>
      </trkpt>
      <trkpt lat="45.97484" lon="4.7173">
        <ele>197</ele>
        <time>2018-08-16T08:46:40Z</time>
      </trkpt>
      <trkpt lat="45.97489" lon="4.71733">
        <ele>197</ele>
        <time>2018-08-16T08:46:41Z</time>
      </trkpt>
      <trkpt lat="45.97493" lon="4.71735">
        <ele>197</ele>
        <time>2018-08-16T08:46:42Z</time>
      </trkpt>
      <trkpt lat="45.97498" lon="4.71736">
        <ele>197</ele>
        <time>2018-08-16T08:46:43Z</time>
      </trkpt>
      <trkpt lat="45.97502" lon="4.7174">
        <ele>197</ele>
        <time>2018-08-16T08:46:44Z</time>
      </trkpt>
      <trkpt lat="45.97511" lon="4.71737">
        <ele>197</ele>
        <time>2018-08-16T08:46:45Z</time>
      </trkpt>
      <trkpt lat="45.97517" lon="4.71737">
        <ele>197</ele>
        <time>2018-08-16T08:46:46Z</time>
      </trkpt>
      <trkpt lat="45.97523" lon="4.71735">
        <ele>198</ele>
        <time>2018-08-16T08:46:47Z</time>
      </trkpt>
      <trkpt lat="45.97529" lon="4.71737">
        <ele>198</ele>
        <time>2018-08-16T08:46:48Z</time>
      </trkpt>
      <trkpt lat="45.97536" lon="4.71737">
        <ele>198</ele>
        <time>2018-08-16T08:46:49Z</time>
      </trkpt>
      <trkpt lat="45.97541" lon="4.71736">
        <ele>198</ele>
        <time>2018-08-16T08:46:50Z</time>
      </trkpt>
      <trkpt lat="45.97546" lon="4.71736">
        <ele>198</ele>
        <time>2018-08-16T08:46:51Z</time>
      </trkpt>
      <trkpt lat="45.97552" lon="4.71736">
        <ele>197</ele>
        <time>2018-08-16T08:46:52Z</time>
      </trkpt>
      <trkpt lat="45.97559" lon="4.71734">
        <ele>197</ele>
        <time>2018-08-16T08:46:53Z</time>
      </trkpt>
      <trkpt lat="45.97565" lon="4.71735">
        <ele>197</ele>
        <time>2018-08-16T08:46:54Z</time>
      </trkpt>
      <trkpt lat="45.97572" lon="4.71734">
        <ele>197</ele>
        <time>2018-08-16T08:46:55Z</time>
      </trkpt>
      <trkpt lat="45.97577" lon="4.71734">
        <ele>197</ele>
        <time>2018-08-16T08:46:56Z</time>
      </trkpt>
      <trkpt lat="45.97583" lon="4.71735">
        <ele>197</ele>
        <time>2018-08-16T08:46:57Z</time>
      </trkpt>
      <trkpt lat="45.97589" lon="4.71736">
        <ele>196</ele>
        <time>2018-08-16T08:46:58Z</time>
      </trkpt>
      <trkpt lat="45.97594" lon="4.71739">
        <ele>196</ele>
        <time>2018-08-16T08:46:59Z</time>
      </trkpt>
      <trkpt lat="45.97596" lon="4.71748">
        <ele>196</ele>
        <time>2018-08-16T08:47:00Z</time>
      </trkpt>
      <trkpt lat="45.97601" lon="4.71752">
        <ele>194</ele>
        <time>2018-08-16T08:47:01Z</time>
      </trkpt>
      <trkpt lat="45.97605" lon="4.71756">
        <ele>194</ele>
        <time>2018-08-16T08:47:02Z</time>
      </trkpt>
      <trkpt lat="45.97611" lon="4.7176">
        <ele>194</ele>
        <time>2018-08-16T08:47:03Z</time>
      </trkpt>
      <trkpt lat="45.97618" lon="4.71762">
        <ele>194</ele>
        <time>2018-08-16T08:47:04Z</time>
      </trkpt>
      <trkpt lat="45.97622" lon="4.71764">
        <ele>194</ele>
        <time>2018-08-16T08:47:05Z</time>
      </trkpt>
      <trkpt lat="45.97627" lon="4.71759">
        <ele>194</ele>
        <time>2018-08-16T08:47:06Z</time>
      </trkpt>
      <trkpt lat="45.97632" lon="4.71755">
        <ele>194</ele>
        <time>2018-08-16T08:47:07Z</time>
      </trkpt>
      <trkpt lat="45.97636" lon="4.71754">
        <ele>194</ele>
        <time>2018-08-16T08:47:08Z</time>
      </trkpt>
      <trkpt lat="45.97641" lon="4.71753">
        <ele>194</ele>
        <time>2018-08-16T08:47:09Z</time>
      </trkpt>
      <trkpt lat="45.97647" lon="4.71753">
        <ele>194</ele>
        <time>2018-08-16T08:47:10Z</time>
      </trkpt>
      <trkpt lat="45.97652" lon="4.71755">
        <ele>194</ele>
        <time>2018-08-16T08:47:11Z</time>
      </trkpt>
      <trkpt lat="45.97658" lon="4.71755">
        <ele>194</ele>
        <time>2018-08-16T08:47:12Z</time>
      </trkpt>
      <trkpt lat="45.97663" lon="4.71757">
        <ele>194</ele>
        <time>2018-08-16T08:47:13Z</time>
      </trkpt>
      <trkpt lat="45.9767" lon="4.71757">
        <ele>194</ele>
        <time>2018-08-16T08:47:14Z</time>
      </trkpt>
      <trkpt lat="45.97676" lon="4.71757">
        <ele>194</ele>
        <time>2018-08-16T08:47:15Z</time>
      </trkpt>
      <trkpt lat="45.97682" lon="4.71757">
        <ele>194</ele>
        <time>2018-08-16T08:47:16Z</time>
      </trkpt>
      <trkpt lat="45.97688" lon="4.71757">
        <ele>195</ele>
        <time>2018-08-16T08:47:17Z</time>
      </trkpt>
      <trkpt lat="45.97695" lon="4.71758">
        <ele>195</ele>
        <time>2018-08-16T08:47:18Z</time>
      </trkpt>
      <trkpt lat="45.977" lon="4.71759">
        <ele>195</ele>
        <time>2018-08-16T08:47:19Z</time>
      </trkpt>
      <trkpt lat="45.97706" lon="4.7176">
        <ele>195</ele>
        <time>2018-08-16T08:47:20Z</time>
      </trkpt>
      <trkpt lat="45.97711" lon="4.71759">
        <ele>195</ele>
        <time>2018-08-16T08:47:21Z</time>
      </trkpt>
      <trkpt lat="45.97717" lon="4.7176">
        <ele>195</ele>
        <time>2018-08-16T08:47:22Z</time>
      </trkpt>
      <trkpt lat="45.97722" lon="4.71761">
        <ele>195</ele>
        <time>2018-08-16T08:47:23Z</time>
      </trkpt>
      <trkpt lat="45.97727" lon="4.71762">
        <ele>195</ele>
        <time>2018-08-16T08:47:24Z</time>
      </trkpt>
      <trkpt lat="45.97733" lon="4.71764">
        <ele>195</ele>
        <time>2018-08-16T08:47:25Z</time>
      </trkpt>
      <trkpt lat="45.9774" lon="4.71765">
        <ele>195</ele>
        <time>2018-08-16T08:47:26Z</time>
      </trkpt>
      <trkpt lat="45.97746" lon="4.71766">
        <ele>195</ele>
        <time>2018-08-16T08:47:27Z</time>
      </trkpt>
      <trkpt lat="45.97752" lon="4.71766">
        <ele>196</ele>
        <time>2018-08-16T08:47:28Z</time>
      </trkpt>
      <trkpt lat="45.97758" lon="4.71767">
        <ele>195</ele>
        <time>2018-08-16T08:47:29Z</time>
      </trkpt>
      <trkpt lat="45.97763" lon="4.71765">
        <ele>195</ele>
        <time>2018-08-16T08:47:30Z</time>
      </trkpt>
      <trkpt lat="45.97769" lon="4.71765">
        <ele>195</ele>
        <time>2018-08-16T08:47:31Z</time>
      </trkpt>
      <trkpt lat="45.97773" lon="4.71767">
        <ele>195</ele>
        <time>2018-08-16T08:47:32Z</time>
      </trkpt>
      <trkpt lat="45.97778" lon="4.71768">
        <ele>195</ele>
        <time>2018-08-16T08:47:33Z</time>
      </trkpt>
      <trkpt lat="45.97785" lon="4.71774">
        <ele>195</ele>
        <time>2018-08-16T08:47:35Z</time>
      </trkpt>
      <trkpt lat="45.97792" lon="4.71774">
        <ele>195</ele>
        <time>2018-08-16T08:47:36Z</time>
      </trkpt>
      <trkpt lat="45.97797" lon="4.71775">
        <ele>195</ele>
        <time>2018-08-16T08:47:37Z</time>
      </trkpt>
      <trkpt lat="45.97804" lon="4.71775">
        <ele>195</ele>
        <time>2018-08-16T08:47:38Z</time>
      </trkpt>
      <trkpt lat="45.97815" lon="4.7177">
        <ele>195</ele>
        <time>2018-08-16T08:47:39Z</time>
      </trkpt>
      <trkpt lat="45.97819" lon="4.71772">
        <ele>195</ele>
        <time>2018-08-16T08:47:40Z</time>
      </trkpt>
      <trkpt lat="45.97824" lon="4.71771">
        <ele>195</ele>
        <time>2018-08-16T08:47:41Z</time>
      </trkpt>
      <trkpt lat="45.97831" lon="4.7177">
        <ele>195</ele>
        <time>2018-08-16T08:47:42Z</time>
      </trkpt>
      <trkpt lat="45.97836" lon="4.71771">
        <ele>195</ele>
        <time>2018-08-16T08:47:43Z</time>
      </trkpt>
      <trkpt lat="45.97842" lon="4.71771">
        <ele>195</ele>
        <time>2018-08-16T08:47:44Z</time>
      </trkpt>
      <trkpt lat="45.97849" lon="4.71773">
        <ele>195</ele>
        <time>2018-08-16T08:47:45Z</time>
      </trkpt>
      <trkpt lat="45.97852" lon="4.71781">
        <ele>194</ele>
        <time>2018-08-16T08:47:46Z</time>
      </trkpt>
      <trkpt lat="45.97858" lon="4.71785">
        <ele>194</ele>
        <time>2018-08-16T08:47:47Z</time>
      </trkpt>
      <trkpt lat="45.97865" lon="4.71786">
        <ele>194</ele>
        <time>2018-08-16T08:47:48Z</time>
      </trkpt>
      <trkpt lat="45.97872" lon="4.71787">
        <ele>194</ele>
        <time>2018-08-16T08:47:49Z</time>
      </trkpt>
      <trkpt lat="45.97879" lon="4.71785">
        <ele>194</ele>
        <time>2018-08-16T08:47:50Z</time>
      </trkpt>
      <trkpt lat="45.97885" lon="4.71783">
        <ele>194</ele>
        <time>2018-08-16T08:47:51Z</time>
      </trkpt>
      <trkpt lat="45.9789" lon="4.71774">
        <ele>194</ele>
        <time>2018-08-16T08:47:52Z</time>
      </trkpt>
      <trkpt lat="45.97896" lon="4.71769">
        <ele>194</ele>
        <time>2018-08-16T08:47:53Z</time>
      </trkpt>
      <trkpt lat="45.97896" lon="4.71759">
        <ele>195</ele>
        <time>2018-08-16T08:47:54Z</time>
      </trkpt>
      <trkpt lat="45.97897" lon="4.7175">
        <ele>195</ele>
        <time>2018-08-16T08:47:55Z</time>
      </trkpt>
      <trkpt lat="45.97895" lon="4.71741">
        <ele>196</ele>
        <time>2018-08-16T08:47:56Z</time>
      </trkpt>
      <trkpt lat="45.97894" lon="4.71732">
        <ele>196</ele>
        <time>2018-08-16T08:47:57Z</time>
      </trkpt>
      <trkpt lat="45.97891" lon="4.71726">
        <ele>196</ele>
        <time>2018-08-16T08:47:58Z</time>
      </trkpt>
      <trkpt lat="45.97888" lon="4.7172">
        <ele>196</ele>
        <time>2018-08-16T08:47:59Z</time>
      </trkpt>
      <trkpt lat="45.97884" lon="4.71714">
        <ele>196</ele>
        <time>2018-08-16T08:48:00Z</time>
      </trkpt>
      <trkpt lat="45.97881" lon="4.71709">
        <ele>196</ele>
        <time>2018-08-16T08:48:01Z</time>
      </trkpt>
      <trkpt lat="45.97879" lon="4.71702">
        <ele>196</ele>
        <time>2018-08-16T08:48:02Z</time>
      </trkpt>
      <trkpt lat="45.97878" lon="4.71694">
        <ele>196</ele>
        <time>2018-08-16T08:48:03Z</time>
      </trkpt>
      <trkpt lat="45.97878" lon="4.71686">
        <ele>196</ele>
        <time>2018-08-16T08:48:04Z</time>
      </trkpt>
      <trkpt lat="45.97878" lon="4.71677">
        <ele>196</ele>
        <time>2018-08-16T08:48:05Z</time>
      </trkpt>
      <trkpt lat="45.97879" lon="4.71669">
        <ele>196</ele>
        <time>2018-08-16T08:48:06Z</time>
      </trkpt>
      <trkpt lat="45.97881" lon="4.71661">
        <ele>197</ele>
        <time>2018-08-16T08:48:07Z</time>
      </trkpt>
      <trkpt lat="45.97883" lon="4.71654">
        <ele>197</ele>
        <time>2018-08-16T08:48:08Z</time>
      </trkpt>
      <trkpt lat="45.97883" lon="4.71648">
        <ele>197</ele>
        <time>2018-08-16T08:48:09Z</time>
      </trkpt>
      <trkpt lat="45.97883" lon="4.71639">
        <ele>197</ele>
        <time>2018-08-16T08:48:10Z</time>
      </trkpt>
      <trkpt lat="45.97884" lon="4.71632">
        <ele>197</ele>
        <time>2018-08-16T08:48:11Z</time>
      </trkpt>
      <trkpt lat="45.97884" lon="4.71625">
        <ele>197</ele>
        <time>2018-08-16T08:48:12Z</time>
      </trkpt>
      <trkpt lat="45.97884" lon="4.71615">
        <ele>197</ele>
        <time>2018-08-16T08:48:13Z</time>
      </trkpt>
      <trkpt lat="45.97883" lon="4.71608">
        <ele>197</ele>
        <time>2018-08-16T08:48:14Z</time>
      </trkpt>
      <trkpt lat="45.97882" lon="4.71601">
        <ele>197</ele>
        <time>2018-08-16T08:48:15Z</time>
      </trkpt>
      <trkpt lat="45.97883" lon="4.71595">
        <ele>197</ele>
        <time>2018-08-16T08:48:16Z</time>
      </trkpt>
      <trkpt lat="45.97885" lon="4.71587">
        <ele>197</ele>
        <time>2018-08-16T08:48:17Z</time>
      </trkpt>
      <trkpt lat="45.97886" lon="4.71581">
        <ele>198</ele>
        <time>2018-08-16T08:48:18Z</time>
      </trkpt>
      <trkpt lat="45.97886" lon="4.71573">
        <ele>198</ele>
        <time>2018-08-16T08:48:19Z</time>
      </trkpt>
      <trkpt lat="45.97887" lon="4.71566">
        <ele>198</ele>
        <time>2018-08-16T08:48:20Z</time>
      </trkpt>
      <trkpt lat="45.97887" lon="4.71558">
        <ele>198</ele>
        <time>2018-08-16T08:48:21Z</time>
      </trkpt>
      <trkpt lat="45.97886" lon="4.71551">
        <ele>198</ele>
        <time>2018-08-16T08:48:22Z</time>
      </trkpt>
      <trkpt lat="45.97885" lon="4.71543">
        <ele>199</ele>
        <time>2018-08-16T08:48:23Z</time>
      </trkpt>
      <trkpt lat="45.97884" lon="4.71536">
        <ele>199</ele>
        <time>2018-08-16T08:48:24Z</time>
      </trkpt>
      <trkpt lat="45.97881" lon="4.71529">
        <ele>199</ele>
        <time>2018-08-16T08:48:25Z</time>
      </trkpt>
      <trkpt lat="45.9788" lon="4.71521">
        <ele>199</ele>
        <time>2018-08-16T08:48:26Z</time>
      </trkpt>
      <trkpt lat="45.97879" lon="4.71514">
        <ele>199</ele>
        <time>2018-08-16T08:48:27Z</time>
      </trkpt>
      <trkpt lat="45.97876" lon="4.71502">
        <ele>199</ele>
        <time>2018-08-16T08:48:29Z</time>
      </trkpt>
      <trkpt lat="45.97874" lon="4.71495">
        <ele>201</ele>
        <time>2018-08-16T08:48:30Z</time>
      </trkpt>
      <trkpt lat="45.97874" lon="4.71488">
        <ele>201</ele>
        <time>2018-08-16T08:48:31Z</time>
      </trkpt>
      <trkpt lat="45.97874" lon="4.71481">
        <ele>201</ele>
        <time>2018-08-16T08:48:32Z</time>
      </trkpt>
      <trkpt lat="45.97872" lon="4.71474">
        <ele>201</ele>
        <time>2018-08-16T08:48:33Z</time>
      </trkpt>
      <trkpt lat="45.97871" lon="4.71468">
        <ele>201</ele>
        <time>2018-08-16T08:48:34Z</time>
      </trkpt>
      <trkpt lat="45.9787" lon="4.71456">
        <ele>201</ele>
        <time>2018-08-16T08:48:36Z</time>
      </trkpt>
      <trkpt lat="45.97869" lon="4.71449">
        <ele>201</ele>
        <time>2018-08-16T08:48:37Z</time>
      </trkpt>
      <trkpt lat="45.97868" lon="4.71443">
        <ele>201</ele>
        <time>2018-08-16T08:48:38Z</time>
      </trkpt>
      <trkpt lat="45.97867" lon="4.71436">
        <ele>201</ele>
        <time>2018-08-16T08:48:39Z</time>
      </trkpt>
      <trkpt lat="45.97865" lon="4.71425">
        <ele>201</ele>
        <time>2018-08-16T08:48:41Z</time>
      </trkpt>
      <trkpt lat="45.97864" lon="4.7142">
        <ele>201</ele>
        <time>2018-08-16T08:48:42Z</time>
      </trkpt>
      <trkpt lat="45.97862" lon="4.7141">
        <ele>203</ele>
        <time>2018-08-16T08:48:44Z</time>
      </trkpt>
      <trkpt lat="45.97862" lon="4.71405">
        <ele>203</ele>
        <time>2018-08-16T08:48:45Z</time>
      </trkpt>
      <trkpt lat="45.97862" lon="4.71394">
        <ele>203</ele>
        <time>2018-08-16T08:48:47Z</time>
      </trkpt>
      <trkpt lat="45.97861" lon="4.71388">
        <ele>203</ele>
        <time>2018-08-16T08:48:48Z</time>
      </trkpt>
      <trkpt lat="45.9786" lon="4.71377">
        <ele>203</ele>
        <time>2018-08-16T08:48:50Z</time>
      </trkpt>
      <trkpt lat="45.97859" lon="4.71372">
        <ele>203</ele>
        <time>2018-08-16T08:48:51Z</time>
      </trkpt>
      <trkpt lat="45.97858" lon="4.7136">
        <ele>204</ele>
        <time>2018-08-16T08:48:53Z</time>
      </trkpt>
      <trkpt lat="45.97858" lon="4.71358">
        <ele>204</ele>
        <time>2018-08-16T08:48:54Z</time>
      </trkpt>
      <trkpt lat="45.97859" lon="4.71345">
        <ele>204</ele>
        <time>2018-08-16T08:48:56Z</time>
      </trkpt>
      <trkpt lat="45.97859" lon="4.71339">
        <ele>204</ele>
        <time>2018-08-16T08:48:57Z</time>
      </trkpt>
      <trkpt lat="45.9786" lon="4.71329">
        <ele>205</ele>
        <time>2018-08-16T08:49:00Z</time>
      </trkpt>
      <trkpt lat="45.9786" lon="4.71321">
        <ele>205</ele>
        <time>2018-08-16T08:49:01Z</time>
      </trkpt>
      <trkpt lat="45.9786" lon="4.71308">
        <ele>205</ele>
        <time>2018-08-16T08:49:05Z</time>
      </trkpt>
      <trkpt lat="45.9786" lon="4.71296">
        <ele>206</ele>
        <time>2018-08-16T08:49:06Z</time>
      </trkpt>
      <trkpt lat="45.9786" lon="4.71284">
        <ele>206</ele>
        <time>2018-08-16T08:49:10Z</time>
      </trkpt>
      <trkpt lat="45.97862" lon="4.71274">
        <ele>206</ele>
        <time>2018-08-16T08:49:11Z</time>
      </trkpt>
      <trkpt lat="45.97862" lon="4.71261">
        <ele>206</ele>
        <time>2018-08-16T08:49:15Z</time>
      </trkpt>
      <trkpt lat="45.97862" lon="4.71257">
        <ele>206</ele>
        <time>2018-08-16T08:49:16Z</time>
      </trkpt>
      <trkpt lat="45.97861" lon="4.71246">
        <ele>208</ele>
        <time>2018-08-16T08:49:19Z</time>
      </trkpt>
      <trkpt lat="45.97861" lon="4.71242">
        <ele>208</ele>
        <time>2018-08-16T08:49:20Z</time>
      </trkpt>
      <trkpt lat="45.97861" lon="4.7123">
        <ele>208</ele>
        <time>2018-08-16T08:49:24Z</time>
      </trkpt>
      <trkpt lat="45.97861" lon="4.71229">
        <ele>208</ele>
        <time>2018-08-16T08:49:25Z</time>
      </trkpt>
      <trkpt lat="45.97861" lon="4.71227">
        <ele>208</ele>
        <time>2018-08-16T08:49:26Z</time>
      </trkpt>
      <trkpt lat="45.97861" lon="4.71226">
        <ele>208</ele>
        <time>2018-08-16T08:49:27Z</time>
      </trkpt>
      <trkpt lat="45.9786" lon="4.71226">
        <ele>208</ele>
        <time>2018-08-16T08:49:28Z</time>
      </trkpt>
      <trkpt lat="45.97856" lon="4.71224">
        <ele>208</ele>
        <time>2018-08-16T08:49:42Z</time>
      </trkpt>
      <trkpt lat="45.97856" lon="4.71224">
        <ele>208</ele>
        <time>2018-08-16T08:49:43Z</time>
      </trkpt>
      <trkpt lat="45.97856" lon="4.71224">
        <ele>208</ele>
        <time>2018-08-16T08:49:44Z</time>
      </trkpt>
      <trkpt lat="45.97857" lon="4.71213">
        <ele>208</ele>
        <time>2018-08-16T08:49:50Z</time>
      </trkpt>
      <trkpt lat="45.97857" lon="4.7121">
        <ele>208</ele>
        <time>2018-08-16T08:49:51Z</time>
      </trkpt>
      <trkpt lat="45.97857" lon="4.71198">
        <ele>209</ele>
        <time>2018-08-16T08:49:55Z</time>
      </trkpt>
      <trkpt lat="45.97858" lon="4.71195">
        <ele>209</ele>
        <time>2018-08-16T08:49:56Z</time>
      </trkpt>
      <trkpt lat="45.97858" lon="4.71192">
        <ele>209</ele>
        <time>2018-08-16T08:49:57Z</time>
      </trkpt>
      <trkpt lat="45.97859" lon="4.71178">
        <ele>209</ele>
        <time>2018-08-16T08:49:58Z</time>
      </trkpt>
      <trkpt lat="45.97859" lon="4.71168">
        <ele>209</ele>
        <time>2018-08-16T08:50:00Z</time>
      </trkpt>
      <trkpt lat="45.97859" lon="4.7116">
        <ele>212</ele>
        <time>2018-08-16T08:50:01Z</time>
      </trkpt>
      <trkpt lat="45.97859" lon="4.71149">
        <ele>212</ele>
        <time>2018-08-16T08:50:03Z</time>
      </trkpt>
      <trkpt lat="45.97858" lon="4.71143">
        <ele>212</ele>
        <time>2018-08-16T08:50:04Z</time>
      </trkpt>
      <trkpt lat="45.97855" lon="4.71133">
        <ele>212</ele>
        <time>2018-08-16T08:50:07Z</time>
      </trkpt>
      <trkpt lat="45.97854" lon="4.7113">
        <ele>212</ele>
        <time>2018-08-16T08:50:08Z</time>
      </trkpt>
      <trkpt lat="45.97852" lon="4.71117">
        <ele>213</ele>
        <time>2018-08-16T08:50:09Z</time>
      </trkpt>
      <trkpt lat="45.97851" lon="4.71115">
        <ele>213</ele>
        <time>2018-08-16T08:50:10Z</time>
      </trkpt>
      <trkpt lat="45.9785" lon="4.71106">
        <ele>213</ele>
        <time>2018-08-16T08:50:12Z</time>
      </trkpt>
      <trkpt lat="45.97849" lon="4.71099">
        <ele>213</ele>
        <time>2018-08-16T08:50:13Z</time>
      </trkpt>
      <trkpt lat="45.97848" lon="4.71087">
        <ele>213</ele>
        <time>2018-08-16T08:50:17Z</time>
      </trkpt>
      <trkpt lat="45.97847" lon="4.71084">
        <ele>214</ele>
        <time>2018-08-16T08:50:18Z</time>
      </trkpt>
      <trkpt lat="45.97846" lon="4.71073">
        <ele>215</ele>
        <time>2018-08-16T08:50:21Z</time>
      </trkpt>
      <trkpt lat="45.97845" lon="4.71069">
        <ele>215</ele>
        <time>2018-08-16T08:50:22Z</time>
      </trkpt>
      <trkpt lat="45.97844" lon="4.71057">
        <ele>215</ele>
        <time>2018-08-16T08:50:25Z</time>
      </trkpt>
      <trkpt lat="45.97844" lon="4.71051">
        <ele>215</ele>
        <time>2018-08-16T08:50:26Z</time>
      </trkpt>
      <trkpt lat="45.97843" lon="4.71041">
        <ele>216</ele>
        <time>2018-08-16T08:50:28Z</time>
      </trkpt>
      <trkpt lat="45.97843" lon="4.71036">
        <ele>216</ele>
        <time>2018-08-16T08:50:29Z</time>
      </trkpt>
      <trkpt lat="45.97842" lon="4.71027">
        <ele>216</ele>
        <time>2018-08-16T08:50:31Z</time>
      </trkpt>
      <trkpt lat="45.97842" lon="4.71022">
        <ele>216</ele>
        <time>2018-08-16T08:50:32Z</time>
      </trkpt>
      <trkpt lat="45.97841" lon="4.71008">
        <ele>216</ele>
        <time>2018-08-16T08:50:33Z</time>
      </trkpt>
      <trkpt lat="45.9784" lon="4.70996">
        <ele>216</ele>
        <time>2018-08-16T08:50:37Z</time>
      </trkpt>
      <trkpt lat="45.9784" lon="4.70992">
        <ele>217</ele>
        <time>2018-08-16T08:50:38Z</time>
      </trkpt>
      <trkpt lat="45.97837" lon="4.70976">
        <ele>217</ele>
        <time>2018-08-16T08:50:39Z</time>
      </trkpt>
      <trkpt lat="45.97836" lon="4.70972">
        <ele>217</ele>
        <time>2018-08-16T08:50:41Z</time>
      </trkpt>
      <trkpt lat="45.97835" lon="4.70964">
        <ele>218</ele>
        <time>2018-08-16T08:50:42Z</time>
      </trkpt>
      <trkpt lat="45.97834" lon="4.70952">
        <ele>218</ele>
        <time>2018-08-16T08:50:46Z</time>
      </trkpt>
      <trkpt lat="45.97834" lon="4.70949">
        <ele>218</ele>
        <time>2018-08-16T08:50:47Z</time>
      </trkpt>
      <trkpt lat="45.97835" lon="4.70941">
        <ele>218</ele>
        <time>2018-08-16T08:50:49Z</time>
      </trkpt>
      <trkpt lat="45.97837" lon="4.70929">
        <ele>218</ele>
        <time>2018-08-16T08:50:50Z</time>
      </trkpt>
      <trkpt lat="45.97836" lon="4.70918">
        <ele>219</ele>
        <time>2018-08-16T08:50:54Z</time>
      </trkpt>
      <trkpt lat="45.97835" lon="4.70915">
        <ele>219</ele>
        <time>2018-08-16T08:50:55Z</time>
      </trkpt>
      <trkpt lat="45.97831" lon="4.70904">
        <ele>219</ele>
        <time>2018-08-16T08:50:58Z</time>
      </trkpt>
      <trkpt lat="45.9783" lon="4.709">
        <ele>220</ele>
        <time>2018-08-16T08:50:59Z</time>
      </trkpt>
      <trkpt lat="45.97826" lon="4.70889">
        <ele>220</ele>
        <time>2018-08-16T08:51:02Z</time>
      </trkpt>
      <trkpt lat="45.97825" lon="4.70885">
        <ele>220</ele>
        <time>2018-08-16T08:51:03Z</time>
      </trkpt>
      <trkpt lat="45.97824" lon="4.7088">
        <ele>220</ele>
        <time>2018-08-16T08:51:04Z</time>
      </trkpt>
      <trkpt lat="45.97822" lon="4.70867">
        <ele>220</ele>
        <time>2018-08-16T08:51:05Z</time>
      </trkpt>
      <trkpt lat="45.97821" lon="4.70855">
        <ele>220</ele>
        <time>2018-08-16T08:51:09Z</time>
      </trkpt>
      <trkpt lat="45.97821" lon="4.70852">
        <ele>220</ele>
        <time>2018-08-16T08:51:10Z</time>
      </trkpt>
      <trkpt lat="45.97819" lon="4.70843">
        <ele>221</ele>
        <time>2018-08-16T08:51:12Z</time>
      </trkpt>
      <trkpt lat="45.97819" lon="4.70838">
        <ele>221</ele>
        <time>2018-08-16T08:51:13Z</time>
      </trkpt>
      <trkpt lat="45.97817" lon="4.70829">
        <ele>221</ele>
        <time>2018-08-16T08:51:15Z</time>
      </trkpt>
      <trkpt lat="45.97815" lon="4.70815">
        <ele>221</ele>
        <time>2018-08-16T08:51:16Z</time>
      </trkpt>
      <trkpt lat="45.97811" lon="4.70807">
        <ele>221</ele>
        <time>2018-08-16T08:51:19Z</time>
      </trkpt>
      <trkpt lat="45.9781" lon="4.70803">
        <ele>221</ele>
        <time>2018-08-16T08:51:20Z</time>
      </trkpt>
      <trkpt lat="45.9781" lon="4.70791">
        <ele>221</ele>
        <time>2018-08-16T08:51:23Z</time>
      </trkpt>
      <trkpt lat="45.97811" lon="4.70777">
        <ele>221</ele>
        <time>2018-08-16T08:51:24Z</time>
      </trkpt>
      <trkpt lat="45.9781" lon="4.70767">
        <ele>221</ele>
        <time>2018-08-16T08:51:27Z</time>
      </trkpt>
      <trkpt lat="45.97809" lon="4.70763">
        <ele>221</ele>
        <time>2018-08-16T08:51:28Z</time>
      </trkpt>
      <trkpt lat="45.97805" lon="4.70752">
        <ele>221</ele>
        <time>2018-08-16T08:51:31Z</time>
      </trkpt>
      <trkpt lat="45.97803" lon="4.70749">
        <ele>222</ele>
        <time>2018-08-16T08:51:32Z</time>
      </trkpt>
      <trkpt lat="45.978" lon="4.70741">
        <ele>222</ele>
        <time>2018-08-16T08:51:34Z</time>
      </trkpt>
      <trkpt lat="45.97796" lon="4.70727">
        <ele>222</ele>
        <time>2018-08-16T08:51:35Z</time>
      </trkpt>
      <trkpt lat="45.97794" lon="4.70716">
        <ele>222</ele>
        <time>2018-08-16T08:51:37Z</time>
      </trkpt>
      <trkpt lat="45.97795" lon="4.70711">
        <ele>222</ele>
        <time>2018-08-16T08:51:38Z</time>
      </trkpt>
      <trkpt lat="45.97795" lon="4.70699">
        <ele>222</ele>
        <time>2018-08-16T08:51:40Z</time>
      </trkpt>
      <trkpt lat="45.97794" lon="4.70696">
        <ele>222</ele>
        <time>2018-08-16T08:51:41Z</time>
      </trkpt>
      <trkpt lat="45.97795" lon="4.70693">
        <ele>222</ele>
        <time>2018-08-16T08:51:42Z</time>
      </trkpt>
      <trkpt lat="45.97796" lon="4.70683">
        <ele>222</ele>
        <time>2018-08-16T08:51:43Z</time>
      </trkpt>
      <trkpt lat="45.97797" lon="4.70672">
        <ele>222</ele>
        <time>2018-08-16T08:51:45Z</time>
      </trkpt>
      <trkpt lat="45.97797" lon="4.70666">
        <ele>222</ele>
        <time>2018-08-16T08:51:46Z</time>
      </trkpt>
      <trkpt lat="45.97797" lon="4.70656">
        <ele>222</ele>
        <time>2018-08-16T08:51:48Z</time>
      </trkpt>
      <trkpt lat="45.97797" lon="4.7065">
        <ele>222</ele>
        <time>2018-08-16T08:51:49Z</time>
      </trkpt>
      <trkpt lat="45.97797" lon="4.70638">
        <ele>222</ele>
        <time>2018-08-16T08:51:51Z</time>
      </trkpt>
      <trkpt lat="45.97797" lon="4.70633">
        <ele>222</ele>
        <time>2018-08-16T08:51:52Z</time>
      </trkpt>
      <trkpt lat="45.97798" lon="4.70622">
        <ele>222</ele>
        <time>2018-08-16T08:51:55Z</time>
      </trkpt>
      <trkpt lat="45.97798" lon="4.70619">
        <ele>222</ele>
        <time>2018-08-16T08:51:56Z</time>
      </trkpt>
      <trkpt lat="45.978" lon="4.70608">
        <ele>222</ele>
        <time>2018-08-16T08:51:57Z</time>
      </trkpt>
      <trkpt lat="45.978" lon="4.70605">
        <ele>222</ele>
        <time>2018-08-16T08:51:58Z</time>
      </trkpt>
      <trkpt lat="45.97801" lon="4.70592">
        <ele>223</ele>
        <time>2018-08-16T08:52:00Z</time>
      </trkpt>
      <trkpt lat="45.978" lon="4.70586">
        <ele>223</ele>
        <time>2018-08-16T08:52:01Z</time>
      </trkpt>
      <trkpt lat="45.978" lon="4.70573">
        <ele>222</ele>
        <time>2018-08-16T08:52:03Z</time>
      </trkpt>
      <trkpt lat="45.978" lon="4.70566">
        <ele>222</ele>
        <time>2018-08-16T08:52:04Z</time>
      </trkpt>
      <trkpt lat="45.97801" lon="4.70555">
        <ele>222</ele>
        <time>2018-08-16T08:52:06Z</time>
      </trkpt>
      <trkpt lat="45.97801" lon="4.70549">
        <ele>222</ele>
        <time>2018-08-16T08:52:07Z</time>
      </trkpt>
      <trkpt lat="45.97801" lon="4.70537">
        <ele>222</ele>
        <time>2018-08-16T08:52:09Z</time>
      </trkpt>
      <trkpt lat="45.97801" lon="4.70532">
        <ele>222</ele>
        <time>2018-08-16T08:52:10Z</time>
      </trkpt>
      <trkpt lat="45.97802" lon="4.7052">
        <ele>222</ele>
        <time>2018-08-16T08:52:12Z</time>
      </trkpt>
      <trkpt lat="45.97803" lon="4.70514">
        <ele>222</ele>
        <time>2018-08-16T08:52:13Z</time>
      </trkpt>
      <trkpt lat="45.97803" lon="4.70506">
        <ele>222</ele>
        <time>2018-08-16T08:52:14Z</time>
      </trkpt>
      <trkpt lat="45.97803" lon="4.70499">
        <ele>221</ele>
        <time>2018-08-16T08:52:15Z</time>
      </trkpt>
      <trkpt lat="45.97803" lon="4.70487">
        <ele>221</ele>
        <time>2018-08-16T08:52:17Z</time>
      </trkpt>
      <trkpt lat="45.97803" lon="4.70485">
        <ele>221</ele>
        <time>2018-08-16T08:52:18Z</time>
      </trkpt>
      <trkpt lat="45.97804" lon="4.70477">
        <ele>221</ele>
        <time>2018-08-16T08:52:19Z</time>
      </trkpt>
      <trkpt lat="45.97805" lon="4.70471">
        <ele>221</ele>
        <time>2018-08-16T08:52:20Z</time>
      </trkpt>
      <trkpt lat="45.97807" lon="4.70465">
        <ele>221</ele>
        <time>2018-08-16T08:52:21Z</time>
      </trkpt>
      <trkpt lat="45.97809" lon="4.70458">
        <ele>221</ele>
        <time>2018-08-16T08:52:22Z</time>
      </trkpt>
      <trkpt lat="45.97808" lon="4.70451">
        <ele>221</ele>
        <time>2018-08-16T08:52:23Z</time>
      </trkpt>
      <trkpt lat="45.97809" lon="4.70443">
        <ele>221</ele>
        <time>2018-08-16T08:52:24Z</time>
      </trkpt>
      <trkpt lat="45.9781" lon="4.70431">
        <ele>221</ele>
        <time>2018-08-16T08:52:26Z</time>
      </trkpt>
      <trkpt lat="45.9781" lon="4.70424">
        <ele>221</ele>
        <time>2018-08-16T08:52:27Z</time>
      </trkpt>
      <trkpt lat="45.97811" lon="4.70413">
        <ele>221</ele>
        <time>2018-08-16T08:52:29Z</time>
      </trkpt>
      <trkpt lat="45.97812" lon="4.70406">
        <ele>221</ele>
        <time>2018-08-16T08:52:30Z</time>
      </trkpt>
      <trkpt lat="45.97813" lon="4.70399">
        <ele>221</ele>
        <time>2018-08-16T08:52:31Z</time>
      </trkpt>
      <trkpt lat="45.97814" lon="4.7039">
        <ele>222</ele>
        <time>2018-08-16T08:52:32Z</time>
      </trkpt>
      <trkpt lat="45.97815" lon="4.70377">
        <ele>222</ele>
        <time>2018-08-16T08:52:34Z</time>
      </trkpt>
      <trkpt lat="45.97815" lon="4.70371">
        <ele>222</ele>
        <time>2018-08-16T08:52:35Z</time>
      </trkpt>
      <trkpt lat="45.97818" lon="4.70359">
        <ele>222</ele>
        <time>2018-08-16T08:52:37Z</time>
      </trkpt>
      <trkpt lat="45.97819" lon="4.70354">
        <ele>222</ele>
        <time>2018-08-16T08:52:38Z</time>
      </trkpt>
      <trkpt lat="45.97821" lon="4.70347">
        <ele>222</ele>
        <time>2018-08-16T08:52:39Z</time>
      </trkpt>
      <trkpt lat="45.97822" lon="4.70342">
        <ele>222</ele>
        <time>2018-08-16T08:52:40Z</time>
      </trkpt>
      <trkpt lat="45.97822" lon="4.70335">
        <ele>222</ele>
        <time>2018-08-16T08:52:41Z</time>
      </trkpt>
      <trkpt lat="45.97821" lon="4.70327">
        <ele>222</ele>
        <time>2018-08-16T08:52:42Z</time>
      </trkpt>
      <trkpt lat="45.9782" lon="4.70321">
        <ele>222</ele>
        <time>2018-08-16T08:52:43Z</time>
      </trkpt>
      <trkpt lat="45.97818" lon="4.70313">
        <ele>223</ele>
        <time>2018-08-16T08:52:44Z</time>
      </trkpt>
      <trkpt lat="45.9782" lon="4.70304">
        <ele>223</ele>
        <time>2018-08-16T08:52:46Z</time>
      </trkpt>
      <trkpt lat="45.9782" lon="4.70298">
        <ele>223</ele>
        <time>2018-08-16T08:52:47Z</time>
      </trkpt>
      <trkpt lat="45.97821" lon="4.70285">
        <ele>223</ele>
        <time>2018-08-16T08:52:49Z</time>
      </trkpt>
      <trkpt lat="45.97821" lon="4.70279">
        <ele>223</ele>
        <time>2018-08-16T08:52:50Z</time>
      </trkpt>
      <trkpt lat="45.97821" lon="4.70272">
        <ele>223</ele>
        <time>2018-08-16T08:52:51Z</time>
      </trkpt>
      <trkpt lat="45.97821" lon="4.70265">
        <ele>223</ele>
        <time>2018-08-16T08:52:52Z</time>
      </trkpt>
      <trkpt lat="45.97821" lon="4.70253">
        <ele>223</ele>
        <time>2018-08-16T08:52:54Z</time>
      </trkpt>
      <trkpt lat="45.97821" lon="4.70247">
        <ele>223</ele>
        <time>2018-08-16T08:52:55Z</time>
      </trkpt>
      <trkpt lat="45.97821" lon="4.70235">
        <ele>223</ele>
        <time>2018-08-16T08:52:57Z</time>
      </trkpt>
      <trkpt lat="45.97822" lon="4.70228">
        <ele>223</ele>
        <time>2018-08-16T08:52:58Z</time>
      </trkpt>
      <trkpt lat="45.97823" lon="4.70221">
        <ele>223</ele>
        <time>2018-08-16T08:52:59Z</time>
      </trkpt>
      <trkpt lat="45.97824" lon="4.70215">
        <ele>223</ele>
        <time>2018-08-16T08:53:00Z</time>
      </trkpt>
      <trkpt lat="45.97825" lon="4.70202">
        <ele>223</ele>
        <time>2018-08-16T08:53:02Z</time>
      </trkpt>
      <trkpt lat="45.97825" lon="4.70196">
        <ele>222</ele>
        <time>2018-08-16T08:53:03Z</time>
      </trkpt>
      <trkpt lat="45.97826" lon="4.70184">
        <ele>222</ele>
        <time>2018-08-16T08:53:05Z</time>
      </trkpt>
      <trkpt lat="45.97826" lon="4.70178">
        <ele>222</ele>
        <time>2018-08-16T08:53:06Z</time>
      </trkpt>
      <trkpt lat="45.97828" lon="4.70166">
        <ele>221</ele>
        <time>2018-08-16T08:53:08Z</time>
      </trkpt>
      <trkpt lat="45.97828" lon="4.70159">
        <ele>221</ele>
        <time>2018-08-16T08:53:09Z</time>
      </trkpt>
      <trkpt lat="45.97828" lon="4.70153">
        <ele>221</ele>
        <time>2018-08-16T08:53:10Z</time>
      </trkpt>
      <trkpt lat="45.97828" lon="4.70146">
        <ele>221</ele>
        <time>2018-08-16T08:53:11Z</time>
      </trkpt>
      <trkpt lat="45.97828" lon="4.7014">
        <ele>221</ele>
        <time>2018-08-16T08:53:12Z</time>
      </trkpt>
      <trkpt lat="45.97826" lon="4.70133">
        <ele>221</ele>
        <time>2018-08-16T08:53:13Z</time>
      </trkpt>
      <trkpt lat="45.97825" lon="4.70126">
        <ele>221</ele>
        <time>2018-08-16T08:53:14Z</time>
      </trkpt>
      <trkpt lat="45.97824" lon="4.70118">
        <ele>221</ele>
        <time>2018-08-16T08:53:15Z</time>
      </trkpt>
      <trkpt lat="45.97825" lon="4.70111">
        <ele>221</ele>
        <time>2018-08-16T08:53:16Z</time>
      </trkpt>
      <trkpt lat="45.97825" lon="4.70104">
        <ele>220</ele>
        <time>2018-08-16T08:53:17Z</time>
      </trkpt>
      <trkpt lat="45.97825" lon="4.70096">
        <ele>220</ele>
        <time>2018-08-16T08:53:18Z</time>
      </trkpt>
      <trkpt lat="45.97825" lon="4.70088">
        <ele>220</ele>
        <time>2018-08-16T08:53:19Z</time>
      </trkpt>
      <trkpt lat="45.97825" lon="4.7008">
        <ele>219</ele>
        <time>2018-08-16T08:53:20Z</time>
      </trkpt>
      <trkpt lat="45.97825" lon="4.70071">
        <ele>219</ele>
        <time>2018-08-16T08:53:21Z</time>
      </trkpt>
      <trkpt lat="45.97826" lon="4.70063">
        <ele>219</ele>
        <time>2018-08-16T08:53:22Z</time>
      </trkpt>
      <trkpt lat="45.97826" lon="4.70053">
        <ele>219</ele>
        <time>2018-08-16T08:53:23Z</time>
      </trkpt>
      <trkpt lat="45.97828" lon="4.70045">
        <ele>219</ele>
        <time>2018-08-16T08:53:24Z</time>
      </trkpt>
      <trkpt lat="45.97831" lon="4.70036">
        <ele>219</ele>
        <time>2018-08-16T08:53:25Z</time>
      </trkpt>
      <trkpt lat="45.97836" lon="4.70028">
        <ele>218</ele>
        <time>2018-08-16T08:53:26Z</time>
      </trkpt>
      <trkpt lat="45.9784" lon="4.7002">
        <ele>218</ele>
        <time>2018-08-16T08:53:27Z</time>
      </trkpt>
      <trkpt lat="45.97847" lon="4.70014">
        <ele>218</ele>
        <time>2018-08-16T08:53:28Z</time>
      </trkpt>
      <trkpt lat="45.97854" lon="4.70007">
        <ele>218</ele>
        <time>2018-08-16T08:53:29Z</time>
      </trkpt>
      <trkpt lat="45.9786" lon="4.70002">
        <ele>218</ele>
        <time>2018-08-16T08:53:30Z</time>
      </trkpt>
      <trkpt lat="45.97867" lon="4.69996">
        <ele>215</ele>
        <time>2018-08-16T08:53:31Z</time>
      </trkpt>
      <trkpt lat="45.97874" lon="4.69987">
        <ele>215</ele>
        <time>2018-08-16T08:53:32Z</time>
      </trkpt>
      <trkpt lat="45.97877" lon="4.69983">
        <ele>215</ele>
        <time>2018-08-16T08:53:33Z</time>
      </trkpt>
      <trkpt lat="45.97882" lon="4.69977">
        <ele>215</ele>
        <time>2018-08-16T08:53:34Z</time>
      </trkpt>
      <trkpt lat="45.97888" lon="4.69971">
        <ele>215</ele>
        <time>2018-08-16T08:53:35Z</time>
      </trkpt>
      <trkpt lat="45.97897" lon="4.69964">
        <ele>214</ele>
        <time>2018-08-16T08:53:36Z</time>
      </trkpt>
      <trkpt lat="45.97905" lon="4.69957">
        <ele>214</ele>
        <time>2018-08-16T08:53:37Z</time>
      </trkpt>
      <trkpt lat="45.97911" lon="4.69951">
        <ele>214</ele>
        <time>2018-08-16T08:53:38Z</time>
      </trkpt>
      <trkpt lat="45.97917" lon="4.69944">
        <ele>214</ele>
        <time>2018-08-16T08:53:39Z</time>
      </trkpt>
      <trkpt lat="45.97923" lon="4.69936">
        <ele>213</ele>
        <time>2018-08-16T08:53:40Z</time>
      </trkpt>
      <trkpt lat="45.97931" lon="4.69927">
        <ele>213</ele>
        <time>2018-08-16T08:53:41Z</time>
      </trkpt>
      <trkpt lat="45.97936" lon="4.6992">
        <ele>213</ele>
        <time>2018-08-16T08:53:42Z</time>
      </trkpt>
      <trkpt lat="45.97943" lon="4.69911">
        <ele>210</ele>
        <time>2018-08-16T08:53:43Z</time>
      </trkpt>
      <trkpt lat="45.97949" lon="4.69899">
        <ele>210</ele>
        <time>2018-08-16T08:53:44Z</time>
      </trkpt>
      <trkpt lat="45.97954" lon="4.69891">
        <ele>210</ele>
        <time>2018-08-16T08:53:45Z</time>
      </trkpt>
      <trkpt lat="45.97959" lon="4.69883">
        <ele>210</ele>
        <time>2018-08-16T08:53:46Z</time>
      </trkpt>
      <trkpt lat="45.97963" lon="4.69877">
        <ele>209</ele>
        <time>2018-08-16T08:53:47Z</time>
      </trkpt>
      <trkpt lat="45.97967" lon="4.69871">
        <ele>209</ele>
        <time>2018-08-16T08:53:48Z</time>
      </trkpt>
      <trkpt lat="45.97971" lon="4.69864">
        <ele>209</ele>
        <time>2018-08-16T08:53:49Z</time>
      </trkpt>
      <trkpt lat="45.97976" lon="4.69857">
        <ele>209</ele>
        <time>2018-08-16T08:53:50Z</time>
      </trkpt>
      <trkpt lat="45.97981" lon="4.69851">
        <ele>209</ele>
        <time>2018-08-16T08:53:51Z</time>
      </trkpt>
      <trkpt lat="45.97986" lon="4.69845">
        <ele>209</ele>
        <time>2018-08-16T08:53:52Z</time>
      </trkpt>
      <trkpt lat="45.9799" lon="4.69839">
        <ele>208</ele>
        <time>2018-08-16T08:53:53Z</time>
      </trkpt>
      <trkpt lat="45.97995" lon="4.69837">
        <ele>208</ele>
        <time>2018-08-16T08:53:54Z</time>
      </trkpt>
      <trkpt lat="45.98004" lon="4.69835">
        <ele>208</ele>
        <time>2018-08-16T08:53:57Z</time>
      </trkpt>
      <trkpt lat="45.9801" lon="4.69834">
        <ele>209</ele>
        <time>2018-08-16T08:53:58Z</time>
      </trkpt>
      <trkpt lat="45.98018" lon="4.69839">
        <ele>209</ele>
        <time>2018-08-16T08:54:00Z</time>
      </trkpt>
      <trkpt lat="45.98022" lon="4.69841">
        <ele>210</ele>
        <time>2018-08-16T08:54:01Z</time>
      </trkpt>
      <trkpt lat="45.98026" lon="4.69838">
        <ele>210</ele>
        <time>2018-08-16T08:54:02Z</time>
      </trkpt>
      <trkpt lat="45.9803" lon="4.69834">
        <ele>210</ele>
        <time>2018-08-16T08:54:03Z</time>
      </trkpt>
      <trkpt lat="45.98034" lon="4.69828">
        <ele>207</ele>
        <time>2018-08-16T08:54:04Z</time>
      </trkpt>
      <trkpt lat="45.98038" lon="4.69822">
        <ele>207</ele>
        <time>2018-08-16T08:54:05Z</time>
      </trkpt>
      <trkpt lat="45.98042" lon="4.69813">
        <ele>206</ele>
        <time>2018-08-16T08:54:06Z</time>
      </trkpt>
      <trkpt lat="45.98041" lon="4.69804">
        <ele>206</ele>
        <time>2018-08-16T08:54:07Z</time>
      </trkpt>
      <trkpt lat="45.98044" lon="4.69799">
        <ele>206</ele>
        <time>2018-08-16T08:54:08Z</time>
      </trkpt>
      <trkpt lat="45.98047" lon="4.69792">
        <ele>206</ele>
        <time>2018-08-16T08:54:09Z</time>
      </trkpt>
      <trkpt lat="45.98052" lon="4.69783">
        <ele>206</ele>
        <time>2018-08-16T08:54:10Z</time>
      </trkpt>
      <trkpt lat="45.98054" lon="4.69777">
        <ele>206</ele>
        <time>2018-08-16T08:54:11Z</time>
      </trkpt>
      <trkpt lat="45.98058" lon="4.69771">
        <ele>205</ele>
        <time>2018-08-16T08:54:12Z</time>
      </trkpt>
      <trkpt lat="45.98063" lon="4.69763">
        <ele>205</ele>
        <time>2018-08-16T08:54:13Z</time>
      </trkpt>
      <trkpt lat="45.98068" lon="4.69756">
        <ele>204</ele>
        <time>2018-08-16T08:54:14Z</time>
      </trkpt>
      <trkpt lat="45.98074" lon="4.69748">
        <ele>203</ele>
        <time>2018-08-16T08:54:15Z</time>
      </trkpt>
      <trkpt lat="45.98083" lon="4.69735">
        <ele>203</ele>
        <time>2018-08-16T08:54:16Z</time>
      </trkpt>
      <trkpt lat="45.9809" lon="4.69722">
        <ele>201</ele>
        <time>2018-08-16T08:54:17Z</time>
      </trkpt>
      <trkpt lat="45.98095" lon="4.69713">
        <ele>201</ele>
        <time>2018-08-16T08:54:18Z</time>
      </trkpt>
      <trkpt lat="45.981" lon="4.69705">
        <ele>201</ele>
        <time>2018-08-16T08:54:19Z</time>
      </trkpt>
      <trkpt lat="45.98107" lon="4.69692">
        <ele>200</ele>
        <time>2018-08-16T08:54:20Z</time>
      </trkpt>
      <trkpt lat="45.98113" lon="4.69681">
        <ele>200</ele>
        <time>2018-08-16T08:54:21Z</time>
      </trkpt>
      <trkpt lat="45.98117" lon="4.69671">
        <ele>200</ele>
        <time>2018-08-16T08:54:22Z</time>
      </trkpt>
      <trkpt lat="45.98121" lon="4.69659">
        <ele>199</ele>
        <time>2018-08-16T08:54:23Z</time>
      </trkpt>
      <trkpt lat="45.98125" lon="4.69645">
        <ele>199</ele>
        <time>2018-08-16T08:54:24Z</time>
      </trkpt>
      <trkpt lat="45.98129" lon="4.69631">
        <ele>199</ele>
        <time>2018-08-16T08:54:25Z</time>
      </trkpt>
      <trkpt lat="45.98132" lon="4.69619">
        <ele>198</ele>
        <time>2018-08-16T08:54:26Z</time>
      </trkpt>
      <trkpt lat="45.98135" lon="4.69606">
        <ele>198</ele>
        <time>2018-08-16T08:54:27Z</time>
      </trkpt>
      <trkpt lat="45.98138" lon="4.69593">
        <ele>198</ele>
        <time>2018-08-16T08:54:28Z</time>
      </trkpt>
      <trkpt lat="45.98142" lon="4.69577">
        <ele>197</ele>
        <time>2018-08-16T08:54:29Z</time>
      </trkpt>
      <trkpt lat="45.98146" lon="4.69564">
        <ele>197</ele>
        <time>2018-08-16T08:54:30Z</time>
      </trkpt>
      <trkpt lat="45.98149" lon="4.69554">
        <ele>197</ele>
        <time>2018-08-16T08:54:31Z</time>
      </trkpt>
      <trkpt lat="45.98153" lon="4.69543">
        <ele>197</ele>
        <time>2018-08-16T08:54:32Z</time>
      </trkpt>
      <trkpt lat="45.98156" lon="4.69535">
        <ele>196</ele>
        <time>2018-08-16T08:54:33Z</time>
      </trkpt>
      <trkpt lat="45.98158" lon="4.69529">
        <ele>196</ele>
        <time>2018-08-16T08:54:34Z</time>
      </trkpt>
      <trkpt lat="45.98162" lon="4.69526">
        <ele>196</ele>
        <time>2018-08-16T08:54:37Z</time>
      </trkpt>
      <trkpt lat="45.98168" lon="4.69523">
        <ele>195</ele>
        <time>2018-08-16T08:54:38Z</time>
      </trkpt>
      <trkpt lat="45.98172" lon="4.6952">
        <ele>195</ele>
        <time>2018-08-16T08:54:39Z</time>
      </trkpt>
      <trkpt lat="45.98176" lon="4.69515">
        <ele>195</ele>
        <time>2018-08-16T08:54:40Z</time>
      </trkpt>
      <trkpt lat="45.98178" lon="4.6951">
        <ele>195</ele>
        <time>2018-08-16T08:54:41Z</time>
      </trkpt>
      <trkpt lat="45.98181" lon="4.695">
        <ele>195</ele>
        <time>2018-08-16T08:54:42Z</time>
      </trkpt>
      <trkpt lat="45.98182" lon="4.69494">
        <ele>194</ele>
        <time>2018-08-16T08:54:43Z</time>
      </trkpt>
      <trkpt lat="45.98182" lon="4.69485">
        <ele>194</ele>
        <time>2018-08-16T08:54:44Z</time>
      </trkpt>
      <trkpt lat="45.98179" lon="4.69474">
        <ele>194</ele>
        <time>2018-08-16T08:54:46Z</time>
      </trkpt>
      <trkpt lat="45.98178" lon="4.69467">
        <ele>194</ele>
        <time>2018-08-16T08:54:47Z</time>
      </trkpt>
      <trkpt lat="45.98178" lon="4.69461">
        <ele>194</ele>
        <time>2018-08-16T08:54:48Z</time>
      </trkpt>
      <trkpt lat="45.98179" lon="4.69452">
        <ele>194</ele>
        <time>2018-08-16T08:54:49Z</time>
      </trkpt>
      <trkpt lat="45.98181" lon="4.69445">
        <ele>194</ele>
        <time>2018-08-16T08:54:50Z</time>
      </trkpt>
      <trkpt lat="45.98183" lon="4.69439">
        <ele>194</ele>
        <time>2018-08-16T08:54:51Z</time>
      </trkpt>
      <trkpt lat="45.98184" lon="4.69432">
        <ele>194</ele>
        <time>2018-08-16T08:54:52Z</time>
      </trkpt>
      <trkpt lat="45.98187" lon="4.69424">
        <ele>194</ele>
        <time>2018-08-16T08:54:53Z</time>
      </trkpt>
      <trkpt lat="45.98188" lon="4.69417">
        <ele>194</ele>
        <time>2018-08-16T08:54:54Z</time>
      </trkpt>
      <trkpt lat="45.98187" lon="4.69409">
        <ele>194</ele>
        <time>2018-08-16T08:54:55Z</time>
      </trkpt>
      <trkpt lat="45.9819" lon="4.69401">
        <ele>194</ele>
        <time>2018-08-16T08:54:56Z</time>
      </trkpt>
      <trkpt lat="45.98192" lon="4.69394">
        <ele>194</ele>
        <time>2018-08-16T08:54:57Z</time>
      </trkpt>
      <trkpt lat="45.98194" lon="4.69386">
        <ele>194</ele>
        <time>2018-08-16T08:54:58Z</time>
      </trkpt>
      <trkpt lat="45.98196" lon="4.69378">
        <ele>194</ele>
        <time>2018-08-16T08:54:59Z</time>
      </trkpt>
      <trkpt lat="45.98198" lon="4.69372">
        <ele>193</ele>
        <time>2018-08-16T08:55:00Z</time>
      </trkpt>
      <trkpt lat="45.98199" lon="4.69365">
        <ele>193</ele>
        <time>2018-08-16T08:55:01Z</time>
      </trkpt>
      <trkpt lat="45.98201" lon="4.69354">
        <ele>193</ele>
        <time>2018-08-16T08:55:03Z</time>
      </trkpt>
      <trkpt lat="45.98203" lon="4.69348">
        <ele>193</ele>
        <time>2018-08-16T08:55:04Z</time>
      </trkpt>
      <trkpt lat="45.98208" lon="4.69339">
        <ele>193</ele>
        <time>2018-08-16T08:55:06Z</time>
      </trkpt>
      <trkpt lat="45.9821" lon="4.69336">
        <ele>194</ele>
        <time>2018-08-16T08:55:07Z</time>
      </trkpt>
      <trkpt lat="45.98211" lon="4.69324">
        <ele>194</ele>
        <time>2018-08-16T08:55:09Z</time>
      </trkpt>
      <trkpt lat="45.98211" lon="4.69323">
        <ele>194</ele>
        <time>2018-08-16T08:55:10Z</time>
      </trkpt>
      <trkpt lat="45.98212" lon="4.69314">
        <ele>194</ele>
        <time>2018-08-16T08:55:11Z</time>
      </trkpt>
      <trkpt lat="45.98213" lon="4.69307">
        <ele>194</ele>
        <time>2018-08-16T08:55:12Z</time>
      </trkpt>
      <trkpt lat="45.98217" lon="4.69297">
        <ele>194</ele>
        <time>2018-08-16T08:55:14Z</time>
      </trkpt>
      <trkpt lat="45.9822" lon="4.69289">
        <ele>194</ele>
        <time>2018-08-16T08:55:15Z</time>
      </trkpt>
      <trkpt lat="45.9822" lon="4.69276">
        <ele>194</ele>
        <time>2018-08-16T08:55:17Z</time>
      </trkpt>
      <trkpt lat="45.98221" lon="4.6927">
        <ele>194</ele>
        <time>2018-08-16T08:55:18Z</time>
      </trkpt>
      <trkpt lat="45.98223" lon="4.69259">
        <ele>194</ele>
        <time>2018-08-16T08:55:20Z</time>
      </trkpt>
      <trkpt lat="45.98224" lon="4.69254">
        <ele>194</ele>
        <time>2018-08-16T08:55:21Z</time>
      </trkpt>
      <trkpt lat="45.98225" lon="4.69244">
        <ele>195</ele>
        <time>2018-08-16T08:55:23Z</time>
      </trkpt>
      <trkpt lat="45.98226" lon="4.69236">
        <ele>196</ele>
        <time>2018-08-16T08:55:24Z</time>
      </trkpt>
      <trkpt lat="45.98227" lon="4.69224">
        <ele>196</ele>
        <time>2018-08-16T08:55:26Z</time>
      </trkpt>
      <trkpt lat="45.98228" lon="4.69219">
        <ele>196</ele>
        <time>2018-08-16T08:55:27Z</time>
      </trkpt>
      <trkpt lat="45.9823" lon="4.69207">
        <ele>196</ele>
        <time>2018-08-16T08:55:31Z</time>
      </trkpt>
      <trkpt lat="45.9823" lon="4.69203">
        <ele>196</ele>
        <time>2018-08-16T08:55:32Z</time>
      </trkpt>
      <trkpt lat="45.9823" lon="4.69199">
        <ele>196</ele>
        <time>2018-08-16T08:55:33Z</time>
      </trkpt>
      <trkpt lat="45.9823" lon="4.69188">
        <ele>197</ele>
        <time>2018-08-16T08:55:34Z</time>
      </trkpt>
      <trkpt lat="45.9823" lon="4.69176">
        <ele>197</ele>
        <time>2018-08-16T08:55:38Z</time>
      </trkpt>
      <trkpt lat="45.9823" lon="4.69172">
        <ele>197</ele>
        <time>2018-08-16T08:55:39Z</time>
      </trkpt>
      <trkpt lat="45.9823" lon="4.6916">
        <ele>199</ele>
        <time>2018-08-16T08:55:42Z</time>
      </trkpt>
      <trkpt lat="45.98229" lon="4.69156">
        <ele>199</ele>
        <time>2018-08-16T08:55:43Z</time>
      </trkpt>
      <trkpt lat="45.98228" lon="4.69147">
        <ele>199</ele>
        <time>2018-08-16T08:55:45Z</time>
      </trkpt>
      <trkpt lat="45.98228" lon="4.69142">
        <ele>199</ele>
        <time>2018-08-16T08:55:46Z</time>
      </trkpt>
      <trkpt lat="45.98226" lon="4.69132">
        <ele>199</ele>
        <time>2018-08-16T08:55:48Z</time>
      </trkpt>
      <trkpt lat="45.98225" lon="4.69128">
        <ele>199</ele>
        <time>2018-08-16T08:55:49Z</time>
      </trkpt>
      <trkpt lat="45.98224" lon="4.69123">
        <ele>199</ele>
        <time>2018-08-16T08:55:50Z</time>
      </trkpt>
      <trkpt lat="45.98221" lon="4.69112">
        <ele>200</ele>
        <time>2018-08-16T08:55:51Z</time>
      </trkpt>
      <trkpt lat="45.98217" lon="4.69101">
        <ele>200</ele>
        <time>2018-08-16T08:55:53Z</time>
      </trkpt>
      <trkpt lat="45.98216" lon="4.69099">
        <ele>200</ele>
        <time>2018-08-16T08:55:54Z</time>
      </trkpt>
      <trkpt lat="45.98212" lon="4.6909">
        <ele>200</ele>
        <time>2018-08-16T08:55:57Z</time>
      </trkpt>
      <trkpt lat="45.98211" lon="4.69087">
        <ele>200</ele>
        <time>2018-08-16T08:55:58Z</time>
      </trkpt>
      <trkpt lat="45.98208" lon="4.69079">
        <ele>201</ele>
        <time>2018-08-16T08:56:00Z</time>
      </trkpt>
      <trkpt lat="45.98207" lon="4.69075">
        <ele>201</ele>
        <time>2018-08-16T08:56:01Z</time>
      </trkpt>
      <trkpt lat="45.98202" lon="4.69063">
        <ele>201</ele>
        <time>2018-08-16T08:56:02Z</time>
      </trkpt>
      <trkpt lat="45.98199" lon="4.69054">
        <ele>201</ele>
        <time>2018-08-16T08:56:04Z</time>
      </trkpt>
      <trkpt lat="45.98197" lon="4.69049">
        <ele>201</ele>
        <time>2018-08-16T08:56:05Z</time>
      </trkpt>
      <trkpt lat="45.98194" lon="4.69039">
        <ele>201</ele>
        <time>2018-08-16T08:56:07Z</time>
      </trkpt>
      <trkpt lat="45.98192" lon="4.69034">
        <ele>201</ele>
        <time>2018-08-16T08:56:08Z</time>
      </trkpt>
      <trkpt lat="45.98189" lon="4.69025">
        <ele>201</ele>
        <time>2018-08-16T08:56:10Z</time>
      </trkpt>
      <trkpt lat="45.98188" lon="4.69019">
        <ele>201</ele>
        <time>2018-08-16T08:56:11Z</time>
      </trkpt>
      <trkpt lat="45.98186" lon="4.69007">
        <ele>201</ele>
        <time>2018-08-16T08:56:13Z</time>
      </trkpt>
      <trkpt lat="45.98186" lon="4.69">
        <ele>201</ele>
        <time>2018-08-16T08:56:14Z</time>
      </trkpt>
      <trkpt lat="45.98189" lon="4.68989">
        <ele>201</ele>
        <time>2018-08-16T08:56:16Z</time>
      </trkpt>
      <trkpt lat="45.98189" lon="4.68983">
        <ele>202</ele>
        <time>2018-08-16T08:56:17Z</time>
      </trkpt>
      <trkpt lat="45.98192" lon="4.68973">
        <ele>202</ele>
        <time>2018-08-16T08:56:19Z</time>
      </trkpt>
      <trkpt lat="45.98192" lon="4.68967">
        <ele>202</ele>
        <time>2018-08-16T08:56:20Z</time>
      </trkpt>
      <trkpt lat="45.98193" lon="4.68954">
        <ele>202</ele>
        <time>2018-08-16T08:56:22Z</time>
      </trkpt>
      <trkpt lat="45.98194" lon="4.68948">
        <ele>202</ele>
        <time>2018-08-16T08:56:23Z</time>
      </trkpt>
      <trkpt lat="45.98194" lon="4.68942">
        <ele>202</ele>
        <time>2018-08-16T08:56:24Z</time>
      </trkpt>
      <trkpt lat="45.98194" lon="4.68934">
        <ele>202</ele>
        <time>2018-08-16T08:56:25Z</time>
      </trkpt>
      <trkpt lat="45.98195" lon="4.68927">
        <ele>202</ele>
        <time>2018-08-16T08:56:26Z</time>
      </trkpt>
      <trkpt lat="45.98196" lon="4.68921">
        <ele>202</ele>
        <time>2018-08-16T08:56:27Z</time>
      </trkpt>
      <trkpt lat="45.98198" lon="4.68909">
        <ele>202</ele>
        <time>2018-08-16T08:56:29Z</time>
      </trkpt>
      <trkpt lat="45.98198" lon="4.68903">
        <ele>202</ele>
        <time>2018-08-16T08:56:30Z</time>
      </trkpt>
      <trkpt lat="45.98201" lon="4.68897">
        <ele>202</ele>
        <time>2018-08-16T08:56:31Z</time>
      </trkpt>
      <trkpt lat="45.98202" lon="4.68892">
        <ele>202</ele>
        <time>2018-08-16T08:56:32Z</time>
      </trkpt>
      <trkpt lat="45.98203" lon="4.6888">
        <ele>203</ele>
        <time>2018-08-16T08:56:34Z</time>
      </trkpt>
      <trkpt lat="45.98204" lon="4.68875">
        <ele>203</ele>
        <time>2018-08-16T08:56:35Z</time>
      </trkpt>
      <trkpt lat="45.98205" lon="4.68868">
        <ele>203</ele>
        <time>2018-08-16T08:56:36Z</time>
      </trkpt>
      <trkpt lat="45.98205" lon="4.68861">
        <ele>203</ele>
        <time>2018-08-16T08:56:37Z</time>
      </trkpt>
      <trkpt lat="45.98204" lon="4.68848">
        <ele>203</ele>
        <time>2018-08-16T08:56:39Z</time>
      </trkpt>
      <trkpt lat="45.98206" lon="4.68843">
        <ele>203</ele>
        <time>2018-08-16T08:56:40Z</time>
      </trkpt>
      <trkpt lat="45.98207" lon="4.68837">
        <ele>203</ele>
        <time>2018-08-16T08:56:41Z</time>
      </trkpt>
      <trkpt lat="45.98208" lon="4.68829">
        <ele>204</ele>
        <time>2018-08-16T08:56:42Z</time>
      </trkpt>
      <trkpt lat="45.98208" lon="4.68823">
        <ele>204</ele>
        <time>2018-08-16T08:56:43Z</time>
      </trkpt>
      <trkpt lat="45.98209" lon="4.68816">
        <ele>204</ele>
        <time>2018-08-16T08:56:44Z</time>
      </trkpt>
      <trkpt lat="45.9821" lon="4.68804">
        <ele>204</ele>
        <time>2018-08-16T08:56:46Z</time>
      </trkpt>
      <trkpt lat="45.9821" lon="4.68796">
        <ele>204</ele>
        <time>2018-08-16T08:56:47Z</time>
      </trkpt>
      <trkpt lat="45.98211" lon="4.6879">
        <ele>204</ele>
        <time>2018-08-16T08:56:48Z</time>
      </trkpt>
      <trkpt lat="45.98212" lon="4.68783">
        <ele>204</ele>
        <time>2018-08-16T08:56:49Z</time>
      </trkpt>
      <trkpt lat="45.98212" lon="4.68775">
        <ele>204</ele>
        <time>2018-08-16T08:56:50Z</time>
      </trkpt>
      <trkpt lat="45.98213" lon="4.68769">
        <ele>204</ele>
        <time>2018-08-16T08:56:51Z</time>
      </trkpt>
      <trkpt lat="45.98214" lon="4.68761">
        <ele>205</ele>
        <time>2018-08-16T08:56:52Z</time>
      </trkpt>
      <trkpt lat="45.98214" lon="4.68755">
        <ele>205</ele>
        <time>2018-08-16T08:56:53Z</time>
      </trkpt>
      <trkpt lat="45.98217" lon="4.68748">
        <ele>206</ele>
        <time>2018-08-16T08:56:54Z</time>
      </trkpt>
      <trkpt lat="45.98217" lon="4.68742">
        <ele>206</ele>
        <time>2018-08-16T08:56:55Z</time>
      </trkpt>
      <trkpt lat="45.98219" lon="4.6873">
        <ele>206</ele>
        <time>2018-08-16T08:56:57Z</time>
      </trkpt>
      <trkpt lat="45.9822" lon="4.68724">
        <ele>206</ele>
        <time>2018-08-16T08:56:58Z</time>
      </trkpt>
      <trkpt lat="45.98221" lon="4.68713">
        <ele>206</ele>
        <time>2018-08-16T08:57:00Z</time>
      </trkpt>
      <trkpt lat="45.98222" lon="4.68708">
        <ele>207</ele>
        <time>2018-08-16T08:57:01Z</time>
      </trkpt>
      <trkpt lat="45.98224" lon="4.68696">
        <ele>207</ele>
        <time>2018-08-16T08:57:03Z</time>
      </trkpt>
      <trkpt lat="45.98225" lon="4.6869">
        <ele>207</ele>
        <time>2018-08-16T08:57:04Z</time>
      </trkpt>
      <trkpt lat="45.98227" lon="4.68682">
        <ele>207</ele>
        <time>2018-08-16T08:57:07Z</time>
      </trkpt>
      <trkpt lat="45.98228" lon="4.68678">
        <ele>207</ele>
        <time>2018-08-16T08:57:08Z</time>
      </trkpt>
      <trkpt lat="45.9823" lon="4.68665">
        <ele>209</ele>
        <time>2018-08-16T08:57:11Z</time>
      </trkpt>
      <trkpt lat="45.9823" lon="4.68661">
        <ele>209</ele>
        <time>2018-08-16T08:57:12Z</time>
      </trkpt>
      <trkpt lat="45.98233" lon="4.68649">
        <ele>209</ele>
        <time>2018-08-16T08:57:15Z</time>
      </trkpt>
      <trkpt lat="45.98234" lon="4.68645">
        <ele>208</ele>
        <time>2018-08-16T08:57:16Z</time>
      </trkpt>
      <trkpt lat="45.98237" lon="4.68633">
        <ele>208</ele>
        <time>2018-08-16T08:57:19Z</time>
      </trkpt>
      <trkpt lat="45.98237" lon="4.68629">
        <ele>208</ele>
        <time>2018-08-16T08:57:20Z</time>
      </trkpt>
      <trkpt lat="45.98238" lon="4.68616">
        <ele>209</ele>
        <time>2018-08-16T08:57:23Z</time>
      </trkpt>
      <trkpt lat="45.98238" lon="4.68612">
        <ele>209</ele>
        <time>2018-08-16T08:57:24Z</time>
      </trkpt>
      <trkpt lat="45.98238" lon="4.68603">
        <ele>209</ele>
        <time>2018-08-16T08:57:26Z</time>
      </trkpt>
      <trkpt lat="45.98238" lon="4.68598">
        <ele>209</ele>
        <time>2018-08-16T08:57:27Z</time>
      </trkpt>
      <trkpt lat="45.98237" lon="4.68588">
        <ele>209</ele>
        <time>2018-08-16T08:57:29Z</time>
      </trkpt>
      <trkpt lat="45.98236" lon="4.68583">
        <ele>210</ele>
        <time>2018-08-16T08:57:30Z</time>
      </trkpt>
      <trkpt lat="45.98235" lon="4.68574">
        <ele>210</ele>
        <time>2018-08-16T08:57:32Z</time>
      </trkpt>
      <trkpt lat="45.98234" lon="4.68569">
        <ele>210</ele>
        <time>2018-08-16T08:57:33Z</time>
      </trkpt>
      <trkpt lat="45.98233" lon="4.68559">
        <ele>210</ele>
        <time>2018-08-16T08:57:35Z</time>
      </trkpt>
      <trkpt lat="45.98232" lon="4.68555">
        <ele>210</ele>
        <time>2018-08-16T08:57:36Z</time>
      </trkpt>
      <trkpt lat="45.98231" lon="4.68542">
        <ele>210</ele>
        <time>2018-08-16T08:57:39Z</time>
      </trkpt>
      <trkpt lat="45.9823" lon="4.68539">
        <ele>210</ele>
        <time>2018-08-16T08:57:40Z</time>
      </trkpt>
      <trkpt lat="45.98229" lon="4.68528">
        <ele>210</ele>
        <time>2018-08-16T08:57:43Z</time>
      </trkpt>
      <trkpt lat="45.98229" lon="4.68525">
        <ele>210</ele>
        <time>2018-08-16T08:57:44Z</time>
      </trkpt>
      <trkpt lat="45.9823" lon="4.68514">
        <ele>211</ele>
        <time>2018-08-16T08:57:47Z</time>
      </trkpt>
      <trkpt lat="45.9823" lon="4.6851">
        <ele>211</ele>
        <time>2018-08-16T08:57:48Z</time>
      </trkpt>
      <trkpt lat="45.9823" lon="4.68499">
        <ele>213</ele>
        <time>2018-08-16T08:57:51Z</time>
      </trkpt>
      <trkpt lat="45.9823" lon="4.68495">
        <ele>213</ele>
        <time>2018-08-16T08:57:52Z</time>
      </trkpt>
      <trkpt lat="45.9823" lon="4.68485">
        <ele>213</ele>
        <time>2018-08-16T08:57:55Z</time>
      </trkpt>
      <trkpt lat="45.9823" lon="4.68482">
        <ele>213</ele>
        <time>2018-08-16T08:57:56Z</time>
      </trkpt>
      <trkpt lat="45.98231" lon="4.68472">
        <ele>213</ele>
        <time>2018-08-16T08:57:59Z</time>
      </trkpt>
      <trkpt lat="45.98231" lon="4.68468">
        <ele>213</ele>
        <time>2018-08-16T08:58:00Z</time>
      </trkpt>
      <trkpt lat="45.98232" lon="4.68457">
        <ele>213</ele>
        <time>2018-08-16T08:58:03Z</time>
      </trkpt>
      <trkpt lat="45.98232" lon="4.68454">
        <ele>213</ele>
        <time>2018-08-16T08:58:04Z</time>
      </trkpt>
      <trkpt lat="45.98232" lon="4.68444">
        <ele>214</ele>
        <time>2018-08-16T08:58:07Z</time>
      </trkpt>
      <trkpt lat="45.98232" lon="4.68441">
        <ele>214</ele>
        <time>2018-08-16T08:58:08Z</time>
      </trkpt>
      <trkpt lat="45.98231" lon="4.68431">
        <ele>214</ele>
        <time>2018-08-16T08:58:11Z</time>
      </trkpt>
      <trkpt lat="45.9823" lon="4.68428">
        <ele>215</ele>
        <time>2018-08-16T08:58:12Z</time>
      </trkpt>
      <trkpt lat="45.9823" lon="4.68417">
        <ele>215</ele>
        <time>2018-08-16T08:58:15Z</time>
      </trkpt>
      <trkpt lat="45.9823" lon="4.68414">
        <ele>217</ele>
        <time>2018-08-16T08:58:16Z</time>
      </trkpt>
      <trkpt lat="45.98229" lon="4.68404">
        <ele>217</ele>
        <time>2018-08-16T08:58:19Z</time>
      </trkpt>
      <trkpt lat="45.9823" lon="4.684">
        <ele>217</ele>
        <time>2018-08-16T08:58:20Z</time>
      </trkpt>
      <trkpt lat="45.98232" lon="4.6839">
        <ele>217</ele>
        <time>2018-08-16T08:58:23Z</time>
      </trkpt>
      <trkpt lat="45.98233" lon="4.68387">
        <ele>217</ele>
        <time>2018-08-16T08:58:24Z</time>
      </trkpt>
      <trkpt lat="45.98235" lon="4.68377">
        <ele>217</ele>
        <time>2018-08-16T08:58:27Z</time>
      </trkpt>
      <trkpt lat="45.98235" lon="4.68373">
        <ele>217</ele>
        <time>2018-08-16T08:58:28Z</time>
      </trkpt>
      <trkpt lat="45.98236" lon="4.68363">
        <ele>218</ele>
        <time>2018-08-16T08:58:31Z</time>
      </trkpt>
      <trkpt lat="45.98236" lon="4.68359">
        <ele>218</ele>
        <time>2018-08-16T08:58:32Z</time>
      </trkpt>
      <trkpt lat="45.98237" lon="4.68349">
        <ele>218</ele>
        <time>2018-08-16T08:58:35Z</time>
      </trkpt>
      <trkpt lat="45.98237" lon="4.68346">
        <ele>218</ele>
        <time>2018-08-16T08:58:36Z</time>
      </trkpt>
      <trkpt lat="45.98236" lon="4.68335">
        <ele>219</ele>
        <time>2018-08-16T08:58:39Z</time>
      </trkpt>
      <trkpt lat="45.98236" lon="4.68331">
        <ele>221</ele>
        <time>2018-08-16T08:58:40Z</time>
      </trkpt>
      <trkpt lat="45.98235" lon="4.68321">
        <ele>221</ele>
        <time>2018-08-16T08:58:43Z</time>
      </trkpt>
      <trkpt lat="45.98235" lon="4.68317">
        <ele>221</ele>
        <time>2018-08-16T08:58:44Z</time>
      </trkpt>
      <trkpt lat="45.98234" lon="4.68306">
        <ele>221</ele>
        <time>2018-08-16T08:58:47Z</time>
      </trkpt>
      <trkpt lat="45.98234" lon="4.68302">
        <ele>221</ele>
        <time>2018-08-16T08:58:48Z</time>
      </trkpt>
      <trkpt lat="45.98233" lon="4.6829">
        <ele>222</ele>
        <time>2018-08-16T08:58:52Z</time>
      </trkpt>
      <trkpt lat="45.98233" lon="4.68287">
        <ele>222</ele>
        <time>2018-08-16T08:58:53Z</time>
      </trkpt>
      <trkpt lat="45.98232" lon="4.68276">
        <ele>222</ele>
        <time>2018-08-16T08:58:56Z</time>
      </trkpt>
      <trkpt lat="45.98231" lon="4.68273">
        <ele>223</ele>
        <time>2018-08-16T08:58:57Z</time>
      </trkpt>
      <trkpt lat="45.9823" lon="4.68261">
        <ele>223</ele>
        <time>2018-08-16T08:59:00Z</time>
      </trkpt>
      <trkpt lat="45.9823" lon="4.68257">
        <ele>223</ele>
        <time>2018-08-16T08:59:01Z</time>
      </trkpt>
      <trkpt lat="45.98229" lon="4.68247">
        <ele>225</ele>
        <time>2018-08-16T08:59:04Z</time>
      </trkpt>
      <trkpt lat="45.98228" lon="4.68233">
        <ele>226</ele>
        <time>2018-08-16T08:59:05Z</time>
      </trkpt>
      <trkpt lat="45.98228" lon="4.6822">
        <ele>226</ele>
        <time>2018-08-16T08:59:08Z</time>
      </trkpt>
      <trkpt lat="45.98228" lon="4.68212">
        <ele>226</ele>
        <time>2018-08-16T08:59:09Z</time>
      </trkpt>
      <trkpt lat="45.98227" lon="4.682">
        <ele>226</ele>
        <time>2018-08-16T08:59:13Z</time>
      </trkpt>
      <trkpt lat="45.98227" lon="4.68198">
        <ele>226</ele>
        <time>2018-08-16T08:59:14Z</time>
      </trkpt>
      <trkpt lat="45.98227" lon="4.68186">
        <ele>227</ele>
        <time>2018-08-16T08:59:18Z</time>
      </trkpt>
      <trkpt lat="45.98226" lon="4.68182">
        <ele>227</ele>
        <time>2018-08-16T08:59:19Z</time>
      </trkpt>
      <trkpt lat="45.98227" lon="4.6817">
        <ele>227</ele>
        <time>2018-08-16T08:59:22Z</time>
      </trkpt>
      <trkpt lat="45.98227" lon="4.68166">
        <ele>228</ele>
        <time>2018-08-16T08:59:23Z</time>
      </trkpt>
      <trkpt lat="45.98228" lon="4.68155">
        <ele>228</ele>
        <time>2018-08-16T08:59:26Z</time>
      </trkpt>
      <trkpt lat="45.98228" lon="4.68151">
        <ele>228</ele>
        <time>2018-08-16T08:59:27Z</time>
      </trkpt>
      <trkpt lat="45.98228" lon="4.68138">
        <ele>228</ele>
        <time>2018-08-16T08:59:30Z</time>
      </trkpt>
      <trkpt lat="45.98228" lon="4.68134">
        <ele>228</ele>
        <time>2018-08-16T08:59:31Z</time>
      </trkpt>
      <trkpt lat="45.98228" lon="4.68123">
        <ele>228</ele>
        <time>2018-08-16T08:59:33Z</time>
      </trkpt>
      <trkpt lat="45.98227" lon="4.68118">
        <ele>228</ele>
        <time>2018-08-16T08:59:34Z</time>
      </trkpt>
      <trkpt lat="45.98226" lon="4.68107">
        <ele>228</ele>
        <time>2018-08-16T08:59:36Z</time>
      </trkpt>
      <trkpt lat="45.98226" lon="4.68102">
        <ele>228</ele>
        <time>2018-08-16T08:59:37Z</time>
      </trkpt>
      <trkpt lat="45.98225" lon="4.68093">
        <ele>228</ele>
        <time>2018-08-16T08:59:39Z</time>
      </trkpt>
      <trkpt lat="45.98225" lon="4.68088">
        <ele>228</ele>
        <time>2018-08-16T08:59:40Z</time>
      </trkpt>
      <trkpt lat="45.98225" lon="4.68079">
        <ele>228</ele>
        <time>2018-08-16T08:59:42Z</time>
      </trkpt>
      <trkpt lat="45.98225" lon="4.68074">
        <ele>228</ele>
        <time>2018-08-16T08:59:43Z</time>
      </trkpt>
      <trkpt lat="45.98225" lon="4.68065">
        <ele>228</ele>
        <time>2018-08-16T08:59:45Z</time>
      </trkpt>
      <trkpt lat="45.98226" lon="4.6806">
        <ele>228</ele>
        <time>2018-08-16T08:59:46Z</time>
      </trkpt>
      <trkpt lat="45.98226" lon="4.68051">
        <ele>228</ele>
        <time>2018-08-16T08:59:48Z</time>
      </trkpt>
      <trkpt lat="45.98226" lon="4.68046">
        <ele>228</ele>
        <time>2018-08-16T08:59:49Z</time>
      </trkpt>
      <trkpt lat="45.98226" lon="4.68036">
        <ele>228</ele>
        <time>2018-08-16T08:59:51Z</time>
      </trkpt>
      <trkpt lat="45.98227" lon="4.6802">
        <ele>228</ele>
        <time>2018-08-16T08:59:52Z</time>
      </trkpt>
      <trkpt lat="45.98227" lon="4.6801">
        <ele>228</ele>
        <time>2018-08-16T08:59:55Z</time>
      </trkpt>
      <trkpt lat="45.98227" lon="4.68006">
        <ele>228</ele>
        <time>2018-08-16T08:59:56Z</time>
      </trkpt>
      <trkpt lat="45.98228" lon="4.67996">
        <ele>229</ele>
        <time>2018-08-16T08:59:59Z</time>
      </trkpt>
      <trkpt lat="45.98229" lon="4.67992">
        <ele>229</ele>
        <time>2018-08-16T09:00:00Z</time>
      </trkpt>
      <trkpt lat="45.98229" lon="4.67981">
        <ele>229</ele>
        <time>2018-08-16T09:00:03Z</time>
      </trkpt>
      <trkpt lat="45.98228" lon="4.67963">
        <ele>229</ele>
        <time>2018-08-16T09:00:04Z</time>
      </trkpt>
      <trkpt lat="45.98225" lon="4.67953">
        <ele>229</ele>
        <time>2018-08-16T09:00:07Z</time>
      </trkpt>
      <trkpt lat="45.98223" lon="4.67945">
        <ele>230</ele>
        <time>2018-08-16T09:00:08Z</time>
      </trkpt>
      <trkpt lat="45.9822" lon="4.67934">
        <ele>230</ele>
        <time>2018-08-16T09:00:12Z</time>
      </trkpt>
      <trkpt lat="45.9822" lon="4.6793">
        <ele>230</ele>
        <time>2018-08-16T09:00:13Z</time>
      </trkpt>
      <trkpt lat="45.98218" lon="4.6792">
        <ele>230</ele>
        <time>2018-08-16T09:00:16Z</time>
      </trkpt>
      <trkpt lat="45.98218" lon="4.67916">
        <ele>232</ele>
        <time>2018-08-16T09:00:17Z</time>
      </trkpt>
      <trkpt lat="45.98216" lon="4.67905">
        <ele>232</ele>
        <time>2018-08-16T09:00:20Z</time>
      </trkpt>
      <trkpt lat="45.98215" lon="4.67901">
        <ele>232</ele>
        <time>2018-08-16T09:00:21Z</time>
      </trkpt>
      <trkpt lat="45.98213" lon="4.67889">
        <ele>232</ele>
        <time>2018-08-16T09:00:24Z</time>
      </trkpt>
      <trkpt lat="45.98213" lon="4.67885">
        <ele>232</ele>
        <time>2018-08-16T09:00:25Z</time>
      </trkpt>
      <trkpt lat="45.98212" lon="4.67874">
        <ele>233</ele>
        <time>2018-08-16T09:00:28Z</time>
      </trkpt>
      <trkpt lat="45.98212" lon="4.67871">
        <ele>233</ele>
        <time>2018-08-16T09:00:29Z</time>
      </trkpt>
      <trkpt lat="45.98213" lon="4.67861">
        <ele>233</ele>
        <time>2018-08-16T09:00:32Z</time>
      </trkpt>
      <trkpt lat="45.98213" lon="4.67857">
        <ele>233</ele>
        <time>2018-08-16T09:00:33Z</time>
      </trkpt>
      <trkpt lat="45.98213" lon="4.67847">
        <ele>233</ele>
        <time>2018-08-16T09:00:36Z</time>
      </trkpt>
      <trkpt lat="45.98214" lon="4.67844">
        <ele>234</ele>
        <time>2018-08-16T09:00:37Z</time>
      </trkpt>
      <trkpt lat="45.98216" lon="4.67831">
        <ele>237</ele>
        <time>2018-08-16T09:00:41Z</time>
      </trkpt>
      <trkpt lat="45.98217" lon="4.67829">
        <ele>237</ele>
        <time>2018-08-16T09:00:42Z</time>
      </trkpt>
      <trkpt lat="45.98219" lon="4.67817">
        <ele>237</ele>
        <time>2018-08-16T09:00:46Z</time>
      </trkpt>
      <trkpt lat="45.9822" lon="4.67814">
        <ele>237</ele>
        <time>2018-08-16T09:00:47Z</time>
      </trkpt>
      <trkpt lat="45.98221" lon="4.67804">
        <ele>238</ele>
        <time>2018-08-16T09:00:50Z</time>
      </trkpt>
      <trkpt lat="45.98221" lon="4.67801">
        <ele>238</ele>
        <time>2018-08-16T09:00:51Z</time>
      </trkpt>
      <trkpt lat="45.98224" lon="4.67792">
        <ele>238</ele>
        <time>2018-08-16T09:00:54Z</time>
      </trkpt>
      <trkpt lat="45.98225" lon="4.67789">
        <ele>238</ele>
        <time>2018-08-16T09:00:55Z</time>
      </trkpt>
      <trkpt lat="45.98227" lon="4.6778">
        <ele>239</ele>
        <time>2018-08-16T09:00:58Z</time>
      </trkpt>
      <trkpt lat="45.98228" lon="4.67777">
        <ele>239</ele>
        <time>2018-08-16T09:00:59Z</time>
      </trkpt>
      <trkpt lat="45.98231" lon="4.67764">
        <ele>239</ele>
        <time>2018-08-16T09:01:03Z</time>
      </trkpt>
      <trkpt lat="45.98231" lon="4.67761">
        <ele>240</ele>
        <time>2018-08-16T09:01:04Z</time>
      </trkpt>
      <trkpt lat="45.98231" lon="4.67752">
        <ele>240</ele>
        <time>2018-08-16T09:01:07Z</time>
      </trkpt>
      <trkpt lat="45.98231" lon="4.67748">
        <ele>242</ele>
        <time>2018-08-16T09:01:08Z</time>
      </trkpt>
      <trkpt lat="45.98232" lon="4.67736">
        <ele>242</ele>
        <time>2018-08-16T09:01:12Z</time>
      </trkpt>
      <trkpt lat="45.98232" lon="4.67733">
        <ele>242</ele>
        <time>2018-08-16T09:01:13Z</time>
      </trkpt>
      <trkpt lat="45.98232" lon="4.67721">
        <ele>243</ele>
        <time>2018-08-16T09:01:17Z</time>
      </trkpt>
      <trkpt lat="45.98232" lon="4.67717">
        <ele>243</ele>
        <time>2018-08-16T09:01:18Z</time>
      </trkpt>
      <trkpt lat="45.98231" lon="4.67705">
        <ele>243</ele>
        <time>2018-08-16T09:01:22Z</time>
      </trkpt>
      <trkpt lat="45.98231" lon="4.67702">
        <ele>243</ele>
        <time>2018-08-16T09:01:23Z</time>
      </trkpt>
      <trkpt lat="45.9823" lon="4.67691">
        <ele>244</ele>
        <time>2018-08-16T09:01:27Z</time>
      </trkpt>
      <trkpt lat="45.9823" lon="4.67688">
        <ele>244</ele>
        <time>2018-08-16T09:01:28Z</time>
      </trkpt>
      <trkpt lat="45.98229" lon="4.67676">
        <ele>244</ele>
        <time>2018-08-16T09:01:32Z</time>
      </trkpt>
      <trkpt lat="45.98228" lon="4.67672">
        <ele>244</ele>
        <time>2018-08-16T09:01:33Z</time>
      </trkpt>
      <trkpt lat="45.98226" lon="4.67663">
        <ele>246</ele>
        <time>2018-08-16T09:01:36Z</time>
      </trkpt>
      <trkpt lat="45.98225" lon="4.67659">
        <ele>246</ele>
        <time>2018-08-16T09:01:37Z</time>
      </trkpt>
      <trkpt lat="45.98223" lon="4.67649">
        <ele>246</ele>
        <time>2018-08-16T09:01:40Z</time>
      </trkpt>
      <trkpt lat="45.98222" lon="4.67646">
        <ele>246</ele>
        <time>2018-08-16T09:01:41Z</time>
      </trkpt>
      <trkpt lat="45.9822" lon="4.67635">
        <ele>246</ele>
        <time>2018-08-16T09:01:44Z</time>
      </trkpt>
      <trkpt lat="45.9822" lon="4.67631">
        <ele>246</ele>
        <time>2018-08-16T09:01:45Z</time>
      </trkpt>
      <trkpt lat="45.98218" lon="4.6762">
        <ele>246</ele>
        <time>2018-08-16T09:01:48Z</time>
      </trkpt>
      <trkpt lat="45.98218" lon="4.67616">
        <ele>246</ele>
        <time>2018-08-16T09:01:49Z</time>
      </trkpt>
      <trkpt lat="45.98216" lon="4.67605">
        <ele>246</ele>
        <time>2018-08-16T09:01:52Z</time>
      </trkpt>
      <trkpt lat="45.98215" lon="4.67601">
        <ele>246</ele>
        <time>2018-08-16T09:01:53Z</time>
      </trkpt>
      <trkpt lat="45.98214" lon="4.67589">
        <ele>246</ele>
        <time>2018-08-16T09:01:56Z</time>
      </trkpt>
      <trkpt lat="45.98213" lon="4.67585">
        <ele>246</ele>
        <time>2018-08-16T09:01:57Z</time>
      </trkpt>
      <trkpt lat="45.98212" lon="4.67573">
        <ele>247</ele>
        <time>2018-08-16T09:02:00Z</time>
      </trkpt>
      <trkpt lat="45.98211" lon="4.67569">
        <ele>247</ele>
        <time>2018-08-16T09:02:01Z</time>
      </trkpt>
      <trkpt lat="45.98209" lon="4.67561">
        <ele>247</ele>
        <time>2018-08-16T09:02:03Z</time>
      </trkpt>
      <trkpt lat="45.98209" lon="4.67556">
        <ele>247</ele>
        <time>2018-08-16T09:02:04Z</time>
      </trkpt>
      <trkpt lat="45.98207" lon="4.67547">
        <ele>247</ele>
        <time>2018-08-16T09:02:06Z</time>
      </trkpt>
      <trkpt lat="45.98207" lon="4.67542">
        <ele>247</ele>
        <time>2018-08-16T09:02:07Z</time>
      </trkpt>
      <trkpt lat="45.98206" lon="4.67533">
        <ele>247</ele>
        <time>2018-08-16T09:02:09Z</time>
      </trkpt>
      <trkpt lat="45.98205" lon="4.67528">
        <ele>247</ele>
        <time>2018-08-16T09:02:10Z</time>
      </trkpt>
      <trkpt lat="45.98204" lon="4.67519">
        <ele>247</ele>
        <time>2018-08-16T09:02:12Z</time>
      </trkpt>
      <trkpt lat="45.98204" lon="4.67515">
        <ele>247</ele>
        <time>2018-08-16T09:02:13Z</time>
      </trkpt>
      <trkpt lat="45.98203" lon="4.67502">
        <ele>247</ele>
        <time>2018-08-16T09:02:16Z</time>
      </trkpt>
      <trkpt lat="45.98202" lon="4.67498">
        <ele>247</ele>
        <time>2018-08-16T09:02:17Z</time>
      </trkpt>
      <trkpt lat="45.98202" lon="4.67494">
        <ele>247</ele>
        <time>2018-08-16T09:02:18Z</time>
      </trkpt>
      <trkpt lat="45.98202" lon="4.67481">
        <ele>247</ele>
        <time>2018-08-16T09:02:19Z</time>
      </trkpt>
      <trkpt lat="45.98201" lon="4.6747">
        <ele>247</ele>
        <time>2018-08-16T09:02:21Z</time>
      </trkpt>
      <trkpt lat="45.98201" lon="4.67465">
        <ele>247</ele>
        <time>2018-08-16T09:02:22Z</time>
      </trkpt>
      <trkpt lat="45.982" lon="4.67453">
        <ele>247</ele>
        <time>2018-08-16T09:02:26Z</time>
      </trkpt>
      <trkpt lat="45.982" lon="4.6745">
        <ele>247</ele>
        <time>2018-08-16T09:02:27Z</time>
      </trkpt>
      <trkpt lat="45.982" lon="4.67439">
        <ele>247</ele>
        <time>2018-08-16T09:02:30Z</time>
      </trkpt>
      <trkpt lat="45.98201" lon="4.67435">
        <ele>247</ele>
        <time>2018-08-16T09:02:31Z</time>
      </trkpt>
      <trkpt lat="45.98201" lon="4.67423">
        <ele>247</ele>
        <time>2018-08-16T09:02:32Z</time>
      </trkpt>
      <trkpt lat="45.98201" lon="4.67417">
        <ele>247</ele>
        <time>2018-08-16T09:02:33Z</time>
      </trkpt>
      <trkpt lat="45.982" lon="4.67406">
        <ele>248</ele>
        <time>2018-08-16T09:02:35Z</time>
      </trkpt>
      <trkpt lat="45.982" lon="4.674">
        <ele>248</ele>
        <time>2018-08-16T09:02:36Z</time>
      </trkpt>
      <trkpt lat="45.982" lon="4.67388">
        <ele>248</ele>
        <time>2018-08-16T09:02:38Z</time>
      </trkpt>
      <trkpt lat="45.982" lon="4.67382">
        <ele>248</ele>
        <time>2018-08-16T09:02:39Z</time>
      </trkpt>
      <trkpt lat="45.982" lon="4.6737">
        <ele>248</ele>
        <time>2018-08-16T09:02:41Z</time>
      </trkpt>
      <trkpt lat="45.982" lon="4.67367">
        <ele>248</ele>
        <time>2018-08-16T09:02:42Z</time>
      </trkpt>
      <trkpt lat="45.98201" lon="4.67356">
        <ele>248</ele>
        <time>2018-08-16T09:02:45Z</time>
      </trkpt>
      <trkpt lat="45.98201" lon="4.67352">
        <ele>248</ele>
        <time>2018-08-16T09:02:46Z</time>
      </trkpt>
      <trkpt lat="45.98202" lon="4.67339">
        <ele>248</ele>
        <time>2018-08-16T09:02:49Z</time>
      </trkpt>
      <trkpt lat="45.98202" lon="4.67336">
        <ele>248</ele>
        <time>2018-08-16T09:02:50Z</time>
      </trkpt>
      <trkpt lat="45.98203" lon="4.67324">
        <ele>249</ele>
        <time>2018-08-16T09:02:53Z</time>
      </trkpt>
      <trkpt lat="45.98203" lon="4.6732">
        <ele>249</ele>
        <time>2018-08-16T09:02:54Z</time>
      </trkpt>
      <trkpt lat="45.98202" lon="4.67311">
        <ele>249</ele>
        <time>2018-08-16T09:02:56Z</time>
      </trkpt>
      <trkpt lat="45.98202" lon="4.67306">
        <ele>249</ele>
        <time>2018-08-16T09:02:57Z</time>
      </trkpt>
      <trkpt lat="45.98201" lon="4.67292">
        <ele>249</ele>
        <time>2018-08-16T09:02:58Z</time>
      </trkpt>
      <trkpt lat="45.98202" lon="4.67281">
        <ele>249</ele>
        <time>2018-08-16T09:03:00Z</time>
      </trkpt>
      <trkpt lat="45.98201" lon="4.67275">
        <ele>249</ele>
        <time>2018-08-16T09:03:01Z</time>
      </trkpt>
      <trkpt lat="45.982" lon="4.67264">
        <ele>249</ele>
        <time>2018-08-16T09:03:03Z</time>
      </trkpt>
      <trkpt lat="45.982" lon="4.67259">
        <ele>250</ele>
        <time>2018-08-16T09:03:04Z</time>
      </trkpt>
      <trkpt lat="45.98198" lon="4.67247">
        <ele>250</ele>
        <time>2018-08-16T09:03:07Z</time>
      </trkpt>
      <trkpt lat="45.98197" lon="4.67238">
        <ele>250</ele>
        <time>2018-08-16T09:03:08Z</time>
      </trkpt>
      <trkpt lat="45.98195" lon="4.67227">
        <ele>250</ele>
        <time>2018-08-16T09:03:10Z</time>
      </trkpt>
      <trkpt lat="45.98192" lon="4.67221">
        <ele>250</ele>
        <time>2018-08-16T09:03:11Z</time>
      </trkpt>
      <trkpt lat="45.9819" lon="4.6721">
        <ele>250</ele>
        <time>2018-08-16T09:03:13Z</time>
      </trkpt>
      <trkpt lat="45.98188" lon="4.67205">
        <ele>250</ele>
        <time>2018-08-16T09:03:14Z</time>
      </trkpt>
      <trkpt lat="45.98185" lon="4.67193">
        <ele>250</ele>
        <time>2018-08-16T09:03:16Z</time>
      </trkpt>
      <trkpt lat="45.98184" lon="4.67188">
        <ele>250</ele>
        <time>2018-08-16T09:03:17Z</time>
      </trkpt>
      <trkpt lat="45.98181" lon="4.67179">
        <ele>250</ele>
        <time>2018-08-16T09:03:20Z</time>
      </trkpt>
      <trkpt lat="45.9818" lon="4.67175">
        <ele>250</ele>
        <time>2018-08-16T09:03:21Z</time>
      </trkpt>
      <trkpt lat="45.98177" lon="4.67163">
        <ele>250</ele>
        <time>2018-08-16T09:03:22Z</time>
      </trkpt>
      <trkpt lat="45.98176" lon="4.67157">
        <ele>250</ele>
        <time>2018-08-16T09:03:23Z</time>
      </trkpt>
      <trkpt lat="45.98174" lon="4.67151">
        <ele>250</ele>
        <time>2018-08-16T09:03:24Z</time>
      </trkpt>
      <trkpt lat="45.98172" lon="4.67144">
        <ele>249</ele>
        <time>2018-08-16T09:03:25Z</time>
      </trkpt>
      <trkpt lat="45.98169" lon="4.67132">
        <ele>249</ele>
        <time>2018-08-16T09:03:27Z</time>
      </trkpt>
      <trkpt lat="45.98167" lon="4.67127">
        <ele>249</ele>
        <time>2018-08-16T09:03:28Z</time>
      </trkpt>
      <trkpt lat="45.98165" lon="4.6712">
        <ele>251</ele>
        <time>2018-08-16T09:03:29Z</time>
      </trkpt>
      <trkpt lat="45.98163" lon="4.67115">
        <ele>251</ele>
        <time>2018-08-16T09:03:30Z</time>
      </trkpt>
      <trkpt lat="45.9816" lon="4.67104">
        <ele>251</ele>
        <time>2018-08-16T09:03:32Z</time>
      </trkpt>
      <trkpt lat="45.98158" lon="4.67099">
        <ele>251</ele>
        <time>2018-08-16T09:03:33Z</time>
      </trkpt>
      <trkpt lat="45.98155" lon="4.67087">
        <ele>251</ele>
        <time>2018-08-16T09:03:35Z</time>
      </trkpt>
      <trkpt lat="45.98153" lon="4.67082">
        <ele>251</ele>
        <time>2018-08-16T09:03:36Z</time>
      </trkpt>
      <trkpt lat="45.9815" lon="4.67071">
        <ele>251</ele>
        <time>2018-08-16T09:03:38Z</time>
      </trkpt>
      <trkpt lat="45.98149" lon="4.67066">
        <ele>251</ele>
        <time>2018-08-16T09:03:39Z</time>
      </trkpt>
      <trkpt lat="45.98146" lon="4.67056">
        <ele>251</ele>
        <time>2018-08-16T09:03:41Z</time>
      </trkpt>
      <trkpt lat="45.98145" lon="4.6705">
        <ele>251</ele>
        <time>2018-08-16T09:03:42Z</time>
      </trkpt>
      <trkpt lat="45.98144" lon="4.67043">
        <ele>251</ele>
        <time>2018-08-16T09:03:43Z</time>
      </trkpt>
      <trkpt lat="45.98144" lon="4.67037">
        <ele>251</ele>
        <time>2018-08-16T09:03:44Z</time>
      </trkpt>
      <trkpt lat="45.98143" lon="4.67025">
        <ele>251</ele>
        <time>2018-08-16T09:03:46Z</time>
      </trkpt>
      <trkpt lat="45.98142" lon="4.67019">
        <ele>251</ele>
        <time>2018-08-16T09:03:47Z</time>
      </trkpt>
      <trkpt lat="45.98143" lon="4.67007">
        <ele>251</ele>
        <time>2018-08-16T09:03:49Z</time>
      </trkpt>
      <trkpt lat="45.98142" lon="4.67001">
        <ele>251</ele>
        <time>2018-08-16T09:03:50Z</time>
      </trkpt>
      <trkpt lat="45.98142" lon="4.6699">
        <ele>253</ele>
        <time>2018-08-16T09:03:54Z</time>
      </trkpt>
      <trkpt lat="45.98142" lon="4.66986">
        <ele>253</ele>
        <time>2018-08-16T09:03:55Z</time>
      </trkpt>
      <trkpt lat="45.98143" lon="4.66978">
        <ele>253</ele>
        <time>2018-08-16T09:03:57Z</time>
      </trkpt>
      <trkpt lat="45.98143" lon="4.66964">
        <ele>253</ele>
        <time>2018-08-16T09:03:58Z</time>
      </trkpt>
      <trkpt lat="45.98143" lon="4.66953">
        <ele>253</ele>
        <time>2018-08-16T09:04:00Z</time>
      </trkpt>
      <trkpt lat="45.98142" lon="4.66948">
        <ele>253</ele>
        <time>2018-08-16T09:04:01Z</time>
      </trkpt>
      <trkpt lat="45.98142" lon="4.66937">
        <ele>253</ele>
        <time>2018-08-16T09:04:03Z</time>
      </trkpt>
      <trkpt lat="45.98141" lon="4.66931">
        <ele>253</ele>
        <time>2018-08-16T09:04:04Z</time>
      </trkpt>
      <trkpt lat="45.9814" lon="4.6692">
        <ele>253</ele>
        <time>2018-08-16T09:04:06Z</time>
      </trkpt>
      <trkpt lat="45.9814" lon="4.66915">
        <ele>254</ele>
        <time>2018-08-16T09:04:07Z</time>
      </trkpt>
      <trkpt lat="45.9814" lon="4.66905">
        <ele>254</ele>
        <time>2018-08-16T09:04:10Z</time>
      </trkpt>
      <trkpt lat="45.98139" lon="4.66902">
        <ele>254</ele>
        <time>2018-08-16T09:04:11Z</time>
      </trkpt>
      <trkpt lat="45.98138" lon="4.6689">
        <ele>254</ele>
        <time>2018-08-16T09:04:12Z</time>
      </trkpt>
      <trkpt lat="45.98138" lon="4.66887">
        <ele>254</ele>
        <time>2018-08-16T09:04:13Z</time>
      </trkpt>
      <trkpt lat="45.98137" lon="4.66883">
        <ele>254</ele>
        <time>2018-08-16T09:04:14Z</time>
      </trkpt>
      <trkpt lat="45.98135" lon="4.66873">
        <ele>254</ele>
        <time>2018-08-16T09:04:15Z</time>
      </trkpt>
      <trkpt lat="45.98134" lon="4.66867">
        <ele>254</ele>
        <time>2018-08-16T09:04:16Z</time>
      </trkpt>
      <trkpt lat="45.98135" lon="4.6686">
        <ele>254</ele>
        <time>2018-08-16T09:04:17Z</time>
      </trkpt>
      <trkpt lat="45.98133" lon="4.66849">
        <ele>254</ele>
        <time>2018-08-16T09:04:20Z</time>
      </trkpt>
      <trkpt lat="45.98132" lon="4.66846">
        <ele>254</ele>
        <time>2018-08-16T09:04:21Z</time>
      </trkpt>
      <trkpt lat="45.9813" lon="4.66839">
        <ele>254</ele>
        <time>2018-08-16T09:04:23Z</time>
      </trkpt>
      <trkpt lat="45.98127" lon="4.66827">
        <ele>254</ele>
        <time>2018-08-16T09:04:24Z</time>
      </trkpt>
      <trkpt lat="45.98127" lon="4.66817">
        <ele>254</ele>
        <time>2018-08-16T09:04:26Z</time>
      </trkpt>
      <trkpt lat="45.98126" lon="4.66812">
        <ele>254</ele>
        <time>2018-08-16T09:04:27Z</time>
      </trkpt>
      <trkpt lat="45.98122" lon="4.66801">
        <ele>255</ele>
        <time>2018-08-16T09:04:29Z</time>
      </trkpt>
      <trkpt lat="45.9812" lon="4.66795">
        <ele>255</ele>
        <time>2018-08-16T09:04:30Z</time>
      </trkpt>
      <trkpt lat="45.98117" lon="4.66783">
        <ele>255</ele>
        <time>2018-08-16T09:04:32Z</time>
      </trkpt>
      <trkpt lat="45.98117" lon="4.66777">
        <ele>255</ele>
        <time>2018-08-16T09:04:33Z</time>
      </trkpt>
      <trkpt lat="45.98115" lon="4.66767">
        <ele>255</ele>
        <time>2018-08-16T09:04:35Z</time>
      </trkpt>
      <trkpt lat="45.98114" lon="4.66762">
        <ele>255</ele>
        <time>2018-08-16T09:04:36Z</time>
      </trkpt>
      <trkpt lat="45.98111" lon="4.6675">
        <ele>255</ele>
        <time>2018-08-16T09:04:38Z</time>
      </trkpt>
      <trkpt lat="45.9811" lon="4.66745">
        <ele>257</ele>
        <time>2018-08-16T09:04:39Z</time>
      </trkpt>
      <trkpt lat="45.98107" lon="4.66735">
        <ele>257</ele>
        <time>2018-08-16T09:04:41Z</time>
      </trkpt>
      <trkpt lat="45.98106" lon="4.66729">
        <ele>257</ele>
        <time>2018-08-16T09:04:42Z</time>
      </trkpt>
      <trkpt lat="45.98105" lon="4.66718">
        <ele>257</ele>
        <time>2018-08-16T09:04:44Z</time>
      </trkpt>
      <trkpt lat="45.98104" lon="4.66713">
        <ele>257</ele>
        <time>2018-08-16T09:04:45Z</time>
      </trkpt>
      <trkpt lat="45.98103" lon="4.66702">
        <ele>257</ele>
        <time>2018-08-16T09:04:47Z</time>
      </trkpt>
      <trkpt lat="45.98102" lon="4.66697">
        <ele>257</ele>
        <time>2018-08-16T09:04:48Z</time>
      </trkpt>
      <trkpt lat="45.98101" lon="4.66688">
        <ele>258</ele>
        <time>2018-08-16T09:04:51Z</time>
      </trkpt>
      <trkpt lat="45.981" lon="4.66685">
        <ele>258</ele>
        <time>2018-08-16T09:04:52Z</time>
      </trkpt>
      <trkpt lat="45.98099" lon="4.66674">
        <ele>258</ele>
        <time>2018-08-16T09:04:53Z</time>
      </trkpt>
      <trkpt lat="45.98098" lon="4.66671">
        <ele>258</ele>
        <time>2018-08-16T09:04:54Z</time>
      </trkpt>
      <trkpt lat="45.98096" lon="4.66662">
        <ele>259</ele>
        <time>2018-08-16T09:04:57Z</time>
      </trkpt>
      <trkpt lat="45.98096" lon="4.66658">
        <ele>259</ele>
        <time>2018-08-16T09:04:58Z</time>
      </trkpt>
      <trkpt lat="45.98095" lon="4.66654">
        <ele>259</ele>
        <time>2018-08-16T09:04:59Z</time>
      </trkpt>
      <trkpt lat="45.98093" lon="4.66642">
        <ele>259</ele>
        <time>2018-08-16T09:05:00Z</time>
      </trkpt>
      <trkpt lat="45.98091" lon="4.66633">
        <ele>259</ele>
        <time>2018-08-16T09:05:03Z</time>
      </trkpt>
      <trkpt lat="45.98091" lon="4.66629">
        <ele>259</ele>
        <time>2018-08-16T09:05:04Z</time>
      </trkpt>
      <trkpt lat="45.98088" lon="4.66617">
        <ele>260</ele>
        <time>2018-08-16T09:05:07Z</time>
      </trkpt>
      <trkpt lat="45.98087" lon="4.66613">
        <ele>260</ele>
        <time>2018-08-16T09:05:08Z</time>
      </trkpt>
      <trkpt lat="45.98085" lon="4.66601">
        <ele>260</ele>
        <time>2018-08-16T09:05:11Z</time>
      </trkpt>
      <trkpt lat="45.98084" lon="4.66597">
        <ele>261</ele>
        <time>2018-08-16T09:05:12Z</time>
      </trkpt>
      <trkpt lat="45.98083" lon="4.66588">
        <ele>262</ele>
        <time>2018-08-16T09:05:14Z</time>
      </trkpt>
      <trkpt lat="45.98082" lon="4.66584">
        <ele>262</ele>
        <time>2018-08-16T09:05:15Z</time>
      </trkpt>
      <trkpt lat="45.9808" lon="4.66575">
        <ele>263</ele>
        <time>2018-08-16T09:05:17Z</time>
      </trkpt>
      <trkpt lat="45.98079" lon="4.66571">
        <ele>263</ele>
        <time>2018-08-16T09:05:18Z</time>
      </trkpt>
      <trkpt lat="45.98078" lon="4.66558">
        <ele>263</ele>
        <time>2018-08-16T09:05:21Z</time>
      </trkpt>
      <trkpt lat="45.98077" lon="4.66554">
        <ele>264</ele>
        <time>2018-08-16T09:05:22Z</time>
      </trkpt>
      <trkpt lat="45.98077" lon="4.66545">
        <ele>264</ele>
        <time>2018-08-16T09:05:24Z</time>
      </trkpt>
      <trkpt lat="45.98077" lon="4.66541">
        <ele>264</ele>
        <time>2018-08-16T09:05:25Z</time>
      </trkpt>
      <trkpt lat="45.98077" lon="4.66532">
        <ele>264</ele>
        <time>2018-08-16T09:05:27Z</time>
      </trkpt>
      <trkpt lat="45.98077" lon="4.66528">
        <ele>264</ele>
        <time>2018-08-16T09:05:28Z</time>
      </trkpt>
      <trkpt lat="45.98076" lon="4.66519">
        <ele>265</ele>
        <time>2018-08-16T09:05:30Z</time>
      </trkpt>
      <trkpt lat="45.98076" lon="4.66514">
        <ele>265</ele>
        <time>2018-08-16T09:05:31Z</time>
      </trkpt>
      <trkpt lat="45.98076" lon="4.66505">
        <ele>265</ele>
        <time>2018-08-16T09:05:33Z</time>
      </trkpt>
      <trkpt lat="45.98076" lon="4.66501">
        <ele>265</ele>
        <time>2018-08-16T09:05:34Z</time>
      </trkpt>
      <trkpt lat="45.98075" lon="4.66492">
        <ele>265</ele>
        <time>2018-08-16T09:05:36Z</time>
      </trkpt>
      <trkpt lat="45.98075" lon="4.66487">
        <ele>265</ele>
        <time>2018-08-16T09:05:37Z</time>
      </trkpt>
      <trkpt lat="45.98074" lon="4.66478">
        <ele>266</ele>
        <time>2018-08-16T09:05:39Z</time>
      </trkpt>
      <trkpt lat="45.98073" lon="4.66473">
        <ele>266</ele>
        <time>2018-08-16T09:05:40Z</time>
      </trkpt>
      <trkpt lat="45.98073" lon="4.66468">
        <ele>266</ele>
        <time>2018-08-16T09:05:41Z</time>
      </trkpt>
      <trkpt lat="45.98071" lon="4.66453">
        <ele>266</ele>
        <time>2018-08-16T09:05:42Z</time>
      </trkpt>
      <trkpt lat="45.98069" lon="4.66442">
        <ele>266</ele>
        <time>2018-08-16T09:05:44Z</time>
      </trkpt>
      <trkpt lat="45.98068" lon="4.66437">
        <ele>266</ele>
        <time>2018-08-16T09:05:45Z</time>
      </trkpt>
      <trkpt lat="45.98066" lon="4.66426">
        <ele>266</ele>
        <time>2018-08-16T09:05:47Z</time>
      </trkpt>
      <trkpt lat="45.98065" lon="4.6642">
        <ele>266</ele>
        <time>2018-08-16T09:05:48Z</time>
      </trkpt>
      <trkpt lat="45.98063" lon="4.66412">
        <ele>266</ele>
        <time>2018-08-16T09:05:50Z</time>
      </trkpt>
      <trkpt lat="45.98061" lon="4.66405">
        <ele>266</ele>
        <time>2018-08-16T09:05:51Z</time>
      </trkpt>
      <trkpt lat="45.98058" lon="4.66395">
        <ele>267</ele>
        <time>2018-08-16T09:05:53Z</time>
      </trkpt>
      <trkpt lat="45.98057" lon="4.66391">
        <ele>267</ele>
        <time>2018-08-16T09:05:54Z</time>
      </trkpt>
      <trkpt lat="45.98054" lon="4.66381">
        <ele>267</ele>
        <time>2018-08-16T09:05:56Z</time>
      </trkpt>
      <trkpt lat="45.98053" lon="4.66376">
        <ele>267</ele>
        <time>2018-08-16T09:05:57Z</time>
      </trkpt>
      <trkpt lat="45.9805" lon="4.66367">
        <ele>267</ele>
        <time>2018-08-16T09:05:59Z</time>
      </trkpt>
      <trkpt lat="45.98049" lon="4.66364">
        <ele>267</ele>
        <time>2018-08-16T09:06:00Z</time>
      </trkpt>
      <trkpt lat="45.98045" lon="4.66354">
        <ele>267</ele>
        <time>2018-08-16T09:06:03Z</time>
      </trkpt>
      <trkpt lat="45.98044" lon="4.6635">
        <ele>267</ele>
        <time>2018-08-16T09:06:04Z</time>
      </trkpt>
      <trkpt lat="45.98041" lon="4.66343">
        <ele>267</ele>
        <time>2018-08-16T09:06:06Z</time>
      </trkpt>
      <trkpt lat="45.98039" lon="4.66339">
        <ele>267</ele>
        <time>2018-08-16T09:06:07Z</time>
      </trkpt>
      <trkpt lat="45.98035" lon="4.66332">
        <ele>268</ele>
        <time>2018-08-16T09:06:09Z</time>
      </trkpt>
      <trkpt lat="45.98033" lon="4.66328">
        <ele>268</ele>
        <time>2018-08-16T09:06:10Z</time>
      </trkpt>
      <trkpt lat="45.98029" lon="4.66321">
        <ele>268</ele>
        <time>2018-08-16T09:06:12Z</time>
      </trkpt>
      <trkpt lat="45.98026" lon="4.66318">
        <ele>268</ele>
        <time>2018-08-16T09:06:13Z</time>
      </trkpt>
      <trkpt lat="45.98022" lon="4.66311">
        <ele>268</ele>
        <time>2018-08-16T09:06:15Z</time>
      </trkpt>
      <trkpt lat="45.9802" lon="4.66308">
        <ele>268</ele>
        <time>2018-08-16T09:06:16Z</time>
      </trkpt>
      <trkpt lat="45.98016" lon="4.66302">
        <ele>268</ele>
        <time>2018-08-16T09:06:18Z</time>
      </trkpt>
      <trkpt lat="45.98013" lon="4.66299">
        <ele>268</ele>
        <time>2018-08-16T09:06:19Z</time>
      </trkpt>
      <trkpt lat="45.98008" lon="4.66294">
        <ele>268</ele>
        <time>2018-08-16T09:06:21Z</time>
      </trkpt>
      <trkpt lat="45.97999" lon="4.66285">
        <ele>270</ele>
        <time>2018-08-16T09:06:22Z</time>
      </trkpt>
      <trkpt lat="45.97993" lon="4.6628">
        <ele>270</ele>
        <time>2018-08-16T09:06:24Z</time>
      </trkpt>
      <trkpt lat="45.9799" lon="4.66277">
        <ele>270</ele>
        <time>2018-08-16T09:06:25Z</time>
      </trkpt>
      <trkpt lat="45.97982" lon="4.6627">
        <ele>270</ele>
        <time>2018-08-16T09:06:27Z</time>
      </trkpt>
      <trkpt lat="45.9798" lon="4.66268">
        <ele>270</ele>
        <time>2018-08-16T09:06:28Z</time>
      </trkpt>
      <trkpt lat="45.97973" lon="4.66263">
        <ele>270</ele>
        <time>2018-08-16T09:06:31Z</time>
      </trkpt>
      <trkpt lat="45.97971" lon="4.6626">
        <ele>270</ele>
        <time>2018-08-16T09:06:32Z</time>
      </trkpt>
      <trkpt lat="45.97964" lon="4.66252">
        <ele>270</ele>
        <time>2018-08-16T09:06:33Z</time>
      </trkpt>
      <trkpt lat="45.97959" lon="4.66244">
        <ele>270</ele>
        <time>2018-08-16T09:06:35Z</time>
      </trkpt>
      <trkpt lat="45.97957" lon="4.66239">
        <ele>270</ele>
        <time>2018-08-16T09:06:36Z</time>
      </trkpt>
      <trkpt lat="45.97953" lon="4.66229">
        <ele>270</ele>
        <time>2018-08-16T09:06:38Z</time>
      </trkpt>
      <trkpt lat="45.97953" lon="4.66222">
        <ele>270</ele>
        <time>2018-08-16T09:06:39Z</time>
      </trkpt>
      <trkpt lat="45.97951" lon="4.66211">
        <ele>270</ele>
        <time>2018-08-16T09:06:41Z</time>
      </trkpt>
      <trkpt lat="45.97951" lon="4.66206">
        <ele>270</ele>
        <time>2018-08-16T09:06:42Z</time>
      </trkpt>
      <trkpt lat="45.97949" lon="4.66196">
        <ele>270</ele>
        <time>2018-08-16T09:06:44Z</time>
      </trkpt>
      <trkpt lat="45.97946" lon="4.6619">
        <ele>270</ele>
        <time>2018-08-16T09:06:45Z</time>
      </trkpt>
      <trkpt lat="45.97943" lon="4.6618">
        <ele>270</ele>
        <time>2018-08-16T09:06:47Z</time>
      </trkpt>
      <trkpt lat="45.97942" lon="4.66174">
        <ele>270</ele>
        <time>2018-08-16T09:06:48Z</time>
      </trkpt>
      <trkpt lat="45.97941" lon="4.66168">
        <ele>270</ele>
        <time>2018-08-16T09:06:49Z</time>
      </trkpt>
      <trkpt lat="45.9794" lon="4.66161">
        <ele>269</ele>
        <time>2018-08-16T09:06:50Z</time>
      </trkpt>
      <trkpt lat="45.97939" lon="4.66149">
        <ele>269</ele>
        <time>2018-08-16T09:06:52Z</time>
      </trkpt>
      <trkpt lat="45.97937" lon="4.66144">
        <ele>269</ele>
        <time>2018-08-16T09:06:53Z</time>
      </trkpt>
      <trkpt lat="45.97935" lon="4.66133">
        <ele>269</ele>
        <time>2018-08-16T09:06:56Z</time>
      </trkpt>
      <trkpt lat="45.97935" lon="4.66129">
        <ele>269</ele>
        <time>2018-08-16T09:06:57Z</time>
      </trkpt>
      <trkpt lat="45.97934" lon="4.66125">
        <ele>269</ele>
        <time>2018-08-16T09:06:58Z</time>
      </trkpt>
      <trkpt lat="45.97932" lon="4.66113">
        <ele>269</ele>
        <time>2018-08-16T09:06:59Z</time>
      </trkpt>
      <trkpt lat="45.97931" lon="4.66103">
        <ele>270</ele>
        <time>2018-08-16T09:07:01Z</time>
      </trkpt>
      <trkpt lat="45.9793" lon="4.66097">
        <ele>270</ele>
        <time>2018-08-16T09:07:02Z</time>
      </trkpt>
      <trkpt lat="45.97928" lon="4.66086">
        <ele>270</ele>
        <time>2018-08-16T09:07:04Z</time>
      </trkpt>
      <trkpt lat="45.97927" lon="4.6608">
        <ele>270</ele>
        <time>2018-08-16T09:07:05Z</time>
      </trkpt>
      <trkpt lat="45.97927" lon="4.66071">
        <ele>270</ele>
        <time>2018-08-16T09:07:07Z</time>
      </trkpt>
      <trkpt lat="45.97927" lon="4.66063">
        <ele>270</ele>
        <time>2018-08-16T09:07:08Z</time>
      </trkpt>
      <trkpt lat="45.97927" lon="4.66052">
        <ele>270</ele>
        <time>2018-08-16T09:07:10Z</time>
      </trkpt>
      <trkpt lat="45.97927" lon="4.66046">
        <ele>270</ele>
        <time>2018-08-16T09:07:11Z</time>
      </trkpt>
      <trkpt lat="45.97927" lon="4.66035">
        <ele>270</ele>
        <time>2018-08-16T09:07:13Z</time>
      </trkpt>
      <trkpt lat="45.97927" lon="4.66032">
        <ele>270</ele>
        <time>2018-08-16T09:07:14Z</time>
      </trkpt>
      <trkpt lat="45.97927" lon="4.66022">
        <ele>270</ele>
        <time>2018-08-16T09:07:17Z</time>
      </trkpt>
      <trkpt lat="45.97928" lon="4.66018">
        <ele>270</ele>
        <time>2018-08-16T09:07:18Z</time>
      </trkpt>
      <trkpt lat="45.97928" lon="4.66014">
        <ele>271</ele>
        <time>2018-08-16T09:07:19Z</time>
      </trkpt>
      <trkpt lat="45.9793" lon="4.66001">
        <ele>271</ele>
        <time>2018-08-16T09:07:20Z</time>
      </trkpt>
      <trkpt lat="45.9793" lon="4.65991">
        <ele>272</ele>
        <time>2018-08-16T09:07:22Z</time>
      </trkpt>
      <trkpt lat="45.9793" lon="4.65986">
        <ele>272</ele>
        <time>2018-08-16T09:07:23Z</time>
      </trkpt>
      <trkpt lat="45.97929" lon="4.65974">
        <ele>272</ele>
        <time>2018-08-16T09:07:25Z</time>
      </trkpt>
      <trkpt lat="45.97929" lon="4.65968">
        <ele>272</ele>
        <time>2018-08-16T09:07:26Z</time>
      </trkpt>
      <trkpt lat="45.97928" lon="4.65957">
        <ele>272</ele>
        <time>2018-08-16T09:07:28Z</time>
      </trkpt>
      <trkpt lat="45.97928" lon="4.65951">
        <ele>273</ele>
        <time>2018-08-16T09:07:29Z</time>
      </trkpt>
      <trkpt lat="45.97929" lon="4.65939">
        <ele>273</ele>
        <time>2018-08-16T09:07:33Z</time>
      </trkpt>
      <trkpt lat="45.97929" lon="4.65936">
        <ele>274</ele>
        <time>2018-08-16T09:07:34Z</time>
      </trkpt>
      <trkpt lat="45.9793" lon="4.65923">
        <ele>275</ele>
        <time>2018-08-16T09:07:37Z</time>
      </trkpt>
      <trkpt lat="45.9793" lon="4.65918">
        <ele>275</ele>
        <time>2018-08-16T09:07:38Z</time>
      </trkpt>
      <trkpt lat="45.97931" lon="4.65908">
        <ele>276</ele>
        <time>2018-08-16T09:07:40Z</time>
      </trkpt>
      <trkpt lat="45.97931" lon="4.65895">
        <ele>275</ele>
        <time>2018-08-16T09:07:41Z</time>
      </trkpt>
      <trkpt lat="45.9793" lon="4.65884">
        <ele>275</ele>
        <time>2018-08-16T09:07:45Z</time>
      </trkpt>
      <trkpt lat="45.9793" lon="4.6588">
        <ele>275</ele>
        <time>2018-08-16T09:07:46Z</time>
      </trkpt>
      <trkpt lat="45.97928" lon="4.65869">
        <ele>276</ele>
        <time>2018-08-16T09:07:49Z</time>
      </trkpt>
      <trkpt lat="45.97926" lon="4.65864">
        <ele>276</ele>
        <time>2018-08-16T09:07:50Z</time>
      </trkpt>
      <trkpt lat="45.97923" lon="4.65856">
        <ele>276</ele>
        <time>2018-08-16T09:07:52Z</time>
      </trkpt>
      <trkpt lat="45.97922" lon="4.65853">
        <ele>276</ele>
        <time>2018-08-16T09:07:53Z</time>
      </trkpt>
      <trkpt lat="45.97918" lon="4.65845">
        <ele>277</ele>
        <time>2018-08-16T09:07:55Z</time>
      </trkpt>
      <trkpt lat="45.97916" lon="4.6584">
        <ele>277</ele>
        <time>2018-08-16T09:07:56Z</time>
      </trkpt>
      <trkpt lat="45.97912" lon="4.65831">
        <ele>278</ele>
        <time>2018-08-16T09:07:58Z</time>
      </trkpt>
      <trkpt lat="45.9791" lon="4.65827">
        <ele>278</ele>
        <time>2018-08-16T09:07:59Z</time>
      </trkpt>
      <trkpt lat="45.97909" lon="4.65823">
        <ele>278</ele>
        <time>2018-08-16T09:08:00Z</time>
      </trkpt>
      <trkpt lat="45.97904" lon="4.6581">
        <ele>277</ele>
        <time>2018-08-16T09:08:01Z</time>
      </trkpt>
      <trkpt lat="45.979" lon="4.658">
        <ele>277</ele>
        <time>2018-08-16T09:08:03Z</time>
      </trkpt>
      <trkpt lat="45.97898" lon="4.65795">
        <ele>277</ele>
        <time>2018-08-16T09:08:04Z</time>
      </trkpt>
      <trkpt lat="45.97894" lon="4.65784">
        <ele>277</ele>
        <time>2018-08-16T09:08:07Z</time>
      </trkpt>
      <trkpt lat="45.97893" lon="4.65781">
        <ele>277</ele>
        <time>2018-08-16T09:08:08Z</time>
      </trkpt>
      <trkpt lat="45.97889" lon="4.6577">
        <ele>277</ele>
        <time>2018-08-16T09:08:11Z</time>
      </trkpt>
      <trkpt lat="45.97885" lon="4.65758">
        <ele>277</ele>
        <time>2018-08-16T09:08:12Z</time>
      </trkpt>
      <trkpt lat="45.97881" lon="4.65747">
        <ele>278</ele>
        <time>2018-08-16T09:08:14Z</time>
      </trkpt>
      <trkpt lat="45.9788" lon="4.65742">
        <ele>278</ele>
        <time>2018-08-16T09:08:15Z</time>
      </trkpt>
      <trkpt lat="45.97876" lon="4.65731">
        <ele>278</ele>
        <time>2018-08-16T09:08:17Z</time>
      </trkpt>
      <trkpt lat="45.97875" lon="4.65725">
        <ele>278</ele>
        <time>2018-08-16T09:08:18Z</time>
      </trkpt>
      <trkpt lat="45.97872" lon="4.65714">
        <ele>278</ele>
        <time>2018-08-16T09:08:20Z</time>
      </trkpt>
      <trkpt lat="45.9787" lon="4.65708">
        <ele>278</ele>
        <time>2018-08-16T09:08:21Z</time>
      </trkpt>
      <trkpt lat="45.97868" lon="4.65698">
        <ele>278</ele>
        <time>2018-08-16T09:08:23Z</time>
      </trkpt>
      <trkpt lat="45.97866" lon="4.65692">
        <ele>278</ele>
        <time>2018-08-16T09:08:24Z</time>
      </trkpt>
      <trkpt lat="45.97862" lon="4.65686">
        <ele>278</ele>
        <time>2018-08-16T09:08:25Z</time>
      </trkpt>
      <trkpt lat="45.97861" lon="4.65679">
        <ele>278</ele>
        <time>2018-08-16T09:08:26Z</time>
      </trkpt>
      <trkpt lat="45.97858" lon="4.65668">
        <ele>278</ele>
        <time>2018-08-16T09:08:28Z</time>
      </trkpt>
      <trkpt lat="45.97856" lon="4.65662">
        <ele>279</ele>
        <time>2018-08-16T09:08:29Z</time>
      </trkpt>
      <trkpt lat="45.97852" lon="4.65651">
        <ele>279</ele>
        <time>2018-08-16T09:08:31Z</time>
      </trkpt>
      <trkpt lat="45.97851" lon="4.65646">
        <ele>279</ele>
        <time>2018-08-16T09:08:32Z</time>
      </trkpt>
      <trkpt lat="45.97848" lon="4.65635">
        <ele>279</ele>
        <time>2018-08-16T09:08:34Z</time>
      </trkpt>
      <trkpt lat="45.97848" lon="4.6563">
        <ele>279</ele>
        <time>2018-08-16T09:08:35Z</time>
      </trkpt>
      <trkpt lat="45.97845" lon="4.65619">
        <ele>279</ele>
        <time>2018-08-16T09:08:37Z</time>
      </trkpt>
      <trkpt lat="45.97842" lon="4.65614">
        <ele>279</ele>
        <time>2018-08-16T09:08:38Z</time>
      </trkpt>
      <trkpt lat="45.97841" lon="4.65608">
        <ele>280</ele>
        <time>2018-08-16T09:08:39Z</time>
      </trkpt>
      <trkpt lat="45.97839" lon="4.65602">
        <ele>280</ele>
        <time>2018-08-16T09:08:40Z</time>
      </trkpt>
      <trkpt lat="45.97836" lon="4.65589">
        <ele>280</ele>
        <time>2018-08-16T09:08:42Z</time>
      </trkpt>
      <trkpt lat="45.97836" lon="4.65583">
        <ele>280</ele>
        <time>2018-08-16T09:08:43Z</time>
      </trkpt>
      <trkpt lat="45.97835" lon="4.65577">
        <ele>280</ele>
        <time>2018-08-16T09:08:44Z</time>
      </trkpt>
      <trkpt lat="45.97832" lon="4.6557">
        <ele>280</ele>
        <time>2018-08-16T09:08:45Z</time>
      </trkpt>
      <trkpt lat="45.9783" lon="4.65558">
        <ele>280</ele>
        <time>2018-08-16T09:08:47Z</time>
      </trkpt>
      <trkpt lat="45.97828" lon="4.65551">
        <ele>280</ele>
        <time>2018-08-16T09:08:48Z</time>
      </trkpt>
      <trkpt lat="45.97827" lon="4.65545">
        <ele>280</ele>
        <time>2018-08-16T09:08:49Z</time>
      </trkpt>
      <trkpt lat="45.97825" lon="4.65538">
        <ele>280</ele>
        <time>2018-08-16T09:08:50Z</time>
      </trkpt>
      <trkpt lat="45.97824" lon="4.65531">
        <ele>280</ele>
        <time>2018-08-16T09:08:51Z</time>
      </trkpt>
      <trkpt lat="45.97823" lon="4.65525">
        <ele>280</ele>
        <time>2018-08-16T09:08:52Z</time>
      </trkpt>
      <trkpt lat="45.97822" lon="4.65519">
        <ele>280</ele>
        <time>2018-08-16T09:08:53Z</time>
      </trkpt>
      <trkpt lat="45.97819" lon="4.65513">
        <ele>280</ele>
        <time>2018-08-16T09:08:54Z</time>
      </trkpt>
      <trkpt lat="45.97818" lon="4.65508">
        <ele>280</ele>
        <time>2018-08-16T09:08:55Z</time>
      </trkpt>
      <trkpt lat="45.97816" lon="4.65501">
        <ele>280</ele>
        <time>2018-08-16T09:08:56Z</time>
      </trkpt>
      <trkpt lat="45.97812" lon="4.6549">
        <ele>280</ele>
        <time>2018-08-16T09:08:58Z</time>
      </trkpt>
      <trkpt lat="45.9781" lon="4.65484">
        <ele>281</ele>
        <time>2018-08-16T09:08:59Z</time>
      </trkpt>
      <trkpt lat="45.97808" lon="4.65478">
        <ele>281</ele>
        <time>2018-08-16T09:09:00Z</time>
      </trkpt>
      <trkpt lat="45.97806" lon="4.65472">
        <ele>281</ele>
        <time>2018-08-16T09:09:01Z</time>
      </trkpt>
      <trkpt lat="45.97803" lon="4.65461">
        <ele>281</ele>
        <time>2018-08-16T09:09:03Z</time>
      </trkpt>
      <trkpt lat="45.97802" lon="4.65458">
        <ele>281</ele>
        <time>2018-08-16T09:09:04Z</time>
      </trkpt>
      <trkpt lat="45.97799" lon="4.65449">
        <ele>281</ele>
        <time>2018-08-16T09:09:06Z</time>
      </trkpt>
      <trkpt lat="45.97796" lon="4.65444">
        <ele>281</ele>
        <time>2018-08-16T09:09:07Z</time>
      </trkpt>
      <trkpt lat="45.97795" lon="4.65439">
        <ele>281</ele>
        <time>2018-08-16T09:09:08Z</time>
      </trkpt>
      <trkpt lat="45.97792" lon="4.65433">
        <ele>281</ele>
        <time>2018-08-16T09:09:09Z</time>
      </trkpt>
      <trkpt lat="45.97789" lon="4.65427">
        <ele>281</ele>
        <time>2018-08-16T09:09:10Z</time>
      </trkpt>
      <trkpt lat="45.97787" lon="4.65421">
        <ele>281</ele>
        <time>2018-08-16T09:09:11Z</time>
      </trkpt>
      <trkpt lat="45.97784" lon="4.65414">
        <ele>282</ele>
        <time>2018-08-16T09:09:13Z</time>
      </trkpt>
      <trkpt lat="45.97782" lon="4.65407">
        <ele>282</ele>
        <time>2018-08-16T09:09:14Z</time>
      </trkpt>
      <trkpt lat="45.97779" lon="4.65397">
        <ele>282</ele>
        <time>2018-08-16T09:09:16Z</time>
      </trkpt>
      <trkpt lat="45.97777" lon="4.65391">
        <ele>282</ele>
        <time>2018-08-16T09:09:17Z</time>
      </trkpt>
      <trkpt lat="45.97773" lon="4.6538">
        <ele>282</ele>
        <time>2018-08-16T09:09:19Z</time>
      </trkpt>
      <trkpt lat="45.9777" lon="4.65374">
        <ele>282</ele>
        <time>2018-08-16T09:09:20Z</time>
      </trkpt>
      <trkpt lat="45.97766" lon="4.65364">
        <ele>282</ele>
        <time>2018-08-16T09:09:22Z</time>
      </trkpt>
      <trkpt lat="45.97765" lon="4.65361">
        <ele>282</ele>
        <time>2018-08-16T09:09:23Z</time>
      </trkpt>
      <trkpt lat="45.97763" lon="4.65354">
        <ele>282</ele>
        <time>2018-08-16T09:09:24Z</time>
      </trkpt>
      <trkpt lat="45.97761" lon="4.65349">
        <ele>282</ele>
        <time>2018-08-16T09:09:25Z</time>
      </trkpt>
      <trkpt lat="45.97758" lon="4.65338">
        <ele>282</ele>
        <time>2018-08-16T09:09:27Z</time>
      </trkpt>
      <trkpt lat="45.97757" lon="4.65333">
        <ele>282</ele>
        <time>2018-08-16T09:09:28Z</time>
      </trkpt>
      <trkpt lat="45.97754" lon="4.65326">
        <ele>282</ele>
        <time>2018-08-16T09:09:29Z</time>
      </trkpt>
      <trkpt lat="45.97752" lon="4.65321">
        <ele>283</ele>
        <time>2018-08-16T09:09:30Z</time>
      </trkpt>
      <trkpt lat="45.97748" lon="4.65309">
        <ele>282</ele>
        <time>2018-08-16T09:09:32Z</time>
      </trkpt>
      <trkpt lat="45.97746" lon="4.65303">
        <ele>282</ele>
        <time>2018-08-16T09:09:33Z</time>
      </trkpt>
      <trkpt lat="45.97742" lon="4.65293">
        <ele>282</ele>
        <time>2018-08-16T09:09:35Z</time>
      </trkpt>
      <trkpt lat="45.97741" lon="4.6529">
        <ele>283</ele>
        <time>2018-08-16T09:09:36Z</time>
      </trkpt>
      <trkpt lat="45.97739" lon="4.65284">
        <ele>283</ele>
        <time>2018-08-16T09:09:38Z</time>
      </trkpt>
      <trkpt lat="45.97737" lon="4.65272">
        <ele>283</ele>
        <time>2018-08-16T09:09:39Z</time>
      </trkpt>
      <trkpt lat="45.97736" lon="4.65261">
        <ele>283</ele>
        <time>2018-08-16T09:09:41Z</time>
      </trkpt>
      <trkpt lat="45.97735" lon="4.65255">
        <ele>283</ele>
        <time>2018-08-16T09:09:42Z</time>
      </trkpt>
      <trkpt lat="45.97734" lon="4.65243">
        <ele>284</ele>
        <time>2018-08-16T09:09:44Z</time>
      </trkpt>
      <trkpt lat="45.97734" lon="4.65237">
        <ele>284</ele>
        <time>2018-08-16T09:09:45Z</time>
      </trkpt>
      <trkpt lat="45.97733" lon="4.65226">
        <ele>284</ele>
        <time>2018-08-16T09:09:47Z</time>
      </trkpt>
      <trkpt lat="45.97733" lon="4.6522">
        <ele>284</ele>
        <time>2018-08-16T09:09:48Z</time>
      </trkpt>
      <trkpt lat="45.97732" lon="4.6521">
        <ele>284</ele>
        <time>2018-08-16T09:09:50Z</time>
      </trkpt>
      <trkpt lat="45.97732" lon="4.65203">
        <ele>284</ele>
        <time>2018-08-16T09:09:51Z</time>
      </trkpt>
      <trkpt lat="45.97731" lon="4.6519">
        <ele>284</ele>
        <time>2018-08-16T09:09:53Z</time>
      </trkpt>
      <trkpt lat="45.97731" lon="4.65184">
        <ele>284</ele>
        <time>2018-08-16T09:09:54Z</time>
      </trkpt>
      <trkpt lat="45.97731" lon="4.65177">
        <ele>284</ele>
        <time>2018-08-16T09:09:55Z</time>
      </trkpt>
      <trkpt lat="45.97731" lon="4.65171">
        <ele>284</ele>
        <time>2018-08-16T09:09:56Z</time>
      </trkpt>
      <trkpt lat="45.97733" lon="4.6516">
        <ele>285</ele>
        <time>2018-08-16T09:09:58Z</time>
      </trkpt>
      <trkpt lat="45.97732" lon="4.65154">
        <ele>285</ele>
        <time>2018-08-16T09:09:59Z</time>
      </trkpt>
      <trkpt lat="45.97731" lon="4.65141">
        <ele>285</ele>
        <time>2018-08-16T09:10:02Z</time>
      </trkpt>
      <trkpt lat="45.97731" lon="4.65138">
        <ele>285</ele>
        <time>2018-08-16T09:10:03Z</time>
      </trkpt>
      <trkpt lat="45.97732" lon="4.65129">
        <ele>285</ele>
        <time>2018-08-16T09:10:04Z</time>
      </trkpt>
      <trkpt lat="45.97731" lon="4.65123">
        <ele>285</ele>
        <time>2018-08-16T09:10:05Z</time>
      </trkpt>
      <trkpt lat="45.97731" lon="4.65116">
        <ele>285</ele>
        <time>2018-08-16T09:10:06Z</time>
      </trkpt>
      <trkpt lat="45.97729" lon="4.65109">
        <ele>285</ele>
        <time>2018-08-16T09:10:07Z</time>
      </trkpt>
      <trkpt lat="45.97727" lon="4.65096">
        <ele>285</ele>
        <time>2018-08-16T09:10:09Z</time>
      </trkpt>
      <trkpt lat="45.97726" lon="4.65089">
        <ele>285</ele>
        <time>2018-08-16T09:10:10Z</time>
      </trkpt>
      <trkpt lat="45.97725" lon="4.65081">
        <ele>285</ele>
        <time>2018-08-16T09:10:11Z</time>
      </trkpt>
      <trkpt lat="45.97724" lon="4.65075">
        <ele>285</ele>
        <time>2018-08-16T09:10:12Z</time>
      </trkpt>
      <trkpt lat="45.97723" lon="4.65068">
        <ele>285</ele>
        <time>2018-08-16T09:10:13Z</time>
      </trkpt>
      <trkpt lat="45.97724" lon="4.65061">
        <ele>286</ele>
        <time>2018-08-16T09:10:14Z</time>
      </trkpt>
      <trkpt lat="45.97723" lon="4.65054">
        <ele>286</ele>
        <time>2018-08-16T09:10:15Z</time>
      </trkpt>
      <trkpt lat="45.97724" lon="4.65048">
        <ele>286</ele>
        <time>2018-08-16T09:10:16Z</time>
      </trkpt>
      <trkpt lat="45.97722" lon="4.65037">
        <ele>286</ele>
        <time>2018-08-16T09:10:18Z</time>
      </trkpt>
      <trkpt lat="45.9772" lon="4.65032">
        <ele>286</ele>
        <time>2018-08-16T09:10:19Z</time>
      </trkpt>
      <trkpt lat="45.97718" lon="4.65027">
        <ele>286</ele>
        <time>2018-08-16T09:10:20Z</time>
      </trkpt>
      <trkpt lat="45.97715" lon="4.65019">
        <ele>286</ele>
        <time>2018-08-16T09:10:21Z</time>
      </trkpt>
      <trkpt lat="45.97715" lon="4.65011">
        <ele>286</ele>
        <time>2018-08-16T09:10:22Z</time>
      </trkpt>
      <trkpt lat="45.97713" lon="4.65005">
        <ele>286</ele>
        <time>2018-08-16T09:10:23Z</time>
      </trkpt>
      <trkpt lat="45.97713" lon="4.64998">
        <ele>287</ele>
        <time>2018-08-16T09:10:24Z</time>
      </trkpt>
      <trkpt lat="45.97712" lon="4.64992">
        <ele>287</ele>
        <time>2018-08-16T09:10:25Z</time>
      </trkpt>
      <trkpt lat="45.97709" lon="4.6498">
        <ele>287</ele>
        <time>2018-08-16T09:10:28Z</time>
      </trkpt>
      <trkpt lat="45.97709" lon="4.64977">
        <ele>287</ele>
        <time>2018-08-16T09:10:29Z</time>
      </trkpt>
      <trkpt lat="45.97709" lon="4.64969">
        <ele>287</ele>
        <time>2018-08-16T09:10:31Z</time>
      </trkpt>
      <trkpt lat="45.97707" lon="4.64956">
        <ele>287</ele>
        <time>2018-08-16T09:10:32Z</time>
      </trkpt>
      <trkpt lat="45.97706" lon="4.64947">
        <ele>287</ele>
        <time>2018-08-16T09:10:35Z</time>
      </trkpt>
      <trkpt lat="45.97705" lon="4.64936">
        <ele>287</ele>
        <time>2018-08-16T09:10:36Z</time>
      </trkpt>
      <trkpt lat="45.97703" lon="4.64925">
        <ele>288</ele>
        <time>2018-08-16T09:10:39Z</time>
      </trkpt>
      <trkpt lat="45.97703" lon="4.64922">
        <ele>288</ele>
        <time>2018-08-16T09:10:40Z</time>
      </trkpt>
      <trkpt lat="45.97702" lon="4.6491">
        <ele>288</ele>
        <time>2018-08-16T09:10:43Z</time>
      </trkpt>
      <trkpt lat="45.97702" lon="4.64906">
        <ele>288</ele>
        <time>2018-08-16T09:10:44Z</time>
      </trkpt>
      <trkpt lat="45.97701" lon="4.64897">
        <ele>288</ele>
        <time>2018-08-16T09:10:46Z</time>
      </trkpt>
      <trkpt lat="45.97701" lon="4.64892">
        <ele>288</ele>
        <time>2018-08-16T09:10:47Z</time>
      </trkpt>
      <trkpt lat="45.977" lon="4.64883">
        <ele>288</ele>
        <time>2018-08-16T09:10:49Z</time>
      </trkpt>
      <trkpt lat="45.97699" lon="4.64878">
        <ele>288</ele>
        <time>2018-08-16T09:10:50Z</time>
      </trkpt>
      <trkpt lat="45.97698" lon="4.64864">
        <ele>289</ele>
        <time>2018-08-16T09:10:51Z</time>
      </trkpt>
      <trkpt lat="45.97697" lon="4.64852">
        <ele>289</ele>
        <time>2018-08-16T09:10:54Z</time>
      </trkpt>
      <trkpt lat="45.97695" lon="4.64843">
        <ele>289</ele>
        <time>2018-08-16T09:10:55Z</time>
      </trkpt>
      <trkpt lat="45.97694" lon="4.64833">
        <ele>289</ele>
        <time>2018-08-16T09:10:58Z</time>
      </trkpt>
      <trkpt lat="45.97693" lon="4.64829">
        <ele>289</ele>
        <time>2018-08-16T09:10:59Z</time>
      </trkpt>
      <trkpt lat="45.97692" lon="4.64817">
        <ele>290</ele>
        <time>2018-08-16T09:11:02Z</time>
      </trkpt>
      <trkpt lat="45.97692" lon="4.64812">
        <ele>290</ele>
        <time>2018-08-16T09:11:03Z</time>
      </trkpt>
      <trkpt lat="45.97691" lon="4.64803">
        <ele>290</ele>
        <time>2018-08-16T09:11:05Z</time>
      </trkpt>
      <trkpt lat="45.97691" lon="4.64799">
        <ele>290</ele>
        <time>2018-08-16T09:11:06Z</time>
      </trkpt>
      <trkpt lat="45.97691" lon="4.64795">
        <ele>290</ele>
        <time>2018-08-16T09:11:07Z</time>
      </trkpt>
      <trkpt lat="45.9769" lon="4.64781">
        <ele>290</ele>
        <time>2018-08-16T09:11:08Z</time>
      </trkpt>
      <trkpt lat="45.97688" lon="4.6477">
        <ele>290</ele>
        <time>2018-08-16T09:11:11Z</time>
      </trkpt>
      <trkpt lat="45.97688" lon="4.64766">
        <ele>290</ele>
        <time>2018-08-16T09:11:12Z</time>
      </trkpt>
      <trkpt lat="45.97686" lon="4.64754">
        <ele>290</ele>
        <time>2018-08-16T09:11:15Z</time>
      </trkpt>
      <trkpt lat="45.97685" lon="4.64749">
        <ele>291</ele>
        <time>2018-08-16T09:11:16Z</time>
      </trkpt>
      <trkpt lat="45.97684" lon="4.6474">
        <ele>291</ele>
        <time>2018-08-16T09:11:18Z</time>
      </trkpt>
      <trkpt lat="45.97683" lon="4.64735">
        <ele>291</ele>
        <time>2018-08-16T09:11:19Z</time>
      </trkpt>
      <trkpt lat="45.97682" lon="4.64726">
        <ele>291</ele>
        <time>2018-08-16T09:11:21Z</time>
      </trkpt>
      <trkpt lat="45.97681" lon="4.6472">
        <ele>291</ele>
        <time>2018-08-16T09:11:22Z</time>
      </trkpt>
      <trkpt lat="45.9768" lon="4.64711">
        <ele>291</ele>
        <time>2018-08-16T09:11:24Z</time>
      </trkpt>
      <trkpt lat="45.97679" lon="4.64706">
        <ele>291</ele>
        <time>2018-08-16T09:11:25Z</time>
      </trkpt>
      <trkpt lat="45.97678" lon="4.64698">
        <ele>291</ele>
        <time>2018-08-16T09:11:27Z</time>
      </trkpt>
      <trkpt lat="45.97677" lon="4.64693">
        <ele>291</ele>
        <time>2018-08-16T09:11:28Z</time>
      </trkpt>
      <trkpt lat="45.97676" lon="4.64684">
        <ele>291</ele>
        <time>2018-08-16T09:11:30Z</time>
      </trkpt>
      <trkpt lat="45.97675" lon="4.6468">
        <ele>292</ele>
        <time>2018-08-16T09:11:31Z</time>
      </trkpt>
      <trkpt lat="45.97674" lon="4.64672">
        <ele>292</ele>
        <time>2018-08-16T09:11:33Z</time>
      </trkpt>
      <trkpt lat="45.97673" lon="4.64667">
        <ele>292</ele>
        <time>2018-08-16T09:11:34Z</time>
      </trkpt>
      <trkpt lat="45.97672" lon="4.64655">
        <ele>293</ele>
        <time>2018-08-16T09:11:37Z</time>
      </trkpt>
      <trkpt lat="45.97672" lon="4.64651">
        <ele>293</ele>
        <time>2018-08-16T09:11:38Z</time>
      </trkpt>
      <trkpt lat="45.97671" lon="4.64638">
        <ele>293</ele>
        <time>2018-08-16T09:11:41Z</time>
      </trkpt>
      <trkpt lat="45.9767" lon="4.64634">
        <ele>293</ele>
        <time>2018-08-16T09:11:42Z</time>
      </trkpt>
      <trkpt lat="45.97669" lon="4.64622">
        <ele>294</ele>
        <time>2018-08-16T09:11:45Z</time>
      </trkpt>
      <trkpt lat="45.97669" lon="4.64618">
        <ele>294</ele>
        <time>2018-08-16T09:11:46Z</time>
      </trkpt>
      <trkpt lat="45.97668" lon="4.64606">
        <ele>295</ele>
        <time>2018-08-16T09:11:49Z</time>
      </trkpt>
      <trkpt lat="45.97668" lon="4.64602">
        <ele>295</ele>
        <time>2018-08-16T09:11:50Z</time>
      </trkpt>
      <trkpt lat="45.97667" lon="4.6459">
        <ele>296</ele>
        <time>2018-08-16T09:11:53Z</time>
      </trkpt>
      <trkpt lat="45.97667" lon="4.64586">
        <ele>297</ele>
        <time>2018-08-16T09:11:54Z</time>
      </trkpt>
      <trkpt lat="45.97665" lon="4.64574">
        <ele>298</ele>
        <time>2018-08-16T09:11:57Z</time>
      </trkpt>
      <trkpt lat="45.97664" lon="4.6457">
        <ele>298</ele>
        <time>2018-08-16T09:11:58Z</time>
      </trkpt>
      <trkpt lat="45.97664" lon="4.64558">
        <ele>298</ele>
        <time>2018-08-16T09:12:01Z</time>
      </trkpt>
      <trkpt lat="45.97664" lon="4.64555">
        <ele>299</ele>
        <time>2018-08-16T09:12:02Z</time>
      </trkpt>
      <trkpt lat="45.97663" lon="4.64543">
        <ele>299</ele>
        <time>2018-08-16T09:12:05Z</time>
      </trkpt>
      <trkpt lat="45.97662" lon="4.6454">
        <ele>299</ele>
        <time>2018-08-16T09:12:06Z</time>
      </trkpt>
      <trkpt lat="45.9766" lon="4.64527">
        <ele>300</ele>
        <time>2018-08-16T09:12:09Z</time>
      </trkpt>
      <trkpt lat="45.9766" lon="4.64523">
        <ele>300</ele>
        <time>2018-08-16T09:12:10Z</time>
      </trkpt>
      <trkpt lat="45.97659" lon="4.64514">
        <ele>301</ele>
        <time>2018-08-16T09:12:12Z</time>
      </trkpt>
      <trkpt lat="45.97658" lon="4.6451">
        <ele>301</ele>
        <time>2018-08-16T09:12:13Z</time>
      </trkpt>
      <trkpt lat="45.97657" lon="4.64497">
        <ele>302</ele>
        <time>2018-08-16T09:12:16Z</time>
      </trkpt>
      <trkpt lat="45.97657" lon="4.64493">
        <ele>302</ele>
        <time>2018-08-16T09:12:17Z</time>
      </trkpt>
      <trkpt lat="45.97657" lon="4.64484">
        <ele>302</ele>
        <time>2018-08-16T09:12:19Z</time>
      </trkpt>
      <trkpt lat="45.97657" lon="4.64478">
        <ele>302</ele>
        <time>2018-08-16T09:12:20Z</time>
      </trkpt>
      <trkpt lat="45.97657" lon="4.64469">
        <ele>302</ele>
        <time>2018-08-16T09:12:22Z</time>
      </trkpt>
      <trkpt lat="45.97656" lon="4.64465">
        <ele>302</ele>
        <time>2018-08-16T09:12:23Z</time>
      </trkpt>
      <trkpt lat="45.97656" lon="4.64456">
        <ele>302</ele>
        <time>2018-08-16T09:12:25Z</time>
      </trkpt>
      <trkpt lat="45.97655" lon="4.64452">
        <ele>302</ele>
        <time>2018-08-16T09:12:26Z</time>
      </trkpt>
      <trkpt lat="45.97653" lon="4.64443">
        <ele>302</ele>
        <time>2018-08-16T09:12:28Z</time>
      </trkpt>
      <trkpt lat="45.97652" lon="4.64439">
        <ele>302</ele>
        <time>2018-08-16T09:12:29Z</time>
      </trkpt>
      <trkpt lat="45.9765" lon="4.6443">
        <ele>302</ele>
        <time>2018-08-16T09:12:31Z</time>
      </trkpt>
      <trkpt lat="45.97649" lon="4.64425">
        <ele>302</ele>
        <time>2018-08-16T09:12:32Z</time>
      </trkpt>
      <trkpt lat="45.97646" lon="4.64414">
        <ele>302</ele>
        <time>2018-08-16T09:12:35Z</time>
      </trkpt>
      <trkpt lat="45.97646" lon="4.6441">
        <ele>302</ele>
        <time>2018-08-16T09:12:36Z</time>
      </trkpt>
      <trkpt lat="45.97645" lon="4.64402">
        <ele>302</ele>
        <time>2018-08-16T09:12:38Z</time>
      </trkpt>
      <trkpt lat="45.97644" lon="4.64397">
        <ele>302</ele>
        <time>2018-08-16T09:12:39Z</time>
      </trkpt>
      <trkpt lat="45.97643" lon="4.64387">
        <ele>303</ele>
        <time>2018-08-16T09:12:41Z</time>
      </trkpt>
      <trkpt lat="45.97642" lon="4.64382">
        <ele>303</ele>
        <time>2018-08-16T09:12:42Z</time>
      </trkpt>
      <trkpt lat="45.9764" lon="4.64371">
        <ele>303</ele>
        <time>2018-08-16T09:12:44Z</time>
      </trkpt>
      <trkpt lat="45.97639" lon="4.64367">
        <ele>303</ele>
        <time>2018-08-16T09:12:45Z</time>
      </trkpt>
      <trkpt lat="45.97638" lon="4.64354">
        <ele>303</ele>
        <time>2018-08-16T09:12:48Z</time>
      </trkpt>
      <trkpt lat="45.97638" lon="4.6435">
        <ele>303</ele>
        <time>2018-08-16T09:12:49Z</time>
      </trkpt>
      <trkpt lat="45.97637" lon="4.64338">
        <ele>303</ele>
        <time>2018-08-16T09:12:52Z</time>
      </trkpt>
      <trkpt lat="45.97637" lon="4.64334">
        <ele>303</ele>
        <time>2018-08-16T09:12:53Z</time>
      </trkpt>
      <trkpt lat="45.97635" lon="4.64323">
        <ele>304</ele>
        <time>2018-08-16T09:12:56Z</time>
      </trkpt>
      <trkpt lat="45.97635" lon="4.64318">
        <ele>304</ele>
        <time>2018-08-16T09:12:57Z</time>
      </trkpt>
      <trkpt lat="45.97633" lon="4.64306">
        <ele>304</ele>
        <time>2018-08-16T09:13:00Z</time>
      </trkpt>
      <trkpt lat="45.97632" lon="4.64292">
        <ele>304</ele>
        <time>2018-08-16T09:13:01Z</time>
      </trkpt>
      <trkpt lat="45.97631" lon="4.64281">
        <ele>305</ele>
        <time>2018-08-16T09:13:05Z</time>
      </trkpt>
      <trkpt lat="45.97631" lon="4.64278">
        <ele>305</ele>
        <time>2018-08-16T09:13:06Z</time>
      </trkpt>
      <trkpt lat="45.97631" lon="4.64267">
        <ele>305</ele>
        <time>2018-08-16T09:13:09Z</time>
      </trkpt>
      <trkpt lat="45.97631" lon="4.64263">
        <ele>305</ele>
        <time>2018-08-16T09:13:10Z</time>
      </trkpt>
      <trkpt lat="45.9763" lon="4.64251">
        <ele>305</ele>
        <time>2018-08-16T09:13:13Z</time>
      </trkpt>
      <trkpt lat="45.97629" lon="4.64247">
        <ele>305</ele>
        <time>2018-08-16T09:13:14Z</time>
      </trkpt>
      <trkpt lat="45.97627" lon="4.64235">
        <ele>305</ele>
        <time>2018-08-16T09:13:17Z</time>
      </trkpt>
      <trkpt lat="45.97626" lon="4.64231">
        <ele>305</ele>
        <time>2018-08-16T09:13:18Z</time>
      </trkpt>
      <trkpt lat="45.97624" lon="4.64219">
        <ele>306</ele>
        <time>2018-08-16T09:13:21Z</time>
      </trkpt>
      <trkpt lat="45.97623" lon="4.64215">
        <ele>306</ele>
        <time>2018-08-16T09:13:22Z</time>
      </trkpt>
      <trkpt lat="45.97623" lon="4.64211">
        <ele>306</ele>
        <time>2018-08-16T09:13:23Z</time>
      </trkpt>
      <trkpt lat="45.9762" lon="4.64198">
        <ele>306</ele>
        <time>2018-08-16T09:13:24Z</time>
      </trkpt>
      <trkpt lat="45.97617" lon="4.64187">
        <ele>306</ele>
        <time>2018-08-16T09:13:28Z</time>
      </trkpt>
      <trkpt lat="45.97617" lon="4.64184">
        <ele>306</ele>
        <time>2018-08-16T09:13:29Z</time>
      </trkpt>
      <trkpt lat="45.97616" lon="4.64173">
        <ele>306</ele>
        <time>2018-08-16T09:13:32Z</time>
      </trkpt>
      <trkpt lat="45.97615" lon="4.64169">
        <ele>306</ele>
        <time>2018-08-16T09:13:33Z</time>
      </trkpt>
      <trkpt lat="45.97614" lon="4.64157">
        <ele>307</ele>
        <time>2018-08-16T09:13:36Z</time>
      </trkpt>
      <trkpt lat="45.97614" lon="4.64153">
        <ele>307</ele>
        <time>2018-08-16T09:13:37Z</time>
      </trkpt>
      <trkpt lat="45.97613" lon="4.6414">
        <ele>307</ele>
        <time>2018-08-16T09:13:40Z</time>
      </trkpt>
      <trkpt lat="45.97612" lon="4.64136">
        <ele>307</ele>
        <time>2018-08-16T09:13:41Z</time>
      </trkpt>
      <trkpt lat="45.9761" lon="4.64124">
        <ele>307</ele>
        <time>2018-08-16T09:13:44Z</time>
      </trkpt>
      <trkpt lat="45.9761" lon="4.6412">
        <ele>307</ele>
        <time>2018-08-16T09:13:45Z</time>
      </trkpt>
      <trkpt lat="45.97609" lon="4.64109">
        <ele>308</ele>
        <time>2018-08-16T09:13:47Z</time>
      </trkpt>
      <trkpt lat="45.97609" lon="4.64105">
        <ele>308</ele>
        <time>2018-08-16T09:13:48Z</time>
      </trkpt>
      <trkpt lat="45.97608" lon="4.64093">
        <ele>308</ele>
        <time>2018-08-16T09:13:51Z</time>
      </trkpt>
      <trkpt lat="45.97608" lon="4.64088">
        <ele>308</ele>
        <time>2018-08-16T09:13:52Z</time>
      </trkpt>
      <trkpt lat="45.97607" lon="4.64079">
        <ele>310</ele>
        <time>2018-08-16T09:13:54Z</time>
      </trkpt>
      <trkpt lat="45.97606" lon="4.64075">
        <ele>310</ele>
        <time>2018-08-16T09:13:55Z</time>
      </trkpt>
      <trkpt lat="45.97604" lon="4.64063">
        <ele>310</ele>
        <time>2018-08-16T09:13:58Z</time>
      </trkpt>
      <trkpt lat="45.97603" lon="4.64059">
        <ele>310</ele>
        <time>2018-08-16T09:13:59Z</time>
      </trkpt>
      <trkpt lat="45.97601" lon="4.64047">
        <ele>310</ele>
        <time>2018-08-16T09:14:02Z</time>
      </trkpt>
      <trkpt lat="45.97601" lon="4.64043">
        <ele>310</ele>
        <time>2018-08-16T09:14:03Z</time>
      </trkpt>
      <trkpt lat="45.976" lon="4.6403">
        <ele>310</ele>
        <time>2018-08-16T09:14:06Z</time>
      </trkpt>
      <trkpt lat="45.976" lon="4.64026">
        <ele>310</ele>
        <time>2018-08-16T09:14:07Z</time>
      </trkpt>
      <trkpt lat="45.97599" lon="4.64015">
        <ele>311</ele>
        <time>2018-08-16T09:14:10Z</time>
      </trkpt>
      <trkpt lat="45.97598" lon="4.64011">
        <ele>311</ele>
        <time>2018-08-16T09:14:11Z</time>
      </trkpt>
      <trkpt lat="45.97595" lon="4.64">
        <ele>311</ele>
        <time>2018-08-16T09:14:14Z</time>
      </trkpt>
      <trkpt lat="45.97595" lon="4.63996">
        <ele>312</ele>
        <time>2018-08-16T09:14:15Z</time>
      </trkpt>
      <trkpt lat="45.97592" lon="4.63984">
        <ele>312</ele>
        <time>2018-08-16T09:14:18Z</time>
      </trkpt>
      <trkpt lat="45.97592" lon="4.63981">
        <ele>312</ele>
        <time>2018-08-16T09:14:19Z</time>
      </trkpt>
      <trkpt lat="45.9759" lon="4.6397">
        <ele>312</ele>
        <time>2018-08-16T09:14:22Z</time>
      </trkpt>
      <trkpt lat="45.97589" lon="4.63966">
        <ele>312</ele>
        <time>2018-08-16T09:14:23Z</time>
      </trkpt>
      <trkpt lat="45.97588" lon="4.63955">
        <ele>312</ele>
        <time>2018-08-16T09:14:26Z</time>
      </trkpt>
      <trkpt lat="45.97588" lon="4.63951">
        <ele>312</ele>
        <time>2018-08-16T09:14:27Z</time>
      </trkpt>
      <trkpt lat="45.97587" lon="4.63939">
        <ele>313</ele>
        <time>2018-08-16T09:14:30Z</time>
      </trkpt>
      <trkpt lat="45.97586" lon="4.63935">
        <ele>313</ele>
        <time>2018-08-16T09:14:31Z</time>
      </trkpt>
      <trkpt lat="45.97585" lon="4.63924">
        <ele>315</ele>
        <time>2018-08-16T09:14:34Z</time>
      </trkpt>
      <trkpt lat="45.97584" lon="4.63919">
        <ele>315</ele>
        <time>2018-08-16T09:14:35Z</time>
      </trkpt>
      <trkpt lat="45.97583" lon="4.63907">
        <ele>317</ele>
        <time>2018-08-16T09:14:38Z</time>
      </trkpt>
      <trkpt lat="45.97582" lon="4.63903">
        <ele>317</ele>
        <time>2018-08-16T09:14:39Z</time>
      </trkpt>
      <trkpt lat="45.97581" lon="4.63891">
        <ele>318</ele>
        <time>2018-08-16T09:14:42Z</time>
      </trkpt>
      <trkpt lat="45.97581" lon="4.63887">
        <ele>318</ele>
        <time>2018-08-16T09:14:43Z</time>
      </trkpt>
      <trkpt lat="45.9758" lon="4.63876">
        <ele>318</ele>
        <time>2018-08-16T09:14:46Z</time>
      </trkpt>
      <trkpt lat="45.97579" lon="4.63872">
        <ele>318</ele>
        <time>2018-08-16T09:14:47Z</time>
      </trkpt>
      <trkpt lat="45.97578" lon="4.63861">
        <ele>318</ele>
        <time>2018-08-16T09:14:50Z</time>
      </trkpt>
      <trkpt lat="45.97578" lon="4.63857">
        <ele>318</ele>
        <time>2018-08-16T09:14:51Z</time>
      </trkpt>
      <trkpt lat="45.97578" lon="4.63845">
        <ele>318</ele>
        <time>2018-08-16T09:14:55Z</time>
      </trkpt>
      <trkpt lat="45.97578" lon="4.63841">
        <ele>318</ele>
        <time>2018-08-16T09:14:56Z</time>
      </trkpt>
      <trkpt lat="45.97578" lon="4.63828">
        <ele>319</ele>
        <time>2018-08-16T09:14:59Z</time>
      </trkpt>
      <trkpt lat="45.97578" lon="4.63824">
        <ele>320</ele>
        <time>2018-08-16T09:15:00Z</time>
      </trkpt>
      <trkpt lat="45.97577" lon="4.63811">
        <ele>321</ele>
        <time>2018-08-16T09:15:03Z</time>
      </trkpt>
      <trkpt lat="45.97577" lon="4.63808">
        <ele>321</ele>
        <time>2018-08-16T09:15:04Z</time>
      </trkpt>
      <trkpt lat="45.97577" lon="4.63797">
        <ele>321</ele>
        <time>2018-08-16T09:15:07Z</time>
      </trkpt>
      <trkpt lat="45.97576" lon="4.63793">
        <ele>321</ele>
        <time>2018-08-16T09:15:08Z</time>
      </trkpt>
      <trkpt lat="45.97575" lon="4.63782">
        <ele>322</ele>
        <time>2018-08-16T09:15:11Z</time>
      </trkpt>
      <trkpt lat="45.97575" lon="4.63778">
        <ele>322</ele>
        <time>2018-08-16T09:15:12Z</time>
      </trkpt>
      <trkpt lat="45.97573" lon="4.63766">
        <ele>322</ele>
        <time>2018-08-16T09:15:15Z</time>
      </trkpt>
      <trkpt lat="45.97573" lon="4.63763">
        <ele>322</ele>
        <time>2018-08-16T09:15:16Z</time>
      </trkpt>
      <trkpt lat="45.97572" lon="4.63751">
        <ele>322</ele>
        <time>2018-08-16T09:15:19Z</time>
      </trkpt>
      <trkpt lat="45.97572" lon="4.63747">
        <ele>323</ele>
        <time>2018-08-16T09:15:20Z</time>
      </trkpt>
      <trkpt lat="45.97571" lon="4.63735">
        <ele>323</ele>
        <time>2018-08-16T09:15:23Z</time>
      </trkpt>
      <trkpt lat="45.97571" lon="4.63731">
        <ele>324</ele>
        <time>2018-08-16T09:15:24Z</time>
      </trkpt>
      <trkpt lat="45.9757" lon="4.63719">
        <ele>324</ele>
        <time>2018-08-16T09:15:27Z</time>
      </trkpt>
      <trkpt lat="45.9757" lon="4.63715">
        <ele>324</ele>
        <time>2018-08-16T09:15:28Z</time>
      </trkpt>
      <trkpt lat="45.97569" lon="4.63703">
        <ele>325</ele>
        <time>2018-08-16T09:15:31Z</time>
      </trkpt>
      <trkpt lat="45.97569" lon="4.637">
        <ele>325</ele>
        <time>2018-08-16T09:15:32Z</time>
      </trkpt>
      <trkpt lat="45.97567" lon="4.63688">
        <ele>325</ele>
        <time>2018-08-16T09:15:35Z</time>
      </trkpt>
      <trkpt lat="45.97567" lon="4.63684">
        <ele>325</ele>
        <time>2018-08-16T09:15:36Z</time>
      </trkpt>
      <trkpt lat="45.97566" lon="4.63672">
        <ele>325</ele>
        <time>2018-08-16T09:15:39Z</time>
      </trkpt>
      <trkpt lat="45.97565" lon="4.63668">
        <ele>325</ele>
        <time>2018-08-16T09:15:40Z</time>
      </trkpt>
      <trkpt lat="45.97565" lon="4.63658">
        <ele>326</ele>
        <time>2018-08-16T09:15:43Z</time>
      </trkpt>
      <trkpt lat="45.97565" lon="4.63655">
        <ele>326</ele>
        <time>2018-08-16T09:15:44Z</time>
      </trkpt>
      <trkpt lat="45.97564" lon="4.63643">
        <ele>326</ele>
        <time>2018-08-16T09:15:47Z</time>
      </trkpt>
      <trkpt lat="45.97564" lon="4.63639">
        <ele>326</ele>
        <time>2018-08-16T09:15:48Z</time>
      </trkpt>
      <trkpt lat="45.97562" lon="4.63627">
        <ele>327</ele>
        <time>2018-08-16T09:15:51Z</time>
      </trkpt>
      <trkpt lat="45.97562" lon="4.63623">
        <ele>327</ele>
        <time>2018-08-16T09:15:52Z</time>
      </trkpt>
      <trkpt lat="45.9756" lon="4.63611">
        <ele>327</ele>
        <time>2018-08-16T09:15:55Z</time>
      </trkpt>
      <trkpt lat="45.97559" lon="4.63607">
        <ele>327</ele>
        <time>2018-08-16T09:15:56Z</time>
      </trkpt>
      <trkpt lat="45.97558" lon="4.63596">
        <ele>327</ele>
        <time>2018-08-16T09:15:59Z</time>
      </trkpt>
      <trkpt lat="45.97558" lon="4.63592">
        <ele>327</ele>
        <time>2018-08-16T09:16:00Z</time>
      </trkpt>
      <trkpt lat="45.97556" lon="4.6358">
        <ele>328</ele>
        <time>2018-08-16T09:16:03Z</time>
      </trkpt>
      <trkpt lat="45.97555" lon="4.63576">
        <ele>328</ele>
        <time>2018-08-16T09:16:04Z</time>
      </trkpt>
      <trkpt lat="45.97553" lon="4.63566">
        <ele>328</ele>
        <time>2018-08-16T09:16:07Z</time>
      </trkpt>
      <trkpt lat="45.97553" lon="4.63562">
        <ele>328</ele>
        <time>2018-08-16T09:16:08Z</time>
      </trkpt>
      <trkpt lat="45.97552" lon="4.6355">
        <ele>329</ele>
        <time>2018-08-16T09:16:11Z</time>
      </trkpt>
      <trkpt lat="45.97551" lon="4.63546">
        <ele>329</ele>
        <time>2018-08-16T09:16:12Z</time>
      </trkpt>
      <trkpt lat="45.97549" lon="4.63534">
        <ele>329</ele>
        <time>2018-08-16T09:16:15Z</time>
      </trkpt>
      <trkpt lat="45.97549" lon="4.6353">
        <ele>329</ele>
        <time>2018-08-16T09:16:16Z</time>
      </trkpt>
      <trkpt lat="45.97547" lon="4.63517">
        <ele>329</ele>
        <time>2018-08-16T09:16:19Z</time>
      </trkpt>
      <trkpt lat="45.97546" lon="4.63513">
        <ele>329</ele>
        <time>2018-08-16T09:16:20Z</time>
      </trkpt>
      <trkpt lat="45.97545" lon="4.63502">
        <ele>329</ele>
        <time>2018-08-16T09:16:23Z</time>
      </trkpt>
      <trkpt lat="45.97544" lon="4.63498">
        <ele>330</ele>
        <time>2018-08-16T09:16:24Z</time>
      </trkpt>
      <trkpt lat="45.97542" lon="4.63487">
        <ele>331</ele>
        <time>2018-08-16T09:16:27Z</time>
      </trkpt>
      <trkpt lat="45.97541" lon="4.63483">
        <ele>331</ele>
        <time>2018-08-16T09:16:28Z</time>
      </trkpt>
      <trkpt lat="45.9754" lon="4.63471">
        <ele>331</ele>
        <time>2018-08-16T09:16:31Z</time>
      </trkpt>
      <trkpt lat="45.97539" lon="4.63467">
        <ele>331</ele>
        <time>2018-08-16T09:16:32Z</time>
      </trkpt>
      <trkpt lat="45.97538" lon="4.63455">
        <ele>331</ele>
        <time>2018-08-16T09:16:35Z</time>
      </trkpt>
      <trkpt lat="45.97538" lon="4.63451">
        <ele>331</ele>
        <time>2018-08-16T09:16:36Z</time>
      </trkpt>
      <trkpt lat="45.97537" lon="4.6344">
        <ele>331</ele>
        <time>2018-08-16T09:16:39Z</time>
      </trkpt>
      <trkpt lat="45.97537" lon="4.63436">
        <ele>331</ele>
        <time>2018-08-16T09:16:40Z</time>
      </trkpt>
      <trkpt lat="45.97535" lon="4.63426">
        <ele>332</ele>
        <time>2018-08-16T09:16:43Z</time>
      </trkpt>
      <trkpt lat="45.97534" lon="4.63422">
        <ele>332</ele>
        <time>2018-08-16T09:16:44Z</time>
      </trkpt>
      <trkpt lat="45.97532" lon="4.63412">
        <ele>333</ele>
        <time>2018-08-16T09:16:47Z</time>
      </trkpt>
      <trkpt lat="45.97531" lon="4.63408">
        <ele>333</ele>
        <time>2018-08-16T09:16:48Z</time>
      </trkpt>
      <trkpt lat="45.97529" lon="4.63397">
        <ele>333</ele>
        <time>2018-08-16T09:16:51Z</time>
      </trkpt>
      <trkpt lat="45.97528" lon="4.63393">
        <ele>333</ele>
        <time>2018-08-16T09:16:52Z</time>
      </trkpt>
      <trkpt lat="45.97526" lon="4.63382">
        <ele>333</ele>
        <time>2018-08-16T09:16:55Z</time>
      </trkpt>
      <trkpt lat="45.97526" lon="4.63378">
        <ele>333</ele>
        <time>2018-08-16T09:16:56Z</time>
      </trkpt>
      <trkpt lat="45.97523" lon="4.63368">
        <ele>333</ele>
        <time>2018-08-16T09:16:59Z</time>
      </trkpt>
      <trkpt lat="45.97522" lon="4.63364">
        <ele>334</ele>
        <time>2018-08-16T09:17:00Z</time>
      </trkpt>
      <trkpt lat="45.9752" lon="4.63354">
        <ele>334</ele>
        <time>2018-08-16T09:17:03Z</time>
      </trkpt>
      <trkpt lat="45.9752" lon="4.63351">
        <ele>334</ele>
        <time>2018-08-16T09:17:04Z</time>
      </trkpt>
      <trkpt lat="45.97519" lon="4.6334">
        <ele>335</ele>
        <time>2018-08-16T09:17:07Z</time>
      </trkpt>
      <trkpt lat="45.97519" lon="4.63336">
        <ele>335</ele>
        <time>2018-08-16T09:17:08Z</time>
      </trkpt>
      <trkpt lat="45.97518" lon="4.63326">
        <ele>336</ele>
        <time>2018-08-16T09:17:11Z</time>
      </trkpt>
      <trkpt lat="45.97518" lon="4.63322">
        <ele>335</ele>
        <time>2018-08-16T09:17:12Z</time>
      </trkpt>
      <trkpt lat="45.97516" lon="4.63311">
        <ele>335</ele>
        <time>2018-08-16T09:17:15Z</time>
      </trkpt>
      <trkpt lat="45.97515" lon="4.63307">
        <ele>335</ele>
        <time>2018-08-16T09:17:16Z</time>
      </trkpt>
      <trkpt lat="45.97514" lon="4.63296">
        <ele>335</ele>
        <time>2018-08-16T09:17:19Z</time>
      </trkpt>
      <trkpt lat="45.97513" lon="4.63292">
        <ele>335</ele>
        <time>2018-08-16T09:17:20Z</time>
      </trkpt>
      <trkpt lat="45.97511" lon="4.63282">
        <ele>335</ele>
        <time>2018-08-16T09:17:23Z</time>
      </trkpt>
      <trkpt lat="45.97511" lon="4.63279">
        <ele>336</ele>
        <time>2018-08-16T09:17:24Z</time>
      </trkpt>
      <trkpt lat="45.97509" lon="4.63267">
        <ele>336</ele>
        <time>2018-08-16T09:17:27Z</time>
      </trkpt>
      <trkpt lat="45.97508" lon="4.63263">
        <ele>337</ele>
        <time>2018-08-16T09:17:28Z</time>
      </trkpt>
      <trkpt lat="45.97507" lon="4.63254">
        <ele>338</ele>
        <time>2018-08-16T09:17:30Z</time>
      </trkpt>
      <trkpt lat="45.97506" lon="4.6325">
        <ele>338</ele>
        <time>2018-08-16T09:17:31Z</time>
      </trkpt>
      <trkpt lat="45.97505" lon="4.63238">
        <ele>337</ele>
        <time>2018-08-16T09:17:34Z</time>
      </trkpt>
      <trkpt lat="45.97504" lon="4.63234">
        <ele>337</ele>
        <time>2018-08-16T09:17:35Z</time>
      </trkpt>
      <trkpt lat="45.97503" lon="4.63222">
        <ele>337</ele>
        <time>2018-08-16T09:17:38Z</time>
      </trkpt>
      <trkpt lat="45.97502" lon="4.63218">
        <ele>336</ele>
        <time>2018-08-16T09:17:39Z</time>
      </trkpt>
      <trkpt lat="45.97502" lon="4.63209">
        <ele>336</ele>
        <time>2018-08-16T09:17:41Z</time>
      </trkpt>
      <trkpt lat="45.97501" lon="4.63204">
        <ele>336</ele>
        <time>2018-08-16T09:17:42Z</time>
      </trkpt>
      <trkpt lat="45.975" lon="4.63192">
        <ele>337</ele>
        <time>2018-08-16T09:17:45Z</time>
      </trkpt>
      <trkpt lat="45.97499" lon="4.63188">
        <ele>340</ele>
        <time>2018-08-16T09:17:46Z</time>
      </trkpt>
      <trkpt lat="45.97498" lon="4.63178">
        <ele>340</ele>
        <time>2018-08-16T09:17:48Z</time>
      </trkpt>
      <trkpt lat="45.97497" lon="4.63174">
        <ele>340</ele>
        <time>2018-08-16T09:17:49Z</time>
      </trkpt>
      <trkpt lat="45.97497" lon="4.63165">
        <ele>340</ele>
        <time>2018-08-16T09:17:51Z</time>
      </trkpt>
      <trkpt lat="45.97496" lon="4.63161">
        <ele>340</ele>
        <time>2018-08-16T09:17:52Z</time>
      </trkpt>
      <trkpt lat="45.97495" lon="4.6315">
        <ele>341</ele>
        <time>2018-08-16T09:17:55Z</time>
      </trkpt>
      <trkpt lat="45.97495" lon="4.63146">
        <ele>341</ele>
        <time>2018-08-16T09:17:56Z</time>
      </trkpt>
      <trkpt lat="45.97494" lon="4.63135">
        <ele>342</ele>
        <time>2018-08-16T09:17:59Z</time>
      </trkpt>
      <trkpt lat="45.97494" lon="4.63131">
        <ele>342</ele>
        <time>2018-08-16T09:18:00Z</time>
      </trkpt>
      <trkpt lat="45.97493" lon="4.63119">
        <ele>342</ele>
        <time>2018-08-16T09:18:03Z</time>
      </trkpt>
      <trkpt lat="45.97492" lon="4.63114">
        <ele>342</ele>
        <time>2018-08-16T09:18:04Z</time>
      </trkpt>
      <trkpt lat="45.97491" lon="4.63102">
        <ele>342</ele>
        <time>2018-08-16T09:18:07Z</time>
      </trkpt>
      <trkpt lat="45.97491" lon="4.63097">
        <ele>342</ele>
        <time>2018-08-16T09:18:08Z</time>
      </trkpt>
      <trkpt lat="45.9749" lon="4.63085">
        <ele>341</ele>
        <time>2018-08-16T09:18:11Z</time>
      </trkpt>
      <trkpt lat="45.9749" lon="4.63081">
        <ele>342</ele>
        <time>2018-08-16T09:18:12Z</time>
      </trkpt>
      <trkpt lat="45.97489" lon="4.63068">
        <ele>343</ele>
        <time>2018-08-16T09:18:15Z</time>
      </trkpt>
      <trkpt lat="45.97489" lon="4.63064">
        <ele>343</ele>
        <time>2018-08-16T09:18:16Z</time>
      </trkpt>
      <trkpt lat="45.97487" lon="4.63052">
        <ele>344</ele>
        <time>2018-08-16T09:18:17Z</time>
      </trkpt>
      <trkpt lat="45.97487" lon="4.6305">
        <ele>344</ele>
        <time>2018-08-16T09:18:18Z</time>
      </trkpt>
      <trkpt lat="45.97485" lon="4.63041">
        <ele>344</ele>
        <time>2018-08-16T09:18:21Z</time>
      </trkpt>
      <trkpt lat="45.97484" lon="4.63037">
        <ele>344</ele>
        <time>2018-08-16T09:18:22Z</time>
      </trkpt>
      <trkpt lat="45.97481" lon="4.63026">
        <ele>345</ele>
        <time>2018-08-16T09:18:25Z</time>
      </trkpt>
      <trkpt lat="45.9748" lon="4.63022">
        <ele>345</ele>
        <time>2018-08-16T09:18:26Z</time>
      </trkpt>
      <trkpt lat="45.97478" lon="4.63013">
        <ele>345</ele>
        <time>2018-08-16T09:18:28Z</time>
      </trkpt>
      <trkpt lat="45.97477" lon="4.63009">
        <ele>345</ele>
        <time>2018-08-16T09:18:29Z</time>
      </trkpt>
      <trkpt lat="45.97474" lon="4.62999">
        <ele>345</ele>
        <time>2018-08-16T09:18:31Z</time>
      </trkpt>
      <trkpt lat="45.97474" lon="4.62995">
        <ele>345</ele>
        <time>2018-08-16T09:18:32Z</time>
      </trkpt>
      <trkpt lat="45.97472" lon="4.62986">
        <ele>345</ele>
        <time>2018-08-16T09:18:34Z</time>
      </trkpt>
      <trkpt lat="45.97471" lon="4.62982">
        <ele>345</ele>
        <time>2018-08-16T09:18:35Z</time>
      </trkpt>
      <trkpt lat="45.97469" lon="4.62973">
        <ele>345</ele>
        <time>2018-08-16T09:18:37Z</time>
      </trkpt>
      <trkpt lat="45.97468" lon="4.62969">
        <ele>345</ele>
        <time>2018-08-16T09:18:38Z</time>
      </trkpt>
      <trkpt lat="45.97466" lon="4.6296">
        <ele>345</ele>
        <time>2018-08-16T09:18:40Z</time>
      </trkpt>
      <trkpt lat="45.97465" lon="4.62956">
        <ele>345</ele>
        <time>2018-08-16T09:18:41Z</time>
      </trkpt>
      <trkpt lat="45.97463" lon="4.62948">
        <ele>345</ele>
        <time>2018-08-16T09:18:43Z</time>
      </trkpt>
      <trkpt lat="45.97461" lon="4.62943">
        <ele>345</ele>
        <time>2018-08-16T09:18:44Z</time>
      </trkpt>
      <trkpt lat="45.97459" lon="4.62935">
        <ele>345</ele>
        <time>2018-08-16T09:18:46Z</time>
      </trkpt>
      <trkpt lat="45.97458" lon="4.62931">
        <ele>345</ele>
        <time>2018-08-16T09:18:47Z</time>
      </trkpt>
      <trkpt lat="45.97456" lon="4.62923">
        <ele>345</ele>
        <time>2018-08-16T09:18:49Z</time>
      </trkpt>
      <trkpt lat="45.97455" lon="4.62918">
        <ele>345</ele>
        <time>2018-08-16T09:18:50Z</time>
      </trkpt>
      <trkpt lat="45.97454" lon="4.6291">
        <ele>345</ele>
        <time>2018-08-16T09:18:52Z</time>
      </trkpt>
      <trkpt lat="45.97453" lon="4.62905">
        <ele>346</ele>
        <time>2018-08-16T09:18:53Z</time>
      </trkpt>
      <trkpt lat="45.97453" lon="4.62897">
        <ele>346</ele>
        <time>2018-08-16T09:18:55Z</time>
      </trkpt>
      <trkpt lat="45.97453" lon="4.62892">
        <ele>346</ele>
        <time>2018-08-16T09:18:56Z</time>
      </trkpt>
      <trkpt lat="45.97453" lon="4.6288">
        <ele>346</ele>
        <time>2018-08-16T09:18:59Z</time>
      </trkpt>
      <trkpt lat="45.97453" lon="4.62875">
        <ele>346</ele>
        <time>2018-08-16T09:19:00Z</time>
      </trkpt>
      <trkpt lat="45.97452" lon="4.62863">
        <ele>346</ele>
        <time>2018-08-16T09:19:03Z</time>
      </trkpt>
      <trkpt lat="45.97451" lon="4.62858">
        <ele>346</ele>
        <time>2018-08-16T09:19:04Z</time>
      </trkpt>
      <trkpt lat="45.9745" lon="4.62846">
        <ele>346</ele>
        <time>2018-08-16T09:19:07Z</time>
      </trkpt>
      <trkpt lat="45.97449" lon="4.62843">
        <ele>346</ele>
        <time>2018-08-16T09:19:08Z</time>
      </trkpt>
      <trkpt lat="45.97446" lon="4.62831">
        <ele>347</ele>
        <time>2018-08-16T09:19:11Z</time>
      </trkpt>
      <trkpt lat="45.97445" lon="4.62827">
        <ele>347</ele>
        <time>2018-08-16T09:19:12Z</time>
      </trkpt>
      <trkpt lat="45.97443" lon="4.62815">
        <ele>347</ele>
        <time>2018-08-16T09:19:15Z</time>
      </trkpt>
      <trkpt lat="45.97442" lon="4.62812">
        <ele>347</ele>
        <time>2018-08-16T09:19:16Z</time>
      </trkpt>
      <trkpt lat="45.97439" lon="4.628">
        <ele>347</ele>
        <time>2018-08-16T09:19:19Z</time>
      </trkpt>
      <trkpt lat="45.97438" lon="4.62797">
        <ele>348</ele>
        <time>2018-08-16T09:19:20Z</time>
      </trkpt>
      <trkpt lat="45.97435" lon="4.62786">
        <ele>348</ele>
        <time>2018-08-16T09:19:23Z</time>
      </trkpt>
      <trkpt lat="45.97434" lon="4.62783">
        <ele>348</ele>
        <time>2018-08-16T09:19:24Z</time>
      </trkpt>
      <trkpt lat="45.97431" lon="4.62772">
        <ele>349</ele>
        <time>2018-08-16T09:19:27Z</time>
      </trkpt>
      <trkpt lat="45.9743" lon="4.62768">
        <ele>349</ele>
        <time>2018-08-16T09:19:28Z</time>
      </trkpt>
      <trkpt lat="45.97428" lon="4.62756">
        <ele>350</ele>
        <time>2018-08-16T09:19:31Z</time>
      </trkpt>
      <trkpt lat="45.97428" lon="4.62753">
        <ele>350</ele>
        <time>2018-08-16T09:19:32Z</time>
      </trkpt>
      <trkpt lat="45.97425" lon="4.62742">
        <ele>350</ele>
        <time>2018-08-16T09:19:35Z</time>
      </trkpt>
      <trkpt lat="45.97424" lon="4.62738">
        <ele>350</ele>
        <time>2018-08-16T09:19:36Z</time>
      </trkpt>
      <trkpt lat="45.97422" lon="4.62728">
        <ele>350</ele>
        <time>2018-08-16T09:19:39Z</time>
      </trkpt>
      <trkpt lat="45.97421" lon="4.62724">
        <ele>350</ele>
        <time>2018-08-16T09:19:40Z</time>
      </trkpt>
      <trkpt lat="45.97419" lon="4.62713">
        <ele>350</ele>
        <time>2018-08-16T09:19:43Z</time>
      </trkpt>
      <trkpt lat="45.97418" lon="4.62709">
        <ele>350</ele>
        <time>2018-08-16T09:19:44Z</time>
      </trkpt>
      <trkpt lat="45.97415" lon="4.62698">
        <ele>354</ele>
        <time>2018-08-16T09:19:47Z</time>
      </trkpt>
      <trkpt lat="45.97414" lon="4.62694">
        <ele>354</ele>
        <time>2018-08-16T09:19:48Z</time>
      </trkpt>
      <trkpt lat="45.97412" lon="4.62683">
        <ele>354</ele>
        <time>2018-08-16T09:19:51Z</time>
      </trkpt>
      <trkpt lat="45.97411" lon="4.6268">
        <ele>354</ele>
        <time>2018-08-16T09:19:52Z</time>
      </trkpt>
      <trkpt lat="45.97409" lon="4.62671">
        <ele>353</ele>
        <time>2018-08-16T09:19:55Z</time>
      </trkpt>
      <trkpt lat="45.97408" lon="4.62666">
        <ele>354</ele>
        <time>2018-08-16T09:19:56Z</time>
      </trkpt>
      <trkpt lat="45.97406" lon="4.62653">
        <ele>355</ele>
        <time>2018-08-16T09:19:59Z</time>
      </trkpt>
      <trkpt lat="45.97406" lon="4.62649">
        <ele>355</ele>
        <time>2018-08-16T09:20:00Z</time>
      </trkpt>
      <trkpt lat="45.97404" lon="4.62638">
        <ele>356</ele>
        <time>2018-08-16T09:20:03Z</time>
      </trkpt>
      <trkpt lat="45.97403" lon="4.62635">
        <ele>356</ele>
        <time>2018-08-16T09:20:04Z</time>
      </trkpt>
      <trkpt lat="45.974" lon="4.62624">
        <ele>357</ele>
        <time>2018-08-16T09:20:07Z</time>
      </trkpt>
      <trkpt lat="45.97399" lon="4.6262">
        <ele>357</ele>
        <time>2018-08-16T09:20:08Z</time>
      </trkpt>
      <trkpt lat="45.97396" lon="4.62609">
        <ele>357</ele>
        <time>2018-08-16T09:20:11Z</time>
      </trkpt>
      <trkpt lat="45.97396" lon="4.62606">
        <ele>357</ele>
        <time>2018-08-16T09:20:12Z</time>
      </trkpt>
      <trkpt lat="45.97396" lon="4.62595">
        <ele>357</ele>
        <time>2018-08-16T09:20:15Z</time>
      </trkpt>
      <trkpt lat="45.97395" lon="4.62591">
        <ele>357</ele>
        <time>2018-08-16T09:20:16Z</time>
      </trkpt>
      <trkpt lat="45.97395" lon="4.6258">
        <ele>359</ele>
        <time>2018-08-16T09:20:19Z</time>
      </trkpt>
      <trkpt lat="45.97395" lon="4.62576">
        <ele>359</ele>
        <time>2018-08-16T09:20:20Z</time>
      </trkpt>
      <trkpt lat="45.97395" lon="4.62566">
        <ele>360</ele>
        <time>2018-08-16T09:20:23Z</time>
      </trkpt>
      <trkpt lat="45.97395" lon="4.62562">
        <ele>360</ele>
        <time>2018-08-16T09:20:24Z</time>
      </trkpt>
      <trkpt lat="45.97395" lon="4.62551">
        <ele>360</ele>
        <time>2018-08-16T09:20:27Z</time>
      </trkpt>
      <trkpt lat="45.97395" lon="4.62547">
        <ele>360</ele>
        <time>2018-08-16T09:20:28Z</time>
      </trkpt>
      <trkpt lat="45.97396" lon="4.62536">
        <ele>361</ele>
        <time>2018-08-16T09:20:31Z</time>
      </trkpt>
      <trkpt lat="45.97396" lon="4.62532">
        <ele>361</ele>
        <time>2018-08-16T09:20:32Z</time>
      </trkpt>
      <trkpt lat="45.97398" lon="4.62521">
        <ele>361</ele>
        <time>2018-08-16T09:20:35Z</time>
      </trkpt>
      <trkpt lat="45.97399" lon="4.62516">
        <ele>361</ele>
        <time>2018-08-16T09:20:36Z</time>
      </trkpt>
      <trkpt lat="45.97401" lon="4.62504">
        <ele>360</ele>
        <time>2018-08-16T09:20:39Z</time>
      </trkpt>
      <trkpt lat="45.97401" lon="4.625">
        <ele>360</ele>
        <time>2018-08-16T09:20:40Z</time>
      </trkpt>
      <trkpt lat="45.97403" lon="4.62488">
        <ele>362</ele>
        <time>2018-08-16T09:20:43Z</time>
      </trkpt>
      <trkpt lat="45.97404" lon="4.62485">
        <ele>363</ele>
        <time>2018-08-16T09:20:44Z</time>
      </trkpt>
      <trkpt lat="45.97406" lon="4.62474">
        <ele>363</ele>
        <time>2018-08-16T09:20:47Z</time>
      </trkpt>
      <trkpt lat="45.97406" lon="4.62471">
        <ele>364</ele>
        <time>2018-08-16T09:20:48Z</time>
      </trkpt>
      <trkpt lat="45.97409" lon="4.62461">
        <ele>364</ele>
        <time>2018-08-16T09:20:51Z</time>
      </trkpt>
      <trkpt lat="45.97409" lon="4.62458">
        <ele>364</ele>
        <time>2018-08-16T09:20:52Z</time>
      </trkpt>
      <trkpt lat="45.97412" lon="4.62449">
        <ele>364</ele>
        <time>2018-08-16T09:20:55Z</time>
      </trkpt>
      <trkpt lat="45.97413" lon="4.62446">
        <ele>364</ele>
        <time>2018-08-16T09:20:56Z</time>
      </trkpt>
      <trkpt lat="45.97415" lon="4.62436">
        <ele>364</ele>
        <time>2018-08-16T09:20:59Z</time>
      </trkpt>
      <trkpt lat="45.97415" lon="4.62433">
        <ele>364</ele>
        <time>2018-08-16T09:21:00Z</time>
      </trkpt>
      <trkpt lat="45.97418" lon="4.62422">
        <ele>362</ele>
        <time>2018-08-16T09:21:03Z</time>
      </trkpt>
      <trkpt lat="45.97418" lon="4.62418">
        <ele>362</ele>
        <time>2018-08-16T09:21:04Z</time>
      </trkpt>
      <trkpt lat="45.97421" lon="4.62407">
        <ele>362</ele>
        <time>2018-08-16T09:21:07Z</time>
      </trkpt>
      <trkpt lat="45.97421" lon="4.62404">
        <ele>362</ele>
        <time>2018-08-16T09:21:08Z</time>
      </trkpt>
      <trkpt lat="45.97423" lon="4.62394">
        <ele>362</ele>
        <time>2018-08-16T09:21:11Z</time>
      </trkpt>
      <trkpt lat="45.97423" lon="4.6239">
        <ele>362</ele>
        <time>2018-08-16T09:21:12Z</time>
      </trkpt>
      <trkpt lat="45.97423" lon="4.62379">
        <ele>362</ele>
        <time>2018-08-16T09:21:15Z</time>
      </trkpt>
      <trkpt lat="45.97423" lon="4.62375">
        <ele>363</ele>
        <time>2018-08-16T09:21:16Z</time>
      </trkpt>
      <trkpt lat="45.97423" lon="4.62365">
        <ele>363</ele>
        <time>2018-08-16T09:21:19Z</time>
      </trkpt>
      <trkpt lat="45.97423" lon="4.62362">
        <ele>363</ele>
        <time>2018-08-16T09:21:20Z</time>
      </trkpt>
      <trkpt lat="45.97424" lon="4.62349">
        <ele>365</ele>
        <time>2018-08-16T09:21:24Z</time>
      </trkpt>
      <trkpt lat="45.97424" lon="4.62346">
        <ele>365</ele>
        <time>2018-08-16T09:21:25Z</time>
      </trkpt>
      <trkpt lat="45.97424" lon="4.62336">
        <ele>366</ele>
        <time>2018-08-16T09:21:28Z</time>
      </trkpt>
      <trkpt lat="45.97424" lon="4.62333">
        <ele>367</ele>
        <time>2018-08-16T09:21:29Z</time>
      </trkpt>
      <trkpt lat="45.97424" lon="4.62322">
        <ele>367</ele>
        <time>2018-08-16T09:21:32Z</time>
      </trkpt>
      <trkpt lat="45.97425" lon="4.62319">
        <ele>367</ele>
        <time>2018-08-16T09:21:33Z</time>
      </trkpt>
      <trkpt lat="45.97426" lon="4.62309">
        <ele>367</ele>
        <time>2018-08-16T09:21:36Z</time>
      </trkpt>
      <trkpt lat="45.97426" lon="4.62306">
        <ele>367</ele>
        <time>2018-08-16T09:21:37Z</time>
      </trkpt>
      <trkpt lat="45.97427" lon="4.62293">
        <ele>367</ele>
        <time>2018-08-16T09:21:41Z</time>
      </trkpt>
      <trkpt lat="45.97427" lon="4.6229">
        <ele>367</ele>
        <time>2018-08-16T09:21:42Z</time>
      </trkpt>
      <trkpt lat="45.97428" lon="4.62279">
        <ele>367</ele>
        <time>2018-08-16T09:21:45Z</time>
      </trkpt>
      <trkpt lat="45.97429" lon="4.62276">
        <ele>367</ele>
        <time>2018-08-16T09:21:46Z</time>
      </trkpt>
      <trkpt lat="45.97432" lon="4.62266">
        <ele>368</ele>
        <time>2018-08-16T09:21:49Z</time>
      </trkpt>
      <trkpt lat="45.97433" lon="4.62263">
        <ele>368</ele>
        <time>2018-08-16T09:21:50Z</time>
      </trkpt>
      <trkpt lat="45.97435" lon="4.62253">
        <ele>368</ele>
        <time>2018-08-16T09:21:54Z</time>
      </trkpt>
      <trkpt lat="45.97435" lon="4.6225">
        <ele>368</ele>
        <time>2018-08-16T09:21:55Z</time>
      </trkpt>
      <trkpt lat="45.97436" lon="4.6224">
        <ele>370</ele>
        <time>2018-08-16T09:21:58Z</time>
      </trkpt>
      <trkpt lat="45.97437" lon="4.62237">
        <ele>370</ele>
        <time>2018-08-16T09:21:59Z</time>
      </trkpt>
      <trkpt lat="45.97438" lon="4.62227">
        <ele>370</ele>
        <time>2018-08-16T09:22:02Z</time>
      </trkpt>
      <trkpt lat="45.97438" lon="4.62223">
        <ele>370</ele>
        <time>2018-08-16T09:22:03Z</time>
      </trkpt>
      <trkpt lat="45.97439" lon="4.62213">
        <ele>370</ele>
        <time>2018-08-16T09:22:06Z</time>
      </trkpt>
      <trkpt lat="45.97439" lon="4.6221">
        <ele>370</ele>
        <time>2018-08-16T09:22:07Z</time>
      </trkpt>
      <trkpt lat="45.9744" lon="4.622">
        <ele>371</ele>
        <time>2018-08-16T09:22:10Z</time>
      </trkpt>
      <trkpt lat="45.9744" lon="4.62196">
        <ele>371</ele>
        <time>2018-08-16T09:22:11Z</time>
      </trkpt>
      <trkpt lat="45.97441" lon="4.62185">
        <ele>371</ele>
        <time>2018-08-16T09:22:14Z</time>
      </trkpt>
      <trkpt lat="45.97441" lon="4.62182">
        <ele>371</ele>
        <time>2018-08-16T09:22:15Z</time>
      </trkpt>
      <trkpt lat="45.97442" lon="4.62171">
        <ele>372</ele>
        <time>2018-08-16T09:22:18Z</time>
      </trkpt>
      <trkpt lat="45.97442" lon="4.62168">
        <ele>372</ele>
        <time>2018-08-16T09:22:19Z</time>
      </trkpt>
      <trkpt lat="45.97442" lon="4.62158">
        <ele>375</ele>
        <time>2018-08-16T09:22:22Z</time>
      </trkpt>
      <trkpt lat="45.97443" lon="4.62154">
        <ele>375</ele>
        <time>2018-08-16T09:22:23Z</time>
      </trkpt>
      <trkpt lat="45.97443" lon="4.62145">
        <ele>375</ele>
        <time>2018-08-16T09:22:26Z</time>
      </trkpt>
      <trkpt lat="45.97444" lon="4.62141">
        <ele>375</ele>
        <time>2018-08-16T09:22:27Z</time>
      </trkpt>
      <trkpt lat="45.97444" lon="4.62129">
        <ele>376</ele>
        <time>2018-08-16T09:22:31Z</time>
      </trkpt>
      <trkpt lat="45.97444" lon="4.62126">
        <ele>376</ele>
        <time>2018-08-16T09:22:32Z</time>
      </trkpt>
      <trkpt lat="45.97445" lon="4.62114">
        <ele>376</ele>
        <time>2018-08-16T09:22:36Z</time>
      </trkpt>
      <trkpt lat="45.97445" lon="4.62111">
        <ele>376</ele>
        <time>2018-08-16T09:22:37Z</time>
      </trkpt>
      <trkpt lat="45.97446" lon="4.62101">
        <ele>377</ele>
        <time>2018-08-16T09:22:40Z</time>
      </trkpt>
      <trkpt lat="45.97447" lon="4.62097">
        <ele>377</ele>
        <time>2018-08-16T09:22:41Z</time>
      </trkpt>
      <trkpt lat="45.97449" lon="4.62086">
        <ele>377</ele>
        <time>2018-08-16T09:22:45Z</time>
      </trkpt>
      <trkpt lat="45.97449" lon="4.62083">
        <ele>379</ele>
        <time>2018-08-16T09:22:46Z</time>
      </trkpt>
      <trkpt lat="45.97448" lon="4.62072">
        <ele>379</ele>
        <time>2018-08-16T09:22:50Z</time>
      </trkpt>
      <trkpt lat="45.97448" lon="4.62069">
        <ele>379</ele>
        <time>2018-08-16T09:22:51Z</time>
      </trkpt>
      <trkpt lat="45.97447" lon="4.62057">
        <ele>379</ele>
        <time>2018-08-16T09:22:55Z</time>
      </trkpt>
      <trkpt lat="45.97447" lon="4.62053">
        <ele>379</ele>
        <time>2018-08-16T09:22:56Z</time>
      </trkpt>
      <trkpt lat="45.97447" lon="4.62042">
        <ele>379</ele>
        <time>2018-08-16T09:22:59Z</time>
      </trkpt>
      <trkpt lat="45.97447" lon="4.62038">
        <ele>379</ele>
        <time>2018-08-16T09:23:00Z</time>
      </trkpt>
      <trkpt lat="45.97448" lon="4.62028">
        <ele>379</ele>
        <time>2018-08-16T09:23:03Z</time>
      </trkpt>
      <trkpt lat="45.97448" lon="4.62024">
        <ele>379</ele>
        <time>2018-08-16T09:23:04Z</time>
      </trkpt>
      <trkpt lat="45.97448" lon="4.62014">
        <ele>379</ele>
        <time>2018-08-16T09:23:07Z</time>
      </trkpt>
      <trkpt lat="45.97448" lon="4.6201">
        <ele>379</ele>
        <time>2018-08-16T09:23:08Z</time>
      </trkpt>
      <trkpt lat="45.97448" lon="4.62">
        <ele>379</ele>
        <time>2018-08-16T09:23:11Z</time>
      </trkpt>
      <trkpt lat="45.97448" lon="4.61997">
        <ele>380</ele>
        <time>2018-08-16T09:23:12Z</time>
      </trkpt>
      <trkpt lat="45.97448" lon="4.61984">
        <ele>380</ele>
        <time>2018-08-16T09:23:16Z</time>
      </trkpt>
      <trkpt lat="45.97448" lon="4.61981">
        <ele>380</ele>
        <time>2018-08-16T09:23:17Z</time>
      </trkpt>
      <trkpt lat="45.97447" lon="4.61971">
        <ele>380</ele>
        <time>2018-08-16T09:23:20Z</time>
      </trkpt>
      <trkpt lat="45.97447" lon="4.61968">
        <ele>380</ele>
        <time>2018-08-16T09:23:21Z</time>
      </trkpt>
      <trkpt lat="45.97446" lon="4.61957">
        <ele>380</ele>
        <time>2018-08-16T09:23:24Z</time>
      </trkpt>
      <trkpt lat="45.97446" lon="4.61954">
        <ele>380</ele>
        <time>2018-08-16T09:23:25Z</time>
      </trkpt>
      <trkpt lat="45.97445" lon="4.61943">
        <ele>381</ele>
        <time>2018-08-16T09:23:28Z</time>
      </trkpt>
      <trkpt lat="45.97445" lon="4.6194">
        <ele>381</ele>
        <time>2018-08-16T09:23:29Z</time>
      </trkpt>
      <trkpt lat="45.97444" lon="4.6193">
        <ele>381</ele>
        <time>2018-08-16T09:23:32Z</time>
      </trkpt>
      <trkpt lat="45.97444" lon="4.61926">
        <ele>381</ele>
        <time>2018-08-16T09:23:33Z</time>
      </trkpt>
      <trkpt lat="45.97442" lon="4.61915">
        <ele>383</ele>
        <time>2018-08-16T09:23:36Z</time>
      </trkpt>
      <trkpt lat="45.97441" lon="4.61911">
        <ele>383</ele>
        <time>2018-08-16T09:23:37Z</time>
      </trkpt>
      <trkpt lat="45.9744" lon="4.619">
        <ele>383</ele>
        <time>2018-08-16T09:23:40Z</time>
      </trkpt>
      <trkpt lat="45.9744" lon="4.61896">
        <ele>383</ele>
        <time>2018-08-16T09:23:41Z</time>
      </trkpt>
      <trkpt lat="45.97439" lon="4.61886">
        <ele>383</ele>
        <time>2018-08-16T09:23:44Z</time>
      </trkpt>
      <trkpt lat="45.97439" lon="4.61881">
        <ele>383</ele>
        <time>2018-08-16T09:23:45Z</time>
      </trkpt>
      <trkpt lat="45.97438" lon="4.6187">
        <ele>384</ele>
        <time>2018-08-16T09:23:48Z</time>
      </trkpt>
      <trkpt lat="45.97437" lon="4.61867">
        <ele>384</ele>
        <time>2018-08-16T09:23:49Z</time>
      </trkpt>
      <trkpt lat="45.97437" lon="4.61855">
        <ele>384</ele>
        <time>2018-08-16T09:23:53Z</time>
      </trkpt>
      <trkpt lat="45.97437" lon="4.61852">
        <ele>384</ele>
        <time>2018-08-16T09:23:54Z</time>
      </trkpt>
      <trkpt lat="45.97436" lon="4.6184">
        <ele>385</ele>
        <time>2018-08-16T09:23:58Z</time>
      </trkpt>
      <trkpt lat="45.97436" lon="4.61836">
        <ele>385</ele>
        <time>2018-08-16T09:23:59Z</time>
      </trkpt>
      <trkpt lat="45.97437" lon="4.61826">
        <ele>386</ele>
        <time>2018-08-16T09:24:02Z</time>
      </trkpt>
      <trkpt lat="45.97438" lon="4.61822">
        <ele>386</ele>
        <time>2018-08-16T09:24:03Z</time>
      </trkpt>
      <trkpt lat="45.97441" lon="4.61813">
        <ele>386</ele>
        <time>2018-08-16T09:24:06Z</time>
      </trkpt>
      <trkpt lat="45.97442" lon="4.61809">
        <ele>386</ele>
        <time>2018-08-16T09:24:07Z</time>
      </trkpt>
      <trkpt lat="45.97443" lon="4.618">
        <ele>386</ele>
        <time>2018-08-16T09:24:10Z</time>
      </trkpt>
      <trkpt lat="45.97444" lon="4.61797">
        <ele>387</ele>
        <time>2018-08-16T09:24:11Z</time>
      </trkpt>
      <trkpt lat="45.97447" lon="4.61787">
        <ele>387</ele>
        <time>2018-08-16T09:24:14Z</time>
      </trkpt>
      <trkpt lat="45.97448" lon="4.61784">
        <ele>387</ele>
        <time>2018-08-16T09:24:15Z</time>
      </trkpt>
      <trkpt lat="45.97451" lon="4.61775">
        <ele>387</ele>
        <time>2018-08-16T09:24:18Z</time>
      </trkpt>
      <trkpt lat="45.97452" lon="4.61772">
        <ele>387</ele>
        <time>2018-08-16T09:24:19Z</time>
      </trkpt>
      <trkpt lat="45.97454" lon="4.61762">
        <ele>387</ele>
        <time>2018-08-16T09:24:22Z</time>
      </trkpt>
      <trkpt lat="45.97454" lon="4.61759">
        <ele>387</ele>
        <time>2018-08-16T09:24:23Z</time>
      </trkpt>
      <trkpt lat="45.97457" lon="4.6175">
        <ele>389</ele>
        <time>2018-08-16T09:24:26Z</time>
      </trkpt>
      <trkpt lat="45.97458" lon="4.61746">
        <ele>389</ele>
        <time>2018-08-16T09:24:27Z</time>
      </trkpt>
      <trkpt lat="45.97459" lon="4.61736">
        <ele>389</ele>
        <time>2018-08-16T09:24:30Z</time>
      </trkpt>
      <trkpt lat="45.9746" lon="4.61732">
        <ele>389</ele>
        <time>2018-08-16T09:24:31Z</time>
      </trkpt>
      <trkpt lat="45.97462" lon="4.61721">
        <ele>389</ele>
        <time>2018-08-16T09:24:34Z</time>
      </trkpt>
      <trkpt lat="45.97462" lon="4.61717">
        <ele>390</ele>
        <time>2018-08-16T09:24:35Z</time>
      </trkpt>
      <trkpt lat="45.97464" lon="4.61706">
        <ele>390</ele>
        <time>2018-08-16T09:24:38Z</time>
      </trkpt>
      <trkpt lat="45.97465" lon="4.61703">
        <ele>390</ele>
        <time>2018-08-16T09:24:39Z</time>
      </trkpt>
      <trkpt lat="45.97466" lon="4.61693">
        <ele>390</ele>
        <time>2018-08-16T09:24:42Z</time>
      </trkpt>
      <trkpt lat="45.97466" lon="4.61689">
        <ele>390</ele>
        <time>2018-08-16T09:24:43Z</time>
      </trkpt>
      <trkpt lat="45.97467" lon="4.61678">
        <ele>390</ele>
        <time>2018-08-16T09:24:47Z</time>
      </trkpt>
      <trkpt lat="45.97467" lon="4.61676">
        <ele>390</ele>
        <time>2018-08-16T09:24:48Z</time>
      </trkpt>
      <trkpt lat="45.97468" lon="4.61664">
        <ele>392</ele>
        <time>2018-08-16T09:24:52Z</time>
      </trkpt>
      <trkpt lat="45.97468" lon="4.6166">
        <ele>392</ele>
        <time>2018-08-16T09:24:53Z</time>
      </trkpt>
      <trkpt lat="45.97468" lon="4.61648">
        <ele>393</ele>
        <time>2018-08-16T09:24:57Z</time>
      </trkpt>
      <trkpt lat="45.97469" lon="4.61645">
        <ele>393</ele>
        <time>2018-08-16T09:24:58Z</time>
      </trkpt>
      <trkpt lat="45.9747" lon="4.61633">
        <ele>393</ele>
        <time>2018-08-16T09:25:02Z</time>
      </trkpt>
      <trkpt lat="45.9747" lon="4.61629">
        <ele>393</ele>
        <time>2018-08-16T09:25:03Z</time>
      </trkpt>
      <trkpt lat="45.97471" lon="4.61618">
        <ele>393</ele>
        <time>2018-08-16T09:25:06Z</time>
      </trkpt>
      <trkpt lat="45.97471" lon="4.61614">
        <ele>393</ele>
        <time>2018-08-16T09:25:07Z</time>
      </trkpt>
      <trkpt lat="45.97471" lon="4.61603">
        <ele>393</ele>
        <time>2018-08-16T09:25:10Z</time>
      </trkpt>
      <trkpt lat="45.97471" lon="4.61599">
        <ele>393</ele>
        <time>2018-08-16T09:25:11Z</time>
      </trkpt>
      <trkpt lat="45.97471" lon="4.61588">
        <ele>393</ele>
        <time>2018-08-16T09:25:14Z</time>
      </trkpt>
      <trkpt lat="45.9747" lon="4.61581">
        <ele>395</ele>
        <time>2018-08-16T09:25:15Z</time>
      </trkpt>
      <trkpt lat="45.97469" lon="4.61569">
        <ele>395</ele>
        <time>2018-08-16T09:25:18Z</time>
      </trkpt>
      <trkpt lat="45.97468" lon="4.61565">
        <ele>395</ele>
        <time>2018-08-16T09:25:19Z</time>
      </trkpt>
      <trkpt lat="45.97466" lon="4.61553">
        <ele>395</ele>
        <time>2018-08-16T09:25:22Z</time>
      </trkpt>
      <trkpt lat="45.97465" lon="4.6155">
        <ele>395</ele>
        <time>2018-08-16T09:25:23Z</time>
      </trkpt>
      <trkpt lat="45.97463" lon="4.61538">
        <ele>395</ele>
        <time>2018-08-16T09:25:26Z</time>
      </trkpt>
      <trkpt lat="45.97462" lon="4.61534">
        <ele>395</ele>
        <time>2018-08-16T09:25:27Z</time>
      </trkpt>
      <trkpt lat="45.97459" lon="4.6152">
        <ele>395</ele>
        <time>2018-08-16T09:25:28Z</time>
      </trkpt>
      <trkpt lat="45.97457" lon="4.61509">
        <ele>396</ele>
        <time>2018-08-16T09:25:30Z</time>
      </trkpt>
      <trkpt lat="45.97455" lon="4.61502">
        <ele>396</ele>
        <time>2018-08-16T09:25:31Z</time>
      </trkpt>
      <trkpt lat="45.97453" lon="4.61496">
        <ele>395</ele>
        <time>2018-08-16T09:25:32Z</time>
      </trkpt>
      <trkpt lat="45.97452" lon="4.6149">
        <ele>395</ele>
        <time>2018-08-16T09:25:33Z</time>
      </trkpt>
      <trkpt lat="45.9745" lon="4.61479">
        <ele>395</ele>
        <time>2018-08-16T09:25:35Z</time>
      </trkpt>
      <trkpt lat="45.97449" lon="4.61476">
        <ele>395</ele>
        <time>2018-08-16T09:25:36Z</time>
      </trkpt>
      <trkpt lat="45.97448" lon="4.61464">
        <ele>395</ele>
        <time>2018-08-16T09:25:38Z</time>
      </trkpt>
      <trkpt lat="45.97448" lon="4.61459">
        <ele>395</ele>
        <time>2018-08-16T09:25:39Z</time>
      </trkpt>
      <trkpt lat="45.97447" lon="4.61449">
        <ele>395</ele>
        <time>2018-08-16T09:25:41Z</time>
      </trkpt>
      <trkpt lat="45.97446" lon="4.61443">
        <ele>395</ele>
        <time>2018-08-16T09:25:42Z</time>
      </trkpt>
      <trkpt lat="45.97444" lon="4.61433">
        <ele>395</ele>
        <time>2018-08-16T09:25:44Z</time>
      </trkpt>
      <trkpt lat="45.97443" lon="4.61427">
        <ele>396</ele>
        <time>2018-08-16T09:25:45Z</time>
      </trkpt>
      <trkpt lat="45.97441" lon="4.61417">
        <ele>396</ele>
        <time>2018-08-16T09:25:47Z</time>
      </trkpt>
      <trkpt lat="45.9744" lon="4.61412">
        <ele>395</ele>
        <time>2018-08-16T09:25:48Z</time>
      </trkpt>
      <trkpt lat="45.97437" lon="4.61402">
        <ele>394</ele>
        <time>2018-08-16T09:25:50Z</time>
      </trkpt>
      <trkpt lat="45.97436" lon="4.61397">
        <ele>394</ele>
        <time>2018-08-16T09:25:51Z</time>
      </trkpt>
      <trkpt lat="45.97434" lon="4.61387">
        <ele>394</ele>
        <time>2018-08-16T09:25:53Z</time>
      </trkpt>
      <trkpt lat="45.97433" lon="4.61382">
        <ele>394</ele>
        <time>2018-08-16T09:25:54Z</time>
      </trkpt>
      <trkpt lat="45.9743" lon="4.61372">
        <ele>394</ele>
        <time>2018-08-16T09:25:56Z</time>
      </trkpt>
      <trkpt lat="45.97429" lon="4.61367">
        <ele>394</ele>
        <time>2018-08-16T09:25:57Z</time>
      </trkpt>
      <trkpt lat="45.97426" lon="4.61357">
        <ele>394</ele>
        <time>2018-08-16T09:25:59Z</time>
      </trkpt>
      <trkpt lat="45.97424" lon="4.61351">
        <ele>394</ele>
        <time>2018-08-16T09:26:00Z</time>
      </trkpt>
      <trkpt lat="45.9742" lon="4.6134">
        <ele>395</ele>
        <time>2018-08-16T09:26:02Z</time>
      </trkpt>
      <trkpt lat="45.97419" lon="4.61334">
        <ele>396</ele>
        <time>2018-08-16T09:26:03Z</time>
      </trkpt>
      <trkpt lat="45.97417" lon="4.61327">
        <ele>394</ele>
        <time>2018-08-16T09:26:04Z</time>
      </trkpt>
      <trkpt lat="45.97415" lon="4.61321">
        <ele>397</ele>
        <time>2018-08-16T09:26:05Z</time>
      </trkpt>
      <trkpt lat="45.97413" lon="4.61314">
        <ele>397</ele>
        <time>2018-08-16T09:26:06Z</time>
      </trkpt>
      <trkpt lat="45.97412" lon="4.61307">
        <ele>397</ele>
        <time>2018-08-16T09:26:07Z</time>
      </trkpt>
      <trkpt lat="45.9741" lon="4.613">
        <ele>397</ele>
        <time>2018-08-16T09:26:08Z</time>
      </trkpt>
      <trkpt lat="45.97411" lon="4.61293">
        <ele>397</ele>
        <time>2018-08-16T09:26:09Z</time>
      </trkpt>
      <trkpt lat="45.9741" lon="4.61285">
        <ele>397</ele>
        <time>2018-08-16T09:26:10Z</time>
      </trkpt>
      <trkpt lat="45.97407" lon="4.61277">
        <ele>396</ele>
        <time>2018-08-16T09:26:11Z</time>
      </trkpt>
      <trkpt lat="45.97406" lon="4.6127">
        <ele>396</ele>
        <time>2018-08-16T09:26:12Z</time>
      </trkpt>
      <trkpt lat="45.97407" lon="4.61263">
        <ele>395</ele>
        <time>2018-08-16T09:26:13Z</time>
      </trkpt>
      <trkpt lat="45.97405" lon="4.61256">
        <ele>394</ele>
        <time>2018-08-16T09:26:14Z</time>
      </trkpt>
      <trkpt lat="45.97404" lon="4.61249">
        <ele>393</ele>
        <time>2018-08-16T09:26:15Z</time>
      </trkpt>
      <trkpt lat="45.97404" lon="4.61243">
        <ele>394</ele>
        <time>2018-08-16T09:26:16Z</time>
      </trkpt>
      <trkpt lat="45.97403" lon="4.61236">
        <ele>394</ele>
        <time>2018-08-16T09:26:17Z</time>
      </trkpt>
      <trkpt lat="45.97402" lon="4.61229">
        <ele>394</ele>
        <time>2018-08-16T09:26:18Z</time>
      </trkpt>
      <trkpt lat="45.97402" lon="4.61223">
        <ele>395</ele>
        <time>2018-08-16T09:26:19Z</time>
      </trkpt>
      <trkpt lat="45.97402" lon="4.61215">
        <ele>395</ele>
        <time>2018-08-16T09:26:20Z</time>
      </trkpt>
      <trkpt lat="45.97399" lon="4.61209">
        <ele>395</ele>
        <time>2018-08-16T09:26:21Z</time>
      </trkpt>
      <trkpt lat="45.97399" lon="4.61202">
        <ele>394</ele>
        <time>2018-08-16T09:26:22Z</time>
      </trkpt>
      <trkpt lat="45.97396" lon="4.61194">
        <ele>394</ele>
        <time>2018-08-16T09:26:23Z</time>
      </trkpt>
      <trkpt lat="45.97396" lon="4.61182">
        <ele>394</ele>
        <time>2018-08-16T09:26:25Z</time>
      </trkpt>
      <trkpt lat="45.97397" lon="4.61176">
        <ele>393</ele>
        <time>2018-08-16T09:26:26Z</time>
      </trkpt>
      <trkpt lat="45.97398" lon="4.6117">
        <ele>393</ele>
        <time>2018-08-16T09:26:27Z</time>
      </trkpt>
      <trkpt lat="45.97399" lon="4.61163">
        <ele>394</ele>
        <time>2018-08-16T09:26:28Z</time>
      </trkpt>
      <trkpt lat="45.974" lon="4.61156">
        <ele>394</ele>
        <time>2018-08-16T09:26:29Z</time>
      </trkpt>
      <trkpt lat="45.974" lon="4.6115">
        <ele>395</ele>
        <time>2018-08-16T09:26:30Z</time>
      </trkpt>
      <trkpt lat="45.97402" lon="4.61144">
        <ele>395</ele>
        <time>2018-08-16T09:26:31Z</time>
      </trkpt>
      <trkpt lat="45.97404" lon="4.61138">
        <ele>396</ele>
        <time>2018-08-16T09:26:32Z</time>
      </trkpt>
      <trkpt lat="45.97405" lon="4.61131">
        <ele>396</ele>
        <time>2018-08-16T09:26:33Z</time>
      </trkpt>
      <trkpt lat="45.97409" lon="4.61125">
        <ele>397</ele>
        <time>2018-08-16T09:26:34Z</time>
      </trkpt>
      <trkpt lat="45.97411" lon="4.61113">
        <ele>397</ele>
        <time>2018-08-16T09:26:36Z</time>
      </trkpt>
      <trkpt lat="45.97412" lon="4.61106">
        <ele>397</ele>
        <time>2018-08-16T09:26:37Z</time>
      </trkpt>
      <trkpt lat="45.97414" lon="4.61094">
        <ele>395</ele>
        <time>2018-08-16T09:26:40Z</time>
      </trkpt>
      <trkpt lat="45.97417" lon="4.61086">
        <ele>392</ele>
        <time>2018-08-16T09:26:41Z</time>
      </trkpt>
      <trkpt lat="45.9742" lon="4.61081">
        <ele>393</ele>
        <time>2018-08-16T09:26:43Z</time>
      </trkpt>
      <trkpt lat="45.97423" lon="4.61071">
        <ele>392</ele>
        <time>2018-08-16T09:26:44Z</time>
      </trkpt>
      <trkpt lat="45.97425" lon="4.61058">
        <ele>392</ele>
        <time>2018-08-16T09:26:47Z</time>
      </trkpt>
      <trkpt lat="45.97426" lon="4.61055">
        <ele>392</ele>
        <time>2018-08-16T09:26:48Z</time>
      </trkpt>
      <trkpt lat="45.97426" lon="4.61052">
        <ele>392</ele>
        <time>2018-08-16T09:26:49Z</time>
      </trkpt>
      <trkpt lat="45.97428" lon="4.61042">
        <ele>393</ele>
        <time>2018-08-16T09:26:50Z</time>
      </trkpt>
      <trkpt lat="45.9743" lon="4.61033">
        <ele>394</ele>
        <time>2018-08-16T09:26:53Z</time>
      </trkpt>
      <trkpt lat="45.97431" lon="4.6103">
        <ele>394</ele>
        <time>2018-08-16T09:26:54Z</time>
      </trkpt>
      <trkpt lat="45.97432" lon="4.61027">
        <ele>394</ele>
        <time>2018-08-16T09:26:55Z</time>
      </trkpt>
      <trkpt lat="45.97436" lon="4.61016">
        <ele>395</ele>
        <time>2018-08-16T09:26:56Z</time>
      </trkpt>
      <trkpt lat="45.97439" lon="4.61007">
        <ele>396</ele>
        <time>2018-08-16T09:27:00Z</time>
      </trkpt>
      <trkpt lat="45.9744" lon="4.61003">
        <ele>396</ele>
        <time>2018-08-16T09:27:01Z</time>
      </trkpt>
      <trkpt lat="45.97443" lon="4.60995">
        <ele>399</ele>
        <time>2018-08-16T09:27:03Z</time>
      </trkpt>
      <trkpt lat="45.97444" lon="4.6099">
        <ele>399</ele>
        <time>2018-08-16T09:27:04Z</time>
      </trkpt>
      <trkpt lat="45.97447" lon="4.60977">
        <ele>398</ele>
        <time>2018-08-16T09:27:05Z</time>
      </trkpt>
      <trkpt lat="45.97448" lon="4.60968">
        <ele>398</ele>
        <time>2018-08-16T09:27:08Z</time>
      </trkpt>
      <trkpt lat="45.97449" lon="4.60964">
        <ele>398</ele>
        <time>2018-08-16T09:27:09Z</time>
      </trkpt>
      <trkpt lat="45.9745" lon="4.60955">
        <ele>398</ele>
        <time>2018-08-16T09:27:11Z</time>
      </trkpt>
      <trkpt lat="45.97451" lon="4.6095">
        <ele>398</ele>
        <time>2018-08-16T09:27:12Z</time>
      </trkpt>
      <trkpt lat="45.97453" lon="4.60936">
        <ele>399</ele>
        <time>2018-08-16T09:27:13Z</time>
      </trkpt>
      <trkpt lat="45.97455" lon="4.60925">
        <ele>399</ele>
        <time>2018-08-16T09:27:16Z</time>
      </trkpt>
      <trkpt lat="45.97456" lon="4.60921">
        <ele>398</ele>
        <time>2018-08-16T09:27:17Z</time>
      </trkpt>
      <trkpt lat="45.97458" lon="4.60909">
        <ele>401</ele>
        <time>2018-08-16T09:27:20Z</time>
      </trkpt>
      <trkpt lat="45.97459" lon="4.60905">
        <ele>401</ele>
        <time>2018-08-16T09:27:21Z</time>
      </trkpt>
      <trkpt lat="45.97462" lon="4.60894">
        <ele>401</ele>
        <time>2018-08-16T09:27:24Z</time>
      </trkpt>
      <trkpt lat="45.97463" lon="4.60889">
        <ele>401</ele>
        <time>2018-08-16T09:27:25Z</time>
      </trkpt>
      <trkpt lat="45.97465" lon="4.60879">
        <ele>401</ele>
        <time>2018-08-16T09:27:27Z</time>
      </trkpt>
      <trkpt lat="45.97465" lon="4.60874">
        <ele>401</ele>
        <time>2018-08-16T09:27:28Z</time>
      </trkpt>
      <trkpt lat="45.97468" lon="4.60862">
        <ele>401</ele>
        <time>2018-08-16T09:27:29Z</time>
      </trkpt>
      <trkpt lat="45.97468" lon="4.60859">
        <ele>401</ele>
        <time>2018-08-16T09:27:30Z</time>
      </trkpt>
      <trkpt lat="45.97469" lon="4.60856">
        <ele>401</ele>
        <time>2018-08-16T09:27:31Z</time>
      </trkpt>
      <trkpt lat="45.97471" lon="4.60846">
        <ele>401</ele>
        <time>2018-08-16T09:27:32Z</time>
      </trkpt>
      <trkpt lat="45.97473" lon="4.60835">
        <ele>400</ele>
        <time>2018-08-16T09:27:34Z</time>
      </trkpt>
      <trkpt lat="45.97474" lon="4.60832">
        <ele>402</ele>
        <time>2018-08-16T09:27:35Z</time>
      </trkpt>
      <trkpt lat="45.97476" lon="4.6082">
        <ele>402</ele>
        <time>2018-08-16T09:27:37Z</time>
      </trkpt>
      <trkpt lat="45.97477" lon="4.60815">
        <ele>402</ele>
        <time>2018-08-16T09:27:38Z</time>
      </trkpt>
      <trkpt lat="45.97479" lon="4.60803">
        <ele>403</ele>
        <time>2018-08-16T09:27:41Z</time>
      </trkpt>
      <trkpt lat="45.97479" lon="4.60799">
        <ele>403</ele>
        <time>2018-08-16T09:27:42Z</time>
      </trkpt>
      <trkpt lat="45.97482" lon="4.60789">
        <ele>403</ele>
        <time>2018-08-16T09:27:43Z</time>
      </trkpt>
      <trkpt lat="45.97483" lon="4.60784">
        <ele>403</ele>
        <time>2018-08-16T09:27:44Z</time>
      </trkpt>
      <trkpt lat="45.97486" lon="4.60779">
        <ele>402</ele>
        <time>2018-08-16T09:27:46Z</time>
      </trkpt>
      <trkpt lat="45.9749" lon="4.60771">
        <ele>402</ele>
        <time>2018-08-16T09:27:47Z</time>
      </trkpt>
      <trkpt lat="45.97493" lon="4.6076">
        <ele>401</ele>
        <time>2018-08-16T09:27:49Z</time>
      </trkpt>
      <trkpt lat="45.97494" lon="4.60754">
        <ele>400</ele>
        <time>2018-08-16T09:27:50Z</time>
      </trkpt>
      <trkpt lat="45.97497" lon="4.60743">
        <ele>400</ele>
        <time>2018-08-16T09:27:52Z</time>
      </trkpt>
      <trkpt lat="45.97499" lon="4.60737">
        <ele>401</ele>
        <time>2018-08-16T09:27:53Z</time>
      </trkpt>
      <trkpt lat="45.975" lon="4.6073">
        <ele>397</ele>
        <time>2018-08-16T09:27:54Z</time>
      </trkpt>
      <trkpt lat="45.97502" lon="4.60723">
        <ele>397</ele>
        <time>2018-08-16T09:27:55Z</time>
      </trkpt>
      <trkpt lat="45.97506" lon="4.60712">
        <ele>397</ele>
        <time>2018-08-16T09:27:57Z</time>
      </trkpt>
      <trkpt lat="45.97508" lon="4.60708">
        <ele>397</ele>
        <time>2018-08-16T09:27:58Z</time>
      </trkpt>
      <trkpt lat="45.97511" lon="4.60697">
        <ele>398</ele>
        <time>2018-08-16T09:28:02Z</time>
      </trkpt>
      <trkpt lat="45.97515" lon="4.60687">
        <ele>398</ele>
        <time>2018-08-16T09:28:03Z</time>
      </trkpt>
      <trkpt lat="45.97519" lon="4.60678">
        <ele>399</ele>
        <time>2018-08-16T09:28:05Z</time>
      </trkpt>
      <trkpt lat="45.97521" lon="4.60673">
        <ele>399</ele>
        <time>2018-08-16T09:28:06Z</time>
      </trkpt>
      <trkpt lat="45.97526" lon="4.60663">
        <ele>402</ele>
        <time>2018-08-16T09:28:08Z</time>
      </trkpt>
      <trkpt lat="45.97528" lon="4.60658">
        <ele>402</ele>
        <time>2018-08-16T09:28:09Z</time>
      </trkpt>
      <trkpt lat="45.97534" lon="4.6065">
        <ele>402</ele>
        <time>2018-08-16T09:28:11Z</time>
      </trkpt>
      <trkpt lat="45.97537" lon="4.60646">
        <ele>402</ele>
        <time>2018-08-16T09:28:12Z</time>
      </trkpt>
      <trkpt lat="45.97542" lon="4.60637">
        <ele>402</ele>
        <time>2018-08-16T09:28:14Z</time>
      </trkpt>
      <trkpt lat="45.97544" lon="4.60632">
        <ele>402</ele>
        <time>2018-08-16T09:28:15Z</time>
      </trkpt>
      <trkpt lat="45.97548" lon="4.60624">
        <ele>402</ele>
        <time>2018-08-16T09:28:18Z</time>
      </trkpt>
      <trkpt lat="45.97549" lon="4.60621">
        <ele>402</ele>
        <time>2018-08-16T09:28:19Z</time>
      </trkpt>
      <trkpt lat="45.97554" lon="4.60612">
        <ele>402</ele>
        <time>2018-08-16T09:28:20Z</time>
      </trkpt>
      <trkpt lat="45.97555" lon="4.6061">
        <ele>402</ele>
        <time>2018-08-16T09:28:21Z</time>
      </trkpt>
      <trkpt lat="45.97559" lon="4.60602">
        <ele>402</ele>
        <time>2018-08-16T09:28:23Z</time>
      </trkpt>
      <trkpt lat="45.9756" lon="4.60599">
        <ele>402</ele>
        <time>2018-08-16T09:28:24Z</time>
      </trkpt>
      <trkpt lat="45.97564" lon="4.6059">
        <ele>402</ele>
        <time>2018-08-16T09:28:27Z</time>
      </trkpt>
      <trkpt lat="45.97566" lon="4.60587">
        <ele>402</ele>
        <time>2018-08-16T09:28:28Z</time>
      </trkpt>
      <trkpt lat="45.9757" lon="4.60578">
        <ele>404</ele>
        <time>2018-08-16T09:28:31Z</time>
      </trkpt>
      <trkpt lat="45.97572" lon="4.60575">
        <ele>404</ele>
        <time>2018-08-16T09:28:32Z</time>
      </trkpt>
      <trkpt lat="45.97576" lon="4.60566">
        <ele>404</ele>
        <time>2018-08-16T09:28:35Z</time>
      </trkpt>
      <trkpt lat="45.97578" lon="4.60563">
        <ele>405</ele>
        <time>2018-08-16T09:28:36Z</time>
      </trkpt>
      <trkpt lat="45.97582" lon="4.60554">
        <ele>405</ele>
        <time>2018-08-16T09:28:39Z</time>
      </trkpt>
      <trkpt lat="45.97584" lon="4.60551">
        <ele>404</ele>
        <time>2018-08-16T09:28:40Z</time>
      </trkpt>
      <trkpt lat="45.97589" lon="4.60542">
        <ele>405</ele>
        <time>2018-08-16T09:28:43Z</time>
      </trkpt>
      <trkpt lat="45.9759" lon="4.60539">
        <ele>405</ele>
        <time>2018-08-16T09:28:44Z</time>
      </trkpt>
      <trkpt lat="45.97594" lon="4.60531">
        <ele>405</ele>
        <time>2018-08-16T09:28:47Z</time>
      </trkpt>
      <trkpt lat="45.97596" lon="4.60528">
        <ele>406</ele>
        <time>2018-08-16T09:28:48Z</time>
      </trkpt>
      <trkpt lat="45.976" lon="4.60518">
        <ele>406</ele>
        <time>2018-08-16T09:28:51Z</time>
      </trkpt>
      <trkpt lat="45.97601" lon="4.60515">
        <ele>406</ele>
        <time>2018-08-16T09:28:52Z</time>
      </trkpt>
      <trkpt lat="45.97606" lon="4.60505">
        <ele>406</ele>
        <time>2018-08-16T09:28:55Z</time>
      </trkpt>
      <trkpt lat="45.97608" lon="4.605">
        <ele>406</ele>
        <time>2018-08-16T09:28:56Z</time>
      </trkpt>
      <trkpt lat="45.97613" lon="4.6049">
        <ele>409</ele>
        <time>2018-08-16T09:28:59Z</time>
      </trkpt>
      <trkpt lat="45.97614" lon="4.60487">
        <ele>409</ele>
        <time>2018-08-16T09:29:00Z</time>
      </trkpt>
      <trkpt lat="45.97619" lon="4.60478">
        <ele>409</ele>
        <time>2018-08-16T09:29:03Z</time>
      </trkpt>
      <trkpt lat="45.9762" lon="4.60475">
        <ele>409</ele>
        <time>2018-08-16T09:29:04Z</time>
      </trkpt>
      <trkpt lat="45.97624" lon="4.60467">
        <ele>409</ele>
        <time>2018-08-16T09:29:07Z</time>
      </trkpt>
      <trkpt lat="45.97625" lon="4.60464">
        <ele>409</ele>
        <time>2018-08-16T09:29:08Z</time>
      </trkpt>
      <trkpt lat="45.9763" lon="4.60455">
        <ele>409</ele>
        <time>2018-08-16T09:29:12Z</time>
      </trkpt>
      <trkpt lat="45.9763" lon="4.60452">
        <ele>409</ele>
        <time>2018-08-16T09:29:13Z</time>
      </trkpt>
      <trkpt lat="45.97634" lon="4.60442">
        <ele>409</ele>
        <time>2018-08-16T09:29:17Z</time>
      </trkpt>
      <trkpt lat="45.97635" lon="4.60438">
        <ele>409</ele>
        <time>2018-08-16T09:29:18Z</time>
      </trkpt>
      <trkpt lat="45.97639" lon="4.6043">
        <ele>409</ele>
        <time>2018-08-16T09:29:21Z</time>
      </trkpt>
      <trkpt lat="45.9764" lon="4.60427">
        <ele>409</ele>
        <time>2018-08-16T09:29:22Z</time>
      </trkpt>
      <trkpt lat="45.97643" lon="4.60416">
        <ele>412</ele>
        <time>2018-08-16T09:29:25Z</time>
      </trkpt>
      <trkpt lat="45.97644" lon="4.60413">
        <ele>412</ele>
        <time>2018-08-16T09:29:26Z</time>
      </trkpt>
      <trkpt lat="45.97647" lon="4.60402">
        <ele>412</ele>
        <time>2018-08-16T09:29:29Z</time>
      </trkpt>
      <trkpt lat="45.97648" lon="4.60399">
        <ele>412</ele>
        <time>2018-08-16T09:29:30Z</time>
      </trkpt>
      <trkpt lat="45.9765" lon="4.60388">
        <ele>413</ele>
        <time>2018-08-16T09:29:33Z</time>
      </trkpt>
      <trkpt lat="45.97651" lon="4.60385">
        <ele>413</ele>
        <time>2018-08-16T09:29:34Z</time>
      </trkpt>
      <trkpt lat="45.97653" lon="4.60375">
        <ele>413</ele>
        <time>2018-08-16T09:29:37Z</time>
      </trkpt>
      <trkpt lat="45.97654" lon="4.60371">
        <ele>414</ele>
        <time>2018-08-16T09:29:38Z</time>
      </trkpt>
      <trkpt lat="45.97657" lon="4.60361">
        <ele>414</ele>
        <time>2018-08-16T09:29:41Z</time>
      </trkpt>
      <trkpt lat="45.97658" lon="4.60358">
        <ele>414</ele>
        <time>2018-08-16T09:29:42Z</time>
      </trkpt>
      <trkpt lat="45.9766" lon="4.60347">
        <ele>414</ele>
        <time>2018-08-16T09:29:45Z</time>
      </trkpt>
      <trkpt lat="45.97661" lon="4.60344">
        <ele>414</ele>
        <time>2018-08-16T09:29:46Z</time>
      </trkpt>
      <trkpt lat="45.97664" lon="4.60333">
        <ele>414</ele>
        <time>2018-08-16T09:29:49Z</time>
      </trkpt>
      <trkpt lat="45.97666" lon="4.60329">
        <ele>414</ele>
        <time>2018-08-16T09:29:50Z</time>
      </trkpt>
      <trkpt lat="45.97669" lon="4.60318">
        <ele>413</ele>
        <time>2018-08-16T09:29:53Z</time>
      </trkpt>
      <trkpt lat="45.9767" lon="4.60315">
        <ele>413</ele>
        <time>2018-08-16T09:29:54Z</time>
      </trkpt>
      <trkpt lat="45.97674" lon="4.60306">
        <ele>413</ele>
        <time>2018-08-16T09:29:57Z</time>
      </trkpt>
      <trkpt lat="45.97675" lon="4.60302">
        <ele>413</ele>
        <time>2018-08-16T09:29:58Z</time>
      </trkpt>
      <trkpt lat="45.97679" lon="4.60292">
        <ele>414</ele>
        <time>2018-08-16T09:30:01Z</time>
      </trkpt>
      <trkpt lat="45.97681" lon="4.60288">
        <ele>414</ele>
        <time>2018-08-16T09:30:02Z</time>
      </trkpt>
      <trkpt lat="45.97683" lon="4.6028">
        <ele>414</ele>
        <time>2018-08-16T09:30:04Z</time>
      </trkpt>
      <trkpt lat="45.97685" lon="4.60276">
        <ele>415</ele>
        <time>2018-08-16T09:30:05Z</time>
      </trkpt>
      <trkpt lat="45.97687" lon="4.60268">
        <ele>415</ele>
        <time>2018-08-16T09:30:07Z</time>
      </trkpt>
      <trkpt lat="45.97689" lon="4.60264">
        <ele>415</ele>
        <time>2018-08-16T09:30:08Z</time>
      </trkpt>
      <trkpt lat="45.97691" lon="4.60255">
        <ele>415</ele>
        <time>2018-08-16T09:30:10Z</time>
      </trkpt>
      <trkpt lat="45.97693" lon="4.60251">
        <ele>415</ele>
        <time>2018-08-16T09:30:11Z</time>
      </trkpt>
      <trkpt lat="45.97695" lon="4.60243">
        <ele>417</ele>
        <time>2018-08-16T09:30:13Z</time>
      </trkpt>
      <trkpt lat="45.97696" lon="4.60239">
        <ele>417</ele>
        <time>2018-08-16T09:30:14Z</time>
      </trkpt>
      <trkpt lat="45.97699" lon="4.60228">
        <ele>417</ele>
        <time>2018-08-16T09:30:17Z</time>
      </trkpt>
      <trkpt lat="45.977" lon="4.60224">
        <ele>417</ele>
        <time>2018-08-16T09:30:18Z</time>
      </trkpt>
      <trkpt lat="45.97704" lon="4.60214">
        <ele>417</ele>
        <time>2018-08-16T09:30:21Z</time>
      </trkpt>
      <trkpt lat="45.97706" lon="4.6021">
        <ele>417</ele>
        <time>2018-08-16T09:30:22Z</time>
      </trkpt>
      <trkpt lat="45.97709" lon="4.60202">
        <ele>417</ele>
        <time>2018-08-16T09:30:24Z</time>
      </trkpt>
      <trkpt lat="45.97711" lon="4.60199">
        <ele>417</ele>
        <time>2018-08-16T09:30:25Z</time>
      </trkpt>
      <trkpt lat="45.97715" lon="4.60188">
        <ele>417</ele>
        <time>2018-08-16T09:30:28Z</time>
      </trkpt>
      <trkpt lat="45.97716" lon="4.60185">
        <ele>417</ele>
        <time>2018-08-16T09:30:29Z</time>
      </trkpt>
      <trkpt lat="45.97719" lon="4.60174">
        <ele>417</ele>
        <time>2018-08-16T09:30:32Z</time>
      </trkpt>
      <trkpt lat="45.97721" lon="4.60171">
        <ele>417</ele>
        <time>2018-08-16T09:30:33Z</time>
      </trkpt>
      <trkpt lat="45.97724" lon="4.60161">
        <ele>419</ele>
        <time>2018-08-16T09:30:36Z</time>
      </trkpt>
      <trkpt lat="45.97725" lon="4.60158">
        <ele>419</ele>
        <time>2018-08-16T09:30:37Z</time>
      </trkpt>
      <trkpt lat="45.97729" lon="4.60146">
        <ele>419</ele>
        <time>2018-08-16T09:30:40Z</time>
      </trkpt>
      <trkpt lat="45.9773" lon="4.60142">
        <ele>419</ele>
        <time>2018-08-16T09:30:41Z</time>
      </trkpt>
      <trkpt lat="45.97734" lon="4.60131">
        <ele>419</ele>
        <time>2018-08-16T09:30:44Z</time>
      </trkpt>
      <trkpt lat="45.97735" lon="4.60127">
        <ele>419</ele>
        <time>2018-08-16T09:30:45Z</time>
      </trkpt>
      <trkpt lat="45.97738" lon="4.60115">
        <ele>420</ele>
        <time>2018-08-16T09:30:48Z</time>
      </trkpt>
      <trkpt lat="45.97739" lon="4.60111">
        <ele>420</ele>
        <time>2018-08-16T09:30:49Z</time>
      </trkpt>
      <trkpt lat="45.97741" lon="4.60102">
        <ele>420</ele>
        <time>2018-08-16T09:30:51Z</time>
      </trkpt>
      <trkpt lat="45.97742" lon="4.60098">
        <ele>420</ele>
        <time>2018-08-16T09:30:52Z</time>
      </trkpt>
      <trkpt lat="45.97744" lon="4.60086">
        <ele>419</ele>
        <time>2018-08-16T09:30:55Z</time>
      </trkpt>
      <trkpt lat="45.97745" lon="4.60082">
        <ele>420</ele>
        <time>2018-08-16T09:30:56Z</time>
      </trkpt>
      <trkpt lat="45.97747" lon="4.6007">
        <ele>422</ele>
        <time>2018-08-16T09:30:59Z</time>
      </trkpt>
      <trkpt lat="45.97747" lon="4.60066">
        <ele>422</ele>
        <time>2018-08-16T09:31:00Z</time>
      </trkpt>
      <trkpt lat="45.9775" lon="4.60056">
        <ele>423</ele>
        <time>2018-08-16T09:31:03Z</time>
      </trkpt>
      <trkpt lat="45.97751" lon="4.60052">
        <ele>418</ele>
        <time>2018-08-16T09:31:04Z</time>
      </trkpt>
      <trkpt lat="45.97752" lon="4.60042">
        <ele>419</ele>
        <time>2018-08-16T09:31:07Z</time>
      </trkpt>
      <trkpt lat="45.97752" lon="4.60039">
        <ele>419</ele>
        <time>2018-08-16T09:31:08Z</time>
      </trkpt>
      <trkpt lat="45.97754" lon="4.60026">
        <ele>420</ele>
        <time>2018-08-16T09:31:12Z</time>
      </trkpt>
      <trkpt lat="45.97755" lon="4.60023">
        <ele>420</ele>
        <time>2018-08-16T09:31:13Z</time>
      </trkpt>
      <trkpt lat="45.97756" lon="4.60013">
        <ele>421</ele>
        <time>2018-08-16T09:31:16Z</time>
      </trkpt>
      <trkpt lat="45.97757" lon="4.6001">
        <ele>422</ele>
        <time>2018-08-16T09:31:17Z</time>
      </trkpt>
      <trkpt lat="45.97758" lon="4.6">
        <ele>423</ele>
        <time>2018-08-16T09:31:20Z</time>
      </trkpt>
      <trkpt lat="45.97758" lon="4.59997">
        <ele>425</ele>
        <time>2018-08-16T09:31:21Z</time>
      </trkpt>
      <trkpt lat="45.9776" lon="4.59985">
        <ele>424</ele>
        <time>2018-08-16T09:31:25Z</time>
      </trkpt>
      <trkpt lat="45.9776" lon="4.59982">
        <ele>424</ele>
        <time>2018-08-16T09:31:26Z</time>
      </trkpt>
      <trkpt lat="45.97762" lon="4.59971">
        <ele>425</ele>
        <time>2018-08-16T09:31:30Z</time>
      </trkpt>
      <trkpt lat="45.97762" lon="4.59968">
        <ele>425</ele>
        <time>2018-08-16T09:31:31Z</time>
      </trkpt>
      <trkpt lat="45.97764" lon="4.59956">
        <ele>425</ele>
        <time>2018-08-16T09:31:35Z</time>
      </trkpt>
      <trkpt lat="45.97764" lon="4.59953">
        <ele>425</ele>
        <time>2018-08-16T09:31:36Z</time>
      </trkpt>
      <trkpt lat="45.97765" lon="4.5994">
        <ele>426</ele>
        <time>2018-08-16T09:31:40Z</time>
      </trkpt>
      <trkpt lat="45.97766" lon="4.59937">
        <ele>426</ele>
        <time>2018-08-16T09:31:41Z</time>
      </trkpt>
      <trkpt lat="45.97767" lon="4.59927">
        <ele>427</ele>
        <time>2018-08-16T09:31:44Z</time>
      </trkpt>
      <trkpt lat="45.97768" lon="4.59924">
        <ele>427</ele>
        <time>2018-08-16T09:31:45Z</time>
      </trkpt>
      <trkpt lat="45.97769" lon="4.59914">
        <ele>429</ele>
        <time>2018-08-16T09:31:48Z</time>
      </trkpt>
      <trkpt lat="45.9777" lon="4.59911">
        <ele>429</ele>
        <time>2018-08-16T09:31:49Z</time>
      </trkpt>
      <trkpt lat="45.97771" lon="4.599">
        <ele>430</ele>
        <time>2018-08-16T09:31:53Z</time>
      </trkpt>
      <trkpt lat="45.97771" lon="4.59897">
        <ele>430</ele>
        <time>2018-08-16T09:31:54Z</time>
      </trkpt>
      <trkpt lat="45.97772" lon="4.59886">
        <ele>430</ele>
        <time>2018-08-16T09:31:58Z</time>
      </trkpt>
      <trkpt lat="45.97772" lon="4.59883">
        <ele>430</ele>
        <time>2018-08-16T09:31:59Z</time>
      </trkpt>
      <trkpt lat="45.97774" lon="4.59871">
        <ele>430</ele>
        <time>2018-08-16T09:32:03Z</time>
      </trkpt>
      <trkpt lat="45.97775" lon="4.59869">
        <ele>430</ele>
        <time>2018-08-16T09:32:04Z</time>
      </trkpt>
      <trkpt lat="45.97777" lon="4.59857">
        <ele>431</ele>
        <time>2018-08-16T09:32:08Z</time>
      </trkpt>
      <trkpt lat="45.97777" lon="4.59855">
        <ele>431</ele>
        <time>2018-08-16T09:32:09Z</time>
      </trkpt>
      <trkpt lat="45.97779" lon="4.59843">
        <ele>431</ele>
        <time>2018-08-16T09:32:14Z</time>
      </trkpt>
      <trkpt lat="45.97779" lon="4.59841">
        <ele>431</ele>
        <time>2018-08-16T09:32:15Z</time>
      </trkpt>
      <trkpt lat="45.9778" lon="4.5983">
        <ele>434</ele>
        <time>2018-08-16T09:32:19Z</time>
      </trkpt>
      <trkpt lat="45.97781" lon="4.59827">
        <ele>434</ele>
        <time>2018-08-16T09:32:20Z</time>
      </trkpt>
      <trkpt lat="45.97782" lon="4.59815">
        <ele>434</ele>
        <time>2018-08-16T09:32:27Z</time>
      </trkpt>
      <trkpt lat="45.97782" lon="4.59814">
        <ele>434</ele>
        <time>2018-08-16T09:32:26.775Z</time>
      </trkpt>
      <trkpt lat="45.97784" lon="4.59802">
        <ele>434</ele>
        <time>2018-08-16T09:32:32Z</time>
      </trkpt>
      <trkpt lat="45.97784" lon="4.59799">
        <ele>434</ele>
        <time>2018-08-16T09:32:33Z</time>
      </trkpt>
      <trkpt lat="45.97785" lon="4.59787">
        <ele>435</ele>
        <time>2018-08-16T09:32:37Z</time>
      </trkpt>
      <trkpt lat="45.97785" lon="4.59784">
        <ele>435</ele>
        <time>2018-08-16T09:32:38Z</time>
      </trkpt>
      <trkpt lat="45.97786" lon="4.59771">
        <ele>435</ele>
        <time>2018-08-16T09:32:42Z</time>
      </trkpt>
      <trkpt lat="45.97787" lon="4.59768">
        <ele>435</ele>
        <time>2018-08-16T09:32:43Z</time>
      </trkpt>
      <trkpt lat="45.9779" lon="4.59758">
        <ele>435</ele>
        <time>2018-08-16T09:32:47Z</time>
      </trkpt>
      <trkpt lat="45.9779" lon="4.59755">
        <ele>435</ele>
        <time>2018-08-16T09:32:48Z</time>
      </trkpt>
      <trkpt lat="45.97793" lon="4.59743">
        <ele>439</ele>
        <time>2018-08-16T09:32:52Z</time>
      </trkpt>
      <trkpt lat="45.97793" lon="4.59741">
        <ele>439</ele>
        <time>2018-08-16T09:32:53Z</time>
      </trkpt>
      <trkpt lat="45.97796" lon="4.59729">
        <ele>439</ele>
        <time>2018-08-16T09:32:57Z</time>
      </trkpt>
      <trkpt lat="45.97796" lon="4.59726">
        <ele>439</ele>
        <time>2018-08-16T09:32:58Z</time>
      </trkpt>
      <trkpt lat="45.97798" lon="4.59716">
        <ele>440</ele>
        <time>2018-08-16T09:33:01Z</time>
      </trkpt>
      <trkpt lat="45.97798" lon="4.59713">
        <ele>440</ele>
        <time>2018-08-16T09:33:02Z</time>
      </trkpt>
      <trkpt lat="45.97801" lon="4.59702">
        <ele>440</ele>
        <time>2018-08-16T09:33:06Z</time>
      </trkpt>
      <trkpt lat="45.97802" lon="4.597">
        <ele>440</ele>
        <time>2018-08-16T09:33:07Z</time>
      </trkpt>
      <trkpt lat="45.97806" lon="4.5969">
        <ele>440</ele>
        <time>2018-08-16T09:33:11Z</time>
      </trkpt>
      <trkpt lat="45.97807" lon="4.59688">
        <ele>440</ele>
        <time>2018-08-16T09:33:12Z</time>
      </trkpt>
      <trkpt lat="45.97811" lon="4.59679">
        <ele>440</ele>
        <time>2018-08-16T09:33:16Z</time>
      </trkpt>
      <trkpt lat="45.97812" lon="4.59676">
        <ele>440</ele>
        <time>2018-08-16T09:33:17Z</time>
      </trkpt>
      <trkpt lat="45.97818" lon="4.59668">
        <ele>440</ele>
        <time>2018-08-16T09:33:21Z</time>
      </trkpt>
      <trkpt lat="45.97819" lon="4.59666">
        <ele>445</ele>
        <time>2018-08-16T09:33:22Z</time>
      </trkpt>
      <trkpt lat="45.97824" lon="4.59655">
        <ele>446</ele>
        <time>2018-08-16T09:33:26Z</time>
      </trkpt>
      <trkpt lat="45.97825" lon="4.59653">
        <ele>446</ele>
        <time>2018-08-16T09:33:27Z</time>
      </trkpt>
      <trkpt lat="45.97831" lon="4.59646">
        <ele>448</ele>
        <time>2018-08-16T09:33:31Z</time>
      </trkpt>
      <trkpt lat="45.97832" lon="4.59644">
        <ele>448</ele>
        <time>2018-08-16T09:33:32Z</time>
      </trkpt>
      <trkpt lat="45.9784" lon="4.59637">
        <ele>445</ele>
        <time>2018-08-16T09:33:36Z</time>
      </trkpt>
      <trkpt lat="45.97841" lon="4.59636">
        <ele>445</ele>
        <time>2018-08-16T09:33:37Z</time>
      </trkpt>
      <trkpt lat="45.97847" lon="4.5963">
        <ele>446</ele>
        <time>2018-08-16T09:33:41Z</time>
      </trkpt>
      <trkpt lat="45.97849" lon="4.59629">
        <ele>446</ele>
        <time>2018-08-16T09:33:42Z</time>
      </trkpt>
      <trkpt lat="45.97856" lon="4.59624">
        <ele>447</ele>
        <time>2018-08-16T09:33:46Z</time>
      </trkpt>
      <trkpt lat="45.97858" lon="4.59623">
        <ele>447</ele>
        <time>2018-08-16T09:33:47Z</time>
      </trkpt>
      <trkpt lat="45.97865" lon="4.59618">
        <ele>447</ele>
        <time>2018-08-16T09:33:51Z</time>
      </trkpt>
      <trkpt lat="45.97866" lon="4.59618">
        <ele>447</ele>
        <time>2018-08-16T09:33:52Z</time>
      </trkpt>
      <trkpt lat="45.97873" lon="4.59616">
        <ele>447</ele>
        <time>2018-08-16T09:33:56Z</time>
      </trkpt>
      <trkpt lat="45.97875" lon="4.59615">
        <ele>447</ele>
        <time>2018-08-16T09:33:57Z</time>
      </trkpt>
      <trkpt lat="45.97883" lon="4.59613">
        <ele>446</ele>
        <time>2018-08-16T09:34:01Z</time>
      </trkpt>
      <trkpt lat="45.97885" lon="4.59613">
        <ele>446</ele>
        <time>2018-08-16T09:34:02Z</time>
      </trkpt>
      <trkpt lat="45.97893" lon="4.5961">
        <ele>446</ele>
        <time>2018-08-16T09:34:06Z</time>
      </trkpt>
      <trkpt lat="45.97896" lon="4.5961">
        <ele>446</ele>
        <time>2018-08-16T09:34:07Z</time>
      </trkpt>
      <trkpt lat="45.97904" lon="4.59609">
        <ele>446</ele>
        <time>2018-08-16T09:34:11Z</time>
      </trkpt>
      <trkpt lat="45.97906" lon="4.59609">
        <ele>446</ele>
        <time>2018-08-16T09:34:12Z</time>
      </trkpt>
      <trkpt lat="45.97914" lon="4.59606">
        <ele>446</ele>
        <time>2018-08-16T09:34:16Z</time>
      </trkpt>
      <trkpt lat="45.97916" lon="4.59605">
        <ele>446</ele>
        <time>2018-08-16T09:34:17Z</time>
      </trkpt>
      <trkpt lat="45.97923" lon="4.59599">
        <ele>442</ele>
        <time>2018-08-16T09:34:21Z</time>
      </trkpt>
      <trkpt lat="45.97925" lon="4.59598">
        <ele>442</ele>
        <time>2018-08-16T09:34:22Z</time>
      </trkpt>
      <trkpt lat="45.97932" lon="4.5959">
        <ele>442</ele>
        <time>2018-08-16T09:34:27Z</time>
      </trkpt>
      <trkpt lat="45.97933" lon="4.59589">
        <ele>441</ele>
        <time>2018-08-16T09:34:28Z</time>
      </trkpt>
      <trkpt lat="45.97938" lon="4.59579">
        <ele>447</ele>
        <time>2018-08-16T09:34:33Z</time>
      </trkpt>
      <trkpt lat="45.97939" lon="4.59577">
        <ele>447</ele>
        <time>2018-08-16T09:34:34Z</time>
      </trkpt>
      <trkpt lat="45.97942" lon="4.59568">
        <ele>447</ele>
        <time>2018-08-16T09:34:38Z</time>
      </trkpt>
      <trkpt lat="45.97943" lon="4.59565">
        <ele>447</ele>
        <time>2018-08-16T09:34:39Z</time>
      </trkpt>
      <trkpt lat="45.97945" lon="4.59555">
        <ele>447</ele>
        <time>2018-08-16T09:34:43Z</time>
      </trkpt>
      <trkpt lat="45.97946" lon="4.59551">
        <ele>447</ele>
        <time>2018-08-16T09:34:44Z</time>
      </trkpt>
      <trkpt lat="45.97948" lon="4.5954">
        <ele>448</ele>
        <time>2018-08-16T09:34:48Z</time>
      </trkpt>
      <trkpt lat="45.97948" lon="4.59537">
        <ele>448</ele>
        <time>2018-08-16T09:34:49Z</time>
      </trkpt>
      <trkpt lat="45.97948" lon="4.59525">
        <ele>450</ele>
        <time>2018-08-16T09:34:54Z</time>
      </trkpt>
      <trkpt lat="45.97948" lon="4.59522">
        <ele>450</ele>
        <time>2018-08-16T09:34:55Z</time>
      </trkpt>
      <trkpt lat="45.97949" lon="4.5951">
        <ele>451</ele>
        <time>2018-08-16T09:34:59Z</time>
      </trkpt>
      <trkpt lat="45.9795" lon="4.59508">
        <ele>451</ele>
        <time>2018-08-16T09:35:00Z</time>
      </trkpt>
      <trkpt lat="45.97952" lon="4.59497">
        <ele>458</ele>
        <time>2018-08-16T09:35:04Z</time>
      </trkpt>
      <trkpt lat="45.97952" lon="4.59494">
        <ele>458</ele>
        <time>2018-08-16T09:35:05Z</time>
      </trkpt>
      <trkpt lat="45.97955" lon="4.59484">
        <ele>458</ele>
        <time>2018-08-16T09:35:09Z</time>
      </trkpt>
      <trkpt lat="45.97955" lon="4.59481">
        <ele>458</ele>
        <time>2018-08-16T09:35:10Z</time>
      </trkpt>
      <trkpt lat="45.97959" lon="4.5947">
        <ele>458</ele>
        <time>2018-08-16T09:35:14Z</time>
      </trkpt>
      <trkpt lat="45.9796" lon="4.59468">
        <ele>458</ele>
        <time>2018-08-16T09:35:15Z</time>
      </trkpt>
      <trkpt lat="45.97964" lon="4.59458">
        <ele>458</ele>
        <time>2018-08-16T09:35:19Z</time>
      </trkpt>
      <trkpt lat="45.97965" lon="4.59456">
        <ele>459</ele>
        <time>2018-08-16T09:35:20Z</time>
      </trkpt>
      <trkpt lat="45.97969" lon="4.59446">
        <ele>459</ele>
        <time>2018-08-16T09:35:24Z</time>
      </trkpt>
      <trkpt lat="45.9797" lon="4.59444">
        <ele>459</ele>
        <time>2018-08-16T09:35:25Z</time>
      </trkpt>
      <trkpt lat="45.97976" lon="4.59435">
        <ele>458</ele>
        <time>2018-08-16T09:35:29Z</time>
      </trkpt>
      <trkpt lat="45.97978" lon="4.59433">
        <ele>458</ele>
        <time>2018-08-16T09:35:30Z</time>
      </trkpt>
      <trkpt lat="45.97982" lon="4.59422">
        <ele>458</ele>
        <time>2018-08-16T09:35:35Z</time>
      </trkpt>
      <trkpt lat="45.97983" lon="4.59419">
        <ele>458</ele>
        <time>2018-08-16T09:35:36Z</time>
      </trkpt>
      <trkpt lat="45.97986" lon="4.59409">
        <ele>460</ele>
        <time>2018-08-16T09:35:40Z</time>
      </trkpt>
      <trkpt lat="45.97986" lon="4.59407">
        <ele>460</ele>
        <time>2018-08-16T09:35:41Z</time>
      </trkpt>
      <trkpt lat="45.97989" lon="4.59396">
        <ele>461</ele>
        <time>2018-08-16T09:35:45Z</time>
      </trkpt>
      <trkpt lat="45.97989" lon="4.59393">
        <ele>462</ele>
        <time>2018-08-16T09:35:46Z</time>
      </trkpt>
      <trkpt lat="45.97989" lon="4.59382">
        <ele>463</ele>
        <time>2018-08-16T09:35:50Z</time>
      </trkpt>
      <trkpt lat="45.97989" lon="4.5938">
        <ele>463</ele>
        <time>2018-08-16T09:35:51Z</time>
      </trkpt>
      <trkpt lat="45.97988" lon="4.59368">
        <ele>463</ele>
        <time>2018-08-16T09:35:56Z</time>
      </trkpt>
      <trkpt lat="45.97988" lon="4.59365">
        <ele>463</ele>
        <time>2018-08-16T09:35:57Z</time>
      </trkpt>
      <trkpt lat="45.97987" lon="4.59355">
        <ele>462</ele>
        <time>2018-08-16T09:36:01Z</time>
      </trkpt>
      <trkpt lat="45.97986" lon="4.59351">
        <ele>462</ele>
        <time>2018-08-16T09:36:02Z</time>
      </trkpt>
      <trkpt lat="45.97985" lon="4.59341">
        <ele>461</ele>
        <time>2018-08-16T09:36:06Z</time>
      </trkpt>
      <trkpt lat="45.97984" lon="4.59338">
        <ele>461</ele>
        <time>2018-08-16T09:36:07Z</time>
      </trkpt>
      <trkpt lat="45.97982" lon="4.59326">
        <ele>463</ele>
        <time>2018-08-16T09:36:12Z</time>
      </trkpt>
      <trkpt lat="45.97981" lon="4.59324">
        <ele>464</ele>
        <time>2018-08-16T09:36:13Z</time>
      </trkpt>
      <trkpt lat="45.97979" lon="4.59314">
        <ele>465</ele>
        <time>2018-08-16T09:36:17Z</time>
      </trkpt>
      <trkpt lat="45.97978" lon="4.59311">
        <ele>465</ele>
        <time>2018-08-16T09:36:18Z</time>
      </trkpt>
      <trkpt lat="45.97977" lon="4.59301">
        <ele>466</ele>
        <time>2018-08-16T09:36:22Z</time>
      </trkpt>
      <trkpt lat="45.97976" lon="4.59299">
        <ele>467</ele>
        <time>2018-08-16T09:36:23Z</time>
      </trkpt>
      <trkpt lat="45.97974" lon="4.59289">
        <ele>467</ele>
        <time>2018-08-16T09:36:27Z</time>
      </trkpt>
      <trkpt lat="45.97973" lon="4.59286">
        <ele>467</ele>
        <time>2018-08-16T09:36:28Z</time>
      </trkpt>
      <trkpt lat="45.97971" lon="4.59275">
        <ele>467</ele>
        <time>2018-08-16T09:36:32Z</time>
      </trkpt>
      <trkpt lat="45.9797" lon="4.59272">
        <ele>467</ele>
        <time>2018-08-16T09:36:33Z</time>
      </trkpt>
      <trkpt lat="45.97968" lon="4.59261">
        <ele>468</ele>
        <time>2018-08-16T09:36:37Z</time>
      </trkpt>
      <trkpt lat="45.97968" lon="4.59258">
        <ele>468</ele>
        <time>2018-08-16T09:36:38Z</time>
      </trkpt>
      <trkpt lat="45.97966" lon="4.59246">
        <ele>471</ele>
        <time>2018-08-16T09:36:43Z</time>
      </trkpt>
      <trkpt lat="45.97966" lon="4.59244">
        <ele>471</ele>
        <time>2018-08-16T09:36:44Z</time>
      </trkpt>
      <trkpt lat="45.97966" lon="4.59232">
        <ele>471</ele>
        <time>2018-08-16T09:36:49Z</time>
      </trkpt>
      <trkpt lat="45.97966" lon="4.5923">
        <ele>471</ele>
        <time>2018-08-16T09:36:50Z</time>
      </trkpt>
      <trkpt lat="45.97969" lon="4.59218">
        <ele>471</ele>
        <time>2018-08-16T09:36:54Z</time>
      </trkpt>
      <trkpt lat="45.9797" lon="4.59216">
        <ele>472</ele>
        <time>2018-08-16T09:36:55Z</time>
      </trkpt>
      <trkpt lat="45.97972" lon="4.59204">
        <ele>472</ele>
        <time>2018-08-16T09:36:59Z</time>
      </trkpt>
      <trkpt lat="45.97973" lon="4.59202">
        <ele>472</ele>
        <time>2018-08-16T09:37:00Z</time>
      </trkpt>
      <trkpt lat="45.97978" lon="4.59193">
        <ele>472</ele>
        <time>2018-08-16T09:37:04Z</time>
      </trkpt>
      <trkpt lat="45.97979" lon="4.59191">
        <ele>472</ele>
        <time>2018-08-16T09:37:05Z</time>
      </trkpt>
      <trkpt lat="45.97985" lon="4.59183">
        <ele>471</ele>
        <time>2018-08-16T09:37:09Z</time>
      </trkpt>
      <trkpt lat="45.97987" lon="4.59181">
        <ele>471</ele>
        <time>2018-08-16T09:37:10Z</time>
      </trkpt>
      <trkpt lat="45.97994" lon="4.59175">
        <ele>470</ele>
        <time>2018-08-16T09:37:15Z</time>
      </trkpt>
      <trkpt lat="45.97996" lon="4.59174">
        <ele>470</ele>
        <time>2018-08-16T09:37:16Z</time>
      </trkpt>
      <trkpt lat="45.98004" lon="4.59168">
        <ele>468</ele>
        <time>2018-08-16T09:37:21Z</time>
      </trkpt>
      <trkpt lat="45.98005" lon="4.59167">
        <ele>467</ele>
        <time>2018-08-16T09:37:22Z</time>
      </trkpt>
      <trkpt lat="45.98013" lon="4.59163">
        <ele>470</ele>
        <time>2018-08-16T09:37:26Z</time>
      </trkpt>
      <trkpt lat="45.98014" lon="4.59162">
        <ele>470</ele>
        <time>2018-08-16T09:37:27Z</time>
      </trkpt>
      <trkpt lat="45.98022" lon="4.59156">
        <ele>470</ele>
        <time>2018-08-16T09:37:32Z</time>
      </trkpt>
      <trkpt lat="45.98023" lon="4.59154">
        <ele>470</ele>
        <time>2018-08-16T09:37:33Z</time>
      </trkpt>
      <trkpt lat="45.98031" lon="4.59149">
        <ele>471</ele>
        <time>2018-08-16T09:37:38Z</time>
      </trkpt>
      <trkpt lat="45.98032" lon="4.59148">
        <ele>471</ele>
        <time>2018-08-16T09:37:39Z</time>
      </trkpt>
      <trkpt lat="45.98038" lon="4.5914">
        <ele>471</ele>
        <time>2018-08-16T09:37:44Z</time>
      </trkpt>
      <trkpt lat="45.9804" lon="4.59138">
        <ele>471</ele>
        <time>2018-08-16T09:37:45Z</time>
      </trkpt>
      <trkpt lat="45.98045" lon="4.59131">
        <ele>471</ele>
        <time>2018-08-16T09:37:49Z</time>
      </trkpt>
      <trkpt lat="45.98046" lon="4.59129">
        <ele>471</ele>
        <time>2018-08-16T09:37:50Z</time>
      </trkpt>
      <trkpt lat="45.98052" lon="4.59121">
        <ele>472</ele>
        <time>2018-08-16T09:37:54Z</time>
      </trkpt>
      <trkpt lat="45.98053" lon="4.59119">
        <ele>472</ele>
        <time>2018-08-16T09:37:55Z</time>
      </trkpt>
      <trkpt lat="45.98058" lon="4.5911">
        <ele>472</ele>
        <time>2018-08-16T09:37:59Z</time>
      </trkpt>
      <trkpt lat="45.9806" lon="4.59108">
        <ele>472</ele>
        <time>2018-08-16T09:38:00Z</time>
      </trkpt>
      <trkpt lat="45.98065" lon="4.59099">
        <ele>473</ele>
        <time>2018-08-16T09:38:04Z</time>
      </trkpt>
      <trkpt lat="45.98066" lon="4.59096">
        <ele>473</ele>
        <time>2018-08-16T09:38:05Z</time>
      </trkpt>
      <trkpt lat="45.9807" lon="4.59087">
        <ele>473</ele>
        <time>2018-08-16T09:38:09Z</time>
      </trkpt>
      <trkpt lat="45.98071" lon="4.59085">
        <ele>473</ele>
        <time>2018-08-16T09:38:10Z</time>
      </trkpt>
      <trkpt lat="45.98077" lon="4.59076">
        <ele>476</ele>
        <time>2018-08-16T09:38:14Z</time>
      </trkpt>
      <trkpt lat="45.98078" lon="4.59074">
        <ele>477</ele>
        <time>2018-08-16T09:38:15Z</time>
      </trkpt>
      <trkpt lat="45.98082" lon="4.59065">
        <ele>478</ele>
        <time>2018-08-16T09:38:19Z</time>
      </trkpt>
      <trkpt lat="45.98083" lon="4.59062">
        <ele>478</ele>
        <time>2018-08-16T09:38:20Z</time>
      </trkpt>
      <trkpt lat="45.98087" lon="4.59052">
        <ele>470</ele>
        <time>2018-08-16T09:38:24Z</time>
      </trkpt>
      <trkpt lat="45.98088" lon="4.5905">
        <ele>470</ele>
        <time>2018-08-16T09:38:25Z</time>
      </trkpt>
      <trkpt lat="45.98092" lon="4.59041">
        <ele>470</ele>
        <time>2018-08-16T09:38:29Z</time>
      </trkpt>
      <trkpt lat="45.98093" lon="4.59039">
        <ele>470</ele>
        <time>2018-08-16T09:38:30Z</time>
      </trkpt>
      <trkpt lat="45.98098" lon="4.59028">
        <ele>471</ele>
        <time>2018-08-16T09:38:34Z</time>
      </trkpt>
      <trkpt lat="45.98099" lon="4.59026">
        <ele>471</ele>
        <time>2018-08-16T09:38:35Z</time>
      </trkpt>
      <trkpt lat="45.98102" lon="4.59015">
        <ele>472</ele>
        <time>2018-08-16T09:38:39Z</time>
      </trkpt>
      <trkpt lat="45.98103" lon="4.59012">
        <ele>472</ele>
        <time>2018-08-16T09:38:40Z</time>
      </trkpt>
      <trkpt lat="45.98106" lon="4.59001">
        <ele>472</ele>
        <time>2018-08-16T09:38:44Z</time>
      </trkpt>
      <trkpt lat="45.98107" lon="4.58998">
        <ele>476</ele>
        <time>2018-08-16T09:38:45Z</time>
      </trkpt>
      <trkpt lat="45.9811" lon="4.58989">
        <ele>475</ele>
        <time>2018-08-16T09:38:49Z</time>
      </trkpt>
      <trkpt lat="45.98111" lon="4.58987">
        <ele>475</ele>
        <time>2018-08-16T09:38:50Z</time>
      </trkpt>
      <trkpt lat="45.98113" lon="4.58974">
        <ele>475</ele>
        <time>2018-08-16T09:38:55Z</time>
      </trkpt>
      <trkpt lat="45.98113" lon="4.58971">
        <ele>475</ele>
        <time>2018-08-16T09:38:56Z</time>
      </trkpt>
      <trkpt lat="45.98114" lon="4.5896">
        <ele>476</ele>
        <time>2018-08-16T09:39:00Z</time>
      </trkpt>
      <trkpt lat="45.98114" lon="4.58957">
        <ele>476</ele>
        <time>2018-08-16T09:39:01Z</time>
      </trkpt>
      <trkpt lat="45.98113" lon="4.58947">
        <ele>477</ele>
        <time>2018-08-16T09:39:04Z</time>
      </trkpt>
      <trkpt lat="45.98112" lon="4.58943">
        <ele>477</ele>
        <time>2018-08-16T09:39:05Z</time>
      </trkpt>
      <trkpt lat="45.98109" lon="4.58933">
        <ele>478</ele>
        <time>2018-08-16T09:39:08Z</time>
      </trkpt>
      <trkpt lat="45.98108" lon="4.5893">
        <ele>478</ele>
        <time>2018-08-16T09:39:09Z</time>
      </trkpt>
      <trkpt lat="45.98106" lon="4.58919">
        <ele>479</ele>
        <time>2018-08-16T09:39:13Z</time>
      </trkpt>
      <trkpt lat="45.98105" lon="4.58917">
        <ele>479</ele>
        <time>2018-08-16T09:39:14Z</time>
      </trkpt>
      <trkpt lat="45.98105" lon="4.58906">
        <ele>484</ele>
        <time>2018-08-16T09:39:20Z</time>
      </trkpt>
      <trkpt lat="45.98105" lon="4.58904">
        <ele>484</ele>
        <time>2018-08-16T09:39:21Z</time>
      </trkpt>
      <trkpt lat="45.98105" lon="4.58893">
        <ele>484</ele>
        <time>2018-08-16T09:39:25Z</time>
      </trkpt>
      <trkpt lat="45.98105" lon="4.5889">
        <ele>484</ele>
        <time>2018-08-16T09:39:26Z</time>
      </trkpt>
      <trkpt lat="45.98107" lon="4.58879">
        <ele>485</ele>
        <time>2018-08-16T09:39:31Z</time>
      </trkpt>
      <trkpt lat="45.98107" lon="4.58877">
        <ele>485</ele>
        <time>2018-08-16T09:39:32Z</time>
      </trkpt>
      <trkpt lat="45.98111" lon="4.58866">
        <ele>485</ele>
        <time>2018-08-16T09:39:37Z</time>
      </trkpt>
      <trkpt lat="45.98112" lon="4.58864">
        <ele>485</ele>
        <time>2018-08-16T09:39:38Z</time>
      </trkpt>
      <trkpt lat="45.98116" lon="4.58855">
        <ele>486</ele>
        <time>2018-08-16T09:39:41Z</time>
      </trkpt>
      <trkpt lat="45.98118" lon="4.58853">
        <ele>486</ele>
        <time>2018-08-16T09:39:42Z</time>
      </trkpt>
      <trkpt lat="45.98124" lon="4.58845">
        <ele>486</ele>
        <time>2018-08-16T09:39:46Z</time>
      </trkpt>
      <trkpt lat="45.98125" lon="4.58844">
        <ele>486</ele>
        <time>2018-08-16T09:39:47Z</time>
      </trkpt>
      <trkpt lat="45.98133" lon="4.58838">
        <ele>486</ele>
        <time>2018-08-16T09:39:52Z</time>
      </trkpt>
      <trkpt lat="45.98134" lon="4.58837">
        <ele>486</ele>
        <time>2018-08-16T09:39:53Z</time>
      </trkpt>
      <trkpt lat="45.9814" lon="4.58831">
        <ele>492</ele>
        <time>2018-08-16T09:39:57Z</time>
      </trkpt>
      <trkpt lat="45.98142" lon="4.58829">
        <ele>492</ele>
        <time>2018-08-16T09:39:58Z</time>
      </trkpt>
      <trkpt lat="45.98149" lon="4.58822">
        <ele>492</ele>
        <time>2018-08-16T09:40:02Z</time>
      </trkpt>
      <trkpt lat="45.98151" lon="4.58821">
        <ele>492</ele>
        <time>2018-08-16T09:40:03Z</time>
      </trkpt>
      <trkpt lat="45.98158" lon="4.58816">
        <ele>492</ele>
        <time>2018-08-16T09:40:07Z</time>
      </trkpt>
      <trkpt lat="45.98159" lon="4.58814">
        <ele>493</ele>
        <time>2018-08-16T09:40:08Z</time>
      </trkpt>
      <trkpt lat="45.98167" lon="4.58807">
        <ele>493</ele>
        <time>2018-08-16T09:40:13Z</time>
      </trkpt>
      <trkpt lat="45.98168" lon="4.58806">
        <ele>491</ele>
        <time>2018-08-16T09:40:14Z</time>
      </trkpt>
      <trkpt lat="45.98175" lon="4.588">
        <ele>492</ele>
        <time>2018-08-16T09:40:18Z</time>
      </trkpt>
      <trkpt lat="45.98176" lon="4.58799">
        <ele>492</ele>
        <time>2018-08-16T09:40:19Z</time>
      </trkpt>
      <trkpt lat="45.98183" lon="4.58791">
        <ele>493</ele>
        <time>2018-08-16T09:40:24Z</time>
      </trkpt>
      <trkpt lat="45.98185" lon="4.5879">
        <ele>493</ele>
        <time>2018-08-16T09:40:25Z</time>
      </trkpt>
      <trkpt lat="45.98191" lon="4.58785">
        <ele>493</ele>
        <time>2018-08-16T09:40:29Z</time>
      </trkpt>
      <trkpt lat="45.98193" lon="4.58783">
        <ele>493</ele>
        <time>2018-08-16T09:40:30Z</time>
      </trkpt>
      <trkpt lat="45.98201" lon="4.58777">
        <ele>493</ele>
        <time>2018-08-16T09:40:34Z</time>
      </trkpt>
      <trkpt lat="45.98203" lon="4.58776">
        <ele>493</ele>
        <time>2018-08-16T09:40:35Z</time>
      </trkpt>
      <trkpt lat="45.98209" lon="4.58769">
        <ele>493</ele>
        <time>2018-08-16T09:40:39Z</time>
      </trkpt>
      <trkpt lat="45.9821" lon="4.58766">
        <ele>493</ele>
        <time>2018-08-16T09:40:40Z</time>
      </trkpt>
      <trkpt lat="45.98217" lon="4.58759">
        <ele>493</ele>
        <time>2018-08-16T09:40:45Z</time>
      </trkpt>
      <trkpt lat="45.98219" lon="4.58758">
        <ele>493</ele>
        <time>2018-08-16T09:40:46Z</time>
      </trkpt>
      <trkpt lat="45.98226" lon="4.58754">
        <ele>493</ele>
        <time>2018-08-16T09:40:50Z</time>
      </trkpt>
      <trkpt lat="45.98228" lon="4.58752">
        <ele>493</ele>
        <time>2018-08-16T09:40:51Z</time>
      </trkpt>
      <trkpt lat="45.98235" lon="4.58746">
        <ele>498</ele>
        <time>2018-08-16T09:40:55Z</time>
      </trkpt>
      <trkpt lat="45.98237" lon="4.58744">
        <ele>497</ele>
        <time>2018-08-16T09:40:56Z</time>
      </trkpt>
      <trkpt lat="45.98243" lon="4.58738">
        <ele>497</ele>
        <time>2018-08-16T09:40:59Z</time>
      </trkpt>
      <trkpt lat="45.98245" lon="4.58736">
        <ele>498</ele>
        <time>2018-08-16T09:41:00Z</time>
      </trkpt>
      <trkpt lat="45.98251" lon="4.58731">
        <ele>497</ele>
        <time>2018-08-16T09:41:04Z</time>
      </trkpt>
      <trkpt lat="45.98253" lon="4.5873">
        <ele>497</ele>
        <time>2018-08-16T09:41:05Z</time>
      </trkpt>
      <trkpt lat="45.9826" lon="4.58724">
        <ele>497</ele>
        <time>2018-08-16T09:41:10Z</time>
      </trkpt>
      <trkpt lat="45.98261" lon="4.58722">
        <ele>498</ele>
        <time>2018-08-16T09:41:11Z</time>
      </trkpt>
      <trkpt lat="45.98267" lon="4.58716">
        <ele>498</ele>
        <time>2018-08-16T09:41:15Z</time>
      </trkpt>
      <trkpt lat="45.98269" lon="4.58714">
        <ele>498</ele>
        <time>2018-08-16T09:41:16Z</time>
      </trkpt>
      <trkpt lat="45.98275" lon="4.58709">
        <ele>499</ele>
        <time>2018-08-16T09:41:19Z</time>
      </trkpt>
      <trkpt lat="45.98277" lon="4.58708">
        <ele>499</ele>
        <time>2018-08-16T09:41:20Z</time>
      </trkpt>
      <trkpt lat="45.98284" lon="4.58702">
        <ele>499</ele>
        <time>2018-08-16T09:41:23Z</time>
      </trkpt>
      <trkpt lat="45.98285" lon="4.587">
        <ele>499</ele>
        <time>2018-08-16T09:41:24Z</time>
      </trkpt>
      <trkpt lat="45.98292" lon="4.58693">
        <ele>499</ele>
        <time>2018-08-16T09:41:28Z</time>
      </trkpt>
      <trkpt lat="45.98294" lon="4.58691">
        <ele>499</ele>
        <time>2018-08-16T09:41:29Z</time>
      </trkpt>
      <trkpt lat="45.98301" lon="4.58686">
        <ele>500</ele>
        <time>2018-08-16T09:41:33Z</time>
      </trkpt>
      <trkpt lat="45.98303" lon="4.58685">
        <ele>500</ele>
        <time>2018-08-16T09:41:34Z</time>
      </trkpt>
      <trkpt lat="45.9831" lon="4.58681">
        <ele>500</ele>
        <time>2018-08-16T09:41:38Z</time>
      </trkpt>
      <trkpt lat="45.98312" lon="4.58679">
        <ele>500</ele>
        <time>2018-08-16T09:41:39Z</time>
      </trkpt>
      <trkpt lat="45.98318" lon="4.58674">
        <ele>500</ele>
        <time>2018-08-16T09:41:43Z</time>
      </trkpt>
      <trkpt lat="45.9832" lon="4.58673">
        <ele>501</ele>
        <time>2018-08-16T09:41:44Z</time>
      </trkpt>
      <trkpt lat="45.98326" lon="4.58667">
        <ele>501</ele>
        <time>2018-08-16T09:41:48Z</time>
      </trkpt>
      <trkpt lat="45.98328" lon="4.58665">
        <ele>503</ele>
        <time>2018-08-16T09:41:49Z</time>
      </trkpt>
      <trkpt lat="45.98335" lon="4.58657">
        <ele>502</ele>
        <time>2018-08-16T09:41:54Z</time>
      </trkpt>
      <trkpt lat="45.98336" lon="4.58656">
        <ele>502</ele>
        <time>2018-08-16T09:41:55Z</time>
      </trkpt>
      <trkpt lat="45.98344" lon="4.5865">
        <ele>503</ele>
        <time>2018-08-16T09:42:00Z</time>
      </trkpt>
      <trkpt lat="45.98345" lon="4.58649">
        <ele>503</ele>
        <time>2018-08-16T09:42:01Z</time>
      </trkpt>
      <trkpt lat="45.98352" lon="4.5864">
        <ele>503</ele>
        <time>2018-08-16T09:42:06Z</time>
      </trkpt>
      <trkpt lat="45.98353" lon="4.58639">
        <ele>503</ele>
        <time>2018-08-16T09:42:07Z</time>
      </trkpt>
      <trkpt lat="45.9836" lon="4.58632">
        <ele>503</ele>
        <time>2018-08-16T09:42:12Z</time>
      </trkpt>
      <trkpt lat="45.98362" lon="4.58631">
        <ele>503</ele>
        <time>2018-08-16T09:42:13Z</time>
      </trkpt>
      <trkpt lat="45.98369" lon="4.58627">
        <ele>503</ele>
        <time>2018-08-16T09:42:17Z</time>
      </trkpt>
      <trkpt lat="45.9837" lon="4.58626">
        <ele>503</ele>
        <time>2018-08-16T09:42:18Z</time>
      </trkpt>
      <trkpt lat="45.98377" lon="4.58619">
        <ele>503</ele>
        <time>2018-08-16T09:42:22Z</time>
      </trkpt>
      <trkpt lat="45.98379" lon="4.58617">
        <ele>503</ele>
        <time>2018-08-16T09:42:23Z</time>
      </trkpt>
      <trkpt lat="45.98384" lon="4.58608">
        <ele>503</ele>
        <time>2018-08-16T09:42:27Z</time>
      </trkpt>
      <trkpt lat="45.98385" lon="4.58606">
        <ele>503</ele>
        <time>2018-08-16T09:42:28Z</time>
      </trkpt>
      <trkpt lat="45.98387" lon="4.58593">
        <ele>503</ele>
        <time>2018-08-16T09:42:33Z</time>
      </trkpt>
      <trkpt lat="45.98387" lon="4.58591">
        <ele>503</ele>
        <time>2018-08-16T09:42:34Z</time>
      </trkpt>
      <trkpt lat="45.98383" lon="4.58579">
        <ele>509</ele>
        <time>2018-08-16T09:42:40Z</time>
      </trkpt>
      <trkpt lat="45.98382" lon="4.58578">
        <ele>509</ele>
        <time>2018-08-16T09:42:41Z</time>
      </trkpt>
      <trkpt lat="45.98374" lon="4.58575">
        <ele>510</ele>
        <time>2018-08-16T09:42:46Z</time>
      </trkpt>
      <trkpt lat="45.98372" lon="4.58575">
        <ele>510</ele>
        <time>2018-08-16T09:42:47Z</time>
      </trkpt>
      <trkpt lat="45.98365" lon="4.58575">
        <ele>510</ele>
        <time>2018-08-16T09:42:51Z</time>
      </trkpt>
      <trkpt lat="45.98363" lon="4.58576">
        <ele>510</ele>
        <time>2018-08-16T09:42:52Z</time>
      </trkpt>
      <trkpt lat="45.98354" lon="4.58577">
        <ele>510</ele>
        <time>2018-08-16T09:42:56Z</time>
      </trkpt>
      <trkpt lat="45.98352" lon="4.58576">
        <ele>510</ele>
        <time>2018-08-16T09:42:57Z</time>
      </trkpt>
      <trkpt lat="45.98343" lon="4.58577">
        <ele>510</ele>
        <time>2018-08-16T09:43:01Z</time>
      </trkpt>
      <trkpt lat="45.98342" lon="4.58577">
        <ele>510</ele>
        <time>2018-08-16T09:43:02Z</time>
      </trkpt>
      <trkpt lat="45.98334" lon="4.58577">
        <ele>510</ele>
        <time>2018-08-16T09:43:07Z</time>
      </trkpt>
      <trkpt lat="45.98332" lon="4.58577">
        <ele>512</ele>
        <time>2018-08-16T09:43:08Z</time>
      </trkpt>
      <trkpt lat="45.98323" lon="4.58577">
        <ele>514</ele>
        <time>2018-08-16T09:43:12Z</time>
      </trkpt>
      <trkpt lat="45.98321" lon="4.58578">
        <ele>514</ele>
        <time>2018-08-16T09:43:13Z</time>
      </trkpt>
      <trkpt lat="45.98314" lon="4.58578">
        <ele>515</ele>
        <time>2018-08-16T09:43:17Z</time>
      </trkpt>
      <trkpt lat="45.98312" lon="4.58578">
        <ele>515</ele>
        <time>2018-08-16T09:43:18Z</time>
      </trkpt>
      <trkpt lat="45.98303" lon="4.58578">
        <ele>516</ele>
        <time>2018-08-16T09:43:22Z</time>
      </trkpt>
      <trkpt lat="45.98302" lon="4.58578">
        <ele>517</ele>
        <time>2018-08-16T09:43:23Z</time>
      </trkpt>
      <trkpt lat="45.98294" lon="4.58579">
        <ele>517</ele>
        <time>2018-08-16T09:43:27Z</time>
      </trkpt>
      <trkpt lat="45.98292" lon="4.58579">
        <ele>517</ele>
        <time>2018-08-16T09:43:28Z</time>
      </trkpt>
      <trkpt lat="45.98284" lon="4.58579">
        <ele>518</ele>
        <time>2018-08-16T09:43:32Z</time>
      </trkpt>
      <trkpt lat="45.98282" lon="4.58579">
        <ele>518</ele>
        <time>2018-08-16T09:43:33Z</time>
      </trkpt>
      <trkpt lat="45.98273" lon="4.58579">
        <ele>518</ele>
        <time>2018-08-16T09:43:38Z</time>
      </trkpt>
      <trkpt lat="45.98271" lon="4.58579">
        <ele>518</ele>
        <time>2018-08-16T09:43:39Z</time>
      </trkpt>
      <trkpt lat="45.98263" lon="4.58579">
        <ele>518</ele>
        <time>2018-08-16T09:43:42Z</time>
      </trkpt>
      <trkpt lat="45.98261" lon="4.58578">
        <ele>518</ele>
        <time>2018-08-16T09:43:43Z</time>
      </trkpt>
      <trkpt lat="45.98254" lon="4.58577">
        <ele>518</ele>
        <time>2018-08-16T09:43:47Z</time>
      </trkpt>
      <trkpt lat="45.98252" lon="4.58577">
        <ele>518</ele>
        <time>2018-08-16T09:43:48Z</time>
      </trkpt>
      <trkpt lat="45.98244" lon="4.58576">
        <ele>520</ele>
        <time>2018-08-16T09:43:52Z</time>
      </trkpt>
      <trkpt lat="45.98242" lon="4.58576">
        <ele>520</ele>
        <time>2018-08-16T09:43:53Z</time>
      </trkpt>
      <trkpt lat="45.98234" lon="4.58578">
        <ele>521</ele>
        <time>2018-08-16T09:43:58Z</time>
      </trkpt>
      <trkpt lat="45.98232" lon="4.58579">
        <ele>521</ele>
        <time>2018-08-16T09:43:59Z</time>
      </trkpt>
      <trkpt lat="45.98223" lon="4.58578">
        <ele>521</ele>
        <time>2018-08-16T09:44:05Z</time>
      </trkpt>
      <trkpt lat="45.98222" lon="4.58578">
        <ele>522</ele>
        <time>2018-08-16T09:44:06Z</time>
      </trkpt>
      <trkpt lat="45.98213" lon="4.58576">
        <ele>522</ele>
        <time>2018-08-16T09:44:11Z</time>
      </trkpt>
      <trkpt lat="45.98211" lon="4.58575">
        <ele>522</ele>
        <time>2018-08-16T09:44:12Z</time>
      </trkpt>
      <trkpt lat="45.98203" lon="4.58574">
        <ele>522</ele>
        <time>2018-08-16T09:44:18Z</time>
      </trkpt>
      <trkpt lat="45.98202" lon="4.58574">
        <ele>522</ele>
        <time>2018-08-16T09:44:19Z</time>
      </trkpt>
      <trkpt lat="45.98194" lon="4.58571">
        <ele>522</ele>
        <time>2018-08-16T09:44:24Z</time>
      </trkpt>
      <trkpt lat="45.98192" lon="4.5857">
        <ele>522</ele>
        <time>2018-08-16T09:44:25Z</time>
      </trkpt>
      <trkpt lat="45.98183" lon="4.58568">
        <ele>522</ele>
        <time>2018-08-16T09:44:30Z</time>
      </trkpt>
      <trkpt lat="45.98181" lon="4.58567">
        <ele>522</ele>
        <time>2018-08-16T09:44:31Z</time>
      </trkpt>
      <trkpt lat="45.98173" lon="4.58567">
        <ele>521</ele>
        <time>2018-08-16T09:44:35Z</time>
      </trkpt>
      <trkpt lat="45.9817" lon="4.58567">
        <ele>521</ele>
        <time>2018-08-16T09:44:36Z</time>
      </trkpt>
      <trkpt lat="45.98162" lon="4.58566">
        <ele>522</ele>
        <time>2018-08-16T09:44:40Z</time>
      </trkpt>
      <trkpt lat="45.9816" lon="4.58565">
        <ele>522</ele>
        <time>2018-08-16T09:44:41Z</time>
      </trkpt>
      <trkpt lat="45.98152" lon="4.58563">
        <ele>523</ele>
        <time>2018-08-16T09:44:45Z</time>
      </trkpt>
      <trkpt lat="45.9815" lon="4.58562">
        <ele>523</ele>
        <time>2018-08-16T09:44:46Z</time>
      </trkpt>
      <trkpt lat="45.98142" lon="4.58561">
        <ele>524</ele>
        <time>2018-08-16T09:44:51Z</time>
      </trkpt>
      <trkpt lat="45.9814" lon="4.58561">
        <ele>524</ele>
        <time>2018-08-16T09:44:52Z</time>
      </trkpt>
      <trkpt lat="45.98131" lon="4.5856">
        <ele>524</ele>
        <time>2018-08-16T09:44:57Z</time>
      </trkpt>
      <trkpt lat="45.98129" lon="4.5856">
        <ele>524</ele>
        <time>2018-08-16T09:44:58Z</time>
      </trkpt>
      <trkpt lat="45.98121" lon="4.58559">
        <ele>525</ele>
        <time>2018-08-16T09:45:02Z</time>
      </trkpt>
      <trkpt lat="45.98119" lon="4.58558">
        <ele>525</ele>
        <time>2018-08-16T09:45:03Z</time>
      </trkpt>
      <trkpt lat="45.98111" lon="4.58557">
        <ele>525</ele>
        <time>2018-08-16T09:45:07Z</time>
      </trkpt>
      <trkpt lat="45.98109" lon="4.58557">
        <ele>525</ele>
        <time>2018-08-16T09:45:08Z</time>
      </trkpt>
      <trkpt lat="45.981" lon="4.58555">
        <ele>525</ele>
        <time>2018-08-16T09:45:13Z</time>
      </trkpt>
      <trkpt lat="45.98099" lon="4.58555">
        <ele>525</ele>
        <time>2018-08-16T09:45:14Z</time>
      </trkpt>
      <trkpt lat="45.9809" lon="4.58552">
        <ele>525</ele>
        <time>2018-08-16T09:45:20Z</time>
      </trkpt>
      <trkpt lat="45.98089" lon="4.58551">
        <ele>525</ele>
        <time>2018-08-16T09:45:21Z</time>
      </trkpt>
      <trkpt lat="45.9808" lon="4.58551">
        <ele>528</ele>
        <time>2018-08-16T09:45:26Z</time>
      </trkpt>
      <trkpt lat="45.98079" lon="4.58551">
        <ele>528</ele>
        <time>2018-08-16T09:45:27Z</time>
      </trkpt>
      <trkpt lat="45.9807" lon="4.5855">
        <ele>528</ele>
        <time>2018-08-16T09:45:32Z</time>
      </trkpt>
      <trkpt lat="45.98068" lon="4.58549">
        <ele>528</ele>
        <time>2018-08-16T09:45:33Z</time>
      </trkpt>
      <trkpt lat="45.9806" lon="4.58545">
        <ele>529</ele>
        <time>2018-08-16T09:45:38Z</time>
      </trkpt>
      <trkpt lat="45.98058" lon="4.58545">
        <ele>529</ele>
        <time>2018-08-16T09:45:39Z</time>
      </trkpt>
      <trkpt lat="45.9805" lon="4.58544">
        <ele>529</ele>
        <time>2018-08-16T09:45:44Z</time>
      </trkpt>
      <trkpt lat="45.98048" lon="4.58544">
        <ele>529</ele>
        <time>2018-08-16T09:45:45Z</time>
      </trkpt>
      <trkpt lat="45.9804" lon="4.58544">
        <ele>530</ele>
        <time>2018-08-16T09:45:50Z</time>
      </trkpt>
      <trkpt lat="45.98038" lon="4.58544">
        <ele>530</ele>
        <time>2018-08-16T09:45:51Z</time>
      </trkpt>
      <trkpt lat="45.98031" lon="4.58545">
        <ele>530</ele>
        <time>2018-08-16T09:45:54Z</time>
      </trkpt>
      <trkpt lat="45.98028" lon="4.58545">
        <ele>530</ele>
        <time>2018-08-16T09:45:55Z</time>
      </trkpt>
      <trkpt lat="45.98021" lon="4.58545">
        <ele>530</ele>
        <time>2018-08-16T09:45:58Z</time>
      </trkpt>
      <trkpt lat="45.98018" lon="4.58544">
        <ele>530</ele>
        <time>2018-08-16T09:45:59Z</time>
      </trkpt>
      <trkpt lat="45.98011" lon="4.58543">
        <ele>531</ele>
        <time>2018-08-16T09:46:02Z</time>
      </trkpt>
      <trkpt lat="45.98008" lon="4.58542">
        <ele>531</ele>
        <time>2018-08-16T09:46:03Z</time>
      </trkpt>
      <trkpt lat="45.98002" lon="4.58541">
        <ele>531</ele>
        <time>2018-08-16T09:46:05Z</time>
      </trkpt>
      <trkpt lat="45.97999" lon="4.58541">
        <ele>534</ele>
        <time>2018-08-16T09:46:06Z</time>
      </trkpt>
      <trkpt lat="45.9799" lon="4.58541">
        <ele>535</ele>
        <time>2018-08-16T09:46:10Z</time>
      </trkpt>
      <trkpt lat="45.97989" lon="4.58542">
        <ele>535</ele>
        <time>2018-08-16T09:46:11Z</time>
      </trkpt>
      <trkpt lat="45.9798" lon="4.58545">
        <ele>535</ele>
        <time>2018-08-16T09:46:16Z</time>
      </trkpt>
      <trkpt lat="45.97978" lon="4.58545">
        <ele>535</ele>
        <time>2018-08-16T09:46:17Z</time>
      </trkpt>
      <trkpt lat="45.9797" lon="4.58545">
        <ele>535</ele>
        <time>2018-08-16T09:46:21Z</time>
      </trkpt>
      <trkpt lat="45.97969" lon="4.58545">
        <ele>535</ele>
        <time>2018-08-16T09:46:22Z</time>
      </trkpt>
      <trkpt lat="45.97961" lon="4.58544">
        <ele>535</ele>
        <time>2018-08-16T09:46:26Z</time>
      </trkpt>
      <trkpt lat="45.97959" lon="4.58544">
        <ele>535</ele>
        <time>2018-08-16T09:46:27Z</time>
      </trkpt>
      <trkpt lat="45.97952" lon="4.58544">
        <ele>536</ele>
        <time>2018-08-16T09:46:31Z</time>
      </trkpt>
      <trkpt lat="45.9795" lon="4.58544">
        <ele>536</ele>
        <time>2018-08-16T09:46:32Z</time>
      </trkpt>
      <trkpt lat="45.97941" lon="4.58548">
        <ele>536</ele>
        <time>2018-08-16T09:46:37Z</time>
      </trkpt>
      <trkpt lat="45.97939" lon="4.58548">
        <ele>536</ele>
        <time>2018-08-16T09:46:38Z</time>
      </trkpt>
      <trkpt lat="45.9793" lon="4.5855">
        <ele>536</ele>
        <time>2018-08-16T09:46:42Z</time>
      </trkpt>
      <trkpt lat="45.97928" lon="4.5855">
        <ele>536</ele>
        <time>2018-08-16T09:46:43Z</time>
      </trkpt>
      <trkpt lat="45.97919" lon="4.58551">
        <ele>536</ele>
        <time>2018-08-16T09:46:48Z</time>
      </trkpt>
      <trkpt lat="45.97917" lon="4.58551">
        <ele>536</ele>
        <time>2018-08-16T09:46:49Z</time>
      </trkpt>
      <trkpt lat="45.9791" lon="4.5855">
        <ele>539</ele>
        <time>2018-08-16T09:46:52Z</time>
      </trkpt>
      <trkpt lat="45.97908" lon="4.5855">
        <ele>539</ele>
        <time>2018-08-16T09:46:53Z</time>
      </trkpt>
      <trkpt lat="45.979" lon="4.58549">
        <ele>539</ele>
        <time>2018-08-16T09:46:57Z</time>
      </trkpt>
      <trkpt lat="45.97898" lon="4.58549">
        <ele>539</ele>
        <time>2018-08-16T09:46:58Z</time>
      </trkpt>
      <trkpt lat="45.97889" lon="4.58548">
        <ele>540</ele>
        <time>2018-08-16T09:47:03Z</time>
      </trkpt>
      <trkpt lat="45.97887" lon="4.58549">
        <ele>540</ele>
        <time>2018-08-16T09:47:04Z</time>
      </trkpt>
      <trkpt lat="45.9788" lon="4.58551">
        <ele>540</ele>
        <time>2018-08-16T09:47:08Z</time>
      </trkpt>
      <trkpt lat="45.97878" lon="4.58551">
        <ele>540</ele>
        <time>2018-08-16T09:47:09Z</time>
      </trkpt>
      <trkpt lat="45.97871" lon="4.58551">
        <ele>540</ele>
        <time>2018-08-16T09:47:12Z</time>
      </trkpt>
      <trkpt lat="45.97869" lon="4.5855">
        <ele>540</ele>
        <time>2018-08-16T09:47:13Z</time>
      </trkpt>
      <trkpt lat="45.97861" lon="4.5855">
        <ele>540</ele>
        <time>2018-08-16T09:47:17Z</time>
      </trkpt>
      <trkpt lat="45.97859" lon="4.5855">
        <ele>540</ele>
        <time>2018-08-16T09:47:18Z</time>
      </trkpt>
      <trkpt lat="45.97852" lon="4.5855">
        <ele>540</ele>
        <time>2018-08-16T09:47:22Z</time>
      </trkpt>
      <trkpt lat="45.9785" lon="4.5855">
        <ele>540</ele>
        <time>2018-08-16T09:47:23Z</time>
      </trkpt>
      <trkpt lat="45.97843" lon="4.58547">
        <ele>541</ele>
        <time>2018-08-16T09:47:27Z</time>
      </trkpt>
      <trkpt lat="45.97841" lon="4.58546">
        <ele>541</ele>
        <time>2018-08-16T09:47:28Z</time>
      </trkpt>
      <trkpt lat="45.97835" lon="4.58538">
        <ele>541</ele>
        <time>2018-08-16T09:47:32Z</time>
      </trkpt>
      <trkpt lat="45.97834" lon="4.58536">
        <ele>541</ele>
        <time>2018-08-16T09:47:33Z</time>
      </trkpt>
      <trkpt lat="45.97829" lon="4.58527">
        <ele>544</ele>
        <time>2018-08-16T09:47:37Z</time>
      </trkpt>
      <trkpt lat="45.97828" lon="4.58525">
        <ele>544</ele>
        <time>2018-08-16T09:47:38Z</time>
      </trkpt>
      <trkpt lat="45.97824" lon="4.58514">
        <ele>545</ele>
        <time>2018-08-16T09:47:42Z</time>
      </trkpt>
      <trkpt lat="45.97823" lon="4.58511">
        <ele>545</ele>
        <time>2018-08-16T09:47:43Z</time>
      </trkpt>
      <trkpt lat="45.97823" lon="4.58501">
        <ele>545</ele>
        <time>2018-08-16T09:47:47Z</time>
      </trkpt>
      <trkpt lat="45.97823" lon="4.58498">
        <ele>546</ele>
        <time>2018-08-16T09:47:48Z</time>
      </trkpt>
      <trkpt lat="45.97824" lon="4.58487">
        <ele>547</ele>
        <time>2018-08-16T09:47:52Z</time>
      </trkpt>
      <trkpt lat="45.97824" lon="4.58484">
        <ele>547</ele>
        <time>2018-08-16T09:47:53Z</time>
      </trkpt>
      <trkpt lat="45.97825" lon="4.58473">
        <ele>548</ele>
        <time>2018-08-16T09:47:57Z</time>
      </trkpt>
      <trkpt lat="45.97825" lon="4.5847">
        <ele>548</ele>
        <time>2018-08-16T09:47:58Z</time>
      </trkpt>
      <trkpt lat="45.97826" lon="4.58457">
        <ele>549</ele>
        <time>2018-08-16T09:48:03Z</time>
      </trkpt>
      <trkpt lat="45.97826" lon="4.58455">
        <ele>549</ele>
        <time>2018-08-16T09:48:04Z</time>
      </trkpt>
      <trkpt lat="45.97826" lon="4.58444">
        <ele>549</ele>
        <time>2018-08-16T09:48:08Z</time>
      </trkpt>
      <trkpt lat="45.97826" lon="4.58442">
        <ele>549</ele>
        <time>2018-08-16T09:48:09Z</time>
      </trkpt>
      <trkpt lat="45.97827" lon="4.58431">
        <ele>550</ele>
        <time>2018-08-16T09:48:13Z</time>
      </trkpt>
      <trkpt lat="45.97828" lon="4.58429">
        <ele>550</ele>
        <time>2018-08-16T09:48:14Z</time>
      </trkpt>
      <trkpt lat="45.97828" lon="4.58416">
        <ele>551</ele>
        <time>2018-08-16T09:48:19Z</time>
      </trkpt>
      <trkpt lat="45.97829" lon="4.58413">
        <ele>551</ele>
        <time>2018-08-16T09:48:20Z</time>
      </trkpt>
      <trkpt lat="45.97829" lon="4.584">
        <ele>551</ele>
        <time>2018-08-16T09:48:25Z</time>
      </trkpt>
      <trkpt lat="45.97829" lon="4.58398">
        <ele>551</ele>
        <time>2018-08-16T09:48:26Z</time>
      </trkpt>
      <trkpt lat="45.97831" lon="4.58389">
        <ele>551</ele>
        <time>2018-08-16T09:48:30Z</time>
      </trkpt>
      <trkpt lat="45.97832" lon="4.58385">
        <ele>551</ele>
        <time>2018-08-16T09:48:31Z</time>
      </trkpt>
      <trkpt lat="45.97834" lon="4.58375">
        <ele>551</ele>
        <time>2018-08-16T09:48:34Z</time>
      </trkpt>
      <trkpt lat="45.97834" lon="4.5837">
        <ele>551</ele>
        <time>2018-08-16T09:48:35Z</time>
      </trkpt>
      <trkpt lat="45.97832" lon="4.58358">
        <ele>551</ele>
        <time>2018-08-16T09:48:38Z</time>
      </trkpt>
      <trkpt lat="45.9783" lon="4.58355">
        <ele>551</ele>
        <time>2018-08-16T09:48:39Z</time>
      </trkpt>
      <trkpt lat="45.97825" lon="4.58348">
        <ele>551</ele>
        <time>2018-08-16T09:48:42Z</time>
      </trkpt>
      <trkpt lat="45.97823" lon="4.58345">
        <ele>551</ele>
        <time>2018-08-16T09:48:43Z</time>
      </trkpt>
      <trkpt lat="45.9782" lon="4.58338">
        <ele>551</ele>
        <time>2018-08-16T09:48:45Z</time>
      </trkpt>
      <trkpt lat="45.97818" lon="4.58334">
        <ele>551</ele>
        <time>2018-08-16T09:48:46Z</time>
      </trkpt>
      <trkpt lat="45.97817" lon="4.58322">
        <ele>551</ele>
        <time>2018-08-16T09:48:49Z</time>
      </trkpt>
      <trkpt lat="45.97816" lon="4.58318">
        <ele>551</ele>
        <time>2018-08-16T09:48:50Z</time>
      </trkpt>
      <trkpt lat="45.97815" lon="4.58313">
        <ele>551</ele>
        <time>2018-08-16T09:48:51Z</time>
      </trkpt>
      <trkpt lat="45.97812" lon="4.583">
        <ele>551</ele>
        <time>2018-08-16T09:48:52Z</time>
      </trkpt>
      <trkpt lat="45.97809" lon="4.58289">
        <ele>551</ele>
        <time>2018-08-16T09:48:55Z</time>
      </trkpt>
      <trkpt lat="45.97808" lon="4.58286">
        <ele>551</ele>
        <time>2018-08-16T09:48:56Z</time>
      </trkpt>
      <trkpt lat="45.97804" lon="4.58275">
        <ele>551</ele>
        <time>2018-08-16T09:49:00Z</time>
      </trkpt>
      <trkpt lat="45.97803" lon="4.58273">
        <ele>551</ele>
        <time>2018-08-16T09:49:01Z</time>
      </trkpt>
      <trkpt lat="45.97799" lon="4.58264">
        <ele>551</ele>
        <time>2018-08-16T09:49:04Z</time>
      </trkpt>
      <trkpt lat="45.97797" lon="4.58261">
        <ele>551</ele>
        <time>2018-08-16T09:49:05Z</time>
      </trkpt>
      <trkpt lat="45.9779" lon="4.5825">
        <ele>551</ele>
        <time>2018-08-16T09:49:06Z</time>
      </trkpt>
      <trkpt lat="45.97784" lon="4.58244">
        <ele>549</ele>
        <time>2018-08-16T09:49:09Z</time>
      </trkpt>
      <trkpt lat="45.97782" lon="4.58242">
        <ele>549</ele>
        <time>2018-08-16T09:49:10Z</time>
      </trkpt>
      <trkpt lat="45.97776" lon="4.58236">
        <ele>549</ele>
        <time>2018-08-16T09:49:12Z</time>
      </trkpt>
      <trkpt lat="45.97767" lon="4.58229">
        <ele>549</ele>
        <time>2018-08-16T09:49:13Z</time>
      </trkpt>
      <trkpt lat="45.97762" lon="4.58226">
        <ele>549</ele>
        <time>2018-08-16T09:49:15Z</time>
      </trkpt>
      <trkpt lat="45.97756" lon="4.5822">
        <ele>549</ele>
        <time>2018-08-16T09:49:16Z</time>
      </trkpt>
      <trkpt lat="45.97749" lon="4.58218">
        <ele>548</ele>
        <time>2018-08-16T09:49:17Z</time>
      </trkpt>
      <trkpt lat="45.97745" lon="4.58215">
        <ele>548</ele>
        <time>2018-08-16T09:49:18Z</time>
      </trkpt>
      <trkpt lat="45.97739" lon="4.58212">
        <ele>548</ele>
        <time>2018-08-16T09:49:19Z</time>
      </trkpt>
      <trkpt lat="45.97735" lon="4.58209">
        <ele>548</ele>
        <time>2018-08-16T09:49:20Z</time>
      </trkpt>
      <trkpt lat="45.9773" lon="4.58208">
        <ele>547</ele>
        <time>2018-08-16T09:49:21Z</time>
      </trkpt>
      <trkpt lat="45.97725" lon="4.58205">
        <ele>547</ele>
        <time>2018-08-16T09:49:22Z</time>
      </trkpt>
      <trkpt lat="45.9772" lon="4.58202">
        <ele>547</ele>
        <time>2018-08-16T09:49:23Z</time>
      </trkpt>
      <trkpt lat="45.97714" lon="4.58199">
        <ele>547</ele>
        <time>2018-08-16T09:49:24Z</time>
      </trkpt>
      <trkpt lat="45.97709" lon="4.58196">
        <ele>547</ele>
        <time>2018-08-16T09:49:25Z</time>
      </trkpt>
      <trkpt lat="45.97703" lon="4.58195">
        <ele>547</ele>
        <time>2018-08-16T09:49:26Z</time>
      </trkpt>
      <trkpt lat="45.97698" lon="4.58192">
        <ele>546</ele>
        <time>2018-08-16T09:49:27Z</time>
      </trkpt>
      <trkpt lat="45.9769" lon="4.58191">
        <ele>546</ele>
        <time>2018-08-16T09:49:28Z</time>
      </trkpt>
      <trkpt lat="45.97685" lon="4.58188">
        <ele>546</ele>
        <time>2018-08-16T09:49:29Z</time>
      </trkpt>
      <trkpt lat="45.9768" lon="4.58186">
        <ele>545</ele>
        <time>2018-08-16T09:49:30Z</time>
      </trkpt>
      <trkpt lat="45.97674" lon="4.58184">
        <ele>545</ele>
        <time>2018-08-16T09:49:31Z</time>
      </trkpt>
      <trkpt lat="45.97668" lon="4.58181">
        <ele>545</ele>
        <time>2018-08-16T09:49:32Z</time>
      </trkpt>
      <trkpt lat="45.97662" lon="4.58179">
        <ele>544</ele>
        <time>2018-08-16T09:49:33Z</time>
      </trkpt>
      <trkpt lat="45.97656" lon="4.58177">
        <ele>545</ele>
        <time>2018-08-16T09:49:34Z</time>
      </trkpt>
      <trkpt lat="45.97653" lon="4.58177">
        <ele>545</ele>
        <time>2018-08-16T09:49:35Z</time>
      </trkpt>
      <trkpt lat="45.97645" lon="4.58174">
        <ele>545</ele>
        <time>2018-08-16T09:49:36Z</time>
      </trkpt>
      <trkpt lat="45.97639" lon="4.58172">
        <ele>545</ele>
        <time>2018-08-16T09:49:37Z</time>
      </trkpt>
      <trkpt lat="45.97636" lon="4.58171">
        <ele>546</ele>
        <time>2018-08-16T09:49:38Z</time>
      </trkpt>
      <trkpt lat="45.97629" lon="4.58168">
        <ele>546</ele>
        <time>2018-08-16T09:49:39Z</time>
      </trkpt>
      <trkpt lat="45.97624" lon="4.58168">
        <ele>546</ele>
        <time>2018-08-16T09:49:40Z</time>
      </trkpt>
      <trkpt lat="45.97618" lon="4.58167">
        <ele>545</ele>
        <time>2018-08-16T09:49:41Z</time>
      </trkpt>
      <trkpt lat="45.97612" lon="4.58166">
        <ele>537</ele>
        <time>2018-08-16T09:49:42Z</time>
      </trkpt>
      <trkpt lat="45.97606" lon="4.58166">
        <ele>537</ele>
        <time>2018-08-16T09:49:43Z</time>
      </trkpt>
      <trkpt lat="45.976" lon="4.58164">
        <ele>538</ele>
        <time>2018-08-16T09:49:44Z</time>
      </trkpt>
      <trkpt lat="45.97592" lon="4.58163">
        <ele>538</ele>
        <time>2018-08-16T09:49:45Z</time>
      </trkpt>
      <trkpt lat="45.97587" lon="4.58163">
        <ele>540</ele>
        <time>2018-08-16T09:49:46Z</time>
      </trkpt>
      <trkpt lat="45.97577" lon="4.5816">
        <ele>540</ele>
        <time>2018-08-16T09:49:47Z</time>
      </trkpt>
      <trkpt lat="45.97569" lon="4.58156">
        <ele>539</ele>
        <time>2018-08-16T09:49:48Z</time>
      </trkpt>
      <trkpt lat="45.97561" lon="4.58154">
        <ele>539</ele>
        <time>2018-08-16T09:49:49Z</time>
      </trkpt>
      <trkpt lat="45.97557" lon="4.58156">
        <ele>539</ele>
        <time>2018-08-16T09:49:50Z</time>
      </trkpt>
      <trkpt lat="45.97552" lon="4.58155">
        <ele>539</ele>
        <time>2018-08-16T09:49:51Z</time>
      </trkpt>
      <trkpt lat="45.97547" lon="4.58155">
        <ele>540</ele>
        <time>2018-08-16T09:49:52Z</time>
      </trkpt>
      <trkpt lat="45.97539" lon="4.58154">
        <ele>540</ele>
        <time>2018-08-16T09:49:53Z</time>
      </trkpt>
      <trkpt lat="45.97532" lon="4.58154">
        <ele>541</ele>
        <time>2018-08-16T09:49:54Z</time>
      </trkpt>
      <trkpt lat="45.97526" lon="4.58151">
        <ele>541</ele>
        <time>2018-08-16T09:49:55Z</time>
      </trkpt>
      <trkpt lat="45.97519" lon="4.58149">
        <ele>542</ele>
        <time>2018-08-16T09:49:56Z</time>
      </trkpt>
      <trkpt lat="45.97513" lon="4.58147">
        <ele>542</ele>
        <time>2018-08-16T09:49:57Z</time>
      </trkpt>
      <trkpt lat="45.97508" lon="4.58145">
        <ele>542</ele>
        <time>2018-08-16T09:49:58Z</time>
      </trkpt>
      <trkpt lat="45.97503" lon="4.58142">
        <ele>542</ele>
        <time>2018-08-16T09:49:59Z</time>
      </trkpt>
      <trkpt lat="45.97498" lon="4.58138">
        <ele>546</ele>
        <time>2018-08-16T09:50:00Z</time>
      </trkpt>
      <trkpt lat="45.97492" lon="4.58135">
        <ele>546</ele>
        <time>2018-08-16T09:50:01Z</time>
      </trkpt>
      <trkpt lat="45.97483" lon="4.58135">
        <ele>546</ele>
        <time>2018-08-16T09:50:03Z</time>
      </trkpt>
      <trkpt lat="45.97476" lon="4.58134">
        <ele>546</ele>
        <time>2018-08-16T09:50:04Z</time>
      </trkpt>
      <trkpt lat="45.97469" lon="4.5813">
        <ele>546</ele>
        <time>2018-08-16T09:50:05Z</time>
      </trkpt>
      <trkpt lat="45.97462" lon="4.58125">
        <ele>546</ele>
        <time>2018-08-16T09:50:06Z</time>
      </trkpt>
      <trkpt lat="45.97456" lon="4.5812">
        <ele>546</ele>
        <time>2018-08-16T09:50:07Z</time>
      </trkpt>
      <trkpt lat="45.97451" lon="4.58116">
        <ele>546</ele>
        <time>2018-08-16T09:50:08Z</time>
      </trkpt>
      <trkpt lat="45.97446" lon="4.5811">
        <ele>546</ele>
        <time>2018-08-16T09:50:09Z</time>
      </trkpt>
      <trkpt lat="45.9744" lon="4.58103">
        <ele>545</ele>
        <time>2018-08-16T09:50:10Z</time>
      </trkpt>
      <trkpt lat="45.97434" lon="4.581">
        <ele>545</ele>
        <time>2018-08-16T09:50:11Z</time>
      </trkpt>
      <trkpt lat="45.97429" lon="4.58094">
        <ele>545</ele>
        <time>2018-08-16T09:50:12Z</time>
      </trkpt>
      <trkpt lat="45.97424" lon="4.58089">
        <ele>545</ele>
        <time>2018-08-16T09:50:13Z</time>
      </trkpt>
      <trkpt lat="45.9742" lon="4.58082">
        <ele>542</ele>
        <time>2018-08-16T09:50:14Z</time>
      </trkpt>
      <trkpt lat="45.97417" lon="4.58076">
        <ele>542</ele>
        <time>2018-08-16T09:50:15Z</time>
      </trkpt>
      <trkpt lat="45.97412" lon="4.58071">
        <ele>541</ele>
        <time>2018-08-16T09:50:16Z</time>
      </trkpt>
      <trkpt lat="45.97407" lon="4.58067">
        <ele>540</ele>
        <time>2018-08-16T09:50:17Z</time>
      </trkpt>
      <trkpt lat="45.97403" lon="4.58062">
        <ele>539</ele>
        <time>2018-08-16T09:50:18Z</time>
      </trkpt>
      <trkpt lat="45.97398" lon="4.58059">
        <ele>538</ele>
        <time>2018-08-16T09:50:19Z</time>
      </trkpt>
      <trkpt lat="45.97392" lon="4.58056">
        <ele>537</ele>
        <time>2018-08-16T09:50:20Z</time>
      </trkpt>
      <trkpt lat="45.97384" lon="4.58055">
        <ele>537</ele>
        <time>2018-08-16T09:50:21Z</time>
      </trkpt>
      <trkpt lat="45.97377" lon="4.58054">
        <ele>537</ele>
        <time>2018-08-16T09:50:22Z</time>
      </trkpt>
      <trkpt lat="45.9737" lon="4.58052">
        <ele>536</ele>
        <time>2018-08-16T09:50:23Z</time>
      </trkpt>
      <trkpt lat="45.97367" lon="4.58055">
        <ele>537</ele>
        <time>2018-08-16T09:50:24Z</time>
      </trkpt>
      <trkpt lat="45.97361" lon="4.5806">
        <ele>537</ele>
        <time>2018-08-16T09:50:25Z</time>
      </trkpt>
      <trkpt lat="45.97355" lon="4.58061">
        <ele>538</ele>
        <time>2018-08-16T09:50:26Z</time>
      </trkpt>
      <trkpt lat="45.97348" lon="4.58065">
        <ele>538</ele>
        <time>2018-08-16T09:50:27Z</time>
      </trkpt>
      <trkpt lat="45.97343" lon="4.58068">
        <ele>539</ele>
        <time>2018-08-16T09:50:28Z</time>
      </trkpt>
      <trkpt lat="45.97339" lon="4.58075">
        <ele>541</ele>
        <time>2018-08-16T09:50:29Z</time>
      </trkpt>
      <trkpt lat="45.97333" lon="4.58081">
        <ele>543</ele>
        <time>2018-08-16T09:50:30Z</time>
      </trkpt>
      <trkpt lat="45.97326" lon="4.58086">
        <ele>546</ele>
        <time>2018-08-16T09:50:31Z</time>
      </trkpt>
      <trkpt lat="45.9732" lon="4.58091">
        <ele>548</ele>
        <time>2018-08-16T09:50:32Z</time>
      </trkpt>
      <trkpt lat="45.97314" lon="4.58097">
        <ele>550</ele>
        <time>2018-08-16T09:50:33Z</time>
      </trkpt>
      <trkpt lat="45.97308" lon="4.58105">
        <ele>551</ele>
        <time>2018-08-16T09:50:34Z</time>
      </trkpt>
      <trkpt lat="45.97301" lon="4.58106">
        <ele>551</ele>
        <time>2018-08-16T09:50:35Z</time>
      </trkpt>
      <trkpt lat="45.97292" lon="4.58105">
        <ele>551</ele>
        <time>2018-08-16T09:50:36Z</time>
      </trkpt>
      <trkpt lat="45.97285" lon="4.58109">
        <ele>552</ele>
        <time>2018-08-16T09:50:37Z</time>
      </trkpt>
      <trkpt lat="45.9728" lon="4.58112">
        <ele>552</ele>
        <time>2018-08-16T09:50:38Z</time>
      </trkpt>
      <trkpt lat="45.97275" lon="4.58114">
        <ele>552</ele>
        <time>2018-08-16T09:50:39Z</time>
      </trkpt>
      <trkpt lat="45.9727" lon="4.58114">
        <ele>552</ele>
        <time>2018-08-16T09:50:40Z</time>
      </trkpt>
      <trkpt lat="45.97264" lon="4.58112">
        <ele>551</ele>
        <time>2018-08-16T09:50:41Z</time>
      </trkpt>
      <trkpt lat="45.97256" lon="4.58108">
        <ele>551</ele>
        <time>2018-08-16T09:50:42Z</time>
      </trkpt>
      <trkpt lat="45.97249" lon="4.58104">
        <ele>551</ele>
        <time>2018-08-16T09:50:43Z</time>
      </trkpt>
      <trkpt lat="45.97241" lon="4.58094">
        <ele>549</ele>
        <time>2018-08-16T09:50:44Z</time>
      </trkpt>
      <trkpt lat="45.97236" lon="4.58087">
        <ele>549</ele>
        <time>2018-08-16T09:50:45Z</time>
      </trkpt>
      <trkpt lat="45.9723" lon="4.58079">
        <ele>541</ele>
        <time>2018-08-16T09:50:46Z</time>
      </trkpt>
      <trkpt lat="45.97224" lon="4.58073">
        <ele>540</ele>
        <time>2018-08-16T09:50:47Z</time>
      </trkpt>
      <trkpt lat="45.97218" lon="4.58068">
        <ele>539</ele>
        <time>2018-08-16T09:50:48Z</time>
      </trkpt>
      <trkpt lat="45.97214" lon="4.58062">
        <ele>539</ele>
        <time>2018-08-16T09:50:49Z</time>
      </trkpt>
      <trkpt lat="45.97209" lon="4.58055">
        <ele>539</ele>
        <time>2018-08-16T09:50:50Z</time>
      </trkpt>
      <trkpt lat="45.97204" lon="4.58049">
        <ele>538</ele>
        <time>2018-08-16T09:50:51Z</time>
      </trkpt>
      <trkpt lat="45.97199" lon="4.58043">
        <ele>538</ele>
        <time>2018-08-16T09:50:52Z</time>
      </trkpt>
      <trkpt lat="45.97193" lon="4.58037">
        <ele>537</ele>
        <time>2018-08-16T09:50:53Z</time>
      </trkpt>
      <trkpt lat="45.97188" lon="4.58032">
        <ele>537</ele>
        <time>2018-08-16T09:50:54Z</time>
      </trkpt>
      <trkpt lat="45.97182" lon="4.58027">
        <ele>536</ele>
        <time>2018-08-16T09:50:55Z</time>
      </trkpt>
      <trkpt lat="45.97177" lon="4.58022">
        <ele>535</ele>
        <time>2018-08-16T09:50:56Z</time>
      </trkpt>
      <trkpt lat="45.97172" lon="4.58019">
        <ele>535</ele>
        <time>2018-08-16T09:50:57Z</time>
      </trkpt>
      <trkpt lat="45.97167" lon="4.58015">
        <ele>534</ele>
        <time>2018-08-16T09:50:58Z</time>
      </trkpt>
      <trkpt lat="45.97161" lon="4.5801">
        <ele>535</ele>
        <time>2018-08-16T09:50:59Z</time>
      </trkpt>
      <trkpt lat="45.97155" lon="4.58008">
        <ele>535</ele>
        <time>2018-08-16T09:51:00Z</time>
      </trkpt>
      <trkpt lat="45.9715" lon="4.58005">
        <ele>535</ele>
        <time>2018-08-16T09:51:01Z</time>
      </trkpt>
      <trkpt lat="45.97145" lon="4.58003">
        <ele>536</ele>
        <time>2018-08-16T09:51:02Z</time>
      </trkpt>
      <trkpt lat="45.9714" lon="4.58001">
        <ele>536</ele>
        <time>2018-08-16T09:51:03Z</time>
      </trkpt>
      <trkpt lat="45.9713" lon="4.57999">
        <ele>527</ele>
        <time>2018-08-16T09:51:04Z</time>
      </trkpt>
      <trkpt lat="45.97126" lon="4.57998">
        <ele>526</ele>
        <time>2018-08-16T09:51:05Z</time>
      </trkpt>
      <trkpt lat="45.97121" lon="4.58">
        <ele>536</ele>
        <time>2018-08-16T09:51:06Z</time>
      </trkpt>
      <trkpt lat="45.97116" lon="4.58002">
        <ele>536</ele>
        <time>2018-08-16T09:51:07Z</time>
      </trkpt>
      <trkpt lat="45.97107" lon="4.58003">
        <ele>535</ele>
        <time>2018-08-16T09:51:08Z</time>
      </trkpt>
      <trkpt lat="45.97101" lon="4.58005">
        <ele>534</ele>
        <time>2018-08-16T09:51:09Z</time>
      </trkpt>
      <trkpt lat="45.97095" lon="4.58011">
        <ele>534</ele>
        <time>2018-08-16T09:51:10Z</time>
      </trkpt>
      <trkpt lat="45.97091" lon="4.58015">
        <ele>535</ele>
        <time>2018-08-16T09:51:11Z</time>
      </trkpt>
      <trkpt lat="45.97086" lon="4.58021">
        <ele>535</ele>
        <time>2018-08-16T09:51:12Z</time>
      </trkpt>
      <trkpt lat="45.97082" lon="4.58028">
        <ele>532</ele>
        <time>2018-08-16T09:51:13Z</time>
      </trkpt>
      <trkpt lat="45.97077" lon="4.58033">
        <ele>532</ele>
        <time>2018-08-16T09:51:14Z</time>
      </trkpt>
      <trkpt lat="45.97072" lon="4.5804">
        <ele>533</ele>
        <time>2018-08-16T09:51:15Z</time>
      </trkpt>
      <trkpt lat="45.97067" lon="4.58045">
        <ele>533</ele>
        <time>2018-08-16T09:51:16Z</time>
      </trkpt>
      <trkpt lat="45.97062" lon="4.58051">
        <ele>534</ele>
        <time>2018-08-16T09:51:17Z</time>
      </trkpt>
      <trkpt lat="45.97058" lon="4.58056">
        <ele>534</ele>
        <time>2018-08-16T09:51:18Z</time>
      </trkpt>
      <trkpt lat="45.97053" lon="4.58063">
        <ele>534</ele>
        <time>2018-08-16T09:51:19Z</time>
      </trkpt>
      <trkpt lat="45.97049" lon="4.58069">
        <ele>534</ele>
        <time>2018-08-16T09:51:20Z</time>
      </trkpt>
      <trkpt lat="45.97044" lon="4.58075">
        <ele>534</ele>
        <time>2018-08-16T09:51:21Z</time>
      </trkpt>
      <trkpt lat="45.97039" lon="4.5808">
        <ele>534</ele>
        <time>2018-08-16T09:51:22Z</time>
      </trkpt>
      <trkpt lat="45.97034" lon="4.58086">
        <ele>544</ele>
        <time>2018-08-16T09:51:23Z</time>
      </trkpt>
      <trkpt lat="45.97028" lon="4.58089">
        <ele>544</ele>
        <time>2018-08-16T09:51:24Z</time>
      </trkpt>
      <trkpt lat="45.97026" lon="4.58097">
        <ele>544</ele>
        <time>2018-08-16T09:51:25Z</time>
      </trkpt>
      <trkpt lat="45.9702" lon="4.58103">
        <ele>544</ele>
        <time>2018-08-16T09:51:26Z</time>
      </trkpt>
      <trkpt lat="45.97016" lon="4.58107">
        <ele>544</ele>
        <time>2018-08-16T09:51:27Z</time>
      </trkpt>
      <trkpt lat="45.97013" lon="4.58115">
        <ele>545</ele>
        <time>2018-08-16T09:51:28Z</time>
      </trkpt>
      <trkpt lat="45.97008" lon="4.58121">
        <ele>546</ele>
        <time>2018-08-16T09:51:29Z</time>
      </trkpt>
      <trkpt lat="45.97001" lon="4.58122">
        <ele>546</ele>
        <time>2018-08-16T09:51:30Z</time>
      </trkpt>
      <trkpt lat="45.96995" lon="4.58125">
        <ele>545</ele>
        <time>2018-08-16T09:51:31Z</time>
      </trkpt>
      <trkpt lat="45.9699" lon="4.58127">
        <ele>545</ele>
        <time>2018-08-16T09:51:32Z</time>
      </trkpt>
      <trkpt lat="45.96984" lon="4.58123">
        <ele>545</ele>
        <time>2018-08-16T09:51:33Z</time>
      </trkpt>
      <trkpt lat="45.96978" lon="4.58119">
        <ele>544</ele>
        <time>2018-08-16T09:51:34Z</time>
      </trkpt>
      <trkpt lat="45.96974" lon="4.58114">
        <ele>544</ele>
        <time>2018-08-16T09:51:35Z</time>
      </trkpt>
      <trkpt lat="45.96968" lon="4.58107">
        <ele>543</ele>
        <time>2018-08-16T09:51:36Z</time>
      </trkpt>
      <trkpt lat="45.9696" lon="4.58101">
        <ele>543</ele>
        <time>2018-08-16T09:51:37Z</time>
      </trkpt>
      <trkpt lat="45.96951" lon="4.58097">
        <ele>543</ele>
        <time>2018-08-16T09:51:38Z</time>
      </trkpt>
      <trkpt lat="45.96943" lon="4.58091">
        <ele>542</ele>
        <time>2018-08-16T09:51:39Z</time>
      </trkpt>
      <trkpt lat="45.96939" lon="4.58085">
        <ele>542</ele>
        <time>2018-08-16T09:51:40Z</time>
      </trkpt>
      <trkpt lat="45.96935" lon="4.58075">
        <ele>532</ele>
        <time>2018-08-16T09:51:41Z</time>
      </trkpt>
      <trkpt lat="45.9693" lon="4.58066">
        <ele>532</ele>
        <time>2018-08-16T09:51:42Z</time>
      </trkpt>
      <trkpt lat="45.96927" lon="4.58062">
        <ele>531</ele>
        <time>2018-08-16T09:51:43Z</time>
      </trkpt>
      <trkpt lat="45.96925" lon="4.58056">
        <ele>530</ele>
        <time>2018-08-16T09:51:44Z</time>
      </trkpt>
      <trkpt lat="45.9692" lon="4.58052">
        <ele>530</ele>
        <time>2018-08-16T09:51:45Z</time>
      </trkpt>
      <trkpt lat="45.96914" lon="4.58046">
        <ele>531</ele>
        <time>2018-08-16T09:51:46Z</time>
      </trkpt>
      <trkpt lat="45.96909" lon="4.5804">
        <ele>530</ele>
        <time>2018-08-16T09:51:47Z</time>
      </trkpt>
      <trkpt lat="45.96904" lon="4.58034">
        <ele>529</ele>
        <time>2018-08-16T09:51:48Z</time>
      </trkpt>
      <trkpt lat="45.96899" lon="4.58029">
        <ele>529</ele>
        <time>2018-08-16T09:51:49Z</time>
      </trkpt>
      <trkpt lat="45.96895" lon="4.58023">
        <ele>528</ele>
        <time>2018-08-16T09:51:50Z</time>
      </trkpt>
      <trkpt lat="45.96888" lon="4.5802">
        <ele>528</ele>
        <time>2018-08-16T09:51:51Z</time>
      </trkpt>
      <trkpt lat="45.96881" lon="4.58016">
        <ele>528</ele>
        <time>2018-08-16T09:51:52Z</time>
      </trkpt>
      <trkpt lat="45.96875" lon="4.58012">
        <ele>528</ele>
        <time>2018-08-16T09:51:53Z</time>
      </trkpt>
      <trkpt lat="45.9687" lon="4.58011">
        <ele>528</ele>
        <time>2018-08-16T09:51:54Z</time>
      </trkpt>
      <trkpt lat="45.96859" lon="4.58012">
        <ele>528</ele>
        <time>2018-08-16T09:51:55Z</time>
      </trkpt>
      <trkpt lat="45.96851" lon="4.5801">
        <ele>527</ele>
        <time>2018-08-16T09:51:56Z</time>
      </trkpt>
      <trkpt lat="45.96845" lon="4.5801">
        <ele>526</ele>
        <time>2018-08-16T09:51:57Z</time>
      </trkpt>
      <trkpt lat="45.96839" lon="4.58009">
        <ele>526</ele>
        <time>2018-08-16T09:51:58Z</time>
      </trkpt>
      <trkpt lat="45.96832" lon="4.5801">
        <ele>523</ele>
        <time>2018-08-16T09:51:59Z</time>
      </trkpt>
      <trkpt lat="45.96826" lon="4.58012">
        <ele>522</ele>
        <time>2018-08-16T09:52:00Z</time>
      </trkpt>
      <trkpt lat="45.96819" lon="4.58015">
        <ele>522</ele>
        <time>2018-08-16T09:52:01Z</time>
      </trkpt>
      <trkpt lat="45.96815" lon="4.58021">
        <ele>522</ele>
        <time>2018-08-16T09:52:02Z</time>
      </trkpt>
      <trkpt lat="45.96809" lon="4.58025">
        <ele>522</ele>
        <time>2018-08-16T09:52:03Z</time>
      </trkpt>
      <trkpt lat="45.96805" lon="4.58032">
        <ele>522</ele>
        <time>2018-08-16T09:52:04Z</time>
      </trkpt>
      <trkpt lat="45.968" lon="4.58038">
        <ele>522</ele>
        <time>2018-08-16T09:52:05Z</time>
      </trkpt>
      <trkpt lat="45.96796" lon="4.58044">
        <ele>522</ele>
        <time>2018-08-16T09:52:06Z</time>
      </trkpt>
      <trkpt lat="45.96792" lon="4.58053">
        <ele>522</ele>
        <time>2018-08-16T09:52:07Z</time>
      </trkpt>
      <trkpt lat="45.96788" lon="4.5806">
        <ele>522</ele>
        <time>2018-08-16T09:52:08Z</time>
      </trkpt>
      <trkpt lat="45.96783" lon="4.58067">
        <ele>522</ele>
        <time>2018-08-16T09:52:09Z</time>
      </trkpt>
      <trkpt lat="45.9678" lon="4.58074">
        <ele>521</ele>
        <time>2018-08-16T09:52:10Z</time>
      </trkpt>
      <trkpt lat="45.96776" lon="4.58082">
        <ele>521</ele>
        <time>2018-08-16T09:52:11Z</time>
      </trkpt>
      <trkpt lat="45.96773" lon="4.58089">
        <ele>528</ele>
        <time>2018-08-16T09:52:12Z</time>
      </trkpt>
      <trkpt lat="45.96771" lon="4.58099">
        <ele>529</ele>
        <time>2018-08-16T09:52:13Z</time>
      </trkpt>
      <trkpt lat="45.96767" lon="4.58106">
        <ele>529</ele>
        <time>2018-08-16T09:52:14Z</time>
      </trkpt>
      <trkpt lat="45.96765" lon="4.58114">
        <ele>530</ele>
        <time>2018-08-16T09:52:15Z</time>
      </trkpt>
      <trkpt lat="45.96761" lon="4.58122">
        <ele>531</ele>
        <time>2018-08-16T09:52:16Z</time>
      </trkpt>
      <trkpt lat="45.96756" lon="4.58128">
        <ele>531</ele>
        <time>2018-08-16T09:52:17Z</time>
      </trkpt>
      <trkpt lat="45.96752" lon="4.58135">
        <ele>531</ele>
        <time>2018-08-16T09:52:18Z</time>
      </trkpt>
      <trkpt lat="45.96748" lon="4.58144">
        <ele>518</ele>
        <time>2018-08-16T09:52:19Z</time>
      </trkpt>
      <trkpt lat="45.96745" lon="4.58152">
        <ele>520</ele>
        <time>2018-08-16T09:52:20Z</time>
      </trkpt>
      <trkpt lat="45.96743" lon="4.5816">
        <ele>523</ele>
        <time>2018-08-16T09:52:21Z</time>
      </trkpt>
      <trkpt lat="45.96739" lon="4.58167">
        <ele>525</ele>
        <time>2018-08-16T09:52:22Z</time>
      </trkpt>
      <trkpt lat="45.96736" lon="4.58175">
        <ele>524</ele>
        <time>2018-08-16T09:52:23Z</time>
      </trkpt>
      <trkpt lat="45.96733" lon="4.58183">
        <ele>522</ele>
        <time>2018-08-16T09:52:24Z</time>
      </trkpt>
      <trkpt lat="45.96729" lon="4.58192">
        <ele>521</ele>
        <time>2018-08-16T09:52:25Z</time>
      </trkpt>
      <trkpt lat="45.96728" lon="4.58201">
        <ele>521</ele>
        <time>2018-08-16T09:52:26Z</time>
      </trkpt>
      <trkpt lat="45.96726" lon="4.5821">
        <ele>521</ele>
        <time>2018-08-16T09:52:27Z</time>
      </trkpt>
      <trkpt lat="45.96726" lon="4.58219">
        <ele>521</ele>
        <time>2018-08-16T09:52:28Z</time>
      </trkpt>
      <trkpt lat="45.96725" lon="4.58228">
        <ele>522</ele>
        <time>2018-08-16T09:52:29Z</time>
      </trkpt>
      <trkpt lat="45.96723" lon="4.58235">
        <ele>523</ele>
        <time>2018-08-16T09:52:30Z</time>
      </trkpt>
      <trkpt lat="45.96723" lon="4.58244">
        <ele>523</ele>
        <time>2018-08-16T09:52:31Z</time>
      </trkpt>
      <trkpt lat="45.96722" lon="4.58252">
        <ele>524</ele>
        <time>2018-08-16T09:52:32Z</time>
      </trkpt>
      <trkpt lat="45.96726" lon="4.58263">
        <ele>524</ele>
        <time>2018-08-16T09:52:33Z</time>
      </trkpt>
      <trkpt lat="45.96727" lon="4.58271">
        <ele>524</ele>
        <time>2018-08-16T09:52:34Z</time>
      </trkpt>
      <trkpt lat="45.96727" lon="4.58277">
        <ele>523</ele>
        <time>2018-08-16T09:52:35Z</time>
      </trkpt>
      <trkpt lat="45.96727" lon="4.58283">
        <ele>522</ele>
        <time>2018-08-16T09:52:36Z</time>
      </trkpt>
      <trkpt lat="45.96728" lon="4.5829">
        <ele>522</ele>
        <time>2018-08-16T09:52:37Z</time>
      </trkpt>
      <trkpt lat="45.96729" lon="4.58296">
        <ele>522</ele>
        <time>2018-08-16T09:52:38Z</time>
      </trkpt>
      <trkpt lat="45.96731" lon="4.58303">
        <ele>523</ele>
        <time>2018-08-16T09:52:39Z</time>
      </trkpt>
      <trkpt lat="45.96734" lon="4.5831">
        <ele>524</ele>
        <time>2018-08-16T09:52:40Z</time>
      </trkpt>
      <trkpt lat="45.96736" lon="4.58315">
        <ele>525</ele>
        <time>2018-08-16T09:52:41Z</time>
      </trkpt>
      <trkpt lat="45.96739" lon="4.58322">
        <ele>527</ele>
        <time>2018-08-16T09:52:42Z</time>
      </trkpt>
      <trkpt lat="45.96739" lon="4.58329">
        <ele>528</ele>
        <time>2018-08-16T09:52:43Z</time>
      </trkpt>
      <trkpt lat="45.96742" lon="4.58336">
        <ele>529</ele>
        <time>2018-08-16T09:52:44Z</time>
      </trkpt>
      <trkpt lat="45.96744" lon="4.58344">
        <ele>527</ele>
        <time>2018-08-16T09:52:45Z</time>
      </trkpt>
      <trkpt lat="45.96749" lon="4.58355">
        <ele>525</ele>
        <time>2018-08-16T09:52:46Z</time>
      </trkpt>
      <trkpt lat="45.96747" lon="4.58357">
        <ele>524</ele>
        <time>2018-08-16T09:52:47Z</time>
      </trkpt>
      <trkpt lat="45.96749" lon="4.58366">
        <ele>523</ele>
        <time>2018-08-16T09:52:48Z</time>
      </trkpt>
      <trkpt lat="45.96751" lon="4.58374">
        <ele>545</ele>
        <time>2018-08-16T09:52:49Z</time>
      </trkpt>
      <trkpt lat="45.96752" lon="4.58384">
        <ele>544</ele>
        <time>2018-08-16T09:52:51Z</time>
      </trkpt>
      <trkpt lat="45.96755" lon="4.58393">
        <ele>543</ele>
        <time>2018-08-16T09:52:52Z</time>
      </trkpt>
      <trkpt lat="45.96756" lon="4.58405">
        <ele>539</ele>
        <time>2018-08-16T09:52:54Z</time>
      </trkpt>
      <trkpt lat="45.96757" lon="4.58413">
        <ele>536</ele>
        <time>2018-08-16T09:52:55Z</time>
      </trkpt>
      <trkpt lat="45.96755" lon="4.58421">
        <ele>535</ele>
        <time>2018-08-16T09:52:56Z</time>
      </trkpt>
      <trkpt lat="45.96754" lon="4.5843">
        <ele>539</ele>
        <time>2018-08-16T09:52:57Z</time>
      </trkpt>
      <trkpt lat="45.96754" lon="4.58439">
        <ele>542</ele>
        <time>2018-08-16T09:52:58Z</time>
      </trkpt>
      <trkpt lat="45.96753" lon="4.58445">
        <ele>544</ele>
        <time>2018-08-16T09:52:59Z</time>
      </trkpt>
      <trkpt lat="45.96753" lon="4.58454">
        <ele>545</ele>
        <time>2018-08-16T09:53:00Z</time>
      </trkpt>
      <trkpt lat="45.96751" lon="4.58462">
        <ele>545</ele>
        <time>2018-08-16T09:53:01Z</time>
      </trkpt>
      <trkpt lat="45.9675" lon="4.5847">
        <ele>545</ele>
        <time>2018-08-16T09:53:02Z</time>
      </trkpt>
      <trkpt lat="45.9675" lon="4.58477">
        <ele>544</ele>
        <time>2018-08-16T09:53:03Z</time>
      </trkpt>
      <trkpt lat="45.96749" lon="4.58484">
        <ele>529</ele>
        <time>2018-08-16T09:53:04Z</time>
      </trkpt>
      <trkpt lat="45.96747" lon="4.58492">
        <ele>531</ele>
        <time>2018-08-16T09:53:05Z</time>
      </trkpt>
      <trkpt lat="45.96744" lon="4.58498">
        <ele>532</ele>
        <time>2018-08-16T09:53:06Z</time>
      </trkpt>
      <trkpt lat="45.96743" lon="4.58506">
        <ele>535</ele>
        <time>2018-08-16T09:53:07Z</time>
      </trkpt>
      <trkpt lat="45.96739" lon="4.58513">
        <ele>535</ele>
        <time>2018-08-16T09:53:08Z</time>
      </trkpt>
      <trkpt lat="45.96735" lon="4.5852">
        <ele>535</ele>
        <time>2018-08-16T09:53:09Z</time>
      </trkpt>
      <trkpt lat="45.96732" lon="4.58527">
        <ele>535</ele>
        <time>2018-08-16T09:53:10Z</time>
      </trkpt>
      <trkpt lat="45.96729" lon="4.58532">
        <ele>536</ele>
        <time>2018-08-16T09:53:11Z</time>
      </trkpt>
      <trkpt lat="45.96725" lon="4.58543">
        <ele>536</ele>
        <time>2018-08-16T09:53:13Z</time>
      </trkpt>
      <trkpt lat="45.96721" lon="4.58548">
        <ele>536</ele>
        <time>2018-08-16T09:53:14Z</time>
      </trkpt>
      <trkpt lat="45.96717" lon="4.58549">
        <ele>536</ele>
        <time>2018-08-16T09:53:15Z</time>
      </trkpt>
      <trkpt lat="45.96711" lon="4.5855">
        <ele>536</ele>
        <time>2018-08-16T09:53:16Z</time>
      </trkpt>
      <trkpt lat="45.96705" lon="4.5855">
        <ele>536</ele>
        <time>2018-08-16T09:53:17Z</time>
      </trkpt>
      <trkpt lat="45.96701" lon="4.58551">
        <ele>536</ele>
        <time>2018-08-16T09:53:18Z</time>
      </trkpt>
      <trkpt lat="45.96693" lon="4.58552">
        <ele>535</ele>
        <time>2018-08-16T09:53:20Z</time>
      </trkpt>
      <trkpt lat="45.96688" lon="4.5855">
        <ele>535</ele>
        <time>2018-08-16T09:53:21Z</time>
      </trkpt>
      <trkpt lat="45.96685" lon="4.58551">
        <ele>535</ele>
        <time>2018-08-16T09:53:22Z</time>
      </trkpt>
      <trkpt lat="45.96679" lon="4.58548">
        <ele>534</ele>
        <time>2018-08-16T09:53:23Z</time>
      </trkpt>
      <trkpt lat="45.96674" lon="4.58544">
        <ele>533</ele>
        <time>2018-08-16T09:53:24Z</time>
      </trkpt>
      <trkpt lat="45.96668" lon="4.58536">
        <ele>532</ele>
        <time>2018-08-16T09:53:25Z</time>
      </trkpt>
      <trkpt lat="45.96663" lon="4.58531">
        <ele>533</ele>
        <time>2018-08-16T09:53:26Z</time>
      </trkpt>
      <trkpt lat="45.96658" lon="4.58526">
        <ele>532</ele>
        <time>2018-08-16T09:53:27Z</time>
      </trkpt>
      <trkpt lat="45.96653" lon="4.5852">
        <ele>531</ele>
        <time>2018-08-16T09:53:28Z</time>
      </trkpt>
      <trkpt lat="45.96648" lon="4.58513">
        <ele>530</ele>
        <time>2018-08-16T09:53:29Z</time>
      </trkpt>
      <trkpt lat="45.96644" lon="4.58506">
        <ele>530</ele>
        <time>2018-08-16T09:53:30Z</time>
      </trkpt>
      <trkpt lat="45.96638" lon="4.585">
        <ele>519</ele>
        <time>2018-08-16T09:53:31Z</time>
      </trkpt>
      <trkpt lat="45.96635" lon="4.58495">
        <ele>520</ele>
        <time>2018-08-16T09:53:32Z</time>
      </trkpt>
      <trkpt lat="45.9663" lon="4.58491">
        <ele>520</ele>
        <time>2018-08-16T09:53:33Z</time>
      </trkpt>
      <trkpt lat="45.96626" lon="4.58486">
        <ele>520</ele>
        <time>2018-08-16T09:53:34Z</time>
      </trkpt>
      <trkpt lat="45.96621" lon="4.58482">
        <ele>520</ele>
        <time>2018-08-16T09:53:35Z</time>
      </trkpt>
      <trkpt lat="45.96617" lon="4.58476">
        <ele>520</ele>
        <time>2018-08-16T09:53:36Z</time>
      </trkpt>
      <trkpt lat="45.96615" lon="4.58472">
        <ele>520</ele>
        <time>2018-08-16T09:53:37Z</time>
      </trkpt>
      <trkpt lat="45.96611" lon="4.58468">
        <ele>520</ele>
        <time>2018-08-16T09:53:38Z</time>
      </trkpt>
      <trkpt lat="45.96605" lon="4.58464">
        <ele>520</ele>
        <time>2018-08-16T09:53:39Z</time>
      </trkpt>
      <trkpt lat="45.966" lon="4.58459">
        <ele>519</ele>
        <time>2018-08-16T09:53:40Z</time>
      </trkpt>
      <trkpt lat="45.96597" lon="4.58456">
        <ele>519</ele>
        <time>2018-08-16T09:53:41Z</time>
      </trkpt>
      <trkpt lat="45.96592" lon="4.58452">
        <ele>519</ele>
        <time>2018-08-16T09:53:42Z</time>
      </trkpt>
      <trkpt lat="45.96588" lon="4.58449">
        <ele>518</ele>
        <time>2018-08-16T09:53:43Z</time>
      </trkpt>
      <trkpt lat="45.96583" lon="4.58446">
        <ele>526</ele>
        <time>2018-08-16T09:53:44Z</time>
      </trkpt>
      <trkpt lat="45.96578" lon="4.58441">
        <ele>525</ele>
        <time>2018-08-16T09:53:45Z</time>
      </trkpt>
      <trkpt lat="45.96571" lon="4.58438">
        <ele>525</ele>
        <time>2018-08-16T09:53:46Z</time>
      </trkpt>
      <trkpt lat="45.96565" lon="4.58435">
        <ele>525</ele>
        <time>2018-08-16T09:53:47Z</time>
      </trkpt>
      <trkpt lat="45.9656" lon="4.58428">
        <ele>525</ele>
        <time>2018-08-16T09:53:49Z</time>
      </trkpt>
      <trkpt lat="45.96555" lon="4.58427">
        <ele>526</ele>
        <time>2018-08-16T09:53:50Z</time>
      </trkpt>
      <trkpt lat="45.9655" lon="4.58422">
        <ele>526</ele>
        <time>2018-08-16T09:53:51Z</time>
      </trkpt>
      <trkpt lat="45.96545" lon="4.5842">
        <ele>527</ele>
        <time>2018-08-16T09:53:52Z</time>
      </trkpt>
      <trkpt lat="45.9654" lon="4.58417">
        <ele>528</ele>
        <time>2018-08-16T09:53:53Z</time>
      </trkpt>
      <trkpt lat="45.96534" lon="4.58415">
        <ele>515</ele>
        <time>2018-08-16T09:53:54Z</time>
      </trkpt>
      <trkpt lat="45.96528" lon="4.58413">
        <ele>516</ele>
        <time>2018-08-16T09:53:55Z</time>
      </trkpt>
      <trkpt lat="45.96524" lon="4.5841">
        <ele>517</ele>
        <time>2018-08-16T09:53:56Z</time>
      </trkpt>
      <trkpt lat="45.96519" lon="4.5841">
        <ele>518</ele>
        <time>2018-08-16T09:53:57Z</time>
      </trkpt>
      <trkpt lat="45.96515" lon="4.58408">
        <ele>519</ele>
        <time>2018-08-16T09:53:58Z</time>
      </trkpt>
      <trkpt lat="45.96509" lon="4.58405">
        <ele>520</ele>
        <time>2018-08-16T09:53:59Z</time>
      </trkpt>
      <trkpt lat="45.96505" lon="4.58405">
        <ele>520</ele>
        <time>2018-08-16T09:54:00Z</time>
      </trkpt>
      <trkpt lat="45.96499" lon="4.58403">
        <ele>520</ele>
        <time>2018-08-16T09:54:01Z</time>
      </trkpt>
      <trkpt lat="45.96492" lon="4.58403">
        <ele>519</ele>
        <time>2018-08-16T09:54:02Z</time>
      </trkpt>
      <trkpt lat="45.96486" lon="4.58403">
        <ele>518</ele>
        <time>2018-08-16T09:54:03Z</time>
      </trkpt>
      <trkpt lat="45.96482" lon="4.58404">
        <ele>517</ele>
        <time>2018-08-16T09:54:04Z</time>
      </trkpt>
      <trkpt lat="45.96476" lon="4.58411">
        <ele>516</ele>
        <time>2018-08-16T09:54:06Z</time>
      </trkpt>
      <trkpt lat="45.9647" lon="4.58413">
        <ele>515</ele>
        <time>2018-08-16T09:54:07Z</time>
      </trkpt>
      <trkpt lat="45.96466" lon="4.58419">
        <ele>527</ele>
        <time>2018-08-16T09:54:08Z</time>
      </trkpt>
      <trkpt lat="45.96462" lon="4.58423">
        <ele>527</ele>
        <time>2018-08-16T09:54:09Z</time>
      </trkpt>
      <trkpt lat="45.96457" lon="4.58427">
        <ele>527</ele>
        <time>2018-08-16T09:54:10Z</time>
      </trkpt>
      <trkpt lat="45.96451" lon="4.58432">
        <ele>526</ele>
        <time>2018-08-16T09:54:11Z</time>
      </trkpt>
      <trkpt lat="45.96447" lon="4.58438">
        <ele>527</ele>
        <time>2018-08-16T09:54:12Z</time>
      </trkpt>
      <trkpt lat="45.96444" lon="4.58443">
        <ele>527</ele>
        <time>2018-08-16T09:54:13Z</time>
      </trkpt>
      <trkpt lat="45.9644" lon="4.58449">
        <ele>528</ele>
        <time>2018-08-16T09:54:14Z</time>
      </trkpt>
      <trkpt lat="45.96435" lon="4.58455">
        <ele>528</ele>
        <time>2018-08-16T09:54:15Z</time>
      </trkpt>
      <trkpt lat="45.96432" lon="4.58461">
        <ele>529</ele>
        <time>2018-08-16T09:54:16Z</time>
      </trkpt>
      <trkpt lat="45.96428" lon="4.58468">
        <ele>530</ele>
        <time>2018-08-16T09:54:17Z</time>
      </trkpt>
      <trkpt lat="45.96424" lon="4.58473">
        <ele>531</ele>
        <time>2018-08-16T09:54:18Z</time>
      </trkpt>
      <trkpt lat="45.9642" lon="4.58479">
        <ele>531</ele>
        <time>2018-08-16T09:54:19Z</time>
      </trkpt>
      <trkpt lat="45.96415" lon="4.58484">
        <ele>524</ele>
        <time>2018-08-16T09:54:20Z</time>
      </trkpt>
      <trkpt lat="45.96411" lon="4.58489">
        <ele>525</ele>
        <time>2018-08-16T09:54:21Z</time>
      </trkpt>
      <trkpt lat="45.96407" lon="4.58494">
        <ele>526</ele>
        <time>2018-08-16T09:54:22Z</time>
      </trkpt>
      <trkpt lat="45.96404" lon="4.58499">
        <ele>525</ele>
        <time>2018-08-16T09:54:23Z</time>
      </trkpt>
      <trkpt lat="45.96401" lon="4.58504">
        <ele>533</ele>
        <time>2018-08-16T09:54:24Z</time>
      </trkpt>
      <trkpt lat="45.96397" lon="4.58509">
        <ele>533</ele>
        <time>2018-08-16T09:54:25Z</time>
      </trkpt>
      <trkpt lat="45.96393" lon="4.58513">
        <ele>533</ele>
        <time>2018-08-16T09:54:26Z</time>
      </trkpt>
      <trkpt lat="45.96389" lon="4.58516">
        <ele>533</ele>
        <time>2018-08-16T09:54:27Z</time>
      </trkpt>
      <trkpt lat="45.96384" lon="4.58518">
        <ele>532</ele>
        <time>2018-08-16T09:54:28Z</time>
      </trkpt>
      <trkpt lat="45.9638" lon="4.58524">
        <ele>532</ele>
        <time>2018-08-16T09:54:29Z</time>
      </trkpt>
      <trkpt lat="45.96375" lon="4.58527">
        <ele>532</ele>
        <time>2018-08-16T09:54:30Z</time>
      </trkpt>
      <trkpt lat="45.96369" lon="4.58531">
        <ele>531</ele>
        <time>2018-08-16T09:54:31Z</time>
      </trkpt>
      <trkpt lat="45.96365" lon="4.58535">
        <ele>531</ele>
        <time>2018-08-16T09:54:32Z</time>
      </trkpt>
      <trkpt lat="45.9636" lon="4.58539">
        <ele>531</ele>
        <time>2018-08-16T09:54:33Z</time>
      </trkpt>
      <trkpt lat="45.96355" lon="4.58542">
        <ele>532</ele>
        <time>2018-08-16T09:54:34Z</time>
      </trkpt>
      <trkpt lat="45.96349" lon="4.58544">
        <ele>531</ele>
        <time>2018-08-16T09:54:35Z</time>
      </trkpt>
      <trkpt lat="45.96344" lon="4.58545">
        <ele>531</ele>
        <time>2018-08-16T09:54:36Z</time>
      </trkpt>
      <trkpt lat="45.96338" lon="4.58547">
        <ele>531</ele>
        <time>2018-08-16T09:54:37Z</time>
      </trkpt>
      <trkpt lat="45.96331" lon="4.58545">
        <ele>527</ele>
        <time>2018-08-16T09:54:38Z</time>
      </trkpt>
      <trkpt lat="45.96325" lon="4.58544">
        <ele>527</ele>
        <time>2018-08-16T09:54:39Z</time>
      </trkpt>
      <trkpt lat="45.9632" lon="4.58544">
        <ele>527</ele>
        <time>2018-08-16T09:54:40Z</time>
      </trkpt>
      <trkpt lat="45.96313" lon="4.58538">
        <ele>526</ele>
        <time>2018-08-16T09:54:41Z</time>
      </trkpt>
      <trkpt lat="45.96305" lon="4.58536">
        <ele>526</ele>
        <time>2018-08-16T09:54:42Z</time>
      </trkpt>
      <trkpt lat="45.96299" lon="4.58534">
        <ele>526</ele>
        <time>2018-08-16T09:54:43Z</time>
      </trkpt>
      <trkpt lat="45.96293" lon="4.58525">
        <ele>525</ele>
        <time>2018-08-16T09:54:45Z</time>
      </trkpt>
      <trkpt lat="45.96288" lon="4.58522">
        <ele>525</ele>
        <time>2018-08-16T09:54:46Z</time>
      </trkpt>
      <trkpt lat="45.9628" lon="4.58519">
        <ele>525</ele>
        <time>2018-08-16T09:54:47Z</time>
      </trkpt>
      <trkpt lat="45.96276" lon="4.58525">
        <ele>526</ele>
        <time>2018-08-16T09:54:48Z</time>
      </trkpt>
      <trkpt lat="45.9627" lon="4.58517">
        <ele>524</ele>
        <time>2018-08-16T09:54:51Z</time>
      </trkpt>
      <trkpt lat="45.96265" lon="4.58515">
        <ele>524</ele>
        <time>2018-08-16T09:54:52Z</time>
      </trkpt>
      <trkpt lat="45.96256" lon="4.58513">
        <ele>522</ele>
        <time>2018-08-16T09:54:54Z</time>
      </trkpt>
      <trkpt lat="45.96252" lon="4.58513">
        <ele>522</ele>
        <time>2018-08-16T09:54:55Z</time>
      </trkpt>
      <trkpt lat="45.96244" lon="4.58514">
        <ele>522</ele>
        <time>2018-08-16T09:54:56Z</time>
      </trkpt>
      <trkpt lat="45.96239" lon="4.58515">
        <ele>522</ele>
        <time>2018-08-16T09:54:57Z</time>
      </trkpt>
      <trkpt lat="45.9623" lon="4.58516">
        <ele>523</ele>
        <time>2018-08-16T09:54:59Z</time>
      </trkpt>
      <trkpt lat="45.96225" lon="4.58518">
        <ele>523</ele>
        <time>2018-08-16T09:55:00Z</time>
      </trkpt>
      <trkpt lat="45.96221" lon="4.58522">
        <ele>524</ele>
        <time>2018-08-16T09:55:01Z</time>
      </trkpt>
      <trkpt lat="45.96216" lon="4.58526">
        <ele>524</ele>
        <time>2018-08-16T09:55:02Z</time>
      </trkpt>
      <trkpt lat="45.96211" lon="4.58528">
        <ele>524</ele>
        <time>2018-08-16T09:55:03Z</time>
      </trkpt>
      <trkpt lat="45.96206" lon="4.58531">
        <ele>524</ele>
        <time>2018-08-16T09:55:04Z</time>
      </trkpt>
      <trkpt lat="45.962" lon="4.58533">
        <ele>524</ele>
        <time>2018-08-16T09:55:05Z</time>
      </trkpt>
      <trkpt lat="45.96195" lon="4.58539">
        <ele>524</ele>
        <time>2018-08-16T09:55:06Z</time>
      </trkpt>
      <trkpt lat="45.96192" lon="4.58544">
        <ele>525</ele>
        <time>2018-08-16T09:55:07Z</time>
      </trkpt>
      <trkpt lat="45.96187" lon="4.58548">
        <ele>525</ele>
        <time>2018-08-16T09:55:08Z</time>
      </trkpt>
      <trkpt lat="45.96182" lon="4.58553">
        <ele>526</ele>
        <time>2018-08-16T09:55:09Z</time>
      </trkpt>
      <trkpt lat="45.96177" lon="4.58558">
        <ele>527</ele>
        <time>2018-08-16T09:55:10Z</time>
      </trkpt>
      <trkpt lat="45.96173" lon="4.58565">
        <ele>528</ele>
        <time>2018-08-16T09:55:11Z</time>
      </trkpt>
      <trkpt lat="45.96169" lon="4.58571">
        <ele>529</ele>
        <time>2018-08-16T09:55:12Z</time>
      </trkpt>
      <trkpt lat="45.96165" lon="4.58578">
        <ele>527</ele>
        <time>2018-08-16T09:55:13Z</time>
      </trkpt>
      <trkpt lat="45.96161" lon="4.58584">
        <ele>531</ele>
        <time>2018-08-16T09:55:14Z</time>
      </trkpt>
      <trkpt lat="45.96157" lon="4.58591">
        <ele>532</ele>
        <time>2018-08-16T09:55:15Z</time>
      </trkpt>
      <trkpt lat="45.96152" lon="4.58598">
        <ele>532</ele>
        <time>2018-08-16T09:55:16Z</time>
      </trkpt>
      <trkpt lat="45.96147" lon="4.58603">
        <ele>533</ele>
        <time>2018-08-16T09:55:17Z</time>
      </trkpt>
      <trkpt lat="45.96142" lon="4.58609">
        <ele>533</ele>
        <time>2018-08-16T09:55:18Z</time>
      </trkpt>
      <trkpt lat="45.96138" lon="4.58613">
        <ele>533</ele>
        <time>2018-08-16T09:55:19Z</time>
      </trkpt>
      <trkpt lat="45.96133" lon="4.58617">
        <ele>533</ele>
        <time>2018-08-16T09:55:20Z</time>
      </trkpt>
      <trkpt lat="45.96129" lon="4.58621">
        <ele>533</ele>
        <time>2018-08-16T09:55:21Z</time>
      </trkpt>
      <trkpt lat="45.96124" lon="4.58625">
        <ele>533</ele>
        <time>2018-08-16T09:55:22Z</time>
      </trkpt>
      <trkpt lat="45.96119" lon="4.58628">
        <ele>533</ele>
        <time>2018-08-16T09:55:23Z</time>
      </trkpt>
      <trkpt lat="45.96115" lon="4.58629">
        <ele>533</ele>
        <time>2018-08-16T09:55:24Z</time>
      </trkpt>
      <trkpt lat="45.9611" lon="4.58631">
        <ele>533</ele>
        <time>2018-08-16T09:55:25Z</time>
      </trkpt>
      <trkpt lat="45.96104" lon="4.58632">
        <ele>532</ele>
        <time>2018-08-16T09:55:26Z</time>
      </trkpt>
      <trkpt lat="45.96099" lon="4.58633">
        <ele>532</ele>
        <time>2018-08-16T09:55:27Z</time>
      </trkpt>
      <trkpt lat="45.96094" lon="4.58635">
        <ele>532</ele>
        <time>2018-08-16T09:55:28Z</time>
      </trkpt>
      <trkpt lat="45.96088" lon="4.58635">
        <ele>532</ele>
        <time>2018-08-16T09:55:29Z</time>
      </trkpt>
      <trkpt lat="45.96083" lon="4.58636">
        <ele>528</ele>
        <time>2018-08-16T09:55:30Z</time>
      </trkpt>
      <trkpt lat="45.96078" lon="4.58636">
        <ele>528</ele>
        <time>2018-08-16T09:55:31Z</time>
      </trkpt>
      <trkpt lat="45.96071" lon="4.58631">
        <ele>527</ele>
        <time>2018-08-16T09:55:32Z</time>
      </trkpt>
      <trkpt lat="45.96065" lon="4.58629">
        <ele>527</ele>
        <time>2018-08-16T09:55:33Z</time>
      </trkpt>
      <trkpt lat="45.9606" lon="4.58627">
        <ele>527</ele>
        <time>2018-08-16T09:55:34Z</time>
      </trkpt>
      <trkpt lat="45.96055" lon="4.58624">
        <ele>527</ele>
        <time>2018-08-16T09:55:35Z</time>
      </trkpt>
      <trkpt lat="45.9605" lon="4.58621">
        <ele>526</ele>
        <time>2018-08-16T09:55:36Z</time>
      </trkpt>
      <trkpt lat="45.96045" lon="4.58619">
        <ele>526</ele>
        <time>2018-08-16T09:55:37Z</time>
      </trkpt>
      <trkpt lat="45.9604" lon="4.58615">
        <ele>526</ele>
        <time>2018-08-16T09:55:38Z</time>
      </trkpt>
      <trkpt lat="45.96033" lon="4.58611">
        <ele>526</ele>
        <time>2018-08-16T09:55:39Z</time>
      </trkpt>
      <trkpt lat="45.96027" lon="4.58607">
        <ele>525</ele>
        <time>2018-08-16T09:55:40Z</time>
      </trkpt>
      <trkpt lat="45.96019" lon="4.58607">
        <ele>525</ele>
        <time>2018-08-16T09:55:41Z</time>
      </trkpt>
      <trkpt lat="45.96015" lon="4.58602">
        <ele>525</ele>
        <time>2018-08-16T09:55:42Z</time>
      </trkpt>
      <trkpt lat="45.96012" lon="4.58599">
        <ele>524</ele>
        <time>2018-08-16T09:55:43Z</time>
      </trkpt>
      <trkpt lat="45.96007" lon="4.58594">
        <ele>523</ele>
        <time>2018-08-16T09:55:44Z</time>
      </trkpt>
      <trkpt lat="45.96003" lon="4.58591">
        <ele>522</ele>
        <time>2018-08-16T09:55:45Z</time>
      </trkpt>
      <trkpt lat="45.95999" lon="4.58588">
        <ele>521</ele>
        <time>2018-08-16T09:55:46Z</time>
      </trkpt>
      <trkpt lat="45.95994" lon="4.58581">
        <ele>518</ele>
        <time>2018-08-16T09:55:47Z</time>
      </trkpt>
      <trkpt lat="45.95989" lon="4.5858">
        <ele>517</ele>
        <time>2018-08-16T09:55:48Z</time>
      </trkpt>
      <trkpt lat="45.95983" lon="4.58578">
        <ele>516</ele>
        <time>2018-08-16T09:55:49Z</time>
      </trkpt>
      <trkpt lat="45.9598" lon="4.58575">
        <ele>515</ele>
        <time>2018-08-16T09:55:50Z</time>
      </trkpt>
      <trkpt lat="45.95976" lon="4.58578">
        <ele>515</ele>
        <time>2018-08-16T09:55:51Z</time>
      </trkpt>
      <trkpt lat="45.95971" lon="4.58577">
        <ele>514</ele>
        <time>2018-08-16T09:55:52Z</time>
      </trkpt>
      <trkpt lat="45.95964" lon="4.58575">
        <ele>514</ele>
        <time>2018-08-16T09:55:53Z</time>
      </trkpt>
      <trkpt lat="45.95959" lon="4.58575">
        <ele>514</ele>
        <time>2018-08-16T09:55:54Z</time>
      </trkpt>
      <trkpt lat="45.95955" lon="4.58577">
        <ele>514</ele>
        <time>2018-08-16T09:55:55Z</time>
      </trkpt>
      <trkpt lat="45.95951" lon="4.58583">
        <ele>514</ele>
        <time>2018-08-16T09:55:56Z</time>
      </trkpt>
      <trkpt lat="45.95945" lon="4.58586">
        <ele>523</ele>
        <time>2018-08-16T09:55:57Z</time>
      </trkpt>
      <trkpt lat="45.95941" lon="4.58591">
        <ele>522</ele>
        <time>2018-08-16T09:55:58Z</time>
      </trkpt>
      <trkpt lat="45.95936" lon="4.58601">
        <ele>523</ele>
        <time>2018-08-16T09:56:00Z</time>
      </trkpt>
      <trkpt lat="45.95932" lon="4.58605">
        <ele>523</ele>
        <time>2018-08-16T09:56:01Z</time>
      </trkpt>
      <trkpt lat="45.95927" lon="4.58614">
        <ele>524</ele>
        <time>2018-08-16T09:56:03Z</time>
      </trkpt>
      <trkpt lat="45.95925" lon="4.58622">
        <ele>525</ele>
        <time>2018-08-16T09:56:04Z</time>
      </trkpt>
      <trkpt lat="45.9592" lon="4.5863">
        <ele>526</ele>
        <time>2018-08-16T09:56:06Z</time>
      </trkpt>
      <trkpt lat="45.95916" lon="4.58635">
        <ele>517</ele>
        <time>2018-08-16T09:56:07Z</time>
      </trkpt>
      <trkpt lat="45.95912" lon="4.58646">
        <ele>520</ele>
        <time>2018-08-16T09:56:09Z</time>
      </trkpt>
      <trkpt lat="45.95909" lon="4.58651">
        <ele>521</ele>
        <time>2018-08-16T09:56:10Z</time>
      </trkpt>
      <trkpt lat="45.95905" lon="4.58656">
        <ele>521</ele>
        <time>2018-08-16T09:56:11Z</time>
      </trkpt>
      <trkpt lat="45.95902" lon="4.5866">
        <ele>521</ele>
        <time>2018-08-16T09:56:12Z</time>
      </trkpt>
      <trkpt lat="45.95899" lon="4.58666">
        <ele>521</ele>
        <time>2018-08-16T09:56:13Z</time>
      </trkpt>
      <trkpt lat="45.95896" lon="4.58672">
        <ele>528</ele>
        <time>2018-08-16T09:56:14Z</time>
      </trkpt>
      <trkpt lat="45.95891" lon="4.58683">
        <ele>528</ele>
        <time>2018-08-16T09:56:16Z</time>
      </trkpt>
      <trkpt lat="45.95888" lon="4.58688">
        <ele>528</ele>
        <time>2018-08-16T09:56:17Z</time>
      </trkpt>
      <trkpt lat="45.95886" lon="4.58693">
        <ele>528</ele>
        <time>2018-08-16T09:56:18Z</time>
      </trkpt>
      <trkpt lat="45.95882" lon="4.58699">
        <ele>528</ele>
        <time>2018-08-16T09:56:19Z</time>
      </trkpt>
      <trkpt lat="45.95878" lon="4.58704">
        <ele>527</ele>
        <time>2018-08-16T09:56:20Z</time>
      </trkpt>
      <trkpt lat="45.95876" lon="4.58711">
        <ele>528</ele>
        <time>2018-08-16T09:56:21Z</time>
      </trkpt>
      <trkpt lat="45.95873" lon="4.58715">
        <ele>528</ele>
        <time>2018-08-16T09:56:22Z</time>
      </trkpt>
      <trkpt lat="45.95869" lon="4.58719">
        <ele>528</ele>
        <time>2018-08-16T09:56:23Z</time>
      </trkpt>
      <trkpt lat="45.95865" lon="4.58729">
        <ele>528</ele>
        <time>2018-08-16T09:56:25Z</time>
      </trkpt>
      <trkpt lat="45.95861" lon="4.58734">
        <ele>528</ele>
        <time>2018-08-16T09:56:26Z</time>
      </trkpt>
      <trkpt lat="45.95857" lon="4.58738">
        <ele>527</ele>
        <time>2018-08-16T09:56:27Z</time>
      </trkpt>
      <trkpt lat="45.95853" lon="4.58742">
        <ele>527</ele>
        <time>2018-08-16T09:56:28Z</time>
      </trkpt>
      <trkpt lat="45.95849" lon="4.58746">
        <ele>526</ele>
        <time>2018-08-16T09:56:29Z</time>
      </trkpt>
      <trkpt lat="45.95844" lon="4.5875">
        <ele>526</ele>
        <time>2018-08-16T09:56:30Z</time>
      </trkpt>
      <trkpt lat="45.95839" lon="4.58753">
        <ele>529</ele>
        <time>2018-08-16T09:56:31Z</time>
      </trkpt>
      <trkpt lat="45.95834" lon="4.58757">
        <ele>529</ele>
        <time>2018-08-16T09:56:32Z</time>
      </trkpt>
      <trkpt lat="45.95829" lon="4.58761">
        <ele>525</ele>
        <time>2018-08-16T09:56:33Z</time>
      </trkpt>
      <trkpt lat="45.95822" lon="4.58763">
        <ele>525</ele>
        <time>2018-08-16T09:56:34Z</time>
      </trkpt>
      <trkpt lat="45.95819" lon="4.58769">
        <ele>525</ele>
        <time>2018-08-16T09:56:35Z</time>
      </trkpt>
      <trkpt lat="45.95814" lon="4.58773">
        <ele>526</ele>
        <time>2018-08-16T09:56:36Z</time>
      </trkpt>
      <trkpt lat="45.95808" lon="4.58775">
        <ele>526</ele>
        <time>2018-08-16T09:56:37Z</time>
      </trkpt>
      <trkpt lat="45.95802" lon="4.58776">
        <ele>525</ele>
        <time>2018-08-16T09:56:38Z</time>
      </trkpt>
      <trkpt lat="45.95796" lon="4.58777">
        <ele>525</ele>
        <time>2018-08-16T09:56:39Z</time>
      </trkpt>
      <trkpt lat="45.95791" lon="4.58779">
        <ele>525</ele>
        <time>2018-08-16T09:56:40Z</time>
      </trkpt>
      <trkpt lat="45.95785" lon="4.58783">
        <ele>525</ele>
        <time>2018-08-16T09:56:41Z</time>
      </trkpt>
      <trkpt lat="45.9578" lon="4.58786">
        <ele>525</ele>
        <time>2018-08-16T09:56:42Z</time>
      </trkpt>
      <trkpt lat="45.95774" lon="4.58789">
        <ele>525</ele>
        <time>2018-08-16T09:56:43Z</time>
      </trkpt>
      <trkpt lat="45.95769" lon="4.58793">
        <ele>525</ele>
        <time>2018-08-16T09:56:44Z</time>
      </trkpt>
      <trkpt lat="45.95764" lon="4.58796">
        <ele>525</ele>
        <time>2018-08-16T09:56:45Z</time>
      </trkpt>
      <trkpt lat="45.95759" lon="4.58799">
        <ele>525</ele>
        <time>2018-08-16T09:56:46Z</time>
      </trkpt>
      <trkpt lat="45.95754" lon="4.588">
        <ele>525</ele>
        <time>2018-08-16T09:56:47Z</time>
      </trkpt>
      <trkpt lat="45.95748" lon="4.58802">
        <ele>518</ele>
        <time>2018-08-16T09:56:48Z</time>
      </trkpt>
      <trkpt lat="45.95743" lon="4.58806">
        <ele>519</ele>
        <time>2018-08-16T09:56:49Z</time>
      </trkpt>
      <trkpt lat="45.95737" lon="4.5881">
        <ele>519</ele>
        <time>2018-08-16T09:56:50Z</time>
      </trkpt>
      <trkpt lat="45.95734" lon="4.58817">
        <ele>520</ele>
        <time>2018-08-16T09:56:51Z</time>
      </trkpt>
      <trkpt lat="45.95729" lon="4.58822">
        <ele>520</ele>
        <time>2018-08-16T09:56:52Z</time>
      </trkpt>
      <trkpt lat="45.95724" lon="4.58827">
        <ele>519</ele>
        <time>2018-08-16T09:56:53Z</time>
      </trkpt>
      <trkpt lat="45.95721" lon="4.58833">
        <ele>519</ele>
        <time>2018-08-16T09:56:54Z</time>
      </trkpt>
      <trkpt lat="45.95716" lon="4.58838">
        <ele>530</ele>
        <time>2018-08-16T09:56:55Z</time>
      </trkpt>
      <trkpt lat="45.9571" lon="4.58842">
        <ele>530</ele>
        <time>2018-08-16T09:56:56Z</time>
      </trkpt>
      <trkpt lat="45.95704" lon="4.58845">
        <ele>530</ele>
        <time>2018-08-16T09:56:57Z</time>
      </trkpt>
      <trkpt lat="45.95699" lon="4.58848">
        <ele>529</ele>
        <time>2018-08-16T09:56:58Z</time>
      </trkpt>
      <trkpt lat="45.95693" lon="4.58851">
        <ele>529</ele>
        <time>2018-08-16T09:56:59Z</time>
      </trkpt>
      <trkpt lat="45.95686" lon="4.58851">
        <ele>528</ele>
        <time>2018-08-16T09:57:00Z</time>
      </trkpt>
      <trkpt lat="45.9568" lon="4.58851">
        <ele>527</ele>
        <time>2018-08-16T09:57:01Z</time>
      </trkpt>
      <trkpt lat="45.95673" lon="4.5885">
        <ele>525</ele>
        <time>2018-08-16T09:57:02Z</time>
      </trkpt>
      <trkpt lat="45.95669" lon="4.58854">
        <ele>526</ele>
        <time>2018-08-16T09:57:03Z</time>
      </trkpt>
      <trkpt lat="45.95663" lon="4.58853">
        <ele>523</ele>
        <time>2018-08-16T09:57:04Z</time>
      </trkpt>
      <trkpt lat="45.95657" lon="4.58854">
        <ele>523</ele>
        <time>2018-08-16T09:57:05Z</time>
      </trkpt>
      <trkpt lat="45.95652" lon="4.58854">
        <ele>524</ele>
        <time>2018-08-16T09:57:06Z</time>
      </trkpt>
      <trkpt lat="45.95643" lon="4.58856">
        <ele>524</ele>
        <time>2018-08-16T09:57:08Z</time>
      </trkpt>
      <trkpt lat="45.95639" lon="4.58857">
        <ele>525</ele>
        <time>2018-08-16T09:57:09Z</time>
      </trkpt>
      <trkpt lat="45.95631" lon="4.58861">
        <ele>525</ele>
        <time>2018-08-16T09:57:11Z</time>
      </trkpt>
      <trkpt lat="45.95626" lon="4.58861">
        <ele>525</ele>
        <time>2018-08-16T09:57:12Z</time>
      </trkpt>
      <trkpt lat="45.9562" lon="4.58861">
        <ele>525</ele>
        <time>2018-08-16T09:57:13Z</time>
      </trkpt>
      <trkpt lat="45.95616" lon="4.58861">
        <ele>525</ele>
        <time>2018-08-16T09:57:14Z</time>
      </trkpt>
      <trkpt lat="45.95609" lon="4.58859">
        <ele>525</ele>
        <time>2018-08-16T09:57:15Z</time>
      </trkpt>
      <trkpt lat="45.95604" lon="4.58859">
        <ele>524</ele>
        <time>2018-08-16T09:57:16Z</time>
      </trkpt>
      <trkpt lat="45.95597" lon="4.58862">
        <ele>525</ele>
        <time>2018-08-16T09:57:18Z</time>
      </trkpt>
      <trkpt lat="45.95593" lon="4.58862">
        <ele>524</ele>
        <time>2018-08-16T09:57:19Z</time>
      </trkpt>
      <trkpt lat="45.95587" lon="4.58862">
        <ele>524</ele>
        <time>2018-08-16T09:57:20Z</time>
      </trkpt>
      <trkpt lat="45.95582" lon="4.58861">
        <ele>525</ele>
        <time>2018-08-16T09:57:21Z</time>
      </trkpt>
      <trkpt lat="45.95577" lon="4.58861">
        <ele>525</ele>
        <time>2018-08-16T09:57:22Z</time>
      </trkpt>
      <trkpt lat="45.9557" lon="4.58862">
        <ele>526</ele>
        <time>2018-08-16T09:57:23Z</time>
      </trkpt>
      <trkpt lat="45.95567" lon="4.58862">
        <ele>526</ele>
        <time>2018-08-16T09:57:24Z</time>
      </trkpt>
      <trkpt lat="45.95559" lon="4.58862">
        <ele>526</ele>
        <time>2018-08-16T09:57:25Z</time>
      </trkpt>
      <trkpt lat="45.95555" lon="4.58859">
        <ele>526</ele>
        <time>2018-08-16T09:57:27Z</time>
      </trkpt>
      <trkpt lat="45.95549" lon="4.58861">
        <ele>527</ele>
        <time>2018-08-16T09:57:28Z</time>
      </trkpt>
      <trkpt lat="45.95544" lon="4.58859">
        <ele>527</ele>
        <time>2018-08-16T09:57:29Z</time>
      </trkpt>
      <trkpt lat="45.9554" lon="4.58857">
        <ele>527</ele>
        <time>2018-08-16T09:57:30Z</time>
      </trkpt>
      <trkpt lat="45.95532" lon="4.5885">
        <ele>527</ele>
        <time>2018-08-16T09:57:32Z</time>
      </trkpt>
      <trkpt lat="45.9553" lon="4.58846">
        <ele>527</ele>
        <time>2018-08-16T09:57:33Z</time>
      </trkpt>
      <trkpt lat="45.95526" lon="4.58842">
        <ele>527</ele>
        <time>2018-08-16T09:57:34Z</time>
      </trkpt>
      <trkpt lat="45.95522" lon="4.58835">
        <ele>527</ele>
        <time>2018-08-16T09:57:35Z</time>
      </trkpt>
      <trkpt lat="45.95519" lon="4.58829">
        <ele>521</ele>
        <time>2018-08-16T09:57:36Z</time>
      </trkpt>
      <trkpt lat="45.95515" lon="4.58824">
        <ele>522</ele>
        <time>2018-08-16T09:57:37Z</time>
      </trkpt>
      <trkpt lat="45.95512" lon="4.58817">
        <ele>521</ele>
        <time>2018-08-16T09:57:38Z</time>
      </trkpt>
      <trkpt lat="45.9551" lon="4.5881">
        <ele>520</ele>
        <time>2018-08-16T09:57:39Z</time>
      </trkpt>
      <trkpt lat="45.95506" lon="4.58803">
        <ele>520</ele>
        <time>2018-08-16T09:57:40Z</time>
      </trkpt>
      <trkpt lat="45.95502" lon="4.58796">
        <ele>520</ele>
        <time>2018-08-16T09:57:41Z</time>
      </trkpt>
      <trkpt lat="45.95499" lon="4.5879">
        <ele>528</ele>
        <time>2018-08-16T09:57:42Z</time>
      </trkpt>
      <trkpt lat="45.95496" lon="4.58782">
        <ele>527</ele>
        <time>2018-08-16T09:57:43Z</time>
      </trkpt>
      <trkpt lat="45.95494" lon="4.58774">
        <ele>526</ele>
        <time>2018-08-16T09:57:44Z</time>
      </trkpt>
      <trkpt lat="45.95495" lon="4.58767">
        <ele>525</ele>
        <time>2018-08-16T09:57:45Z</time>
      </trkpt>
      <trkpt lat="45.95496" lon="4.5876">
        <ele>524</ele>
        <time>2018-08-16T09:57:46Z</time>
      </trkpt>
      <trkpt lat="45.95495" lon="4.58753">
        <ele>522</ele>
        <time>2018-08-16T09:57:47Z</time>
      </trkpt>
      <trkpt lat="45.95497" lon="4.5874">
        <ele>522</ele>
        <time>2018-08-16T09:57:49Z</time>
      </trkpt>
      <trkpt lat="45.95498" lon="4.58733">
        <ele>523</ele>
        <time>2018-08-16T09:57:50Z</time>
      </trkpt>
      <trkpt lat="45.95499" lon="4.58727">
        <ele>523</ele>
        <time>2018-08-16T09:57:51Z</time>
      </trkpt>
      <trkpt lat="45.95501" lon="4.5872">
        <ele>512</ele>
        <time>2018-08-16T09:57:52Z</time>
      </trkpt>
      <trkpt lat="45.95502" lon="4.58713">
        <ele>511</ele>
        <time>2018-08-16T09:57:53Z</time>
      </trkpt>
      <trkpt lat="45.95501" lon="4.58706">
        <ele>511</ele>
        <time>2018-08-16T09:57:54Z</time>
      </trkpt>
      <trkpt lat="45.955" lon="4.58698">
        <ele>511</ele>
        <time>2018-08-16T09:57:55Z</time>
      </trkpt>
      <trkpt lat="45.955" lon="4.5869">
        <ele>521</ele>
        <time>2018-08-16T09:57:56Z</time>
      </trkpt>
      <trkpt lat="45.95498" lon="4.58682">
        <ele>520</ele>
        <time>2018-08-16T09:57:57Z</time>
      </trkpt>
      <trkpt lat="45.95497" lon="4.58674">
        <ele>518</ele>
        <time>2018-08-16T09:57:58Z</time>
      </trkpt>
      <trkpt lat="45.95495" lon="4.58668">
        <ele>517</ele>
        <time>2018-08-16T09:57:59Z</time>
      </trkpt>
      <trkpt lat="45.95493" lon="4.5866">
        <ele>518</ele>
        <time>2018-08-16T09:58:00Z</time>
      </trkpt>
      <trkpt lat="45.95493" lon="4.58652">
        <ele>519</ele>
        <time>2018-08-16T09:58:01Z</time>
      </trkpt>
      <trkpt lat="45.95493" lon="4.58646">
        <ele>520</ele>
        <time>2018-08-16T09:58:02Z</time>
      </trkpt>
      <trkpt lat="45.95492" lon="4.58639">
        <ele>520</ele>
        <time>2018-08-16T09:58:03Z</time>
      </trkpt>
      <trkpt lat="45.95489" lon="4.58634">
        <ele>520</ele>
        <time>2018-08-16T09:58:04Z</time>
      </trkpt>
      <trkpt lat="45.95486" lon="4.58627">
        <ele>521</ele>
        <time>2018-08-16T09:58:05Z</time>
      </trkpt>
      <trkpt lat="45.95485" lon="4.58619">
        <ele>520</ele>
        <time>2018-08-16T09:58:06Z</time>
      </trkpt>
      <trkpt lat="45.95483" lon="4.58613">
        <ele>520</ele>
        <time>2018-08-16T09:58:07Z</time>
      </trkpt>
      <trkpt lat="45.95481" lon="4.58605">
        <ele>520</ele>
        <time>2018-08-16T09:58:08Z</time>
      </trkpt>
      <trkpt lat="45.95478" lon="4.58598">
        <ele>520</ele>
        <time>2018-08-16T09:58:09Z</time>
      </trkpt>
      <trkpt lat="45.95477" lon="4.58591">
        <ele>520</ele>
        <time>2018-08-16T09:58:10Z</time>
      </trkpt>
      <trkpt lat="45.95475" lon="4.58584">
        <ele>520</ele>
        <time>2018-08-16T09:58:11Z</time>
      </trkpt>
      <trkpt lat="45.95473" lon="4.58578">
        <ele>517</ele>
        <time>2018-08-16T09:58:12Z</time>
      </trkpt>
      <trkpt lat="45.95472" lon="4.58569">
        <ele>518</ele>
        <time>2018-08-16T09:58:13Z</time>
      </trkpt>
      <trkpt lat="45.9547" lon="4.58561">
        <ele>518</ele>
        <time>2018-08-16T09:58:14Z</time>
      </trkpt>
      <trkpt lat="45.95467" lon="4.58554">
        <ele>518</ele>
        <time>2018-08-16T09:58:15Z</time>
      </trkpt>
      <trkpt lat="45.95465" lon="4.58549">
        <ele>518</ele>
        <time>2018-08-16T09:58:16Z</time>
      </trkpt>
      <trkpt lat="45.95463" lon="4.58544">
        <ele>518</ele>
        <time>2018-08-16T09:58:17Z</time>
      </trkpt>
      <trkpt lat="45.9546" lon="4.58538">
        <ele>519</ele>
        <time>2018-08-16T09:58:18Z</time>
      </trkpt>
      <trkpt lat="45.95457" lon="4.58533">
        <ele>519</ele>
        <time>2018-08-16T09:58:19Z</time>
      </trkpt>
      <trkpt lat="45.95453" lon="4.58526">
        <ele>519</ele>
        <time>2018-08-16T09:58:20Z</time>
      </trkpt>
      <trkpt lat="45.95449" lon="4.58521">
        <ele>520</ele>
        <time>2018-08-16T09:58:21Z</time>
      </trkpt>
      <trkpt lat="45.95445" lon="4.58516">
        <ele>520</ele>
        <time>2018-08-16T09:58:22Z</time>
      </trkpt>
      <trkpt lat="45.95441" lon="4.5851">
        <ele>521</ele>
        <time>2018-08-16T09:58:23Z</time>
      </trkpt>
      <trkpt lat="45.95436" lon="4.58504">
        <ele>522</ele>
        <time>2018-08-16T09:58:24Z</time>
      </trkpt>
      <trkpt lat="45.95432" lon="4.58499">
        <ele>518</ele>
        <time>2018-08-16T09:58:25Z</time>
      </trkpt>
      <trkpt lat="45.95426" lon="4.58493">
        <ele>520</ele>
        <time>2018-08-16T09:58:26Z</time>
      </trkpt>
      <trkpt lat="45.95422" lon="4.58487">
        <ele>519</ele>
        <time>2018-08-16T09:58:27Z</time>
      </trkpt>
      <trkpt lat="45.95418" lon="4.58482">
        <ele>518</ele>
        <time>2018-08-16T09:58:28Z</time>
      </trkpt>
      <trkpt lat="45.95414" lon="4.58478">
        <ele>525</ele>
        <time>2018-08-16T09:58:29Z</time>
      </trkpt>
      <trkpt lat="45.95409" lon="4.58473">
        <ele>525</ele>
        <time>2018-08-16T09:58:30Z</time>
      </trkpt>
      <trkpt lat="45.95405" lon="4.5847">
        <ele>524</ele>
        <time>2018-08-16T09:58:31Z</time>
      </trkpt>
      <trkpt lat="45.95401" lon="4.58466">
        <ele>524</ele>
        <time>2018-08-16T09:58:32Z</time>
      </trkpt>
      <trkpt lat="45.95397" lon="4.58462">
        <ele>524</ele>
        <time>2018-08-16T09:58:33Z</time>
      </trkpt>
      <trkpt lat="45.95393" lon="4.58459">
        <ele>524</ele>
        <time>2018-08-16T09:58:34Z</time>
      </trkpt>
      <trkpt lat="45.9539" lon="4.58451">
        <ele>523</ele>
        <time>2018-08-16T09:58:36Z</time>
      </trkpt>
      <trkpt lat="45.95385" lon="4.58447">
        <ele>523</ele>
        <time>2018-08-16T09:58:37Z</time>
      </trkpt>
      <trkpt lat="45.95379" lon="4.58439">
        <ele>523</ele>
        <time>2018-08-16T09:58:39Z</time>
      </trkpt>
      <trkpt lat="45.95374" lon="4.58435">
        <ele>523</ele>
        <time>2018-08-16T09:58:40Z</time>
      </trkpt>
      <trkpt lat="45.95372" lon="4.58424">
        <ele>523</ele>
        <time>2018-08-16T09:58:42Z</time>
      </trkpt>
      <trkpt lat="45.95365" lon="4.58422">
        <ele>524</ele>
        <time>2018-08-16T09:58:43Z</time>
      </trkpt>
      <trkpt lat="45.95358" lon="4.58417">
        <ele>524</ele>
        <time>2018-08-16T09:58:45Z</time>
      </trkpt>
      <trkpt lat="45.95354" lon="4.58414">
        <ele>518</ele>
        <time>2018-08-16T09:58:46Z</time>
      </trkpt>
      <trkpt lat="45.95351" lon="4.5841">
        <ele>518</ele>
        <time>2018-08-16T09:58:47Z</time>
      </trkpt>
      <trkpt lat="45.95346" lon="4.58409">
        <ele>519</ele>
        <time>2018-08-16T09:58:48Z</time>
      </trkpt>
      <trkpt lat="45.95341" lon="4.58407">
        <ele>520</ele>
        <time>2018-08-16T09:58:49Z</time>
      </trkpt>
      <trkpt lat="45.95336" lon="4.58402">
        <ele>519</ele>
        <time>2018-08-16T09:58:50Z</time>
      </trkpt>
      <trkpt lat="45.95335" lon="4.58399">
        <ele>519</ele>
        <time>2018-08-16T09:58:51Z</time>
      </trkpt>
      <trkpt lat="45.95329" lon="4.58394">
        <ele>523</ele>
        <time>2018-08-16T09:58:52Z</time>
      </trkpt>
      <trkpt lat="45.95325" lon="4.58389">
        <ele>523</ele>
        <time>2018-08-16T09:58:53Z</time>
      </trkpt>
      <trkpt lat="45.95321" lon="4.58386">
        <ele>523</ele>
        <time>2018-08-16T09:58:54Z</time>
      </trkpt>
      <trkpt lat="45.95316" lon="4.58383">
        <ele>523</ele>
        <time>2018-08-16T09:58:55Z</time>
      </trkpt>
      <trkpt lat="45.95312" lon="4.58379">
        <ele>522</ele>
        <time>2018-08-16T09:58:56Z</time>
      </trkpt>
      <trkpt lat="45.95307" lon="4.58374">
        <ele>522</ele>
        <time>2018-08-16T09:58:57Z</time>
      </trkpt>
      <trkpt lat="45.95305" lon="4.5837">
        <ele>522</ele>
        <time>2018-08-16T09:58:58Z</time>
      </trkpt>
      <trkpt lat="45.953" lon="4.58366">
        <ele>522</ele>
        <time>2018-08-16T09:58:59Z</time>
      </trkpt>
      <trkpt lat="45.95295" lon="4.58363">
        <ele>522</ele>
        <time>2018-08-16T09:59:00Z</time>
      </trkpt>
      <trkpt lat="45.95288" lon="4.58359">
        <ele>522</ele>
        <time>2018-08-16T09:59:02Z</time>
      </trkpt>
      <trkpt lat="45.95283" lon="4.58357">
        <ele>522</ele>
        <time>2018-08-16T09:59:03Z</time>
      </trkpt>
      <trkpt lat="45.95277" lon="4.58354">
        <ele>522</ele>
        <time>2018-08-16T09:59:04Z</time>
      </trkpt>
      <trkpt lat="45.9527" lon="4.58351">
        <ele>522</ele>
        <time>2018-08-16T09:59:05Z</time>
      </trkpt>
      <trkpt lat="45.95268" lon="4.58347">
        <ele>522</ele>
        <time>2018-08-16T09:59:06Z</time>
      </trkpt>
      <trkpt lat="45.95261" lon="4.58345">
        <ele>522</ele>
        <time>2018-08-16T09:59:07Z</time>
      </trkpt>
      <trkpt lat="45.95256" lon="4.58344">
        <ele>522</ele>
        <time>2018-08-16T09:59:08Z</time>
      </trkpt>
      <trkpt lat="45.95249" lon="4.58343">
        <ele>524</ele>
        <time>2018-08-16T09:59:09Z</time>
      </trkpt>
      <trkpt lat="45.95245" lon="4.5834">
        <ele>524</ele>
        <time>2018-08-16T09:59:10Z</time>
      </trkpt>
      <trkpt lat="45.9524" lon="4.58338">
        <ele>524</ele>
        <time>2018-08-16T09:59:11Z</time>
      </trkpt>
      <trkpt lat="45.95235" lon="4.58335">
        <ele>525</ele>
        <time>2018-08-16T09:59:12Z</time>
      </trkpt>
      <trkpt lat="45.9523" lon="4.58334">
        <ele>526</ele>
        <time>2018-08-16T09:59:13Z</time>
      </trkpt>
      <trkpt lat="45.95224" lon="4.58337">
        <ele>527</ele>
        <time>2018-08-16T09:59:15Z</time>
      </trkpt>
      <trkpt lat="45.95221" lon="4.58339">
        <ele>527</ele>
        <time>2018-08-16T09:59:16Z</time>
      </trkpt>
      <trkpt lat="45.95213" lon="4.5834">
        <ele>528</ele>
        <time>2018-08-16T09:59:18Z</time>
      </trkpt>
      <trkpt lat="45.95208" lon="4.5834">
        <ele>528</ele>
        <time>2018-08-16T09:59:19Z</time>
      </trkpt>
      <trkpt lat="45.95203" lon="4.58338">
        <ele>528</ele>
        <time>2018-08-16T09:59:20Z</time>
      </trkpt>
      <trkpt lat="45.95198" lon="4.58335">
        <ele>528</ele>
        <time>2018-08-16T09:59:21Z</time>
      </trkpt>
      <trkpt lat="45.95192" lon="4.58335">
        <ele>528</ele>
        <time>2018-08-16T09:59:22Z</time>
      </trkpt>
      <trkpt lat="45.95188" lon="4.58334">
        <ele>528</ele>
        <time>2018-08-16T09:59:23Z</time>
      </trkpt>
      <trkpt lat="45.95183" lon="4.58333">
        <ele>522</ele>
        <time>2018-08-16T09:59:24Z</time>
      </trkpt>
      <trkpt lat="45.95178" lon="4.58333">
        <ele>523</ele>
        <time>2018-08-16T09:59:25Z</time>
      </trkpt>
      <trkpt lat="45.95173" lon="4.58329">
        <ele>524</ele>
        <time>2018-08-16T09:59:26Z</time>
      </trkpt>
      <trkpt lat="45.95169" lon="4.58329">
        <ele>525</ele>
        <time>2018-08-16T09:59:27Z</time>
      </trkpt>
      <trkpt lat="45.95162" lon="4.58329">
        <ele>525</ele>
        <time>2018-08-16T09:59:29Z</time>
      </trkpt>
      <trkpt lat="45.95156" lon="4.58328">
        <ele>524</ele>
        <time>2018-08-16T09:59:30Z</time>
      </trkpt>
      <trkpt lat="45.95151" lon="4.58326">
        <ele>523</ele>
        <time>2018-08-16T09:59:31Z</time>
      </trkpt>
      <trkpt lat="45.95145" lon="4.58324">
        <ele>523</ele>
        <time>2018-08-16T09:59:32Z</time>
      </trkpt>
      <trkpt lat="45.9514" lon="4.58323">
        <ele>522</ele>
        <time>2018-08-16T09:59:33Z</time>
      </trkpt>
      <trkpt lat="45.95134" lon="4.58322">
        <ele>522</ele>
        <time>2018-08-16T09:59:34Z</time>
      </trkpt>
      <trkpt lat="45.95128" lon="4.5832">
        <ele>522</ele>
        <time>2018-08-16T09:59:35Z</time>
      </trkpt>
      <trkpt lat="45.95123" lon="4.58318">
        <ele>522</ele>
        <time>2018-08-16T09:59:36Z</time>
      </trkpt>
      <trkpt lat="45.95117" lon="4.58315">
        <ele>522</ele>
        <time>2018-08-16T09:59:37Z</time>
      </trkpt>
      <trkpt lat="45.95111" lon="4.58309">
        <ele>521</ele>
        <time>2018-08-16T09:59:38Z</time>
      </trkpt>
      <trkpt lat="45.95107" lon="4.5831">
        <ele>521</ele>
        <time>2018-08-16T09:59:39Z</time>
      </trkpt>
      <trkpt lat="45.95101" lon="4.58307">
        <ele>521</ele>
        <time>2018-08-16T09:59:40Z</time>
      </trkpt>
      <trkpt lat="45.95096" lon="4.58308">
        <ele>522</ele>
        <time>2018-08-16T09:59:42Z</time>
      </trkpt>
      <trkpt lat="45.95087" lon="4.58307">
        <ele>522</ele>
        <time>2018-08-16T09:59:43Z</time>
      </trkpt>
      <trkpt lat="45.95081" lon="4.58306">
        <ele>523</ele>
        <time>2018-08-16T09:59:44Z</time>
      </trkpt>
      <trkpt lat="45.95077" lon="4.58308">
        <ele>523</ele>
        <time>2018-08-16T09:59:45Z</time>
      </trkpt>
      <trkpt lat="45.95069" lon="4.58307">
        <ele>523</ele>
        <time>2018-08-16T09:59:47Z</time>
      </trkpt>
      <trkpt lat="45.95063" lon="4.58307">
        <ele>523</ele>
        <time>2018-08-16T09:59:48Z</time>
      </trkpt>
      <trkpt lat="45.95058" lon="4.58305">
        <ele>522</ele>
        <time>2018-08-16T09:59:49Z</time>
      </trkpt>
      <trkpt lat="45.95053" lon="4.58305">
        <ele>522</ele>
        <time>2018-08-16T09:59:50Z</time>
      </trkpt>
      <trkpt lat="45.95049" lon="4.5831">
        <ele>523</ele>
        <time>2018-08-16T09:59:51Z</time>
      </trkpt>
      <trkpt lat="45.95044" lon="4.58309">
        <ele>523</ele>
        <time>2018-08-16T09:59:52Z</time>
      </trkpt>
      <trkpt lat="45.95035" lon="4.5831">
        <ele>523</ele>
        <time>2018-08-16T09:59:54Z</time>
      </trkpt>
      <trkpt lat="45.9503" lon="4.5831">
        <ele>523</ele>
        <time>2018-08-16T09:59:55Z</time>
      </trkpt>
      <trkpt lat="45.95021" lon="4.5831">
        <ele>523</ele>
        <time>2018-08-16T09:59:57Z</time>
      </trkpt>
      <trkpt lat="45.95015" lon="4.58309">
        <ele>523</ele>
        <time>2018-08-16T09:59:58Z</time>
      </trkpt>
      <trkpt lat="45.95007" lon="4.58309">
        <ele>524</ele>
        <time>2018-08-16T10:00:00Z</time>
      </trkpt>
      <trkpt lat="45.95005" lon="4.58311">
        <ele>524</ele>
        <time>2018-08-16T10:00:01Z</time>
      </trkpt>
      <trkpt lat="45.94999" lon="4.58308">
        <ele>524</ele>
        <time>2018-08-16T10:00:02Z</time>
      </trkpt>
      <trkpt lat="45.94996" lon="4.58307">
        <ele>524</ele>
        <time>2018-08-16T10:00:03Z</time>
      </trkpt>
      <trkpt lat="45.94988" lon="4.58305">
        <ele>524</ele>
        <time>2018-08-16T10:00:05Z</time>
      </trkpt>
      <trkpt lat="45.94983" lon="4.58304">
        <ele>524</ele>
        <time>2018-08-16T10:00:06Z</time>
      </trkpt>
      <trkpt lat="45.94976" lon="4.58303">
        <ele>524</ele>
        <time>2018-08-16T10:00:07Z</time>
      </trkpt>
      <trkpt lat="45.94972" lon="4.58303">
        <ele>524</ele>
        <time>2018-08-16T10:00:08Z</time>
      </trkpt>
      <trkpt lat="45.94964" lon="4.58304">
        <ele>524</ele>
        <time>2018-08-16T10:00:10Z</time>
      </trkpt>
      <trkpt lat="45.94959" lon="4.58305">
        <ele>524</ele>
        <time>2018-08-16T10:00:11Z</time>
      </trkpt>
      <trkpt lat="45.9495" lon="4.58308">
        <ele>524</ele>
        <time>2018-08-16T10:00:13Z</time>
      </trkpt>
      <trkpt lat="45.94948" lon="4.58312">
        <ele>524</ele>
        <time>2018-08-16T10:00:14Z</time>
      </trkpt>
      <trkpt lat="45.94942" lon="4.58313">
        <ele>524</ele>
        <time>2018-08-16T10:00:15Z</time>
      </trkpt>
      <trkpt lat="45.94937" lon="4.58316">
        <ele>525</ele>
        <time>2018-08-16T10:00:16Z</time>
      </trkpt>
      <trkpt lat="45.94929" lon="4.58319">
        <ele>525</ele>
        <time>2018-08-16T10:00:18Z</time>
      </trkpt>
      <trkpt lat="45.94924" lon="4.58321">
        <ele>525</ele>
        <time>2018-08-16T10:00:19Z</time>
      </trkpt>
      <trkpt lat="45.94919" lon="4.58324">
        <ele>526</ele>
        <time>2018-08-16T10:00:21Z</time>
      </trkpt>
      <trkpt lat="45.94913" lon="4.58327">
        <ele>527</ele>
        <time>2018-08-16T10:00:22Z</time>
      </trkpt>
      <trkpt lat="45.94907" lon="4.58324">
        <ele>528</ele>
        <time>2018-08-16T10:00:26Z</time>
      </trkpt>
      <trkpt lat="45.94905" lon="4.58322">
        <ele>528</ele>
        <time>2018-08-16T10:00:27Z</time>
      </trkpt>
      <trkpt lat="45.94901" lon="4.58311">
        <ele>528</ele>
        <time>2018-08-16T10:00:28Z</time>
      </trkpt>
      <trkpt lat="45.949" lon="4.58306">
        <ele>528</ele>
        <time>2018-08-16T10:00:29Z</time>
      </trkpt>
      <trkpt lat="45.94898" lon="4.58295">
        <ele>528</ele>
        <time>2018-08-16T10:00:31Z</time>
      </trkpt>
      <trkpt lat="45.94898" lon="4.5829">
        <ele>527</ele>
        <time>2018-08-16T10:00:32Z</time>
      </trkpt>
      <trkpt lat="45.94897" lon="4.58278">
        <ele>527</ele>
        <time>2018-08-16T10:00:34Z</time>
      </trkpt>
      <trkpt lat="45.94896" lon="4.58272">
        <ele>527</ele>
        <time>2018-08-16T10:00:35Z</time>
      </trkpt>
      <trkpt lat="45.94894" lon="4.5826">
        <ele>526</ele>
        <time>2018-08-16T10:00:38Z</time>
      </trkpt>
      <trkpt lat="45.94894" lon="4.58258">
        <ele>526</ele>
        <time>2018-08-16T10:00:39Z</time>
      </trkpt>
      <trkpt lat="45.94894" lon="4.58248">
        <ele>523</ele>
        <time>2018-08-16T10:00:41Z</time>
      </trkpt>
      <trkpt lat="45.94893" lon="4.58241">
        <ele>523</ele>
        <time>2018-08-16T10:00:42Z</time>
      </trkpt>
      <trkpt lat="45.94893" lon="4.58236">
        <ele>523</ele>
        <time>2018-08-16T10:00:44Z</time>
      </trkpt>
      <trkpt lat="45.94892" lon="4.58225">
        <ele>522</ele>
        <time>2018-08-16T10:00:45Z</time>
      </trkpt>
      <trkpt lat="45.94889" lon="4.58215">
        <ele>522</ele>
        <time>2018-08-16T10:00:47Z</time>
      </trkpt>
      <trkpt lat="45.94888" lon="4.58209">
        <ele>522</ele>
        <time>2018-08-16T10:00:48Z</time>
      </trkpt>
      <trkpt lat="45.94885" lon="4.58197">
        <ele>521</ele>
        <time>2018-08-16T10:00:50Z</time>
      </trkpt>
      <trkpt lat="45.94882" lon="4.58187">
        <ele>520</ele>
        <time>2018-08-16T10:00:51Z</time>
      </trkpt>
      <trkpt lat="45.94879" lon="4.58179">
        <ele>521</ele>
        <time>2018-08-16T10:00:52Z</time>
      </trkpt>
      <trkpt lat="45.94878" lon="4.58175">
        <ele>520</ele>
        <time>2018-08-16T10:00:53Z</time>
      </trkpt>
      <trkpt lat="45.94875" lon="4.58164">
        <ele>512</ele>
        <time>2018-08-16T10:00:55Z</time>
      </trkpt>
      <trkpt lat="45.94873" lon="4.58161">
        <ele>512</ele>
        <time>2018-08-16T10:00:56Z</time>
      </trkpt>
      <trkpt lat="45.94868" lon="4.58152">
        <ele>512</ele>
        <time>2018-08-16T10:00:59Z</time>
      </trkpt>
      <trkpt lat="45.94867" lon="4.58149">
        <ele>512</ele>
        <time>2018-08-16T10:01:00Z</time>
      </trkpt>
      <trkpt lat="45.94861" lon="4.58141">
        <ele>512</ele>
        <time>2018-08-16T10:01:04Z</time>
      </trkpt>
      <trkpt lat="45.9486" lon="4.5814">
        <ele>512</ele>
        <time>2018-08-16T10:01:05Z</time>
      </trkpt>
      <trkpt lat="45.94856" lon="4.58139">
        <ele>513</ele>
        <time>2018-08-16T10:01:36Z</time>
      </trkpt>
      <trkpt lat="45.94856" lon="4.58139">
        <ele>513</ele>
        <time>2018-08-16T10:01:37Z</time>
      </trkpt>
      <trkpt lat="45.94856" lon="4.58139">
        <ele>513</ele>
        <time>2018-08-16T10:01:38Z</time>
      </trkpt>
      <trkpt lat="45.94856" lon="4.58139">
        <ele>513</ele>
        <time>2018-08-16T10:01:39Z</time>
      </trkpt>
      <trkpt lat="45.94856" lon="4.58138">
        <ele>513</ele>
        <time>2018-08-16T10:01:42Z</time>
      </trkpt>
      <trkpt lat="45.94856" lon="4.58138">
        <ele>513</ele>
        <time>2018-08-16T10:01:43Z</time>
      </trkpt>
      <trkpt lat="45.94856" lon="4.58138">
        <ele>513</ele>
        <time>2018-08-16T10:01:48Z</time>
      </trkpt>
      <trkpt lat="45.94856" lon="4.58138">
        <ele>513</ele>
        <time>2018-08-16T10:01:49Z</time>
      </trkpt>
      <trkpt lat="45.94848" lon="4.58132">
        <ele>512</ele>
        <time>2018-08-16T10:11:50Z</time>
      </trkpt>
      <trkpt lat="45.94847" lon="4.5813">
        <ele>512</ele>
        <time>2018-08-16T10:11:51Z</time>
      </trkpt>
      <trkpt lat="45.94842" lon="4.58126">
        <ele>512</ele>
        <time>2018-08-16T10:11:53Z</time>
      </trkpt>
      <trkpt lat="45.94834" lon="4.58119">
        <ele>511</ele>
        <time>2018-08-16T10:11:54Z</time>
      </trkpt>
      <trkpt lat="45.94827" lon="4.58116">
        <ele>516</ele>
        <time>2018-08-16T10:11:55Z</time>
      </trkpt>
      <trkpt lat="45.94825" lon="4.58113">
        <ele>516</ele>
        <time>2018-08-16T10:11:56Z</time>
      </trkpt>
      <trkpt lat="45.94818" lon="4.5811">
        <ele>516</ele>
        <time>2018-08-16T10:11:57Z</time>
      </trkpt>
      <trkpt lat="45.94811" lon="4.58109">
        <ele>516</ele>
        <time>2018-08-16T10:11:58Z</time>
      </trkpt>
      <trkpt lat="45.94806" lon="4.58106">
        <ele>516</ele>
        <time>2018-08-16T10:11:59Z</time>
      </trkpt>
      <trkpt lat="45.94799" lon="4.58107">
        <ele>516</ele>
        <time>2018-08-16T10:12:00Z</time>
      </trkpt>
      <trkpt lat="45.94794" lon="4.58103">
        <ele>516</ele>
        <time>2018-08-16T10:12:01Z</time>
      </trkpt>
      <trkpt lat="45.94786" lon="4.58101">
        <ele>516</ele>
        <time>2018-08-16T10:12:02Z</time>
      </trkpt>
      <trkpt lat="45.94778" lon="4.581">
        <ele>515</ele>
        <time>2018-08-16T10:12:03Z</time>
      </trkpt>
      <trkpt lat="45.94769" lon="4.58101">
        <ele>515</ele>
        <time>2018-08-16T10:12:04Z</time>
      </trkpt>
      <trkpt lat="45.94764" lon="4.58102">
        <ele>515</ele>
        <time>2018-08-16T10:12:05Z</time>
      </trkpt>
      <trkpt lat="45.94753" lon="4.58099">
        <ele>514</ele>
        <time>2018-08-16T10:12:06Z</time>
      </trkpt>
      <trkpt lat="45.94746" lon="4.58098">
        <ele>512</ele>
        <time>2018-08-16T10:12:07Z</time>
      </trkpt>
      <trkpt lat="45.94737" lon="4.58098">
        <ele>512</ele>
        <time>2018-08-16T10:12:08Z</time>
      </trkpt>
      <trkpt lat="45.94729" lon="4.58095">
        <ele>512</ele>
        <time>2018-08-16T10:12:09Z</time>
      </trkpt>
      <trkpt lat="45.94722" lon="4.58101">
        <ele>512</ele>
        <time>2018-08-16T10:12:10Z</time>
      </trkpt>
      <trkpt lat="45.94712" lon="4.58103">
        <ele>512</ele>
        <time>2018-08-16T10:12:11Z</time>
      </trkpt>
      <trkpt lat="45.94704" lon="4.58107">
        <ele>511</ele>
        <time>2018-08-16T10:12:12Z</time>
      </trkpt>
      <trkpt lat="45.94692" lon="4.58108">
        <ele>510</ele>
        <time>2018-08-16T10:12:13Z</time>
      </trkpt>
      <trkpt lat="45.94685" lon="4.58113">
        <ele>511</ele>
        <time>2018-08-16T10:12:14Z</time>
      </trkpt>
      <trkpt lat="45.94673" lon="4.58112">
        <ele>510</ele>
        <time>2018-08-16T10:12:15Z</time>
      </trkpt>
      <trkpt lat="45.94664" lon="4.58116">
        <ele>504</ele>
        <time>2018-08-16T10:12:16Z</time>
      </trkpt>
      <trkpt lat="45.94655" lon="4.58118">
        <ele>504</ele>
        <time>2018-08-16T10:12:17Z</time>
      </trkpt>
      <trkpt lat="45.94649" lon="4.58125">
        <ele>504</ele>
        <time>2018-08-16T10:12:18Z</time>
      </trkpt>
      <trkpt lat="45.9464" lon="4.58128">
        <ele>504</ele>
        <time>2018-08-16T10:12:19Z</time>
      </trkpt>
      <trkpt lat="45.94631" lon="4.5813">
        <ele>504</ele>
        <time>2018-08-16T10:12:20Z</time>
      </trkpt>
      <trkpt lat="45.94625" lon="4.58133">
        <ele>504</ele>
        <time>2018-08-16T10:12:21Z</time>
      </trkpt>
      <trkpt lat="45.94617" lon="4.58136">
        <ele>504</ele>
        <time>2018-08-16T10:12:22Z</time>
      </trkpt>
      <trkpt lat="45.9461" lon="4.58138">
        <ele>503</ele>
        <time>2018-08-16T10:12:23Z</time>
      </trkpt>
      <trkpt lat="45.94602" lon="4.5814">
        <ele>503</ele>
        <time>2018-08-16T10:12:24Z</time>
      </trkpt>
      <trkpt lat="45.94594" lon="4.5814">
        <ele>503</ele>
        <time>2018-08-16T10:12:25Z</time>
      </trkpt>
      <trkpt lat="45.94591" lon="4.58152">
        <ele>504</ele>
        <time>2018-08-16T10:12:26Z</time>
      </trkpt>
      <trkpt lat="45.94582" lon="4.58151">
        <ele>500</ele>
        <time>2018-08-16T10:12:27Z</time>
      </trkpt>
      <trkpt lat="45.94575" lon="4.58153">
        <ele>500</ele>
        <time>2018-08-16T10:12:28Z</time>
      </trkpt>
      <trkpt lat="45.94568" lon="4.58154">
        <ele>499</ele>
        <time>2018-08-16T10:12:29Z</time>
      </trkpt>
      <trkpt lat="45.9456" lon="4.58155">
        <ele>498</ele>
        <time>2018-08-16T10:12:30Z</time>
      </trkpt>
      <trkpt lat="45.94551" lon="4.58156">
        <ele>498</ele>
        <time>2018-08-16T10:12:31Z</time>
      </trkpt>
      <trkpt lat="45.94543" lon="4.58158">
        <ele>497</ele>
        <time>2018-08-16T10:12:32Z</time>
      </trkpt>
      <trkpt lat="45.94534" lon="4.58159">
        <ele>497</ele>
        <time>2018-08-16T10:12:33Z</time>
      </trkpt>
      <trkpt lat="45.94524" lon="4.58155">
        <ele>496</ele>
        <time>2018-08-16T10:12:34Z</time>
      </trkpt>
      <trkpt lat="45.94514" lon="4.58159">
        <ele>496</ele>
        <time>2018-08-16T10:12:35Z</time>
      </trkpt>
      <trkpt lat="45.94509" lon="4.58159">
        <ele>496</ele>
        <time>2018-08-16T10:12:36Z</time>
      </trkpt>
      <trkpt lat="45.94496" lon="4.58161">
        <ele>495</ele>
        <time>2018-08-16T10:12:37Z</time>
      </trkpt>
      <trkpt lat="45.94492" lon="4.58157">
        <ele>494</ele>
        <time>2018-08-16T10:12:38Z</time>
      </trkpt>
      <trkpt lat="45.94484" lon="4.58158">
        <ele>493</ele>
        <time>2018-08-16T10:12:39Z</time>
      </trkpt>
      <trkpt lat="45.94473" lon="4.58151">
        <ele>492</ele>
        <time>2018-08-16T10:12:40Z</time>
      </trkpt>
      <trkpt lat="45.94458" lon="4.58153">
        <ele>492</ele>
        <time>2018-08-16T10:12:41Z</time>
      </trkpt>
      <trkpt lat="45.94453" lon="4.5815">
        <ele>492</ele>
        <time>2018-08-16T10:12:42Z</time>
      </trkpt>
      <trkpt lat="45.94448" lon="4.58148">
        <ele>492</ele>
        <time>2018-08-16T10:12:43Z</time>
      </trkpt>
      <trkpt lat="45.94438" lon="4.58141">
        <ele>491</ele>
        <time>2018-08-16T10:12:44Z</time>
      </trkpt>
      <trkpt lat="45.94431" lon="4.58139">
        <ele>491</ele>
        <time>2018-08-16T10:12:45Z</time>
      </trkpt>
      <trkpt lat="45.94416" lon="4.58137">
        <ele>489</ele>
        <time>2018-08-16T10:12:46Z</time>
      </trkpt>
      <trkpt lat="45.94406" lon="4.58133">
        <ele>489</ele>
        <time>2018-08-16T10:12:47Z</time>
      </trkpt>
      <trkpt lat="45.94397" lon="4.58128">
        <ele>488</ele>
        <time>2018-08-16T10:12:48Z</time>
      </trkpt>
      <trkpt lat="45.94385" lon="4.58124">
        <ele>488</ele>
        <time>2018-08-16T10:12:49Z</time>
      </trkpt>
      <trkpt lat="45.94376" lon="4.5812">
        <ele>488</ele>
        <time>2018-08-16T10:12:50Z</time>
      </trkpt>
      <trkpt lat="45.94364" lon="4.58115">
        <ele>487</ele>
        <time>2018-08-16T10:12:51Z</time>
      </trkpt>
      <trkpt lat="45.9435" lon="4.58112">
        <ele>487</ele>
        <time>2018-08-16T10:12:52Z</time>
      </trkpt>
      <trkpt lat="45.94347" lon="4.58105">
        <ele>486</ele>
        <time>2018-08-16T10:12:53Z</time>
      </trkpt>
      <trkpt lat="45.9434" lon="4.58096">
        <ele>485</ele>
        <time>2018-08-16T10:12:54Z</time>
      </trkpt>
      <trkpt lat="45.94333" lon="4.58098">
        <ele>483</ele>
        <time>2018-08-16T10:12:55Z</time>
      </trkpt>
      <trkpt lat="45.94317" lon="4.58094">
        <ele>484</ele>
        <time>2018-08-16T10:12:56Z</time>
      </trkpt>
      <trkpt lat="45.94306" lon="4.58088">
        <ele>483</ele>
        <time>2018-08-16T10:12:57Z</time>
      </trkpt>
      <trkpt lat="45.94292" lon="4.58081">
        <ele>478</ele>
        <time>2018-08-16T10:12:58Z</time>
      </trkpt>
      <trkpt lat="45.94282" lon="4.58081">
        <ele>477</ele>
        <time>2018-08-16T10:12:59Z</time>
      </trkpt>
      <trkpt lat="45.9427" lon="4.58077">
        <ele>477</ele>
        <time>2018-08-16T10:13:00Z</time>
      </trkpt>
      <trkpt lat="45.94258" lon="4.58072">
        <ele>477</ele>
        <time>2018-08-16T10:13:01Z</time>
      </trkpt>
      <trkpt lat="45.94245" lon="4.58069">
        <ele>475</ele>
        <time>2018-08-16T10:13:02Z</time>
      </trkpt>
      <trkpt lat="45.94235" lon="4.58064">
        <ele>474</ele>
        <time>2018-08-16T10:13:03Z</time>
      </trkpt>
      <trkpt lat="45.94223" lon="4.58059">
        <ele>473</ele>
        <time>2018-08-16T10:13:04Z</time>
      </trkpt>
      <trkpt lat="45.94211" lon="4.58053">
        <ele>473</ele>
        <time>2018-08-16T10:13:05Z</time>
      </trkpt>
      <trkpt lat="45.94199" lon="4.58046">
        <ele>472</ele>
        <time>2018-08-16T10:13:06Z</time>
      </trkpt>
      <trkpt lat="45.94187" lon="4.58039">
        <ele>471</ele>
        <time>2018-08-16T10:13:07Z</time>
      </trkpt>
      <trkpt lat="45.94176" lon="4.58034">
        <ele>471</ele>
        <time>2018-08-16T10:13:08Z</time>
      </trkpt>
      <trkpt lat="45.94165" lon="4.58025">
        <ele>468</ele>
        <time>2018-08-16T10:13:09Z</time>
      </trkpt>
      <trkpt lat="45.94153" lon="4.58015">
        <ele>468</ele>
        <time>2018-08-16T10:13:10Z</time>
      </trkpt>
      <trkpt lat="45.9414" lon="4.5801">
        <ele>468</ele>
        <time>2018-08-16T10:13:11Z</time>
      </trkpt>
      <trkpt lat="45.9413" lon="4.57999">
        <ele>463</ele>
        <time>2018-08-16T10:13:12Z</time>
      </trkpt>
      <trkpt lat="45.94117" lon="4.57989">
        <ele>463</ele>
        <time>2018-08-16T10:13:13Z</time>
      </trkpt>
      <trkpt lat="45.94106" lon="4.5798">
        <ele>462</ele>
        <time>2018-08-16T10:13:14Z</time>
      </trkpt>
      <trkpt lat="45.94096" lon="4.5797">
        <ele>462</ele>
        <time>2018-08-16T10:13:15Z</time>
      </trkpt>
      <trkpt lat="45.94083" lon="4.5796">
        <ele>461</ele>
        <time>2018-08-16T10:13:16Z</time>
      </trkpt>
      <trkpt lat="45.94072" lon="4.57951">
        <ele>461</ele>
        <time>2018-08-16T10:13:17Z</time>
      </trkpt>
      <trkpt lat="45.94061" lon="4.5794">
        <ele>460</ele>
        <time>2018-08-16T10:13:18Z</time>
      </trkpt>
      <trkpt lat="45.94048" lon="4.57931">
        <ele>460</ele>
        <time>2018-08-16T10:13:19Z</time>
      </trkpt>
      <trkpt lat="45.94036" lon="4.57922">
        <ele>460</ele>
        <time>2018-08-16T10:13:20Z</time>
      </trkpt>
      <trkpt lat="45.94023" lon="4.57914">
        <ele>456</ele>
        <time>2018-08-16T10:13:21Z</time>
      </trkpt>
      <trkpt lat="45.94009" lon="4.57907">
        <ele>457</ele>
        <time>2018-08-16T10:13:22Z</time>
      </trkpt>
      <trkpt lat="45.93996" lon="4.57901">
        <ele>456</ele>
        <time>2018-08-16T10:13:23Z</time>
      </trkpt>
      <trkpt lat="45.93982" lon="4.57895">
        <ele>454</ele>
        <time>2018-08-16T10:13:24Z</time>
      </trkpt>
      <trkpt lat="45.93971" lon="4.57889">
        <ele>453</ele>
        <time>2018-08-16T10:13:25Z</time>
      </trkpt>
      <trkpt lat="45.93958" lon="4.57884">
        <ele>453</ele>
        <time>2018-08-16T10:13:26Z</time>
      </trkpt>
      <trkpt lat="45.93944" lon="4.57878">
        <ele>452</ele>
        <time>2018-08-16T10:13:27Z</time>
      </trkpt>
      <trkpt lat="45.93932" lon="4.57877">
        <ele>452</ele>
        <time>2018-08-16T10:13:28Z</time>
      </trkpt>
      <trkpt lat="45.93919" lon="4.57875">
        <ele>451</ele>
        <time>2018-08-16T10:13:29Z</time>
      </trkpt>
      <trkpt lat="45.93907" lon="4.57876">
        <ele>448</ele>
        <time>2018-08-16T10:13:30Z</time>
      </trkpt>
      <trkpt lat="45.93895" lon="4.57878">
        <ele>448</ele>
        <time>2018-08-16T10:13:31Z</time>
      </trkpt>
      <trkpt lat="45.93881" lon="4.57878">
        <ele>447</ele>
        <time>2018-08-16T10:13:32Z</time>
      </trkpt>
      <trkpt lat="45.93869" lon="4.57879">
        <ele>447</ele>
        <time>2018-08-16T10:13:33Z</time>
      </trkpt>
      <trkpt lat="45.93858" lon="4.57883">
        <ele>447</ele>
        <time>2018-08-16T10:13:34Z</time>
      </trkpt>
      <trkpt lat="45.93845" lon="4.57883">
        <ele>447</ele>
        <time>2018-08-16T10:13:35Z</time>
      </trkpt>
      <trkpt lat="45.93833" lon="4.57884">
        <ele>447</ele>
        <time>2018-08-16T10:13:36Z</time>
      </trkpt>
      <trkpt lat="45.9382" lon="4.57884">
        <ele>443</ele>
        <time>2018-08-16T10:13:37Z</time>
      </trkpt>
      <trkpt lat="45.93807" lon="4.57885">
        <ele>442</ele>
        <time>2018-08-16T10:13:38Z</time>
      </trkpt>
      <trkpt lat="45.93797" lon="4.57891">
        <ele>442</ele>
        <time>2018-08-16T10:13:39Z</time>
      </trkpt>
      <trkpt lat="45.93787" lon="4.57893">
        <ele>442</ele>
        <time>2018-08-16T10:13:40Z</time>
      </trkpt>
      <trkpt lat="45.93775" lon="4.57895">
        <ele>442</ele>
        <time>2018-08-16T10:13:41Z</time>
      </trkpt>
      <trkpt lat="45.93762" lon="4.57897">
        <ele>442</ele>
        <time>2018-08-16T10:13:42Z</time>
      </trkpt>
      <trkpt lat="45.93751" lon="4.57898">
        <ele>442</ele>
        <time>2018-08-16T10:13:43Z</time>
      </trkpt>
      <trkpt lat="45.93739" lon="4.57902">
        <ele>438</ele>
        <time>2018-08-16T10:13:44Z</time>
      </trkpt>
      <trkpt lat="45.93728" lon="4.57904">
        <ele>437</ele>
        <time>2018-08-16T10:13:45Z</time>
      </trkpt>
      <trkpt lat="45.93716" lon="4.57906">
        <ele>436</ele>
        <time>2018-08-16T10:13:46Z</time>
      </trkpt>
      <trkpt lat="45.93707" lon="4.57908">
        <ele>435</ele>
        <time>2018-08-16T10:13:47Z</time>
      </trkpt>
      <trkpt lat="45.93696" lon="4.57909">
        <ele>435</ele>
        <time>2018-08-16T10:13:48Z</time>
      </trkpt>
      <trkpt lat="45.93685" lon="4.5791">
        <ele>434</ele>
        <time>2018-08-16T10:13:49Z</time>
      </trkpt>
      <trkpt lat="45.93673" lon="4.57912">
        <ele>434</ele>
        <time>2018-08-16T10:13:50Z</time>
      </trkpt>
      <trkpt lat="45.93662" lon="4.57913">
        <ele>432</ele>
        <time>2018-08-16T10:13:51Z</time>
      </trkpt>
      <trkpt lat="45.93651" lon="4.57917">
        <ele>434</ele>
        <time>2018-08-16T10:13:52Z</time>
      </trkpt>
      <trkpt lat="45.9364" lon="4.57919">
        <ele>434</ele>
        <time>2018-08-16T10:13:53Z</time>
      </trkpt>
      <trkpt lat="45.9363" lon="4.5792">
        <ele>433</ele>
        <time>2018-08-16T10:13:54Z</time>
      </trkpt>
      <trkpt lat="45.93619" lon="4.57922">
        <ele>432</ele>
        <time>2018-08-16T10:13:55Z</time>
      </trkpt>
      <trkpt lat="45.93609" lon="4.57924">
        <ele>432</ele>
        <time>2018-08-16T10:13:56Z</time>
      </trkpt>
      <trkpt lat="45.93599" lon="4.57926">
        <ele>430</ele>
        <time>2018-08-16T10:13:57Z</time>
      </trkpt>
      <trkpt lat="45.93589" lon="4.57927">
        <ele>429</ele>
        <time>2018-08-16T10:13:58Z</time>
      </trkpt>
      <trkpt lat="45.93578" lon="4.57929">
        <ele>427</ele>
        <time>2018-08-16T10:13:59Z</time>
      </trkpt>
      <trkpt lat="45.93568" lon="4.57933">
        <ele>427</ele>
        <time>2018-08-16T10:14:00Z</time>
      </trkpt>
      <trkpt lat="45.93559" lon="4.57936">
        <ele>427</ele>
        <time>2018-08-16T10:14:01Z</time>
      </trkpt>
      <trkpt lat="45.9355" lon="4.57942">
        <ele>427</ele>
        <time>2018-08-16T10:14:02Z</time>
      </trkpt>
      <trkpt lat="45.93541" lon="4.57946">
        <ele>427</ele>
        <time>2018-08-16T10:14:03Z</time>
      </trkpt>
      <trkpt lat="45.93533" lon="4.57952">
        <ele>427</ele>
        <time>2018-08-16T10:14:04Z</time>
      </trkpt>
      <trkpt lat="45.93524" lon="4.57958">
        <ele>427</ele>
        <time>2018-08-16T10:14:05Z</time>
      </trkpt>
      <trkpt lat="45.93515" lon="4.57962">
        <ele>426</ele>
        <time>2018-08-16T10:14:06Z</time>
      </trkpt>
      <trkpt lat="45.9351" lon="4.57967">
        <ele>427</ele>
        <time>2018-08-16T10:14:07Z</time>
      </trkpt>
      <trkpt lat="45.93502" lon="4.57971">
        <ele>427</ele>
        <time>2018-08-16T10:14:08Z</time>
      </trkpt>
      <trkpt lat="45.93493" lon="4.57976">
        <ele>423</ele>
        <time>2018-08-16T10:14:09Z</time>
      </trkpt>
      <trkpt lat="45.93484" lon="4.57978">
        <ele>423</ele>
        <time>2018-08-16T10:14:10Z</time>
      </trkpt>
      <trkpt lat="45.93474" lon="4.57981">
        <ele>422</ele>
        <time>2018-08-16T10:14:11Z</time>
      </trkpt>
      <trkpt lat="45.93466" lon="4.57989">
        <ele>422</ele>
        <time>2018-08-16T10:14:12Z</time>
      </trkpt>
      <trkpt lat="45.93457" lon="4.57994">
        <ele>422</ele>
        <time>2018-08-16T10:14:13Z</time>
      </trkpt>
      <trkpt lat="45.93453" lon="4.58">
        <ele>424</ele>
        <time>2018-08-16T10:14:14Z</time>
      </trkpt>
      <trkpt lat="45.9344" lon="4.58">
        <ele>421</ele>
        <time>2018-08-16T10:14:15Z</time>
      </trkpt>
      <trkpt lat="45.93433" lon="4.58004">
        <ele>424</ele>
        <time>2018-08-16T10:14:16Z</time>
      </trkpt>
      <trkpt lat="45.93429" lon="4.58016">
        <ele>425</ele>
        <time>2018-08-16T10:14:17Z</time>
      </trkpt>
      <trkpt lat="45.93417" lon="4.58017">
        <ele>424</ele>
        <time>2018-08-16T10:14:18Z</time>
      </trkpt>
      <trkpt lat="45.93409" lon="4.58023">
        <ele>422</ele>
        <time>2018-08-16T10:14:19Z</time>
      </trkpt>
      <trkpt lat="45.93399" lon="4.58023">
        <ele>422</ele>
        <time>2018-08-16T10:14:20Z</time>
      </trkpt>
      <trkpt lat="45.9339" lon="4.58026">
        <ele>422</ele>
        <time>2018-08-16T10:14:21Z</time>
      </trkpt>
      <trkpt lat="45.93382" lon="4.58027">
        <ele>421</ele>
        <time>2018-08-16T10:14:22Z</time>
      </trkpt>
      <trkpt lat="45.93371" lon="4.5803">
        <ele>421</ele>
        <time>2018-08-16T10:14:23Z</time>
      </trkpt>
      <trkpt lat="45.93363" lon="4.58032">
        <ele>421</ele>
        <time>2018-08-16T10:14:24Z</time>
      </trkpt>
      <trkpt lat="45.93358" lon="4.5804">
        <ele>421</ele>
        <time>2018-08-16T10:14:25Z</time>
      </trkpt>
      <trkpt lat="45.93349" lon="4.5804">
        <ele>421</ele>
        <time>2018-08-16T10:14:26Z</time>
      </trkpt>
      <trkpt lat="45.9334" lon="4.5804">
        <ele>421</ele>
        <time>2018-08-16T10:14:27Z</time>
      </trkpt>
      <trkpt lat="45.9333" lon="4.58041">
        <ele>418</ele>
        <time>2018-08-16T10:14:28Z</time>
      </trkpt>
      <trkpt lat="45.93318" lon="4.58044">
        <ele>418</ele>
        <time>2018-08-16T10:14:29Z</time>
      </trkpt>
      <trkpt lat="45.93308" lon="4.58044">
        <ele>418</ele>
        <time>2018-08-16T10:14:30Z</time>
      </trkpt>
      <trkpt lat="45.93296" lon="4.58043">
        <ele>418</ele>
        <time>2018-08-16T10:14:31Z</time>
      </trkpt>
      <trkpt lat="45.93287" lon="4.58045">
        <ele>417</ele>
        <time>2018-08-16T10:14:32Z</time>
      </trkpt>
      <trkpt lat="45.93279" lon="4.5805">
        <ele>417</ele>
        <time>2018-08-16T10:14:33Z</time>
      </trkpt>
      <trkpt lat="45.93272" lon="4.58056">
        <ele>417</ele>
        <time>2018-08-16T10:14:34Z</time>
      </trkpt>
      <trkpt lat="45.93263" lon="4.58062">
        <ele>417</ele>
        <time>2018-08-16T10:14:35Z</time>
      </trkpt>
      <trkpt lat="45.93255" lon="4.58066">
        <ele>417</ele>
        <time>2018-08-16T10:14:36Z</time>
      </trkpt>
      <trkpt lat="45.93243" lon="4.58064">
        <ele>414</ele>
        <time>2018-08-16T10:14:37Z</time>
      </trkpt>
      <trkpt lat="45.93235" lon="4.58066">
        <ele>414</ele>
        <time>2018-08-16T10:14:38Z</time>
      </trkpt>
      <trkpt lat="45.93224" lon="4.58066">
        <ele>414</ele>
        <time>2018-08-16T10:14:39Z</time>
      </trkpt>
      <trkpt lat="45.93216" lon="4.58066">
        <ele>413</ele>
        <time>2018-08-16T10:14:40Z</time>
      </trkpt>
      <trkpt lat="45.93207" lon="4.58072">
        <ele>413</ele>
        <time>2018-08-16T10:14:41Z</time>
      </trkpt>
      <trkpt lat="45.93195" lon="4.58069">
        <ele>412</ele>
        <time>2018-08-16T10:14:42Z</time>
      </trkpt>
      <trkpt lat="45.93188" lon="4.58077">
        <ele>412</ele>
        <time>2018-08-16T10:14:43Z</time>
      </trkpt>
      <trkpt lat="45.93178" lon="4.58077">
        <ele>412</ele>
        <time>2018-08-16T10:14:44Z</time>
      </trkpt>
      <trkpt lat="45.93169" lon="4.58073">
        <ele>412</ele>
        <time>2018-08-16T10:14:45Z</time>
      </trkpt>
      <trkpt lat="45.93157" lon="4.58071">
        <ele>409</ele>
        <time>2018-08-16T10:14:46Z</time>
      </trkpt>
      <trkpt lat="45.93149" lon="4.58066">
        <ele>408</ele>
        <time>2018-08-16T10:14:47Z</time>
      </trkpt>
      <trkpt lat="45.9314" lon="4.58062">
        <ele>408</ele>
        <time>2018-08-16T10:14:48Z</time>
      </trkpt>
      <trkpt lat="45.9313" lon="4.58056">
        <ele>407</ele>
        <time>2018-08-16T10:14:49Z</time>
      </trkpt>
      <trkpt lat="45.93121" lon="4.58051">
        <ele>406</ele>
        <time>2018-08-16T10:14:50Z</time>
      </trkpt>
      <trkpt lat="45.93112" lon="4.58046">
        <ele>406</ele>
        <time>2018-08-16T10:14:51Z</time>
      </trkpt>
      <trkpt lat="45.931" lon="4.5804">
        <ele>405</ele>
        <time>2018-08-16T10:14:52Z</time>
      </trkpt>
      <trkpt lat="45.93089" lon="4.58038">
        <ele>405</ele>
        <time>2018-08-16T10:14:53Z</time>
      </trkpt>
      <trkpt lat="45.93079" lon="4.58037">
        <ele>400</ele>
        <time>2018-08-16T10:14:54Z</time>
      </trkpt>
      <trkpt lat="45.93067" lon="4.58035">
        <ele>399</ele>
        <time>2018-08-16T10:14:55Z</time>
      </trkpt>
      <trkpt lat="45.93055" lon="4.58037">
        <ele>399</ele>
        <time>2018-08-16T10:14:56Z</time>
      </trkpt>
      <trkpt lat="45.93045" lon="4.5804">
        <ele>399</ele>
        <time>2018-08-16T10:14:57Z</time>
      </trkpt>
      <trkpt lat="45.93032" lon="4.5804">
        <ele>398</ele>
        <time>2018-08-16T10:14:58Z</time>
      </trkpt>
      <trkpt lat="45.93022" lon="4.58047">
        <ele>398</ele>
        <time>2018-08-16T10:14:59Z</time>
      </trkpt>
      <trkpt lat="45.93013" lon="4.58053">
        <ele>398</ele>
        <time>2018-08-16T10:15:00Z</time>
      </trkpt>
      <trkpt lat="45.93002" lon="4.58057">
        <ele>398</ele>
        <time>2018-08-16T10:15:01Z</time>
      </trkpt>
      <trkpt lat="45.92992" lon="4.58061">
        <ele>394</ele>
        <time>2018-08-16T10:15:02Z</time>
      </trkpt>
      <trkpt lat="45.92982" lon="4.58067">
        <ele>393</ele>
        <time>2018-08-16T10:15:03Z</time>
      </trkpt>
      <trkpt lat="45.9297" lon="4.58068">
        <ele>392</ele>
        <time>2018-08-16T10:15:04Z</time>
      </trkpt>
      <trkpt lat="45.92959" lon="4.58068">
        <ele>391</ele>
        <time>2018-08-16T10:15:05Z</time>
      </trkpt>
      <trkpt lat="45.92949" lon="4.58075">
        <ele>391</ele>
        <time>2018-08-16T10:15:06Z</time>
      </trkpt>
      <trkpt lat="45.92936" lon="4.58074">
        <ele>390</ele>
        <time>2018-08-16T10:15:07Z</time>
      </trkpt>
      <trkpt lat="45.92925" lon="4.58079">
        <ele>391</ele>
        <time>2018-08-16T10:15:08Z</time>
      </trkpt>
      <trkpt lat="45.92915" lon="4.58083">
        <ele>390</ele>
        <time>2018-08-16T10:15:09Z</time>
      </trkpt>
      <trkpt lat="45.92903" lon="4.58083">
        <ele>386</ele>
        <time>2018-08-16T10:15:10Z</time>
      </trkpt>
      <trkpt lat="45.92892" lon="4.58089">
        <ele>390</ele>
        <time>2018-08-16T10:15:11Z</time>
      </trkpt>
      <trkpt lat="45.92882" lon="4.58095">
        <ele>390</ele>
        <time>2018-08-16T10:15:12Z</time>
      </trkpt>
      <trkpt lat="45.92873" lon="4.58101">
        <ele>389</ele>
        <time>2018-08-16T10:15:13Z</time>
      </trkpt>
      <trkpt lat="45.92864" lon="4.58103">
        <ele>389</ele>
        <time>2018-08-16T10:15:14Z</time>
      </trkpt>
      <trkpt lat="45.92853" lon="4.58105">
        <ele>388</ele>
        <time>2018-08-16T10:15:15Z</time>
      </trkpt>
      <trkpt lat="45.92842" lon="4.5811">
        <ele>388</ele>
        <time>2018-08-16T10:15:16Z</time>
      </trkpt>
      <trkpt lat="45.92833" lon="4.58114">
        <ele>383</ele>
        <time>2018-08-16T10:15:17Z</time>
      </trkpt>
      <trkpt lat="45.92823" lon="4.58116">
        <ele>383</ele>
        <time>2018-08-16T10:15:18Z</time>
      </trkpt>
      <trkpt lat="45.92811" lon="4.58117">
        <ele>382</ele>
        <time>2018-08-16T10:15:19Z</time>
      </trkpt>
      <trkpt lat="45.92802" lon="4.58121">
        <ele>382</ele>
        <time>2018-08-16T10:15:20Z</time>
      </trkpt>
      <trkpt lat="45.92792" lon="4.58126">
        <ele>382</ele>
        <time>2018-08-16T10:15:21Z</time>
      </trkpt>
      <trkpt lat="45.92784" lon="4.58131">
        <ele>382</ele>
        <time>2018-08-16T10:15:22Z</time>
      </trkpt>
      <trkpt lat="45.92775" lon="4.58136">
        <ele>382</ele>
        <time>2018-08-16T10:15:23Z</time>
      </trkpt>
      <trkpt lat="45.92766" lon="4.58142">
        <ele>382</ele>
        <time>2018-08-16T10:15:24Z</time>
      </trkpt>
      <trkpt lat="45.92755" lon="4.58144">
        <ele>382</ele>
        <time>2018-08-16T10:15:25Z</time>
      </trkpt>
      <trkpt lat="45.92745" lon="4.58145">
        <ele>377</ele>
        <time>2018-08-16T10:15:26Z</time>
      </trkpt>
      <trkpt lat="45.92735" lon="4.58149">
        <ele>377</ele>
        <time>2018-08-16T10:15:27Z</time>
      </trkpt>
      <trkpt lat="45.92726" lon="4.58155">
        <ele>377</ele>
        <time>2018-08-16T10:15:28Z</time>
      </trkpt>
      <trkpt lat="45.92716" lon="4.58159">
        <ele>376</ele>
        <time>2018-08-16T10:15:29Z</time>
      </trkpt>
      <trkpt lat="45.92706" lon="4.58163">
        <ele>375</ele>
        <time>2018-08-16T10:15:30Z</time>
      </trkpt>
      <trkpt lat="45.92697" lon="4.58165">
        <ele>375</ele>
        <time>2018-08-16T10:15:31Z</time>
      </trkpt>
      <trkpt lat="45.92689" lon="4.58169">
        <ele>379</ele>
        <time>2018-08-16T10:15:32Z</time>
      </trkpt>
      <trkpt lat="45.92679" lon="4.58171">
        <ele>378</ele>
        <time>2018-08-16T10:15:33Z</time>
      </trkpt>
      <trkpt lat="45.92671" lon="4.58173">
        <ele>377</ele>
        <time>2018-08-16T10:15:34Z</time>
      </trkpt>
      <trkpt lat="45.92664" lon="4.58177">
        <ele>375</ele>
        <time>2018-08-16T10:15:35Z</time>
      </trkpt>
      <trkpt lat="45.92654" lon="4.58179">
        <ele>375</ele>
        <time>2018-08-16T10:15:36Z</time>
      </trkpt>
      <trkpt lat="45.92645" lon="4.58182">
        <ele>374</ele>
        <time>2018-08-16T10:15:37Z</time>
      </trkpt>
      <trkpt lat="45.92637" lon="4.58185">
        <ele>374</ele>
        <time>2018-08-16T10:15:38Z</time>
      </trkpt>
      <trkpt lat="45.92631" lon="4.5819">
        <ele>374</ele>
        <time>2018-08-16T10:15:39Z</time>
      </trkpt>
      <trkpt lat="45.92624" lon="4.58192">
        <ele>374</ele>
        <time>2018-08-16T10:15:40Z</time>
      </trkpt>
      <trkpt lat="45.92617" lon="4.58194">
        <ele>373</ele>
        <time>2018-08-16T10:15:41Z</time>
      </trkpt>
      <trkpt lat="45.9261" lon="4.58193">
        <ele>373</ele>
        <time>2018-08-16T10:15:42Z</time>
      </trkpt>
      <trkpt lat="45.92605" lon="4.58192">
        <ele>373</ele>
        <time>2018-08-16T10:15:43Z</time>
      </trkpt>
      <trkpt lat="45.92598" lon="4.5819">
        <ele>372</ele>
        <time>2018-08-16T10:15:44Z</time>
      </trkpt>
      <trkpt lat="45.9259" lon="4.58191">
        <ele>372</ele>
        <time>2018-08-16T10:15:45Z</time>
      </trkpt>
      <trkpt lat="45.92585" lon="4.58193">
        <ele>372</ele>
        <time>2018-08-16T10:15:46Z</time>
      </trkpt>
      <trkpt lat="45.9258" lon="4.58199">
        <ele>368</ele>
        <time>2018-08-16T10:15:47Z</time>
      </trkpt>
      <trkpt lat="45.92576" lon="4.58206">
        <ele>368</ele>
        <time>2018-08-16T10:15:48Z</time>
      </trkpt>
      <trkpt lat="45.92569" lon="4.5821">
        <ele>368</ele>
        <time>2018-08-16T10:15:49Z</time>
      </trkpt>
      <trkpt lat="45.92559" lon="4.58208">
        <ele>368</ele>
        <time>2018-08-16T10:15:50Z</time>
      </trkpt>
      <trkpt lat="45.92553" lon="4.58214">
        <ele>368</ele>
        <time>2018-08-16T10:15:51Z</time>
      </trkpt>
      <trkpt lat="45.92547" lon="4.58221">
        <ele>368</ele>
        <time>2018-08-16T10:15:52Z</time>
      </trkpt>
      <trkpt lat="45.9254" lon="4.58228">
        <ele>368</ele>
        <time>2018-08-16T10:15:53Z</time>
      </trkpt>
      <trkpt lat="45.92534" lon="4.58231">
        <ele>368</ele>
        <time>2018-08-16T10:15:54Z</time>
      </trkpt>
      <trkpt lat="45.92528" lon="4.58234">
        <ele>368</ele>
        <time>2018-08-16T10:15:55Z</time>
      </trkpt>
      <trkpt lat="45.92521" lon="4.58238">
        <ele>367</ele>
        <time>2018-08-16T10:15:56Z</time>
      </trkpt>
      <trkpt lat="45.92511" lon="4.58239">
        <ele>367</ele>
        <time>2018-08-16T10:15:57Z</time>
      </trkpt>
      <trkpt lat="45.92502" lon="4.58241">
        <ele>368</ele>
        <time>2018-08-16T10:15:58Z</time>
      </trkpt>
      <trkpt lat="45.92495" lon="4.58247">
        <ele>366</ele>
        <time>2018-08-16T10:15:59Z</time>
      </trkpt>
      <trkpt lat="45.92488" lon="4.58253">
        <ele>367</ele>
        <time>2018-08-16T10:16:00Z</time>
      </trkpt>
      <trkpt lat="45.92481" lon="4.58258">
        <ele>367</ele>
        <time>2018-08-16T10:16:01Z</time>
      </trkpt>
      <trkpt lat="45.92475" lon="4.58264">
        <ele>366</ele>
        <time>2018-08-16T10:16:02Z</time>
      </trkpt>
      <trkpt lat="45.92467" lon="4.58269">
        <ele>366</ele>
        <time>2018-08-16T10:16:03Z</time>
      </trkpt>
      <trkpt lat="45.92458" lon="4.58274">
        <ele>366</ele>
        <time>2018-08-16T10:16:04Z</time>
      </trkpt>
      <trkpt lat="45.9245" lon="4.58278">
        <ele>365</ele>
        <time>2018-08-16T10:16:05Z</time>
      </trkpt>
      <trkpt lat="45.92443" lon="4.58283">
        <ele>365</ele>
        <time>2018-08-16T10:16:06Z</time>
      </trkpt>
      <trkpt lat="45.92436" lon="4.58288">
        <ele>365</ele>
        <time>2018-08-16T10:16:07Z</time>
      </trkpt>
      <trkpt lat="45.92431" lon="4.58296">
        <ele>365</ele>
        <time>2018-08-16T10:16:08Z</time>
      </trkpt>
      <trkpt lat="45.92424" lon="4.58302">
        <ele>365</ele>
        <time>2018-08-16T10:16:09Z</time>
      </trkpt>
      <trkpt lat="45.92418" lon="4.5831">
        <ele>366</ele>
        <time>2018-08-16T10:16:10Z</time>
      </trkpt>
      <trkpt lat="45.92411" lon="4.58316">
        <ele>363</ele>
        <time>2018-08-16T10:16:11Z</time>
      </trkpt>
      <trkpt lat="45.92405" lon="4.58322">
        <ele>363</ele>
        <time>2018-08-16T10:16:12Z</time>
      </trkpt>
      <trkpt lat="45.92399" lon="4.58326">
        <ele>363</ele>
        <time>2018-08-16T10:16:13Z</time>
      </trkpt>
      <trkpt lat="45.92392" lon="4.58332">
        <ele>362</ele>
        <time>2018-08-16T10:16:14Z</time>
      </trkpt>
      <trkpt lat="45.92385" lon="4.58339">
        <ele>364</ele>
        <time>2018-08-16T10:16:15Z</time>
      </trkpt>
      <trkpt lat="45.92378" lon="4.5834">
        <ele>364</ele>
        <time>2018-08-16T10:16:16Z</time>
      </trkpt>
      <trkpt lat="45.92369" lon="4.58345">
        <ele>364</ele>
        <time>2018-08-16T10:16:17Z</time>
      </trkpt>
      <trkpt lat="45.92363" lon="4.58353">
        <ele>364</ele>
        <time>2018-08-16T10:16:18Z</time>
      </trkpt>
      <trkpt lat="45.9236" lon="4.58359">
        <ele>364</ele>
        <time>2018-08-16T10:16:19Z</time>
      </trkpt>
      <trkpt lat="45.92355" lon="4.58361">
        <ele>363</ele>
        <time>2018-08-16T10:16:20Z</time>
      </trkpt>
      <trkpt lat="45.9235" lon="4.58372">
        <ele>363</ele>
        <time>2018-08-16T10:16:21Z</time>
      </trkpt>
      <trkpt lat="45.92344" lon="4.58372">
        <ele>363</ele>
        <time>2018-08-16T10:16:22Z</time>
      </trkpt>
      <trkpt lat="45.9234" lon="4.58381">
        <ele>363</ele>
        <time>2018-08-16T10:16:23Z</time>
      </trkpt>
      <trkpt lat="45.92332" lon="4.58384">
        <ele>360</ele>
        <time>2018-08-16T10:16:24Z</time>
      </trkpt>
      <trkpt lat="45.92327" lon="4.58387">
        <ele>360</ele>
        <time>2018-08-16T10:16:25Z</time>
      </trkpt>
      <trkpt lat="45.92322" lon="4.58396">
        <ele>360</ele>
        <time>2018-08-16T10:16:26Z</time>
      </trkpt>
      <trkpt lat="45.92317" lon="4.58397">
        <ele>360</ele>
        <time>2018-08-16T10:16:27Z</time>
      </trkpt>
      <trkpt lat="45.92314" lon="4.58406">
        <ele>360</ele>
        <time>2018-08-16T10:16:28Z</time>
      </trkpt>
      <trkpt lat="45.92307" lon="4.58411">
        <ele>360</ele>
        <time>2018-08-16T10:16:29Z</time>
      </trkpt>
      <trkpt lat="45.92304" lon="4.58421">
        <ele>361</ele>
        <time>2018-08-16T10:16:30Z</time>
      </trkpt>
      <trkpt lat="45.92302" lon="4.58432">
        <ele>360</ele>
        <time>2018-08-16T10:16:31Z</time>
      </trkpt>
      <trkpt lat="45.92297" lon="4.58438">
        <ele>360</ele>
        <time>2018-08-16T10:16:32Z</time>
      </trkpt>
      <trkpt lat="45.92293" lon="4.58442">
        <ele>360</ele>
        <time>2018-08-16T10:16:33Z</time>
      </trkpt>
      <trkpt lat="45.92289" lon="4.58447">
        <ele>360</ele>
        <time>2018-08-16T10:16:34Z</time>
      </trkpt>
      <trkpt lat="45.92283" lon="4.58453">
        <ele>360</ele>
        <time>2018-08-16T10:16:35Z</time>
      </trkpt>
      <trkpt lat="45.92278" lon="4.58459">
        <ele>360</ele>
        <time>2018-08-16T10:16:36Z</time>
      </trkpt>
      <trkpt lat="45.92273" lon="4.58465">
        <ele>360</ele>
        <time>2018-08-16T10:16:37Z</time>
      </trkpt>
      <trkpt lat="45.92267" lon="4.58469">
        <ele>360</ele>
        <time>2018-08-16T10:16:38Z</time>
      </trkpt>
      <trkpt lat="45.9226" lon="4.58473">
        <ele>360</ele>
        <time>2018-08-16T10:16:39Z</time>
      </trkpt>
      <trkpt lat="45.92254" lon="4.58479">
        <ele>360</ele>
        <time>2018-08-16T10:16:40Z</time>
      </trkpt>
      <trkpt lat="45.92248" lon="4.58486">
        <ele>359</ele>
        <time>2018-08-16T10:16:41Z</time>
      </trkpt>
      <trkpt lat="45.92242" lon="4.58492">
        <ele>359</ele>
        <time>2018-08-16T10:16:42Z</time>
      </trkpt>
      <trkpt lat="45.92237" lon="4.58497">
        <ele>359</ele>
        <time>2018-08-16T10:16:43Z</time>
      </trkpt>
      <trkpt lat="45.92231" lon="4.58503">
        <ele>359</ele>
        <time>2018-08-16T10:16:44Z</time>
      </trkpt>
      <trkpt lat="45.92226" lon="4.5851">
        <ele>359</ele>
        <time>2018-08-16T10:16:45Z</time>
      </trkpt>
      <trkpt lat="45.92221" lon="4.58514">
        <ele>359</ele>
        <time>2018-08-16T10:16:46Z</time>
      </trkpt>
      <trkpt lat="45.92216" lon="4.58518">
        <ele>359</ele>
        <time>2018-08-16T10:16:47Z</time>
      </trkpt>
      <trkpt lat="45.92211" lon="4.58521">
        <ele>359</ele>
        <time>2018-08-16T10:16:48Z</time>
      </trkpt>
      <trkpt lat="45.92205" lon="4.58523">
        <ele>358</ele>
        <time>2018-08-16T10:16:49Z</time>
      </trkpt>
      <trkpt lat="45.922" lon="4.58526">
        <ele>358</ele>
        <time>2018-08-16T10:16:50Z</time>
      </trkpt>
      <trkpt lat="45.92196" lon="4.5853">
        <ele>358</ele>
        <time>2018-08-16T10:16:51Z</time>
      </trkpt>
      <trkpt lat="45.92191" lon="4.5853">
        <ele>358</ele>
        <time>2018-08-16T10:16:52Z</time>
      </trkpt>
      <trkpt lat="45.92186" lon="4.58534">
        <ele>358</ele>
        <time>2018-08-16T10:16:53Z</time>
      </trkpt>
      <trkpt lat="45.92183" lon="4.58524">
        <ele>358</ele>
        <time>2018-08-16T10:16:56Z</time>
      </trkpt>
      <trkpt lat="45.92182" lon="4.58523">
        <ele>358</ele>
        <time>2018-08-16T10:16:57Z</time>
      </trkpt>
      <trkpt lat="45.9218" lon="4.58514">
        <ele>358</ele>
        <time>2018-08-16T10:17:01Z</time>
      </trkpt>
      <trkpt lat="45.92179" lon="4.5851">
        <ele>358</ele>
        <time>2018-08-16T10:17:02Z</time>
      </trkpt>
      <trkpt lat="45.92177" lon="4.58503">
        <ele>358</ele>
        <time>2018-08-16T10:17:04Z</time>
      </trkpt>
      <trkpt lat="45.92171" lon="4.58492">
        <ele>357</ele>
        <time>2018-08-16T10:17:05Z</time>
      </trkpt>
      <trkpt lat="45.92166" lon="4.58488">
        <ele>356</ele>
        <time>2018-08-16T10:17:07Z</time>
      </trkpt>
      <trkpt lat="45.92158" lon="4.5849">
        <ele>356</ele>
        <time>2018-08-16T10:17:08Z</time>
      </trkpt>
      <trkpt lat="45.92152" lon="4.58493">
        <ele>356</ele>
        <time>2018-08-16T10:17:09Z</time>
      </trkpt>
      <trkpt lat="45.92145" lon="4.58497">
        <ele>355</ele>
        <time>2018-08-16T10:17:10Z</time>
      </trkpt>
      <trkpt lat="45.92141" lon="4.58507">
        <ele>356</ele>
        <time>2018-08-16T10:17:12Z</time>
      </trkpt>
      <trkpt lat="45.92134" lon="4.58507">
        <ele>356</ele>
        <time>2018-08-16T10:17:13Z</time>
      </trkpt>
      <trkpt lat="45.92131" lon="4.58512">
        <ele>356</ele>
        <time>2018-08-16T10:17:14Z</time>
      </trkpt>
      <trkpt lat="45.92126" lon="4.58513">
        <ele>356</ele>
        <time>2018-08-16T10:17:15Z</time>
      </trkpt>
      <trkpt lat="45.92123" lon="4.58522">
        <ele>356</ele>
        <time>2018-08-16T10:17:16Z</time>
      </trkpt>
      <trkpt lat="45.92119" lon="4.58527">
        <ele>356</ele>
        <time>2018-08-16T10:17:17Z</time>
      </trkpt>
      <trkpt lat="45.92115" lon="4.5853">
        <ele>356</ele>
        <time>2018-08-16T10:17:18Z</time>
      </trkpt>
      <trkpt lat="45.9211" lon="4.58533">
        <ele>355</ele>
        <time>2018-08-16T10:17:19Z</time>
      </trkpt>
      <trkpt lat="45.92104" lon="4.58535">
        <ele>355</ele>
        <time>2018-08-16T10:17:20Z</time>
      </trkpt>
      <trkpt lat="45.921" lon="4.5854">
        <ele>355</ele>
        <time>2018-08-16T10:17:21Z</time>
      </trkpt>
      <trkpt lat="45.92094" lon="4.58543">
        <ele>355</ele>
        <time>2018-08-16T10:17:22Z</time>
      </trkpt>
      <trkpt lat="45.9209" lon="4.58543">
        <ele>355</ele>
        <time>2018-08-16T10:17:23Z</time>
      </trkpt>
      <trkpt lat="45.92086" lon="4.58548">
        <ele>355</ele>
        <time>2018-08-16T10:17:24Z</time>
      </trkpt>
      <trkpt lat="45.9208" lon="4.58547">
        <ele>353</ele>
        <time>2018-08-16T10:17:25Z</time>
      </trkpt>
      <trkpt lat="45.92075" lon="4.58552">
        <ele>353</ele>
        <time>2018-08-16T10:17:26Z</time>
      </trkpt>
      <trkpt lat="45.92071" lon="4.58554">
        <ele>353</ele>
        <time>2018-08-16T10:17:27Z</time>
      </trkpt>
      <trkpt lat="45.92066" lon="4.58557">
        <ele>353</ele>
        <time>2018-08-16T10:17:28Z</time>
      </trkpt>
      <trkpt lat="45.92061" lon="4.5856">
        <ele>353</ele>
        <time>2018-08-16T10:17:29Z</time>
      </trkpt>
      <trkpt lat="45.92059" lon="4.58571">
        <ele>353</ele>
        <time>2018-08-16T10:17:30Z</time>
      </trkpt>
      <trkpt lat="45.92055" lon="4.58579">
        <ele>353</ele>
        <time>2018-08-16T10:17:31Z</time>
      </trkpt>
      <trkpt lat="45.92051" lon="4.58592">
        <ele>352</ele>
        <time>2018-08-16T10:17:32Z</time>
      </trkpt>
      <trkpt lat="45.92046" lon="4.58599">
        <ele>352</ele>
        <time>2018-08-16T10:17:33Z</time>
      </trkpt>
      <trkpt lat="45.9204" lon="4.58606">
        <ele>352</ele>
        <time>2018-08-16T10:17:34Z</time>
      </trkpt>
      <trkpt lat="45.92036" lon="4.58612">
        <ele>351</ele>
        <time>2018-08-16T10:17:35Z</time>
      </trkpt>
      <trkpt lat="45.92032" lon="4.5862">
        <ele>351</ele>
        <time>2018-08-16T10:17:36Z</time>
      </trkpt>
      <trkpt lat="45.92028" lon="4.58628">
        <ele>351</ele>
        <time>2018-08-16T10:17:37Z</time>
      </trkpt>
      <trkpt lat="45.92023" lon="4.58632">
        <ele>351</ele>
        <time>2018-08-16T10:17:38Z</time>
      </trkpt>
      <trkpt lat="45.92018" lon="4.58637">
        <ele>350</ele>
        <time>2018-08-16T10:17:39Z</time>
      </trkpt>
      <trkpt lat="45.92013" lon="4.58643">
        <ele>350</ele>
        <time>2018-08-16T10:17:40Z</time>
      </trkpt>
      <trkpt lat="45.92008" lon="4.58648">
        <ele>350</ele>
        <time>2018-08-16T10:17:41Z</time>
      </trkpt>
      <trkpt lat="45.92003" lon="4.58655">
        <ele>349</ele>
        <time>2018-08-16T10:17:42Z</time>
      </trkpt>
      <trkpt lat="45.91997" lon="4.58663">
        <ele>348</ele>
        <time>2018-08-16T10:17:43Z</time>
      </trkpt>
      <trkpt lat="45.91993" lon="4.58672">
        <ele>347</ele>
        <time>2018-08-16T10:17:44Z</time>
      </trkpt>
      <trkpt lat="45.91988" lon="4.5868">
        <ele>346</ele>
        <time>2018-08-16T10:17:45Z</time>
      </trkpt>
      <trkpt lat="45.91982" lon="4.58688">
        <ele>345</ele>
        <time>2018-08-16T10:17:46Z</time>
      </trkpt>
      <trkpt lat="45.91976" lon="4.58695">
        <ele>344</ele>
        <time>2018-08-16T10:17:47Z</time>
      </trkpt>
      <trkpt lat="45.91971" lon="4.58704">
        <ele>344</ele>
        <time>2018-08-16T10:17:48Z</time>
      </trkpt>
      <trkpt lat="45.91967" lon="4.58714">
        <ele>343</ele>
        <time>2018-08-16T10:17:49Z</time>
      </trkpt>
      <trkpt lat="45.91962" lon="4.58725">
        <ele>343</ele>
        <time>2018-08-16T10:17:50Z</time>
      </trkpt>
      <trkpt lat="45.91958" lon="4.58738">
        <ele>342</ele>
        <time>2018-08-16T10:17:51Z</time>
      </trkpt>
      <trkpt lat="45.91953" lon="4.58748">
        <ele>342</ele>
        <time>2018-08-16T10:17:52Z</time>
      </trkpt>
      <trkpt lat="45.91947" lon="4.58762">
        <ele>336</ele>
        <time>2018-08-16T10:17:53Z</time>
      </trkpt>
      <trkpt lat="45.91942" lon="4.58774">
        <ele>336</ele>
        <time>2018-08-16T10:17:54Z</time>
      </trkpt>
      <trkpt lat="45.91936" lon="4.58785">
        <ele>335</ele>
        <time>2018-08-16T10:17:55Z</time>
      </trkpt>
      <trkpt lat="45.9193" lon="4.58797">
        <ele>334</ele>
        <time>2018-08-16T10:17:56Z</time>
      </trkpt>
      <trkpt lat="45.91925" lon="4.5881">
        <ele>334</ele>
        <time>2018-08-16T10:17:57Z</time>
      </trkpt>
      <trkpt lat="45.91918" lon="4.58822">
        <ele>333</ele>
        <time>2018-08-16T10:17:58Z</time>
      </trkpt>
      <trkpt lat="45.91913" lon="4.58835">
        <ele>332</ele>
        <time>2018-08-16T10:17:59Z</time>
      </trkpt>
      <trkpt lat="45.91908" lon="4.58849">
        <ele>331</ele>
        <time>2018-08-16T10:18:00Z</time>
      </trkpt>
      <trkpt lat="45.91903" lon="4.58862">
        <ele>330</ele>
        <time>2018-08-16T10:18:01Z</time>
      </trkpt>
      <trkpt lat="45.91897" lon="4.58874">
        <ele>330</ele>
        <time>2018-08-16T10:18:02Z</time>
      </trkpt>
      <trkpt lat="45.9189" lon="4.58885">
        <ele>329</ele>
        <time>2018-08-16T10:18:03Z</time>
      </trkpt>
      <trkpt lat="45.91885" lon="4.58899">
        <ele>329</ele>
        <time>2018-08-16T10:18:04Z</time>
      </trkpt>
      <trkpt lat="45.91879" lon="4.58912">
        <ele>329</ele>
        <time>2018-08-16T10:18:05Z</time>
      </trkpt>
      <trkpt lat="45.91874" lon="4.58926">
        <ele>325</ele>
        <time>2018-08-16T10:18:06Z</time>
      </trkpt>
      <trkpt lat="45.91868" lon="4.58939">
        <ele>325</ele>
        <time>2018-08-16T10:18:07Z</time>
      </trkpt>
      <trkpt lat="45.91861" lon="4.58951">
        <ele>325</ele>
        <time>2018-08-16T10:18:08Z</time>
      </trkpt>
      <trkpt lat="45.91857" lon="4.58965">
        <ele>324</ele>
        <time>2018-08-16T10:18:09Z</time>
      </trkpt>
      <trkpt lat="45.91848" lon="4.58974">
        <ele>324</ele>
        <time>2018-08-16T10:18:10Z</time>
      </trkpt>
      <trkpt lat="45.91841" lon="4.58983">
        <ele>323</ele>
        <time>2018-08-16T10:18:11Z</time>
      </trkpt>
      <trkpt lat="45.91833" lon="4.58992">
        <ele>323</ele>
        <time>2018-08-16T10:18:12Z</time>
      </trkpt>
      <trkpt lat="45.91824" lon="4.59">
        <ele>321</ele>
        <time>2018-08-16T10:18:13Z</time>
      </trkpt>
      <trkpt lat="45.91815" lon="4.59007">
        <ele>320</ele>
        <time>2018-08-16T10:18:14Z</time>
      </trkpt>
      <trkpt lat="45.91807" lon="4.59015">
        <ele>319</ele>
        <time>2018-08-16T10:18:15Z</time>
      </trkpt>
      <trkpt lat="45.91798" lon="4.59023">
        <ele>319</ele>
        <time>2018-08-16T10:18:16Z</time>
      </trkpt>
      <trkpt lat="45.91789" lon="4.59031">
        <ele>318</ele>
        <time>2018-08-16T10:18:17Z</time>
      </trkpt>
      <trkpt lat="45.91782" lon="4.59042">
        <ele>318</ele>
        <time>2018-08-16T10:18:18Z</time>
      </trkpt>
      <trkpt lat="45.91773" lon="4.59052">
        <ele>318</ele>
        <time>2018-08-16T10:18:19Z</time>
      </trkpt>
      <trkpt lat="45.91766" lon="4.59063">
        <ele>317</ele>
        <time>2018-08-16T10:18:20Z</time>
      </trkpt>
      <trkpt lat="45.91759" lon="4.59075">
        <ele>317</ele>
        <time>2018-08-16T10:18:21Z</time>
      </trkpt>
      <trkpt lat="45.91752" lon="4.59087">
        <ele>315</ele>
        <time>2018-08-16T10:18:22Z</time>
      </trkpt>
      <trkpt lat="45.91745" lon="4.591">
        <ele>314</ele>
        <time>2018-08-16T10:18:23Z</time>
      </trkpt>
      <trkpt lat="45.91738" lon="4.59112">
        <ele>313</ele>
        <time>2018-08-16T10:18:24Z</time>
      </trkpt>
      <trkpt lat="45.9173" lon="4.59123">
        <ele>312</ele>
        <time>2018-08-16T10:18:25Z</time>
      </trkpt>
      <trkpt lat="45.91723" lon="4.59133">
        <ele>312</ele>
        <time>2018-08-16T10:18:26Z</time>
      </trkpt>
      <trkpt lat="45.91716" lon="4.59144">
        <ele>312</ele>
        <time>2018-08-16T10:18:27Z</time>
      </trkpt>
      <trkpt lat="45.91709" lon="4.59156">
        <ele>312</ele>
        <time>2018-08-16T10:18:28Z</time>
      </trkpt>
      <trkpt lat="45.91701" lon="4.59165">
        <ele>312</ele>
        <time>2018-08-16T10:18:29Z</time>
      </trkpt>
      <trkpt lat="45.91694" lon="4.59178">
        <ele>308</ele>
        <time>2018-08-16T10:18:30Z</time>
      </trkpt>
      <trkpt lat="45.91687" lon="4.5919">
        <ele>308</ele>
        <time>2018-08-16T10:18:31Z</time>
      </trkpt>
      <trkpt lat="45.91679" lon="4.592">
        <ele>307</ele>
        <time>2018-08-16T10:18:32Z</time>
      </trkpt>
      <trkpt lat="45.91672" lon="4.5921">
        <ele>307</ele>
        <time>2018-08-16T10:18:33Z</time>
      </trkpt>
      <trkpt lat="45.91664" lon="4.5922">
        <ele>308</ele>
        <time>2018-08-16T10:18:34Z</time>
      </trkpt>
      <trkpt lat="45.91655" lon="4.59228">
        <ele>307</ele>
        <time>2018-08-16T10:18:35Z</time>
      </trkpt>
      <trkpt lat="45.91647" lon="4.59238">
        <ele>307</ele>
        <time>2018-08-16T10:18:36Z</time>
      </trkpt>
      <trkpt lat="45.91639" lon="4.59248">
        <ele>307</ele>
        <time>2018-08-16T10:18:37Z</time>
      </trkpt>
      <trkpt lat="45.91631" lon="4.59259">
        <ele>303</ele>
        <time>2018-08-16T10:18:38Z</time>
      </trkpt>
      <trkpt lat="45.91623" lon="4.59271">
        <ele>303</ele>
        <time>2018-08-16T10:18:39Z</time>
      </trkpt>
      <trkpt lat="45.91616" lon="4.59282">
        <ele>302</ele>
        <time>2018-08-16T10:18:40Z</time>
      </trkpt>
      <trkpt lat="45.91609" lon="4.59294">
        <ele>302</ele>
        <time>2018-08-16T10:18:41Z</time>
      </trkpt>
      <trkpt lat="45.91601" lon="4.593">
        <ele>301</ele>
        <time>2018-08-16T10:18:42Z</time>
      </trkpt>
      <trkpt lat="45.91593" lon="4.59308">
        <ele>301</ele>
        <time>2018-08-16T10:18:43Z</time>
      </trkpt>
      <trkpt lat="45.91585" lon="4.59316">
        <ele>300</ele>
        <time>2018-08-16T10:18:44Z</time>
      </trkpt>
      <trkpt lat="45.91579" lon="4.59327">
        <ele>297</ele>
        <time>2018-08-16T10:18:45Z</time>
      </trkpt>
      <trkpt lat="45.91573" lon="4.59342">
        <ele>295</ele>
        <time>2018-08-16T10:18:46Z</time>
      </trkpt>
      <trkpt lat="45.91568" lon="4.59356">
        <ele>293</ele>
        <time>2018-08-16T10:18:47Z</time>
      </trkpt>
      <trkpt lat="45.91565" lon="4.5937">
        <ele>293</ele>
        <time>2018-08-16T10:18:48Z</time>
      </trkpt>
      <trkpt lat="45.91562" lon="4.59384">
        <ele>292</ele>
        <time>2018-08-16T10:18:49Z</time>
      </trkpt>
      <trkpt lat="45.91561" lon="4.59397">
        <ele>292</ele>
        <time>2018-08-16T10:18:50Z</time>
      </trkpt>
      <trkpt lat="45.9156" lon="4.59411">
        <ele>292</ele>
        <time>2018-08-16T10:18:51Z</time>
      </trkpt>
      <trkpt lat="45.91558" lon="4.59426">
        <ele>293</ele>
        <time>2018-08-16T10:18:52Z</time>
      </trkpt>
      <trkpt lat="45.91556" lon="4.5944">
        <ele>293</ele>
        <time>2018-08-16T10:18:53Z</time>
      </trkpt>
      <trkpt lat="45.91554" lon="4.59453">
        <ele>293</ele>
        <time>2018-08-16T10:18:54Z</time>
      </trkpt>
      <trkpt lat="45.91552" lon="4.59464">
        <ele>294</ele>
        <time>2018-08-16T10:18:55Z</time>
      </trkpt>
      <trkpt lat="45.91549" lon="4.59474">
        <ele>294</ele>
        <time>2018-08-16T10:18:56Z</time>
      </trkpt>
      <trkpt lat="45.91547" lon="4.59485">
        <ele>294</ele>
        <time>2018-08-16T10:18:57Z</time>
      </trkpt>
      <trkpt lat="45.91545" lon="4.59495">
        <ele>295</ele>
        <time>2018-08-16T10:18:58Z</time>
      </trkpt>
      <trkpt lat="45.91542" lon="4.59505">
        <ele>299</ele>
        <time>2018-08-16T10:18:59Z</time>
      </trkpt>
      <trkpt lat="45.91539" lon="4.59512">
        <ele>299</ele>
        <time>2018-08-16T10:19:00Z</time>
      </trkpt>
      <trkpt lat="45.91536" lon="4.59519">
        <ele>299</ele>
        <time>2018-08-16T10:19:01Z</time>
      </trkpt>
      <trkpt lat="45.91533" lon="4.59524">
        <ele>299</ele>
        <time>2018-08-16T10:19:02Z</time>
      </trkpt>
      <trkpt lat="45.9153" lon="4.59528">
        <ele>299</ele>
        <time>2018-08-16T10:19:04Z</time>
      </trkpt>
      <trkpt lat="45.91526" lon="4.59537">
        <ele>300</ele>
        <time>2018-08-16T10:19:05Z</time>
      </trkpt>
      <trkpt lat="45.91521" lon="4.59543">
        <ele>300</ele>
        <time>2018-08-16T10:19:08Z</time>
      </trkpt>
      <trkpt lat="45.91519" lon="4.59546">
        <ele>300</ele>
        <time>2018-08-16T10:19:09Z</time>
      </trkpt>
      <trkpt lat="45.91513" lon="4.59552">
        <ele>301</ele>
        <time>2018-08-16T10:19:12Z</time>
      </trkpt>
      <trkpt lat="45.9151" lon="4.59554">
        <ele>301</ele>
        <time>2018-08-16T10:19:13Z</time>
      </trkpt>
      <trkpt lat="45.91503" lon="4.59558">
        <ele>301</ele>
        <time>2018-08-16T10:19:16Z</time>
      </trkpt>
      <trkpt lat="45.915" lon="4.59559">
        <ele>301</ele>
        <time>2018-08-16T10:19:17Z</time>
      </trkpt>
      <trkpt lat="45.91491" lon="4.59563">
        <ele>302</ele>
        <time>2018-08-16T10:19:20Z</time>
      </trkpt>
      <trkpt lat="45.91489" lon="4.59565">
        <ele>302</ele>
        <time>2018-08-16T10:19:21Z</time>
      </trkpt>
      <trkpt lat="45.91482" lon="4.59569">
        <ele>302</ele>
        <time>2018-08-16T10:19:24Z</time>
      </trkpt>
      <trkpt lat="45.91479" lon="4.5957">
        <ele>302</ele>
        <time>2018-08-16T10:19:25Z</time>
      </trkpt>
      <trkpt lat="45.91472" lon="4.59574">
        <ele>302</ele>
        <time>2018-08-16T10:19:28Z</time>
      </trkpt>
      <trkpt lat="45.91469" lon="4.59575">
        <ele>302</ele>
        <time>2018-08-16T10:19:29Z</time>
      </trkpt>
      <trkpt lat="45.91461" lon="4.59577">
        <ele>302</ele>
        <time>2018-08-16T10:19:32Z</time>
      </trkpt>
      <trkpt lat="45.91459" lon="4.59578">
        <ele>302</ele>
        <time>2018-08-16T10:19:33Z</time>
      </trkpt>
      <trkpt lat="45.91451" lon="4.59581">
        <ele>303</ele>
        <time>2018-08-16T10:19:36Z</time>
      </trkpt>
      <trkpt lat="45.91448" lon="4.59582">
        <ele>303</ele>
        <time>2018-08-16T10:19:37Z</time>
      </trkpt>
      <trkpt lat="45.9144" lon="4.59584">
        <ele>307</ele>
        <time>2018-08-16T10:19:40Z</time>
      </trkpt>
      <trkpt lat="45.91438" lon="4.59585">
        <ele>307</ele>
        <time>2018-08-16T10:19:41Z</time>
      </trkpt>
      <trkpt lat="45.9143" lon="4.59587">
        <ele>307</ele>
        <time>2018-08-16T10:19:44Z</time>
      </trkpt>
      <trkpt lat="45.91427" lon="4.59587">
        <ele>307</ele>
        <time>2018-08-16T10:19:45Z</time>
      </trkpt>
      <trkpt lat="45.91419" lon="4.59587">
        <ele>306</ele>
        <time>2018-08-16T10:19:48Z</time>
      </trkpt>
      <trkpt lat="45.91417" lon="4.59586">
        <ele>307</ele>
        <time>2018-08-16T10:19:49Z</time>
      </trkpt>
      <trkpt lat="45.9141" lon="4.59581">
        <ele>306</ele>
        <time>2018-08-16T10:19:52Z</time>
      </trkpt>
      <trkpt lat="45.91408" lon="4.5958">
        <ele>306</ele>
        <time>2018-08-16T10:19:53Z</time>
      </trkpt>
      <trkpt lat="45.91402" lon="4.59573">
        <ele>306</ele>
        <time>2018-08-16T10:19:56Z</time>
      </trkpt>
      <trkpt lat="45.914" lon="4.5957">
        <ele>306</ele>
        <time>2018-08-16T10:19:57Z</time>
      </trkpt>
      <trkpt lat="45.91397" lon="4.59558">
        <ele>306</ele>
        <time>2018-08-16T10:20:01Z</time>
      </trkpt>
      <trkpt lat="45.91397" lon="4.59556">
        <ele>306</ele>
        <time>2018-08-16T10:20:02Z</time>
      </trkpt>
      <trkpt lat="45.91396" lon="4.59544">
        <ele>306</ele>
        <time>2018-08-16T10:20:06Z</time>
      </trkpt>
      <trkpt lat="45.91396" lon="4.59542">
        <ele>306</ele>
        <time>2018-08-16T10:20:07Z</time>
      </trkpt>
      <trkpt lat="45.91394" lon="4.59531">
        <ele>306</ele>
        <time>2018-08-16T10:20:11Z</time>
      </trkpt>
      <trkpt lat="45.91393" lon="4.59528">
        <ele>306</ele>
        <time>2018-08-16T10:20:12Z</time>
      </trkpt>
      <trkpt lat="45.91389" lon="4.59518">
        <ele>306</ele>
        <time>2018-08-16T10:20:16Z</time>
      </trkpt>
      <trkpt lat="45.91387" lon="4.59516">
        <ele>306</ele>
        <time>2018-08-16T10:20:17Z</time>
      </trkpt>
      <trkpt lat="45.91381" lon="4.59506">
        <ele>306</ele>
        <time>2018-08-16T10:20:21Z</time>
      </trkpt>
      <trkpt lat="45.9138" lon="4.59504">
        <ele>306</ele>
        <time>2018-08-16T10:20:22Z</time>
      </trkpt>
      <trkpt lat="45.91373" lon="4.59501">
        <ele>306</ele>
        <time>2018-08-16T10:20:25Z</time>
      </trkpt>
      <trkpt lat="45.9137" lon="4.59501">
        <ele>307</ele>
        <time>2018-08-16T10:20:26Z</time>
      </trkpt>
      <trkpt lat="45.91363" lon="4.59506">
        <ele>307</ele>
        <time>2018-08-16T10:20:29Z</time>
      </trkpt>
      <trkpt lat="45.91362" lon="4.59509">
        <ele>307</ele>
        <time>2018-08-16T10:20:30Z</time>
      </trkpt>
      <trkpt lat="45.91356" lon="4.59517">
        <ele>307</ele>
        <time>2018-08-16T10:20:33Z</time>
      </trkpt>
      <trkpt lat="45.91355" lon="4.59519">
        <ele>307</ele>
        <time>2018-08-16T10:20:34Z</time>
      </trkpt>
      <trkpt lat="45.91349" lon="4.59527">
        <ele>307</ele>
        <time>2018-08-16T10:20:37Z</time>
      </trkpt>
      <trkpt lat="45.91348" lon="4.5953">
        <ele>308</ele>
        <time>2018-08-16T10:20:38Z</time>
      </trkpt>
      <trkpt lat="45.91342" lon="4.59538">
        <ele>308</ele>
        <time>2018-08-16T10:20:41Z</time>
      </trkpt>
      <trkpt lat="45.9134" lon="4.5954">
        <ele>308</ele>
        <time>2018-08-16T10:20:42Z</time>
      </trkpt>
      <trkpt lat="45.91334" lon="4.59548">
        <ele>308</ele>
        <time>2018-08-16T10:20:45Z</time>
      </trkpt>
      <trkpt lat="45.91332" lon="4.5955">
        <ele>311</ele>
        <time>2018-08-16T10:20:46Z</time>
      </trkpt>
      <trkpt lat="45.91325" lon="4.59554">
        <ele>311</ele>
        <time>2018-08-16T10:20:49Z</time>
      </trkpt>
      <trkpt lat="45.91322" lon="4.59556">
        <ele>311</ele>
        <time>2018-08-16T10:20:50Z</time>
      </trkpt>
      <trkpt lat="45.91316" lon="4.59563">
        <ele>311</ele>
        <time>2018-08-16T10:20:53Z</time>
      </trkpt>
      <trkpt lat="45.91315" lon="4.59565">
        <ele>311</ele>
        <time>2018-08-16T10:20:54Z</time>
      </trkpt>
      <trkpt lat="45.91309" lon="4.59573">
        <ele>311</ele>
        <time>2018-08-16T10:20:57Z</time>
      </trkpt>
      <trkpt lat="45.91307" lon="4.59575">
        <ele>311</ele>
        <time>2018-08-16T10:20:58Z</time>
      </trkpt>
      <trkpt lat="45.91302" lon="4.59583">
        <ele>312</ele>
        <time>2018-08-16T10:21:01Z</time>
      </trkpt>
      <trkpt lat="45.913" lon="4.59586">
        <ele>313</ele>
        <time>2018-08-16T10:21:02Z</time>
      </trkpt>
      <trkpt lat="45.91295" lon="4.59596">
        <ele>313</ele>
        <time>2018-08-16T10:21:05Z</time>
      </trkpt>
      <trkpt lat="45.91294" lon="4.59599">
        <ele>313</ele>
        <time>2018-08-16T10:21:06Z</time>
      </trkpt>
      <trkpt lat="45.91289" lon="4.59608">
        <ele>313</ele>
        <time>2018-08-16T10:21:09Z</time>
      </trkpt>
      <trkpt lat="45.91287" lon="4.59611">
        <ele>313</ele>
        <time>2018-08-16T10:21:10Z</time>
      </trkpt>
      <trkpt lat="45.91281" lon="4.59618">
        <ele>314</ele>
        <time>2018-08-16T10:21:13Z</time>
      </trkpt>
      <trkpt lat="45.91279" lon="4.59619">
        <ele>314</ele>
        <time>2018-08-16T10:21:14Z</time>
      </trkpt>
      <trkpt lat="45.91273" lon="4.59622">
        <ele>314</ele>
        <time>2018-08-16T10:21:16Z</time>
      </trkpt>
      <trkpt lat="45.9127" lon="4.59623">
        <ele>314</ele>
        <time>2018-08-16T10:21:17Z</time>
      </trkpt>
      <trkpt lat="45.91261" lon="4.59625">
        <ele>314</ele>
        <time>2018-08-16T10:21:20Z</time>
      </trkpt>
      <trkpt lat="45.91258" lon="4.59626">
        <ele>314</ele>
        <time>2018-08-16T10:21:21Z</time>
      </trkpt>
      <trkpt lat="45.91251" lon="4.59628">
        <ele>314</ele>
        <time>2018-08-16T10:21:23Z</time>
      </trkpt>
      <trkpt lat="45.91247" lon="4.5963">
        <ele>315</ele>
        <time>2018-08-16T10:21:24Z</time>
      </trkpt>
      <trkpt lat="45.91241" lon="4.59632">
        <ele>315</ele>
        <time>2018-08-16T10:21:26Z</time>
      </trkpt>
      <trkpt lat="45.91238" lon="4.59633">
        <ele>315</ele>
        <time>2018-08-16T10:21:27Z</time>
      </trkpt>
      <trkpt lat="45.91232" lon="4.59636">
        <ele>315</ele>
        <time>2018-08-16T10:21:29Z</time>
      </trkpt>
      <trkpt lat="45.91229" lon="4.59637">
        <ele>315</ele>
        <time>2018-08-16T10:21:30Z</time>
      </trkpt>
      <trkpt lat="45.91221" lon="4.5964">
        <ele>316</ele>
        <time>2018-08-16T10:21:33Z</time>
      </trkpt>
      <trkpt lat="45.91218" lon="4.59641">
        <ele>316</ele>
        <time>2018-08-16T10:21:34Z</time>
      </trkpt>
      <trkpt lat="45.9121" lon="4.59643">
        <ele>316</ele>
        <time>2018-08-16T10:21:37Z</time>
      </trkpt>
      <trkpt lat="45.91207" lon="4.59644">
        <ele>316</ele>
        <time>2018-08-16T10:21:38Z</time>
      </trkpt>
      <trkpt lat="45.91199" lon="4.59647">
        <ele>316</ele>
        <time>2018-08-16T10:21:41Z</time>
      </trkpt>
      <trkpt lat="45.91196" lon="4.59648">
        <ele>316</ele>
        <time>2018-08-16T10:21:42Z</time>
      </trkpt>
      <trkpt lat="45.9119" lon="4.5965">
        <ele>316</ele>
        <time>2018-08-16T10:21:44Z</time>
      </trkpt>
      <trkpt lat="45.91187" lon="4.59651">
        <ele>316</ele>
        <time>2018-08-16T10:21:45Z</time>
      </trkpt>
      <trkpt lat="45.91181" lon="4.59652">
        <ele>316</ele>
        <time>2018-08-16T10:21:47Z</time>
      </trkpt>
      <trkpt lat="45.91178" lon="4.59652">
        <ele>316</ele>
        <time>2018-08-16T10:21:48Z</time>
      </trkpt>
      <trkpt lat="45.91172" lon="4.59654">
        <ele>315</ele>
        <time>2018-08-16T10:21:50Z</time>
      </trkpt>
      <trkpt lat="45.91168" lon="4.59655">
        <ele>315</ele>
        <time>2018-08-16T10:21:51Z</time>
      </trkpt>
      <trkpt lat="45.9116" lon="4.59656">
        <ele>317</ele>
        <time>2018-08-16T10:21:54Z</time>
      </trkpt>
      <trkpt lat="45.91156" lon="4.59657">
        <ele>317</ele>
        <time>2018-08-16T10:21:55Z</time>
      </trkpt>
      <trkpt lat="45.9115" lon="4.59658">
        <ele>317</ele>
        <time>2018-08-16T10:21:57Z</time>
      </trkpt>
      <trkpt lat="45.91147" lon="4.59659">
        <ele>317</ele>
        <time>2018-08-16T10:21:58Z</time>
      </trkpt>
      <trkpt lat="45.91141" lon="4.59662">
        <ele>317</ele>
        <time>2018-08-16T10:22:00Z</time>
      </trkpt>
      <trkpt lat="45.91137" lon="4.59663">
        <ele>318</ele>
        <time>2018-08-16T10:22:01Z</time>
      </trkpt>
      <trkpt lat="45.91131" lon="4.59665">
        <ele>318</ele>
        <time>2018-08-16T10:22:03Z</time>
      </trkpt>
      <trkpt lat="45.91128" lon="4.59666">
        <ele>318</ele>
        <time>2018-08-16T10:22:04Z</time>
      </trkpt>
      <trkpt lat="45.91121" lon="4.59668">
        <ele>317</ele>
        <time>2018-08-16T10:22:06Z</time>
      </trkpt>
      <trkpt lat="45.91118" lon="4.59668">
        <ele>317</ele>
        <time>2018-08-16T10:22:07Z</time>
      </trkpt>
      <trkpt lat="45.91115" lon="4.59669">
        <ele>317</ele>
        <time>2018-08-16T10:22:08Z</time>
      </trkpt>
      <trkpt lat="45.91105" lon="4.59671">
        <ele>317</ele>
        <time>2018-08-16T10:22:09Z</time>
      </trkpt>
      <trkpt lat="45.91098" lon="4.59672">
        <ele>318</ele>
        <time>2018-08-16T10:22:12Z</time>
      </trkpt>
      <trkpt lat="45.91095" lon="4.59673">
        <ele>318</ele>
        <time>2018-08-16T10:22:13Z</time>
      </trkpt>
      <trkpt lat="45.91093" lon="4.59674">
        <ele>318</ele>
        <time>2018-08-16T10:22:14Z</time>
      </trkpt>
      <trkpt lat="45.91084" lon="4.59676">
        <ele>318</ele>
        <time>2018-08-16T10:22:15Z</time>
      </trkpt>
      <trkpt lat="45.91076" lon="4.59678">
        <ele>319</ele>
        <time>2018-08-16T10:22:18Z</time>
      </trkpt>
      <trkpt lat="45.91074" lon="4.59678">
        <ele>319</ele>
        <time>2018-08-16T10:22:19Z</time>
      </trkpt>
      <trkpt lat="45.91066" lon="4.5968">
        <ele>320</ele>
        <time>2018-08-16T10:22:22Z</time>
      </trkpt>
      <trkpt lat="45.91063" lon="4.59681">
        <ele>320</ele>
        <time>2018-08-16T10:22:23Z</time>
      </trkpt>
      <trkpt lat="45.91057" lon="4.59684">
        <ele>320</ele>
        <time>2018-08-16T10:22:25Z</time>
      </trkpt>
      <trkpt lat="45.91054" lon="4.59686">
        <ele>320</ele>
        <time>2018-08-16T10:22:26Z</time>
      </trkpt>
      <trkpt lat="45.91047" lon="4.5969">
        <ele>320</ele>
        <time>2018-08-16T10:22:28Z</time>
      </trkpt>
      <trkpt lat="45.9104" lon="4.59696">
        <ele>320</ele>
        <time>2018-08-16T10:22:29Z</time>
      </trkpt>
      <trkpt lat="45.91035" lon="4.59704">
        <ele>320</ele>
        <time>2018-08-16T10:22:31Z</time>
      </trkpt>
      <trkpt lat="45.91031" lon="4.59707">
        <ele>320</ele>
        <time>2018-08-16T10:22:32Z</time>
      </trkpt>
      <trkpt lat="45.91025" lon="4.59715">
        <ele>320</ele>
        <time>2018-08-16T10:22:34Z</time>
      </trkpt>
      <trkpt lat="45.91022" lon="4.59719">
        <ele>320</ele>
        <time>2018-08-16T10:22:35Z</time>
      </trkpt>
      <trkpt lat="45.91015" lon="4.59725">
        <ele>321</ele>
        <time>2018-08-16T10:22:38Z</time>
      </trkpt>
      <trkpt lat="45.91013" lon="4.59727">
        <ele>321</ele>
        <time>2018-08-16T10:22:39Z</time>
      </trkpt>
      <trkpt lat="45.91006" lon="4.59732">
        <ele>321</ele>
        <time>2018-08-16T10:22:40Z</time>
      </trkpt>
      <trkpt lat="45.91003" lon="4.59734">
        <ele>321</ele>
        <time>2018-08-16T10:22:41Z</time>
      </trkpt>
      <trkpt lat="45.90996" lon="4.5974">
        <ele>322</ele>
        <time>2018-08-16T10:22:43Z</time>
      </trkpt>
      <trkpt lat="45.90992" lon="4.59743">
        <ele>322</ele>
        <time>2018-08-16T10:22:44Z</time>
      </trkpt>
      <trkpt lat="45.90985" lon="4.59748">
        <ele>323</ele>
        <time>2018-08-16T10:22:46Z</time>
      </trkpt>
      <trkpt lat="45.9098" lon="4.5975">
        <ele>323</ele>
        <time>2018-08-16T10:22:47Z</time>
      </trkpt>
      <trkpt lat="45.90971" lon="4.59753">
        <ele>322</ele>
        <time>2018-08-16T10:22:49Z</time>
      </trkpt>
      <trkpt lat="45.90967" lon="4.59755">
        <ele>322</ele>
        <time>2018-08-16T10:22:50Z</time>
      </trkpt>
      <trkpt lat="45.90962" lon="4.59756">
        <ele>322</ele>
        <time>2018-08-16T10:22:51Z</time>
      </trkpt>
      <trkpt lat="45.90958" lon="4.59759">
        <ele>322</ele>
        <time>2018-08-16T10:22:52Z</time>
      </trkpt>
      <trkpt lat="45.90953" lon="4.5976">
        <ele>322</ele>
        <time>2018-08-16T10:22:53Z</time>
      </trkpt>
      <trkpt lat="45.90948" lon="4.59759">
        <ele>323</ele>
        <time>2018-08-16T10:22:54Z</time>
      </trkpt>
      <trkpt lat="45.9094" lon="4.59761">
        <ele>323</ele>
        <time>2018-08-16T10:22:56Z</time>
      </trkpt>
      <trkpt lat="45.90936" lon="4.59761">
        <ele>323</ele>
        <time>2018-08-16T10:22:57Z</time>
      </trkpt>
      <trkpt lat="45.90928" lon="4.59763">
        <ele>323</ele>
        <time>2018-08-16T10:22:59Z</time>
      </trkpt>
      <trkpt lat="45.90925" lon="4.59765">
        <ele>323</ele>
        <time>2018-08-16T10:23:00Z</time>
      </trkpt>
      <trkpt lat="45.90917" lon="4.59768">
        <ele>323</ele>
        <time>2018-08-16T10:23:02Z</time>
      </trkpt>
      <trkpt lat="45.90913" lon="4.59769">
        <ele>324</ele>
        <time>2018-08-16T10:23:03Z</time>
      </trkpt>
      <trkpt lat="45.90905" lon="4.59771">
        <ele>324</ele>
        <time>2018-08-16T10:23:05Z</time>
      </trkpt>
      <trkpt lat="45.90903" lon="4.59772">
        <ele>324</ele>
        <time>2018-08-16T10:23:06Z</time>
      </trkpt>
      <trkpt lat="45.90897" lon="4.59773">
        <ele>324</ele>
        <time>2018-08-16T10:23:07Z</time>
      </trkpt>
      <trkpt lat="45.90892" lon="4.59775">
        <ele>324</ele>
        <time>2018-08-16T10:23:08Z</time>
      </trkpt>
      <trkpt lat="45.90887" lon="4.59776">
        <ele>324</ele>
        <time>2018-08-16T10:23:09Z</time>
      </trkpt>
      <trkpt lat="45.90882" lon="4.59777">
        <ele>324</ele>
        <time>2018-08-16T10:23:10Z</time>
      </trkpt>
      <trkpt lat="45.90874" lon="4.59776">
        <ele>324</ele>
        <time>2018-08-16T10:23:12Z</time>
      </trkpt>
      <trkpt lat="45.90869" lon="4.59775">
        <ele>324</ele>
        <time>2018-08-16T10:23:13Z</time>
      </trkpt>
      <trkpt lat="45.90861" lon="4.5978">
        <ele>324</ele>
        <time>2018-08-16T10:23:15Z</time>
      </trkpt>
      <trkpt lat="45.90856" lon="4.59781">
        <ele>324</ele>
        <time>2018-08-16T10:23:16Z</time>
      </trkpt>
      <trkpt lat="45.90852" lon="4.59783">
        <ele>324</ele>
        <time>2018-08-16T10:23:17Z</time>
      </trkpt>
      <trkpt lat="45.90847" lon="4.59785">
        <ele>324</ele>
        <time>2018-08-16T10:23:18Z</time>
      </trkpt>
      <trkpt lat="45.90839" lon="4.59789">
        <ele>324</ele>
        <time>2018-08-16T10:23:20Z</time>
      </trkpt>
      <trkpt lat="45.90835" lon="4.5979">
        <ele>324</ele>
        <time>2018-08-16T10:23:21Z</time>
      </trkpt>
      <trkpt lat="45.90827" lon="4.59795">
        <ele>325</ele>
        <time>2018-08-16T10:23:23Z</time>
      </trkpt>
      <trkpt lat="45.90822" lon="4.59798">
        <ele>325</ele>
        <time>2018-08-16T10:23:24Z</time>
      </trkpt>
      <trkpt lat="45.90818" lon="4.59801">
        <ele>325</ele>
        <time>2018-08-16T10:23:25Z</time>
      </trkpt>
      <trkpt lat="45.90814" lon="4.59803">
        <ele>325</ele>
        <time>2018-08-16T10:23:26Z</time>
      </trkpt>
      <trkpt lat="45.90806" lon="4.59808">
        <ele>325</ele>
        <time>2018-08-16T10:23:28Z</time>
      </trkpt>
      <trkpt lat="45.90804" lon="4.59812">
        <ele>325</ele>
        <time>2018-08-16T10:23:29Z</time>
      </trkpt>
      <trkpt lat="45.90796" lon="4.59816">
        <ele>325</ele>
        <time>2018-08-16T10:23:31Z</time>
      </trkpt>
      <trkpt lat="45.90793" lon="4.59818">
        <ele>325</ele>
        <time>2018-08-16T10:23:32Z</time>
      </trkpt>
      <trkpt lat="45.90786" lon="4.59823">
        <ele>325</ele>
        <time>2018-08-16T10:23:34Z</time>
      </trkpt>
      <trkpt lat="45.90783" lon="4.59826">
        <ele>325</ele>
        <time>2018-08-16T10:23:35Z</time>
      </trkpt>
      <trkpt lat="45.90779" lon="4.59829">
        <ele>325</ele>
        <time>2018-08-16T10:23:36Z</time>
      </trkpt>
      <trkpt lat="45.90775" lon="4.59834">
        <ele>323</ele>
        <time>2018-08-16T10:23:37Z</time>
      </trkpt>
      <trkpt lat="45.90771" lon="4.59839">
        <ele>323</ele>
        <time>2018-08-16T10:23:38Z</time>
      </trkpt>
      <trkpt lat="45.90766" lon="4.59841">
        <ele>323</ele>
        <time>2018-08-16T10:23:39Z</time>
      </trkpt>
      <trkpt lat="45.90762" lon="4.59846">
        <ele>323</ele>
        <time>2018-08-16T10:23:40Z</time>
      </trkpt>
      <trkpt lat="45.9076" lon="4.59858">
        <ele>323</ele>
        <time>2018-08-16T10:23:41Z</time>
      </trkpt>
      <trkpt lat="45.90757" lon="4.59862">
        <ele>323</ele>
        <time>2018-08-16T10:23:42Z</time>
      </trkpt>
      <trkpt lat="45.90752" lon="4.59866">
        <ele>323</ele>
        <time>2018-08-16T10:23:43Z</time>
      </trkpt>
      <trkpt lat="45.90747" lon="4.5987">
        <ele>321</ele>
        <time>2018-08-16T10:23:44Z</time>
      </trkpt>
      <trkpt lat="45.90743" lon="4.59876">
        <ele>321</ele>
        <time>2018-08-16T10:23:45Z</time>
      </trkpt>
      <trkpt lat="45.90739" lon="4.59881">
        <ele>321</ele>
        <time>2018-08-16T10:23:46Z</time>
      </trkpt>
      <trkpt lat="45.90735" lon="4.59886">
        <ele>321</ele>
        <time>2018-08-16T10:23:47Z</time>
      </trkpt>
      <trkpt lat="45.9073" lon="4.59892">
        <ele>321</ele>
        <time>2018-08-16T10:23:48Z</time>
      </trkpt>
      <trkpt lat="45.90726" lon="4.59898">
        <ele>321</ele>
        <time>2018-08-16T10:23:49Z</time>
      </trkpt>
      <trkpt lat="45.90724" lon="4.59908">
        <ele>321</ele>
        <time>2018-08-16T10:23:50Z</time>
      </trkpt>
      <trkpt lat="45.90721" lon="4.59914">
        <ele>320</ele>
        <time>2018-08-16T10:23:51Z</time>
      </trkpt>
      <trkpt lat="45.90717" lon="4.59921">
        <ele>319</ele>
        <time>2018-08-16T10:23:52Z</time>
      </trkpt>
      <trkpt lat="45.90713" lon="4.59928">
        <ele>319</ele>
        <time>2018-08-16T10:23:53Z</time>
      </trkpt>
      <trkpt lat="45.90708" lon="4.59935">
        <ele>319</ele>
        <time>2018-08-16T10:23:54Z</time>
      </trkpt>
      <trkpt lat="45.907" lon="4.59938">
        <ele>319</ele>
        <time>2018-08-16T10:23:55Z</time>
      </trkpt>
      <trkpt lat="45.90693" lon="4.5994">
        <ele>318</ele>
        <time>2018-08-16T10:23:56Z</time>
      </trkpt>
      <trkpt lat="45.90686" lon="4.59943">
        <ele>318</ele>
        <time>2018-08-16T10:23:57Z</time>
      </trkpt>
      <trkpt lat="45.90679" lon="4.59945">
        <ele>318</ele>
        <time>2018-08-16T10:23:58Z</time>
      </trkpt>
      <trkpt lat="45.90672" lon="4.59946">
        <ele>318</ele>
        <time>2018-08-16T10:23:59Z</time>
      </trkpt>
      <trkpt lat="45.90663" lon="4.59948">
        <ele>316</ele>
        <time>2018-08-16T10:24:00Z</time>
      </trkpt>
      <trkpt lat="45.90655" lon="4.5995">
        <ele>316</ele>
        <time>2018-08-16T10:24:01Z</time>
      </trkpt>
      <trkpt lat="45.90647" lon="4.59953">
        <ele>316</ele>
        <time>2018-08-16T10:24:02Z</time>
      </trkpt>
      <trkpt lat="45.9064" lon="4.59957">
        <ele>316</ele>
        <time>2018-08-16T10:24:03Z</time>
      </trkpt>
      <trkpt lat="45.90632" lon="4.59959">
        <ele>316</ele>
        <time>2018-08-16T10:24:04Z</time>
      </trkpt>
      <trkpt lat="45.90622" lon="4.5996">
        <ele>316</ele>
        <time>2018-08-16T10:24:05Z</time>
      </trkpt>
      <trkpt lat="45.90614" lon="4.59964">
        <ele>316</ele>
        <time>2018-08-16T10:24:06Z</time>
      </trkpt>
      <trkpt lat="45.90606" lon="4.59966">
        <ele>315</ele>
        <time>2018-08-16T10:24:07Z</time>
      </trkpt>
      <trkpt lat="45.90599" lon="4.59969">
        <ele>315</ele>
        <time>2018-08-16T10:24:08Z</time>
      </trkpt>
      <trkpt lat="45.90592" lon="4.59973">
        <ele>315</ele>
        <time>2018-08-16T10:24:09Z</time>
      </trkpt>
      <trkpt lat="45.90583" lon="4.59976">
        <ele>314</ele>
        <time>2018-08-16T10:24:10Z</time>
      </trkpt>
      <trkpt lat="45.90574" lon="4.59979">
        <ele>314</ele>
        <time>2018-08-16T10:24:11Z</time>
      </trkpt>
      <trkpt lat="45.90566" lon="4.59981">
        <ele>314</ele>
        <time>2018-08-16T10:24:12Z</time>
      </trkpt>
      <trkpt lat="45.90557" lon="4.59983">
        <ele>314</ele>
        <time>2018-08-16T10:24:13Z</time>
      </trkpt>
      <trkpt lat="45.9055" lon="4.59985">
        <ele>314</ele>
        <time>2018-08-16T10:24:14Z</time>
      </trkpt>
      <trkpt lat="45.90542" lon="4.59988">
        <ele>314</ele>
        <time>2018-08-16T10:24:15Z</time>
      </trkpt>
      <trkpt lat="45.90534" lon="4.59991">
        <ele>314</ele>
        <time>2018-08-16T10:24:16Z</time>
      </trkpt>
      <trkpt lat="45.90527" lon="4.59994">
        <ele>314</ele>
        <time>2018-08-16T10:24:17Z</time>
      </trkpt>
      <trkpt lat="45.90519" lon="4.59996">
        <ele>313</ele>
        <time>2018-08-16T10:24:18Z</time>
      </trkpt>
      <trkpt lat="45.90513" lon="4.59998">
        <ele>313</ele>
        <time>2018-08-16T10:24:19Z</time>
      </trkpt>
      <trkpt lat="45.90506" lon="4.60001">
        <ele>312</ele>
        <time>2018-08-16T10:24:20Z</time>
      </trkpt>
      <trkpt lat="45.905" lon="4.60002">
        <ele>312</ele>
        <time>2018-08-16T10:24:21Z</time>
      </trkpt>
      <trkpt lat="45.90494" lon="4.60005">
        <ele>312</ele>
        <time>2018-08-16T10:24:22Z</time>
      </trkpt>
      <trkpt lat="45.90488" lon="4.60008">
        <ele>311</ele>
        <time>2018-08-16T10:24:23Z</time>
      </trkpt>
      <trkpt lat="45.90481" lon="4.6001">
        <ele>311</ele>
        <time>2018-08-16T10:24:24Z</time>
      </trkpt>
      <trkpt lat="45.90474" lon="4.60014">
        <ele>311</ele>
        <time>2018-08-16T10:24:25Z</time>
      </trkpt>
      <trkpt lat="45.90468" lon="4.60016">
        <ele>311</ele>
        <time>2018-08-16T10:24:26Z</time>
      </trkpt>
      <trkpt lat="45.90461" lon="4.60017">
        <ele>311</ele>
        <time>2018-08-16T10:24:27Z</time>
      </trkpt>
      <trkpt lat="45.90454" lon="4.60019">
        <ele>311</ele>
        <time>2018-08-16T10:24:28Z</time>
      </trkpt>
      <trkpt lat="45.90447" lon="4.60021">
        <ele>311</ele>
        <time>2018-08-16T10:24:29Z</time>
      </trkpt>
      <trkpt lat="45.9044" lon="4.60023">
        <ele>311</ele>
        <time>2018-08-16T10:24:30Z</time>
      </trkpt>
      <trkpt lat="45.90434" lon="4.60025">
        <ele>311</ele>
        <time>2018-08-16T10:24:31Z</time>
      </trkpt>
      <trkpt lat="45.90427" lon="4.60027">
        <ele>311</ele>
        <time>2018-08-16T10:24:32Z</time>
      </trkpt>
      <trkpt lat="45.90421" lon="4.60029">
        <ele>311</ele>
        <time>2018-08-16T10:24:33Z</time>
      </trkpt>
      <trkpt lat="45.90414" lon="4.60031">
        <ele>313</ele>
        <time>2018-08-16T10:24:34Z</time>
      </trkpt>
      <trkpt lat="45.90408" lon="4.60034">
        <ele>313</ele>
        <time>2018-08-16T10:24:35Z</time>
      </trkpt>
      <trkpt lat="45.90401" lon="4.60035">
        <ele>313</ele>
        <time>2018-08-16T10:24:36Z</time>
      </trkpt>
      <trkpt lat="45.90395" lon="4.60038">
        <ele>313</ele>
        <time>2018-08-16T10:24:37Z</time>
      </trkpt>
      <trkpt lat="45.9039" lon="4.60039">
        <ele>313</ele>
        <time>2018-08-16T10:24:38Z</time>
      </trkpt>
      <trkpt lat="45.90384" lon="4.60042">
        <ele>313</ele>
        <time>2018-08-16T10:24:39Z</time>
      </trkpt>
      <trkpt lat="45.90378" lon="4.60044">
        <ele>313</ele>
        <time>2018-08-16T10:24:40Z</time>
      </trkpt>
      <trkpt lat="45.90372" lon="4.60046">
        <ele>313</ele>
        <time>2018-08-16T10:24:41Z</time>
      </trkpt>
      <trkpt lat="45.90366" lon="4.60047">
        <ele>313</ele>
        <time>2018-08-16T10:24:42Z</time>
      </trkpt>
      <trkpt lat="45.90361" lon="4.60048">
        <ele>313</ele>
        <time>2018-08-16T10:24:43Z</time>
      </trkpt>
      <trkpt lat="45.90356" lon="4.6005">
        <ele>313</ele>
        <time>2018-08-16T10:24:44Z</time>
      </trkpt>
      <trkpt lat="45.90351" lon="4.6005">
        <ele>314</ele>
        <time>2018-08-16T10:24:45Z</time>
      </trkpt>
      <trkpt lat="45.90346" lon="4.60053">
        <ele>313</ele>
        <time>2018-08-16T10:24:46Z</time>
      </trkpt>
      <trkpt lat="45.90341" lon="4.60055">
        <ele>313</ele>
        <time>2018-08-16T10:24:47Z</time>
      </trkpt>
      <trkpt lat="45.90333" lon="4.60057">
        <ele>316</ele>
        <time>2018-08-16T10:24:48Z</time>
      </trkpt>
      <trkpt lat="45.90328" lon="4.60058">
        <ele>316</ele>
        <time>2018-08-16T10:24:49Z</time>
      </trkpt>
      <trkpt lat="45.90324" lon="4.60059">
        <ele>316</ele>
        <time>2018-08-16T10:24:50Z</time>
      </trkpt>
      <trkpt lat="45.90318" lon="4.60061">
        <ele>316</ele>
        <time>2018-08-16T10:24:51Z</time>
      </trkpt>
      <trkpt lat="45.90314" lon="4.60062">
        <ele>316</ele>
        <time>2018-08-16T10:24:52Z</time>
      </trkpt>
      <trkpt lat="45.90308" lon="4.60064">
        <ele>316</ele>
        <time>2018-08-16T10:24:53Z</time>
      </trkpt>
      <trkpt lat="45.90303" lon="4.60066">
        <ele>316</ele>
        <time>2018-08-16T10:24:54Z</time>
      </trkpt>
      <trkpt lat="45.90297" lon="4.60068">
        <ele>316</ele>
        <time>2018-08-16T10:24:55Z</time>
      </trkpt>
      <trkpt lat="45.90291" lon="4.6007">
        <ele>316</ele>
        <time>2018-08-16T10:24:56Z</time>
      </trkpt>
      <trkpt lat="45.90284" lon="4.60071">
        <ele>316</ele>
        <time>2018-08-16T10:24:57Z</time>
      </trkpt>
      <trkpt lat="45.90279" lon="4.60073">
        <ele>316</ele>
        <time>2018-08-16T10:24:58Z</time>
      </trkpt>
      <trkpt lat="45.90274" lon="4.60074">
        <ele>316</ele>
        <time>2018-08-16T10:24:59Z</time>
      </trkpt>
      <trkpt lat="45.90269" lon="4.60076">
        <ele>316</ele>
        <time>2018-08-16T10:25:00Z</time>
      </trkpt>
      <trkpt lat="45.90264" lon="4.60076">
        <ele>316</ele>
        <time>2018-08-16T10:25:01Z</time>
      </trkpt>
      <trkpt lat="45.90257" lon="4.60078">
        <ele>316</ele>
        <time>2018-08-16T10:25:02Z</time>
      </trkpt>
      <trkpt lat="45.90251" lon="4.60079">
        <ele>315</ele>
        <time>2018-08-16T10:25:03Z</time>
      </trkpt>
      <trkpt lat="45.90246" lon="4.6008">
        <ele>315</ele>
        <time>2018-08-16T10:25:04Z</time>
      </trkpt>
      <trkpt lat="45.9024" lon="4.60082">
        <ele>315</ele>
        <time>2018-08-16T10:25:05Z</time>
      </trkpt>
      <trkpt lat="45.90235" lon="4.60082">
        <ele>315</ele>
        <time>2018-08-16T10:25:06Z</time>
      </trkpt>
      <trkpt lat="45.90229" lon="4.60082">
        <ele>315</ele>
        <time>2018-08-16T10:25:07Z</time>
      </trkpt>
      <trkpt lat="45.90222" lon="4.60084">
        <ele>310</ele>
        <time>2018-08-16T10:25:08Z</time>
      </trkpt>
      <trkpt lat="45.90216" lon="4.60085">
        <ele>309</ele>
        <time>2018-08-16T10:25:09Z</time>
      </trkpt>
      <trkpt lat="45.90209" lon="4.60088">
        <ele>309</ele>
        <time>2018-08-16T10:25:10Z</time>
      </trkpt>
      <trkpt lat="45.90203" lon="4.60089">
        <ele>308</ele>
        <time>2018-08-16T10:25:11Z</time>
      </trkpt>
      <trkpt lat="45.90197" lon="4.6009">
        <ele>308</ele>
        <time>2018-08-16T10:25:12Z</time>
      </trkpt>
      <trkpt lat="45.90189" lon="4.60092">
        <ele>308</ele>
        <time>2018-08-16T10:25:13Z</time>
      </trkpt>
      <trkpt lat="45.90183" lon="4.60094">
        <ele>308</ele>
        <time>2018-08-16T10:25:14Z</time>
      </trkpt>
      <trkpt lat="45.90176" lon="4.60098">
        <ele>308</ele>
        <time>2018-08-16T10:25:15Z</time>
      </trkpt>
      <trkpt lat="45.9017" lon="4.60099">
        <ele>308</ele>
        <time>2018-08-16T10:25:16Z</time>
      </trkpt>
      <trkpt lat="45.90164" lon="4.60101">
        <ele>307</ele>
        <time>2018-08-16T10:25:17Z</time>
      </trkpt>
      <trkpt lat="45.90158" lon="4.60104">
        <ele>307</ele>
        <time>2018-08-16T10:25:18Z</time>
      </trkpt>
      <trkpt lat="45.90151" lon="4.60106">
        <ele>306</ele>
        <time>2018-08-16T10:25:19Z</time>
      </trkpt>
      <trkpt lat="45.90146" lon="4.6011">
        <ele>306</ele>
        <time>2018-08-16T10:25:20Z</time>
      </trkpt>
      <trkpt lat="45.9014" lon="4.60112">
        <ele>306</ele>
        <time>2018-08-16T10:25:21Z</time>
      </trkpt>
      <trkpt lat="45.90133" lon="4.60115">
        <ele>306</ele>
        <time>2018-08-16T10:25:22Z</time>
      </trkpt>
      <trkpt lat="45.90128" lon="4.60117">
        <ele>306</ele>
        <time>2018-08-16T10:25:23Z</time>
      </trkpt>
      <trkpt lat="45.90121" lon="4.60119">
        <ele>305</ele>
        <time>2018-08-16T10:25:24Z</time>
      </trkpt>
      <trkpt lat="45.90116" lon="4.60119">
        <ele>305</ele>
        <time>2018-08-16T10:25:25Z</time>
      </trkpt>
      <trkpt lat="45.90111" lon="4.6012">
        <ele>305</ele>
        <time>2018-08-16T10:25:26Z</time>
      </trkpt>
      <trkpt lat="45.90107" lon="4.60121">
        <ele>305</ele>
        <time>2018-08-16T10:25:27Z</time>
      </trkpt>
      <trkpt lat="45.90101" lon="4.60123">
        <ele>305</ele>
        <time>2018-08-16T10:25:28Z</time>
      </trkpt>
      <trkpt lat="45.90095" lon="4.60125">
        <ele>305</ele>
        <time>2018-08-16T10:25:29Z</time>
      </trkpt>
      <trkpt lat="45.90088" lon="4.60126">
        <ele>305</ele>
        <time>2018-08-16T10:25:30Z</time>
      </trkpt>
      <trkpt lat="45.90081" lon="4.60129">
        <ele>306</ele>
        <time>2018-08-16T10:25:31Z</time>
      </trkpt>
      <trkpt lat="45.90074" lon="4.60131">
        <ele>306</ele>
        <time>2018-08-16T10:25:32Z</time>
      </trkpt>
      <trkpt lat="45.90068" lon="4.60134">
        <ele>306</ele>
        <time>2018-08-16T10:25:33Z</time>
      </trkpt>
      <trkpt lat="45.90062" lon="4.60137">
        <ele>305</ele>
        <time>2018-08-16T10:25:34Z</time>
      </trkpt>
      <trkpt lat="45.90056" lon="4.60139">
        <ele>305</ele>
        <time>2018-08-16T10:25:35Z</time>
      </trkpt>
      <trkpt lat="45.90048" lon="4.60142">
        <ele>305</ele>
        <time>2018-08-16T10:25:36Z</time>
      </trkpt>
      <trkpt lat="45.90042" lon="4.60143">
        <ele>305</ele>
        <time>2018-08-16T10:25:37Z</time>
      </trkpt>
      <trkpt lat="45.90035" lon="4.60146">
        <ele>305</ele>
        <time>2018-08-16T10:25:38Z</time>
      </trkpt>
      <trkpt lat="45.90028" lon="4.60147">
        <ele>305</ele>
        <time>2018-08-16T10:25:39Z</time>
      </trkpt>
      <trkpt lat="45.90022" lon="4.6015">
        <ele>305</ele>
        <time>2018-08-16T10:25:40Z</time>
      </trkpt>
      <trkpt lat="45.90016" lon="4.60152">
        <ele>305</ele>
        <time>2018-08-16T10:25:41Z</time>
      </trkpt>
      <trkpt lat="45.9001" lon="4.60153">
        <ele>305</ele>
        <time>2018-08-16T10:25:42Z</time>
      </trkpt>
      <trkpt lat="45.90004" lon="4.60156">
        <ele>305</ele>
        <time>2018-08-16T10:25:43Z</time>
      </trkpt>
      <trkpt lat="45.89997" lon="4.60158">
        <ele>304</ele>
        <time>2018-08-16T10:25:44Z</time>
      </trkpt>
      <trkpt lat="45.89992" lon="4.6016">
        <ele>304</ele>
        <time>2018-08-16T10:25:45Z</time>
      </trkpt>
      <trkpt lat="45.89985" lon="4.60162">
        <ele>304</ele>
        <time>2018-08-16T10:25:46Z</time>
      </trkpt>
      <trkpt lat="45.89979" lon="4.60164">
        <ele>304</ele>
        <time>2018-08-16T10:25:47Z</time>
      </trkpt>
      <trkpt lat="45.89973" lon="4.60165">
        <ele>304</ele>
        <time>2018-08-16T10:25:48Z</time>
      </trkpt>
      <trkpt lat="45.89966" lon="4.60167">
        <ele>302</ele>
        <time>2018-08-16T10:25:49Z</time>
      </trkpt>
      <trkpt lat="45.8996" lon="4.60169">
        <ele>302</ele>
        <time>2018-08-16T10:25:50Z</time>
      </trkpt>
      <trkpt lat="45.89954" lon="4.60171">
        <ele>302</ele>
        <time>2018-08-16T10:25:51Z</time>
      </trkpt>
      <trkpt lat="45.89947" lon="4.60173">
        <ele>302</ele>
        <time>2018-08-16T10:25:52Z</time>
      </trkpt>
      <trkpt lat="45.8994" lon="4.60176">
        <ele>302</ele>
        <time>2018-08-16T10:25:53Z</time>
      </trkpt>
      <trkpt lat="45.89934" lon="4.60178">
        <ele>302</ele>
        <time>2018-08-16T10:25:54Z</time>
      </trkpt>
      <trkpt lat="45.89927" lon="4.6018">
        <ele>302</ele>
        <time>2018-08-16T10:25:55Z</time>
      </trkpt>
      <trkpt lat="45.8992" lon="4.60182">
        <ele>302</ele>
        <time>2018-08-16T10:25:56Z</time>
      </trkpt>
      <trkpt lat="45.89913" lon="4.60185">
        <ele>302</ele>
        <time>2018-08-16T10:25:57Z</time>
      </trkpt>
      <trkpt lat="45.89906" lon="4.60187">
        <ele>302</ele>
        <time>2018-08-16T10:25:58Z</time>
      </trkpt>
      <trkpt lat="45.89898" lon="4.6019">
        <ele>302</ele>
        <time>2018-08-16T10:25:59Z</time>
      </trkpt>
      <trkpt lat="45.89891" lon="4.60192">
        <ele>302</ele>
        <time>2018-08-16T10:26:00Z</time>
      </trkpt>
      <trkpt lat="45.89884" lon="4.60195">
        <ele>301</ele>
        <time>2018-08-16T10:26:01Z</time>
      </trkpt>
      <trkpt lat="45.89877" lon="4.60197">
        <ele>301</ele>
        <time>2018-08-16T10:26:02Z</time>
      </trkpt>
      <trkpt lat="45.8987" lon="4.60198">
        <ele>301</ele>
        <time>2018-08-16T10:26:03Z</time>
      </trkpt>
      <trkpt lat="45.89863" lon="4.602">
        <ele>301</ele>
        <time>2018-08-16T10:26:04Z</time>
      </trkpt>
      <trkpt lat="45.89855" lon="4.60201">
        <ele>301</ele>
        <time>2018-08-16T10:26:05Z</time>
      </trkpt>
      <trkpt lat="45.89847" lon="4.60202">
        <ele>301</ele>
        <time>2018-08-16T10:26:06Z</time>
      </trkpt>
      <trkpt lat="45.8984" lon="4.60204">
        <ele>301</ele>
        <time>2018-08-16T10:26:07Z</time>
      </trkpt>
      <trkpt lat="45.89833" lon="4.60206">
        <ele>301</ele>
        <time>2018-08-16T10:26:08Z</time>
      </trkpt>
      <trkpt lat="45.89825" lon="4.60207">
        <ele>301</ele>
        <time>2018-08-16T10:26:09Z</time>
      </trkpt>
      <trkpt lat="45.89818" lon="4.6021">
        <ele>301</ele>
        <time>2018-08-16T10:26:10Z</time>
      </trkpt>
      <trkpt lat="45.8981" lon="4.60213">
        <ele>301</ele>
        <time>2018-08-16T10:26:11Z</time>
      </trkpt>
      <trkpt lat="45.89802" lon="4.60215">
        <ele>301</ele>
        <time>2018-08-16T10:26:12Z</time>
      </trkpt>
      <trkpt lat="45.89795" lon="4.60217">
        <ele>301</ele>
        <time>2018-08-16T10:26:13Z</time>
      </trkpt>
      <trkpt lat="45.89787" lon="4.60222">
        <ele>301</ele>
        <time>2018-08-16T10:26:14Z</time>
      </trkpt>
      <trkpt lat="45.8978" lon="4.60222">
        <ele>301</ele>
        <time>2018-08-16T10:26:15Z</time>
      </trkpt>
      <trkpt lat="45.89773" lon="4.60225">
        <ele>301</ele>
        <time>2018-08-16T10:26:16Z</time>
      </trkpt>
      <trkpt lat="45.89768" lon="4.60229">
        <ele>301</ele>
        <time>2018-08-16T10:26:17Z</time>
      </trkpt>
      <trkpt lat="45.89762" lon="4.60232">
        <ele>301</ele>
        <time>2018-08-16T10:26:18Z</time>
      </trkpt>
      <trkpt lat="45.89756" lon="4.60235">
        <ele>301</ele>
        <time>2018-08-16T10:26:19Z</time>
      </trkpt>
      <trkpt lat="45.89749" lon="4.60237">
        <ele>300</ele>
        <time>2018-08-16T10:26:20Z</time>
      </trkpt>
      <trkpt lat="45.89743" lon="4.60238">
        <ele>300</ele>
        <time>2018-08-16T10:26:21Z</time>
      </trkpt>
      <trkpt lat="45.89735" lon="4.60241">
        <ele>300</ele>
        <time>2018-08-16T10:26:22Z</time>
      </trkpt>
      <trkpt lat="45.89728" lon="4.60243">
        <ele>299</ele>
        <time>2018-08-16T10:26:23Z</time>
      </trkpt>
      <trkpt lat="45.89721" lon="4.60247">
        <ele>299</ele>
        <time>2018-08-16T10:26:24Z</time>
      </trkpt>
      <trkpt lat="45.89715" lon="4.60252">
        <ele>298</ele>
        <time>2018-08-16T10:26:25Z</time>
      </trkpt>
      <trkpt lat="45.89706" lon="4.60253">
        <ele>297</ele>
        <time>2018-08-16T10:26:26Z</time>
      </trkpt>
      <trkpt lat="45.89699" lon="4.60257">
        <ele>297</ele>
        <time>2018-08-16T10:26:27Z</time>
      </trkpt>
      <trkpt lat="45.89692" lon="4.60262">
        <ele>296</ele>
        <time>2018-08-16T10:26:28Z</time>
      </trkpt>
      <trkpt lat="45.89685" lon="4.60266">
        <ele>296</ele>
        <time>2018-08-16T10:26:29Z</time>
      </trkpt>
      <trkpt lat="45.89678" lon="4.60267">
        <ele>295</ele>
        <time>2018-08-16T10:26:30Z</time>
      </trkpt>
      <trkpt lat="45.8967" lon="4.60269">
        <ele>295</ele>
        <time>2018-08-16T10:26:31Z</time>
      </trkpt>
      <trkpt lat="45.89661" lon="4.60272">
        <ele>292</ele>
        <time>2018-08-16T10:26:32Z</time>
      </trkpt>
      <trkpt lat="45.89652" lon="4.60272">
        <ele>292</ele>
        <time>2018-08-16T10:26:33Z</time>
      </trkpt>
      <trkpt lat="45.89645" lon="4.60275">
        <ele>291</ele>
        <time>2018-08-16T10:26:34Z</time>
      </trkpt>
      <trkpt lat="45.89637" lon="4.60278">
        <ele>291</ele>
        <time>2018-08-16T10:26:35Z</time>
      </trkpt>
      <trkpt lat="45.89629" lon="4.6028">
        <ele>291</ele>
        <time>2018-08-16T10:26:36Z</time>
      </trkpt>
      <trkpt lat="45.8962" lon="4.60282">
        <ele>291</ele>
        <time>2018-08-16T10:26:37Z</time>
      </trkpt>
      <trkpt lat="45.89613" lon="4.60284">
        <ele>290</ele>
        <time>2018-08-16T10:26:38Z</time>
      </trkpt>
      <trkpt lat="45.89603" lon="4.60286">
        <ele>290</ele>
        <time>2018-08-16T10:26:39Z</time>
      </trkpt>
      <trkpt lat="45.89594" lon="4.60289">
        <ele>290</ele>
        <time>2018-08-16T10:26:40Z</time>
      </trkpt>
      <trkpt lat="45.89583" lon="4.6029">
        <ele>286</ele>
        <time>2018-08-16T10:26:41Z</time>
      </trkpt>
      <trkpt lat="45.89574" lon="4.60292">
        <ele>286</ele>
        <time>2018-08-16T10:26:42Z</time>
      </trkpt>
      <trkpt lat="45.89564" lon="4.60295">
        <ele>286</ele>
        <time>2018-08-16T10:26:43Z</time>
      </trkpt>
      <trkpt lat="45.89554" lon="4.60297">
        <ele>285</ele>
        <time>2018-08-16T10:26:44Z</time>
      </trkpt>
      <trkpt lat="45.89544" lon="4.60299">
        <ele>285</ele>
        <time>2018-08-16T10:26:45Z</time>
      </trkpt>
      <trkpt lat="45.89534" lon="4.60299">
        <ele>285</ele>
        <time>2018-08-16T10:26:46Z</time>
      </trkpt>
      <trkpt lat="45.89524" lon="4.603">
        <ele>284</ele>
        <time>2018-08-16T10:26:47Z</time>
      </trkpt>
      <trkpt lat="45.89513" lon="4.60299">
        <ele>284</ele>
        <time>2018-08-16T10:26:48Z</time>
      </trkpt>
      <trkpt lat="45.89503" lon="4.60298">
        <ele>284</ele>
        <time>2018-08-16T10:26:49Z</time>
      </trkpt>
      <trkpt lat="45.89492" lon="4.60298">
        <ele>281</ele>
        <time>2018-08-16T10:26:50Z</time>
      </trkpt>
      <trkpt lat="45.89482" lon="4.60297">
        <ele>280</ele>
        <time>2018-08-16T10:26:51Z</time>
      </trkpt>
      <trkpt lat="45.89472" lon="4.60295">
        <ele>280</ele>
        <time>2018-08-16T10:26:52Z</time>
      </trkpt>
      <trkpt lat="45.89463" lon="4.60293">
        <ele>280</ele>
        <time>2018-08-16T10:26:53Z</time>
      </trkpt>
      <trkpt lat="45.89454" lon="4.60291">
        <ele>280</ele>
        <time>2018-08-16T10:26:54Z</time>
      </trkpt>
      <trkpt lat="45.89444" lon="4.60291">
        <ele>280</ele>
        <time>2018-08-16T10:26:55Z</time>
      </trkpt>
      <trkpt lat="45.89434" lon="4.60291">
        <ele>279</ele>
        <time>2018-08-16T10:26:56Z</time>
      </trkpt>
      <trkpt lat="45.89424" lon="4.60291">
        <ele>279</ele>
        <time>2018-08-16T10:26:57Z</time>
      </trkpt>
      <trkpt lat="45.89413" lon="4.6029">
        <ele>276</ele>
        <time>2018-08-16T10:26:58Z</time>
      </trkpt>
      <trkpt lat="45.89404" lon="4.60289">
        <ele>276</ele>
        <time>2018-08-16T10:26:59Z</time>
      </trkpt>
      <trkpt lat="45.89394" lon="4.60288">
        <ele>276</ele>
        <time>2018-08-16T10:27:00Z</time>
      </trkpt>
      <trkpt lat="45.89384" lon="4.60286">
        <ele>275</ele>
        <time>2018-08-16T10:27:01Z</time>
      </trkpt>
      <trkpt lat="45.89373" lon="4.60286">
        <ele>275</ele>
        <time>2018-08-16T10:27:02Z</time>
      </trkpt>
      <trkpt lat="45.89363" lon="4.60284">
        <ele>275</ele>
        <time>2018-08-16T10:27:03Z</time>
      </trkpt>
      <trkpt lat="45.89354" lon="4.60284">
        <ele>274</ele>
        <time>2018-08-16T10:27:04Z</time>
      </trkpt>
      <trkpt lat="45.89344" lon="4.60283">
        <ele>274</ele>
        <time>2018-08-16T10:27:05Z</time>
      </trkpt>
      <trkpt lat="45.89336" lon="4.60281">
        <ele>274</ele>
        <time>2018-08-16T10:27:06Z</time>
      </trkpt>
      <trkpt lat="45.89328" lon="4.6028">
        <ele>269</ele>
        <time>2018-08-16T10:27:07Z</time>
      </trkpt>
      <trkpt lat="45.89318" lon="4.6028">
        <ele>268</ele>
        <time>2018-08-16T10:27:08Z</time>
      </trkpt>
      <trkpt lat="45.89309" lon="4.60281">
        <ele>268</ele>
        <time>2018-08-16T10:27:09Z</time>
      </trkpt>
      <trkpt lat="45.893" lon="4.60283">
        <ele>267</ele>
        <time>2018-08-16T10:27:10Z</time>
      </trkpt>
      <trkpt lat="45.8929" lon="4.60286">
        <ele>266</ele>
        <time>2018-08-16T10:27:11Z</time>
      </trkpt>
      <trkpt lat="45.89281" lon="4.60289">
        <ele>266</ele>
        <time>2018-08-16T10:27:12Z</time>
      </trkpt>
      <trkpt lat="45.89272" lon="4.60293">
        <ele>265</ele>
        <time>2018-08-16T10:27:13Z</time>
      </trkpt>
      <trkpt lat="45.89262" lon="4.60298">
        <ele>264</ele>
        <time>2018-08-16T10:27:14Z</time>
      </trkpt>
      <trkpt lat="45.89252" lon="4.60303">
        <ele>264</ele>
        <time>2018-08-16T10:27:15Z</time>
      </trkpt>
      <trkpt lat="45.89242" lon="4.60308">
        <ele>257</ele>
        <time>2018-08-16T10:27:16Z</time>
      </trkpt>
      <trkpt lat="45.89231" lon="4.60313">
        <ele>257</ele>
        <time>2018-08-16T10:27:17Z</time>
      </trkpt>
      <trkpt lat="45.89221" lon="4.60318">
        <ele>256</ele>
        <time>2018-08-16T10:27:18Z</time>
      </trkpt>
      <trkpt lat="45.89211" lon="4.60323">
        <ele>256</ele>
        <time>2018-08-16T10:27:19Z</time>
      </trkpt>
      <trkpt lat="45.89201" lon="4.60328">
        <ele>255</ele>
        <time>2018-08-16T10:27:20Z</time>
      </trkpt>
      <trkpt lat="45.89191" lon="4.60333">
        <ele>254</ele>
        <time>2018-08-16T10:27:21Z</time>
      </trkpt>
      <trkpt lat="45.89183" lon="4.60337">
        <ele>253</ele>
        <time>2018-08-16T10:27:22Z</time>
      </trkpt>
      <trkpt lat="45.89174" lon="4.60342">
        <ele>253</ele>
        <time>2018-08-16T10:27:23Z</time>
      </trkpt>
      <trkpt lat="45.89166" lon="4.60345">
        <ele>250</ele>
        <time>2018-08-16T10:27:24Z</time>
      </trkpt>
      <trkpt lat="45.89159" lon="4.60348">
        <ele>249</ele>
        <time>2018-08-16T10:27:25Z</time>
      </trkpt>
      <trkpt lat="45.89151" lon="4.60351">
        <ele>249</ele>
        <time>2018-08-16T10:27:26Z</time>
      </trkpt>
      <trkpt lat="45.89144" lon="4.60353">
        <ele>249</ele>
        <time>2018-08-16T10:27:27Z</time>
      </trkpt>
      <trkpt lat="45.89137" lon="4.60355">
        <ele>248</ele>
        <time>2018-08-16T10:27:28Z</time>
      </trkpt>
      <trkpt lat="45.89131" lon="4.60356">
        <ele>248</ele>
        <time>2018-08-16T10:27:29Z</time>
      </trkpt>
      <trkpt lat="45.89124" lon="4.60356">
        <ele>248</ele>
        <time>2018-08-16T10:27:31Z</time>
      </trkpt>
      <trkpt lat="45.89117" lon="4.60354">
        <ele>247</ele>
        <time>2018-08-16T10:27:32Z</time>
      </trkpt>
      <trkpt lat="45.89113" lon="4.60354">
        <ele>247</ele>
        <time>2018-08-16T10:27:33Z</time>
      </trkpt>
      <trkpt lat="45.89108" lon="4.60352">
        <ele>247</ele>
        <time>2018-08-16T10:27:34Z</time>
      </trkpt>
      <trkpt lat="45.89099" lon="4.6035">
        <ele>246</ele>
        <time>2018-08-16T10:27:37Z</time>
      </trkpt>
      <trkpt lat="45.89096" lon="4.6035">
        <ele>246</ele>
        <time>2018-08-16T10:27:38Z</time>
      </trkpt>
      <trkpt lat="45.89089" lon="4.60345">
        <ele>245</ele>
        <time>2018-08-16T10:27:42Z</time>
      </trkpt>
      <trkpt lat="45.89088" lon="4.60344">
        <ele>245</ele>
        <time>2018-08-16T10:27:43Z</time>
      </trkpt>
      <trkpt lat="45.89079" lon="4.60343">
        <ele>243</ele>
        <time>2018-08-16T10:27:53Z</time>
      </trkpt>
      <trkpt lat="45.89077" lon="4.60344">
        <ele>243</ele>
        <time>2018-08-16T10:27:54Z</time>
      </trkpt>
      <trkpt lat="45.89072" lon="4.6035">
        <ele>243</ele>
        <time>2018-08-16T10:27:57Z</time>
      </trkpt>
      <trkpt lat="45.8907" lon="4.60355">
        <ele>243</ele>
        <time>2018-08-16T10:27:58Z</time>
      </trkpt>
      <trkpt lat="45.89068" lon="4.60359">
        <ele>243</ele>
        <time>2018-08-16T10:27:59Z</time>
      </trkpt>
      <trkpt lat="45.89064" lon="4.6037">
        <ele>243</ele>
        <time>2018-08-16T10:28:00Z</time>
      </trkpt>
      <trkpt lat="45.89063" lon="4.60375">
        <ele>243</ele>
        <time>2018-08-16T10:28:01Z</time>
      </trkpt>
      <trkpt lat="45.89062" lon="4.60384">
        <ele>243</ele>
        <time>2018-08-16T10:28:02Z</time>
      </trkpt>
      <trkpt lat="45.8906" lon="4.6039">
        <ele>243</ele>
        <time>2018-08-16T10:28:03Z</time>
      </trkpt>
      <trkpt lat="45.89059" lon="4.60397">
        <ele>244</ele>
        <time>2018-08-16T10:28:04Z</time>
      </trkpt>
      <trkpt lat="45.89058" lon="4.60405">
        <ele>244</ele>
        <time>2018-08-16T10:28:05Z</time>
      </trkpt>
      <trkpt lat="45.89056" lon="4.60412">
        <ele>244</ele>
        <time>2018-08-16T10:28:06Z</time>
      </trkpt>
      <trkpt lat="45.89055" lon="4.6042">
        <ele>244</ele>
        <time>2018-08-16T10:28:07Z</time>
      </trkpt>
      <trkpt lat="45.89054" lon="4.60429">
        <ele>244</ele>
        <time>2018-08-16T10:28:08Z</time>
      </trkpt>
      <trkpt lat="45.89052" lon="4.60437">
        <ele>244</ele>
        <time>2018-08-16T10:28:09Z</time>
      </trkpt>
      <trkpt lat="45.8905" lon="4.60446">
        <ele>244</ele>
        <time>2018-08-16T10:28:10Z</time>
      </trkpt>
      <trkpt lat="45.89049" lon="4.60455">
        <ele>243</ele>
        <time>2018-08-16T10:28:11Z</time>
      </trkpt>
      <trkpt lat="45.89048" lon="4.60464">
        <ele>243</ele>
        <time>2018-08-16T10:28:12Z</time>
      </trkpt>
      <trkpt lat="45.89046" lon="4.60473">
        <ele>243</ele>
        <time>2018-08-16T10:28:13Z</time>
      </trkpt>
      <trkpt lat="45.89044" lon="4.60481">
        <ele>243</ele>
        <time>2018-08-16T10:28:14Z</time>
      </trkpt>
      <trkpt lat="45.89041" lon="4.60488">
        <ele>243</ele>
        <time>2018-08-16T10:28:15Z</time>
      </trkpt>
      <trkpt lat="45.89039" lon="4.605">
        <ele>241</ele>
        <time>2018-08-16T10:28:16Z</time>
      </trkpt>
      <trkpt lat="45.89037" lon="4.6051">
        <ele>241</ele>
        <time>2018-08-16T10:28:17Z</time>
      </trkpt>
      <trkpt lat="45.89033" lon="4.6052">
        <ele>241</ele>
        <time>2018-08-16T10:28:18Z</time>
      </trkpt>
      <trkpt lat="45.89031" lon="4.60532">
        <ele>241</ele>
        <time>2018-08-16T10:28:19Z</time>
      </trkpt>
      <trkpt lat="45.89029" lon="4.60542">
        <ele>241</ele>
        <time>2018-08-16T10:28:20Z</time>
      </trkpt>
      <trkpt lat="45.89026" lon="4.60553">
        <ele>241</ele>
        <time>2018-08-16T10:28:21Z</time>
      </trkpt>
      <trkpt lat="45.89024" lon="4.60562">
        <ele>240</ele>
        <time>2018-08-16T10:28:22Z</time>
      </trkpt>
      <trkpt lat="45.89021" lon="4.60573">
        <ele>240</ele>
        <time>2018-08-16T10:28:23Z</time>
      </trkpt>
      <trkpt lat="45.89018" lon="4.60583">
        <ele>240</ele>
        <time>2018-08-16T10:28:24Z</time>
      </trkpt>
      <trkpt lat="45.89015" lon="4.60593">
        <ele>239</ele>
        <time>2018-08-16T10:28:25Z</time>
      </trkpt>
      <trkpt lat="45.89012" lon="4.60603">
        <ele>239</ele>
        <time>2018-08-16T10:28:26Z</time>
      </trkpt>
      <trkpt lat="45.89008" lon="4.60611">
        <ele>239</ele>
        <time>2018-08-16T10:28:27Z</time>
      </trkpt>
      <trkpt lat="45.89004" lon="4.60624">
        <ele>239</ele>
        <time>2018-08-16T10:28:28Z</time>
      </trkpt>
      <trkpt lat="45.89001" lon="4.60634">
        <ele>239</ele>
        <time>2018-08-16T10:28:29Z</time>
      </trkpt>
      <trkpt lat="45.88997" lon="4.60645">
        <ele>237</ele>
        <time>2018-08-16T10:28:30Z</time>
      </trkpt>
      <trkpt lat="45.88995" lon="4.60656">
        <ele>237</ele>
        <time>2018-08-16T10:28:31Z</time>
      </trkpt>
      <trkpt lat="45.88993" lon="4.60671">
        <ele>238</ele>
        <time>2018-08-16T10:28:32Z</time>
      </trkpt>
      <trkpt lat="45.88989" lon="4.60681">
        <ele>237</ele>
        <time>2018-08-16T10:28:33Z</time>
      </trkpt>
      <trkpt lat="45.88986" lon="4.60691">
        <ele>236</ele>
        <time>2018-08-16T10:28:34Z</time>
      </trkpt>
      <trkpt lat="45.88982" lon="4.607">
        <ele>236</ele>
        <time>2018-08-16T10:28:35Z</time>
      </trkpt>
      <trkpt lat="45.88978" lon="4.60711">
        <ele>236</ele>
        <time>2018-08-16T10:28:36Z</time>
      </trkpt>
      <trkpt lat="45.88974" lon="4.60722">
        <ele>236</ele>
        <time>2018-08-16T10:28:37Z</time>
      </trkpt>
      <trkpt lat="45.8897" lon="4.60733">
        <ele>236</ele>
        <time>2018-08-16T10:28:38Z</time>
      </trkpt>
      <trkpt lat="45.88968" lon="4.60745">
        <ele>235</ele>
        <time>2018-08-16T10:28:39Z</time>
      </trkpt>
      <trkpt lat="45.88963" lon="4.60756">
        <ele>235</ele>
        <time>2018-08-16T10:28:40Z</time>
      </trkpt>
      <trkpt lat="45.8896" lon="4.60769">
        <ele>234</ele>
        <time>2018-08-16T10:28:41Z</time>
      </trkpt>
      <trkpt lat="45.88956" lon="4.60781">
        <ele>234</ele>
        <time>2018-08-16T10:28:42Z</time>
      </trkpt>
      <trkpt lat="45.88951" lon="4.60791">
        <ele>234</ele>
        <time>2018-08-16T10:28:43Z</time>
      </trkpt>
      <trkpt lat="45.88946" lon="4.60802">
        <ele>233</ele>
        <time>2018-08-16T10:28:44Z</time>
      </trkpt>
      <trkpt lat="45.88942" lon="4.60813">
        <ele>233</ele>
        <time>2018-08-16T10:28:45Z</time>
      </trkpt>
      <trkpt lat="45.88937" lon="4.60824">
        <ele>232</ele>
        <time>2018-08-16T10:28:46Z</time>
      </trkpt>
      <trkpt lat="45.88933" lon="4.60836">
        <ele>231</ele>
        <time>2018-08-16T10:28:47Z</time>
      </trkpt>
      <trkpt lat="45.88928" lon="4.60847">
        <ele>231</ele>
        <time>2018-08-16T10:28:48Z</time>
      </trkpt>
      <trkpt lat="45.88923" lon="4.60858">
        <ele>231</ele>
        <time>2018-08-16T10:28:49Z</time>
      </trkpt>
      <trkpt lat="45.88919" lon="4.60869">
        <ele>232</ele>
        <time>2018-08-16T10:28:50Z</time>
      </trkpt>
      <trkpt lat="45.88915" lon="4.60881">
        <ele>229</ele>
        <time>2018-08-16T10:28:51Z</time>
      </trkpt>
      <trkpt lat="45.88911" lon="4.60892">
        <ele>229</ele>
        <time>2018-08-16T10:28:52Z</time>
      </trkpt>
      <trkpt lat="45.88908" lon="4.60905">
        <ele>229</ele>
        <time>2018-08-16T10:28:53Z</time>
      </trkpt>
      <trkpt lat="45.88906" lon="4.60918">
        <ele>229</ele>
        <time>2018-08-16T10:28:54Z</time>
      </trkpt>
      <trkpt lat="45.88901" lon="4.60927">
        <ele>229</ele>
        <time>2018-08-16T10:28:55Z</time>
      </trkpt>
      <trkpt lat="45.88898" lon="4.60938">
        <ele>229</ele>
        <time>2018-08-16T10:28:56Z</time>
      </trkpt>
      <trkpt lat="45.88896" lon="4.6095">
        <ele>229</ele>
        <time>2018-08-16T10:28:57Z</time>
      </trkpt>
      <trkpt lat="45.88893" lon="4.60962">
        <ele>229</ele>
        <time>2018-08-16T10:28:58Z</time>
      </trkpt>
      <trkpt lat="45.88891" lon="4.60972">
        <ele>229</ele>
        <time>2018-08-16T10:28:59Z</time>
      </trkpt>
      <trkpt lat="45.88889" lon="4.60984">
        <ele>229</ele>
        <time>2018-08-16T10:29:00Z</time>
      </trkpt>
      <trkpt lat="45.88886" lon="4.60993">
        <ele>229</ele>
        <time>2018-08-16T10:29:01Z</time>
      </trkpt>
      <trkpt lat="45.88886" lon="4.61004">
        <ele>229</ele>
        <time>2018-08-16T10:29:02Z</time>
      </trkpt>
      <trkpt lat="45.88885" lon="4.61015">
        <ele>229</ele>
        <time>2018-08-16T10:29:03Z</time>
      </trkpt>
      <trkpt lat="45.88883" lon="4.61027">
        <ele>229</ele>
        <time>2018-08-16T10:29:04Z</time>
      </trkpt>
      <trkpt lat="45.88883" lon="4.61038">
        <ele>229</ele>
        <time>2018-08-16T10:29:05Z</time>
      </trkpt>
      <trkpt lat="45.88882" lon="4.61047">
        <ele>229</ele>
        <time>2018-08-16T10:29:06Z</time>
      </trkpt>
      <trkpt lat="45.88881" lon="4.61056">
        <ele>229</ele>
        <time>2018-08-16T10:29:07Z</time>
      </trkpt>
      <trkpt lat="45.88881" lon="4.61065">
        <ele>229</ele>
        <time>2018-08-16T10:29:08Z</time>
      </trkpt>
      <trkpt lat="45.88881" lon="4.61074">
        <ele>229</ele>
        <time>2018-08-16T10:29:09Z</time>
      </trkpt>
      <trkpt lat="45.88881" lon="4.61083">
        <ele>229</ele>
        <time>2018-08-16T10:29:10Z</time>
      </trkpt>
      <trkpt lat="45.88881" lon="4.61092">
        <ele>229</ele>
        <time>2018-08-16T10:29:11Z</time>
      </trkpt>
      <trkpt lat="45.88881" lon="4.61099">
        <ele>229</ele>
        <time>2018-08-16T10:29:12Z</time>
      </trkpt>
      <trkpt lat="45.88882" lon="4.61109">
        <ele>228</ele>
        <time>2018-08-16T10:29:13Z</time>
      </trkpt>
      <trkpt lat="45.88882" lon="4.61116">
        <ele>228</ele>
        <time>2018-08-16T10:29:14Z</time>
      </trkpt>
      <trkpt lat="45.88881" lon="4.61123">
        <ele>228</ele>
        <time>2018-08-16T10:29:15Z</time>
      </trkpt>
      <trkpt lat="45.88881" lon="4.61131">
        <ele>228</ele>
        <time>2018-08-16T10:29:16Z</time>
      </trkpt>
      <trkpt lat="45.88881" lon="4.61139">
        <ele>228</ele>
        <time>2018-08-16T10:29:17Z</time>
      </trkpt>
      <trkpt lat="45.88881" lon="4.61149">
        <ele>228</ele>
        <time>2018-08-16T10:29:18Z</time>
      </trkpt>
      <trkpt lat="45.88882" lon="4.61157">
        <ele>228</ele>
        <time>2018-08-16T10:29:19Z</time>
      </trkpt>
      <trkpt lat="45.88881" lon="4.61166">
        <ele>228</ele>
        <time>2018-08-16T10:29:20Z</time>
      </trkpt>
      <trkpt lat="45.88881" lon="4.61174">
        <ele>227</ele>
        <time>2018-08-16T10:29:21Z</time>
      </trkpt>
      <trkpt lat="45.88881" lon="4.61185">
        <ele>226</ele>
        <time>2018-08-16T10:29:22Z</time>
      </trkpt>
      <trkpt lat="45.8888" lon="4.61193">
        <ele>226</ele>
        <time>2018-08-16T10:29:23Z</time>
      </trkpt>
      <trkpt lat="45.88881" lon="4.61201">
        <ele>226</ele>
        <time>2018-08-16T10:29:24Z</time>
      </trkpt>
      <trkpt lat="45.8888" lon="4.61209">
        <ele>226</ele>
        <time>2018-08-16T10:29:25Z</time>
      </trkpt>
      <trkpt lat="45.88881" lon="4.61217">
        <ele>226</ele>
        <time>2018-08-16T10:29:26Z</time>
      </trkpt>
      <trkpt lat="45.88882" lon="4.61227">
        <ele>226</ele>
        <time>2018-08-16T10:29:27Z</time>
      </trkpt>
      <trkpt lat="45.8888" lon="4.61235">
        <ele>226</ele>
        <time>2018-08-16T10:29:28Z</time>
      </trkpt>
      <trkpt lat="45.8888" lon="4.61243">
        <ele>226</ele>
        <time>2018-08-16T10:29:29Z</time>
      </trkpt>
      <trkpt lat="45.88879" lon="4.61254">
        <ele>226</ele>
        <time>2018-08-16T10:29:30Z</time>
      </trkpt>
      <trkpt lat="45.88877" lon="4.6126">
        <ele>226</ele>
        <time>2018-08-16T10:29:31Z</time>
      </trkpt>
      <trkpt lat="45.88877" lon="4.61269">
        <ele>226</ele>
        <time>2018-08-16T10:29:32Z</time>
      </trkpt>
      <trkpt lat="45.88875" lon="4.61281">
        <ele>226</ele>
        <time>2018-08-16T10:29:34Z</time>
      </trkpt>
      <trkpt lat="45.88875" lon="4.61288">
        <ele>226</ele>
        <time>2018-08-16T10:29:35Z</time>
      </trkpt>
      <trkpt lat="45.88873" lon="4.613">
        <ele>226</ele>
        <time>2018-08-16T10:29:37Z</time>
      </trkpt>
      <trkpt lat="45.88871" lon="4.61307">
        <ele>226</ele>
        <time>2018-08-16T10:29:38Z</time>
      </trkpt>
      <trkpt lat="45.88869" lon="4.61312">
        <ele>226</ele>
        <time>2018-08-16T10:29:39Z</time>
      </trkpt>
      <trkpt lat="45.88868" lon="4.6132">
        <ele>226</ele>
        <time>2018-08-16T10:29:40Z</time>
      </trkpt>
      <trkpt lat="45.88867" lon="4.61328">
        <ele>226</ele>
        <time>2018-08-16T10:29:41Z</time>
      </trkpt>
      <trkpt lat="45.88866" lon="4.61336">
        <ele>227</ele>
        <time>2018-08-16T10:29:42Z</time>
      </trkpt>
      <trkpt lat="45.88865" lon="4.61344">
        <ele>226</ele>
        <time>2018-08-16T10:29:43Z</time>
      </trkpt>
      <trkpt lat="45.88863" lon="4.61354">
        <ele>226</ele>
        <time>2018-08-16T10:29:44Z</time>
      </trkpt>
      <trkpt lat="45.88861" lon="4.61363">
        <ele>226</ele>
        <time>2018-08-16T10:29:45Z</time>
      </trkpt>
      <trkpt lat="45.88859" lon="4.61373">
        <ele>226</ele>
        <time>2018-08-16T10:29:46Z</time>
      </trkpt>
      <trkpt lat="45.88858" lon="4.61382">
        <ele>226</ele>
        <time>2018-08-16T10:29:47Z</time>
      </trkpt>
      <trkpt lat="45.88856" lon="4.6139">
        <ele>226</ele>
        <time>2018-08-16T10:29:48Z</time>
      </trkpt>
      <trkpt lat="45.88855" lon="4.614">
        <ele>226</ele>
        <time>2018-08-16T10:29:49Z</time>
      </trkpt>
      <trkpt lat="45.88853" lon="4.61408">
        <ele>226</ele>
        <time>2018-08-16T10:29:50Z</time>
      </trkpt>
      <trkpt lat="45.8885" lon="4.61416">
        <ele>225</ele>
        <time>2018-08-16T10:29:51Z</time>
      </trkpt>
      <trkpt lat="45.88848" lon="4.61425">
        <ele>226</ele>
        <time>2018-08-16T10:29:52Z</time>
      </trkpt>
      <trkpt lat="45.88847" lon="4.61435">
        <ele>226</ele>
        <time>2018-08-16T10:29:53Z</time>
      </trkpt>
      <trkpt lat="45.88845" lon="4.61442">
        <ele>226</ele>
        <time>2018-08-16T10:29:54Z</time>
      </trkpt>
      <trkpt lat="45.88842" lon="4.6145">
        <ele>226</ele>
        <time>2018-08-16T10:29:55Z</time>
      </trkpt>
      <trkpt lat="45.8884" lon="4.6146">
        <ele>226</ele>
        <time>2018-08-16T10:29:56Z</time>
      </trkpt>
      <trkpt lat="45.88837" lon="4.61468">
        <ele>226</ele>
        <time>2018-08-16T10:29:57Z</time>
      </trkpt>
      <trkpt lat="45.88834" lon="4.61475">
        <ele>225</ele>
        <time>2018-08-16T10:29:58Z</time>
      </trkpt>
      <trkpt lat="45.88832" lon="4.61485">
        <ele>223</ele>
        <time>2018-08-16T10:29:59Z</time>
      </trkpt>
      <trkpt lat="45.88829" lon="4.61493">
        <ele>223</ele>
        <time>2018-08-16T10:30:00Z</time>
      </trkpt>
      <trkpt lat="45.88827" lon="4.615">
        <ele>223</ele>
        <time>2018-08-16T10:30:01Z</time>
      </trkpt>
      <trkpt lat="45.88824" lon="4.61509">
        <ele>223</ele>
        <time>2018-08-16T10:30:02Z</time>
      </trkpt>
      <trkpt lat="45.88822" lon="4.61518">
        <ele>223</ele>
        <time>2018-08-16T10:30:03Z</time>
      </trkpt>
      <trkpt lat="45.88818" lon="4.61525">
        <ele>223</ele>
        <time>2018-08-16T10:30:04Z</time>
      </trkpt>
      <trkpt lat="45.88814" lon="4.61533">
        <ele>223</ele>
        <time>2018-08-16T10:30:05Z</time>
      </trkpt>
      <trkpt lat="45.88813" lon="4.61544">
        <ele>223</ele>
        <time>2018-08-16T10:30:06Z</time>
      </trkpt>
      <trkpt lat="45.8881" lon="4.61552">
        <ele>223</ele>
        <time>2018-08-16T10:30:07Z</time>
      </trkpt>
      <trkpt lat="45.88807" lon="4.61561">
        <ele>223</ele>
        <time>2018-08-16T10:30:08Z</time>
      </trkpt>
      <trkpt lat="45.88805" lon="4.61569">
        <ele>223</ele>
        <time>2018-08-16T10:30:09Z</time>
      </trkpt>
      <trkpt lat="45.88802" lon="4.61577">
        <ele>223</ele>
        <time>2018-08-16T10:30:10Z</time>
      </trkpt>
      <trkpt lat="45.88799" lon="4.61584">
        <ele>224</ele>
        <time>2018-08-16T10:30:11Z</time>
      </trkpt>
      <trkpt lat="45.88795" lon="4.61593">
        <ele>224</ele>
        <time>2018-08-16T10:30:12Z</time>
      </trkpt>
      <trkpt lat="45.88792" lon="4.61601">
        <ele>224</ele>
        <time>2018-08-16T10:30:13Z</time>
      </trkpt>
      <trkpt lat="45.88788" lon="4.61608">
        <ele>224</ele>
        <time>2018-08-16T10:30:14Z</time>
      </trkpt>
      <trkpt lat="45.88785" lon="4.61617">
        <ele>224</ele>
        <time>2018-08-16T10:30:15Z</time>
      </trkpt>
      <trkpt lat="45.88782" lon="4.61626">
        <ele>224</ele>
        <time>2018-08-16T10:30:16Z</time>
      </trkpt>
      <trkpt lat="45.8878" lon="4.61636">
        <ele>224</ele>
        <time>2018-08-16T10:30:17Z</time>
      </trkpt>
      <trkpt lat="45.88777" lon="4.61643">
        <ele>224</ele>
        <time>2018-08-16T10:30:18Z</time>
      </trkpt>
      <trkpt lat="45.88774" lon="4.61651">
        <ele>224</ele>
        <time>2018-08-16T10:30:19Z</time>
      </trkpt>
      <trkpt lat="45.88774" lon="4.61664">
        <ele>224</ele>
        <time>2018-08-16T10:30:20Z</time>
      </trkpt>
      <trkpt lat="45.8877" lon="4.61672">
        <ele>224</ele>
        <time>2018-08-16T10:30:21Z</time>
      </trkpt>
      <trkpt lat="45.88768" lon="4.6168">
        <ele>224</ele>
        <time>2018-08-16T10:30:22Z</time>
      </trkpt>
      <trkpt lat="45.88766" lon="4.61687">
        <ele>224</ele>
        <time>2018-08-16T10:30:23Z</time>
      </trkpt>
      <trkpt lat="45.88762" lon="4.61696">
        <ele>224</ele>
        <time>2018-08-16T10:30:24Z</time>
      </trkpt>
      <trkpt lat="45.88759" lon="4.61705">
        <ele>224</ele>
        <time>2018-08-16T10:30:25Z</time>
      </trkpt>
      <trkpt lat="45.88756" lon="4.61714">
        <ele>223</ele>
        <time>2018-08-16T10:30:26Z</time>
      </trkpt>
      <trkpt lat="45.88753" lon="4.61722">
        <ele>223</ele>
        <time>2018-08-16T10:30:27Z</time>
      </trkpt>
      <trkpt lat="45.88751" lon="4.6173">
        <ele>223</ele>
        <time>2018-08-16T10:30:28Z</time>
      </trkpt>
      <trkpt lat="45.88748" lon="4.61738">
        <ele>222</ele>
        <time>2018-08-16T10:30:29Z</time>
      </trkpt>
      <trkpt lat="45.88745" lon="4.61746">
        <ele>222</ele>
        <time>2018-08-16T10:30:30Z</time>
      </trkpt>
      <trkpt lat="45.88742" lon="4.61751">
        <ele>222</ele>
        <time>2018-08-16T10:30:31Z</time>
      </trkpt>
      <trkpt lat="45.88739" lon="4.61759">
        <ele>222</ele>
        <time>2018-08-16T10:30:32Z</time>
      </trkpt>
      <trkpt lat="45.88737" lon="4.61766">
        <ele>222</ele>
        <time>2018-08-16T10:30:33Z</time>
      </trkpt>
      <trkpt lat="45.88735" lon="4.61774">
        <ele>222</ele>
        <time>2018-08-16T10:30:34Z</time>
      </trkpt>
      <trkpt lat="45.88732" lon="4.61781">
        <ele>222</ele>
        <time>2018-08-16T10:30:35Z</time>
      </trkpt>
      <trkpt lat="45.88734" lon="4.61792">
        <ele>222</ele>
        <time>2018-08-16T10:30:36Z</time>
      </trkpt>
      <trkpt lat="45.88732" lon="4.61799">
        <ele>222</ele>
        <time>2018-08-16T10:30:37Z</time>
      </trkpt>
      <trkpt lat="45.8873" lon="4.61807">
        <ele>222</ele>
        <time>2018-08-16T10:30:38Z</time>
      </trkpt>
      <trkpt lat="45.88728" lon="4.61815">
        <ele>222</ele>
        <time>2018-08-16T10:30:39Z</time>
      </trkpt>
      <trkpt lat="45.88724" lon="4.61822">
        <ele>222</ele>
        <time>2018-08-16T10:30:40Z</time>
      </trkpt>
      <trkpt lat="45.88719" lon="4.61826">
        <ele>222</ele>
        <time>2018-08-16T10:30:41Z</time>
      </trkpt>
      <trkpt lat="45.88717" lon="4.61834">
        <ele>222</ele>
        <time>2018-08-16T10:30:42Z</time>
      </trkpt>
      <trkpt lat="45.88712" lon="4.61839">
        <ele>222</ele>
        <time>2018-08-16T10:30:43Z</time>
      </trkpt>
      <trkpt lat="45.88709" lon="4.61846">
        <ele>222</ele>
        <time>2018-08-16T10:30:44Z</time>
      </trkpt>
      <trkpt lat="45.88706" lon="4.61854">
        <ele>222</ele>
        <time>2018-08-16T10:30:45Z</time>
      </trkpt>
      <trkpt lat="45.88704" lon="4.61862">
        <ele>222</ele>
        <time>2018-08-16T10:30:46Z</time>
      </trkpt>
      <trkpt lat="45.88701" lon="4.61869">
        <ele>222</ele>
        <time>2018-08-16T10:30:47Z</time>
      </trkpt>
      <trkpt lat="45.88698" lon="4.61875">
        <ele>222</ele>
        <time>2018-08-16T10:30:48Z</time>
      </trkpt>
      <trkpt lat="45.88694" lon="4.61882">
        <ele>222</ele>
        <time>2018-08-16T10:30:49Z</time>
      </trkpt>
      <trkpt lat="45.88692" lon="4.61889">
        <ele>222</ele>
        <time>2018-08-16T10:30:50Z</time>
      </trkpt>
      <trkpt lat="45.88691" lon="4.61901">
        <ele>222</ele>
        <time>2018-08-16T10:30:51Z</time>
      </trkpt>
      <trkpt lat="45.88688" lon="4.61911">
        <ele>222</ele>
        <time>2018-08-16T10:30:52Z</time>
      </trkpt>
      <trkpt lat="45.88686" lon="4.61918">
        <ele>222</ele>
        <time>2018-08-16T10:30:53Z</time>
      </trkpt>
      <trkpt lat="45.88683" lon="4.61925">
        <ele>222</ele>
        <time>2018-08-16T10:30:54Z</time>
      </trkpt>
      <trkpt lat="45.88681" lon="4.61934">
        <ele>222</ele>
        <time>2018-08-16T10:30:55Z</time>
      </trkpt>
      <trkpt lat="45.88678" lon="4.61942">
        <ele>223</ele>
        <time>2018-08-16T10:30:56Z</time>
      </trkpt>
      <trkpt lat="45.88676" lon="4.61951">
        <ele>223</ele>
        <time>2018-08-16T10:30:57Z</time>
      </trkpt>
      <trkpt lat="45.88673" lon="4.61959">
        <ele>223</ele>
        <time>2018-08-16T10:30:58Z</time>
      </trkpt>
      <trkpt lat="45.88671" lon="4.61967">
        <ele>223</ele>
        <time>2018-08-16T10:30:59Z</time>
      </trkpt>
      <trkpt lat="45.88668" lon="4.61975">
        <ele>223</ele>
        <time>2018-08-16T10:31:00Z</time>
      </trkpt>
      <trkpt lat="45.88666" lon="4.61983">
        <ele>222</ele>
        <time>2018-08-16T10:31:01Z</time>
      </trkpt>
      <trkpt lat="45.88664" lon="4.61993">
        <ele>222</ele>
        <time>2018-08-16T10:31:02Z</time>
      </trkpt>
      <trkpt lat="45.88662" lon="4.62">
        <ele>222</ele>
        <time>2018-08-16T10:31:03Z</time>
      </trkpt>
      <trkpt lat="45.8866" lon="4.62008">
        <ele>222</ele>
        <time>2018-08-16T10:31:04Z</time>
      </trkpt>
      <trkpt lat="45.88658" lon="4.62016">
        <ele>222</ele>
        <time>2018-08-16T10:31:05Z</time>
      </trkpt>
      <trkpt lat="45.88655" lon="4.62024">
        <ele>223</ele>
        <time>2018-08-16T10:31:06Z</time>
      </trkpt>
      <trkpt lat="45.88653" lon="4.6203">
        <ele>223</ele>
        <time>2018-08-16T10:31:07Z</time>
      </trkpt>
      <trkpt lat="45.8865" lon="4.62037">
        <ele>223</ele>
        <time>2018-08-16T10:31:08Z</time>
      </trkpt>
      <trkpt lat="45.88648" lon="4.62043">
        <ele>223</ele>
        <time>2018-08-16T10:31:09Z</time>
      </trkpt>
      <trkpt lat="45.88646" lon="4.62049">
        <ele>223</ele>
        <time>2018-08-16T10:31:10Z</time>
      </trkpt>
      <trkpt lat="45.88644" lon="4.62056">
        <ele>223</ele>
        <time>2018-08-16T10:31:11Z</time>
      </trkpt>
      <trkpt lat="45.88642" lon="4.62063">
        <ele>223</ele>
        <time>2018-08-16T10:31:12Z</time>
      </trkpt>
      <trkpt lat="45.88641" lon="4.62069">
        <ele>223</ele>
        <time>2018-08-16T10:31:13Z</time>
      </trkpt>
      <trkpt lat="45.88638" lon="4.62076">
        <ele>223</ele>
        <time>2018-08-16T10:31:14Z</time>
      </trkpt>
      <trkpt lat="45.88636" lon="4.62083">
        <ele>223</ele>
        <time>2018-08-16T10:31:15Z</time>
      </trkpt>
      <trkpt lat="45.88634" lon="4.6209">
        <ele>223</ele>
        <time>2018-08-16T10:31:16Z</time>
      </trkpt>
      <trkpt lat="45.88632" lon="4.62097">
        <ele>223</ele>
        <time>2018-08-16T10:31:17Z</time>
      </trkpt>
      <trkpt lat="45.8863" lon="4.62102">
        <ele>223</ele>
        <time>2018-08-16T10:31:18Z</time>
      </trkpt>
      <trkpt lat="45.88627" lon="4.62108">
        <ele>223</ele>
        <time>2018-08-16T10:31:19Z</time>
      </trkpt>
      <trkpt lat="45.88625" lon="4.62114">
        <ele>223</ele>
        <time>2018-08-16T10:31:20Z</time>
      </trkpt>
      <trkpt lat="45.88622" lon="4.62119">
        <ele>223</ele>
        <time>2018-08-16T10:31:21Z</time>
      </trkpt>
      <trkpt lat="45.88619" lon="4.62125">
        <ele>223</ele>
        <time>2018-08-16T10:31:22Z</time>
      </trkpt>
      <trkpt lat="45.88617" lon="4.62132">
        <ele>223</ele>
        <time>2018-08-16T10:31:23Z</time>
      </trkpt>
      <trkpt lat="45.88615" lon="4.62138">
        <ele>223</ele>
        <time>2018-08-16T10:31:24Z</time>
      </trkpt>
      <trkpt lat="45.88612" lon="4.62144">
        <ele>223</ele>
        <time>2018-08-16T10:31:25Z</time>
      </trkpt>
      <trkpt lat="45.8861" lon="4.6215">
        <ele>223</ele>
        <time>2018-08-16T10:31:26Z</time>
      </trkpt>
      <trkpt lat="45.88605" lon="4.62152">
        <ele>222</ele>
        <time>2018-08-16T10:31:27Z</time>
      </trkpt>
      <trkpt lat="45.88606" lon="4.62166">
        <ele>222</ele>
        <time>2018-08-16T10:31:28Z</time>
      </trkpt>
      <trkpt lat="45.88605" lon="4.62172">
        <ele>222</ele>
        <time>2018-08-16T10:31:29Z</time>
      </trkpt>
      <trkpt lat="45.88603" lon="4.62178">
        <ele>222</ele>
        <time>2018-08-16T10:31:30Z</time>
      </trkpt>
      <trkpt lat="45.886" lon="4.62183">
        <ele>222</ele>
        <time>2018-08-16T10:31:31Z</time>
      </trkpt>
      <trkpt lat="45.88598" lon="4.6219">
        <ele>222</ele>
        <time>2018-08-16T10:31:32Z</time>
      </trkpt>
      <trkpt lat="45.88595" lon="4.62197">
        <ele>222</ele>
        <time>2018-08-16T10:31:33Z</time>
      </trkpt>
      <trkpt lat="45.88591" lon="4.62201">
        <ele>222</ele>
        <time>2018-08-16T10:31:34Z</time>
      </trkpt>
      <trkpt lat="45.88588" lon="4.62208">
        <ele>222</ele>
        <time>2018-08-16T10:31:35Z</time>
      </trkpt>
      <trkpt lat="45.88585" lon="4.62214">
        <ele>222</ele>
        <time>2018-08-16T10:31:36Z</time>
      </trkpt>
      <trkpt lat="45.88582" lon="4.62221">
        <ele>221</ele>
        <time>2018-08-16T10:31:37Z</time>
      </trkpt>
      <trkpt lat="45.88578" lon="4.62226">
        <ele>221</ele>
        <time>2018-08-16T10:31:38Z</time>
      </trkpt>
      <trkpt lat="45.88575" lon="4.62231">
        <ele>221</ele>
        <time>2018-08-16T10:31:39Z</time>
      </trkpt>
      <trkpt lat="45.88576" lon="4.62243">
        <ele>222</ele>
        <time>2018-08-16T10:31:40Z</time>
      </trkpt>
      <trkpt lat="45.88574" lon="4.62249">
        <ele>222</ele>
        <time>2018-08-16T10:31:41Z</time>
      </trkpt>
      <trkpt lat="45.88571" lon="4.62255">
        <ele>221</ele>
        <time>2018-08-16T10:31:42Z</time>
      </trkpt>
      <trkpt lat="45.88566" lon="4.62257">
        <ele>221</ele>
        <time>2018-08-16T10:31:43Z</time>
      </trkpt>
      <trkpt lat="45.88562" lon="4.62262">
        <ele>221</ele>
        <time>2018-08-16T10:31:44Z</time>
      </trkpt>
      <trkpt lat="45.88561" lon="4.6227">
        <ele>221</ele>
        <time>2018-08-16T10:31:45Z</time>
      </trkpt>
      <trkpt lat="45.88558" lon="4.62276">
        <ele>221</ele>
        <time>2018-08-16T10:31:46Z</time>
      </trkpt>
      <trkpt lat="45.88556" lon="4.62283">
        <ele>221</ele>
        <time>2018-08-16T10:31:47Z</time>
      </trkpt>
      <trkpt lat="45.88552" lon="4.6229">
        <ele>221</ele>
        <time>2018-08-16T10:31:48Z</time>
      </trkpt>
      <trkpt lat="45.88551" lon="4.62305">
        <ele>221</ele>
        <time>2018-08-16T10:31:49Z</time>
      </trkpt>
      <trkpt lat="45.88548" lon="4.62313">
        <ele>221</ele>
        <time>2018-08-16T10:31:50Z</time>
      </trkpt>
      <trkpt lat="45.88545" lon="4.62319">
        <ele>221</ele>
        <time>2018-08-16T10:31:51Z</time>
      </trkpt>
      <trkpt lat="45.88542" lon="4.62323">
        <ele>221</ele>
        <time>2018-08-16T10:31:52Z</time>
      </trkpt>
      <trkpt lat="45.88539" lon="4.6233">
        <ele>221</ele>
        <time>2018-08-16T10:31:53Z</time>
      </trkpt>
      <trkpt lat="45.88536" lon="4.62338">
        <ele>220</ele>
        <time>2018-08-16T10:31:54Z</time>
      </trkpt>
      <trkpt lat="45.88531" lon="4.62341">
        <ele>220</ele>
        <time>2018-08-16T10:31:55Z</time>
      </trkpt>
      <trkpt lat="45.88531" lon="4.62352">
        <ele>220</ele>
        <time>2018-08-16T10:31:56Z</time>
      </trkpt>
      <trkpt lat="45.88529" lon="4.62359">
        <ele>220</ele>
        <time>2018-08-16T10:31:57Z</time>
      </trkpt>
      <trkpt lat="45.88526" lon="4.62365">
        <ele>220</ele>
        <time>2018-08-16T10:31:58Z</time>
      </trkpt>
      <trkpt lat="45.88522" lon="4.62372">
        <ele>220</ele>
        <time>2018-08-16T10:31:59Z</time>
      </trkpt>
      <trkpt lat="45.88519" lon="4.62376">
        <ele>220</ele>
        <time>2018-08-16T10:32:00Z</time>
      </trkpt>
      <trkpt lat="45.88513" lon="4.62378">
        <ele>220</ele>
        <time>2018-08-16T10:32:01Z</time>
      </trkpt>
      <trkpt lat="45.8851" lon="4.62385">
        <ele>220</ele>
        <time>2018-08-16T10:32:02Z</time>
      </trkpt>
      <trkpt lat="45.88506" lon="4.62391">
        <ele>220</ele>
        <time>2018-08-16T10:32:03Z</time>
      </trkpt>
      <trkpt lat="45.88504" lon="4.62398">
        <ele>220</ele>
        <time>2018-08-16T10:32:04Z</time>
      </trkpt>
      <trkpt lat="45.88501" lon="4.62403">
        <ele>220</ele>
        <time>2018-08-16T10:32:05Z</time>
      </trkpt>
      <trkpt lat="45.885" lon="4.62416">
        <ele>220</ele>
        <time>2018-08-16T10:32:06Z</time>
      </trkpt>
      <trkpt lat="45.88497" lon="4.62422">
        <ele>220</ele>
        <time>2018-08-16T10:32:07Z</time>
      </trkpt>
      <trkpt lat="45.88495" lon="4.62429">
        <ele>219</ele>
        <time>2018-08-16T10:32:08Z</time>
      </trkpt>
      <trkpt lat="45.88494" lon="4.6244">
        <ele>219</ele>
        <time>2018-08-16T10:32:09Z</time>
      </trkpt>
      <trkpt lat="45.8849" lon="4.62446">
        <ele>219</ele>
        <time>2018-08-16T10:32:10Z</time>
      </trkpt>
      <trkpt lat="45.88489" lon="4.62452">
        <ele>219</ele>
        <time>2018-08-16T10:32:11Z</time>
      </trkpt>
      <trkpt lat="45.88486" lon="4.62457">
        <ele>219</ele>
        <time>2018-08-16T10:32:12Z</time>
      </trkpt>
      <trkpt lat="45.88484" lon="4.62463">
        <ele>219</ele>
        <time>2018-08-16T10:32:13Z</time>
      </trkpt>
      <trkpt lat="45.88481" lon="4.62469">
        <ele>219</ele>
        <time>2018-08-16T10:32:14Z</time>
      </trkpt>
      <trkpt lat="45.88475" lon="4.6247">
        <ele>219</ele>
        <time>2018-08-16T10:32:15Z</time>
      </trkpt>
      <trkpt lat="45.88474" lon="4.62478">
        <ele>219</ele>
        <time>2018-08-16T10:32:16Z</time>
      </trkpt>
      <trkpt lat="45.88472" lon="4.62486">
        <ele>219</ele>
        <time>2018-08-16T10:32:17Z</time>
      </trkpt>
      <trkpt lat="45.88469" lon="4.62493">
        <ele>219</ele>
        <time>2018-08-16T10:32:18Z</time>
      </trkpt>
      <trkpt lat="45.88468" lon="4.62503">
        <ele>219</ele>
        <time>2018-08-16T10:32:19Z</time>
      </trkpt>
      <trkpt lat="45.88467" lon="4.62513">
        <ele>219</ele>
        <time>2018-08-16T10:32:20Z</time>
      </trkpt>
      <trkpt lat="45.88465" lon="4.6252">
        <ele>219</ele>
        <time>2018-08-16T10:32:21Z</time>
      </trkpt>
      <trkpt lat="45.88461" lon="4.62525">
        <ele>219</ele>
        <time>2018-08-16T10:32:22Z</time>
      </trkpt>
      <trkpt lat="45.88458" lon="4.62533">
        <ele>219</ele>
        <time>2018-08-16T10:32:23Z</time>
      </trkpt>
      <trkpt lat="45.88454" lon="4.62535">
        <ele>219</ele>
        <time>2018-08-16T10:32:24Z</time>
      </trkpt>
      <trkpt lat="45.88452" lon="4.62544">
        <ele>218</ele>
        <time>2018-08-16T10:32:25Z</time>
      </trkpt>
      <trkpt lat="45.88449" lon="4.62551">
        <ele>218</ele>
        <time>2018-08-16T10:32:26Z</time>
      </trkpt>
      <trkpt lat="45.88447" lon="4.62558">
        <ele>218</ele>
        <time>2018-08-16T10:32:27Z</time>
      </trkpt>
      <trkpt lat="45.88445" lon="4.62568">
        <ele>218</ele>
        <time>2018-08-16T10:32:28Z</time>
      </trkpt>
      <trkpt lat="45.88442" lon="4.62574">
        <ele>218</ele>
        <time>2018-08-16T10:32:29Z</time>
      </trkpt>
      <trkpt lat="45.8844" lon="4.6258">
        <ele>218</ele>
        <time>2018-08-16T10:32:30Z</time>
      </trkpt>
      <trkpt lat="45.88437" lon="4.62587">
        <ele>218</ele>
        <time>2018-08-16T10:32:31Z</time>
      </trkpt>
      <trkpt lat="45.88436" lon="4.62595">
        <ele>218</ele>
        <time>2018-08-16T10:32:32Z</time>
      </trkpt>
      <trkpt lat="45.88433" lon="4.62603">
        <ele>218</ele>
        <time>2018-08-16T10:32:33Z</time>
      </trkpt>
      <trkpt lat="45.88431" lon="4.6261">
        <ele>218</ele>
        <time>2018-08-16T10:32:34Z</time>
      </trkpt>
      <trkpt lat="45.88428" lon="4.62616">
        <ele>218</ele>
        <time>2018-08-16T10:32:35Z</time>
      </trkpt>
      <trkpt lat="45.88426" lon="4.62624">
        <ele>218</ele>
        <time>2018-08-16T10:32:36Z</time>
      </trkpt>
      <trkpt lat="45.88423" lon="4.62631">
        <ele>219</ele>
        <time>2018-08-16T10:32:37Z</time>
      </trkpt>
      <trkpt lat="45.88418" lon="4.62636">
        <ele>219</ele>
        <time>2018-08-16T10:32:38Z</time>
      </trkpt>
      <trkpt lat="45.88415" lon="4.62643">
        <ele>218</ele>
        <time>2018-08-16T10:32:39Z</time>
      </trkpt>
      <trkpt lat="45.88413" lon="4.6265">
        <ele>218</ele>
        <time>2018-08-16T10:32:40Z</time>
      </trkpt>
      <trkpt lat="45.8841" lon="4.62657">
        <ele>218</ele>
        <time>2018-08-16T10:32:41Z</time>
      </trkpt>
      <trkpt lat="45.88408" lon="4.62665">
        <ele>218</ele>
        <time>2018-08-16T10:32:42Z</time>
      </trkpt>
      <trkpt lat="45.88406" lon="4.62673">
        <ele>218</ele>
        <time>2018-08-16T10:32:43Z</time>
      </trkpt>
      <trkpt lat="45.88406" lon="4.62682">
        <ele>218</ele>
        <time>2018-08-16T10:32:44Z</time>
      </trkpt>
      <trkpt lat="45.88403" lon="4.62688">
        <ele>218</ele>
        <time>2018-08-16T10:32:45Z</time>
      </trkpt>
      <trkpt lat="45.884" lon="4.62696">
        <ele>218</ele>
        <time>2018-08-16T10:32:46Z</time>
      </trkpt>
      <trkpt lat="45.88398" lon="4.62702">
        <ele>218</ele>
        <time>2018-08-16T10:32:47Z</time>
      </trkpt>
      <trkpt lat="45.88395" lon="4.62708">
        <ele>218</ele>
        <time>2018-08-16T10:32:48Z</time>
      </trkpt>
      <trkpt lat="45.88393" lon="4.62719">
        <ele>218</ele>
        <time>2018-08-16T10:32:49Z</time>
      </trkpt>
      <trkpt lat="45.8839" lon="4.62726">
        <ele>218</ele>
        <time>2018-08-16T10:32:50Z</time>
      </trkpt>
      <trkpt lat="45.88386" lon="4.62731">
        <ele>218</ele>
        <time>2018-08-16T10:32:51Z</time>
      </trkpt>
      <trkpt lat="45.88382" lon="4.62737">
        <ele>218</ele>
        <time>2018-08-16T10:32:52Z</time>
      </trkpt>
      <trkpt lat="45.88379" lon="4.62745">
        <ele>218</ele>
        <time>2018-08-16T10:32:53Z</time>
      </trkpt>
      <trkpt lat="45.88376" lon="4.62752">
        <ele>218</ele>
        <time>2018-08-16T10:32:54Z</time>
      </trkpt>
      <trkpt lat="45.88371" lon="4.62759">
        <ele>218</ele>
        <time>2018-08-16T10:32:55Z</time>
      </trkpt>
      <trkpt lat="45.88368" lon="4.62765">
        <ele>218</ele>
        <time>2018-08-16T10:32:56Z</time>
      </trkpt>
      <trkpt lat="45.88364" lon="4.62771">
        <ele>218</ele>
        <time>2018-08-16T10:32:57Z</time>
      </trkpt>
      <trkpt lat="45.8836" lon="4.62778">
        <ele>218</ele>
        <time>2018-08-16T10:32:58Z</time>
      </trkpt>
      <trkpt lat="45.88358" lon="4.62787">
        <ele>218</ele>
        <time>2018-08-16T10:32:59Z</time>
      </trkpt>
      <trkpt lat="45.88355" lon="4.62794">
        <ele>218</ele>
        <time>2018-08-16T10:33:00Z</time>
      </trkpt>
      <trkpt lat="45.88351" lon="4.62801">
        <ele>218</ele>
        <time>2018-08-16T10:33:01Z</time>
      </trkpt>
      <trkpt lat="45.88347" lon="4.62807">
        <ele>218</ele>
        <time>2018-08-16T10:33:02Z</time>
      </trkpt>
      <trkpt lat="45.88345" lon="4.62814">
        <ele>218</ele>
        <time>2018-08-16T10:33:03Z</time>
      </trkpt>
      <trkpt lat="45.8834" lon="4.62819">
        <ele>218</ele>
        <time>2018-08-16T10:33:04Z</time>
      </trkpt>
      <trkpt lat="45.88337" lon="4.62825">
        <ele>219</ele>
        <time>2018-08-16T10:33:05Z</time>
      </trkpt>
      <trkpt lat="45.88333" lon="4.6283">
        <ele>219</ele>
        <time>2018-08-16T10:33:06Z</time>
      </trkpt>
      <trkpt lat="45.8833" lon="4.62837">
        <ele>219</ele>
        <time>2018-08-16T10:33:07Z</time>
      </trkpt>
      <trkpt lat="45.88325" lon="4.62842">
        <ele>219</ele>
        <time>2018-08-16T10:33:08Z</time>
      </trkpt>
      <trkpt lat="45.88321" lon="4.62848">
        <ele>218</ele>
        <time>2018-08-16T10:33:09Z</time>
      </trkpt>
      <trkpt lat="45.88318" lon="4.62854">
        <ele>218</ele>
        <time>2018-08-16T10:33:10Z</time>
      </trkpt>
      <trkpt lat="45.88314" lon="4.62859">
        <ele>218</ele>
        <time>2018-08-16T10:33:11Z</time>
      </trkpt>
      <trkpt lat="45.8831" lon="4.62866">
        <ele>218</ele>
        <time>2018-08-16T10:33:12Z</time>
      </trkpt>
      <trkpt lat="45.88306" lon="4.62872">
        <ele>218</ele>
        <time>2018-08-16T10:33:13Z</time>
      </trkpt>
      <trkpt lat="45.88301" lon="4.62877">
        <ele>218</ele>
        <time>2018-08-16T10:33:14Z</time>
      </trkpt>
      <trkpt lat="45.88297" lon="4.62882">
        <ele>218</ele>
        <time>2018-08-16T10:33:15Z</time>
      </trkpt>
      <trkpt lat="45.88299" lon="4.62901">
        <ele>218</ele>
        <time>2018-08-16T10:33:16Z</time>
      </trkpt>
      <trkpt lat="45.88296" lon="4.62908">
        <ele>218</ele>
        <time>2018-08-16T10:33:17Z</time>
      </trkpt>
      <trkpt lat="45.88293" lon="4.62914">
        <ele>218</ele>
        <time>2018-08-16T10:33:18Z</time>
      </trkpt>
      <trkpt lat="45.88285" lon="4.6292">
        <ele>218</ele>
        <time>2018-08-16T10:33:20Z</time>
      </trkpt>
      <trkpt lat="45.88282" lon="4.62923">
        <ele>218</ele>
        <time>2018-08-16T10:33:21Z</time>
      </trkpt>
      <trkpt lat="45.88276" lon="4.62933">
        <ele>218</ele>
        <time>2018-08-16T10:33:23Z</time>
      </trkpt>
      <trkpt lat="45.88272" lon="4.62937">
        <ele>218</ele>
        <time>2018-08-16T10:33:24Z</time>
      </trkpt>
      <trkpt lat="45.88269" lon="4.62942">
        <ele>218</ele>
        <time>2018-08-16T10:33:25Z</time>
      </trkpt>
      <trkpt lat="45.88266" lon="4.62947">
        <ele>218</ele>
        <time>2018-08-16T10:33:26Z</time>
      </trkpt>
      <trkpt lat="45.88259" lon="4.62953">
        <ele>217</ele>
        <time>2018-08-16T10:33:27Z</time>
      </trkpt>
      <trkpt lat="45.88256" lon="4.62958">
        <ele>217</ele>
        <time>2018-08-16T10:33:28Z</time>
      </trkpt>
      <trkpt lat="45.88252" lon="4.62964">
        <ele>217</ele>
        <time>2018-08-16T10:33:29Z</time>
      </trkpt>
      <trkpt lat="45.88249" lon="4.6297">
        <ele>217</ele>
        <time>2018-08-16T10:33:30Z</time>
      </trkpt>
      <trkpt lat="45.88245" lon="4.62976">
        <ele>217</ele>
        <time>2018-08-16T10:33:31Z</time>
      </trkpt>
      <trkpt lat="45.88241" lon="4.62982">
        <ele>217</ele>
        <time>2018-08-16T10:33:32Z</time>
      </trkpt>
      <trkpt lat="45.88238" lon="4.62989">
        <ele>217</ele>
        <time>2018-08-16T10:33:33Z</time>
      </trkpt>
      <trkpt lat="45.88235" lon="4.62996">
        <ele>217</ele>
        <time>2018-08-16T10:33:34Z</time>
      </trkpt>
      <trkpt lat="45.88231" lon="4.63003">
        <ele>217</ele>
        <time>2018-08-16T10:33:35Z</time>
      </trkpt>
      <trkpt lat="45.88228" lon="4.63009">
        <ele>217</ele>
        <time>2018-08-16T10:33:36Z</time>
      </trkpt>
      <trkpt lat="45.88225" lon="4.63015">
        <ele>217</ele>
        <time>2018-08-16T10:33:37Z</time>
      </trkpt>
      <trkpt lat="45.88222" lon="4.63022">
        <ele>217</ele>
        <time>2018-08-16T10:33:38Z</time>
      </trkpt>
      <trkpt lat="45.8822" lon="4.63029">
        <ele>217</ele>
        <time>2018-08-16T10:33:39Z</time>
      </trkpt>
      <trkpt lat="45.88219" lon="4.63036">
        <ele>217</ele>
        <time>2018-08-16T10:33:40Z</time>
      </trkpt>
      <trkpt lat="45.88216" lon="4.63042">
        <ele>217</ele>
        <time>2018-08-16T10:33:41Z</time>
      </trkpt>
      <trkpt lat="45.88212" lon="4.63049">
        <ele>217</ele>
        <time>2018-08-16T10:33:42Z</time>
      </trkpt>
      <trkpt lat="45.88208" lon="4.63057">
        <ele>217</ele>
        <time>2018-08-16T10:33:43Z</time>
      </trkpt>
      <trkpt lat="45.88206" lon="4.63063">
        <ele>217</ele>
        <time>2018-08-16T10:33:44Z</time>
      </trkpt>
      <trkpt lat="45.88204" lon="4.6307">
        <ele>217</ele>
        <time>2018-08-16T10:33:45Z</time>
      </trkpt>
      <trkpt lat="45.88203" lon="4.63076">
        <ele>217</ele>
        <time>2018-08-16T10:33:46Z</time>
      </trkpt>
      <trkpt lat="45.88198" lon="4.63086">
        <ele>217</ele>
        <time>2018-08-16T10:33:48Z</time>
      </trkpt>
      <trkpt lat="45.88196" lon="4.63093">
        <ele>217</ele>
        <time>2018-08-16T10:33:49Z</time>
      </trkpt>
      <trkpt lat="45.88196" lon="4.63102">
        <ele>217</ele>
        <time>2018-08-16T10:33:50Z</time>
      </trkpt>
      <trkpt lat="45.88195" lon="4.63108">
        <ele>217</ele>
        <time>2018-08-16T10:33:51Z</time>
      </trkpt>
      <trkpt lat="45.88192" lon="4.63117">
        <ele>217</ele>
        <time>2018-08-16T10:33:53Z</time>
      </trkpt>
      <trkpt lat="45.88192" lon="4.63122">
        <ele>217</ele>
        <time>2018-08-16T10:33:54Z</time>
      </trkpt>
      <trkpt lat="45.8819" lon="4.63127">
        <ele>217</ele>
        <time>2018-08-16T10:33:55Z</time>
      </trkpt>
      <trkpt lat="45.88188" lon="4.63135">
        <ele>217</ele>
        <time>2018-08-16T10:33:56Z</time>
      </trkpt>
      <trkpt lat="45.88187" lon="4.63141">
        <ele>217</ele>
        <time>2018-08-16T10:33:57Z</time>
      </trkpt>
      <trkpt lat="45.88186" lon="4.6315">
        <ele>217</ele>
        <time>2018-08-16T10:33:58Z</time>
      </trkpt>
      <trkpt lat="45.88185" lon="4.63157">
        <ele>217</ele>
        <time>2018-08-16T10:33:59Z</time>
      </trkpt>
      <trkpt lat="45.88183" lon="4.63164">
        <ele>217</ele>
        <time>2018-08-16T10:34:00Z</time>
      </trkpt>
      <trkpt lat="45.88182" lon="4.63173">
        <ele>217</ele>
        <time>2018-08-16T10:34:01Z</time>
      </trkpt>
      <trkpt lat="45.8818" lon="4.63181">
        <ele>217</ele>
        <time>2018-08-16T10:34:02Z</time>
      </trkpt>
      <trkpt lat="45.88179" lon="4.63188">
        <ele>217</ele>
        <time>2018-08-16T10:34:03Z</time>
      </trkpt>
      <trkpt lat="45.88177" lon="4.63196">
        <ele>217</ele>
        <time>2018-08-16T10:34:04Z</time>
      </trkpt>
      <trkpt lat="45.88176" lon="4.63204">
        <ele>217</ele>
        <time>2018-08-16T10:34:05Z</time>
      </trkpt>
      <trkpt lat="45.88174" lon="4.63211">
        <ele>217</ele>
        <time>2018-08-16T10:34:06Z</time>
      </trkpt>
      <trkpt lat="45.88172" lon="4.6322">
        <ele>217</ele>
        <time>2018-08-16T10:34:07Z</time>
      </trkpt>
      <trkpt lat="45.88175" lon="4.63236">
        <ele>216</ele>
        <time>2018-08-16T10:34:08Z</time>
      </trkpt>
      <trkpt lat="45.88173" lon="4.63244">
        <ele>216</ele>
        <time>2018-08-16T10:34:09Z</time>
      </trkpt>
      <trkpt lat="45.88171" lon="4.6325">
        <ele>216</ele>
        <time>2018-08-16T10:34:10Z</time>
      </trkpt>
      <trkpt lat="45.88171" lon="4.6326">
        <ele>216</ele>
        <time>2018-08-16T10:34:11Z</time>
      </trkpt>
      <trkpt lat="45.88169" lon="4.63267">
        <ele>216</ele>
        <time>2018-08-16T10:34:12Z</time>
      </trkpt>
      <trkpt lat="45.88167" lon="4.63274">
        <ele>216</ele>
        <time>2018-08-16T10:34:13Z</time>
      </trkpt>
      <trkpt lat="45.88168" lon="4.63284">
        <ele>216</ele>
        <time>2018-08-16T10:34:14Z</time>
      </trkpt>
      <trkpt lat="45.88166" lon="4.63293">
        <ele>216</ele>
        <time>2018-08-16T10:34:15Z</time>
      </trkpt>
      <trkpt lat="45.88164" lon="4.63301">
        <ele>216</ele>
        <time>2018-08-16T10:34:16Z</time>
      </trkpt>
      <trkpt lat="45.88163" lon="4.63309">
        <ele>216</ele>
        <time>2018-08-16T10:34:17Z</time>
      </trkpt>
      <trkpt lat="45.88161" lon="4.63318">
        <ele>216</ele>
        <time>2018-08-16T10:34:18Z</time>
      </trkpt>
      <trkpt lat="45.88158" lon="4.63324">
        <ele>216</ele>
        <time>2018-08-16T10:34:19Z</time>
      </trkpt>
      <trkpt lat="45.88157" lon="4.63333">
        <ele>216</ele>
        <time>2018-08-16T10:34:20Z</time>
      </trkpt>
      <trkpt lat="45.88155" lon="4.6334">
        <ele>216</ele>
        <time>2018-08-16T10:34:21Z</time>
      </trkpt>
      <trkpt lat="45.88152" lon="4.63346">
        <ele>216</ele>
        <time>2018-08-16T10:34:22Z</time>
      </trkpt>
      <trkpt lat="45.8815" lon="4.63351">
        <ele>216</ele>
        <time>2018-08-16T10:34:23Z</time>
      </trkpt>
      <trkpt lat="45.88148" lon="4.63361">
        <ele>216</ele>
        <time>2018-08-16T10:34:24Z</time>
      </trkpt>
      <trkpt lat="45.88146" lon="4.6337">
        <ele>216</ele>
        <time>2018-08-16T10:34:25Z</time>
      </trkpt>
      <trkpt lat="45.88144" lon="4.63378">
        <ele>216</ele>
        <time>2018-08-16T10:34:26Z</time>
      </trkpt>
      <trkpt lat="45.88141" lon="4.6339">
        <ele>216</ele>
        <time>2018-08-16T10:34:28Z</time>
      </trkpt>
      <trkpt lat="45.88141" lon="4.63397">
        <ele>216</ele>
        <time>2018-08-16T10:34:29Z</time>
      </trkpt>
      <trkpt lat="45.88139" lon="4.63405">
        <ele>216</ele>
        <time>2018-08-16T10:34:30Z</time>
      </trkpt>
      <trkpt lat="45.88137" lon="4.63414">
        <ele>216</ele>
        <time>2018-08-16T10:34:31Z</time>
      </trkpt>
      <trkpt lat="45.88134" lon="4.63421">
        <ele>216</ele>
        <time>2018-08-16T10:34:32Z</time>
      </trkpt>
      <trkpt lat="45.88133" lon="4.6343">
        <ele>216</ele>
        <time>2018-08-16T10:34:33Z</time>
      </trkpt>
      <trkpt lat="45.88132" lon="4.63439">
        <ele>216</ele>
        <time>2018-08-16T10:34:34Z</time>
      </trkpt>
      <trkpt lat="45.8813" lon="4.63444">
        <ele>216</ele>
        <time>2018-08-16T10:34:35Z</time>
      </trkpt>
      <trkpt lat="45.88129" lon="4.63451">
        <ele>216</ele>
        <time>2018-08-16T10:34:36Z</time>
      </trkpt>
      <trkpt lat="45.88128" lon="4.63458">
        <ele>216</ele>
        <time>2018-08-16T10:34:37Z</time>
      </trkpt>
      <trkpt lat="45.88127" lon="4.63465">
        <ele>217</ele>
        <time>2018-08-16T10:34:38Z</time>
      </trkpt>
      <trkpt lat="45.88125" lon="4.63473">
        <ele>217</ele>
        <time>2018-08-16T10:34:39Z</time>
      </trkpt>
      <trkpt lat="45.88123" lon="4.63481">
        <ele>217</ele>
        <time>2018-08-16T10:34:40Z</time>
      </trkpt>
      <trkpt lat="45.8812" lon="4.63489">
        <ele>217</ele>
        <time>2018-08-16T10:34:41Z</time>
      </trkpt>
      <trkpt lat="45.88117" lon="4.63496">
        <ele>217</ele>
        <time>2018-08-16T10:34:42Z</time>
      </trkpt>
      <trkpt lat="45.88115" lon="4.63504">
        <ele>217</ele>
        <time>2018-08-16T10:34:43Z</time>
      </trkpt>
      <trkpt lat="45.88114" lon="4.63512">
        <ele>217</ele>
        <time>2018-08-16T10:34:44Z</time>
      </trkpt>
      <trkpt lat="45.88111" lon="4.63521">
        <ele>216</ele>
        <time>2018-08-16T10:34:45Z</time>
      </trkpt>
      <trkpt lat="45.88109" lon="4.63529">
        <ele>216</ele>
        <time>2018-08-16T10:34:46Z</time>
      </trkpt>
      <trkpt lat="45.88107" lon="4.63538">
        <ele>216</ele>
        <time>2018-08-16T10:34:47Z</time>
      </trkpt>
      <trkpt lat="45.88103" lon="4.63546">
        <ele>216</ele>
        <time>2018-08-16T10:34:48Z</time>
      </trkpt>
      <trkpt lat="45.88101" lon="4.63554">
        <ele>216</ele>
        <time>2018-08-16T10:34:49Z</time>
      </trkpt>
      <trkpt lat="45.88099" lon="4.63562">
        <ele>216</ele>
        <time>2018-08-16T10:34:50Z</time>
      </trkpt>
      <trkpt lat="45.88095" lon="4.63568">
        <ele>216</ele>
        <time>2018-08-16T10:34:51Z</time>
      </trkpt>
      <trkpt lat="45.88089" lon="4.63571">
        <ele>216</ele>
        <time>2018-08-16T10:34:52Z</time>
      </trkpt>
      <trkpt lat="45.88086" lon="4.63579">
        <ele>216</ele>
        <time>2018-08-16T10:34:53Z</time>
      </trkpt>
      <trkpt lat="45.88084" lon="4.63587">
        <ele>216</ele>
        <time>2018-08-16T10:34:54Z</time>
      </trkpt>
      <trkpt lat="45.88082" lon="4.63597">
        <ele>216</ele>
        <time>2018-08-16T10:34:55Z</time>
      </trkpt>
      <trkpt lat="45.88078" lon="4.63605">
        <ele>216</ele>
        <time>2018-08-16T10:34:56Z</time>
      </trkpt>
      <trkpt lat="45.88074" lon="4.63611">
        <ele>216</ele>
        <time>2018-08-16T10:34:57Z</time>
      </trkpt>
      <trkpt lat="45.8807" lon="4.63618">
        <ele>216</ele>
        <time>2018-08-16T10:34:58Z</time>
      </trkpt>
      <trkpt lat="45.88067" lon="4.63626">
        <ele>215</ele>
        <time>2018-08-16T10:34:59Z</time>
      </trkpt>
      <trkpt lat="45.88063" lon="4.63634">
        <ele>215</ele>
        <time>2018-08-16T10:35:00Z</time>
      </trkpt>
      <trkpt lat="45.88059" lon="4.63641">
        <ele>215</ele>
        <time>2018-08-16T10:35:01Z</time>
      </trkpt>
      <trkpt lat="45.88056" lon="4.63648">
        <ele>215</ele>
        <time>2018-08-16T10:35:02Z</time>
      </trkpt>
      <trkpt lat="45.88051" lon="4.63655">
        <ele>215</ele>
        <time>2018-08-16T10:35:03Z</time>
      </trkpt>
      <trkpt lat="45.88047" lon="4.63663">
        <ele>215</ele>
        <time>2018-08-16T10:35:04Z</time>
      </trkpt>
      <trkpt lat="45.88043" lon="4.63669">
        <ele>214</ele>
        <time>2018-08-16T10:35:05Z</time>
      </trkpt>
      <trkpt lat="45.88039" lon="4.63677">
        <ele>214</ele>
        <time>2018-08-16T10:35:06Z</time>
      </trkpt>
      <trkpt lat="45.88036" lon="4.63683">
        <ele>214</ele>
        <time>2018-08-16T10:35:07Z</time>
      </trkpt>
      <trkpt lat="45.88034" lon="4.63689">
        <ele>214</ele>
        <time>2018-08-16T10:35:08Z</time>
      </trkpt>
      <trkpt lat="45.88031" lon="4.63696">
        <ele>214</ele>
        <time>2018-08-16T10:35:09Z</time>
      </trkpt>
      <trkpt lat="45.88028" lon="4.63702">
        <ele>214</ele>
        <time>2018-08-16T10:35:10Z</time>
      </trkpt>
      <trkpt lat="45.88025" lon="4.63709">
        <ele>214</ele>
        <time>2018-08-16T10:35:11Z</time>
      </trkpt>
      <trkpt lat="45.88022" lon="4.63716">
        <ele>214</ele>
        <time>2018-08-16T10:35:12Z</time>
      </trkpt>
      <trkpt lat="45.88018" lon="4.63723">
        <ele>214</ele>
        <time>2018-08-16T10:35:13Z</time>
      </trkpt>
      <trkpt lat="45.88015" lon="4.63728">
        <ele>214</ele>
        <time>2018-08-16T10:35:14Z</time>
      </trkpt>
      <trkpt lat="45.88009" lon="4.6373">
        <ele>214</ele>
        <time>2018-08-16T10:35:15Z</time>
      </trkpt>
      <trkpt lat="45.88005" lon="4.63735">
        <ele>213</ele>
        <time>2018-08-16T10:35:16Z</time>
      </trkpt>
      <trkpt lat="45.88001" lon="4.6374">
        <ele>213</ele>
        <time>2018-08-16T10:35:17Z</time>
      </trkpt>
      <trkpt lat="45.88002" lon="4.63756">
        <ele>213</ele>
        <time>2018-08-16T10:35:18Z</time>
      </trkpt>
      <trkpt lat="45.87999" lon="4.63762">
        <ele>213</ele>
        <time>2018-08-16T10:35:19Z</time>
      </trkpt>
      <trkpt lat="45.87994" lon="4.63767">
        <ele>213</ele>
        <time>2018-08-16T10:35:20Z</time>
      </trkpt>
      <trkpt lat="45.87989" lon="4.63773">
        <ele>213</ele>
        <time>2018-08-16T10:35:21Z</time>
      </trkpt>
      <trkpt lat="45.87985" lon="4.63781">
        <ele>213</ele>
        <time>2018-08-16T10:35:22Z</time>
      </trkpt>
      <trkpt lat="45.87981" lon="4.63788">
        <ele>213</ele>
        <time>2018-08-16T10:35:23Z</time>
      </trkpt>
      <trkpt lat="45.87977" lon="4.63796">
        <ele>213</ele>
        <time>2018-08-16T10:35:24Z</time>
      </trkpt>
      <trkpt lat="45.87972" lon="4.63801">
        <ele>213</ele>
        <time>2018-08-16T10:35:25Z</time>
      </trkpt>
      <trkpt lat="45.87968" lon="4.63807">
        <ele>213</ele>
        <time>2018-08-16T10:35:26Z</time>
      </trkpt>
      <trkpt lat="45.87964" lon="4.63813">
        <ele>213</ele>
        <time>2018-08-16T10:35:27Z</time>
      </trkpt>
      <trkpt lat="45.8796" lon="4.6382">
        <ele>213</ele>
        <time>2018-08-16T10:35:28Z</time>
      </trkpt>
      <trkpt lat="45.87957" lon="4.63826">
        <ele>213</ele>
        <time>2018-08-16T10:35:29Z</time>
      </trkpt>
      <trkpt lat="45.87953" lon="4.63832">
        <ele>213</ele>
        <time>2018-08-16T10:35:30Z</time>
      </trkpt>
      <trkpt lat="45.87949" lon="4.63838">
        <ele>213</ele>
        <time>2018-08-16T10:35:31Z</time>
      </trkpt>
      <trkpt lat="45.87944" lon="4.63841">
        <ele>213</ele>
        <time>2018-08-16T10:35:32Z</time>
      </trkpt>
      <trkpt lat="45.87942" lon="4.63847">
        <ele>213</ele>
        <time>2018-08-16T10:35:33Z</time>
      </trkpt>
      <trkpt lat="45.87939" lon="4.63853">
        <ele>213</ele>
        <time>2018-08-16T10:35:34Z</time>
      </trkpt>
      <trkpt lat="45.87935" lon="4.63859">
        <ele>213</ele>
        <time>2018-08-16T10:35:35Z</time>
      </trkpt>
      <trkpt lat="45.87931" lon="4.63864">
        <ele>213</ele>
        <time>2018-08-16T10:35:36Z</time>
      </trkpt>
      <trkpt lat="45.87928" lon="4.6387">
        <ele>213</ele>
        <time>2018-08-16T10:35:37Z</time>
      </trkpt>
      <trkpt lat="45.87924" lon="4.63877">
        <ele>213</ele>
        <time>2018-08-16T10:35:38Z</time>
      </trkpt>
      <trkpt lat="45.8792" lon="4.63883">
        <ele>213</ele>
        <time>2018-08-16T10:35:39Z</time>
      </trkpt>
      <trkpt lat="45.87917" lon="4.6389">
        <ele>213</ele>
        <time>2018-08-16T10:35:40Z</time>
      </trkpt>
      <trkpt lat="45.87912" lon="4.63894">
        <ele>213</ele>
        <time>2018-08-16T10:35:41Z</time>
      </trkpt>
      <trkpt lat="45.87908" lon="4.63901">
        <ele>213</ele>
        <time>2018-08-16T10:35:42Z</time>
      </trkpt>
      <trkpt lat="45.87903" lon="4.63906">
        <ele>213</ele>
        <time>2018-08-16T10:35:43Z</time>
      </trkpt>
      <trkpt lat="45.87899" lon="4.63914">
        <ele>213</ele>
        <time>2018-08-16T10:35:44Z</time>
      </trkpt>
      <trkpt lat="45.87895" lon="4.6392">
        <ele>213</ele>
        <time>2018-08-16T10:35:45Z</time>
      </trkpt>
      <trkpt lat="45.87893" lon="4.63929">
        <ele>212</ele>
        <time>2018-08-16T10:35:46Z</time>
      </trkpt>
      <trkpt lat="45.87889" lon="4.63934">
        <ele>212</ele>
        <time>2018-08-16T10:35:47Z</time>
      </trkpt>
      <trkpt lat="45.87886" lon="4.6394">
        <ele>212</ele>
        <time>2018-08-16T10:35:48Z</time>
      </trkpt>
      <trkpt lat="45.87883" lon="4.63947">
        <ele>212</ele>
        <time>2018-08-16T10:35:49Z</time>
      </trkpt>
      <trkpt lat="45.87878" lon="4.63951">
        <ele>212</ele>
        <time>2018-08-16T10:35:50Z</time>
      </trkpt>
      <trkpt lat="45.87875" lon="4.63959">
        <ele>212</ele>
        <time>2018-08-16T10:35:51Z</time>
      </trkpt>
      <trkpt lat="45.87871" lon="4.63966">
        <ele>212</ele>
        <time>2018-08-16T10:35:52Z</time>
      </trkpt>
      <trkpt lat="45.87864" lon="4.63972">
        <ele>212</ele>
        <time>2018-08-16T10:35:53Z</time>
      </trkpt>
      <trkpt lat="45.8786" lon="4.63977">
        <ele>212</ele>
        <time>2018-08-16T10:35:54Z</time>
      </trkpt>
      <trkpt lat="45.87857" lon="4.63985">
        <ele>212</ele>
        <time>2018-08-16T10:35:55Z</time>
      </trkpt>
      <trkpt lat="45.87851" lon="4.63989">
        <ele>212</ele>
        <time>2018-08-16T10:35:56Z</time>
      </trkpt>
      <trkpt lat="45.87847" lon="4.63995">
        <ele>212</ele>
        <time>2018-08-16T10:35:57Z</time>
      </trkpt>
      <trkpt lat="45.87844" lon="4.64002">
        <ele>212</ele>
        <time>2018-08-16T10:35:58Z</time>
      </trkpt>
      <trkpt lat="45.8784" lon="4.64008">
        <ele>212</ele>
        <time>2018-08-16T10:35:59Z</time>
      </trkpt>
      <trkpt lat="45.87838" lon="4.64015">
        <ele>213</ele>
        <time>2018-08-16T10:36:00Z</time>
      </trkpt>
      <trkpt lat="45.87834" lon="4.64021">
        <ele>213</ele>
        <time>2018-08-16T10:36:01Z</time>
      </trkpt>
      <trkpt lat="45.87831" lon="4.64024">
        <ele>213</ele>
        <time>2018-08-16T10:36:02Z</time>
      </trkpt>
      <trkpt lat="45.87828" lon="4.64031">
        <ele>213</ele>
        <time>2018-08-16T10:36:03Z</time>
      </trkpt>
      <trkpt lat="45.87824" lon="4.64035">
        <ele>213</ele>
        <time>2018-08-16T10:36:04Z</time>
      </trkpt>
      <trkpt lat="45.8782" lon="4.64041">
        <ele>213</ele>
        <time>2018-08-16T10:36:05Z</time>
      </trkpt>
      <trkpt lat="45.87817" lon="4.64051">
        <ele>214</ele>
        <time>2018-08-16T10:36:06Z</time>
      </trkpt>
      <trkpt lat="45.87814" lon="4.6406">
        <ele>214</ele>
        <time>2018-08-16T10:36:07Z</time>
      </trkpt>
      <trkpt lat="45.8781" lon="4.64067">
        <ele>214</ele>
        <time>2018-08-16T10:36:08Z</time>
      </trkpt>
      <trkpt lat="45.87805" lon="4.64071">
        <ele>214</ele>
        <time>2018-08-16T10:36:09Z</time>
      </trkpt>
      <trkpt lat="45.87801" lon="4.64079">
        <ele>214</ele>
        <time>2018-08-16T10:36:10Z</time>
      </trkpt>
      <trkpt lat="45.87797" lon="4.64084">
        <ele>215</ele>
        <time>2018-08-16T10:36:11Z</time>
      </trkpt>
      <trkpt lat="45.87793" lon="4.64091">
        <ele>215</ele>
        <time>2018-08-16T10:36:12Z</time>
      </trkpt>
      <trkpt lat="45.8779" lon="4.64103">
        <ele>215</ele>
        <time>2018-08-16T10:36:13Z</time>
      </trkpt>
      <trkpt lat="45.87786" lon="4.64108">
        <ele>215</ele>
        <time>2018-08-16T10:36:14Z</time>
      </trkpt>
      <trkpt lat="45.87782" lon="4.64113">
        <ele>215</ele>
        <time>2018-08-16T10:36:15Z</time>
      </trkpt>
      <trkpt lat="45.87778" lon="4.6412">
        <ele>215</ele>
        <time>2018-08-16T10:36:16Z</time>
      </trkpt>
      <trkpt lat="45.87774" lon="4.64126">
        <ele>215</ele>
        <time>2018-08-16T10:36:17Z</time>
      </trkpt>
      <trkpt lat="45.8777" lon="4.64132">
        <ele>215</ele>
        <time>2018-08-16T10:36:18Z</time>
      </trkpt>
      <trkpt lat="45.87766" lon="4.64136">
        <ele>215</ele>
        <time>2018-08-16T10:36:19Z</time>
      </trkpt>
      <trkpt lat="45.87762" lon="4.64141">
        <ele>215</ele>
        <time>2018-08-16T10:36:20Z</time>
      </trkpt>
      <trkpt lat="45.87759" lon="4.64147">
        <ele>215</ele>
        <time>2018-08-16T10:36:21Z</time>
      </trkpt>
      <trkpt lat="45.87753" lon="4.64151">
        <ele>214</ele>
        <time>2018-08-16T10:36:22Z</time>
      </trkpt>
      <trkpt lat="45.87749" lon="4.64158">
        <ele>213</ele>
        <time>2018-08-16T10:36:23Z</time>
      </trkpt>
      <trkpt lat="45.87745" lon="4.64163">
        <ele>214</ele>
        <time>2018-08-16T10:36:24Z</time>
      </trkpt>
      <trkpt lat="45.87741" lon="4.64171">
        <ele>213</ele>
        <time>2018-08-16T10:36:25Z</time>
      </trkpt>
      <trkpt lat="45.87738" lon="4.64179">
        <ele>213</ele>
        <time>2018-08-16T10:36:26Z</time>
      </trkpt>
      <trkpt lat="45.87734" lon="4.64184">
        <ele>212</ele>
        <time>2018-08-16T10:36:27Z</time>
      </trkpt>
      <trkpt lat="45.8773" lon="4.6419">
        <ele>212</ele>
        <time>2018-08-16T10:36:28Z</time>
      </trkpt>
      <trkpt lat="45.87727" lon="4.64198">
        <ele>212</ele>
        <time>2018-08-16T10:36:29Z</time>
      </trkpt>
      <trkpt lat="45.87723" lon="4.64204">
        <ele>212</ele>
        <time>2018-08-16T10:36:30Z</time>
      </trkpt>
      <trkpt lat="45.8772" lon="4.64209">
        <ele>212</ele>
        <time>2018-08-16T10:36:31Z</time>
      </trkpt>
      <trkpt lat="45.87717" lon="4.64214">
        <ele>212</ele>
        <time>2018-08-16T10:36:32Z</time>
      </trkpt>
      <trkpt lat="45.87714" lon="4.64219">
        <ele>211</ele>
        <time>2018-08-16T10:36:33Z</time>
      </trkpt>
      <trkpt lat="45.87716" lon="4.64233">
        <ele>211</ele>
        <time>2018-08-16T10:36:34Z</time>
      </trkpt>
      <trkpt lat="45.87712" lon="4.64238">
        <ele>211</ele>
        <time>2018-08-16T10:36:35Z</time>
      </trkpt>
      <trkpt lat="45.87709" lon="4.64243">
        <ele>211</ele>
        <time>2018-08-16T10:36:36Z</time>
      </trkpt>
      <trkpt lat="45.87704" lon="4.64253">
        <ele>210</ele>
        <time>2018-08-16T10:36:38Z</time>
      </trkpt>
      <trkpt lat="45.87702" lon="4.64258">
        <ele>210</ele>
        <time>2018-08-16T10:36:39Z</time>
      </trkpt>
      <trkpt lat="45.87698" lon="4.64261">
        <ele>210</ele>
        <time>2018-08-16T10:36:40Z</time>
      </trkpt>
      <trkpt lat="45.87694" lon="4.64266">
        <ele>210</ele>
        <time>2018-08-16T10:36:41Z</time>
      </trkpt>
      <trkpt lat="45.8769" lon="4.64272">
        <ele>210</ele>
        <time>2018-08-16T10:36:42Z</time>
      </trkpt>
      <trkpt lat="45.87686" lon="4.64276">
        <ele>210</ele>
        <time>2018-08-16T10:36:43Z</time>
      </trkpt>
      <trkpt lat="45.87682" lon="4.6428">
        <ele>210</ele>
        <time>2018-08-16T10:36:44Z</time>
      </trkpt>
      <trkpt lat="45.87678" lon="4.64286">
        <ele>210</ele>
        <time>2018-08-16T10:36:45Z</time>
      </trkpt>
      <trkpt lat="45.87673" lon="4.6429">
        <ele>210</ele>
        <time>2018-08-16T10:36:46Z</time>
      </trkpt>
      <trkpt lat="45.87668" lon="4.64295">
        <ele>210</ele>
        <time>2018-08-16T10:36:47Z</time>
      </trkpt>
      <trkpt lat="45.87665" lon="4.64301">
        <ele>210</ele>
        <time>2018-08-16T10:36:48Z</time>
      </trkpt>
      <trkpt lat="45.8766" lon="4.64306">
        <ele>210</ele>
        <time>2018-08-16T10:36:49Z</time>
      </trkpt>
      <trkpt lat="45.87657" lon="4.64311">
        <ele>210</ele>
        <time>2018-08-16T10:36:50Z</time>
      </trkpt>
      <trkpt lat="45.87654" lon="4.64316">
        <ele>210</ele>
        <time>2018-08-16T10:36:51Z</time>
      </trkpt>
      <trkpt lat="45.8765" lon="4.64321">
        <ele>210</ele>
        <time>2018-08-16T10:36:52Z</time>
      </trkpt>
      <trkpt lat="45.87646" lon="4.64324">
        <ele>210</ele>
        <time>2018-08-16T10:36:53Z</time>
      </trkpt>
      <trkpt lat="45.87643" lon="4.64329">
        <ele>210</ele>
        <time>2018-08-16T10:36:54Z</time>
      </trkpt>
      <trkpt lat="45.87639" lon="4.64336">
        <ele>211</ele>
        <time>2018-08-16T10:36:55Z</time>
      </trkpt>
      <trkpt lat="45.87636" lon="4.64342">
        <ele>211</ele>
        <time>2018-08-16T10:36:56Z</time>
      </trkpt>
      <trkpt lat="45.87635" lon="4.64347">
        <ele>211</ele>
        <time>2018-08-16T10:36:57Z</time>
      </trkpt>
      <trkpt lat="45.87629" lon="4.64356">
        <ele>211</ele>
        <time>2018-08-16T10:36:59Z</time>
      </trkpt>
      <trkpt lat="45.87628" lon="4.64363">
        <ele>211</ele>
        <time>2018-08-16T10:37:00Z</time>
      </trkpt>
      <trkpt lat="45.87625" lon="4.64372">
        <ele>211</ele>
        <time>2018-08-16T10:37:02Z</time>
      </trkpt>
      <trkpt lat="45.87622" lon="4.64375">
        <ele>212</ele>
        <time>2018-08-16T10:37:03Z</time>
      </trkpt>
      <trkpt lat="45.87617" lon="4.64385">
        <ele>212</ele>
        <time>2018-08-16T10:37:07Z</time>
      </trkpt>
      <trkpt lat="45.87615" lon="4.64387">
        <ele>212</ele>
        <time>2018-08-16T10:37:08Z</time>
      </trkpt>
      <trkpt lat="45.87609" lon="4.64394">
        <ele>212</ele>
        <time>2018-08-16T10:37:20Z</time>
      </trkpt>
      <trkpt lat="45.87608" lon="4.64396">
        <ele>212</ele>
        <time>2018-08-16T10:37:21Z</time>
      </trkpt>
      <trkpt lat="45.87603" lon="4.64403">
        <ele>212</ele>
        <time>2018-08-16T10:37:24Z</time>
      </trkpt>
      <trkpt lat="45.87601" lon="4.64406">
        <ele>212</ele>
        <time>2018-08-16T10:37:25Z</time>
      </trkpt>
      <trkpt lat="45.87599" lon="4.64409">
        <ele>212</ele>
        <time>2018-08-16T10:37:26Z</time>
      </trkpt>
      <trkpt lat="45.87593" lon="4.64419">
        <ele>213</ele>
        <time>2018-08-16T10:37:27Z</time>
      </trkpt>
      <trkpt lat="45.87591" lon="4.64426">
        <ele>213</ele>
        <time>2018-08-16T10:37:28Z</time>
      </trkpt>
      <trkpt lat="45.87589" lon="4.64431">
        <ele>213</ele>
        <time>2018-08-16T10:37:29Z</time>
      </trkpt>
      <trkpt lat="45.87586" lon="4.64437">
        <ele>213</ele>
        <time>2018-08-16T10:37:30Z</time>
      </trkpt>
      <trkpt lat="45.87583" lon="4.64442">
        <ele>213</ele>
        <time>2018-08-16T10:37:31Z</time>
      </trkpt>
      <trkpt lat="45.87581" lon="4.64447">
        <ele>212</ele>
        <time>2018-08-16T10:37:32Z</time>
      </trkpt>
      <trkpt lat="45.87578" lon="4.64453">
        <ele>212</ele>
        <time>2018-08-16T10:37:33Z</time>
      </trkpt>
      <trkpt lat="45.87575" lon="4.64458">
        <ele>212</ele>
        <time>2018-08-16T10:37:34Z</time>
      </trkpt>
      <trkpt lat="45.87571" lon="4.64466">
        <ele>212</ele>
        <time>2018-08-16T10:37:35Z</time>
      </trkpt>
      <trkpt lat="45.87568" lon="4.64472">
        <ele>212</ele>
        <time>2018-08-16T10:37:36Z</time>
      </trkpt>
      <trkpt lat="45.87564" lon="4.64476">
        <ele>212</ele>
        <time>2018-08-16T10:37:37Z</time>
      </trkpt>
      <trkpt lat="45.87562" lon="4.64483">
        <ele>212</ele>
        <time>2018-08-16T10:37:38Z</time>
      </trkpt>
      <trkpt lat="45.87559" lon="4.64489">
        <ele>212</ele>
        <time>2018-08-16T10:37:39Z</time>
      </trkpt>
      <trkpt lat="45.87555" lon="4.64495">
        <ele>212</ele>
        <time>2018-08-16T10:37:40Z</time>
      </trkpt>
      <trkpt lat="45.87552" lon="4.64501">
        <ele>212</ele>
        <time>2018-08-16T10:37:41Z</time>
      </trkpt>
      <trkpt lat="45.87549" lon="4.64507">
        <ele>212</ele>
        <time>2018-08-16T10:37:42Z</time>
      </trkpt>
      <trkpt lat="45.87545" lon="4.64513">
        <ele>212</ele>
        <time>2018-08-16T10:37:43Z</time>
      </trkpt>
      <trkpt lat="45.87541" lon="4.64516">
        <ele>212</ele>
        <time>2018-08-16T10:37:44Z</time>
      </trkpt>
      <trkpt lat="45.87537" lon="4.64522">
        <ele>212</ele>
        <time>2018-08-16T10:37:45Z</time>
      </trkpt>
      <trkpt lat="45.87533" lon="4.64526">
        <ele>212</ele>
        <time>2018-08-16T10:37:46Z</time>
      </trkpt>
      <trkpt lat="45.87529" lon="4.64531">
        <ele>212</ele>
        <time>2018-08-16T10:37:47Z</time>
      </trkpt>
      <trkpt lat="45.87525" lon="4.64537">
        <ele>212</ele>
        <time>2018-08-16T10:37:48Z</time>
      </trkpt>
      <trkpt lat="45.8752" lon="4.64547">
        <ele>212</ele>
        <time>2018-08-16T10:37:49Z</time>
      </trkpt>
      <trkpt lat="45.87516" lon="4.64552">
        <ele>212</ele>
        <time>2018-08-16T10:37:50Z</time>
      </trkpt>
      <trkpt lat="45.87513" lon="4.64558">
        <ele>212</ele>
        <time>2018-08-16T10:37:51Z</time>
      </trkpt>
      <trkpt lat="45.87508" lon="4.64564">
        <ele>212</ele>
        <time>2018-08-16T10:37:52Z</time>
      </trkpt>
      <trkpt lat="45.87504" lon="4.64569">
        <ele>212</ele>
        <time>2018-08-16T10:37:53Z</time>
      </trkpt>
      <trkpt lat="45.875" lon="4.64574">
        <ele>213</ele>
        <time>2018-08-16T10:37:54Z</time>
      </trkpt>
      <trkpt lat="45.87498" lon="4.6458">
        <ele>213</ele>
        <time>2018-08-16T10:37:55Z</time>
      </trkpt>
      <trkpt lat="45.87496" lon="4.64588">
        <ele>213</ele>
        <time>2018-08-16T10:37:56Z</time>
      </trkpt>
      <trkpt lat="45.87491" lon="4.64592">
        <ele>213</ele>
        <time>2018-08-16T10:37:57Z</time>
      </trkpt>
      <trkpt lat="45.87486" lon="4.64599">
        <ele>213</ele>
        <time>2018-08-16T10:37:58Z</time>
      </trkpt>
      <trkpt lat="45.87483" lon="4.64605">
        <ele>213</ele>
        <time>2018-08-16T10:37:59Z</time>
      </trkpt>
      <trkpt lat="45.8748" lon="4.64613">
        <ele>212</ele>
        <time>2018-08-16T10:38:00Z</time>
      </trkpt>
      <trkpt lat="45.87476" lon="4.64619">
        <ele>212</ele>
        <time>2018-08-16T10:38:01Z</time>
      </trkpt>
      <trkpt lat="45.87472" lon="4.64625">
        <ele>212</ele>
        <time>2018-08-16T10:38:02Z</time>
      </trkpt>
      <trkpt lat="45.87468" lon="4.64633">
        <ele>212</ele>
        <time>2018-08-16T10:38:03Z</time>
      </trkpt>
      <trkpt lat="45.87466" lon="4.64642">
        <ele>212</ele>
        <time>2018-08-16T10:38:04Z</time>
      </trkpt>
      <trkpt lat="45.87461" lon="4.64649">
        <ele>212</ele>
        <time>2018-08-16T10:38:05Z</time>
      </trkpt>
      <trkpt lat="45.87457" lon="4.64654">
        <ele>212</ele>
        <time>2018-08-16T10:38:06Z</time>
      </trkpt>
      <trkpt lat="45.87454" lon="4.64663">
        <ele>212</ele>
        <time>2018-08-16T10:38:07Z</time>
      </trkpt>
      <trkpt lat="45.87449" lon="4.64669">
        <ele>212</ele>
        <time>2018-08-16T10:38:08Z</time>
      </trkpt>
      <trkpt lat="45.87445" lon="4.64676">
        <ele>212</ele>
        <time>2018-08-16T10:38:09Z</time>
      </trkpt>
      <trkpt lat="45.87441" lon="4.64682">
        <ele>212</ele>
        <time>2018-08-16T10:38:10Z</time>
      </trkpt>
      <trkpt lat="45.87437" lon="4.64689">
        <ele>212</ele>
        <time>2018-08-16T10:38:11Z</time>
      </trkpt>
      <trkpt lat="45.87433" lon="4.64696">
        <ele>212</ele>
        <time>2018-08-16T10:38:12Z</time>
      </trkpt>
      <trkpt lat="45.8743" lon="4.64705">
        <ele>212</ele>
        <time>2018-08-16T10:38:13Z</time>
      </trkpt>
      <trkpt lat="45.87427" lon="4.64711">
        <ele>212</ele>
        <time>2018-08-16T10:38:14Z</time>
      </trkpt>
      <trkpt lat="45.87423" lon="4.64716">
        <ele>212</ele>
        <time>2018-08-16T10:38:15Z</time>
      </trkpt>
      <trkpt lat="45.87419" lon="4.64724">
        <ele>212</ele>
        <time>2018-08-16T10:38:16Z</time>
      </trkpt>
      <trkpt lat="45.87416" lon="4.64733">
        <ele>211</ele>
        <time>2018-08-16T10:38:17Z</time>
      </trkpt>
      <trkpt lat="45.87411" lon="4.64739">
        <ele>211</ele>
        <time>2018-08-16T10:38:18Z</time>
      </trkpt>
      <trkpt lat="45.87406" lon="4.64745">
        <ele>211</ele>
        <time>2018-08-16T10:38:19Z</time>
      </trkpt>
      <trkpt lat="45.87402" lon="4.64752">
        <ele>211</ele>
        <time>2018-08-16T10:38:20Z</time>
      </trkpt>
      <trkpt lat="45.87397" lon="4.64759">
        <ele>211</ele>
        <time>2018-08-16T10:38:21Z</time>
      </trkpt>
      <trkpt lat="45.87393" lon="4.64764">
        <ele>211</ele>
        <time>2018-08-16T10:38:22Z</time>
      </trkpt>
      <trkpt lat="45.87388" lon="4.6477">
        <ele>212</ele>
        <time>2018-08-16T10:38:23Z</time>
      </trkpt>
      <trkpt lat="45.87383" lon="4.64776">
        <ele>212</ele>
        <time>2018-08-16T10:38:24Z</time>
      </trkpt>
      <trkpt lat="45.87378" lon="4.64783">
        <ele>212</ele>
        <time>2018-08-16T10:38:25Z</time>
      </trkpt>
      <trkpt lat="45.87373" lon="4.64787">
        <ele>212</ele>
        <time>2018-08-16T10:38:26Z</time>
      </trkpt>
      <trkpt lat="45.87369" lon="4.64793">
        <ele>212</ele>
        <time>2018-08-16T10:38:27Z</time>
      </trkpt>
      <trkpt lat="45.87364" lon="4.64799">
        <ele>212</ele>
        <time>2018-08-16T10:38:28Z</time>
      </trkpt>
      <trkpt lat="45.87359" lon="4.64805">
        <ele>212</ele>
        <time>2018-08-16T10:38:29Z</time>
      </trkpt>
      <trkpt lat="45.87356" lon="4.64812">
        <ele>212</ele>
        <time>2018-08-16T10:38:30Z</time>
      </trkpt>
      <trkpt lat="45.87351" lon="4.64817">
        <ele>212</ele>
        <time>2018-08-16T10:38:31Z</time>
      </trkpt>
      <trkpt lat="45.87347" lon="4.64827">
        <ele>211</ele>
        <time>2018-08-16T10:38:32Z</time>
      </trkpt>
      <trkpt lat="45.87343" lon="4.64834">
        <ele>212</ele>
        <time>2018-08-16T10:38:33Z</time>
      </trkpt>
      <trkpt lat="45.8734" lon="4.64841">
        <ele>212</ele>
        <time>2018-08-16T10:38:34Z</time>
      </trkpt>
      <trkpt lat="45.87336" lon="4.64846">
        <ele>212</ele>
        <time>2018-08-16T10:38:35Z</time>
      </trkpt>
      <trkpt lat="45.87332" lon="4.64854">
        <ele>211</ele>
        <time>2018-08-16T10:38:36Z</time>
      </trkpt>
      <trkpt lat="45.87326" lon="4.64857">
        <ele>211</ele>
        <time>2018-08-16T10:38:37Z</time>
      </trkpt>
      <trkpt lat="45.87323" lon="4.64865">
        <ele>211</ele>
        <time>2018-08-16T10:38:38Z</time>
      </trkpt>
      <trkpt lat="45.87319" lon="4.64871">
        <ele>211</ele>
        <time>2018-08-16T10:38:39Z</time>
      </trkpt>
      <trkpt lat="45.87313" lon="4.64876">
        <ele>211</ele>
        <time>2018-08-16T10:38:40Z</time>
      </trkpt>
      <trkpt lat="45.87308" lon="4.64883">
        <ele>211</ele>
        <time>2018-08-16T10:38:41Z</time>
      </trkpt>
      <trkpt lat="45.87304" lon="4.6489">
        <ele>211</ele>
        <time>2018-08-16T10:38:42Z</time>
      </trkpt>
      <trkpt lat="45.87296" lon="4.64892">
        <ele>211</ele>
        <time>2018-08-16T10:38:43Z</time>
      </trkpt>
      <trkpt lat="45.87293" lon="4.64903">
        <ele>211</ele>
        <time>2018-08-16T10:38:44Z</time>
      </trkpt>
      <trkpt lat="45.87288" lon="4.64908">
        <ele>211</ele>
        <time>2018-08-16T10:38:45Z</time>
      </trkpt>
      <trkpt lat="45.87283" lon="4.64915">
        <ele>211</ele>
        <time>2018-08-16T10:38:46Z</time>
      </trkpt>
      <trkpt lat="45.87279" lon="4.6492">
        <ele>212</ele>
        <time>2018-08-16T10:38:47Z</time>
      </trkpt>
      <trkpt lat="45.87275" lon="4.64927">
        <ele>212</ele>
        <time>2018-08-16T10:38:48Z</time>
      </trkpt>
      <trkpt lat="45.8727" lon="4.64933">
        <ele>212</ele>
        <time>2018-08-16T10:38:49Z</time>
      </trkpt>
      <trkpt lat="45.87266" lon="4.6494">
        <ele>212</ele>
        <time>2018-08-16T10:38:50Z</time>
      </trkpt>
      <trkpt lat="45.87262" lon="4.64946">
        <ele>212</ele>
        <time>2018-08-16T10:38:51Z</time>
      </trkpt>
      <trkpt lat="45.87257" lon="4.6495">
        <ele>212</ele>
        <time>2018-08-16T10:38:52Z</time>
      </trkpt>
      <trkpt lat="45.87253" lon="4.64957">
        <ele>212</ele>
        <time>2018-08-16T10:38:53Z</time>
      </trkpt>
      <trkpt lat="45.87252" lon="4.64966">
        <ele>212</ele>
        <time>2018-08-16T10:38:54Z</time>
      </trkpt>
      <trkpt lat="45.87248" lon="4.64973">
        <ele>211</ele>
        <time>2018-08-16T10:38:55Z</time>
      </trkpt>
      <trkpt lat="45.87246" lon="4.6498">
        <ele>211</ele>
        <time>2018-08-16T10:38:56Z</time>
      </trkpt>
      <trkpt lat="45.87242" lon="4.64986">
        <ele>211</ele>
        <time>2018-08-16T10:38:57Z</time>
      </trkpt>
      <trkpt lat="45.87238" lon="4.64992">
        <ele>211</ele>
        <time>2018-08-16T10:38:58Z</time>
      </trkpt>
      <trkpt lat="45.87234" lon="4.64998">
        <ele>211</ele>
        <time>2018-08-16T10:38:59Z</time>
      </trkpt>
      <trkpt lat="45.87229" lon="4.65004">
        <ele>212</ele>
        <time>2018-08-16T10:39:00Z</time>
      </trkpt>
      <trkpt lat="45.87225" lon="4.6501">
        <ele>212</ele>
        <time>2018-08-16T10:39:01Z</time>
      </trkpt>
      <trkpt lat="45.87221" lon="4.65017">
        <ele>212</ele>
        <time>2018-08-16T10:39:02Z</time>
      </trkpt>
      <trkpt lat="45.87216" lon="4.65023">
        <ele>212</ele>
        <time>2018-08-16T10:39:03Z</time>
      </trkpt>
      <trkpt lat="45.87211" lon="4.6503">
        <ele>212</ele>
        <time>2018-08-16T10:39:04Z</time>
      </trkpt>
      <trkpt lat="45.87209" lon="4.65039">
        <ele>212</ele>
        <time>2018-08-16T10:39:05Z</time>
      </trkpt>
      <trkpt lat="45.87204" lon="4.65046">
        <ele>212</ele>
        <time>2018-08-16T10:39:06Z</time>
      </trkpt>
      <trkpt lat="45.872" lon="4.65052">
        <ele>212</ele>
        <time>2018-08-16T10:39:07Z</time>
      </trkpt>
      <trkpt lat="45.87194" lon="4.65059">
        <ele>212</ele>
        <time>2018-08-16T10:39:08Z</time>
      </trkpt>
      <trkpt lat="45.8719" lon="4.65065">
        <ele>212</ele>
        <time>2018-08-16T10:39:09Z</time>
      </trkpt>
      <trkpt lat="45.87186" lon="4.65074">
        <ele>212</ele>
        <time>2018-08-16T10:39:10Z</time>
      </trkpt>
      <trkpt lat="45.87181" lon="4.65081">
        <ele>211</ele>
        <time>2018-08-16T10:39:11Z</time>
      </trkpt>
      <trkpt lat="45.87176" lon="4.65088">
        <ele>214</ele>
        <time>2018-08-16T10:39:12Z</time>
      </trkpt>
      <trkpt lat="45.87172" lon="4.65095">
        <ele>215</ele>
        <time>2018-08-16T10:39:13Z</time>
      </trkpt>
      <trkpt lat="45.87168" lon="4.65103">
        <ele>216</ele>
        <time>2018-08-16T10:39:14Z</time>
      </trkpt>
      <trkpt lat="45.87163" lon="4.6511">
        <ele>213</ele>
        <time>2018-08-16T10:39:15Z</time>
      </trkpt>
      <trkpt lat="45.8716" lon="4.65119">
        <ele>213</ele>
        <time>2018-08-16T10:39:16Z</time>
      </trkpt>
      <trkpt lat="45.87157" lon="4.65127">
        <ele>214</ele>
        <time>2018-08-16T10:39:17Z</time>
      </trkpt>
      <trkpt lat="45.87153" lon="4.65131">
        <ele>214</ele>
        <time>2018-08-16T10:39:18Z</time>
      </trkpt>
      <trkpt lat="45.87148" lon="4.65137">
        <ele>214</ele>
        <time>2018-08-16T10:39:19Z</time>
      </trkpt>
      <trkpt lat="45.87144" lon="4.65141">
        <ele>214</ele>
        <time>2018-08-16T10:39:20Z</time>
      </trkpt>
      <trkpt lat="45.87141" lon="4.65148">
        <ele>215</ele>
        <time>2018-08-16T10:39:21Z</time>
      </trkpt>
      <trkpt lat="45.87138" lon="4.65155">
        <ele>215</ele>
        <time>2018-08-16T10:39:22Z</time>
      </trkpt>
      <trkpt lat="45.87134" lon="4.65162">
        <ele>215</ele>
        <time>2018-08-16T10:39:23Z</time>
      </trkpt>
      <trkpt lat="45.87131" lon="4.65168">
        <ele>219</ele>
        <time>2018-08-16T10:39:24Z</time>
      </trkpt>
      <trkpt lat="45.87127" lon="4.65174">
        <ele>219</ele>
        <time>2018-08-16T10:39:25Z</time>
      </trkpt>
      <trkpt lat="45.87123" lon="4.65181">
        <ele>219</ele>
        <time>2018-08-16T10:39:26Z</time>
      </trkpt>
      <trkpt lat="45.87119" lon="4.6519">
        <ele>219</ele>
        <time>2018-08-16T10:39:27Z</time>
      </trkpt>
      <trkpt lat="45.87113" lon="4.65199">
        <ele>219</ele>
        <time>2018-08-16T10:39:28Z</time>
      </trkpt>
      <trkpt lat="45.87109" lon="4.65205">
        <ele>219</ele>
        <time>2018-08-16T10:39:29Z</time>
      </trkpt>
      <trkpt lat="45.87105" lon="4.65211">
        <ele>218</ele>
        <time>2018-08-16T10:39:30Z</time>
      </trkpt>
      <trkpt lat="45.871" lon="4.65218">
        <ele>218</ele>
        <time>2018-08-16T10:39:31Z</time>
      </trkpt>
      <trkpt lat="45.87097" lon="4.65223">
        <ele>218</ele>
        <time>2018-08-16T10:39:32Z</time>
      </trkpt>
      <trkpt lat="45.87093" lon="4.6523">
        <ele>217</ele>
        <time>2018-08-16T10:39:33Z</time>
      </trkpt>
      <trkpt lat="45.87089" lon="4.65235">
        <ele>216</ele>
        <time>2018-08-16T10:39:34Z</time>
      </trkpt>
      <trkpt lat="45.87085" lon="4.65241">
        <ele>215</ele>
        <time>2018-08-16T10:39:35Z</time>
      </trkpt>
      <trkpt lat="45.8708" lon="4.65249">
        <ele>213</ele>
        <time>2018-08-16T10:39:36Z</time>
      </trkpt>
      <trkpt lat="45.87077" lon="4.65255">
        <ele>214</ele>
        <time>2018-08-16T10:39:37Z</time>
      </trkpt>
      <trkpt lat="45.87076" lon="4.65266">
        <ele>214</ele>
        <time>2018-08-16T10:39:38Z</time>
      </trkpt>
      <trkpt lat="45.87073" lon="4.65276">
        <ele>215</ele>
        <time>2018-08-16T10:39:39Z</time>
      </trkpt>
      <trkpt lat="45.8707" lon="4.65284">
        <ele>216</ele>
        <time>2018-08-16T10:39:40Z</time>
      </trkpt>
      <trkpt lat="45.87068" lon="4.6529">
        <ele>216</ele>
        <time>2018-08-16T10:39:41Z</time>
      </trkpt>
      <trkpt lat="45.87066" lon="4.65299">
        <ele>217</ele>
        <time>2018-08-16T10:39:42Z</time>
      </trkpt>
      <trkpt lat="45.87062" lon="4.65305">
        <ele>217</ele>
        <time>2018-08-16T10:39:43Z</time>
      </trkpt>
      <trkpt lat="45.87059" lon="4.65313">
        <ele>217</ele>
        <time>2018-08-16T10:39:44Z</time>
      </trkpt>
      <trkpt lat="45.87056" lon="4.65318">
        <ele>217</ele>
        <time>2018-08-16T10:39:45Z</time>
      </trkpt>
      <trkpt lat="45.87053" lon="4.65324">
        <ele>217</ele>
        <time>2018-08-16T10:39:46Z</time>
      </trkpt>
      <trkpt lat="45.8705" lon="4.65329">
        <ele>217</ele>
        <time>2018-08-16T10:39:47Z</time>
      </trkpt>
      <trkpt lat="45.87046" lon="4.65335">
        <ele>223</ele>
        <time>2018-08-16T10:39:48Z</time>
      </trkpt>
      <trkpt lat="45.87041" lon="4.65339">
        <ele>222</ele>
        <time>2018-08-16T10:39:49Z</time>
      </trkpt>
      <trkpt lat="45.87036" lon="4.65346">
        <ele>222</ele>
        <time>2018-08-16T10:39:50Z</time>
      </trkpt>
      <trkpt lat="45.87031" lon="4.6535">
        <ele>222</ele>
        <time>2018-08-16T10:39:51Z</time>
      </trkpt>
      <trkpt lat="45.87027" lon="4.65355">
        <ele>222</ele>
        <time>2018-08-16T10:39:52Z</time>
      </trkpt>
      <trkpt lat="45.87023" lon="4.6536">
        <ele>222</ele>
        <time>2018-08-16T10:39:53Z</time>
      </trkpt>
      <trkpt lat="45.87017" lon="4.65366">
        <ele>222</ele>
        <time>2018-08-16T10:39:54Z</time>
      </trkpt>
      <trkpt lat="45.87013" lon="4.6537">
        <ele>222</ele>
        <time>2018-08-16T10:39:55Z</time>
      </trkpt>
      <trkpt lat="45.87009" lon="4.65377">
        <ele>222</ele>
        <time>2018-08-16T10:39:56Z</time>
      </trkpt>
      <trkpt lat="45.87005" lon="4.65382">
        <ele>222</ele>
        <time>2018-08-16T10:39:57Z</time>
      </trkpt>
      <trkpt lat="45.87001" lon="4.65387">
        <ele>222</ele>
        <time>2018-08-16T10:39:58Z</time>
      </trkpt>
      <trkpt lat="45.86996" lon="4.65393">
        <ele>217</ele>
        <time>2018-08-16T10:39:59Z</time>
      </trkpt>
      <trkpt lat="45.86991" lon="4.65398">
        <ele>217</ele>
        <time>2018-08-16T10:40:00Z</time>
      </trkpt>
      <trkpt lat="45.86987" lon="4.65402">
        <ele>217</ele>
        <time>2018-08-16T10:40:01Z</time>
      </trkpt>
      <trkpt lat="45.86983" lon="4.65407">
        <ele>217</ele>
        <time>2018-08-16T10:40:02Z</time>
      </trkpt>
      <trkpt lat="45.86979" lon="4.65412">
        <ele>217</ele>
        <time>2018-08-16T10:40:03Z</time>
      </trkpt>
      <trkpt lat="45.86974" lon="4.65416">
        <ele>217</ele>
        <time>2018-08-16T10:40:04Z</time>
      </trkpt>
      <trkpt lat="45.8697" lon="4.65421">
        <ele>221</ele>
        <time>2018-08-16T10:40:05Z</time>
      </trkpt>
      <trkpt lat="45.86966" lon="4.65424">
        <ele>221</ele>
        <time>2018-08-16T10:40:06Z</time>
      </trkpt>
      <trkpt lat="45.86963" lon="4.65431">
        <ele>221</ele>
        <time>2018-08-16T10:40:07Z</time>
      </trkpt>
      <trkpt lat="45.86959" lon="4.65436">
        <ele>221</ele>
        <time>2018-08-16T10:40:08Z</time>
      </trkpt>
      <trkpt lat="45.86955" lon="4.65439">
        <ele>221</ele>
        <time>2018-08-16T10:40:09Z</time>
      </trkpt>
      <trkpt lat="45.86951" lon="4.65447">
        <ele>221</ele>
        <time>2018-08-16T10:40:10Z</time>
      </trkpt>
      <trkpt lat="45.86947" lon="4.65451">
        <ele>221</ele>
        <time>2018-08-16T10:40:11Z</time>
      </trkpt>
      <trkpt lat="45.86942" lon="4.6546">
        <ele>221</ele>
        <time>2018-08-16T10:40:12Z</time>
      </trkpt>
      <trkpt lat="45.86939" lon="4.65466">
        <ele>221</ele>
        <time>2018-08-16T10:40:13Z</time>
      </trkpt>
      <trkpt lat="45.86937" lon="4.65476">
        <ele>221</ele>
        <time>2018-08-16T10:40:14Z</time>
      </trkpt>
      <trkpt lat="45.86932" lon="4.65479">
        <ele>221</ele>
        <time>2018-08-16T10:40:15Z</time>
      </trkpt>
      <trkpt lat="45.86929" lon="4.65488">
        <ele>220</ele>
        <time>2018-08-16T10:40:16Z</time>
      </trkpt>
      <trkpt lat="45.86925" lon="4.65494">
        <ele>220</ele>
        <time>2018-08-16T10:40:17Z</time>
      </trkpt>
      <trkpt lat="45.86922" lon="4.65502">
        <ele>221</ele>
        <time>2018-08-16T10:40:18Z</time>
      </trkpt>
      <trkpt lat="45.86919" lon="4.65509">
        <ele>223</ele>
        <time>2018-08-16T10:40:19Z</time>
      </trkpt>
      <trkpt lat="45.86916" lon="4.65515">
        <ele>218</ele>
        <time>2018-08-16T10:40:20Z</time>
      </trkpt>
      <trkpt lat="45.86913" lon="4.6552">
        <ele>218</ele>
        <time>2018-08-16T10:40:21Z</time>
      </trkpt>
      <trkpt lat="45.86911" lon="4.65526">
        <ele>218</ele>
        <time>2018-08-16T10:40:22Z</time>
      </trkpt>
      <trkpt lat="45.86909" lon="4.65533">
        <ele>218</ele>
        <time>2018-08-16T10:40:23Z</time>
      </trkpt>
      <trkpt lat="45.86907" lon="4.65539">
        <ele>218</ele>
        <time>2018-08-16T10:40:24Z</time>
      </trkpt>
      <trkpt lat="45.86905" lon="4.65545">
        <ele>219</ele>
        <time>2018-08-16T10:40:25Z</time>
      </trkpt>
      <trkpt lat="45.86904" lon="4.6555">
        <ele>219</ele>
        <time>2018-08-16T10:40:26Z</time>
      </trkpt>
      <trkpt lat="45.86902" lon="4.65558">
        <ele>220</ele>
        <time>2018-08-16T10:40:27Z</time>
      </trkpt>
      <trkpt lat="45.86902" lon="4.65567">
        <ele>221</ele>
        <time>2018-08-16T10:40:28Z</time>
      </trkpt>
      <trkpt lat="45.869" lon="4.65573">
        <ele>221</ele>
        <time>2018-08-16T10:40:29Z</time>
      </trkpt>
      <trkpt lat="45.86897" lon="4.65583">
        <ele>221</ele>
        <time>2018-08-16T10:40:31Z</time>
      </trkpt>
      <trkpt lat="45.86896" lon="4.65592">
        <ele>223</ele>
        <time>2018-08-16T10:40:32Z</time>
      </trkpt>
      <trkpt lat="45.86895" lon="4.656">
        <ele>222</ele>
        <time>2018-08-16T10:40:33Z</time>
      </trkpt>
      <trkpt lat="45.86893" lon="4.65606">
        <ele>222</ele>
        <time>2018-08-16T10:40:34Z</time>
      </trkpt>
      <trkpt lat="45.86891" lon="4.65612">
        <ele>222</ele>
        <time>2018-08-16T10:40:35Z</time>
      </trkpt>
      <trkpt lat="45.8689" lon="4.65621">
        <ele>222</ele>
        <time>2018-08-16T10:40:36Z</time>
      </trkpt>
      <trkpt lat="45.8689" lon="4.65627">
        <ele>222</ele>
        <time>2018-08-16T10:40:37Z</time>
      </trkpt>
      <trkpt lat="45.86889" lon="4.65634">
        <ele>222</ele>
        <time>2018-08-16T10:40:38Z</time>
      </trkpt>
      <trkpt lat="45.86889" lon="4.65641">
        <ele>223</ele>
        <time>2018-08-16T10:40:39Z</time>
      </trkpt>
      <trkpt lat="45.86889" lon="4.65648">
        <ele>223</ele>
        <time>2018-08-16T10:40:40Z</time>
      </trkpt>
      <trkpt lat="45.86888" lon="4.65656">
        <ele>223</ele>
        <time>2018-08-16T10:40:41Z</time>
      </trkpt>
      <trkpt lat="45.86887" lon="4.65663">
        <ele>223</ele>
        <time>2018-08-16T10:40:42Z</time>
      </trkpt>
      <trkpt lat="45.86886" lon="4.65675">
        <ele>223</ele>
        <time>2018-08-16T10:40:44Z</time>
      </trkpt>
      <trkpt lat="45.86885" lon="4.65682">
        <ele>223</ele>
        <time>2018-08-16T10:40:45Z</time>
      </trkpt>
      <trkpt lat="45.86885" lon="4.6569">
        <ele>222</ele>
        <time>2018-08-16T10:40:46Z</time>
      </trkpt>
      <trkpt lat="45.86884" lon="4.65698">
        <ele>222</ele>
        <time>2018-08-16T10:40:47Z</time>
      </trkpt>
      <trkpt lat="45.86883" lon="4.65706">
        <ele>222</ele>
        <time>2018-08-16T10:40:48Z</time>
      </trkpt>
      <trkpt lat="45.86883" lon="4.65714">
        <ele>222</ele>
        <time>2018-08-16T10:40:49Z</time>
      </trkpt>
      <trkpt lat="45.86882" lon="4.65722">
        <ele>222</ele>
        <time>2018-08-16T10:40:50Z</time>
      </trkpt>
      <trkpt lat="45.86881" lon="4.6573">
        <ele>222</ele>
        <time>2018-08-16T10:40:51Z</time>
      </trkpt>
      <trkpt lat="45.8688" lon="4.65738">
        <ele>222</ele>
        <time>2018-08-16T10:40:52Z</time>
      </trkpt>
      <trkpt lat="45.86879" lon="4.65746">
        <ele>222</ele>
        <time>2018-08-16T10:40:53Z</time>
      </trkpt>
      <trkpt lat="45.86879" lon="4.65753">
        <ele>222</ele>
        <time>2018-08-16T10:40:54Z</time>
      </trkpt>
      <trkpt lat="45.86877" lon="4.65759">
        <ele>222</ele>
        <time>2018-08-16T10:40:55Z</time>
      </trkpt>
      <trkpt lat="45.86877" lon="4.65767">
        <ele>222</ele>
        <time>2018-08-16T10:40:56Z</time>
      </trkpt>
      <trkpt lat="45.86875" lon="4.65774">
        <ele>222</ele>
        <time>2018-08-16T10:40:57Z</time>
      </trkpt>
      <trkpt lat="45.86873" lon="4.65782">
        <ele>222</ele>
        <time>2018-08-16T10:40:58Z</time>
      </trkpt>
      <trkpt lat="45.86872" lon="4.6579">
        <ele>222</ele>
        <time>2018-08-16T10:40:59Z</time>
      </trkpt>
      <trkpt lat="45.86871" lon="4.65798">
        <ele>222</ele>
        <time>2018-08-16T10:41:00Z</time>
      </trkpt>
      <trkpt lat="45.8687" lon="4.65806">
        <ele>221</ele>
        <time>2018-08-16T10:41:01Z</time>
      </trkpt>
      <trkpt lat="45.86868" lon="4.65814">
        <ele>221</ele>
        <time>2018-08-16T10:41:02Z</time>
      </trkpt>
      <trkpt lat="45.86866" lon="4.65822">
        <ele>221</ele>
        <time>2018-08-16T10:41:03Z</time>
      </trkpt>
      <trkpt lat="45.86863" lon="4.6583">
        <ele>220</ele>
        <time>2018-08-16T10:41:04Z</time>
      </trkpt>
      <trkpt lat="45.8686" lon="4.65837">
        <ele>224</ele>
        <time>2018-08-16T10:41:05Z</time>
      </trkpt>
      <trkpt lat="45.86857" lon="4.65844">
        <ele>223</ele>
        <time>2018-08-16T10:41:06Z</time>
      </trkpt>
      <trkpt lat="45.86855" lon="4.65852">
        <ele>224</ele>
        <time>2018-08-16T10:41:07Z</time>
      </trkpt>
      <trkpt lat="45.86852" lon="4.65859">
        <ele>224</ele>
        <time>2018-08-16T10:41:08Z</time>
      </trkpt>
      <trkpt lat="45.8685" lon="4.65865">
        <ele>225</ele>
        <time>2018-08-16T10:41:09Z</time>
      </trkpt>
      <trkpt lat="45.86844" lon="4.65875">
        <ele>225</ele>
        <time>2018-08-16T10:41:11Z</time>
      </trkpt>
      <trkpt lat="45.86841" lon="4.65879">
        <ele>225</ele>
        <time>2018-08-16T10:41:12Z</time>
      </trkpt>
      <trkpt lat="45.86837" lon="4.65886">
        <ele>225</ele>
        <time>2018-08-16T10:41:13Z</time>
      </trkpt>
      <trkpt lat="45.86834" lon="4.65892">
        <ele>225</ele>
        <time>2018-08-16T10:41:14Z</time>
      </trkpt>
      <trkpt lat="45.86831" lon="4.65898">
        <ele>217</ele>
        <time>2018-08-16T10:41:15Z</time>
      </trkpt>
      <trkpt lat="45.86827" lon="4.65904">
        <ele>218</ele>
        <time>2018-08-16T10:41:16Z</time>
      </trkpt>
      <trkpt lat="45.86823" lon="4.6591">
        <ele>218</ele>
        <time>2018-08-16T10:41:17Z</time>
      </trkpt>
      <trkpt lat="45.86819" lon="4.65919">
        <ele>221</ele>
        <time>2018-08-16T10:41:18Z</time>
      </trkpt>
      <trkpt lat="45.86815" lon="4.65926">
        <ele>221</ele>
        <time>2018-08-16T10:41:19Z</time>
      </trkpt>
      <trkpt lat="45.86812" lon="4.65931">
        <ele>221</ele>
        <time>2018-08-16T10:41:20Z</time>
      </trkpt>
      <trkpt lat="45.86808" lon="4.65937">
        <ele>221</ele>
        <time>2018-08-16T10:41:21Z</time>
      </trkpt>
      <trkpt lat="45.86804" lon="4.65943">
        <ele>221</ele>
        <time>2018-08-16T10:41:22Z</time>
      </trkpt>
      <trkpt lat="45.868" lon="4.65949">
        <ele>221</ele>
        <time>2018-08-16T10:41:23Z</time>
      </trkpt>
      <trkpt lat="45.86796" lon="4.65955">
        <ele>221</ele>
        <time>2018-08-16T10:41:24Z</time>
      </trkpt>
      <trkpt lat="45.86793" lon="4.65963">
        <ele>222</ele>
        <time>2018-08-16T10:41:25Z</time>
      </trkpt>
      <trkpt lat="45.86788" lon="4.65969">
        <ele>221</ele>
        <time>2018-08-16T10:41:26Z</time>
      </trkpt>
      <trkpt lat="45.86784" lon="4.65974">
        <ele>221</ele>
        <time>2018-08-16T10:41:27Z</time>
      </trkpt>
      <trkpt lat="45.8678" lon="4.65979">
        <ele>221</ele>
        <time>2018-08-16T10:41:28Z</time>
      </trkpt>
      <trkpt lat="45.86776" lon="4.65985">
        <ele>220</ele>
        <time>2018-08-16T10:41:29Z</time>
      </trkpt>
      <trkpt lat="45.8677" lon="4.6599">
        <ele>220</ele>
        <time>2018-08-16T10:41:30Z</time>
      </trkpt>
      <trkpt lat="45.86766" lon="4.65996">
        <ele>219</ele>
        <time>2018-08-16T10:41:31Z</time>
      </trkpt>
      <trkpt lat="45.86761" lon="4.66002">
        <ele>224</ele>
        <time>2018-08-16T10:41:32Z</time>
      </trkpt>
      <trkpt lat="45.86756" lon="4.66009">
        <ele>223</ele>
        <time>2018-08-16T10:41:33Z</time>
      </trkpt>
      <trkpt lat="45.86751" lon="4.66014">
        <ele>225</ele>
        <time>2018-08-16T10:41:34Z</time>
      </trkpt>
      <trkpt lat="45.86746" lon="4.66019">
        <ele>220</ele>
        <time>2018-08-16T10:41:35Z</time>
      </trkpt>
      <trkpt lat="45.86741" lon="4.66023">
        <ele>220</ele>
        <time>2018-08-16T10:41:36Z</time>
      </trkpt>
      <trkpt lat="45.86736" lon="4.66026">
        <ele>221</ele>
        <time>2018-08-16T10:41:37Z</time>
      </trkpt>
      <trkpt lat="45.8673" lon="4.66029">
        <ele>221</ele>
        <time>2018-08-16T10:41:38Z</time>
      </trkpt>
      <trkpt lat="45.86725" lon="4.66033">
        <ele>221</ele>
        <time>2018-08-16T10:41:39Z</time>
      </trkpt>
      <trkpt lat="45.8672" lon="4.66036">
        <ele>221</ele>
        <time>2018-08-16T10:41:40Z</time>
      </trkpt>
      <trkpt lat="45.86715" lon="4.6604">
        <ele>222</ele>
        <time>2018-08-16T10:41:41Z</time>
      </trkpt>
      <trkpt lat="45.8671" lon="4.66044">
        <ele>222</ele>
        <time>2018-08-16T10:41:42Z</time>
      </trkpt>
      <trkpt lat="45.86704" lon="4.66047">
        <ele>221</ele>
        <time>2018-08-16T10:41:43Z</time>
      </trkpt>
      <trkpt lat="45.86698" lon="4.6605">
        <ele>221</ele>
        <time>2018-08-16T10:41:44Z</time>
      </trkpt>
      <trkpt lat="45.86692" lon="4.66051">
        <ele>221</ele>
        <time>2018-08-16T10:41:45Z</time>
      </trkpt>
      <trkpt lat="45.86685" lon="4.66054">
        <ele>220</ele>
        <time>2018-08-16T10:41:46Z</time>
      </trkpt>
      <trkpt lat="45.86678" lon="4.66057">
        <ele>220</ele>
        <time>2018-08-16T10:41:47Z</time>
      </trkpt>
      <trkpt lat="45.8667" lon="4.66059">
        <ele>220</ele>
        <time>2018-08-16T10:41:48Z</time>
      </trkpt>
      <trkpt lat="45.86665" lon="4.66064">
        <ele>215</ele>
        <time>2018-08-16T10:41:49Z</time>
      </trkpt>
      <trkpt lat="45.86658" lon="4.66066">
        <ele>215</ele>
        <time>2018-08-16T10:41:50Z</time>
      </trkpt>
      <trkpt lat="45.86652" lon="4.66068">
        <ele>215</ele>
        <time>2018-08-16T10:41:51Z</time>
      </trkpt>
      <trkpt lat="45.86647" lon="4.66073">
        <ele>214</ele>
        <time>2018-08-16T10:41:52Z</time>
      </trkpt>
      <trkpt lat="45.86642" lon="4.66076">
        <ele>214</ele>
        <time>2018-08-16T10:41:53Z</time>
      </trkpt>
      <trkpt lat="45.86636" lon="4.66078">
        <ele>213</ele>
        <time>2018-08-16T10:41:54Z</time>
      </trkpt>
      <trkpt lat="45.8663" lon="4.6608">
        <ele>213</ele>
        <time>2018-08-16T10:41:55Z</time>
      </trkpt>
      <trkpt lat="45.86624" lon="4.66082">
        <ele>213</ele>
        <time>2018-08-16T10:41:56Z</time>
      </trkpt>
      <trkpt lat="45.86619" lon="4.66086">
        <ele>221</ele>
        <time>2018-08-16T10:41:57Z</time>
      </trkpt>
      <trkpt lat="45.86613" lon="4.66091">
        <ele>221</ele>
        <time>2018-08-16T10:41:58Z</time>
      </trkpt>
      <trkpt lat="45.86607" lon="4.66095">
        <ele>220</ele>
        <time>2018-08-16T10:41:59Z</time>
      </trkpt>
      <trkpt lat="45.86602" lon="4.66099">
        <ele>220</ele>
        <time>2018-08-16T10:42:00Z</time>
      </trkpt>
      <trkpt lat="45.86597" lon="4.66101">
        <ele>219</ele>
        <time>2018-08-16T10:42:01Z</time>
      </trkpt>
      <trkpt lat="45.86592" lon="4.66105">
        <ele>220</ele>
        <time>2018-08-16T10:42:02Z</time>
      </trkpt>
      <trkpt lat="45.86587" lon="4.66109">
        <ele>220</ele>
        <time>2018-08-16T10:42:03Z</time>
      </trkpt>
      <trkpt lat="45.86583" lon="4.66112">
        <ele>214</ele>
        <time>2018-08-16T10:42:04Z</time>
      </trkpt>
      <trkpt lat="45.86574" lon="4.66116">
        <ele>215</ele>
        <time>2018-08-16T10:42:06Z</time>
      </trkpt>
      <trkpt lat="45.8657" lon="4.6612">
        <ele>215</ele>
        <time>2018-08-16T10:42:07Z</time>
      </trkpt>
      <trkpt lat="45.86565" lon="4.66124">
        <ele>216</ele>
        <time>2018-08-16T10:42:08Z</time>
      </trkpt>
      <trkpt lat="45.86561" lon="4.66129">
        <ele>216</ele>
        <time>2018-08-16T10:42:09Z</time>
      </trkpt>
      <trkpt lat="45.86557" lon="4.66132">
        <ele>216</ele>
        <time>2018-08-16T10:42:10Z</time>
      </trkpt>
      <trkpt lat="45.86553" lon="4.66136">
        <ele>216</ele>
        <time>2018-08-16T10:42:11Z</time>
      </trkpt>
      <trkpt lat="45.86547" lon="4.66141">
        <ele>216</ele>
        <time>2018-08-16T10:42:12Z</time>
      </trkpt>
      <trkpt lat="45.86543" lon="4.66145">
        <ele>216</ele>
        <time>2018-08-16T10:42:13Z</time>
      </trkpt>
      <trkpt lat="45.86539" lon="4.6615">
        <ele>216</ele>
        <time>2018-08-16T10:42:14Z</time>
      </trkpt>
      <trkpt lat="45.86534" lon="4.66154">
        <ele>216</ele>
        <time>2018-08-16T10:42:15Z</time>
      </trkpt>
      <trkpt lat="45.8653" lon="4.66158">
        <ele>216</ele>
        <time>2018-08-16T10:42:16Z</time>
      </trkpt>
      <trkpt lat="45.86521" lon="4.66163">
        <ele>216</ele>
        <time>2018-08-16T10:42:17Z</time>
      </trkpt>
      <trkpt lat="45.86515" lon="4.66168">
        <ele>220</ele>
        <time>2018-08-16T10:42:18Z</time>
      </trkpt>
      <trkpt lat="45.86509" lon="4.66171">
        <ele>219</ele>
        <time>2018-08-16T10:42:19Z</time>
      </trkpt>
      <trkpt lat="45.86502" lon="4.66172">
        <ele>217</ele>
        <time>2018-08-16T10:42:20Z</time>
      </trkpt>
      <trkpt lat="45.86497" lon="4.66174">
        <ele>216</ele>
        <time>2018-08-16T10:42:21Z</time>
      </trkpt>
      <trkpt lat="45.86489" lon="4.66178">
        <ele>216</ele>
        <time>2018-08-16T10:42:22Z</time>
      </trkpt>
      <trkpt lat="45.86483" lon="4.66183">
        <ele>216</ele>
        <time>2018-08-16T10:42:23Z</time>
      </trkpt>
      <trkpt lat="45.86476" lon="4.66185">
        <ele>216</ele>
        <time>2018-08-16T10:42:24Z</time>
      </trkpt>
      <trkpt lat="45.8647" lon="4.66188">
        <ele>217</ele>
        <time>2018-08-16T10:42:25Z</time>
      </trkpt>
      <trkpt lat="45.86464" lon="4.66189">
        <ele>216</ele>
        <time>2018-08-16T10:42:26Z</time>
      </trkpt>
      <trkpt lat="45.86458" lon="4.66194">
        <ele>216</ele>
        <time>2018-08-16T10:42:27Z</time>
      </trkpt>
      <trkpt lat="45.86451" lon="4.66197">
        <ele>216</ele>
        <time>2018-08-16T10:42:28Z</time>
      </trkpt>
      <trkpt lat="45.86445" lon="4.662">
        <ele>216</ele>
        <time>2018-08-16T10:42:29Z</time>
      </trkpt>
      <trkpt lat="45.86439" lon="4.66203">
        <ele>216</ele>
        <time>2018-08-16T10:42:30Z</time>
      </trkpt>
      <trkpt lat="45.86434" lon="4.66205">
        <ele>216</ele>
        <time>2018-08-16T10:42:31Z</time>
      </trkpt>
      <trkpt lat="45.86427" lon="4.66206">
        <ele>216</ele>
        <time>2018-08-16T10:42:32Z</time>
      </trkpt>
      <trkpt lat="45.86421" lon="4.66208">
        <ele>216</ele>
        <time>2018-08-16T10:42:33Z</time>
      </trkpt>
      <trkpt lat="45.86415" lon="4.66209">
        <ele>213</ele>
        <time>2018-08-16T10:42:34Z</time>
      </trkpt>
      <trkpt lat="45.86409" lon="4.6621">
        <ele>213</ele>
        <time>2018-08-16T10:42:35Z</time>
      </trkpt>
      <trkpt lat="45.86404" lon="4.66211">
        <ele>213</ele>
        <time>2018-08-16T10:42:36Z</time>
      </trkpt>
      <trkpt lat="45.86399" lon="4.66212">
        <ele>213</ele>
        <time>2018-08-16T10:42:37Z</time>
      </trkpt>
      <trkpt lat="45.86394" lon="4.66213">
        <ele>213</ele>
        <time>2018-08-16T10:42:38Z</time>
      </trkpt>
      <trkpt lat="45.86389" lon="4.66214">
        <ele>213</ele>
        <time>2018-08-16T10:42:39Z</time>
      </trkpt>
      <trkpt lat="45.86382" lon="4.66216">
        <ele>213</ele>
        <time>2018-08-16T10:42:40Z</time>
      </trkpt>
      <trkpt lat="45.86378" lon="4.66218">
        <ele>213</ele>
        <time>2018-08-16T10:42:41Z</time>
      </trkpt>
      <trkpt lat="45.86374" lon="4.66222">
        <ele>213</ele>
        <time>2018-08-16T10:42:42Z</time>
      </trkpt>
      <trkpt lat="45.86369" lon="4.66224">
        <ele>213</ele>
        <time>2018-08-16T10:42:43Z</time>
      </trkpt>
      <trkpt lat="45.86364" lon="4.66226">
        <ele>213</ele>
        <time>2018-08-16T10:42:44Z</time>
      </trkpt>
      <trkpt lat="45.86359" lon="4.66229">
        <ele>213</ele>
        <time>2018-08-16T10:42:45Z</time>
      </trkpt>
      <trkpt lat="45.86353" lon="4.66233">
        <ele>213</ele>
        <time>2018-08-16T10:42:46Z</time>
      </trkpt>
      <trkpt lat="45.86347" lon="4.66236">
        <ele>213</ele>
        <time>2018-08-16T10:42:47Z</time>
      </trkpt>
      <trkpt lat="45.86342" lon="4.6624">
        <ele>213</ele>
        <time>2018-08-16T10:42:48Z</time>
      </trkpt>
      <trkpt lat="45.86336" lon="4.66244">
        <ele>213</ele>
        <time>2018-08-16T10:42:49Z</time>
      </trkpt>
      <trkpt lat="45.8633" lon="4.66248">
        <ele>212</ele>
        <time>2018-08-16T10:42:50Z</time>
      </trkpt>
      <trkpt lat="45.86325" lon="4.66255">
        <ele>213</ele>
        <time>2018-08-16T10:42:51Z</time>
      </trkpt>
      <trkpt lat="45.8632" lon="4.66259">
        <ele>213</ele>
        <time>2018-08-16T10:42:52Z</time>
      </trkpt>
      <trkpt lat="45.86315" lon="4.66263">
        <ele>213</ele>
        <time>2018-08-16T10:42:53Z</time>
      </trkpt>
      <trkpt lat="45.86311" lon="4.66269">
        <ele>213</ele>
        <time>2018-08-16T10:42:54Z</time>
      </trkpt>
      <trkpt lat="45.86307" lon="4.66273">
        <ele>213</ele>
        <time>2018-08-16T10:42:55Z</time>
      </trkpt>
      <trkpt lat="45.86302" lon="4.66278">
        <ele>213</ele>
        <time>2018-08-16T10:42:56Z</time>
      </trkpt>
      <trkpt lat="45.86297" lon="4.66283">
        <ele>213</ele>
        <time>2018-08-16T10:42:57Z</time>
      </trkpt>
      <trkpt lat="45.86293" lon="4.66286">
        <ele>213</ele>
        <time>2018-08-16T10:42:58Z</time>
      </trkpt>
      <trkpt lat="45.86288" lon="4.66292">
        <ele>213</ele>
        <time>2018-08-16T10:42:59Z</time>
      </trkpt>
      <trkpt lat="45.86284" lon="4.66298">
        <ele>213</ele>
        <time>2018-08-16T10:43:00Z</time>
      </trkpt>
      <trkpt lat="45.86281" lon="4.66304">
        <ele>213</ele>
        <time>2018-08-16T10:43:01Z</time>
      </trkpt>
      <trkpt lat="45.86277" lon="4.6631">
        <ele>213</ele>
        <time>2018-08-16T10:43:02Z</time>
      </trkpt>
      <trkpt lat="45.86274" lon="4.66316">
        <ele>213</ele>
        <time>2018-08-16T10:43:03Z</time>
      </trkpt>
      <trkpt lat="45.86269" lon="4.66324">
        <ele>213</ele>
        <time>2018-08-16T10:43:04Z</time>
      </trkpt>
      <trkpt lat="45.86266" lon="4.6633">
        <ele>212</ele>
        <time>2018-08-16T10:43:05Z</time>
      </trkpt>
      <trkpt lat="45.86262" lon="4.66338">
        <ele>214</ele>
        <time>2018-08-16T10:43:06Z</time>
      </trkpt>
      <trkpt lat="45.86258" lon="4.66345">
        <ele>214</ele>
        <time>2018-08-16T10:43:07Z</time>
      </trkpt>
      <trkpt lat="45.86253" lon="4.66353">
        <ele>215</ele>
        <time>2018-08-16T10:43:08Z</time>
      </trkpt>
      <trkpt lat="45.86249" lon="4.6636">
        <ele>212</ele>
        <time>2018-08-16T10:43:09Z</time>
      </trkpt>
      <trkpt lat="45.86245" lon="4.66367">
        <ele>212</ele>
        <time>2018-08-16T10:43:10Z</time>
      </trkpt>
      <trkpt lat="45.8624" lon="4.66373">
        <ele>212</ele>
        <time>2018-08-16T10:43:11Z</time>
      </trkpt>
      <trkpt lat="45.86236" lon="4.66379">
        <ele>212</ele>
        <time>2018-08-16T10:43:12Z</time>
      </trkpt>
      <trkpt lat="45.86233" lon="4.6639">
        <ele>212</ele>
        <time>2018-08-16T10:43:13Z</time>
      </trkpt>
      <trkpt lat="45.86229" lon="4.66395">
        <ele>212</ele>
        <time>2018-08-16T10:43:14Z</time>
      </trkpt>
      <trkpt lat="45.86225" lon="4.66403">
        <ele>212</ele>
        <time>2018-08-16T10:43:15Z</time>
      </trkpt>
      <trkpt lat="45.8622" lon="4.66409">
        <ele>212</ele>
        <time>2018-08-16T10:43:16Z</time>
      </trkpt>
      <trkpt lat="45.86217" lon="4.66416">
        <ele>212</ele>
        <time>2018-08-16T10:43:17Z</time>
      </trkpt>
      <trkpt lat="45.86212" lon="4.66421">
        <ele>213</ele>
        <time>2018-08-16T10:43:18Z</time>
      </trkpt>
      <trkpt lat="45.86211" lon="4.66431">
        <ele>213</ele>
        <time>2018-08-16T10:43:19Z</time>
      </trkpt>
      <trkpt lat="45.86208" lon="4.66441">
        <ele>213</ele>
        <time>2018-08-16T10:43:20Z</time>
      </trkpt>
      <trkpt lat="45.86205" lon="4.66447">
        <ele>213</ele>
        <time>2018-08-16T10:43:21Z</time>
      </trkpt>
      <trkpt lat="45.86202" lon="4.66453">
        <ele>213</ele>
        <time>2018-08-16T10:43:22Z</time>
      </trkpt>
      <trkpt lat="45.86197" lon="4.66458">
        <ele>213</ele>
        <time>2018-08-16T10:43:23Z</time>
      </trkpt>
      <trkpt lat="45.86194" lon="4.66464">
        <ele>213</ele>
        <time>2018-08-16T10:43:24Z</time>
      </trkpt>
      <trkpt lat="45.86189" lon="4.66467">
        <ele>213</ele>
        <time>2018-08-16T10:43:25Z</time>
      </trkpt>
      <trkpt lat="45.86185" lon="4.66471">
        <ele>212</ele>
        <time>2018-08-16T10:43:26Z</time>
      </trkpt>
      <trkpt lat="45.86183" lon="4.66477">
        <ele>212</ele>
        <time>2018-08-16T10:43:27Z</time>
      </trkpt>
      <trkpt lat="45.8618" lon="4.66482">
        <ele>212</ele>
        <time>2018-08-16T10:43:28Z</time>
      </trkpt>
      <trkpt lat="45.86177" lon="4.66487">
        <ele>212</ele>
        <time>2018-08-16T10:43:29Z</time>
      </trkpt>
      <trkpt lat="45.86174" lon="4.66493">
        <ele>211</ele>
        <time>2018-08-16T10:43:30Z</time>
      </trkpt>
      <trkpt lat="45.86169" lon="4.66496">
        <ele>211</ele>
        <time>2018-08-16T10:43:31Z</time>
      </trkpt>
      <trkpt lat="45.86166" lon="4.66503">
        <ele>210</ele>
        <time>2018-08-16T10:43:32Z</time>
      </trkpt>
      <trkpt lat="45.86165" lon="4.66511">
        <ele>211</ele>
        <time>2018-08-16T10:43:33Z</time>
      </trkpt>
      <trkpt lat="45.86162" lon="4.66517">
        <ele>212</ele>
        <time>2018-08-16T10:43:34Z</time>
      </trkpt>
      <trkpt lat="45.86158" lon="4.66522">
        <ele>212</ele>
        <time>2018-08-16T10:43:35Z</time>
      </trkpt>
      <trkpt lat="45.86155" lon="4.66527">
        <ele>213</ele>
        <time>2018-08-16T10:43:36Z</time>
      </trkpt>
      <trkpt lat="45.8615" lon="4.6653">
        <ele>213</ele>
        <time>2018-08-16T10:43:37Z</time>
      </trkpt>
      <trkpt lat="45.86147" lon="4.66533">
        <ele>213</ele>
        <time>2018-08-16T10:43:38Z</time>
      </trkpt>
      <trkpt lat="45.86143" lon="4.6654">
        <ele>213</ele>
        <time>2018-08-16T10:43:39Z</time>
      </trkpt>
      <trkpt lat="45.8614" lon="4.66544">
        <ele>213</ele>
        <time>2018-08-16T10:43:40Z</time>
      </trkpt>
      <trkpt lat="45.86135" lon="4.6655">
        <ele>214</ele>
        <time>2018-08-16T10:43:41Z</time>
      </trkpt>
      <trkpt lat="45.8613" lon="4.66554">
        <ele>213</ele>
        <time>2018-08-16T10:43:42Z</time>
      </trkpt>
      <trkpt lat="45.86128" lon="4.66561">
        <ele>214</ele>
        <time>2018-08-16T10:43:43Z</time>
      </trkpt>
      <trkpt lat="45.86124" lon="4.66566">
        <ele>214</ele>
        <time>2018-08-16T10:43:44Z</time>
      </trkpt>
      <trkpt lat="45.86119" lon="4.6657">
        <ele>213</ele>
        <time>2018-08-16T10:43:45Z</time>
      </trkpt>
      <trkpt lat="45.86113" lon="4.66573">
        <ele>213</ele>
        <time>2018-08-16T10:43:46Z</time>
      </trkpt>
      <trkpt lat="45.86108" lon="4.6658">
        <ele>212</ele>
        <time>2018-08-16T10:43:47Z</time>
      </trkpt>
      <trkpt lat="45.86104" lon="4.66583">
        <ele>212</ele>
        <time>2018-08-16T10:43:48Z</time>
      </trkpt>
      <trkpt lat="45.86099" lon="4.66585">
        <ele>216</ele>
        <time>2018-08-16T10:43:49Z</time>
      </trkpt>
      <trkpt lat="45.86094" lon="4.66589">
        <ele>215</ele>
        <time>2018-08-16T10:43:50Z</time>
      </trkpt>
      <trkpt lat="45.8609" lon="4.66589">
        <ele>214</ele>
        <time>2018-08-16T10:43:51Z</time>
      </trkpt>
      <trkpt lat="45.86086" lon="4.66592">
        <ele>214</ele>
        <time>2018-08-16T10:43:52Z</time>
      </trkpt>
      <trkpt lat="45.86081" lon="4.66595">
        <ele>211</ele>
        <time>2018-08-16T10:43:53Z</time>
      </trkpt>
      <trkpt lat="45.86078" lon="4.66599">
        <ele>212</ele>
        <time>2018-08-16T10:43:54Z</time>
      </trkpt>
      <trkpt lat="45.86072" lon="4.66601">
        <ele>212</ele>
        <time>2018-08-16T10:43:55Z</time>
      </trkpt>
      <trkpt lat="45.86068" lon="4.66605">
        <ele>213</ele>
        <time>2018-08-16T10:43:56Z</time>
      </trkpt>
      <trkpt lat="45.86063" lon="4.6661">
        <ele>213</ele>
        <time>2018-08-16T10:43:57Z</time>
      </trkpt>
      <trkpt lat="45.86058" lon="4.66613">
        <ele>213</ele>
        <time>2018-08-16T10:43:58Z</time>
      </trkpt>
      <trkpt lat="45.86053" lon="4.66618">
        <ele>213</ele>
        <time>2018-08-16T10:43:59Z</time>
      </trkpt>
      <trkpt lat="45.86048" lon="4.66623">
        <ele>213</ele>
        <time>2018-08-16T10:44:00Z</time>
      </trkpt>
      <trkpt lat="45.86042" lon="4.66627">
        <ele>213</ele>
        <time>2018-08-16T10:44:01Z</time>
      </trkpt>
      <trkpt lat="45.86037" lon="4.66632">
        <ele>213</ele>
        <time>2018-08-16T10:44:02Z</time>
      </trkpt>
      <trkpt lat="45.86031" lon="4.66636">
        <ele>213</ele>
        <time>2018-08-16T10:44:03Z</time>
      </trkpt>
      <trkpt lat="45.86026" lon="4.66641">
        <ele>213</ele>
        <time>2018-08-16T10:44:04Z</time>
      </trkpt>
      <trkpt lat="45.86022" lon="4.66647">
        <ele>213</ele>
        <time>2018-08-16T10:44:05Z</time>
      </trkpt>
      <trkpt lat="45.86018" lon="4.66652">
        <ele>213</ele>
        <time>2018-08-16T10:44:06Z</time>
      </trkpt>
      <trkpt lat="45.86013" lon="4.66657">
        <ele>212</ele>
        <time>2018-08-16T10:44:07Z</time>
      </trkpt>
      <trkpt lat="45.86008" lon="4.66663">
        <ele>212</ele>
        <time>2018-08-16T10:44:08Z</time>
      </trkpt>
      <trkpt lat="45.86004" lon="4.66667">
        <ele>213</ele>
        <time>2018-08-16T10:44:09Z</time>
      </trkpt>
      <trkpt lat="45.86" lon="4.66671">
        <ele>213</ele>
        <time>2018-08-16T10:44:10Z</time>
      </trkpt>
      <trkpt lat="45.85996" lon="4.66676">
        <ele>213</ele>
        <time>2018-08-16T10:44:11Z</time>
      </trkpt>
      <trkpt lat="45.85993" lon="4.66685">
        <ele>214</ele>
        <time>2018-08-16T10:44:12Z</time>
      </trkpt>
      <trkpt lat="45.85989" lon="4.66692">
        <ele>214</ele>
        <time>2018-08-16T10:44:13Z</time>
      </trkpt>
      <trkpt lat="45.85985" lon="4.66699">
        <ele>215</ele>
        <time>2018-08-16T10:44:14Z</time>
      </trkpt>
      <trkpt lat="45.85981" lon="4.66706">
        <ele>215</ele>
        <time>2018-08-16T10:44:15Z</time>
      </trkpt>
      <trkpt lat="45.85977" lon="4.66713">
        <ele>215</ele>
        <time>2018-08-16T10:44:16Z</time>
      </trkpt>
      <trkpt lat="45.85974" lon="4.66721">
        <ele>215</ele>
        <time>2018-08-16T10:44:17Z</time>
      </trkpt>
      <trkpt lat="45.8597" lon="4.66726">
        <ele>215</ele>
        <time>2018-08-16T10:44:18Z</time>
      </trkpt>
      <trkpt lat="45.85968" lon="4.66736">
        <ele>216</ele>
        <time>2018-08-16T10:44:19Z</time>
      </trkpt>
      <trkpt lat="45.85966" lon="4.66744">
        <ele>215</ele>
        <time>2018-08-16T10:44:20Z</time>
      </trkpt>
      <trkpt lat="45.85963" lon="4.66752">
        <ele>214</ele>
        <time>2018-08-16T10:44:21Z</time>
      </trkpt>
      <trkpt lat="45.8596" lon="4.66762">
        <ele>214</ele>
        <time>2018-08-16T10:44:22Z</time>
      </trkpt>
      <trkpt lat="45.85958" lon="4.6677">
        <ele>214</ele>
        <time>2018-08-16T10:44:23Z</time>
      </trkpt>
      <trkpt lat="45.85956" lon="4.66779">
        <ele>213</ele>
        <time>2018-08-16T10:44:24Z</time>
      </trkpt>
      <trkpt lat="45.85952" lon="4.66787">
        <ele>213</ele>
        <time>2018-08-16T10:44:25Z</time>
      </trkpt>
      <trkpt lat="45.85949" lon="4.66796">
        <ele>213</ele>
        <time>2018-08-16T10:44:26Z</time>
      </trkpt>
      <trkpt lat="45.85947" lon="4.66802">
        <ele>213</ele>
        <time>2018-08-16T10:44:27Z</time>
      </trkpt>
      <trkpt lat="45.85946" lon="4.66811">
        <ele>212</ele>
        <time>2018-08-16T10:44:28Z</time>
      </trkpt>
      <trkpt lat="45.85944" lon="4.66817">
        <ele>212</ele>
        <time>2018-08-16T10:44:29Z</time>
      </trkpt>
      <trkpt lat="45.85943" lon="4.66829">
        <ele>212</ele>
        <time>2018-08-16T10:44:30Z</time>
      </trkpt>
      <trkpt lat="45.85941" lon="4.66836">
        <ele>210</ele>
        <time>2018-08-16T10:44:31Z</time>
      </trkpt>
      <trkpt lat="45.85938" lon="4.66844">
        <ele>210</ele>
        <time>2018-08-16T10:44:32Z</time>
      </trkpt>
      <trkpt lat="45.85936" lon="4.66852">
        <ele>210</ele>
        <time>2018-08-16T10:44:33Z</time>
      </trkpt>
      <trkpt lat="45.85935" lon="4.66861">
        <ele>210</ele>
        <time>2018-08-16T10:44:34Z</time>
      </trkpt>
      <trkpt lat="45.85931" lon="4.66867">
        <ele>210</ele>
        <time>2018-08-16T10:44:35Z</time>
      </trkpt>
      <trkpt lat="45.85929" lon="4.66876">
        <ele>210</ele>
        <time>2018-08-16T10:44:36Z</time>
      </trkpt>
      <trkpt lat="45.85927" lon="4.66885">
        <ele>210</ele>
        <time>2018-08-16T10:44:37Z</time>
      </trkpt>
      <trkpt lat="45.85925" lon="4.66891">
        <ele>209</ele>
        <time>2018-08-16T10:44:38Z</time>
      </trkpt>
      <trkpt lat="45.85922" lon="4.66897">
        <ele>209</ele>
        <time>2018-08-16T10:44:39Z</time>
      </trkpt>
      <trkpt lat="45.85921" lon="4.66907">
        <ele>208</ele>
        <time>2018-08-16T10:44:40Z</time>
      </trkpt>
      <trkpt lat="45.85919" lon="4.66915">
        <ele>207</ele>
        <time>2018-08-16T10:44:41Z</time>
      </trkpt>
      <trkpt lat="45.85919" lon="4.66925">
        <ele>208</ele>
        <time>2018-08-16T10:44:42Z</time>
      </trkpt>
      <trkpt lat="45.85919" lon="4.66934">
        <ele>208</ele>
        <time>2018-08-16T10:44:43Z</time>
      </trkpt>
      <trkpt lat="45.85915" lon="4.66945">
        <ele>207</ele>
        <time>2018-08-16T10:44:45Z</time>
      </trkpt>
      <trkpt lat="45.85912" lon="4.6695">
        <ele>207</ele>
        <time>2018-08-16T10:44:46Z</time>
      </trkpt>
      <trkpt lat="45.85909" lon="4.66956">
        <ele>207</ele>
        <time>2018-08-16T10:44:47Z</time>
      </trkpt>
      <trkpt lat="45.85906" lon="4.66962">
        <ele>207</ele>
        <time>2018-08-16T10:44:48Z</time>
      </trkpt>
      <trkpt lat="45.85904" lon="4.66968">
        <ele>207</ele>
        <time>2018-08-16T10:44:49Z</time>
      </trkpt>
      <trkpt lat="45.85904" lon="4.66976">
        <ele>207</ele>
        <time>2018-08-16T10:44:50Z</time>
      </trkpt>
      <trkpt lat="45.85904" lon="4.66983">
        <ele>207</ele>
        <time>2018-08-16T10:44:51Z</time>
      </trkpt>
      <trkpt lat="45.85905" lon="4.6699">
        <ele>207</ele>
        <time>2018-08-16T10:44:52Z</time>
      </trkpt>
      <trkpt lat="45.85904" lon="4.67002">
        <ele>206</ele>
        <time>2018-08-16T10:44:54Z</time>
      </trkpt>
      <trkpt lat="45.85904" lon="4.6701">
        <ele>206</ele>
        <time>2018-08-16T10:44:55Z</time>
      </trkpt>
      <trkpt lat="45.85903" lon="4.67017">
        <ele>205</ele>
        <time>2018-08-16T10:44:56Z</time>
      </trkpt>
      <trkpt lat="45.85901" lon="4.67025">
        <ele>205</ele>
        <time>2018-08-16T10:44:57Z</time>
      </trkpt>
      <trkpt lat="45.859" lon="4.67033">
        <ele>205</ele>
        <time>2018-08-16T10:44:58Z</time>
      </trkpt>
      <trkpt lat="45.85898" lon="4.67041">
        <ele>205</ele>
        <time>2018-08-16T10:44:59Z</time>
      </trkpt>
      <trkpt lat="45.85897" lon="4.6705">
        <ele>205</ele>
        <time>2018-08-16T10:45:00Z</time>
      </trkpt>
      <trkpt lat="45.85895" lon="4.67058">
        <ele>205</ele>
        <time>2018-08-16T10:45:01Z</time>
      </trkpt>
      <trkpt lat="45.85894" lon="4.67066">
        <ele>205</ele>
        <time>2018-08-16T10:45:02Z</time>
      </trkpt>
      <trkpt lat="45.85893" lon="4.67075">
        <ele>205</ele>
        <time>2018-08-16T10:45:03Z</time>
      </trkpt>
      <trkpt lat="45.85892" lon="4.67083">
        <ele>205</ele>
        <time>2018-08-16T10:45:04Z</time>
      </trkpt>
      <trkpt lat="45.85891" lon="4.67091">
        <ele>204</ele>
        <time>2018-08-16T10:45:05Z</time>
      </trkpt>
      <trkpt lat="45.85891" lon="4.67099">
        <ele>204</ele>
        <time>2018-08-16T10:45:06Z</time>
      </trkpt>
      <trkpt lat="45.8589" lon="4.67106">
        <ele>204</ele>
        <time>2018-08-16T10:45:07Z</time>
      </trkpt>
      <trkpt lat="45.85888" lon="4.67114">
        <ele>204</ele>
        <time>2018-08-16T10:45:08Z</time>
      </trkpt>
      <trkpt lat="45.85889" lon="4.67124">
        <ele>204</ele>
        <time>2018-08-16T10:45:09Z</time>
      </trkpt>
      <trkpt lat="45.85887" lon="4.6713">
        <ele>204</ele>
        <time>2018-08-16T10:45:10Z</time>
      </trkpt>
      <trkpt lat="45.85888" lon="4.67142">
        <ele>204</ele>
        <time>2018-08-16T10:45:11Z</time>
      </trkpt>
      <trkpt lat="45.85887" lon="4.67151">
        <ele>204</ele>
        <time>2018-08-16T10:45:12Z</time>
      </trkpt>
      <trkpt lat="45.85886" lon="4.67158">
        <ele>204</ele>
        <time>2018-08-16T10:45:13Z</time>
      </trkpt>
      <trkpt lat="45.85885" lon="4.67166">
        <ele>204</ele>
        <time>2018-08-16T10:45:14Z</time>
      </trkpt>
      <trkpt lat="45.85885" lon="4.67175">
        <ele>204</ele>
        <time>2018-08-16T10:45:15Z</time>
      </trkpt>
      <trkpt lat="45.85885" lon="4.67185">
        <ele>204</ele>
        <time>2018-08-16T10:45:16Z</time>
      </trkpt>
      <trkpt lat="45.85885" lon="4.67194">
        <ele>204</ele>
        <time>2018-08-16T10:45:17Z</time>
      </trkpt>
      <trkpt lat="45.85884" lon="4.67204">
        <ele>204</ele>
        <time>2018-08-16T10:45:18Z</time>
      </trkpt>
      <trkpt lat="45.85884" lon="4.67213">
        <ele>204</ele>
        <time>2018-08-16T10:45:19Z</time>
      </trkpt>
      <trkpt lat="45.85883" lon="4.67222">
        <ele>204</ele>
        <time>2018-08-16T10:45:20Z</time>
      </trkpt>
      <trkpt lat="45.85882" lon="4.67231">
        <ele>204</ele>
        <time>2018-08-16T10:45:21Z</time>
      </trkpt>
      <trkpt lat="45.8588" lon="4.67239">
        <ele>204</ele>
        <time>2018-08-16T10:45:22Z</time>
      </trkpt>
      <trkpt lat="45.8588" lon="4.67247">
        <ele>204</ele>
        <time>2018-08-16T10:45:23Z</time>
      </trkpt>
      <trkpt lat="45.85878" lon="4.67255">
        <ele>205</ele>
        <time>2018-08-16T10:45:24Z</time>
      </trkpt>
      <trkpt lat="45.85877" lon="4.67263">
        <ele>205</ele>
        <time>2018-08-16T10:45:25Z</time>
      </trkpt>
      <trkpt lat="45.85877" lon="4.67271">
        <ele>205</ele>
        <time>2018-08-16T10:45:26Z</time>
      </trkpt>
      <trkpt lat="45.85876" lon="4.67278">
        <ele>205</ele>
        <time>2018-08-16T10:45:27Z</time>
      </trkpt>
      <trkpt lat="45.85875" lon="4.67286">
        <ele>205</ele>
        <time>2018-08-16T10:45:28Z</time>
      </trkpt>
      <trkpt lat="45.85875" lon="4.67293">
        <ele>205</ele>
        <time>2018-08-16T10:45:29Z</time>
      </trkpt>
      <trkpt lat="45.85874" lon="4.67301">
        <ele>205</ele>
        <time>2018-08-16T10:45:30Z</time>
      </trkpt>
      <trkpt lat="45.85872" lon="4.6731">
        <ele>205</ele>
        <time>2018-08-16T10:45:31Z</time>
      </trkpt>
      <trkpt lat="45.85872" lon="4.67321">
        <ele>205</ele>
        <time>2018-08-16T10:45:32Z</time>
      </trkpt>
      <trkpt lat="45.85871" lon="4.67328">
        <ele>205</ele>
        <time>2018-08-16T10:45:33Z</time>
      </trkpt>
      <trkpt lat="45.85871" lon="4.67339">
        <ele>208</ele>
        <time>2018-08-16T10:45:34Z</time>
      </trkpt>
      <trkpt lat="45.85872" lon="4.67348">
        <ele>208</ele>
        <time>2018-08-16T10:45:35Z</time>
      </trkpt>
      <trkpt lat="45.8587" lon="4.67356">
        <ele>208</ele>
        <time>2018-08-16T10:45:36Z</time>
      </trkpt>
      <trkpt lat="45.8587" lon="4.67365">
        <ele>209</ele>
        <time>2018-08-16T10:45:37Z</time>
      </trkpt>
      <trkpt lat="45.8587" lon="4.67375">
        <ele>209</ele>
        <time>2018-08-16T10:45:38Z</time>
      </trkpt>
      <trkpt lat="45.85869" lon="4.67382">
        <ele>209</ele>
        <time>2018-08-16T10:45:39Z</time>
      </trkpt>
      <trkpt lat="45.85868" lon="4.67391">
        <ele>209</ele>
        <time>2018-08-16T10:45:40Z</time>
      </trkpt>
      <trkpt lat="45.85867" lon="4.674">
        <ele>209</ele>
        <time>2018-08-16T10:45:41Z</time>
      </trkpt>
      <trkpt lat="45.85866" lon="4.67408">
        <ele>209</ele>
        <time>2018-08-16T10:45:42Z</time>
      </trkpt>
      <trkpt lat="45.85862" lon="4.67414">
        <ele>208</ele>
        <time>2018-08-16T10:45:43Z</time>
      </trkpt>
      <trkpt lat="45.85861" lon="4.6742">
        <ele>211</ele>
        <time>2018-08-16T10:45:44Z</time>
      </trkpt>
      <trkpt lat="45.85862" lon="4.67429">
        <ele>212</ele>
        <time>2018-08-16T10:45:45Z</time>
      </trkpt>
      <trkpt lat="45.8586" lon="4.67436">
        <ele>212</ele>
        <time>2018-08-16T10:45:46Z</time>
      </trkpt>
      <trkpt lat="45.85859" lon="4.67444">
        <ele>212</ele>
        <time>2018-08-16T10:45:47Z</time>
      </trkpt>
      <trkpt lat="45.8586" lon="4.67454">
        <ele>213</ele>
        <time>2018-08-16T10:45:48Z</time>
      </trkpt>
      <trkpt lat="45.85858" lon="4.67462">
        <ele>213</ele>
        <time>2018-08-16T10:45:49Z</time>
      </trkpt>
      <trkpt lat="45.85857" lon="4.6747">
        <ele>213</ele>
        <time>2018-08-16T10:45:50Z</time>
      </trkpt>
      <trkpt lat="45.85854" lon="4.67477">
        <ele>213</ele>
        <time>2018-08-16T10:45:51Z</time>
      </trkpt>
      <trkpt lat="45.85851" lon="4.67485">
        <ele>212</ele>
        <time>2018-08-16T10:45:52Z</time>
      </trkpt>
      <trkpt lat="45.85849" lon="4.67495">
        <ele>211</ele>
        <time>2018-08-16T10:45:53Z</time>
      </trkpt>
      <trkpt lat="45.85845" lon="4.67504">
        <ele>214</ele>
        <time>2018-08-16T10:45:54Z</time>
      </trkpt>
      <trkpt lat="45.85841" lon="4.67512">
        <ele>215</ele>
        <time>2018-08-16T10:45:55Z</time>
      </trkpt>
      <trkpt lat="45.85836" lon="4.67518">
        <ele>216</ele>
        <time>2018-08-16T10:45:56Z</time>
      </trkpt>
      <trkpt lat="45.85831" lon="4.67525">
        <ele>209</ele>
        <time>2018-08-16T10:45:57Z</time>
      </trkpt>
      <trkpt lat="45.85827" lon="4.67529">
        <ele>209</ele>
        <time>2018-08-16T10:45:58Z</time>
      </trkpt>
      <trkpt lat="45.85822" lon="4.67533">
        <ele>210</ele>
        <time>2018-08-16T10:45:59Z</time>
      </trkpt>
      <trkpt lat="45.85818" lon="4.67539">
        <ele>210</ele>
        <time>2018-08-16T10:46:00Z</time>
      </trkpt>
      <trkpt lat="45.85818" lon="4.67553">
        <ele>212</ele>
        <time>2018-08-16T10:46:01Z</time>
      </trkpt>
      <trkpt lat="45.85812" lon="4.67556">
        <ele>212</ele>
        <time>2018-08-16T10:46:02Z</time>
      </trkpt>
      <trkpt lat="45.85805" lon="4.67559">
        <ele>212</ele>
        <time>2018-08-16T10:46:03Z</time>
      </trkpt>
      <trkpt lat="45.858" lon="4.67566">
        <ele>212</ele>
        <time>2018-08-16T10:46:04Z</time>
      </trkpt>
      <trkpt lat="45.85796" lon="4.67572">
        <ele>211</ele>
        <time>2018-08-16T10:46:05Z</time>
      </trkpt>
      <trkpt lat="45.85789" lon="4.67574">
        <ele>210</ele>
        <time>2018-08-16T10:46:06Z</time>
      </trkpt>
      <trkpt lat="45.85783" lon="4.67577">
        <ele>210</ele>
        <time>2018-08-16T10:46:07Z</time>
      </trkpt>
      <trkpt lat="45.85779" lon="4.67583">
        <ele>209</ele>
        <time>2018-08-16T10:46:08Z</time>
      </trkpt>
      <trkpt lat="45.85772" lon="4.67584">
        <ele>215</ele>
        <time>2018-08-16T10:46:09Z</time>
      </trkpt>
      <trkpt lat="45.85768" lon="4.67589">
        <ele>215</ele>
        <time>2018-08-16T10:46:10Z</time>
      </trkpt>
      <trkpt lat="45.85763" lon="4.67592">
        <ele>213</ele>
        <time>2018-08-16T10:46:11Z</time>
      </trkpt>
      <trkpt lat="45.85757" lon="4.67595">
        <ele>213</ele>
        <time>2018-08-16T10:46:12Z</time>
      </trkpt>
      <trkpt lat="45.85752" lon="4.676">
        <ele>214</ele>
        <time>2018-08-16T10:46:13Z</time>
      </trkpt>
      <trkpt lat="45.85746" lon="4.67604">
        <ele>209</ele>
        <time>2018-08-16T10:46:14Z</time>
      </trkpt>
      <trkpt lat="45.85741" lon="4.67606">
        <ele>209</ele>
        <time>2018-08-16T10:46:15Z</time>
      </trkpt>
      <trkpt lat="45.85736" lon="4.67611">
        <ele>210</ele>
        <time>2018-08-16T10:46:16Z</time>
      </trkpt>
      <trkpt lat="45.85729" lon="4.67613">
        <ele>210</ele>
        <time>2018-08-16T10:46:17Z</time>
      </trkpt>
      <trkpt lat="45.85724" lon="4.6762">
        <ele>211</ele>
        <time>2018-08-16T10:46:18Z</time>
      </trkpt>
      <trkpt lat="45.85718" lon="4.67623">
        <ele>211</ele>
        <time>2018-08-16T10:46:19Z</time>
      </trkpt>
      <trkpt lat="45.85712" lon="4.67628">
        <ele>211</ele>
        <time>2018-08-16T10:46:20Z</time>
      </trkpt>
      <trkpt lat="45.85707" lon="4.67632">
        <ele>211</ele>
        <time>2018-08-16T10:46:21Z</time>
      </trkpt>
      <trkpt lat="45.85702" lon="4.67636">
        <ele>211</ele>
        <time>2018-08-16T10:46:22Z</time>
      </trkpt>
      <trkpt lat="45.85696" lon="4.67637">
        <ele>210</ele>
        <time>2018-08-16T10:46:23Z</time>
      </trkpt>
      <trkpt lat="45.85691" lon="4.6764">
        <ele>210</ele>
        <time>2018-08-16T10:46:24Z</time>
      </trkpt>
      <trkpt lat="45.85688" lon="4.67645">
        <ele>210</ele>
        <time>2018-08-16T10:46:25Z</time>
      </trkpt>
      <trkpt lat="45.85683" lon="4.67646">
        <ele>210</ele>
        <time>2018-08-16T10:46:26Z</time>
      </trkpt>
      <trkpt lat="45.8568" lon="4.67651">
        <ele>210</ele>
        <time>2018-08-16T10:46:27Z</time>
      </trkpt>
      <trkpt lat="45.85676" lon="4.67656">
        <ele>210</ele>
        <time>2018-08-16T10:46:28Z</time>
      </trkpt>
      <trkpt lat="45.85672" lon="4.67659">
        <ele>210</ele>
        <time>2018-08-16T10:46:29Z</time>
      </trkpt>
      <trkpt lat="45.85667" lon="4.67662">
        <ele>209</ele>
        <time>2018-08-16T10:46:30Z</time>
      </trkpt>
      <trkpt lat="45.85662" lon="4.67665">
        <ele>208</ele>
        <time>2018-08-16T10:46:31Z</time>
      </trkpt>
      <trkpt lat="45.85659" lon="4.67671">
        <ele>209</ele>
        <time>2018-08-16T10:46:32Z</time>
      </trkpt>
      <trkpt lat="45.85653" lon="4.67674">
        <ele>209</ele>
        <time>2018-08-16T10:46:33Z</time>
      </trkpt>
      <trkpt lat="45.85648" lon="4.67678">
        <ele>209</ele>
        <time>2018-08-16T10:46:34Z</time>
      </trkpt>
      <trkpt lat="45.85646" lon="4.6769">
        <ele>209</ele>
        <time>2018-08-16T10:46:35Z</time>
      </trkpt>
      <trkpt lat="45.8564" lon="4.67693">
        <ele>209</ele>
        <time>2018-08-16T10:46:36Z</time>
      </trkpt>
      <trkpt lat="45.85636" lon="4.67696">
        <ele>209</ele>
        <time>2018-08-16T10:46:37Z</time>
      </trkpt>
      <trkpt lat="45.8563" lon="4.67699">
        <ele>209</ele>
        <time>2018-08-16T10:46:38Z</time>
      </trkpt>
      <trkpt lat="45.85626" lon="4.67704">
        <ele>209</ele>
        <time>2018-08-16T10:46:39Z</time>
      </trkpt>
      <trkpt lat="45.85621" lon="4.67705">
        <ele>209</ele>
        <time>2018-08-16T10:46:40Z</time>
      </trkpt>
      <trkpt lat="45.85615" lon="4.67707">
        <ele>208</ele>
        <time>2018-08-16T10:46:41Z</time>
      </trkpt>
      <trkpt lat="45.85611" lon="4.67711">
        <ele>208</ele>
        <time>2018-08-16T10:46:42Z</time>
      </trkpt>
      <trkpt lat="45.85609" lon="4.67719">
        <ele>208</ele>
        <time>2018-08-16T10:46:43Z</time>
      </trkpt>
      <trkpt lat="45.85608" lon="4.67727">
        <ele>208</ele>
        <time>2018-08-16T10:46:44Z</time>
      </trkpt>
      <trkpt lat="45.85604" lon="4.67732">
        <ele>207</ele>
        <time>2018-08-16T10:46:45Z</time>
      </trkpt>
      <trkpt lat="45.85601" lon="4.67741">
        <ele>207</ele>
        <time>2018-08-16T10:46:46Z</time>
      </trkpt>
      <trkpt lat="45.85598" lon="4.67747">
        <ele>206</ele>
        <time>2018-08-16T10:46:47Z</time>
      </trkpt>
      <trkpt lat="45.85594" lon="4.67752">
        <ele>207</ele>
        <time>2018-08-16T10:46:48Z</time>
      </trkpt>
      <trkpt lat="45.85592" lon="4.67757">
        <ele>207</ele>
        <time>2018-08-16T10:46:49Z</time>
      </trkpt>
      <trkpt lat="45.85589" lon="4.67763">
        <ele>207</ele>
        <time>2018-08-16T10:46:50Z</time>
      </trkpt>
      <trkpt lat="45.85586" lon="4.67769">
        <ele>208</ele>
        <time>2018-08-16T10:46:51Z</time>
      </trkpt>
      <trkpt lat="45.85584" lon="4.67777">
        <ele>209</ele>
        <time>2018-08-16T10:46:52Z</time>
      </trkpt>
      <trkpt lat="45.85582" lon="4.67781">
        <ele>206</ele>
        <time>2018-08-16T10:46:53Z</time>
      </trkpt>
      <trkpt lat="45.85581" lon="4.67783">
        <ele>206</ele>
        <time>2018-08-16T10:46:54Z</time>
      </trkpt>
      <trkpt lat="45.8558" lon="4.67798">
        <ele>206</ele>
        <time>2018-08-16T10:46:55Z</time>
      </trkpt>
      <trkpt lat="45.8558" lon="4.67809">
        <ele>206</ele>
        <time>2018-08-16T10:46:56Z</time>
      </trkpt>
      <trkpt lat="45.85578" lon="4.67814">
        <ele>206</ele>
        <time>2018-08-16T10:46:57Z</time>
      </trkpt>
      <trkpt lat="45.85574" lon="4.67825">
        <ele>206</ele>
        <time>2018-08-16T10:46:59Z</time>
      </trkpt>
      <trkpt lat="45.85573" lon="4.67833">
        <ele>206</ele>
        <time>2018-08-16T10:47:00Z</time>
      </trkpt>
      <trkpt lat="45.85569" lon="4.67841">
        <ele>206</ele>
        <time>2018-08-16T10:47:01Z</time>
      </trkpt>
      <trkpt lat="45.85568" lon="4.67848">
        <ele>206</ele>
        <time>2018-08-16T10:47:02Z</time>
      </trkpt>
      <trkpt lat="45.85567" lon="4.67857">
        <ele>207</ele>
        <time>2018-08-16T10:47:03Z</time>
      </trkpt>
      <trkpt lat="45.85568" lon="4.67865">
        <ele>207</ele>
        <time>2018-08-16T10:47:04Z</time>
      </trkpt>
      <trkpt lat="45.8557" lon="4.67874">
        <ele>207</ele>
        <time>2018-08-16T10:47:05Z</time>
      </trkpt>
      <trkpt lat="45.85569" lon="4.67883">
        <ele>207</ele>
        <time>2018-08-16T10:47:06Z</time>
      </trkpt>
      <trkpt lat="45.85568" lon="4.67891">
        <ele>206</ele>
        <time>2018-08-16T10:47:07Z</time>
      </trkpt>
      <trkpt lat="45.85569" lon="4.67897">
        <ele>206</ele>
        <time>2018-08-16T10:47:08Z</time>
      </trkpt>
      <trkpt lat="45.85568" lon="4.67903">
        <ele>206</ele>
        <time>2018-08-16T10:47:09Z</time>
      </trkpt>
      <trkpt lat="45.85568" lon="4.6791">
        <ele>206</ele>
        <time>2018-08-16T10:47:10Z</time>
      </trkpt>
      <trkpt lat="45.85565" lon="4.67921">
        <ele>205</ele>
        <time>2018-08-16T10:47:12Z</time>
      </trkpt>
      <trkpt lat="45.85563" lon="4.67926">
        <ele>205</ele>
        <time>2018-08-16T10:47:13Z</time>
      </trkpt>
      <trkpt lat="45.85559" lon="4.67931">
        <ele>205</ele>
        <time>2018-08-16T10:47:14Z</time>
      </trkpt>
      <trkpt lat="45.85554" lon="4.67935">
        <ele>205</ele>
        <time>2018-08-16T10:47:15Z</time>
      </trkpt>
      <trkpt lat="45.85549" lon="4.6794">
        <ele>205</ele>
        <time>2018-08-16T10:47:16Z</time>
      </trkpt>
      <trkpt lat="45.85546" lon="4.67944">
        <ele>205</ele>
        <time>2018-08-16T10:47:17Z</time>
      </trkpt>
      <trkpt lat="45.85542" lon="4.67949">
        <ele>205</ele>
        <time>2018-08-16T10:47:18Z</time>
      </trkpt>
      <trkpt lat="45.85538" lon="4.67953">
        <ele>205</ele>
        <time>2018-08-16T10:47:19Z</time>
      </trkpt>
      <trkpt lat="45.85534" lon="4.67958">
        <ele>206</ele>
        <time>2018-08-16T10:47:20Z</time>
      </trkpt>
      <trkpt lat="45.85528" lon="4.6796">
        <ele>206</ele>
        <time>2018-08-16T10:47:21Z</time>
      </trkpt>
      <trkpt lat="45.85525" lon="4.67963">
        <ele>206</ele>
        <time>2018-08-16T10:47:22Z</time>
      </trkpt>
      <trkpt lat="45.8552" lon="4.67966">
        <ele>206</ele>
        <time>2018-08-16T10:47:23Z</time>
      </trkpt>
      <trkpt lat="45.85516" lon="4.6797">
        <ele>206</ele>
        <time>2018-08-16T10:47:24Z</time>
      </trkpt>
      <trkpt lat="45.8551" lon="4.67973">
        <ele>206</ele>
        <time>2018-08-16T10:47:25Z</time>
      </trkpt>
      <trkpt lat="45.85506" lon="4.67976">
        <ele>206</ele>
        <time>2018-08-16T10:47:26Z</time>
      </trkpt>
      <trkpt lat="45.85502" lon="4.67981">
        <ele>206</ele>
        <time>2018-08-16T10:47:27Z</time>
      </trkpt>
      <trkpt lat="45.85497" lon="4.67987">
        <ele>208</ele>
        <time>2018-08-16T10:47:28Z</time>
      </trkpt>
      <trkpt lat="45.85491" lon="4.67991">
        <ele>208</ele>
        <time>2018-08-16T10:47:29Z</time>
      </trkpt>
      <trkpt lat="45.85487" lon="4.67994">
        <ele>208</ele>
        <time>2018-08-16T10:47:30Z</time>
      </trkpt>
      <trkpt lat="45.85483" lon="4.67998">
        <ele>209</ele>
        <time>2018-08-16T10:47:31Z</time>
      </trkpt>
      <trkpt lat="45.85479" lon="4.68002">
        <ele>207</ele>
        <time>2018-08-16T10:47:32Z</time>
      </trkpt>
      <trkpt lat="45.85476" lon="4.68006">
        <ele>207</ele>
        <time>2018-08-16T10:47:33Z</time>
      </trkpt>
      <trkpt lat="45.85474" lon="4.68013">
        <ele>207</ele>
        <time>2018-08-16T10:47:34Z</time>
      </trkpt>
      <trkpt lat="45.85479" lon="4.68019">
        <ele>207</ele>
        <time>2018-08-16T10:47:35Z</time>
      </trkpt>
      <trkpt lat="45.85483" lon="4.68027">
        <ele>207</ele>
        <time>2018-08-16T10:47:36Z</time>
      </trkpt>
      <trkpt lat="45.85486" lon="4.68035">
        <ele>207</ele>
        <time>2018-08-16T10:47:37Z</time>
      </trkpt>
      <trkpt lat="45.85488" lon="4.68042">
        <ele>207</ele>
        <time>2018-08-16T10:47:38Z</time>
      </trkpt>
      <trkpt lat="45.8549" lon="4.68048">
        <ele>206</ele>
        <time>2018-08-16T10:47:39Z</time>
      </trkpt>
      <trkpt lat="45.85491" lon="4.68055">
        <ele>206</ele>
        <time>2018-08-16T10:47:40Z</time>
      </trkpt>
      <trkpt lat="45.8549" lon="4.68064">
        <ele>206</ele>
        <time>2018-08-16T10:47:41Z</time>
      </trkpt>
      <trkpt lat="45.85491" lon="4.68074">
        <ele>205</ele>
        <time>2018-08-16T10:47:42Z</time>
      </trkpt>
      <trkpt lat="45.85491" lon="4.68081">
        <ele>205</ele>
        <time>2018-08-16T10:47:43Z</time>
      </trkpt>
      <trkpt lat="45.85493" lon="4.68091">
        <ele>204</ele>
        <time>2018-08-16T10:47:44Z</time>
      </trkpt>
      <trkpt lat="45.85496" lon="4.681">
        <ele>204</ele>
        <time>2018-08-16T10:47:45Z</time>
      </trkpt>
      <trkpt lat="45.85497" lon="4.68107">
        <ele>204</ele>
        <time>2018-08-16T10:47:46Z</time>
      </trkpt>
      <trkpt lat="45.85497" lon="4.68116">
        <ele>204</ele>
        <time>2018-08-16T10:47:47Z</time>
      </trkpt>
      <trkpt lat="45.85498" lon="4.68123">
        <ele>204</ele>
        <time>2018-08-16T10:47:48Z</time>
      </trkpt>
      <trkpt lat="45.85499" lon="4.68131">
        <ele>204</ele>
        <time>2018-08-16T10:47:49Z</time>
      </trkpt>
      <trkpt lat="45.855" lon="4.6814">
        <ele>204</ele>
        <time>2018-08-16T10:47:50Z</time>
      </trkpt>
      <trkpt lat="45.85501" lon="4.68148">
        <ele>203</ele>
        <time>2018-08-16T10:47:51Z</time>
      </trkpt>
      <trkpt lat="45.85502" lon="4.68155">
        <ele>204</ele>
        <time>2018-08-16T10:47:52Z</time>
      </trkpt>
      <trkpt lat="45.85502" lon="4.68163">
        <ele>204</ele>
        <time>2018-08-16T10:47:53Z</time>
      </trkpt>
      <trkpt lat="45.85503" lon="4.6817">
        <ele>204</ele>
        <time>2018-08-16T10:47:54Z</time>
      </trkpt>
      <trkpt lat="45.85505" lon="4.68179">
        <ele>204</ele>
        <time>2018-08-16T10:47:55Z</time>
      </trkpt>
      <trkpt lat="45.85505" lon="4.68187">
        <ele>203</ele>
        <time>2018-08-16T10:47:56Z</time>
      </trkpt>
      <trkpt lat="45.85506" lon="4.68195">
        <ele>203</ele>
        <time>2018-08-16T10:47:57Z</time>
      </trkpt>
      <trkpt lat="45.85506" lon="4.68201">
        <ele>203</ele>
        <time>2018-08-16T10:47:58Z</time>
      </trkpt>
      <trkpt lat="45.85505" lon="4.68208">
        <ele>203</ele>
        <time>2018-08-16T10:47:59Z</time>
      </trkpt>
      <trkpt lat="45.85505" lon="4.68216">
        <ele>203</ele>
        <time>2018-08-16T10:48:00Z</time>
      </trkpt>
      <trkpt lat="45.85505" lon="4.68223">
        <ele>203</ele>
        <time>2018-08-16T10:48:01Z</time>
      </trkpt>
      <trkpt lat="45.85506" lon="4.6823">
        <ele>203</ele>
        <time>2018-08-16T10:48:02Z</time>
      </trkpt>
      <trkpt lat="45.85507" lon="4.68237">
        <ele>203</ele>
        <time>2018-08-16T10:48:03Z</time>
      </trkpt>
      <trkpt lat="45.85507" lon="4.68245">
        <ele>203</ele>
        <time>2018-08-16T10:48:04Z</time>
      </trkpt>
      <trkpt lat="45.85508" lon="4.68254">
        <ele>203</ele>
        <time>2018-08-16T10:48:05Z</time>
      </trkpt>
      <trkpt lat="45.85508" lon="4.68262">
        <ele>203</ele>
        <time>2018-08-16T10:48:06Z</time>
      </trkpt>
      <trkpt lat="45.8551" lon="4.68271">
        <ele>202</ele>
        <time>2018-08-16T10:48:07Z</time>
      </trkpt>
      <trkpt lat="45.85512" lon="4.68281">
        <ele>202</ele>
        <time>2018-08-16T10:48:08Z</time>
      </trkpt>
      <trkpt lat="45.85513" lon="4.68291">
        <ele>202</ele>
        <time>2018-08-16T10:48:09Z</time>
      </trkpt>
      <trkpt lat="45.85513" lon="4.68299">
        <ele>202</ele>
        <time>2018-08-16T10:48:10Z</time>
      </trkpt>
      <trkpt lat="45.85514" lon="4.68308">
        <ele>202</ele>
        <time>2018-08-16T10:48:11Z</time>
      </trkpt>
      <trkpt lat="45.85515" lon="4.68317">
        <ele>202</ele>
        <time>2018-08-16T10:48:12Z</time>
      </trkpt>
      <trkpt lat="45.85516" lon="4.68324">
        <ele>202</ele>
        <time>2018-08-16T10:48:13Z</time>
      </trkpt>
      <trkpt lat="45.85516" lon="4.68333">
        <ele>202</ele>
        <time>2018-08-16T10:48:14Z</time>
      </trkpt>
      <trkpt lat="45.85518" lon="4.68342">
        <ele>201</ele>
        <time>2018-08-16T10:48:15Z</time>
      </trkpt>
      <trkpt lat="45.8552" lon="4.68351">
        <ele>201</ele>
        <time>2018-08-16T10:48:16Z</time>
      </trkpt>
      <trkpt lat="45.85521" lon="4.68359">
        <ele>201</ele>
        <time>2018-08-16T10:48:17Z</time>
      </trkpt>
      <trkpt lat="45.85521" lon="4.68367">
        <ele>201</ele>
        <time>2018-08-16T10:48:18Z</time>
      </trkpt>
      <trkpt lat="45.85521" lon="4.68375">
        <ele>201</ele>
        <time>2018-08-16T10:48:19Z</time>
      </trkpt>
      <trkpt lat="45.85522" lon="4.68383">
        <ele>200</ele>
        <time>2018-08-16T10:48:20Z</time>
      </trkpt>
      <trkpt lat="45.85522" lon="4.68391">
        <ele>200</ele>
        <time>2018-08-16T10:48:21Z</time>
      </trkpt>
      <trkpt lat="45.85523" lon="4.68398">
        <ele>200</ele>
        <time>2018-08-16T10:48:22Z</time>
      </trkpt>
      <trkpt lat="45.85523" lon="4.68407">
        <ele>200</ele>
        <time>2018-08-16T10:48:23Z</time>
      </trkpt>
      <trkpt lat="45.85524" lon="4.68415">
        <ele>200</ele>
        <time>2018-08-16T10:48:24Z</time>
      </trkpt>
      <trkpt lat="45.85524" lon="4.68423">
        <ele>200</ele>
        <time>2018-08-16T10:48:25Z</time>
      </trkpt>
      <trkpt lat="45.85524" lon="4.6843">
        <ele>200</ele>
        <time>2018-08-16T10:48:26Z</time>
      </trkpt>
      <trkpt lat="45.85525" lon="4.68439">
        <ele>200</ele>
        <time>2018-08-16T10:48:27Z</time>
      </trkpt>
      <trkpt lat="45.85525" lon="4.68448">
        <ele>200</ele>
        <time>2018-08-16T10:48:28Z</time>
      </trkpt>
      <trkpt lat="45.85526" lon="4.68458">
        <ele>200</ele>
        <time>2018-08-16T10:48:29Z</time>
      </trkpt>
      <trkpt lat="45.85526" lon="4.68468">
        <ele>200</ele>
        <time>2018-08-16T10:48:30Z</time>
      </trkpt>
      <trkpt lat="45.85527" lon="4.68477">
        <ele>200</ele>
        <time>2018-08-16T10:48:31Z</time>
      </trkpt>
      <trkpt lat="45.85528" lon="4.68488">
        <ele>201</ele>
        <time>2018-08-16T10:48:32Z</time>
      </trkpt>
      <trkpt lat="45.85529" lon="4.68498">
        <ele>201</ele>
        <time>2018-08-16T10:48:33Z</time>
      </trkpt>
      <trkpt lat="45.8553" lon="4.68506">
        <ele>201</ele>
        <time>2018-08-16T10:48:34Z</time>
      </trkpt>
      <trkpt lat="45.85531" lon="4.68515">
        <ele>201</ele>
        <time>2018-08-16T10:48:35Z</time>
      </trkpt>
      <trkpt lat="45.85532" lon="4.68523">
        <ele>201</ele>
        <time>2018-08-16T10:48:36Z</time>
      </trkpt>
      <trkpt lat="45.85533" lon="4.68532">
        <ele>201</ele>
        <time>2018-08-16T10:48:37Z</time>
      </trkpt>
      <trkpt lat="45.85534" lon="4.6854">
        <ele>201</ele>
        <time>2018-08-16T10:48:38Z</time>
      </trkpt>
      <trkpt lat="45.85535" lon="4.68549">
        <ele>201</ele>
        <time>2018-08-16T10:48:39Z</time>
      </trkpt>
      <trkpt lat="45.85535" lon="4.68557">
        <ele>201</ele>
        <time>2018-08-16T10:48:40Z</time>
      </trkpt>
      <trkpt lat="45.85536" lon="4.68566">
        <ele>201</ele>
        <time>2018-08-16T10:48:41Z</time>
      </trkpt>
      <trkpt lat="45.85537" lon="4.68574">
        <ele>201</ele>
        <time>2018-08-16T10:48:42Z</time>
      </trkpt>
      <trkpt lat="45.85538" lon="4.68582">
        <ele>201</ele>
        <time>2018-08-16T10:48:43Z</time>
      </trkpt>
      <trkpt lat="45.85538" lon="4.6859">
        <ele>201</ele>
        <time>2018-08-16T10:48:44Z</time>
      </trkpt>
      <trkpt lat="45.85539" lon="4.68599">
        <ele>201</ele>
        <time>2018-08-16T10:48:45Z</time>
      </trkpt>
      <trkpt lat="45.85539" lon="4.68608">
        <ele>201</ele>
        <time>2018-08-16T10:48:46Z</time>
      </trkpt>
      <trkpt lat="45.85541" lon="4.68617">
        <ele>201</ele>
        <time>2018-08-16T10:48:47Z</time>
      </trkpt>
      <trkpt lat="45.85542" lon="4.68627">
        <ele>201</ele>
        <time>2018-08-16T10:48:48Z</time>
      </trkpt>
      <trkpt lat="45.85543" lon="4.68636">
        <ele>201</ele>
        <time>2018-08-16T10:48:49Z</time>
      </trkpt>
      <trkpt lat="45.85543" lon="4.68645">
        <ele>201</ele>
        <time>2018-08-16T10:48:50Z</time>
      </trkpt>
      <trkpt lat="45.85544" lon="4.68654">
        <ele>201</ele>
        <time>2018-08-16T10:48:51Z</time>
      </trkpt>
      <trkpt lat="45.85545" lon="4.68664">
        <ele>200</ele>
        <time>2018-08-16T10:48:52Z</time>
      </trkpt>
      <trkpt lat="45.85545" lon="4.68674">
        <ele>200</ele>
        <time>2018-08-16T10:48:53Z</time>
      </trkpt>
      <trkpt lat="45.85545" lon="4.68683">
        <ele>200</ele>
        <time>2018-08-16T10:48:54Z</time>
      </trkpt>
      <trkpt lat="45.85545" lon="4.68694">
        <ele>200</ele>
        <time>2018-08-16T10:48:55Z</time>
      </trkpt>
      <trkpt lat="45.85546" lon="4.68703">
        <ele>200</ele>
        <time>2018-08-16T10:48:56Z</time>
      </trkpt>
      <trkpt lat="45.85547" lon="4.68713">
        <ele>200</ele>
        <time>2018-08-16T10:48:57Z</time>
      </trkpt>
      <trkpt lat="45.85548" lon="4.68724">
        <ele>200</ele>
        <time>2018-08-16T10:48:58Z</time>
      </trkpt>
      <trkpt lat="45.85549" lon="4.68736">
        <ele>200</ele>
        <time>2018-08-16T10:48:59Z</time>
      </trkpt>
      <trkpt lat="45.8555" lon="4.68745">
        <ele>200</ele>
        <time>2018-08-16T10:49:00Z</time>
      </trkpt>
      <trkpt lat="45.8555" lon="4.68755">
        <ele>200</ele>
        <time>2018-08-16T10:49:01Z</time>
      </trkpt>
      <trkpt lat="45.85551" lon="4.68764">
        <ele>200</ele>
        <time>2018-08-16T10:49:02Z</time>
      </trkpt>
      <trkpt lat="45.85552" lon="4.68773">
        <ele>200</ele>
        <time>2018-08-16T10:49:03Z</time>
      </trkpt>
      <trkpt lat="45.85554" lon="4.68781">
        <ele>200</ele>
        <time>2018-08-16T10:49:04Z</time>
      </trkpt>
      <trkpt lat="45.85555" lon="4.68789">
        <ele>200</ele>
        <time>2018-08-16T10:49:05Z</time>
      </trkpt>
      <trkpt lat="45.85556" lon="4.68798">
        <ele>200</ele>
        <time>2018-08-16T10:49:06Z</time>
      </trkpt>
      <trkpt lat="45.85557" lon="4.68809">
        <ele>200</ele>
        <time>2018-08-16T10:49:07Z</time>
      </trkpt>
      <trkpt lat="45.85559" lon="4.68817">
        <ele>200</ele>
        <time>2018-08-16T10:49:08Z</time>
      </trkpt>
      <trkpt lat="45.85561" lon="4.68827">
        <ele>200</ele>
        <time>2018-08-16T10:49:09Z</time>
      </trkpt>
      <trkpt lat="45.85562" lon="4.68837">
        <ele>200</ele>
        <time>2018-08-16T10:49:10Z</time>
      </trkpt>
      <trkpt lat="45.85562" lon="4.68847">
        <ele>200</ele>
        <time>2018-08-16T10:49:11Z</time>
      </trkpt>
      <trkpt lat="45.85563" lon="4.68857">
        <ele>200</ele>
        <time>2018-08-16T10:49:12Z</time>
      </trkpt>
      <trkpt lat="45.85565" lon="4.68866">
        <ele>200</ele>
        <time>2018-08-16T10:49:13Z</time>
      </trkpt>
      <trkpt lat="45.85569" lon="4.68873">
        <ele>200</ele>
        <time>2018-08-16T10:49:14Z</time>
      </trkpt>
      <trkpt lat="45.85568" lon="4.68883">
        <ele>200</ele>
        <time>2018-08-16T10:49:15Z</time>
      </trkpt>
      <trkpt lat="45.85568" lon="4.68893">
        <ele>200</ele>
        <time>2018-08-16T10:49:16Z</time>
      </trkpt>
      <trkpt lat="45.85568" lon="4.68903">
        <ele>200</ele>
        <time>2018-08-16T10:49:17Z</time>
      </trkpt>
      <trkpt lat="45.85569" lon="4.68913">
        <ele>200</ele>
        <time>2018-08-16T10:49:18Z</time>
      </trkpt>
      <trkpt lat="45.8557" lon="4.68922">
        <ele>200</ele>
        <time>2018-08-16T10:49:19Z</time>
      </trkpt>
      <trkpt lat="45.8557" lon="4.6893">
        <ele>200</ele>
        <time>2018-08-16T10:49:20Z</time>
      </trkpt>
      <trkpt lat="45.85571" lon="4.68938">
        <ele>200</ele>
        <time>2018-08-16T10:49:21Z</time>
      </trkpt>
      <trkpt lat="45.85572" lon="4.68948">
        <ele>200</ele>
        <time>2018-08-16T10:49:22Z</time>
      </trkpt>
      <trkpt lat="45.85572" lon="4.68956">
        <ele>200</ele>
        <time>2018-08-16T10:49:23Z</time>
      </trkpt>
      <trkpt lat="45.85574" lon="4.68964">
        <ele>200</ele>
        <time>2018-08-16T10:49:24Z</time>
      </trkpt>
      <trkpt lat="45.85575" lon="4.68971">
        <ele>200</ele>
        <time>2018-08-16T10:49:25Z</time>
      </trkpt>
      <trkpt lat="45.85575" lon="4.68979">
        <ele>200</ele>
        <time>2018-08-16T10:49:26Z</time>
      </trkpt>
      <trkpt lat="45.85577" lon="4.68986">
        <ele>200</ele>
        <time>2018-08-16T10:49:27Z</time>
      </trkpt>
      <trkpt lat="45.85577" lon="4.68993">
        <ele>200</ele>
        <time>2018-08-16T10:49:28Z</time>
      </trkpt>
      <trkpt lat="45.85578" lon="4.69004">
        <ele>200</ele>
        <time>2018-08-16T10:49:29Z</time>
      </trkpt>
      <trkpt lat="45.85579" lon="4.69013">
        <ele>200</ele>
        <time>2018-08-16T10:49:30Z</time>
      </trkpt>
      <trkpt lat="45.85579" lon="4.69021">
        <ele>200</ele>
        <time>2018-08-16T10:49:31Z</time>
      </trkpt>
      <trkpt lat="45.8558" lon="4.6903">
        <ele>200</ele>
        <time>2018-08-16T10:49:32Z</time>
      </trkpt>
      <trkpt lat="45.85581" lon="4.69037">
        <ele>200</ele>
        <time>2018-08-16T10:49:33Z</time>
      </trkpt>
      <trkpt lat="45.85581" lon="4.69046">
        <ele>199</ele>
        <time>2018-08-16T10:49:34Z</time>
      </trkpt>
      <trkpt lat="45.85582" lon="4.69053">
        <ele>199</ele>
        <time>2018-08-16T10:49:35Z</time>
      </trkpt>
      <trkpt lat="45.85583" lon="4.69061">
        <ele>199</ele>
        <time>2018-08-16T10:49:36Z</time>
      </trkpt>
      <trkpt lat="45.85584" lon="4.69068">
        <ele>199</ele>
        <time>2018-08-16T10:49:37Z</time>
      </trkpt>
      <trkpt lat="45.85584" lon="4.69075">
        <ele>199</ele>
        <time>2018-08-16T10:49:38Z</time>
      </trkpt>
      <trkpt lat="45.85584" lon="4.69082">
        <ele>199</ele>
        <time>2018-08-16T10:49:39Z</time>
      </trkpt>
      <trkpt lat="45.85585" lon="4.69089">
        <ele>199</ele>
        <time>2018-08-16T10:49:40Z</time>
      </trkpt>
      <trkpt lat="45.85586" lon="4.69095">
        <ele>199</ele>
        <time>2018-08-16T10:49:41Z</time>
      </trkpt>
      <trkpt lat="45.85586" lon="4.69103">
        <ele>199</ele>
        <time>2018-08-16T10:49:42Z</time>
      </trkpt>
      <trkpt lat="45.85586" lon="4.69109">
        <ele>199</ele>
        <time>2018-08-16T10:49:43Z</time>
      </trkpt>
      <trkpt lat="45.85588" lon="4.69115">
        <ele>199</ele>
        <time>2018-08-16T10:49:44Z</time>
      </trkpt>
      <trkpt lat="45.85588" lon="4.69122">
        <ele>199</ele>
        <time>2018-08-16T10:49:45Z</time>
      </trkpt>
      <trkpt lat="45.85589" lon="4.69128">
        <ele>199</ele>
        <time>2018-08-16T10:49:46Z</time>
      </trkpt>
      <trkpt lat="45.8559" lon="4.69135">
        <ele>199</ele>
        <time>2018-08-16T10:49:47Z</time>
      </trkpt>
      <trkpt lat="45.85591" lon="4.69142">
        <ele>199</ele>
        <time>2018-08-16T10:49:48Z</time>
      </trkpt>
      <trkpt lat="45.85592" lon="4.69149">
        <ele>199</ele>
        <time>2018-08-16T10:49:49Z</time>
      </trkpt>
      <trkpt lat="45.85592" lon="4.69156">
        <ele>199</ele>
        <time>2018-08-16T10:49:50Z</time>
      </trkpt>
      <trkpt lat="45.85592" lon="4.69162">
        <ele>199</ele>
        <time>2018-08-16T10:49:51Z</time>
      </trkpt>
      <trkpt lat="45.85595" lon="4.6917">
        <ele>199</ele>
        <time>2018-08-16T10:49:53Z</time>
      </trkpt>
      <trkpt lat="45.85596" lon="4.69176">
        <ele>199</ele>
        <time>2018-08-16T10:49:54Z</time>
      </trkpt>
      <trkpt lat="45.85596" lon="4.69189">
        <ele>199</ele>
        <time>2018-08-16T10:49:56Z</time>
      </trkpt>
      <trkpt lat="45.85598" lon="4.69197">
        <ele>199</ele>
        <time>2018-08-16T10:49:57Z</time>
      </trkpt>
      <trkpt lat="45.85598" lon="4.69204">
        <ele>199</ele>
        <time>2018-08-16T10:49:58Z</time>
      </trkpt>
      <trkpt lat="45.856" lon="4.6921">
        <ele>199</ele>
        <time>2018-08-16T10:49:59Z</time>
      </trkpt>
      <trkpt lat="45.85599" lon="4.69217">
        <ele>199</ele>
        <time>2018-08-16T10:50:00Z</time>
      </trkpt>
      <trkpt lat="45.85599" lon="4.69224">
        <ele>199</ele>
        <time>2018-08-16T10:50:01Z</time>
      </trkpt>
      <trkpt lat="45.85599" lon="4.69232">
        <ele>199</ele>
        <time>2018-08-16T10:50:02Z</time>
      </trkpt>
      <trkpt lat="45.85598" lon="4.6924">
        <ele>199</ele>
        <time>2018-08-16T10:50:03Z</time>
      </trkpt>
      <trkpt lat="45.85597" lon="4.69247">
        <ele>199</ele>
        <time>2018-08-16T10:50:04Z</time>
      </trkpt>
      <trkpt lat="45.85596" lon="4.69256">
        <ele>199</ele>
        <time>2018-08-16T10:50:05Z</time>
      </trkpt>
      <trkpt lat="45.85596" lon="4.69264">
        <ele>199</ele>
        <time>2018-08-16T10:50:06Z</time>
      </trkpt>
      <trkpt lat="45.85597" lon="4.69271">
        <ele>198</ele>
        <time>2018-08-16T10:50:07Z</time>
      </trkpt>
      <trkpt lat="45.856" lon="4.69278">
        <ele>198</ele>
        <time>2018-08-16T10:50:08Z</time>
      </trkpt>
      <trkpt lat="45.85603" lon="4.69283">
        <ele>198</ele>
        <time>2018-08-16T10:50:09Z</time>
      </trkpt>
      <trkpt lat="45.85605" lon="4.6929">
        <ele>198</ele>
        <time>2018-08-16T10:50:10Z</time>
      </trkpt>
      <trkpt lat="45.85606" lon="4.69297">
        <ele>198</ele>
        <time>2018-08-16T10:50:11Z</time>
      </trkpt>
      <trkpt lat="45.85607" lon="4.69304">
        <ele>198</ele>
        <time>2018-08-16T10:50:12Z</time>
      </trkpt>
      <trkpt lat="45.85608" lon="4.69311">
        <ele>198</ele>
        <time>2018-08-16T10:50:13Z</time>
      </trkpt>
      <trkpt lat="45.85608" lon="4.69318">
        <ele>198</ele>
        <time>2018-08-16T10:50:14Z</time>
      </trkpt>
      <trkpt lat="45.85609" lon="4.69326">
        <ele>198</ele>
        <time>2018-08-16T10:50:15Z</time>
      </trkpt>
      <trkpt lat="45.85609" lon="4.69334">
        <ele>198</ele>
        <time>2018-08-16T10:50:16Z</time>
      </trkpt>
      <trkpt lat="45.8561" lon="4.69344">
        <ele>198</ele>
        <time>2018-08-16T10:50:17Z</time>
      </trkpt>
      <trkpt lat="45.85611" lon="4.69353">
        <ele>198</ele>
        <time>2018-08-16T10:50:18Z</time>
      </trkpt>
      <trkpt lat="45.85611" lon="4.69361">
        <ele>198</ele>
        <time>2018-08-16T10:50:19Z</time>
      </trkpt>
      <trkpt lat="45.85612" lon="4.6937">
        <ele>198</ele>
        <time>2018-08-16T10:50:20Z</time>
      </trkpt>
      <trkpt lat="45.85613" lon="4.69377">
        <ele>198</ele>
        <time>2018-08-16T10:50:21Z</time>
      </trkpt>
      <trkpt lat="45.85614" lon="4.69386">
        <ele>198</ele>
        <time>2018-08-16T10:50:22Z</time>
      </trkpt>
      <trkpt lat="45.85615" lon="4.69394">
        <ele>198</ele>
        <time>2018-08-16T10:50:23Z</time>
      </trkpt>
      <trkpt lat="45.85615" lon="4.69399">
        <ele>198</ele>
        <time>2018-08-16T10:50:24Z</time>
      </trkpt>
      <trkpt lat="45.85616" lon="4.69408">
        <ele>198</ele>
        <time>2018-08-16T10:50:25Z</time>
      </trkpt>
      <trkpt lat="45.85616" lon="4.69415">
        <ele>198</ele>
        <time>2018-08-16T10:50:26Z</time>
      </trkpt>
      <trkpt lat="45.85618" lon="4.69423">
        <ele>198</ele>
        <time>2018-08-16T10:50:27Z</time>
      </trkpt>
      <trkpt lat="45.85618" lon="4.69429">
        <ele>198</ele>
        <time>2018-08-16T10:50:28Z</time>
      </trkpt>
      <trkpt lat="45.85619" lon="4.69437">
        <ele>198</ele>
        <time>2018-08-16T10:50:29Z</time>
      </trkpt>
      <trkpt lat="45.8562" lon="4.69445">
        <ele>198</ele>
        <time>2018-08-16T10:50:30Z</time>
      </trkpt>
      <trkpt lat="45.85621" lon="4.69454">
        <ele>198</ele>
        <time>2018-08-16T10:50:31Z</time>
      </trkpt>
      <trkpt lat="45.85622" lon="4.69462">
        <ele>198</ele>
        <time>2018-08-16T10:50:32Z</time>
      </trkpt>
      <trkpt lat="45.85622" lon="4.69471">
        <ele>198</ele>
        <time>2018-08-16T10:50:33Z</time>
      </trkpt>
      <trkpt lat="45.85623" lon="4.6948">
        <ele>198</ele>
        <time>2018-08-16T10:50:34Z</time>
      </trkpt>
      <trkpt lat="45.85623" lon="4.69487">
        <ele>198</ele>
        <time>2018-08-16T10:50:35Z</time>
      </trkpt>
      <trkpt lat="45.85624" lon="4.69496">
        <ele>198</ele>
        <time>2018-08-16T10:50:36Z</time>
      </trkpt>
      <trkpt lat="45.85625" lon="4.69504">
        <ele>198</ele>
        <time>2018-08-16T10:50:37Z</time>
      </trkpt>
      <trkpt lat="45.85625" lon="4.69513">
        <ele>198</ele>
        <time>2018-08-16T10:50:38Z</time>
      </trkpt>
      <trkpt lat="45.85626" lon="4.69522">
        <ele>198</ele>
        <time>2018-08-16T10:50:39Z</time>
      </trkpt>
      <trkpt lat="45.85627" lon="4.6953">
        <ele>198</ele>
        <time>2018-08-16T10:50:40Z</time>
      </trkpt>
      <trkpt lat="45.85628" lon="4.69538">
        <ele>198</ele>
        <time>2018-08-16T10:50:41Z</time>
      </trkpt>
      <trkpt lat="45.85629" lon="4.69547">
        <ele>198</ele>
        <time>2018-08-16T10:50:42Z</time>
      </trkpt>
      <trkpt lat="45.8563" lon="4.69555">
        <ele>198</ele>
        <time>2018-08-16T10:50:43Z</time>
      </trkpt>
      <trkpt lat="45.85632" lon="4.69563">
        <ele>198</ele>
        <time>2018-08-16T10:50:44Z</time>
      </trkpt>
      <trkpt lat="45.85633" lon="4.69572">
        <ele>198</ele>
        <time>2018-08-16T10:50:45Z</time>
      </trkpt>
      <trkpt lat="45.85634" lon="4.69583">
        <ele>198</ele>
        <time>2018-08-16T10:50:46Z</time>
      </trkpt>
      <trkpt lat="45.85634" lon="4.69592">
        <ele>197</ele>
        <time>2018-08-16T10:50:47Z</time>
      </trkpt>
      <trkpt lat="45.85634" lon="4.69602">
        <ele>197</ele>
        <time>2018-08-16T10:50:48Z</time>
      </trkpt>
      <trkpt lat="45.85634" lon="4.69612">
        <ele>197</ele>
        <time>2018-08-16T10:50:49Z</time>
      </trkpt>
      <trkpt lat="45.85635" lon="4.69622">
        <ele>197</ele>
        <time>2018-08-16T10:50:50Z</time>
      </trkpt>
      <trkpt lat="45.85636" lon="4.69632">
        <ele>197</ele>
        <time>2018-08-16T10:50:51Z</time>
      </trkpt>
      <trkpt lat="45.85636" lon="4.69641">
        <ele>197</ele>
        <time>2018-08-16T10:50:52Z</time>
      </trkpt>
      <trkpt lat="45.85637" lon="4.69649">
        <ele>197</ele>
        <time>2018-08-16T10:50:53Z</time>
      </trkpt>
      <trkpt lat="45.85638" lon="4.69661">
        <ele>197</ele>
        <time>2018-08-16T10:50:55Z</time>
      </trkpt>
      <trkpt lat="45.85639" lon="4.69669">
        <ele>196</ele>
        <time>2018-08-16T10:50:56Z</time>
      </trkpt>
      <trkpt lat="45.85639" lon="4.69676">
        <ele>196</ele>
        <time>2018-08-16T10:50:57Z</time>
      </trkpt>
      <trkpt lat="45.85639" lon="4.69683">
        <ele>196</ele>
        <time>2018-08-16T10:50:58Z</time>
      </trkpt>
      <trkpt lat="45.85641" lon="4.69693">
        <ele>196</ele>
        <time>2018-08-16T10:50:59Z</time>
      </trkpt>
      <trkpt lat="45.85642" lon="4.69702">
        <ele>196</ele>
        <time>2018-08-16T10:51:00Z</time>
      </trkpt>
      <trkpt lat="45.85643" lon="4.6971">
        <ele>196</ele>
        <time>2018-08-16T10:51:01Z</time>
      </trkpt>
      <trkpt lat="45.85644" lon="4.69719">
        <ele>196</ele>
        <time>2018-08-16T10:51:02Z</time>
      </trkpt>
      <trkpt lat="45.85645" lon="4.69728">
        <ele>195</ele>
        <time>2018-08-16T10:51:03Z</time>
      </trkpt>
      <trkpt lat="45.85645" lon="4.69737">
        <ele>195</ele>
        <time>2018-08-16T10:51:04Z</time>
      </trkpt>
      <trkpt lat="45.85646" lon="4.69745">
        <ele>195</ele>
        <time>2018-08-16T10:51:05Z</time>
      </trkpt>
      <trkpt lat="45.85647" lon="4.69754">
        <ele>195</ele>
        <time>2018-08-16T10:51:06Z</time>
      </trkpt>
      <trkpt lat="45.85647" lon="4.69762">
        <ele>195</ele>
        <time>2018-08-16T10:51:07Z</time>
      </trkpt>
      <trkpt lat="45.85648" lon="4.6977">
        <ele>195</ele>
        <time>2018-08-16T10:51:08Z</time>
      </trkpt>
      <trkpt lat="45.85649" lon="4.69777">
        <ele>195</ele>
        <time>2018-08-16T10:51:09Z</time>
      </trkpt>
      <trkpt lat="45.8565" lon="4.69785">
        <ele>195</ele>
        <time>2018-08-16T10:51:10Z</time>
      </trkpt>
      <trkpt lat="45.8565" lon="4.69792">
        <ele>195</ele>
        <time>2018-08-16T10:51:11Z</time>
      </trkpt>
      <trkpt lat="45.85651" lon="4.698">
        <ele>195</ele>
        <time>2018-08-16T10:51:12Z</time>
      </trkpt>
      <trkpt lat="45.85652" lon="4.69807">
        <ele>195</ele>
        <time>2018-08-16T10:51:13Z</time>
      </trkpt>
      <trkpt lat="45.85653" lon="4.69815">
        <ele>195</ele>
        <time>2018-08-16T10:51:14Z</time>
      </trkpt>
      <trkpt lat="45.85654" lon="4.69823">
        <ele>195</ele>
        <time>2018-08-16T10:51:15Z</time>
      </trkpt>
      <trkpt lat="45.85655" lon="4.6983">
        <ele>195</ele>
        <time>2018-08-16T10:51:16Z</time>
      </trkpt>
      <trkpt lat="45.85656" lon="4.69839">
        <ele>195</ele>
        <time>2018-08-16T10:51:17Z</time>
      </trkpt>
      <trkpt lat="45.85656" lon="4.69847">
        <ele>195</ele>
        <time>2018-08-16T10:51:18Z</time>
      </trkpt>
      <trkpt lat="45.85656" lon="4.69855">
        <ele>195</ele>
        <time>2018-08-16T10:51:19Z</time>
      </trkpt>
      <trkpt lat="45.85659" lon="4.69863">
        <ele>195</ele>
        <time>2018-08-16T10:51:20Z</time>
      </trkpt>
      <trkpt lat="45.8566" lon="4.69872">
        <ele>195</ele>
        <time>2018-08-16T10:51:21Z</time>
      </trkpt>
      <trkpt lat="45.8566" lon="4.69881">
        <ele>195</ele>
        <time>2018-08-16T10:51:22Z</time>
      </trkpt>
      <trkpt lat="45.85662" lon="4.69886">
        <ele>195</ele>
        <time>2018-08-16T10:51:23Z</time>
      </trkpt>
      <trkpt lat="45.85663" lon="4.69894">
        <ele>195</ele>
        <time>2018-08-16T10:51:24Z</time>
      </trkpt>
      <trkpt lat="45.85664" lon="4.69903">
        <ele>195</ele>
        <time>2018-08-16T10:51:25Z</time>
      </trkpt>
      <trkpt lat="45.85667" lon="4.69911">
        <ele>195</ele>
        <time>2018-08-16T10:51:26Z</time>
      </trkpt>
      <trkpt lat="45.85669" lon="4.69919">
        <ele>195</ele>
        <time>2018-08-16T10:51:27Z</time>
      </trkpt>
      <trkpt lat="45.85671" lon="4.69927">
        <ele>195</ele>
        <time>2018-08-16T10:51:28Z</time>
      </trkpt>
      <trkpt lat="45.85673" lon="4.69935">
        <ele>195</ele>
        <time>2018-08-16T10:51:29Z</time>
      </trkpt>
      <trkpt lat="45.85675" lon="4.69942">
        <ele>195</ele>
        <time>2018-08-16T10:51:30Z</time>
      </trkpt>
      <trkpt lat="45.85678" lon="4.69951">
        <ele>195</ele>
        <time>2018-08-16T10:51:31Z</time>
      </trkpt>
      <trkpt lat="45.8568" lon="4.69959">
        <ele>195</ele>
        <time>2018-08-16T10:51:32Z</time>
      </trkpt>
      <trkpt lat="45.85681" lon="4.69968">
        <ele>195</ele>
        <time>2018-08-16T10:51:33Z</time>
      </trkpt>
      <trkpt lat="45.85683" lon="4.69975">
        <ele>195</ele>
        <time>2018-08-16T10:51:34Z</time>
      </trkpt>
      <trkpt lat="45.85684" lon="4.69983">
        <ele>195</ele>
        <time>2018-08-16T10:51:35Z</time>
      </trkpt>
      <trkpt lat="45.85684" lon="4.69992">
        <ele>195</ele>
        <time>2018-08-16T10:51:36Z</time>
      </trkpt>
      <trkpt lat="45.85684" lon="4.69999">
        <ele>195</ele>
        <time>2018-08-16T10:51:37Z</time>
      </trkpt>
      <trkpt lat="45.85685" lon="4.70006">
        <ele>195</ele>
        <time>2018-08-16T10:51:38Z</time>
      </trkpt>
      <trkpt lat="45.85684" lon="4.70013">
        <ele>195</ele>
        <time>2018-08-16T10:51:39Z</time>
      </trkpt>
      <trkpt lat="45.85683" lon="4.7002">
        <ele>195</ele>
        <time>2018-08-16T10:51:40Z</time>
      </trkpt>
      <trkpt lat="45.85682" lon="4.70026">
        <ele>195</ele>
        <time>2018-08-16T10:51:41Z</time>
      </trkpt>
      <trkpt lat="45.85682" lon="4.70033">
        <ele>195</ele>
        <time>2018-08-16T10:51:42Z</time>
      </trkpt>
      <trkpt lat="45.85677" lon="4.70044">
        <ele>195</ele>
        <time>2018-08-16T10:51:44Z</time>
      </trkpt>
      <trkpt lat="45.85676" lon="4.70052">
        <ele>195</ele>
        <time>2018-08-16T10:51:45Z</time>
      </trkpt>
      <trkpt lat="45.85674" lon="4.70064">
        <ele>196</ele>
        <time>2018-08-16T10:51:47Z</time>
      </trkpt>
      <trkpt lat="45.85671" lon="4.70067">
        <ele>196</ele>
        <time>2018-08-16T10:51:48Z</time>
      </trkpt>
      <trkpt lat="45.8567" lon="4.70074">
        <ele>196</ele>
        <time>2018-08-16T10:51:49Z</time>
      </trkpt>
      <trkpt lat="45.8567" lon="4.70085">
        <ele>196</ele>
        <time>2018-08-16T10:51:50Z</time>
      </trkpt>
      <trkpt lat="45.85669" lon="4.70093">
        <ele>196</ele>
        <time>2018-08-16T10:51:51Z</time>
      </trkpt>
      <trkpt lat="45.85668" lon="4.70102">
        <ele>196</ele>
        <time>2018-08-16T10:51:52Z</time>
      </trkpt>
      <trkpt lat="45.85668" lon="4.70111">
        <ele>197</ele>
        <time>2018-08-16T10:51:53Z</time>
      </trkpt>
      <trkpt lat="45.85668" lon="4.7012">
        <ele>197</ele>
        <time>2018-08-16T10:51:54Z</time>
      </trkpt>
      <trkpt lat="45.85669" lon="4.7013">
        <ele>197</ele>
        <time>2018-08-16T10:51:55Z</time>
      </trkpt>
      <trkpt lat="45.8567" lon="4.70139">
        <ele>197</ele>
        <time>2018-08-16T10:51:56Z</time>
      </trkpt>
      <trkpt lat="45.85672" lon="4.70149">
        <ele>197</ele>
        <time>2018-08-16T10:51:57Z</time>
      </trkpt>
      <trkpt lat="45.85674" lon="4.7016">
        <ele>197</ele>
        <time>2018-08-16T10:51:58Z</time>
      </trkpt>
      <trkpt lat="45.85676" lon="4.70169">
        <ele>197</ele>
        <time>2018-08-16T10:51:59Z</time>
      </trkpt>
      <trkpt lat="45.85677" lon="4.70177">
        <ele>197</ele>
        <time>2018-08-16T10:52:00Z</time>
      </trkpt>
      <trkpt lat="45.85679" lon="4.70184">
        <ele>197</ele>
        <time>2018-08-16T10:52:01Z</time>
      </trkpt>
      <trkpt lat="45.85681" lon="4.70191">
        <ele>197</ele>
        <time>2018-08-16T10:52:02Z</time>
      </trkpt>
      <trkpt lat="45.85683" lon="4.70199">
        <ele>197</ele>
        <time>2018-08-16T10:52:03Z</time>
      </trkpt>
      <trkpt lat="45.85685" lon="4.70208">
        <ele>197</ele>
        <time>2018-08-16T10:52:04Z</time>
      </trkpt>
      <trkpt lat="45.85686" lon="4.70217">
        <ele>197</ele>
        <time>2018-08-16T10:52:05Z</time>
      </trkpt>
      <trkpt lat="45.85689" lon="4.70226">
        <ele>197</ele>
        <time>2018-08-16T10:52:06Z</time>
      </trkpt>
      <trkpt lat="45.8569" lon="4.70234">
        <ele>197</ele>
        <time>2018-08-16T10:52:07Z</time>
      </trkpt>
      <trkpt lat="45.85691" lon="4.70242">
        <ele>197</ele>
        <time>2018-08-16T10:52:08Z</time>
      </trkpt>
      <trkpt lat="45.85692" lon="4.7025">
        <ele>197</ele>
        <time>2018-08-16T10:52:09Z</time>
      </trkpt>
      <trkpt lat="45.85692" lon="4.7026">
        <ele>197</ele>
        <time>2018-08-16T10:52:10Z</time>
      </trkpt>
      <trkpt lat="45.85693" lon="4.70269">
        <ele>197</ele>
        <time>2018-08-16T10:52:11Z</time>
      </trkpt>
      <trkpt lat="45.85694" lon="4.70277">
        <ele>197</ele>
        <time>2018-08-16T10:52:12Z</time>
      </trkpt>
      <trkpt lat="45.85696" lon="4.70288">
        <ele>197</ele>
        <time>2018-08-16T10:52:13Z</time>
      </trkpt>
      <trkpt lat="45.85697" lon="4.70297">
        <ele>197</ele>
        <time>2018-08-16T10:52:14Z</time>
      </trkpt>
      <trkpt lat="45.85698" lon="4.70306">
        <ele>197</ele>
        <time>2018-08-16T10:52:15Z</time>
      </trkpt>
      <trkpt lat="45.85698" lon="4.70314">
        <ele>197</ele>
        <time>2018-08-16T10:52:16Z</time>
      </trkpt>
      <trkpt lat="45.85698" lon="4.70322">
        <ele>197</ele>
        <time>2018-08-16T10:52:17Z</time>
      </trkpt>
      <trkpt lat="45.857" lon="4.70332">
        <ele>197</ele>
        <time>2018-08-16T10:52:18Z</time>
      </trkpt>
      <trkpt lat="45.857" lon="4.70339">
        <ele>196</ele>
        <time>2018-08-16T10:52:19Z</time>
      </trkpt>
      <trkpt lat="45.85701" lon="4.70347">
        <ele>196</ele>
        <time>2018-08-16T10:52:20Z</time>
      </trkpt>
      <trkpt lat="45.85702" lon="4.70356">
        <ele>196</ele>
        <time>2018-08-16T10:52:21Z</time>
      </trkpt>
      <trkpt lat="45.85703" lon="4.70367">
        <ele>196</ele>
        <time>2018-08-16T10:52:22Z</time>
      </trkpt>
      <trkpt lat="45.85704" lon="4.70375">
        <ele>196</ele>
        <time>2018-08-16T10:52:23Z</time>
      </trkpt>
      <trkpt lat="45.85706" lon="4.70384">
        <ele>196</ele>
        <time>2018-08-16T10:52:24Z</time>
      </trkpt>
      <trkpt lat="45.85707" lon="4.70393">
        <ele>196</ele>
        <time>2018-08-16T10:52:25Z</time>
      </trkpt>
      <trkpt lat="45.85708" lon="4.70402">
        <ele>196</ele>
        <time>2018-08-16T10:52:26Z</time>
      </trkpt>
      <trkpt lat="45.85709" lon="4.7041">
        <ele>196</ele>
        <time>2018-08-16T10:52:27Z</time>
      </trkpt>
      <trkpt lat="45.8571" lon="4.70419">
        <ele>196</ele>
        <time>2018-08-16T10:52:28Z</time>
      </trkpt>
      <trkpt lat="45.85711" lon="4.70428">
        <ele>196</ele>
        <time>2018-08-16T10:52:29Z</time>
      </trkpt>
      <trkpt lat="45.85712" lon="4.70435">
        <ele>196</ele>
        <time>2018-08-16T10:52:30Z</time>
      </trkpt>
      <trkpt lat="45.85713" lon="4.70443">
        <ele>196</ele>
        <time>2018-08-16T10:52:31Z</time>
      </trkpt>
      <trkpt lat="45.85714" lon="4.70451">
        <ele>196</ele>
        <time>2018-08-16T10:52:32Z</time>
      </trkpt>
      <trkpt lat="45.85715" lon="4.70459">
        <ele>196</ele>
        <time>2018-08-16T10:52:33Z</time>
      </trkpt>
      <trkpt lat="45.85716" lon="4.70466">
        <ele>196</ele>
        <time>2018-08-16T10:52:34Z</time>
      </trkpt>
      <trkpt lat="45.85718" lon="4.70472">
        <ele>196</ele>
        <time>2018-08-16T10:52:35Z</time>
      </trkpt>
      <trkpt lat="45.85717" lon="4.70479">
        <ele>196</ele>
        <time>2018-08-16T10:52:36Z</time>
      </trkpt>
      <trkpt lat="45.85716" lon="4.70486">
        <ele>196</ele>
        <time>2018-08-16T10:52:37Z</time>
      </trkpt>
      <trkpt lat="45.85715" lon="4.70492">
        <ele>196</ele>
        <time>2018-08-16T10:52:38Z</time>
      </trkpt>
      <trkpt lat="45.85712" lon="4.70499">
        <ele>196</ele>
        <time>2018-08-16T10:52:39Z</time>
      </trkpt>
      <trkpt lat="45.85709" lon="4.70506">
        <ele>196</ele>
        <time>2018-08-16T10:52:40Z</time>
      </trkpt>
      <trkpt lat="45.85708" lon="4.70513">
        <ele>197</ele>
        <time>2018-08-16T10:52:41Z</time>
      </trkpt>
      <trkpt lat="45.85712" lon="4.7052">
        <ele>196</ele>
        <time>2018-08-16T10:52:42Z</time>
      </trkpt>
      <trkpt lat="45.85715" lon="4.70527">
        <ele>196</ele>
        <time>2018-08-16T10:52:43Z</time>
      </trkpt>
      <trkpt lat="45.8572" lon="4.70528">
        <ele>196</ele>
        <time>2018-08-16T10:52:44Z</time>
      </trkpt>
      <trkpt lat="45.85728" lon="4.70525">
        <ele>196</ele>
        <time>2018-08-16T10:52:46Z</time>
      </trkpt>
      <trkpt lat="45.85733" lon="4.70521">
        <ele>196</ele>
        <time>2018-08-16T10:52:47Z</time>
      </trkpt>
      <trkpt lat="45.85738" lon="4.70518">
        <ele>196</ele>
        <time>2018-08-16T10:52:48Z</time>
      </trkpt>
      <trkpt lat="45.85744" lon="4.70519">
        <ele>196</ele>
        <time>2018-08-16T10:52:49Z</time>
      </trkpt>
      <trkpt lat="45.85749" lon="4.70516">
        <ele>196</ele>
        <time>2018-08-16T10:52:50Z</time>
      </trkpt>
      <trkpt lat="45.85754" lon="4.70518">
        <ele>196</ele>
        <time>2018-08-16T10:52:51Z</time>
      </trkpt>
      <trkpt lat="45.85759" lon="4.7052">
        <ele>196</ele>
        <time>2018-08-16T10:52:52Z</time>
      </trkpt>
      <trkpt lat="45.85764" lon="4.70521">
        <ele>196</ele>
        <time>2018-08-16T10:52:53Z</time>
      </trkpt>
      <trkpt lat="45.85769" lon="4.70523">
        <ele>196</ele>
        <time>2018-08-16T10:52:54Z</time>
      </trkpt>
      <trkpt lat="45.85774" lon="4.70527">
        <ele>196</ele>
        <time>2018-08-16T10:52:55Z</time>
      </trkpt>
      <trkpt lat="45.85779" lon="4.7053">
        <ele>196</ele>
        <time>2018-08-16T10:52:56Z</time>
      </trkpt>
      <trkpt lat="45.85785" lon="4.70534">
        <ele>196</ele>
        <time>2018-08-16T10:52:57Z</time>
      </trkpt>
      <trkpt lat="45.8579" lon="4.70537">
        <ele>196</ele>
        <time>2018-08-16T10:52:58Z</time>
      </trkpt>
      <trkpt lat="45.85795" lon="4.7054">
        <ele>195</ele>
        <time>2018-08-16T10:52:59Z</time>
      </trkpt>
      <trkpt lat="45.85799" lon="4.70544">
        <ele>195</ele>
        <time>2018-08-16T10:53:00Z</time>
      </trkpt>
      <trkpt lat="45.85804" lon="4.70547">
        <ele>195</ele>
        <time>2018-08-16T10:53:01Z</time>
      </trkpt>
      <trkpt lat="45.85808" lon="4.70549">
        <ele>195</ele>
        <time>2018-08-16T10:53:02Z</time>
      </trkpt>
      <trkpt lat="45.8581" lon="4.70556">
        <ele>195</ele>
        <time>2018-08-16T10:53:03Z</time>
      </trkpt>
      <trkpt lat="45.85814" lon="4.70558">
        <ele>195</ele>
        <time>2018-08-16T10:53:04Z</time>
      </trkpt>
      <trkpt lat="45.8582" lon="4.70562">
        <ele>195</ele>
        <time>2018-08-16T10:53:05Z</time>
      </trkpt>
      <trkpt lat="45.85824" lon="4.70565">
        <ele>195</ele>
        <time>2018-08-16T10:53:06Z</time>
      </trkpt>
      <trkpt lat="45.85828" lon="4.70568">
        <ele>195</ele>
        <time>2018-08-16T10:53:07Z</time>
      </trkpt>
      <trkpt lat="45.85833" lon="4.7057">
        <ele>195</ele>
        <time>2018-08-16T10:53:08Z</time>
      </trkpt>
      <trkpt lat="45.85839" lon="4.70571">
        <ele>195</ele>
        <time>2018-08-16T10:53:09Z</time>
      </trkpt>
      <trkpt lat="45.85844" lon="4.70573">
        <ele>195</ele>
        <time>2018-08-16T10:53:10Z</time>
      </trkpt>
      <trkpt lat="45.85849" lon="4.70574">
        <ele>195</ele>
        <time>2018-08-16T10:53:11Z</time>
      </trkpt>
      <trkpt lat="45.85854" lon="4.70577">
        <ele>195</ele>
        <time>2018-08-16T10:53:12Z</time>
      </trkpt>
      <trkpt lat="45.85859" lon="4.7058">
        <ele>195</ele>
        <time>2018-08-16T10:53:13Z</time>
      </trkpt>
      <trkpt lat="45.85864" lon="4.7058">
        <ele>195</ele>
        <time>2018-08-16T10:53:14Z</time>
      </trkpt>
      <trkpt lat="45.85869" lon="4.70581">
        <ele>195</ele>
        <time>2018-08-16T10:53:15Z</time>
      </trkpt>
      <trkpt lat="45.85875" lon="4.70583">
        <ele>195</ele>
        <time>2018-08-16T10:53:16Z</time>
      </trkpt>
      <trkpt lat="45.8588" lon="4.70584">
        <ele>195</ele>
        <time>2018-08-16T10:53:17Z</time>
      </trkpt>
      <trkpt lat="45.85886" lon="4.70585">
        <ele>195</ele>
        <time>2018-08-16T10:53:18Z</time>
      </trkpt>
      <trkpt lat="45.85891" lon="4.70586">
        <ele>195</ele>
        <time>2018-08-16T10:53:19Z</time>
      </trkpt>
      <trkpt lat="45.85899" lon="4.70591">
        <ele>195</ele>
        <time>2018-08-16T10:53:21Z</time>
      </trkpt>
      <trkpt lat="45.85902" lon="4.70595">
        <ele>195</ele>
        <time>2018-08-16T10:53:22Z</time>
      </trkpt>
      <trkpt lat="45.85907" lon="4.70601">
        <ele>195</ele>
        <time>2018-08-16T10:53:23Z</time>
      </trkpt>
      <trkpt lat="45.85911" lon="4.70604">
        <ele>195</ele>
        <time>2018-08-16T10:53:24Z</time>
      </trkpt>
      <trkpt lat="45.85915" lon="4.7061">
        <ele>195</ele>
        <time>2018-08-16T10:53:25Z</time>
      </trkpt>
      <trkpt lat="45.8592" lon="4.70615">
        <ele>194</ele>
        <time>2018-08-16T10:53:26Z</time>
      </trkpt>
      <trkpt lat="45.85924" lon="4.70622">
        <ele>194</ele>
        <time>2018-08-16T10:53:27Z</time>
      </trkpt>
      <trkpt lat="45.85926" lon="4.70629">
        <ele>194</ele>
        <time>2018-08-16T10:53:28Z</time>
      </trkpt>
      <trkpt lat="45.8593" lon="4.70634">
        <ele>194</ele>
        <time>2018-08-16T10:53:29Z</time>
      </trkpt>
      <trkpt lat="45.85933" lon="4.70639">
        <ele>194</ele>
        <time>2018-08-16T10:53:30Z</time>
      </trkpt>
      <trkpt lat="45.85936" lon="4.70644">
        <ele>194</ele>
        <time>2018-08-16T10:53:31Z</time>
      </trkpt>
      <trkpt lat="45.85939" lon="4.7065">
        <ele>194</ele>
        <time>2018-08-16T10:53:32Z</time>
      </trkpt>
      <trkpt lat="45.85945" lon="4.70658">
        <ele>194</ele>
        <time>2018-08-16T10:53:34Z</time>
      </trkpt>
      <trkpt lat="45.85949" lon="4.70663">
        <ele>194</ele>
        <time>2018-08-16T10:53:35Z</time>
      </trkpt>
      <trkpt lat="45.85953" lon="4.70674">
        <ele>194</ele>
        <time>2018-08-16T10:53:37Z</time>
      </trkpt>
      <trkpt lat="45.85954" lon="4.70678">
        <ele>194</ele>
        <time>2018-08-16T10:53:38Z</time>
      </trkpt>
      <trkpt lat="45.85956" lon="4.70686">
        <ele>194</ele>
        <time>2018-08-16T10:53:39Z</time>
      </trkpt>
      <trkpt lat="45.85957" lon="4.70694">
        <ele>194</ele>
        <time>2018-08-16T10:53:40Z</time>
      </trkpt>
      <trkpt lat="45.85958" lon="4.70701">
        <ele>194</ele>
        <time>2018-08-16T10:53:41Z</time>
      </trkpt>
      <trkpt lat="45.85958" lon="4.70709">
        <ele>194</ele>
        <time>2018-08-16T10:53:42Z</time>
      </trkpt>
      <trkpt lat="45.85958" lon="4.70718">
        <ele>194</ele>
        <time>2018-08-16T10:53:43Z</time>
      </trkpt>
      <trkpt lat="45.85957" lon="4.70726">
        <ele>194</ele>
        <time>2018-08-16T10:53:44Z</time>
      </trkpt>
      <trkpt lat="45.85957" lon="4.70733">
        <ele>194</ele>
        <time>2018-08-16T10:53:45Z</time>
      </trkpt>
      <trkpt lat="45.85956" lon="4.70741">
        <ele>194</ele>
        <time>2018-08-16T10:53:46Z</time>
      </trkpt>
      <trkpt lat="45.85955" lon="4.70748">
        <ele>194</ele>
        <time>2018-08-16T10:53:47Z</time>
      </trkpt>
      <trkpt lat="45.85954" lon="4.70754">
        <ele>195</ele>
        <time>2018-08-16T10:53:48Z</time>
      </trkpt>
      <trkpt lat="45.85953" lon="4.70762">
        <ele>195</ele>
        <time>2018-08-16T10:53:49Z</time>
      </trkpt>
      <trkpt lat="45.85953" lon="4.70769">
        <ele>195</ele>
        <time>2018-08-16T10:53:50Z</time>
      </trkpt>
      <trkpt lat="45.85952" lon="4.70775">
        <ele>195</ele>
        <time>2018-08-16T10:53:51Z</time>
      </trkpt>
      <trkpt lat="45.85952" lon="4.70782">
        <ele>195</ele>
        <time>2018-08-16T10:53:52Z</time>
      </trkpt>
      <trkpt lat="45.85952" lon="4.70794">
        <ele>195</ele>
        <time>2018-08-16T10:53:54Z</time>
      </trkpt>
      <trkpt lat="45.85952" lon="4.70799">
        <ele>195</ele>
        <time>2018-08-16T10:53:55Z</time>
      </trkpt>
      <trkpt lat="45.85953" lon="4.70804">
        <ele>195</ele>
        <time>2018-08-16T10:53:56Z</time>
      </trkpt>
      <trkpt lat="45.85955" lon="4.70813">
        <ele>195</ele>
        <time>2018-08-16T10:53:57Z</time>
      </trkpt>
      <trkpt lat="45.85956" lon="4.70819">
        <ele>195</ele>
        <time>2018-08-16T10:53:58Z</time>
      </trkpt>
      <trkpt lat="45.85958" lon="4.70826">
        <ele>196</ele>
        <time>2018-08-16T10:53:59Z</time>
      </trkpt>
      <trkpt lat="45.85959" lon="4.70833">
        <ele>196</ele>
        <time>2018-08-16T10:54:00Z</time>
      </trkpt>
      <trkpt lat="45.85959" lon="4.7084">
        <ele>196</ele>
        <time>2018-08-16T10:54:01Z</time>
      </trkpt>
      <trkpt lat="45.8596" lon="4.70848">
        <ele>196</ele>
        <time>2018-08-16T10:54:02Z</time>
      </trkpt>
      <trkpt lat="45.85959" lon="4.70854">
        <ele>196</ele>
        <time>2018-08-16T10:54:03Z</time>
      </trkpt>
      <trkpt lat="45.85958" lon="4.70866">
        <ele>196</ele>
        <time>2018-08-16T10:54:05Z</time>
      </trkpt>
      <trkpt lat="45.85957" lon="4.70871">
        <ele>196</ele>
        <time>2018-08-16T10:54:06Z</time>
      </trkpt>
      <trkpt lat="45.85956" lon="4.70879">
        <ele>197</ele>
        <time>2018-08-16T10:54:07Z</time>
      </trkpt>
      <trkpt lat="45.85955" lon="4.70884">
        <ele>197</ele>
        <time>2018-08-16T10:54:08Z</time>
      </trkpt>
      <trkpt lat="45.85954" lon="4.70891">
        <ele>197</ele>
        <time>2018-08-16T10:54:09Z</time>
      </trkpt>
      <trkpt lat="45.85953" lon="4.70898">
        <ele>197</ele>
        <time>2018-08-16T10:54:10Z</time>
      </trkpt>
      <trkpt lat="45.8595" lon="4.70909">
        <ele>197</ele>
        <time>2018-08-16T10:54:12Z</time>
      </trkpt>
      <trkpt lat="45.8595" lon="4.70914">
        <ele>197</ele>
        <time>2018-08-16T10:54:13Z</time>
      </trkpt>
      <trkpt lat="45.85947" lon="4.70923">
        <ele>197</ele>
        <time>2018-08-16T10:54:15Z</time>
      </trkpt>
      <trkpt lat="45.85946" lon="4.70929">
        <ele>197</ele>
        <time>2018-08-16T10:54:16Z</time>
      </trkpt>
      <trkpt lat="45.85943" lon="4.70938">
        <ele>197</ele>
        <time>2018-08-16T10:54:18Z</time>
      </trkpt>
      <trkpt lat="45.85942" lon="4.70945">
        <ele>197</ele>
        <time>2018-08-16T10:54:19Z</time>
      </trkpt>
      <trkpt lat="45.8594" lon="4.70954">
        <ele>197</ele>
        <time>2018-08-16T10:54:21Z</time>
      </trkpt>
      <trkpt lat="45.85939" lon="4.7096">
        <ele>197</ele>
        <time>2018-08-16T10:54:22Z</time>
      </trkpt>
      <trkpt lat="45.85946" lon="4.70968">
        <ele>197</ele>
        <time>2018-08-16T10:54:24Z</time>
      </trkpt>
      <trkpt lat="45.85949" lon="4.70971">
        <ele>197</ele>
        <time>2018-08-16T10:54:25Z</time>
      </trkpt>
      <trkpt lat="45.85954" lon="4.7097">
        <ele>197</ele>
        <time>2018-08-16T10:54:26Z</time>
      </trkpt>
      <trkpt lat="45.85958" lon="4.7097">
        <ele>197</ele>
        <time>2018-08-16T10:54:27Z</time>
      </trkpt>
      <trkpt lat="45.85962" lon="4.70969">
        <ele>197</ele>
        <time>2018-08-16T10:54:28Z</time>
      </trkpt>
      <trkpt lat="45.85967" lon="4.70971">
        <ele>197</ele>
        <time>2018-08-16T10:54:29Z</time>
      </trkpt>
      <trkpt lat="45.85975" lon="4.70973">
        <ele>197</ele>
        <time>2018-08-16T10:54:31Z</time>
      </trkpt>
      <trkpt lat="45.8598" lon="4.70977">
        <ele>197</ele>
        <time>2018-08-16T10:54:32Z</time>
      </trkpt>
      <trkpt lat="45.85985" lon="4.70979">
        <ele>197</ele>
        <time>2018-08-16T10:54:33Z</time>
      </trkpt>
      <trkpt lat="45.85989" lon="4.70983">
        <ele>197</ele>
        <time>2018-08-16T10:54:34Z</time>
      </trkpt>
      <trkpt lat="45.85995" lon="4.70984">
        <ele>197</ele>
        <time>2018-08-16T10:54:35Z</time>
      </trkpt>
      <trkpt lat="45.85999" lon="4.70987">
        <ele>197</ele>
        <time>2018-08-16T10:54:36Z</time>
      </trkpt>
      <trkpt lat="45.86004" lon="4.7099">
        <ele>197</ele>
        <time>2018-08-16T10:54:37Z</time>
      </trkpt>
      <trkpt lat="45.86007" lon="4.70994">
        <ele>197</ele>
        <time>2018-08-16T10:54:38Z</time>
      </trkpt>
      <trkpt lat="45.86011" lon="4.70998">
        <ele>197</ele>
        <time>2018-08-16T10:54:39Z</time>
      </trkpt>
      <trkpt lat="45.86014" lon="4.71003">
        <ele>197</ele>
        <time>2018-08-16T10:54:40Z</time>
      </trkpt>
      <trkpt lat="45.86018" lon="4.71008">
        <ele>197</ele>
        <time>2018-08-16T10:54:41Z</time>
      </trkpt>
      <trkpt lat="45.86021" lon="4.71013">
        <ele>197</ele>
        <time>2018-08-16T10:54:42Z</time>
      </trkpt>
      <trkpt lat="45.86026" lon="4.71022">
        <ele>197</ele>
        <time>2018-08-16T10:54:44Z</time>
      </trkpt>
      <trkpt lat="45.86028" lon="4.71028">
        <ele>197</ele>
        <time>2018-08-16T10:54:45Z</time>
      </trkpt>
      <trkpt lat="45.8603" lon="4.71033">
        <ele>197</ele>
        <time>2018-08-16T10:54:46Z</time>
      </trkpt>
      <trkpt lat="45.86032" lon="4.71042">
        <ele>197</ele>
        <time>2018-08-16T10:54:47Z</time>
      </trkpt>
      <trkpt lat="45.86033" lon="4.71049">
        <ele>197</ele>
        <time>2018-08-16T10:54:48Z</time>
      </trkpt>
      <trkpt lat="45.86035" lon="4.71055">
        <ele>197</ele>
        <time>2018-08-16T10:54:49Z</time>
      </trkpt>
      <trkpt lat="45.86035" lon="4.71064">
        <ele>197</ele>
        <time>2018-08-16T10:54:50Z</time>
      </trkpt>
      <trkpt lat="45.86037" lon="4.7107">
        <ele>197</ele>
        <time>2018-08-16T10:54:51Z</time>
      </trkpt>
      <trkpt lat="45.86039" lon="4.71082">
        <ele>197</ele>
        <time>2018-08-16T10:54:53Z</time>
      </trkpt>
      <trkpt lat="45.86042" lon="4.71088">
        <ele>197</ele>
        <time>2018-08-16T10:54:54Z</time>
      </trkpt>
      <trkpt lat="45.86044" lon="4.71092">
        <ele>197</ele>
        <time>2018-08-16T10:54:55Z</time>
      </trkpt>
      <trkpt lat="45.86048" lon="4.71098">
        <ele>197</ele>
        <time>2018-08-16T10:54:56Z</time>
      </trkpt>
      <trkpt lat="45.86051" lon="4.71104">
        <ele>197</ele>
        <time>2018-08-16T10:54:57Z</time>
      </trkpt>
      <trkpt lat="45.86053" lon="4.71109">
        <ele>197</ele>
        <time>2018-08-16T10:54:58Z</time>
      </trkpt>
      <trkpt lat="45.86059" lon="4.71117">
        <ele>197</ele>
        <time>2018-08-16T10:55:01Z</time>
      </trkpt>
      <trkpt lat="45.86061" lon="4.7112">
        <ele>197</ele>
        <time>2018-08-16T10:55:02Z</time>
      </trkpt>
      <trkpt lat="45.86065" lon="4.71128">
        <ele>197</ele>
        <time>2018-08-16T10:55:05Z</time>
      </trkpt>
      <trkpt lat="45.86066" lon="4.71131">
        <ele>197</ele>
        <time>2018-08-16T10:55:06Z</time>
      </trkpt>
      <trkpt lat="45.86074" lon="4.71135">
        <ele>197</ele>
        <time>2018-08-16T10:57:45Z</time>
      </trkpt>
      <trkpt lat="45.86084" lon="4.71139">
        <ele>197</ele>
        <time>2018-08-16T10:57:46Z</time>
      </trkpt>
      <trkpt lat="45.86087" lon="4.71142">
        <ele>197</ele>
        <time>2018-08-16T10:57:48Z</time>
      </trkpt>
      <trkpt lat="45.8609" lon="4.7115">
        <ele>197</ele>
        <time>2018-08-16T10:57:49Z</time>
      </trkpt>
      <trkpt lat="45.8609" lon="4.71155">
        <ele>197</ele>
        <time>2018-08-16T10:57:51Z</time>
      </trkpt>
      <trkpt lat="45.86088" lon="4.71165">
        <ele>198</ele>
        <time>2018-08-16T10:57:52Z</time>
      </trkpt>
      <trkpt lat="45.86085" lon="4.71176">
        <ele>198</ele>
        <time>2018-08-16T10:57:54Z</time>
      </trkpt>
      <trkpt lat="45.86084" lon="4.71182">
        <ele>197</ele>
        <time>2018-08-16T10:57:55Z</time>
      </trkpt>
      <trkpt lat="45.86084" lon="4.71189">
        <ele>197</ele>
        <time>2018-08-16T10:57:56Z</time>
      </trkpt>
      <trkpt lat="45.86083" lon="4.71195">
        <ele>198</ele>
        <time>2018-08-16T10:57:57Z</time>
      </trkpt>
      <trkpt lat="45.86081" lon="4.71203">
        <ele>198</ele>
        <time>2018-08-16T10:57:58Z</time>
      </trkpt>
      <trkpt lat="45.8608" lon="4.7121">
        <ele>198</ele>
        <time>2018-08-16T10:57:59Z</time>
      </trkpt>
      <trkpt lat="45.86078" lon="4.71217">
        <ele>198</ele>
        <time>2018-08-16T10:58:00Z</time>
      </trkpt>
      <trkpt lat="45.86078" lon="4.71224">
        <ele>198</ele>
        <time>2018-08-16T10:58:01Z</time>
      </trkpt>
      <trkpt lat="45.86078" lon="4.71231">
        <ele>198</ele>
        <time>2018-08-16T10:58:02Z</time>
      </trkpt>
      <trkpt lat="45.86078" lon="4.71238">
        <ele>198</ele>
        <time>2018-08-16T10:58:03Z</time>
      </trkpt>
      <trkpt lat="45.86081" lon="4.71248">
        <ele>198</ele>
        <time>2018-08-16T10:58:05Z</time>
      </trkpt>
      <trkpt lat="45.86082" lon="4.71251">
        <ele>198</ele>
        <time>2018-08-16T10:58:06Z</time>
      </trkpt>
      <trkpt lat="45.86088" lon="4.71259">
        <ele>197</ele>
        <time>2018-08-16T10:58:09Z</time>
      </trkpt>
      <trkpt lat="45.86089" lon="4.71261">
        <ele>197</ele>
        <time>2018-08-16T10:58:10Z</time>
      </trkpt>
      <trkpt lat="45.8609" lon="4.71264">
        <ele>197</ele>
        <time>2018-08-16T10:58:11Z</time>
      </trkpt>
      <trkpt lat="45.86093" lon="4.71276">
        <ele>197</ele>
        <time>2018-08-16T10:58:12Z</time>
      </trkpt>
      <trkpt lat="45.86093" lon="4.71287">
        <ele>197</ele>
        <time>2018-08-16T10:58:15Z</time>
      </trkpt>
      <trkpt lat="45.86095" lon="4.71296">
        <ele>197</ele>
        <time>2018-08-16T10:58:16Z</time>
      </trkpt>
      <trkpt lat="45.86099" lon="4.71305">
        <ele>197</ele>
        <time>2018-08-16T10:58:17Z</time>
      </trkpt>
      <trkpt lat="45.861" lon="4.71311">
        <ele>197</ele>
        <time>2018-08-16T10:58:18Z</time>
      </trkpt>
      <trkpt lat="45.861" lon="4.71317">
        <ele>197</ele>
        <time>2018-08-16T10:58:19Z</time>
      </trkpt>
      <trkpt lat="45.86102" lon="4.71325">
        <ele>197</ele>
        <time>2018-08-16T10:58:20Z</time>
      </trkpt>
      <trkpt lat="45.86103" lon="4.71331">
        <ele>197</ele>
        <time>2018-08-16T10:58:21Z</time>
      </trkpt>
      <trkpt lat="45.86106" lon="4.71338">
        <ele>196</ele>
        <time>2018-08-16T10:58:22Z</time>
      </trkpt>
      <trkpt lat="45.86108" lon="4.7135">
        <ele>196</ele>
        <time>2018-08-16T10:58:24Z</time>
      </trkpt>
      <trkpt lat="45.86108" lon="4.71356">
        <ele>196</ele>
        <time>2018-08-16T10:58:25Z</time>
      </trkpt>
      <trkpt lat="45.86109" lon="4.71368">
        <ele>196</ele>
        <time>2018-08-16T10:58:27Z</time>
      </trkpt>
      <trkpt lat="45.86111" lon="4.71375">
        <ele>196</ele>
        <time>2018-08-16T10:58:28Z</time>
      </trkpt>
      <trkpt lat="45.86112" lon="4.71382">
        <ele>196</ele>
        <time>2018-08-16T10:58:29Z</time>
      </trkpt>
      <trkpt lat="45.86113" lon="4.7139">
        <ele>196</ele>
        <time>2018-08-16T10:58:30Z</time>
      </trkpt>
      <trkpt lat="45.86113" lon="4.71399">
        <ele>196</ele>
        <time>2018-08-16T10:58:31Z</time>
      </trkpt>
      <trkpt lat="45.86114" lon="4.71407">
        <ele>196</ele>
        <time>2018-08-16T10:58:32Z</time>
      </trkpt>
      <trkpt lat="45.86114" lon="4.71414">
        <ele>196</ele>
        <time>2018-08-16T10:58:33Z</time>
      </trkpt>
      <trkpt lat="45.86115" lon="4.71421">
        <ele>195</ele>
        <time>2018-08-16T10:58:34Z</time>
      </trkpt>
      <trkpt lat="45.86117" lon="4.71429">
        <ele>195</ele>
        <time>2018-08-16T10:58:35Z</time>
      </trkpt>
      <trkpt lat="45.86118" lon="4.71436">
        <ele>195</ele>
        <time>2018-08-16T10:58:36Z</time>
      </trkpt>
      <trkpt lat="45.8612" lon="4.71444">
        <ele>195</ele>
        <time>2018-08-16T10:58:37Z</time>
      </trkpt>
      <trkpt lat="45.8612" lon="4.7145">
        <ele>195</ele>
        <time>2018-08-16T10:58:38Z</time>
      </trkpt>
      <trkpt lat="45.86122" lon="4.71457">
        <ele>195</ele>
        <time>2018-08-16T10:58:39Z</time>
      </trkpt>
      <trkpt lat="45.86123" lon="4.71463">
        <ele>195</ele>
        <time>2018-08-16T10:58:40Z</time>
      </trkpt>
      <trkpt lat="45.86127" lon="4.71472">
        <ele>195</ele>
        <time>2018-08-16T10:58:41Z</time>
      </trkpt>
      <trkpt lat="45.8613" lon="4.7148">
        <ele>195</ele>
        <time>2018-08-16T10:58:42Z</time>
      </trkpt>
      <trkpt lat="45.86132" lon="4.71486">
        <ele>195</ele>
        <time>2018-08-16T10:58:43Z</time>
      </trkpt>
      <trkpt lat="45.86136" lon="4.71494">
        <ele>195</ele>
        <time>2018-08-16T10:58:44Z</time>
      </trkpt>
      <trkpt lat="45.86139" lon="4.71499">
        <ele>195</ele>
        <time>2018-08-16T10:58:45Z</time>
      </trkpt>
      <trkpt lat="45.86142" lon="4.71506">
        <ele>195</ele>
        <time>2018-08-16T10:58:46Z</time>
      </trkpt>
      <trkpt lat="45.86145" lon="4.71512">
        <ele>195</ele>
        <time>2018-08-16T10:58:47Z</time>
      </trkpt>
      <trkpt lat="45.86149" lon="4.71518">
        <ele>195</ele>
        <time>2018-08-16T10:58:48Z</time>
      </trkpt>
      <trkpt lat="45.86152" lon="4.71524">
        <ele>195</ele>
        <time>2018-08-16T10:58:49Z</time>
      </trkpt>
      <trkpt lat="45.86156" lon="4.7153">
        <ele>195</ele>
        <time>2018-08-16T10:58:50Z</time>
      </trkpt>
      <trkpt lat="45.86159" lon="4.71536">
        <ele>195</ele>
        <time>2018-08-16T10:58:51Z</time>
      </trkpt>
      <trkpt lat="45.86162" lon="4.71542">
        <ele>196</ele>
        <time>2018-08-16T10:58:52Z</time>
      </trkpt>
      <trkpt lat="45.86165" lon="4.71548">
        <ele>196</ele>
        <time>2018-08-16T10:58:53Z</time>
      </trkpt>
      <trkpt lat="45.86169" lon="4.71554">
        <ele>195</ele>
        <time>2018-08-16T10:58:54Z</time>
      </trkpt>
      <trkpt lat="45.86172" lon="4.71559">
        <ele>195</ele>
        <time>2018-08-16T10:58:55Z</time>
      </trkpt>
      <trkpt lat="45.86175" lon="4.71566">
        <ele>195</ele>
        <time>2018-08-16T10:58:56Z</time>
      </trkpt>
      <trkpt lat="45.86179" lon="4.71573">
        <ele>195</ele>
        <time>2018-08-16T10:58:57Z</time>
      </trkpt>
      <trkpt lat="45.86182" lon="4.71578">
        <ele>195</ele>
        <time>2018-08-16T10:58:58Z</time>
      </trkpt>
      <trkpt lat="45.86186" lon="4.71587">
        <ele>196</ele>
        <time>2018-08-16T10:59:00Z</time>
      </trkpt>
      <trkpt lat="45.86186" lon="4.7159">
        <ele>196</ele>
        <time>2018-08-16T10:59:01Z</time>
      </trkpt>
      <trkpt lat="45.86186" lon="4.716">
        <ele>195</ele>
        <time>2018-08-16T10:59:02Z</time>
      </trkpt>
      <trkpt lat="45.86185" lon="4.71605">
        <ele>195</ele>
        <time>2018-08-16T10:59:03Z</time>
      </trkpt>
      <trkpt lat="45.86184" lon="4.71611">
        <ele>195</ele>
        <time>2018-08-16T10:59:04Z</time>
      </trkpt>
      <trkpt lat="45.86184" lon="4.71618">
        <ele>195</ele>
        <time>2018-08-16T10:59:05Z</time>
      </trkpt>
      <trkpt lat="45.86185" lon="4.71625">
        <ele>195</ele>
        <time>2018-08-16T10:59:06Z</time>
      </trkpt>
      <trkpt lat="45.86188" lon="4.71632">
        <ele>195</ele>
        <time>2018-08-16T10:59:07Z</time>
      </trkpt>
      <trkpt lat="45.86192" lon="4.71636">
        <ele>195</ele>
        <time>2018-08-16T10:59:08Z</time>
      </trkpt>
      <trkpt lat="45.86196" lon="4.71639">
        <ele>195</ele>
        <time>2018-08-16T10:59:09Z</time>
      </trkpt>
      <trkpt lat="45.86202" lon="4.71641">
        <ele>195</ele>
        <time>2018-08-16T10:59:10Z</time>
      </trkpt>
      <trkpt lat="45.86206" lon="4.71645">
        <ele>195</ele>
        <time>2018-08-16T10:59:11Z</time>
      </trkpt>
      <trkpt lat="45.86211" lon="4.71648">
        <ele>195</ele>
        <time>2018-08-16T10:59:12Z</time>
      </trkpt>
      <trkpt lat="45.86216" lon="4.71651">
        <ele>195</ele>
        <time>2018-08-16T10:59:13Z</time>
      </trkpt>
      <trkpt lat="45.8622" lon="4.71654">
        <ele>195</ele>
        <time>2018-08-16T10:59:14Z</time>
      </trkpt>
      <trkpt lat="45.86226" lon="4.71658">
        <ele>195</ele>
        <time>2018-08-16T10:59:15Z</time>
      </trkpt>
      <trkpt lat="45.86232" lon="4.71662">
        <ele>195</ele>
        <time>2018-08-16T10:59:16Z</time>
      </trkpt>
      <trkpt lat="45.86236" lon="4.71666">
        <ele>195</ele>
        <time>2018-08-16T10:59:17Z</time>
      </trkpt>
      <trkpt lat="45.86242" lon="4.7167">
        <ele>196</ele>
        <time>2018-08-16T10:59:18Z</time>
      </trkpt>
      <trkpt lat="45.86247" lon="4.71673">
        <ele>195</ele>
        <time>2018-08-16T10:59:19Z</time>
      </trkpt>
      <trkpt lat="45.86251" lon="4.71677">
        <ele>195</ele>
        <time>2018-08-16T10:59:20Z</time>
      </trkpt>
      <trkpt lat="45.86256" lon="4.71679">
        <ele>195</ele>
        <time>2018-08-16T10:59:21Z</time>
      </trkpt>
      <trkpt lat="45.86261" lon="4.71684">
        <ele>195</ele>
        <time>2018-08-16T10:59:22Z</time>
      </trkpt>
      <trkpt lat="45.86267" lon="4.71689">
        <ele>195</ele>
        <time>2018-08-16T10:59:23Z</time>
      </trkpt>
      <trkpt lat="45.86272" lon="4.71694">
        <ele>195</ele>
        <time>2018-08-16T10:59:24Z</time>
      </trkpt>
      <trkpt lat="45.86277" lon="4.71699">
        <ele>195</ele>
        <time>2018-08-16T10:59:25Z</time>
      </trkpt>
      <trkpt lat="45.86281" lon="4.71703">
        <ele>195</ele>
        <time>2018-08-16T10:59:26Z</time>
      </trkpt>
      <trkpt lat="45.86286" lon="4.71708">
        <ele>196</ele>
        <time>2018-08-16T10:59:27Z</time>
      </trkpt>
      <trkpt lat="45.86291" lon="4.71712">
        <ele>196</ele>
        <time>2018-08-16T10:59:28Z</time>
      </trkpt>
      <trkpt lat="45.86295" lon="4.71716">
        <ele>196</ele>
        <time>2018-08-16T10:59:29Z</time>
      </trkpt>
      <trkpt lat="45.86301" lon="4.71718">
        <ele>196</ele>
        <time>2018-08-16T10:59:30Z</time>
      </trkpt>
      <trkpt lat="45.86305" lon="4.71722">
        <ele>196</ele>
        <time>2018-08-16T10:59:31Z</time>
      </trkpt>
      <trkpt lat="45.86311" lon="4.71726">
        <ele>196</ele>
        <time>2018-08-16T10:59:32Z</time>
      </trkpt>
      <trkpt lat="45.86315" lon="4.7173">
        <ele>196</ele>
        <time>2018-08-16T10:59:33Z</time>
      </trkpt>
      <trkpt lat="45.8632" lon="4.71735">
        <ele>196</ele>
        <time>2018-08-16T10:59:34Z</time>
      </trkpt>
      <trkpt lat="45.86324" lon="4.71738">
        <ele>196</ele>
        <time>2018-08-16T10:59:35Z</time>
      </trkpt>
      <trkpt lat="45.86331" lon="4.71745">
        <ele>196</ele>
        <time>2018-08-16T10:59:37Z</time>
      </trkpt>
      <trkpt lat="45.86336" lon="4.71748">
        <ele>196</ele>
        <time>2018-08-16T10:59:38Z</time>
      </trkpt>
      <trkpt lat="45.86341" lon="4.71751">
        <ele>197</ele>
        <time>2018-08-16T10:59:39Z</time>
      </trkpt>
      <trkpt lat="45.86346" lon="4.71755">
        <ele>197</ele>
        <time>2018-08-16T10:59:40Z</time>
      </trkpt>
      <trkpt lat="45.86351" lon="4.71759">
        <ele>198</ele>
        <time>2018-08-16T10:59:41Z</time>
      </trkpt>
      <trkpt lat="45.86356" lon="4.71763">
        <ele>198</ele>
        <time>2018-08-16T10:59:42Z</time>
      </trkpt>
      <trkpt lat="45.86362" lon="4.71767">
        <ele>198</ele>
        <time>2018-08-16T10:59:43Z</time>
      </trkpt>
      <trkpt lat="45.86366" lon="4.71772">
        <ele>198</ele>
        <time>2018-08-16T10:59:44Z</time>
      </trkpt>
      <trkpt lat="45.86371" lon="4.71776">
        <ele>198</ele>
        <time>2018-08-16T10:59:45Z</time>
      </trkpt>
      <trkpt lat="45.86376" lon="4.7178">
        <ele>198</ele>
        <time>2018-08-16T10:59:46Z</time>
      </trkpt>
      <trkpt lat="45.86381" lon="4.71784">
        <ele>198</ele>
        <time>2018-08-16T10:59:47Z</time>
      </trkpt>
      <trkpt lat="45.86386" lon="4.71787">
        <ele>199</ele>
        <time>2018-08-16T10:59:48Z</time>
      </trkpt>
      <trkpt lat="45.86392" lon="4.71791">
        <ele>199</ele>
        <time>2018-08-16T10:59:49Z</time>
      </trkpt>
      <trkpt lat="45.86397" lon="4.71793">
        <ele>199</ele>
        <time>2018-08-16T10:59:50Z</time>
      </trkpt>
      <trkpt lat="45.86401" lon="4.71797">
        <ele>199</ele>
        <time>2018-08-16T10:59:51Z</time>
      </trkpt>
      <trkpt lat="45.86405" lon="4.71801">
        <ele>199</ele>
        <time>2018-08-16T10:59:52Z</time>
      </trkpt>
      <trkpt lat="45.86409" lon="4.71806">
        <ele>200</ele>
        <time>2018-08-16T10:59:53Z</time>
      </trkpt>
      <trkpt lat="45.86415" lon="4.71809">
        <ele>200</ele>
        <time>2018-08-16T10:59:54Z</time>
      </trkpt>
      <trkpt lat="45.8642" lon="4.71814">
        <ele>198</ele>
        <time>2018-08-16T10:59:55Z</time>
      </trkpt>
      <trkpt lat="45.86424" lon="4.71818">
        <ele>199</ele>
        <time>2018-08-16T10:59:56Z</time>
      </trkpt>
      <trkpt lat="45.86428" lon="4.71822">
        <ele>199</ele>
        <time>2018-08-16T10:59:57Z</time>
      </trkpt>
      <trkpt lat="45.86433" lon="4.71827">
        <ele>199</ele>
        <time>2018-08-16T10:59:58Z</time>
      </trkpt>
      <trkpt lat="45.86437" lon="4.7183">
        <ele>198</ele>
        <time>2018-08-16T10:59:59Z</time>
      </trkpt>
      <trkpt lat="45.8644" lon="4.71836">
        <ele>201</ele>
        <time>2018-08-16T11:00:00Z</time>
      </trkpt>
      <trkpt lat="45.86448" lon="4.71839">
        <ele>200</ele>
        <time>2018-08-16T11:00:01Z</time>
      </trkpt>
      <trkpt lat="45.86456" lon="4.71838">
        <ele>200</ele>
        <time>2018-08-16T11:00:02Z</time>
      </trkpt>
      <trkpt lat="45.86461" lon="4.71846">
        <ele>200</ele>
        <time>2018-08-16T11:00:03Z</time>
      </trkpt>
      <trkpt lat="45.86462" lon="4.71847">
        <ele>199</ele>
        <time>2018-08-16T11:00:04Z</time>
      </trkpt>
      <trkpt lat="45.86466" lon="4.71853">
        <ele>199</ele>
        <time>2018-08-16T11:00:05Z</time>
      </trkpt>
      <trkpt lat="45.86471" lon="4.71856">
        <ele>199</ele>
        <time>2018-08-16T11:00:06Z</time>
      </trkpt>
      <trkpt lat="45.86478" lon="4.71864">
        <ele>199</ele>
        <time>2018-08-16T11:00:08Z</time>
      </trkpt>
      <trkpt lat="45.86487" lon="4.71868">
        <ele>199</ele>
        <time>2018-08-16T11:00:09Z</time>
      </trkpt>
      <trkpt lat="45.86491" lon="4.71876">
        <ele>199</ele>
        <time>2018-08-16T11:00:10Z</time>
      </trkpt>
      <trkpt lat="45.86497" lon="4.71881">
        <ele>199</ele>
        <time>2018-08-16T11:00:11Z</time>
      </trkpt>
      <trkpt lat="45.86503" lon="4.71884">
        <ele>195</ele>
        <time>2018-08-16T11:00:12Z</time>
      </trkpt>
      <trkpt lat="45.86509" lon="4.71888">
        <ele>195</ele>
        <time>2018-08-16T11:00:13Z</time>
      </trkpt>
      <trkpt lat="45.86513" lon="4.71891">
        <ele>195</ele>
        <time>2018-08-16T11:00:14Z</time>
      </trkpt>
      <trkpt lat="45.86518" lon="4.71897">
        <ele>195</ele>
        <time>2018-08-16T11:00:15Z</time>
      </trkpt>
      <trkpt lat="45.86524" lon="4.71901">
        <ele>195</ele>
        <time>2018-08-16T11:00:16Z</time>
      </trkpt>
      <trkpt lat="45.86529" lon="4.71903">
        <ele>195</ele>
        <time>2018-08-16T11:00:17Z</time>
      </trkpt>
      <trkpt lat="45.86535" lon="4.71909">
        <ele>195</ele>
        <time>2018-08-16T11:00:18Z</time>
      </trkpt>
      <trkpt lat="45.8654" lon="4.71912">
        <ele>195</ele>
        <time>2018-08-16T11:00:19Z</time>
      </trkpt>
      <trkpt lat="45.86547" lon="4.71914">
        <ele>195</ele>
        <time>2018-08-16T11:00:20Z</time>
      </trkpt>
      <trkpt lat="45.86551" lon="4.71919">
        <ele>196</ele>
        <time>2018-08-16T11:00:21Z</time>
      </trkpt>
      <trkpt lat="45.86557" lon="4.71923">
        <ele>196</ele>
        <time>2018-08-16T11:00:22Z</time>
      </trkpt>
      <trkpt lat="45.86562" lon="4.71928">
        <ele>196</ele>
        <time>2018-08-16T11:00:23Z</time>
      </trkpt>
      <trkpt lat="45.86567" lon="4.71933">
        <ele>196</ele>
        <time>2018-08-16T11:00:24Z</time>
      </trkpt>
      <trkpt lat="45.86574" lon="4.71938">
        <ele>196</ele>
        <time>2018-08-16T11:00:25Z</time>
      </trkpt>
      <trkpt lat="45.86579" lon="4.71943">
        <ele>196</ele>
        <time>2018-08-16T11:00:26Z</time>
      </trkpt>
      <trkpt lat="45.86585" lon="4.71945">
        <ele>194</ele>
        <time>2018-08-16T11:00:27Z</time>
      </trkpt>
      <trkpt lat="45.8659" lon="4.71949">
        <ele>194</ele>
        <time>2018-08-16T11:00:28Z</time>
      </trkpt>
      <trkpt lat="45.86597" lon="4.71955">
        <ele>194</ele>
        <time>2018-08-16T11:00:29Z</time>
      </trkpt>
      <trkpt lat="45.86602" lon="4.71959">
        <ele>195</ele>
        <time>2018-08-16T11:00:30Z</time>
      </trkpt>
      <trkpt lat="45.86607" lon="4.71962">
        <ele>195</ele>
        <time>2018-08-16T11:00:31Z</time>
      </trkpt>
      <trkpt lat="45.86613" lon="4.71967">
        <ele>195</ele>
        <time>2018-08-16T11:00:32Z</time>
      </trkpt>
      <trkpt lat="45.86617" lon="4.71971">
        <ele>195</ele>
        <time>2018-08-16T11:00:33Z</time>
      </trkpt>
      <trkpt lat="45.86623" lon="4.71974">
        <ele>195</ele>
        <time>2018-08-16T11:00:34Z</time>
      </trkpt>
      <trkpt lat="45.86628" lon="4.71977">
        <ele>195</ele>
        <time>2018-08-16T11:00:35Z</time>
      </trkpt>
      <trkpt lat="45.86634" lon="4.71981">
        <ele>195</ele>
        <time>2018-08-16T11:00:36Z</time>
      </trkpt>
      <trkpt lat="45.8664" lon="4.71985">
        <ele>195</ele>
        <time>2018-08-16T11:00:37Z</time>
      </trkpt>
      <trkpt lat="45.86644" lon="4.71989">
        <ele>195</ele>
        <time>2018-08-16T11:00:38Z</time>
      </trkpt>
      <trkpt lat="45.86649" lon="4.71995">
        <ele>195</ele>
        <time>2018-08-16T11:00:39Z</time>
      </trkpt>
      <trkpt lat="45.86654" lon="4.71999">
        <ele>195</ele>
        <time>2018-08-16T11:00:40Z</time>
      </trkpt>
      <trkpt lat="45.8666" lon="4.72002">
        <ele>196</ele>
        <time>2018-08-16T11:00:41Z</time>
      </trkpt>
      <trkpt lat="45.86666" lon="4.72007">
        <ele>196</ele>
        <time>2018-08-16T11:00:42Z</time>
      </trkpt>
      <trkpt lat="45.86672" lon="4.72011">
        <ele>196</ele>
        <time>2018-08-16T11:00:43Z</time>
      </trkpt>
      <trkpt lat="45.86677" lon="4.72016">
        <ele>196</ele>
        <time>2018-08-16T11:00:44Z</time>
      </trkpt>
      <trkpt lat="45.86683" lon="4.72021">
        <ele>197</ele>
        <time>2018-08-16T11:00:45Z</time>
      </trkpt>
      <trkpt lat="45.86689" lon="4.72025">
        <ele>197</ele>
        <time>2018-08-16T11:00:46Z</time>
      </trkpt>
      <trkpt lat="45.86694" lon="4.72029">
        <ele>197</ele>
        <time>2018-08-16T11:00:47Z</time>
      </trkpt>
      <trkpt lat="45.867" lon="4.72033">
        <ele>197</ele>
        <time>2018-08-16T11:00:48Z</time>
      </trkpt>
      <trkpt lat="45.86705" lon="4.72037">
        <ele>197</ele>
        <time>2018-08-16T11:00:49Z</time>
      </trkpt>
      <trkpt lat="45.8671" lon="4.72041">
        <ele>197</ele>
        <time>2018-08-16T11:00:50Z</time>
      </trkpt>
      <trkpt lat="45.86716" lon="4.72043">
        <ele>197</ele>
        <time>2018-08-16T11:00:51Z</time>
      </trkpt>
      <trkpt lat="45.86722" lon="4.72046">
        <ele>197</ele>
        <time>2018-08-16T11:00:52Z</time>
      </trkpt>
      <trkpt lat="45.86727" lon="4.72051">
        <ele>197</ele>
        <time>2018-08-16T11:00:53Z</time>
      </trkpt>
      <trkpt lat="45.86733" lon="4.72056">
        <ele>197</ele>
        <time>2018-08-16T11:00:54Z</time>
      </trkpt>
      <trkpt lat="45.86739" lon="4.72059">
        <ele>197</ele>
        <time>2018-08-16T11:00:55Z</time>
      </trkpt>
      <trkpt lat="45.86745" lon="4.72063">
        <ele>197</ele>
        <time>2018-08-16T11:00:56Z</time>
      </trkpt>
      <trkpt lat="45.86751" lon="4.72065">
        <ele>195</ele>
        <time>2018-08-16T11:00:57Z</time>
      </trkpt>
      <trkpt lat="45.86757" lon="4.7207">
        <ele>195</ele>
        <time>2018-08-16T11:00:58Z</time>
      </trkpt>
      <trkpt lat="45.86762" lon="4.72073">
        <ele>195</ele>
        <time>2018-08-16T11:00:59Z</time>
      </trkpt>
      <trkpt lat="45.86768" lon="4.72076">
        <ele>195</ele>
        <time>2018-08-16T11:01:00Z</time>
      </trkpt>
      <trkpt lat="45.86774" lon="4.72078">
        <ele>195</ele>
        <time>2018-08-16T11:01:01Z</time>
      </trkpt>
      <trkpt lat="45.86779" lon="4.7208">
        <ele>195</ele>
        <time>2018-08-16T11:01:02Z</time>
      </trkpt>
      <trkpt lat="45.86785" lon="4.72082">
        <ele>194</ele>
        <time>2018-08-16T11:01:03Z</time>
      </trkpt>
      <trkpt lat="45.86791" lon="4.72083">
        <ele>194</ele>
        <time>2018-08-16T11:01:04Z</time>
      </trkpt>
      <trkpt lat="45.86796" lon="4.72084">
        <ele>201</ele>
        <time>2018-08-16T11:01:05Z</time>
      </trkpt>
      <trkpt lat="45.86803" lon="4.72087">
        <ele>201</ele>
        <time>2018-08-16T11:01:06Z</time>
      </trkpt>
      <trkpt lat="45.86809" lon="4.72088">
        <ele>200</ele>
        <time>2018-08-16T11:01:07Z</time>
      </trkpt>
      <trkpt lat="45.86816" lon="4.72091">
        <ele>199</ele>
        <time>2018-08-16T11:01:08Z</time>
      </trkpt>
      <trkpt lat="45.86822" lon="4.72093">
        <ele>198</ele>
        <time>2018-08-16T11:01:09Z</time>
      </trkpt>
      <trkpt lat="45.86827" lon="4.72097">
        <ele>199</ele>
        <time>2018-08-16T11:01:10Z</time>
      </trkpt>
      <trkpt lat="45.86832" lon="4.72099">
        <ele>199</ele>
        <time>2018-08-16T11:01:11Z</time>
      </trkpt>
      <trkpt lat="45.86839" lon="4.72101">
        <ele>198</ele>
        <time>2018-08-16T11:01:12Z</time>
      </trkpt>
      <trkpt lat="45.86844" lon="4.72104">
        <ele>199</ele>
        <time>2018-08-16T11:01:13Z</time>
      </trkpt>
      <trkpt lat="45.8685" lon="4.72105">
        <ele>200</ele>
        <time>2018-08-16T11:01:14Z</time>
      </trkpt>
      <trkpt lat="45.86856" lon="4.72107">
        <ele>200</ele>
        <time>2018-08-16T11:01:15Z</time>
      </trkpt>
      <trkpt lat="45.86861" lon="4.72109">
        <ele>201</ele>
        <time>2018-08-16T11:01:16Z</time>
      </trkpt>
      <trkpt lat="45.86866" lon="4.72111">
        <ele>201</ele>
        <time>2018-08-16T11:01:17Z</time>
      </trkpt>
      <trkpt lat="45.86871" lon="4.72113">
        <ele>201</ele>
        <time>2018-08-16T11:01:18Z</time>
      </trkpt>
      <trkpt lat="45.86876" lon="4.72117">
        <ele>202</ele>
        <time>2018-08-16T11:01:19Z</time>
      </trkpt>
      <trkpt lat="45.86881" lon="4.72119">
        <ele>202</ele>
        <time>2018-08-16T11:01:20Z</time>
      </trkpt>
      <trkpt lat="45.86888" lon="4.72121">
        <ele>202</ele>
        <time>2018-08-16T11:01:21Z</time>
      </trkpt>
      <trkpt lat="45.86893" lon="4.72123">
        <ele>202</ele>
        <time>2018-08-16T11:01:22Z</time>
      </trkpt>
      <trkpt lat="45.86899" lon="4.72128">
        <ele>203</ele>
        <time>2018-08-16T11:01:23Z</time>
      </trkpt>
      <trkpt lat="45.86904" lon="4.72129">
        <ele>203</ele>
        <time>2018-08-16T11:01:24Z</time>
      </trkpt>
      <trkpt lat="45.86909" lon="4.72131">
        <ele>203</ele>
        <time>2018-08-16T11:01:25Z</time>
      </trkpt>
      <trkpt lat="45.86915" lon="4.72133">
        <ele>204</ele>
        <time>2018-08-16T11:01:26Z</time>
      </trkpt>
      <trkpt lat="45.86919" lon="4.72134">
        <ele>202</ele>
        <time>2018-08-16T11:01:27Z</time>
      </trkpt>
      <trkpt lat="45.86922" lon="4.72138">
        <ele>202</ele>
        <time>2018-08-16T11:01:28Z</time>
      </trkpt>
      <trkpt lat="45.86927" lon="4.7214">
        <ele>202</ele>
        <time>2018-08-16T11:01:29Z</time>
      </trkpt>
      <trkpt lat="45.86932" lon="4.72142">
        <ele>202</ele>
        <time>2018-08-16T11:01:30Z</time>
      </trkpt>
      <trkpt lat="45.86936" lon="4.72145">
        <ele>203</ele>
        <time>2018-08-16T11:01:31Z</time>
      </trkpt>
      <trkpt lat="45.8694" lon="4.72149">
        <ele>203</ele>
        <time>2018-08-16T11:01:32Z</time>
      </trkpt>
      <trkpt lat="45.86945" lon="4.72151">
        <ele>202</ele>
        <time>2018-08-16T11:01:33Z</time>
      </trkpt>
      <trkpt lat="45.86949" lon="4.72154">
        <ele>202</ele>
        <time>2018-08-16T11:01:34Z</time>
      </trkpt>
      <trkpt lat="45.86955" lon="4.72157">
        <ele>202</ele>
        <time>2018-08-16T11:01:35Z</time>
      </trkpt>
      <trkpt lat="45.8696" lon="4.72161">
        <ele>202</ele>
        <time>2018-08-16T11:01:36Z</time>
      </trkpt>
      <trkpt lat="45.86965" lon="4.72164">
        <ele>201</ele>
        <time>2018-08-16T11:01:37Z</time>
      </trkpt>
      <trkpt lat="45.86969" lon="4.72167">
        <ele>209</ele>
        <time>2018-08-16T11:01:38Z</time>
      </trkpt>
      <trkpt lat="45.86975" lon="4.7217">
        <ele>208</ele>
        <time>2018-08-16T11:01:39Z</time>
      </trkpt>
      <trkpt lat="45.86979" lon="4.72174">
        <ele>208</ele>
        <time>2018-08-16T11:01:40Z</time>
      </trkpt>
      <trkpt lat="45.86983" lon="4.72179">
        <ele>208</ele>
        <time>2018-08-16T11:01:41Z</time>
      </trkpt>
      <trkpt lat="45.8699" lon="4.72182">
        <ele>207</ele>
        <time>2018-08-16T11:01:42Z</time>
      </trkpt>
      <trkpt lat="45.86992" lon="4.72186">
        <ele>208</ele>
        <time>2018-08-16T11:01:43Z</time>
      </trkpt>
      <trkpt lat="45.86997" lon="4.72187">
        <ele>208</ele>
        <time>2018-08-16T11:01:44Z</time>
      </trkpt>
      <trkpt lat="45.87002" lon="4.7219">
        <ele>202</ele>
        <time>2018-08-16T11:01:45Z</time>
      </trkpt>
      <trkpt lat="45.87006" lon="4.72195">
        <ele>202</ele>
        <time>2018-08-16T11:01:46Z</time>
      </trkpt>
      <trkpt lat="45.87012" lon="4.72195">
        <ele>202</ele>
        <time>2018-08-16T11:01:47Z</time>
      </trkpt>
      <trkpt lat="45.87016" lon="4.72201">
        <ele>202</ele>
        <time>2018-08-16T11:01:48Z</time>
      </trkpt>
      <trkpt lat="45.87022" lon="4.72204">
        <ele>202</ele>
        <time>2018-08-16T11:01:49Z</time>
      </trkpt>
      <trkpt lat="45.87027" lon="4.72208">
        <ele>202</ele>
        <time>2018-08-16T11:01:50Z</time>
      </trkpt>
      <trkpt lat="45.87032" lon="4.72212">
        <ele>202</ele>
        <time>2018-08-16T11:01:51Z</time>
      </trkpt>
      <trkpt lat="45.87038" lon="4.72215">
        <ele>202</ele>
        <time>2018-08-16T11:01:52Z</time>
      </trkpt>
      <trkpt lat="45.87041" lon="4.72219">
        <ele>201</ele>
        <time>2018-08-16T11:01:53Z</time>
      </trkpt>
      <trkpt lat="45.87044" lon="4.72222">
        <ele>201</ele>
        <time>2018-08-16T11:01:54Z</time>
      </trkpt>
      <trkpt lat="45.87051" lon="4.72226">
        <ele>201</ele>
        <time>2018-08-16T11:01:55Z</time>
      </trkpt>
      <trkpt lat="45.87056" lon="4.72231">
        <ele>201</ele>
        <time>2018-08-16T11:01:56Z</time>
      </trkpt>
      <trkpt lat="45.8706" lon="4.72234">
        <ele>201</ele>
        <time>2018-08-16T11:01:57Z</time>
      </trkpt>
      <trkpt lat="45.87065" lon="4.72237">
        <ele>200</ele>
        <time>2018-08-16T11:01:58Z</time>
      </trkpt>
      <trkpt lat="45.8707" lon="4.7224">
        <ele>200</ele>
        <time>2018-08-16T11:01:59Z</time>
      </trkpt>
      <trkpt lat="45.87074" lon="4.72245">
        <ele>200</ele>
        <time>2018-08-16T11:02:00Z</time>
      </trkpt>
      <trkpt lat="45.87078" lon="4.72247">
        <ele>199</ele>
        <time>2018-08-16T11:02:01Z</time>
      </trkpt>
      <trkpt lat="45.87084" lon="4.7225">
        <ele>199</ele>
        <time>2018-08-16T11:02:02Z</time>
      </trkpt>
      <trkpt lat="45.87089" lon="4.72256">
        <ele>198</ele>
        <time>2018-08-16T11:02:03Z</time>
      </trkpt>
      <trkpt lat="45.87093" lon="4.72262">
        <ele>198</ele>
        <time>2018-08-16T11:02:04Z</time>
      </trkpt>
      <trkpt lat="45.87094" lon="4.72268">
        <ele>198</ele>
        <time>2018-08-16T11:02:05Z</time>
      </trkpt>
      <trkpt lat="45.87096" lon="4.72275">
        <ele>198</ele>
        <time>2018-08-16T11:02:06Z</time>
      </trkpt>
      <trkpt lat="45.87099" lon="4.7228">
        <ele>198</ele>
        <time>2018-08-16T11:02:07Z</time>
      </trkpt>
      <trkpt lat="45.87102" lon="4.72286">
        <ele>198</ele>
        <time>2018-08-16T11:02:08Z</time>
      </trkpt>
      <trkpt lat="45.87106" lon="4.7229">
        <ele>197</ele>
        <time>2018-08-16T11:02:09Z</time>
      </trkpt>
      <trkpt lat="45.8711" lon="4.72295">
        <ele>197</ele>
        <time>2018-08-16T11:02:10Z</time>
      </trkpt>
      <trkpt lat="45.87114" lon="4.72304">
        <ele>197</ele>
        <time>2018-08-16T11:02:11Z</time>
      </trkpt>
      <trkpt lat="45.87116" lon="4.72311">
        <ele>198</ele>
        <time>2018-08-16T11:02:12Z</time>
      </trkpt>
      <trkpt lat="45.87118" lon="4.72317">
        <ele>197</ele>
        <time>2018-08-16T11:02:13Z</time>
      </trkpt>
      <trkpt lat="45.8712" lon="4.72323">
        <ele>197</ele>
        <time>2018-08-16T11:02:14Z</time>
      </trkpt>
      <trkpt lat="45.87124" lon="4.7233">
        <ele>197</ele>
        <time>2018-08-16T11:02:15Z</time>
      </trkpt>
      <trkpt lat="45.87127" lon="4.72335">
        <ele>199</ele>
        <time>2018-08-16T11:02:16Z</time>
      </trkpt>
      <trkpt lat="45.8713" lon="4.72342">
        <ele>198</ele>
        <time>2018-08-16T11:02:17Z</time>
      </trkpt>
      <trkpt lat="45.87134" lon="4.72349">
        <ele>198</ele>
        <time>2018-08-16T11:02:18Z</time>
      </trkpt>
      <trkpt lat="45.87137" lon="4.72355">
        <ele>198</ele>
        <time>2018-08-16T11:02:19Z</time>
      </trkpt>
      <trkpt lat="45.87142" lon="4.72362">
        <ele>197</ele>
        <time>2018-08-16T11:02:20Z</time>
      </trkpt>
      <trkpt lat="45.87145" lon="4.72369">
        <ele>197</ele>
        <time>2018-08-16T11:02:21Z</time>
      </trkpt>
      <trkpt lat="45.8715" lon="4.72375">
        <ele>197</ele>
        <time>2018-08-16T11:02:22Z</time>
      </trkpt>
      <trkpt lat="45.87153" lon="4.72382">
        <ele>197</ele>
        <time>2018-08-16T11:02:23Z</time>
      </trkpt>
      <trkpt lat="45.87157" lon="4.72389">
        <ele>197</ele>
        <time>2018-08-16T11:02:24Z</time>
      </trkpt>
      <trkpt lat="45.8716" lon="4.72395">
        <ele>197</ele>
        <time>2018-08-16T11:02:25Z</time>
      </trkpt>
      <trkpt lat="45.87163" lon="4.72401">
        <ele>196</ele>
        <time>2018-08-16T11:02:26Z</time>
      </trkpt>
      <trkpt lat="45.87166" lon="4.72407">
        <ele>196</ele>
        <time>2018-08-16T11:02:27Z</time>
      </trkpt>
      <trkpt lat="45.8717" lon="4.72418">
        <ele>194</ele>
        <time>2018-08-16T11:02:30Z</time>
      </trkpt>
      <trkpt lat="45.87171" lon="4.7242">
        <ele>194</ele>
        <time>2018-08-16T11:02:31Z</time>
      </trkpt>
      <trkpt lat="45.87178" lon="4.72428">
        <ele>194</ele>
        <time>2018-08-16T11:02:36Z</time>
      </trkpt>
      <trkpt lat="45.87184" lon="4.72433">
        <ele>194</ele>
        <time>2018-08-16T11:02:37Z</time>
      </trkpt>
      <trkpt lat="45.8719" lon="4.72441">
        <ele>194</ele>
        <time>2018-08-16T11:02:39Z</time>
      </trkpt>
      <trkpt lat="45.87193" lon="4.72447">
        <ele>194</ele>
        <time>2018-08-16T11:02:40Z</time>
      </trkpt>
      <trkpt lat="45.87196" lon="4.72453">
        <ele>194</ele>
        <time>2018-08-16T11:02:41Z</time>
      </trkpt>
      <trkpt lat="45.872" lon="4.72459">
        <ele>194</ele>
        <time>2018-08-16T11:02:42Z</time>
      </trkpt>
      <trkpt lat="45.87204" lon="4.72466">
        <ele>194</ele>
        <time>2018-08-16T11:02:43Z</time>
      </trkpt>
      <trkpt lat="45.87209" lon="4.72471">
        <ele>194</ele>
        <time>2018-08-16T11:02:44Z</time>
      </trkpt>
      <trkpt lat="45.87213" lon="4.72477">
        <ele>194</ele>
        <time>2018-08-16T11:02:45Z</time>
      </trkpt>
      <trkpt lat="45.87216" lon="4.72483">
        <ele>194</ele>
        <time>2018-08-16T11:02:46Z</time>
      </trkpt>
      <trkpt lat="45.87221" lon="4.72489">
        <ele>194</ele>
        <time>2018-08-16T11:02:47Z</time>
      </trkpt>
      <trkpt lat="45.87224" lon="4.72495">
        <ele>194</ele>
        <time>2018-08-16T11:02:48Z</time>
      </trkpt>
      <trkpt lat="45.87228" lon="4.72502">
        <ele>196</ele>
        <time>2018-08-16T11:02:49Z</time>
      </trkpt>
      <trkpt lat="45.87231" lon="4.72508">
        <ele>196</ele>
        <time>2018-08-16T11:02:50Z</time>
      </trkpt>
      <trkpt lat="45.87233" lon="4.72515">
        <ele>196</ele>
        <time>2018-08-16T11:02:51Z</time>
      </trkpt>
      <trkpt lat="45.87236" lon="4.7252">
        <ele>196</ele>
        <time>2018-08-16T11:02:52Z</time>
      </trkpt>
      <trkpt lat="45.87239" lon="4.72526">
        <ele>197</ele>
        <time>2018-08-16T11:02:53Z</time>
      </trkpt>
      <trkpt lat="45.8724" lon="4.72532">
        <ele>197</ele>
        <time>2018-08-16T11:02:54Z</time>
      </trkpt>
      <trkpt lat="45.87245" lon="4.72542">
        <ele>197</ele>
        <time>2018-08-16T11:02:56Z</time>
      </trkpt>
      <trkpt lat="45.87248" lon="4.72547">
        <ele>197</ele>
        <time>2018-08-16T11:02:57Z</time>
      </trkpt>
      <trkpt lat="45.87251" lon="4.72552">
        <ele>194</ele>
        <time>2018-08-16T11:02:58Z</time>
      </trkpt>
      <trkpt lat="45.87255" lon="4.72558">
        <ele>194</ele>
        <time>2018-08-16T11:02:59Z</time>
      </trkpt>
      <trkpt lat="45.87259" lon="4.72564">
        <ele>195</ele>
        <time>2018-08-16T11:03:00Z</time>
      </trkpt>
      <trkpt lat="45.87262" lon="4.72569">
        <ele>195</ele>
        <time>2018-08-16T11:03:01Z</time>
      </trkpt>
      <trkpt lat="45.87266" lon="4.72576">
        <ele>195</ele>
        <time>2018-08-16T11:03:02Z</time>
      </trkpt>
      <trkpt lat="45.8727" lon="4.72581">
        <ele>195</ele>
        <time>2018-08-16T11:03:03Z</time>
      </trkpt>
      <trkpt lat="45.87273" lon="4.72586">
        <ele>195</ele>
        <time>2018-08-16T11:03:04Z</time>
      </trkpt>
      <trkpt lat="45.87278" lon="4.72594">
        <ele>195</ele>
        <time>2018-08-16T11:03:05Z</time>
      </trkpt>
      <trkpt lat="45.87283" lon="4.72598">
        <ele>194</ele>
        <time>2018-08-16T11:03:06Z</time>
      </trkpt>
      <trkpt lat="45.87288" lon="4.72606">
        <ele>194</ele>
        <time>2018-08-16T11:03:07Z</time>
      </trkpt>
      <trkpt lat="45.87293" lon="4.72613">
        <ele>194</ele>
        <time>2018-08-16T11:03:08Z</time>
      </trkpt>
      <trkpt lat="45.87299" lon="4.7262">
        <ele>194</ele>
        <time>2018-08-16T11:03:09Z</time>
      </trkpt>
      <trkpt lat="45.87305" lon="4.72625">
        <ele>193</ele>
        <time>2018-08-16T11:03:10Z</time>
      </trkpt>
      <trkpt lat="45.87311" lon="4.72631">
        <ele>193</ele>
        <time>2018-08-16T11:03:11Z</time>
      </trkpt>
      <trkpt lat="45.87316" lon="4.72637">
        <ele>193</ele>
        <time>2018-08-16T11:03:12Z</time>
      </trkpt>
      <trkpt lat="45.87321" lon="4.72643">
        <ele>192</ele>
        <time>2018-08-16T11:03:13Z</time>
      </trkpt>
      <trkpt lat="45.87325" lon="4.72649">
        <ele>192</ele>
        <time>2018-08-16T11:03:14Z</time>
      </trkpt>
      <trkpt lat="45.8733" lon="4.72654">
        <ele>192</ele>
        <time>2018-08-16T11:03:15Z</time>
      </trkpt>
      <trkpt lat="45.87335" lon="4.72658">
        <ele>190</ele>
        <time>2018-08-16T11:03:16Z</time>
      </trkpt>
      <trkpt lat="45.8734" lon="4.72663">
        <ele>190</ele>
        <time>2018-08-16T11:03:17Z</time>
      </trkpt>
      <trkpt lat="45.87344" lon="4.72667">
        <ele>190</ele>
        <time>2018-08-16T11:03:18Z</time>
      </trkpt>
      <trkpt lat="45.87349" lon="4.72671">
        <ele>190</ele>
        <time>2018-08-16T11:03:19Z</time>
      </trkpt>
      <trkpt lat="45.87354" lon="4.72674">
        <ele>190</ele>
        <time>2018-08-16T11:03:20Z</time>
      </trkpt>
      <trkpt lat="45.87359" lon="4.72679">
        <ele>190</ele>
        <time>2018-08-16T11:03:21Z</time>
      </trkpt>
      <trkpt lat="45.87364" lon="4.72683">
        <ele>190</ele>
        <time>2018-08-16T11:03:22Z</time>
      </trkpt>
      <trkpt lat="45.87368" lon="4.72688">
        <ele>190</ele>
        <time>2018-08-16T11:03:23Z</time>
      </trkpt>
      <trkpt lat="45.8737" lon="4.72693">
        <ele>190</ele>
        <time>2018-08-16T11:03:24Z</time>
      </trkpt>
      <trkpt lat="45.87373" lon="4.72699">
        <ele>190</ele>
        <time>2018-08-16T11:03:25Z</time>
      </trkpt>
      <trkpt lat="45.87377" lon="4.72706">
        <ele>190</ele>
        <time>2018-08-16T11:03:26Z</time>
      </trkpt>
      <trkpt lat="45.87381" lon="4.72713">
        <ele>190</ele>
        <time>2018-08-16T11:03:27Z</time>
      </trkpt>
      <trkpt lat="45.87384" lon="4.72719">
        <ele>190</ele>
        <time>2018-08-16T11:03:28Z</time>
      </trkpt>
      <trkpt lat="45.87387" lon="4.72728">
        <ele>190</ele>
        <time>2018-08-16T11:03:29Z</time>
      </trkpt>
      <trkpt lat="45.87389" lon="4.72733">
        <ele>190</ele>
        <time>2018-08-16T11:03:30Z</time>
      </trkpt>
      <trkpt lat="45.87394" lon="4.7274">
        <ele>190</ele>
        <time>2018-08-16T11:03:31Z</time>
      </trkpt>
      <trkpt lat="45.87398" lon="4.72745">
        <ele>189</ele>
        <time>2018-08-16T11:03:32Z</time>
      </trkpt>
      <trkpt lat="45.87402" lon="4.72751">
        <ele>189</ele>
        <time>2018-08-16T11:03:33Z</time>
      </trkpt>
      <trkpt lat="45.87405" lon="4.72759">
        <ele>189</ele>
        <time>2018-08-16T11:03:34Z</time>
      </trkpt>
      <trkpt lat="45.87409" lon="4.72766">
        <ele>189</ele>
        <time>2018-08-16T11:03:35Z</time>
      </trkpt>
      <trkpt lat="45.87413" lon="4.72772">
        <ele>189</ele>
        <time>2018-08-16T11:03:36Z</time>
      </trkpt>
      <trkpt lat="45.87416" lon="4.72777">
        <ele>189</ele>
        <time>2018-08-16T11:03:37Z</time>
      </trkpt>
      <trkpt lat="45.8742" lon="4.72784">
        <ele>189</ele>
        <time>2018-08-16T11:03:38Z</time>
      </trkpt>
      <trkpt lat="45.87422" lon="4.72791">
        <ele>189</ele>
        <time>2018-08-16T11:03:39Z</time>
      </trkpt>
      <trkpt lat="45.87425" lon="4.72797">
        <ele>189</ele>
        <time>2018-08-16T11:03:40Z</time>
      </trkpt>
      <trkpt lat="45.87428" lon="4.72803">
        <ele>189</ele>
        <time>2018-08-16T11:03:41Z</time>
      </trkpt>
      <trkpt lat="45.87431" lon="4.7281">
        <ele>189</ele>
        <time>2018-08-16T11:03:42Z</time>
      </trkpt>
      <trkpt lat="45.87434" lon="4.72817">
        <ele>189</ele>
        <time>2018-08-16T11:03:43Z</time>
      </trkpt>
      <trkpt lat="45.87437" lon="4.72824">
        <ele>189</ele>
        <time>2018-08-16T11:03:44Z</time>
      </trkpt>
      <trkpt lat="45.8744" lon="4.72832">
        <ele>189</ele>
        <time>2018-08-16T11:03:45Z</time>
      </trkpt>
      <trkpt lat="45.87442" lon="4.72839">
        <ele>188</ele>
        <time>2018-08-16T11:03:46Z</time>
      </trkpt>
      <trkpt lat="45.87445" lon="4.72846">
        <ele>188</ele>
        <time>2018-08-16T11:03:47Z</time>
      </trkpt>
      <trkpt lat="45.87448" lon="4.72853">
        <ele>188</ele>
        <time>2018-08-16T11:03:48Z</time>
      </trkpt>
      <trkpt lat="45.87451" lon="4.7286">
        <ele>188</ele>
        <time>2018-08-16T11:03:49Z</time>
      </trkpt>
      <trkpt lat="45.87453" lon="4.72867">
        <ele>188</ele>
        <time>2018-08-16T11:03:50Z</time>
      </trkpt>
      <trkpt lat="45.87457" lon="4.72873">
        <ele>188</ele>
        <time>2018-08-16T11:03:51Z</time>
      </trkpt>
      <trkpt lat="45.87459" lon="4.7288">
        <ele>188</ele>
        <time>2018-08-16T11:03:52Z</time>
      </trkpt>
      <trkpt lat="45.8746" lon="4.72886">
        <ele>188</ele>
        <time>2018-08-16T11:03:53Z</time>
      </trkpt>
      <trkpt lat="45.87464" lon="4.72897">
        <ele>188</ele>
        <time>2018-08-16T11:03:55Z</time>
      </trkpt>
      <trkpt lat="45.87465" lon="4.72904">
        <ele>188</ele>
        <time>2018-08-16T11:03:56Z</time>
      </trkpt>
      <trkpt lat="45.87467" lon="4.72911">
        <ele>188</ele>
        <time>2018-08-16T11:03:57Z</time>
      </trkpt>
      <trkpt lat="45.87469" lon="4.72918">
        <ele>188</ele>
        <time>2018-08-16T11:03:58Z</time>
      </trkpt>
      <trkpt lat="45.87473" lon="4.72925">
        <ele>188</ele>
        <time>2018-08-16T11:03:59Z</time>
      </trkpt>
      <trkpt lat="45.87477" lon="4.72932">
        <ele>188</ele>
        <time>2018-08-16T11:04:00Z</time>
      </trkpt>
      <trkpt lat="45.87483" lon="4.72934">
        <ele>188</ele>
        <time>2018-08-16T11:04:01Z</time>
      </trkpt>
      <trkpt lat="45.87488" lon="4.72939">
        <ele>188</ele>
        <time>2018-08-16T11:04:02Z</time>
      </trkpt>
      <trkpt lat="45.87494" lon="4.72943">
        <ele>188</ele>
        <time>2018-08-16T11:04:03Z</time>
      </trkpt>
      <trkpt lat="45.87499" lon="4.72949">
        <ele>188</ele>
        <time>2018-08-16T11:04:04Z</time>
      </trkpt>
      <trkpt lat="45.87503" lon="4.72955">
        <ele>187</ele>
        <time>2018-08-16T11:04:05Z</time>
      </trkpt>
      <trkpt lat="45.87508" lon="4.72959">
        <ele>187</ele>
        <time>2018-08-16T11:04:06Z</time>
      </trkpt>
      <trkpt lat="45.87512" lon="4.72966">
        <ele>187</ele>
        <time>2018-08-16T11:04:07Z</time>
      </trkpt>
      <trkpt lat="45.87515" lon="4.72973">
        <ele>187</ele>
        <time>2018-08-16T11:04:08Z</time>
      </trkpt>
      <trkpt lat="45.87518" lon="4.72979">
        <ele>187</ele>
        <time>2018-08-16T11:04:09Z</time>
      </trkpt>
      <trkpt lat="45.8752" lon="4.72985">
        <ele>187</ele>
        <time>2018-08-16T11:04:10Z</time>
      </trkpt>
      <trkpt lat="45.87523" lon="4.72992">
        <ele>187</ele>
        <time>2018-08-16T11:04:11Z</time>
      </trkpt>
      <trkpt lat="45.87527" lon="4.72998">
        <ele>187</ele>
        <time>2018-08-16T11:04:12Z</time>
      </trkpt>
      <trkpt lat="45.8753" lon="4.73005">
        <ele>187</ele>
        <time>2018-08-16T11:04:13Z</time>
      </trkpt>
      <trkpt lat="45.87534" lon="4.73011">
        <ele>187</ele>
        <time>2018-08-16T11:04:14Z</time>
      </trkpt>
      <trkpt lat="45.87538" lon="4.73019">
        <ele>187</ele>
        <time>2018-08-16T11:04:15Z</time>
      </trkpt>
      <trkpt lat="45.87542" lon="4.73026">
        <ele>188</ele>
        <time>2018-08-16T11:04:16Z</time>
      </trkpt>
      <trkpt lat="45.87546" lon="4.73033">
        <ele>188</ele>
        <time>2018-08-16T11:04:17Z</time>
      </trkpt>
      <trkpt lat="45.8755" lon="4.73041">
        <ele>188</ele>
        <time>2018-08-16T11:04:18Z</time>
      </trkpt>
      <trkpt lat="45.87553" lon="4.73049">
        <ele>188</ele>
        <time>2018-08-16T11:04:19Z</time>
      </trkpt>
      <trkpt lat="45.87556" lon="4.73055">
        <ele>188</ele>
        <time>2018-08-16T11:04:20Z</time>
      </trkpt>
      <trkpt lat="45.87559" lon="4.73062">
        <ele>188</ele>
        <time>2018-08-16T11:04:21Z</time>
      </trkpt>
      <trkpt lat="45.87562" lon="4.73069">
        <ele>188</ele>
        <time>2018-08-16T11:04:22Z</time>
      </trkpt>
      <trkpt lat="45.87565" lon="4.73076">
        <ele>188</ele>
        <time>2018-08-16T11:04:23Z</time>
      </trkpt>
      <trkpt lat="45.87568" lon="4.73083">
        <ele>188</ele>
        <time>2018-08-16T11:04:24Z</time>
      </trkpt>
      <trkpt lat="45.87571" lon="4.73088">
        <ele>188</ele>
        <time>2018-08-16T11:04:25Z</time>
      </trkpt>
      <trkpt lat="45.87575" lon="4.73094">
        <ele>188</ele>
        <time>2018-08-16T11:04:26Z</time>
      </trkpt>
      <trkpt lat="45.87579" lon="4.731">
        <ele>188</ele>
        <time>2018-08-16T11:04:27Z</time>
      </trkpt>
      <trkpt lat="45.87582" lon="4.73106">
        <ele>188</ele>
        <time>2018-08-16T11:04:28Z</time>
      </trkpt>
      <trkpt lat="45.87586" lon="4.73112">
        <ele>188</ele>
        <time>2018-08-16T11:04:29Z</time>
      </trkpt>
      <trkpt lat="45.87589" lon="4.73118">
        <ele>188</ele>
        <time>2018-08-16T11:04:30Z</time>
      </trkpt>
      <trkpt lat="45.87592" lon="4.73125">
        <ele>188</ele>
        <time>2018-08-16T11:04:31Z</time>
      </trkpt>
      <trkpt lat="45.87595" lon="4.7313">
        <ele>187</ele>
        <time>2018-08-16T11:04:32Z</time>
      </trkpt>
      <trkpt lat="45.87598" lon="4.73136">
        <ele>187</ele>
        <time>2018-08-16T11:04:33Z</time>
      </trkpt>
      <trkpt lat="45.87601" lon="4.73141">
        <ele>187</ele>
        <time>2018-08-16T11:04:34Z</time>
      </trkpt>
      <trkpt lat="45.87605" lon="4.73147">
        <ele>187</ele>
        <time>2018-08-16T11:04:35Z</time>
      </trkpt>
      <trkpt lat="45.87607" lon="4.73152">
        <ele>187</ele>
        <time>2018-08-16T11:04:36Z</time>
      </trkpt>
      <trkpt lat="45.87613" lon="4.73162">
        <ele>187</ele>
        <time>2018-08-16T11:04:38Z</time>
      </trkpt>
      <trkpt lat="45.87615" lon="4.73167">
        <ele>187</ele>
        <time>2018-08-16T11:04:39Z</time>
      </trkpt>
      <trkpt lat="45.87619" lon="4.73172">
        <ele>187</ele>
        <time>2018-08-16T11:04:40Z</time>
      </trkpt>
      <trkpt lat="45.87622" lon="4.73178">
        <ele>188</ele>
        <time>2018-08-16T11:04:41Z</time>
      </trkpt>
      <trkpt lat="45.87625" lon="4.73182">
        <ele>188</ele>
        <time>2018-08-16T11:04:42Z</time>
      </trkpt>
      <trkpt lat="45.87628" lon="4.73188">
        <ele>188</ele>
        <time>2018-08-16T11:04:43Z</time>
      </trkpt>
      <trkpt lat="45.8763" lon="4.73193">
        <ele>188</ele>
        <time>2018-08-16T11:04:44Z</time>
      </trkpt>
      <trkpt lat="45.87632" lon="4.73201">
        <ele>188</ele>
        <time>2018-08-16T11:04:45Z</time>
      </trkpt>
      <trkpt lat="45.87633" lon="4.73207">
        <ele>188</ele>
        <time>2018-08-16T11:04:46Z</time>
      </trkpt>
      <trkpt lat="45.87635" lon="4.73213">
        <ele>188</ele>
        <time>2018-08-16T11:04:47Z</time>
      </trkpt>
      <trkpt lat="45.87638" lon="4.73218">
        <ele>188</ele>
        <time>2018-08-16T11:04:48Z</time>
      </trkpt>
      <trkpt lat="45.8764" lon="4.73224">
        <ele>188</ele>
        <time>2018-08-16T11:04:49Z</time>
      </trkpt>
      <trkpt lat="45.87643" lon="4.7323">
        <ele>188</ele>
        <time>2018-08-16T11:04:50Z</time>
      </trkpt>
      <trkpt lat="45.87646" lon="4.73236">
        <ele>188</ele>
        <time>2018-08-16T11:04:51Z</time>
      </trkpt>
      <trkpt lat="45.87649" lon="4.73241">
        <ele>188</ele>
        <time>2018-08-16T11:04:52Z</time>
      </trkpt>
      <trkpt lat="45.87652" lon="4.73247">
        <ele>188</ele>
        <time>2018-08-16T11:04:53Z</time>
      </trkpt>
      <trkpt lat="45.87657" lon="4.73257">
        <ele>189</ele>
        <time>2018-08-16T11:04:55Z</time>
      </trkpt>
      <trkpt lat="45.8766" lon="4.73261">
        <ele>189</ele>
        <time>2018-08-16T11:04:56Z</time>
      </trkpt>
      <trkpt lat="45.87666" lon="4.7327">
        <ele>189</ele>
        <time>2018-08-16T11:04:58Z</time>
      </trkpt>
      <trkpt lat="45.87668" lon="4.73276">
        <ele>188</ele>
        <time>2018-08-16T11:04:59Z</time>
      </trkpt>
      <trkpt lat="45.87671" lon="4.73282">
        <ele>188</ele>
        <time>2018-08-16T11:05:00Z</time>
      </trkpt>
      <trkpt lat="45.87674" lon="4.73288">
        <ele>188</ele>
        <time>2018-08-16T11:05:01Z</time>
      </trkpt>
      <trkpt lat="45.87676" lon="4.73295">
        <ele>188</ele>
        <time>2018-08-16T11:05:02Z</time>
      </trkpt>
      <trkpt lat="45.8768" lon="4.73301">
        <ele>188</ele>
        <time>2018-08-16T11:05:03Z</time>
      </trkpt>
      <trkpt lat="45.87683" lon="4.73306">
        <ele>188</ele>
        <time>2018-08-16T11:05:04Z</time>
      </trkpt>
      <trkpt lat="45.87686" lon="4.73313">
        <ele>188</ele>
        <time>2018-08-16T11:05:05Z</time>
      </trkpt>
      <trkpt lat="45.87689" lon="4.7332">
        <ele>188</ele>
        <time>2018-08-16T11:05:06Z</time>
      </trkpt>
      <trkpt lat="45.87692" lon="4.73326">
        <ele>188</ele>
        <time>2018-08-16T11:05:07Z</time>
      </trkpt>
      <trkpt lat="45.87694" lon="4.73332">
        <ele>188</ele>
        <time>2018-08-16T11:05:08Z</time>
      </trkpt>
      <trkpt lat="45.87698" lon="4.73339">
        <ele>187</ele>
        <time>2018-08-16T11:05:09Z</time>
      </trkpt>
      <trkpt lat="45.877" lon="4.73345">
        <ele>187</ele>
        <time>2018-08-16T11:05:10Z</time>
      </trkpt>
      <trkpt lat="45.87703" lon="4.7335">
        <ele>187</ele>
        <time>2018-08-16T11:05:11Z</time>
      </trkpt>
      <trkpt lat="45.87705" lon="4.73356">
        <ele>187</ele>
        <time>2018-08-16T11:05:12Z</time>
      </trkpt>
      <trkpt lat="45.87708" lon="4.73362">
        <ele>187</ele>
        <time>2018-08-16T11:05:13Z</time>
      </trkpt>
      <trkpt lat="45.87711" lon="4.73368">
        <ele>187</ele>
        <time>2018-08-16T11:05:14Z</time>
      </trkpt>
      <trkpt lat="45.87714" lon="4.73375">
        <ele>187</ele>
        <time>2018-08-16T11:05:15Z</time>
      </trkpt>
      <trkpt lat="45.87719" lon="4.73383">
        <ele>188</ele>
        <time>2018-08-16T11:05:16Z</time>
      </trkpt>
      <trkpt lat="45.87722" lon="4.73389">
        <ele>188</ele>
        <time>2018-08-16T11:05:17Z</time>
      </trkpt>
      <trkpt lat="45.87725" lon="4.73396">
        <ele>188</ele>
        <time>2018-08-16T11:05:18Z</time>
      </trkpt>
      <trkpt lat="45.87728" lon="4.73402">
        <ele>188</ele>
        <time>2018-08-16T11:05:19Z</time>
      </trkpt>
      <trkpt lat="45.87731" lon="4.73408">
        <ele>188</ele>
        <time>2018-08-16T11:05:20Z</time>
      </trkpt>
      <trkpt lat="45.87733" lon="4.73414">
        <ele>188</ele>
        <time>2018-08-16T11:05:21Z</time>
      </trkpt>
      <trkpt lat="45.87739" lon="4.73423">
        <ele>188</ele>
        <time>2018-08-16T11:05:23Z</time>
      </trkpt>
      <trkpt lat="45.87741" lon="4.73427">
        <ele>188</ele>
        <time>2018-08-16T11:05:24Z</time>
      </trkpt>
      <trkpt lat="45.87744" lon="4.73432">
        <ele>188</ele>
        <time>2018-08-16T11:05:25Z</time>
      </trkpt>
      <trkpt lat="45.87748" lon="4.73438">
        <ele>188</ele>
        <time>2018-08-16T11:05:26Z</time>
      </trkpt>
      <trkpt lat="45.87751" lon="4.73445">
        <ele>188</ele>
        <time>2018-08-16T11:05:27Z</time>
      </trkpt>
      <trkpt lat="45.87754" lon="4.73452">
        <ele>188</ele>
        <time>2018-08-16T11:05:28Z</time>
      </trkpt>
      <trkpt lat="45.87756" lon="4.73458">
        <ele>188</ele>
        <time>2018-08-16T11:05:29Z</time>
      </trkpt>
      <trkpt lat="45.87759" lon="4.73465">
        <ele>188</ele>
        <time>2018-08-16T11:05:30Z</time>
      </trkpt>
      <trkpt lat="45.87762" lon="4.7347">
        <ele>188</ele>
        <time>2018-08-16T11:05:31Z</time>
      </trkpt>
      <trkpt lat="45.87765" lon="4.73478">
        <ele>188</ele>
        <time>2018-08-16T11:05:32Z</time>
      </trkpt>
      <trkpt lat="45.87769" lon="4.73485">
        <ele>188</ele>
        <time>2018-08-16T11:05:33Z</time>
      </trkpt>
      <trkpt lat="45.87772" lon="4.73491">
        <ele>188</ele>
        <time>2018-08-16T11:05:34Z</time>
      </trkpt>
      <trkpt lat="45.87775" lon="4.73498">
        <ele>188</ele>
        <time>2018-08-16T11:05:35Z</time>
      </trkpt>
      <trkpt lat="45.87778" lon="4.73505">
        <ele>189</ele>
        <time>2018-08-16T11:05:36Z</time>
      </trkpt>
      <trkpt lat="45.87781" lon="4.73511">
        <ele>189</ele>
        <time>2018-08-16T11:05:37Z</time>
      </trkpt>
      <trkpt lat="45.87783" lon="4.73518">
        <ele>189</ele>
        <time>2018-08-16T11:05:38Z</time>
      </trkpt>
      <trkpt lat="45.87786" lon="4.73524">
        <ele>189</ele>
        <time>2018-08-16T11:05:39Z</time>
      </trkpt>
      <trkpt lat="45.87789" lon="4.73529">
        <ele>189</ele>
        <time>2018-08-16T11:05:40Z</time>
      </trkpt>
      <trkpt lat="45.87792" lon="4.73536">
        <ele>189</ele>
        <time>2018-08-16T11:05:41Z</time>
      </trkpt>
      <trkpt lat="45.87796" lon="4.73542">
        <ele>189</ele>
        <time>2018-08-16T11:05:42Z</time>
      </trkpt>
      <trkpt lat="45.87798" lon="4.73548">
        <ele>189</ele>
        <time>2018-08-16T11:05:43Z</time>
      </trkpt>
      <trkpt lat="45.87801" lon="4.73554">
        <ele>189</ele>
        <time>2018-08-16T11:05:44Z</time>
      </trkpt>
      <trkpt lat="45.87804" lon="4.7356">
        <ele>189</ele>
        <time>2018-08-16T11:05:45Z</time>
      </trkpt>
      <trkpt lat="45.87807" lon="4.73567">
        <ele>189</ele>
        <time>2018-08-16T11:05:46Z</time>
      </trkpt>
      <trkpt lat="45.87811" lon="4.73573">
        <ele>189</ele>
        <time>2018-08-16T11:05:47Z</time>
      </trkpt>
      <trkpt lat="45.87813" lon="4.7358">
        <ele>189</ele>
        <time>2018-08-16T11:05:48Z</time>
      </trkpt>
      <trkpt lat="45.87817" lon="4.73585">
        <ele>190</ele>
        <time>2018-08-16T11:05:49Z</time>
      </trkpt>
      <trkpt lat="45.8782" lon="4.73591">
        <ele>190</ele>
        <time>2018-08-16T11:05:50Z</time>
      </trkpt>
      <trkpt lat="45.87824" lon="4.73601">
        <ele>190</ele>
        <time>2018-08-16T11:05:52Z</time>
      </trkpt>
      <trkpt lat="45.87826" lon="4.73608">
        <ele>190</ele>
        <time>2018-08-16T11:05:53Z</time>
      </trkpt>
      <trkpt lat="45.8783" lon="4.73619">
        <ele>190</ele>
        <time>2018-08-16T11:05:55Z</time>
      </trkpt>
      <trkpt lat="45.87832" lon="4.73625">
        <ele>190</ele>
        <time>2018-08-16T11:05:56Z</time>
      </trkpt>
      <trkpt lat="45.87836" lon="4.73634">
        <ele>191</ele>
        <time>2018-08-16T11:05:58Z</time>
      </trkpt>
      <trkpt lat="45.8784" lon="4.73638">
        <ele>191</ele>
        <time>2018-08-16T11:05:59Z</time>
      </trkpt>
      <trkpt lat="45.87847" lon="4.7364">
        <ele>191</ele>
        <time>2018-08-16T11:06:02Z</time>
      </trkpt>
      <trkpt lat="45.87853" lon="4.73635">
        <ele>191</ele>
        <time>2018-08-16T11:06:03Z</time>
      </trkpt>
      <trkpt lat="45.87858" lon="4.73631">
        <ele>190</ele>
        <time>2018-08-16T11:06:04Z</time>
      </trkpt>
      <trkpt lat="45.87862" lon="4.73627">
        <ele>190</ele>
        <time>2018-08-16T11:06:05Z</time>
      </trkpt>
      <trkpt lat="45.87867" lon="4.73626">
        <ele>190</ele>
        <time>2018-08-16T11:06:06Z</time>
      </trkpt>
      <trkpt lat="45.87872" lon="4.73624">
        <ele>190</ele>
        <time>2018-08-16T11:06:07Z</time>
      </trkpt>
      <trkpt lat="45.87877" lon="4.73624">
        <ele>190</ele>
        <time>2018-08-16T11:06:08Z</time>
      </trkpt>
      <trkpt lat="45.87882" lon="4.73623">
        <ele>190</ele>
        <time>2018-08-16T11:06:09Z</time>
      </trkpt>
      <trkpt lat="45.87887" lon="4.73624">
        <ele>190</ele>
        <time>2018-08-16T11:06:10Z</time>
      </trkpt>
      <trkpt lat="45.87892" lon="4.73626">
        <ele>190</ele>
        <time>2018-08-16T11:06:11Z</time>
      </trkpt>
      <trkpt lat="45.87898" lon="4.73627">
        <ele>190</ele>
        <time>2018-08-16T11:06:12Z</time>
      </trkpt>
      <trkpt lat="45.87904" lon="4.73627">
        <ele>190</ele>
        <time>2018-08-16T11:06:13Z</time>
      </trkpt>
      <trkpt lat="45.87909" lon="4.73628">
        <ele>190</ele>
        <time>2018-08-16T11:06:14Z</time>
      </trkpt>
      <trkpt lat="45.87914" lon="4.73628">
        <ele>190</ele>
        <time>2018-08-16T11:06:15Z</time>
      </trkpt>
      <trkpt lat="45.87918" lon="4.73629">
        <ele>189</ele>
        <time>2018-08-16T11:06:16Z</time>
      </trkpt>
      <trkpt lat="45.87924" lon="4.7363">
        <ele>189</ele>
        <time>2018-08-16T11:06:17Z</time>
      </trkpt>
      <trkpt lat="45.87929" lon="4.73632">
        <ele>189</ele>
        <time>2018-08-16T11:06:18Z</time>
      </trkpt>
      <trkpt lat="45.87934" lon="4.73634">
        <ele>190</ele>
        <time>2018-08-16T11:06:19Z</time>
      </trkpt>
      <trkpt lat="45.8794" lon="4.73635">
        <ele>189</ele>
        <time>2018-08-16T11:06:20Z</time>
      </trkpt>
      <trkpt lat="45.87947" lon="4.73635">
        <ele>189</ele>
        <time>2018-08-16T11:06:21Z</time>
      </trkpt>
      <trkpt lat="45.87952" lon="4.73639">
        <ele>189</ele>
        <time>2018-08-16T11:06:22Z</time>
      </trkpt>
      <trkpt lat="45.87958" lon="4.73641">
        <ele>189</ele>
        <time>2018-08-16T11:06:23Z</time>
      </trkpt>
      <trkpt lat="45.87963" lon="4.73642">
        <ele>189</ele>
        <time>2018-08-16T11:06:24Z</time>
      </trkpt>
      <trkpt lat="45.87968" lon="4.73643">
        <ele>189</ele>
        <time>2018-08-16T11:06:25Z</time>
      </trkpt>
      <trkpt lat="45.87973" lon="4.73646">
        <ele>189</ele>
        <time>2018-08-16T11:06:26Z</time>
      </trkpt>
      <trkpt lat="45.87977" lon="4.73648">
        <ele>190</ele>
        <time>2018-08-16T11:06:27Z</time>
      </trkpt>
      <trkpt lat="45.87986" lon="4.73652">
        <ele>190</ele>
        <time>2018-08-16T11:06:29Z</time>
      </trkpt>
      <trkpt lat="45.8799" lon="4.73653">
        <ele>190</ele>
        <time>2018-08-16T11:06:30Z</time>
      </trkpt>
      <trkpt lat="45.87994" lon="4.73654">
        <ele>190</ele>
        <time>2018-08-16T11:06:31Z</time>
      </trkpt>
      <trkpt lat="45.87999" lon="4.73655">
        <ele>190</ele>
        <time>2018-08-16T11:06:32Z</time>
      </trkpt>
      <trkpt lat="45.88004" lon="4.73657">
        <ele>190</ele>
        <time>2018-08-16T11:06:33Z</time>
      </trkpt>
      <trkpt lat="45.8801" lon="4.73659">
        <ele>190</ele>
        <time>2018-08-16T11:06:34Z</time>
      </trkpt>
      <trkpt lat="45.88015" lon="4.7366">
        <ele>189</ele>
        <time>2018-08-16T11:06:35Z</time>
      </trkpt>
      <trkpt lat="45.8802" lon="4.73661">
        <ele>189</ele>
        <time>2018-08-16T11:06:36Z</time>
      </trkpt>
      <trkpt lat="45.88025" lon="4.7366">
        <ele>189</ele>
        <time>2018-08-16T11:06:37Z</time>
      </trkpt>
      <trkpt lat="45.8803" lon="4.73658">
        <ele>189</ele>
        <time>2018-08-16T11:06:38Z</time>
      </trkpt>
      <trkpt lat="45.88035" lon="4.73655">
        <ele>189</ele>
        <time>2018-08-16T11:06:39Z</time>
      </trkpt>
      <trkpt lat="45.88041" lon="4.73651">
        <ele>189</ele>
        <time>2018-08-16T11:06:40Z</time>
      </trkpt>
      <trkpt lat="45.88046" lon="4.73649">
        <ele>189</ele>
        <time>2018-08-16T11:06:41Z</time>
      </trkpt>
      <trkpt lat="45.8805" lon="4.73646">
        <ele>189</ele>
        <time>2018-08-16T11:06:42Z</time>
      </trkpt>
      <trkpt lat="45.88055" lon="4.73644">
        <ele>189</ele>
        <time>2018-08-16T11:06:43Z</time>
      </trkpt>
      <trkpt lat="45.8806" lon="4.7364">
        <ele>189</ele>
        <time>2018-08-16T11:06:44Z</time>
      </trkpt>
      <trkpt lat="45.88065" lon="4.73636">
        <ele>189</ele>
        <time>2018-08-16T11:06:45Z</time>
      </trkpt>
      <trkpt lat="45.88071" lon="4.73634">
        <ele>189</ele>
        <time>2018-08-16T11:06:46Z</time>
      </trkpt>
      <trkpt lat="45.88075" lon="4.73629">
        <ele>189</ele>
        <time>2018-08-16T11:06:47Z</time>
      </trkpt>
      <trkpt lat="45.8808" lon="4.73626">
        <ele>189</ele>
        <time>2018-08-16T11:06:48Z</time>
      </trkpt>
      <trkpt lat="45.88085" lon="4.73622">
        <ele>188</ele>
        <time>2018-08-16T11:06:49Z</time>
      </trkpt>
      <trkpt lat="45.8809" lon="4.73619">
        <ele>188</ele>
        <time>2018-08-16T11:06:50Z</time>
      </trkpt>
      <trkpt lat="45.88095" lon="4.73615">
        <ele>188</ele>
        <time>2018-08-16T11:06:51Z</time>
      </trkpt>
      <trkpt lat="45.881" lon="4.73612">
        <ele>188</ele>
        <time>2018-08-16T11:06:52Z</time>
      </trkpt>
      <trkpt lat="45.88106" lon="4.73608">
        <ele>188</ele>
        <time>2018-08-16T11:06:53Z</time>
      </trkpt>
      <trkpt lat="45.88111" lon="4.73605">
        <ele>188</ele>
        <time>2018-08-16T11:06:54Z</time>
      </trkpt>
      <trkpt lat="45.88116" lon="4.73601">
        <ele>187</ele>
        <time>2018-08-16T11:06:55Z</time>
      </trkpt>
      <trkpt lat="45.88121" lon="4.73598">
        <ele>187</ele>
        <time>2018-08-16T11:06:56Z</time>
      </trkpt>
      <trkpt lat="45.88126" lon="4.73595">
        <ele>187</ele>
        <time>2018-08-16T11:06:57Z</time>
      </trkpt>
      <trkpt lat="45.88132" lon="4.73593">
        <ele>187</ele>
        <time>2018-08-16T11:06:58Z</time>
      </trkpt>
      <trkpt lat="45.88138" lon="4.73587">
        <ele>187</ele>
        <time>2018-08-16T11:06:59Z</time>
      </trkpt>
      <trkpt lat="45.88143" lon="4.73584">
        <ele>187</ele>
        <time>2018-08-16T11:07:00Z</time>
      </trkpt>
      <trkpt lat="45.88148" lon="4.7358">
        <ele>186</ele>
        <time>2018-08-16T11:07:01Z</time>
      </trkpt>
      <trkpt lat="45.88154" lon="4.73577">
        <ele>186</ele>
        <time>2018-08-16T11:07:02Z</time>
      </trkpt>
      <trkpt lat="45.88159" lon="4.73574">
        <ele>186</ele>
        <time>2018-08-16T11:07:03Z</time>
      </trkpt>
      <trkpt lat="45.88165" lon="4.73569">
        <ele>186</ele>
        <time>2018-08-16T11:07:04Z</time>
      </trkpt>
      <trkpt lat="45.88171" lon="4.73565">
        <ele>186</ele>
        <time>2018-08-16T11:07:05Z</time>
      </trkpt>
      <trkpt lat="45.88176" lon="4.73562">
        <ele>186</ele>
        <time>2018-08-16T11:07:06Z</time>
      </trkpt>
      <trkpt lat="45.88181" lon="4.73559">
        <ele>186</ele>
        <time>2018-08-16T11:07:07Z</time>
      </trkpt>
      <trkpt lat="45.88186" lon="4.73556">
        <ele>186</ele>
        <time>2018-08-16T11:07:08Z</time>
      </trkpt>
      <trkpt lat="45.88191" lon="4.73552">
        <ele>186</ele>
        <time>2018-08-16T11:07:09Z</time>
      </trkpt>
      <trkpt lat="45.88196" lon="4.73549">
        <ele>186</ele>
        <time>2018-08-16T11:07:10Z</time>
      </trkpt>
      <trkpt lat="45.88201" lon="4.73545">
        <ele>186</ele>
        <time>2018-08-16T11:07:11Z</time>
      </trkpt>
      <trkpt lat="45.88206" lon="4.73543">
        <ele>186</ele>
        <time>2018-08-16T11:07:12Z</time>
      </trkpt>
      <trkpt lat="45.88211" lon="4.73541">
        <ele>185</ele>
        <time>2018-08-16T11:07:13Z</time>
      </trkpt>
      <trkpt lat="45.88217" lon="4.73536">
        <ele>185</ele>
        <time>2018-08-16T11:07:14Z</time>
      </trkpt>
      <trkpt lat="45.88223" lon="4.73533">
        <ele>185</ele>
        <time>2018-08-16T11:07:15Z</time>
      </trkpt>
      <trkpt lat="45.88228" lon="4.73529">
        <ele>185</ele>
        <time>2018-08-16T11:07:16Z</time>
      </trkpt>
      <trkpt lat="45.88233" lon="4.73525">
        <ele>185</ele>
        <time>2018-08-16T11:07:17Z</time>
      </trkpt>
      <trkpt lat="45.88238" lon="4.73521">
        <ele>185</ele>
        <time>2018-08-16T11:07:18Z</time>
      </trkpt>
      <trkpt lat="45.88244" lon="4.73518">
        <ele>185</ele>
        <time>2018-08-16T11:07:19Z</time>
      </trkpt>
      <trkpt lat="45.88249" lon="4.73515">
        <ele>185</ele>
        <time>2018-08-16T11:07:20Z</time>
      </trkpt>
      <trkpt lat="45.88254" lon="4.73512">
        <ele>185</ele>
        <time>2018-08-16T11:07:21Z</time>
      </trkpt>
      <trkpt lat="45.88259" lon="4.73508">
        <ele>185</ele>
        <time>2018-08-16T11:07:22Z</time>
      </trkpt>
      <trkpt lat="45.88264" lon="4.73505">
        <ele>185</ele>
        <time>2018-08-16T11:07:23Z</time>
      </trkpt>
      <trkpt lat="45.88269" lon="4.73501">
        <ele>185</ele>
        <time>2018-08-16T11:07:24Z</time>
      </trkpt>
      <trkpt lat="45.88277" lon="4.73496">
        <ele>184</ele>
        <time>2018-08-16T11:07:26Z</time>
      </trkpt>
      <trkpt lat="45.88282" lon="4.73493">
        <ele>184</ele>
        <time>2018-08-16T11:07:27Z</time>
      </trkpt>
      <trkpt lat="45.88286" lon="4.73491">
        <ele>184</ele>
        <time>2018-08-16T11:07:28Z</time>
      </trkpt>
      <trkpt lat="45.88292" lon="4.73489">
        <ele>184</ele>
        <time>2018-08-16T11:07:29Z</time>
      </trkpt>
      <trkpt lat="45.88297" lon="4.73486">
        <ele>184</ele>
        <time>2018-08-16T11:07:30Z</time>
      </trkpt>
      <trkpt lat="45.88302" lon="4.73484">
        <ele>184</ele>
        <time>2018-08-16T11:07:31Z</time>
      </trkpt>
      <trkpt lat="45.88307" lon="4.73485">
        <ele>184</ele>
        <time>2018-08-16T11:07:32Z</time>
      </trkpt>
      <trkpt lat="45.88314" lon="4.73481">
        <ele>184</ele>
        <time>2018-08-16T11:07:33Z</time>
      </trkpt>
      <trkpt lat="45.88322" lon="4.73471">
        <ele>184</ele>
        <time>2018-08-16T11:07:34Z</time>
      </trkpt>
      <trkpt lat="45.88328" lon="4.73469">
        <ele>184</ele>
        <time>2018-08-16T11:07:35Z</time>
      </trkpt>
      <trkpt lat="45.88334" lon="4.73469">
        <ele>184</ele>
        <time>2018-08-16T11:07:36Z</time>
      </trkpt>
      <trkpt lat="45.8834" lon="4.7347">
        <ele>184</ele>
        <time>2018-08-16T11:07:37Z</time>
      </trkpt>
      <trkpt lat="45.88345" lon="4.7347">
        <ele>184</ele>
        <time>2018-08-16T11:07:38Z</time>
      </trkpt>
      <trkpt lat="45.88351" lon="4.73468">
        <ele>184</ele>
        <time>2018-08-16T11:07:39Z</time>
      </trkpt>
      <trkpt lat="45.88357" lon="4.73465">
        <ele>184</ele>
        <time>2018-08-16T11:07:40Z</time>
      </trkpt>
      <trkpt lat="45.88362" lon="4.73463">
        <ele>184</ele>
        <time>2018-08-16T11:07:41Z</time>
      </trkpt>
      <trkpt lat="45.88367" lon="4.73461">
        <ele>184</ele>
        <time>2018-08-16T11:07:42Z</time>
      </trkpt>
      <trkpt lat="45.88373" lon="4.73459">
        <ele>184</ele>
        <time>2018-08-16T11:07:43Z</time>
      </trkpt>
      <trkpt lat="45.88379" lon="4.73457">
        <ele>184</ele>
        <time>2018-08-16T11:07:44Z</time>
      </trkpt>
      <trkpt lat="45.88384" lon="4.73455">
        <ele>184</ele>
        <time>2018-08-16T11:07:45Z</time>
      </trkpt>
      <trkpt lat="45.8839" lon="4.73453">
        <ele>184</ele>
        <time>2018-08-16T11:07:46Z</time>
      </trkpt>
      <trkpt lat="45.88395" lon="4.73452">
        <ele>184</ele>
        <time>2018-08-16T11:07:47Z</time>
      </trkpt>
      <trkpt lat="45.88401" lon="4.73451">
        <ele>184</ele>
        <time>2018-08-16T11:07:48Z</time>
      </trkpt>
      <trkpt lat="45.88406" lon="4.73451">
        <ele>184</ele>
        <time>2018-08-16T11:07:49Z</time>
      </trkpt>
      <trkpt lat="45.88412" lon="4.73449">
        <ele>184</ele>
        <time>2018-08-16T11:07:50Z</time>
      </trkpt>
      <trkpt lat="45.88417" lon="4.73448">
        <ele>184</ele>
        <time>2018-08-16T11:07:51Z</time>
      </trkpt>
      <trkpt lat="45.88423" lon="4.73446">
        <ele>184</ele>
        <time>2018-08-16T11:07:52Z</time>
      </trkpt>
      <trkpt lat="45.88428" lon="4.73444">
        <ele>184</ele>
        <time>2018-08-16T11:07:53Z</time>
      </trkpt>
      <trkpt lat="45.88433" lon="4.73442">
        <ele>184</ele>
        <time>2018-08-16T11:07:54Z</time>
      </trkpt>
      <trkpt lat="45.88437" lon="4.73441">
        <ele>184</ele>
        <time>2018-08-16T11:07:55Z</time>
      </trkpt>
      <trkpt lat="45.88442" lon="4.73438">
        <ele>184</ele>
        <time>2018-08-16T11:07:56Z</time>
      </trkpt>
      <trkpt lat="45.88447" lon="4.73436">
        <ele>184</ele>
        <time>2018-08-16T11:07:57Z</time>
      </trkpt>
      <trkpt lat="45.88452" lon="4.73435">
        <ele>184</ele>
        <time>2018-08-16T11:07:58Z</time>
      </trkpt>
      <trkpt lat="45.88457" lon="4.73433">
        <ele>184</ele>
        <time>2018-08-16T11:07:59Z</time>
      </trkpt>
      <trkpt lat="45.88462" lon="4.73437">
        <ele>184</ele>
        <time>2018-08-16T11:08:00Z</time>
      </trkpt>
      <trkpt lat="45.88467" lon="4.73434">
        <ele>184</ele>
        <time>2018-08-16T11:08:01Z</time>
      </trkpt>
      <trkpt lat="45.88471" lon="4.73428">
        <ele>184</ele>
        <time>2018-08-16T11:08:02Z</time>
      </trkpt>
      <trkpt lat="45.88476" lon="4.73426">
        <ele>184</ele>
        <time>2018-08-16T11:08:03Z</time>
      </trkpt>
      <trkpt lat="45.88482" lon="4.73424">
        <ele>184</ele>
        <time>2018-08-16T11:08:04Z</time>
      </trkpt>
      <trkpt lat="45.88487" lon="4.73423">
        <ele>184</ele>
        <time>2018-08-16T11:08:05Z</time>
      </trkpt>
      <trkpt lat="45.88494" lon="4.73417">
        <ele>184</ele>
        <time>2018-08-16T11:08:06Z</time>
      </trkpt>
      <trkpt lat="45.88499" lon="4.73418">
        <ele>184</ele>
        <time>2018-08-16T11:08:07Z</time>
      </trkpt>
      <trkpt lat="45.88505" lon="4.73416">
        <ele>184</ele>
        <time>2018-08-16T11:08:08Z</time>
      </trkpt>
      <trkpt lat="45.8851" lon="4.73414">
        <ele>184</ele>
        <time>2018-08-16T11:08:09Z</time>
      </trkpt>
      <trkpt lat="45.88516" lon="4.73412">
        <ele>184</ele>
        <time>2018-08-16T11:08:10Z</time>
      </trkpt>
      <trkpt lat="45.88522" lon="4.7341">
        <ele>183</ele>
        <time>2018-08-16T11:08:11Z</time>
      </trkpt>
      <trkpt lat="45.88527" lon="4.73409">
        <ele>183</ele>
        <time>2018-08-16T11:08:12Z</time>
      </trkpt>
      <trkpt lat="45.88532" lon="4.73408">
        <ele>183</ele>
        <time>2018-08-16T11:08:13Z</time>
      </trkpt>
      <trkpt lat="45.88537" lon="4.73406">
        <ele>183</ele>
        <time>2018-08-16T11:08:14Z</time>
      </trkpt>
      <trkpt lat="45.88541" lon="4.73406">
        <ele>183</ele>
        <time>2018-08-16T11:08:15Z</time>
      </trkpt>
      <trkpt lat="45.88546" lon="4.73405">
        <ele>183</ele>
        <time>2018-08-16T11:08:16Z</time>
      </trkpt>
      <trkpt lat="45.88552" lon="4.73403">
        <ele>183</ele>
        <time>2018-08-16T11:08:17Z</time>
      </trkpt>
      <trkpt lat="45.88557" lon="4.73403">
        <ele>183</ele>
        <time>2018-08-16T11:08:18Z</time>
      </trkpt>
      <trkpt lat="45.88562" lon="4.73402">
        <ele>183</ele>
        <time>2018-08-16T11:08:19Z</time>
      </trkpt>
      <trkpt lat="45.88568" lon="4.734">
        <ele>183</ele>
        <time>2018-08-16T11:08:20Z</time>
      </trkpt>
      <trkpt lat="45.88574" lon="4.73399">
        <ele>183</ele>
        <time>2018-08-16T11:08:21Z</time>
      </trkpt>
      <trkpt lat="45.8858" lon="4.73398">
        <ele>183</ele>
        <time>2018-08-16T11:08:22Z</time>
      </trkpt>
      <trkpt lat="45.88585" lon="4.73397">
        <ele>183</ele>
        <time>2018-08-16T11:08:23Z</time>
      </trkpt>
      <trkpt lat="45.8859" lon="4.73396">
        <ele>183</ele>
        <time>2018-08-16T11:08:24Z</time>
      </trkpt>
      <trkpt lat="45.88595" lon="4.73394">
        <ele>183</ele>
        <time>2018-08-16T11:08:25Z</time>
      </trkpt>
      <trkpt lat="45.886" lon="4.73392">
        <ele>183</ele>
        <time>2018-08-16T11:08:26Z</time>
      </trkpt>
      <trkpt lat="45.88606" lon="4.73389">
        <ele>183</ele>
        <time>2018-08-16T11:08:27Z</time>
      </trkpt>
      <trkpt lat="45.88612" lon="4.73387">
        <ele>183</ele>
        <time>2018-08-16T11:08:28Z</time>
      </trkpt>
      <trkpt lat="45.88617" lon="4.73387">
        <ele>183</ele>
        <time>2018-08-16T11:08:29Z</time>
      </trkpt>
      <trkpt lat="45.88621" lon="4.73387">
        <ele>183</ele>
        <time>2018-08-16T11:08:30Z</time>
      </trkpt>
      <trkpt lat="45.88626" lon="4.73389">
        <ele>183</ele>
        <time>2018-08-16T11:08:31Z</time>
      </trkpt>
      <trkpt lat="45.88631" lon="4.7339">
        <ele>183</ele>
        <time>2018-08-16T11:08:32Z</time>
      </trkpt>
      <trkpt lat="45.88633" lon="4.73403">
        <ele>183</ele>
        <time>2018-08-16T11:08:33Z</time>
      </trkpt>
      <trkpt lat="45.88635" lon="4.73408">
        <ele>183</ele>
        <time>2018-08-16T11:08:34Z</time>
      </trkpt>
      <trkpt lat="45.88637" lon="4.73413">
        <ele>184</ele>
        <time>2018-08-16T11:08:35Z</time>
      </trkpt>
      <trkpt lat="45.88637" lon="4.73421">
        <ele>184</ele>
        <time>2018-08-16T11:08:36Z</time>
      </trkpt>
      <trkpt lat="45.88637" lon="4.73428">
        <ele>184</ele>
        <time>2018-08-16T11:08:37Z</time>
      </trkpt>
      <trkpt lat="45.88636" lon="4.73436">
        <ele>184</ele>
        <time>2018-08-16T11:08:38Z</time>
      </trkpt>
      <trkpt lat="45.88635" lon="4.73442">
        <ele>184</ele>
        <time>2018-08-16T11:08:39Z</time>
      </trkpt>
      <trkpt lat="45.88634" lon="4.7345">
        <ele>184</ele>
        <time>2018-08-16T11:08:40Z</time>
      </trkpt>
      <trkpt lat="45.88633" lon="4.73458">
        <ele>184</ele>
        <time>2018-08-16T11:08:41Z</time>
      </trkpt>
      <trkpt lat="45.88633" lon="4.73466">
        <ele>184</ele>
        <time>2018-08-16T11:08:42Z</time>
      </trkpt>
      <trkpt lat="45.88634" lon="4.73473">
        <ele>184</ele>
        <time>2018-08-16T11:08:43Z</time>
      </trkpt>
      <trkpt lat="45.88634" lon="4.73479">
        <ele>184</ele>
        <time>2018-08-16T11:08:44Z</time>
      </trkpt>
      <trkpt lat="45.88637" lon="4.7349">
        <ele>184</ele>
        <time>2018-08-16T11:08:46Z</time>
      </trkpt>
      <trkpt lat="45.88639" lon="4.73494">
        <ele>184</ele>
        <time>2018-08-16T11:08:47Z</time>
      </trkpt>
      <trkpt lat="45.88642" lon="4.73506">
        <ele>185</ele>
        <time>2018-08-16T11:08:49Z</time>
      </trkpt>
      <trkpt lat="45.88644" lon="4.73513">
        <ele>185</ele>
        <time>2018-08-16T11:08:50Z</time>
      </trkpt>
      <trkpt lat="45.88646" lon="4.73525">
        <ele>185</ele>
        <time>2018-08-16T11:08:52Z</time>
      </trkpt>
      <trkpt lat="45.88646" lon="4.7353">
        <ele>185</ele>
        <time>2018-08-16T11:08:53Z</time>
      </trkpt>
      <trkpt lat="45.88646" lon="4.73538">
        <ele>185</ele>
        <time>2018-08-16T11:08:55Z</time>
      </trkpt>
      <trkpt lat="45.88646" lon="4.73546">
        <ele>185</ele>
        <time>2018-08-16T11:08:56Z</time>
      </trkpt>
      <trkpt lat="45.88645" lon="4.73556">
        <ele>185</ele>
        <time>2018-08-16T11:08:58Z</time>
      </trkpt>
      <trkpt lat="45.88646" lon="4.73562">
        <ele>185</ele>
        <time>2018-08-16T11:08:59Z</time>
      </trkpt>
      <trkpt lat="45.88644" lon="4.73573">
        <ele>185</ele>
        <time>2018-08-16T11:09:01Z</time>
      </trkpt>
      <trkpt lat="45.88644" lon="4.73575">
        <ele>185</ele>
        <time>2018-08-16T11:09:02Z</time>
      </trkpt>
      <trkpt lat="45.88643" lon="4.73584">
        <ele>185</ele>
        <time>2018-08-16T11:09:03Z</time>
      </trkpt>
      <trkpt lat="45.88643" lon="4.7359">
        <ele>185</ele>
        <time>2018-08-16T11:09:04Z</time>
      </trkpt>
      <trkpt lat="45.88643" lon="4.736">
        <ele>186</ele>
        <time>2018-08-16T11:09:06Z</time>
      </trkpt>
      <trkpt lat="45.88643" lon="4.73606">
        <ele>186</ele>
        <time>2018-08-16T11:09:07Z</time>
      </trkpt>
      <trkpt lat="45.88643" lon="4.73616">
        <ele>186</ele>
        <time>2018-08-16T11:09:09Z</time>
      </trkpt>
      <trkpt lat="45.88643" lon="4.73622">
        <ele>186</ele>
        <time>2018-08-16T11:09:10Z</time>
      </trkpt>
      <trkpt lat="45.88643" lon="4.73632">
        <ele>186</ele>
        <time>2018-08-16T11:09:12Z</time>
      </trkpt>
      <trkpt lat="45.88643" lon="4.73638">
        <ele>186</ele>
        <time>2018-08-16T11:09:13Z</time>
      </trkpt>
      <trkpt lat="45.88643" lon="4.73649">
        <ele>186</ele>
        <time>2018-08-16T11:09:15Z</time>
      </trkpt>
      <trkpt lat="45.88643" lon="4.73652">
        <ele>186</ele>
        <time>2018-08-16T11:09:16Z</time>
      </trkpt>
      <trkpt lat="45.88643" lon="4.7366">
        <ele>186</ele>
        <time>2018-08-16T11:09:18Z</time>
      </trkpt>
      <trkpt lat="45.88643" lon="4.7367">
        <ele>186</ele>
        <time>2018-08-16T11:09:19Z</time>
      </trkpt>
      <trkpt lat="45.88643" lon="4.73677">
        <ele>186</ele>
        <time>2018-08-16T11:09:21Z</time>
      </trkpt>
      <trkpt lat="45.88642" lon="4.73686">
        <ele>186</ele>
        <time>2018-08-16T11:09:22Z</time>
      </trkpt>
      <trkpt lat="45.88642" lon="4.73697">
        <ele>186</ele>
        <time>2018-08-16T11:09:24Z</time>
      </trkpt>
      <trkpt lat="45.88641" lon="4.73703">
        <ele>186</ele>
        <time>2018-08-16T11:09:25Z</time>
      </trkpt>
      <trkpt lat="45.88641" lon="4.73715">
        <ele>186</ele>
        <time>2018-08-16T11:09:27Z</time>
      </trkpt>
      <trkpt lat="45.88641" lon="4.73724">
        <ele>186</ele>
        <time>2018-08-16T11:09:28Z</time>
      </trkpt>
      <trkpt lat="45.88641" lon="4.73731">
        <ele>186</ele>
        <time>2018-08-16T11:09:29Z</time>
      </trkpt>
      <trkpt lat="45.88641" lon="4.73738">
        <ele>186</ele>
        <time>2018-08-16T11:09:30Z</time>
      </trkpt>
      <trkpt lat="45.88641" lon="4.73746">
        <ele>186</ele>
        <time>2018-08-16T11:09:31Z</time>
      </trkpt>
      <trkpt lat="45.8864" lon="4.73755">
        <ele>187</ele>
        <time>2018-08-16T11:09:32Z</time>
      </trkpt>
      <trkpt lat="45.88641" lon="4.73764">
        <ele>187</ele>
        <time>2018-08-16T11:09:33Z</time>
      </trkpt>
      <trkpt lat="45.8864" lon="4.73773">
        <ele>187</ele>
        <time>2018-08-16T11:09:34Z</time>
      </trkpt>
      <trkpt lat="45.8864" lon="4.73782">
        <ele>187</ele>
        <time>2018-08-16T11:09:35Z</time>
      </trkpt>
      <trkpt lat="45.8864" lon="4.73792">
        <ele>187</ele>
        <time>2018-08-16T11:09:36Z</time>
      </trkpt>
      <trkpt lat="45.8864" lon="4.73802">
        <ele>187</ele>
        <time>2018-08-16T11:09:37Z</time>
      </trkpt>
      <trkpt lat="45.88639" lon="4.73811">
        <ele>187</ele>
        <time>2018-08-16T11:09:38Z</time>
      </trkpt>
      <trkpt lat="45.8864" lon="4.73821">
        <ele>187</ele>
        <time>2018-08-16T11:09:39Z</time>
      </trkpt>
      <trkpt lat="45.88639" lon="4.73831">
        <ele>187</ele>
        <time>2018-08-16T11:09:40Z</time>
      </trkpt>
      <trkpt lat="45.88639" lon="4.73841">
        <ele>187</ele>
        <time>2018-08-16T11:09:41Z</time>
      </trkpt>
      <trkpt lat="45.88638" lon="4.73849">
        <ele>187</ele>
        <time>2018-08-16T11:09:42Z</time>
      </trkpt>
      <trkpt lat="45.88637" lon="4.73859">
        <ele>187</ele>
        <time>2018-08-16T11:09:43Z</time>
      </trkpt>
      <trkpt lat="45.88637" lon="4.73869">
        <ele>187</ele>
        <time>2018-08-16T11:09:44Z</time>
      </trkpt>
      <trkpt lat="45.88637" lon="4.73878">
        <ele>187</ele>
        <time>2018-08-16T11:09:45Z</time>
      </trkpt>
      <trkpt lat="45.88637" lon="4.73886">
        <ele>187</ele>
        <time>2018-08-16T11:09:46Z</time>
      </trkpt>
      <trkpt lat="45.88637" lon="4.73895">
        <ele>187</ele>
        <time>2018-08-16T11:09:47Z</time>
      </trkpt>
      <trkpt lat="45.88637" lon="4.73905">
        <ele>187</ele>
        <time>2018-08-16T11:09:48Z</time>
      </trkpt>
      <trkpt lat="45.88637" lon="4.73912">
        <ele>187</ele>
        <time>2018-08-16T11:09:49Z</time>
      </trkpt>
      <trkpt lat="45.88639" lon="4.73921">
        <ele>187</ele>
        <time>2018-08-16T11:09:50Z</time>
      </trkpt>
      <trkpt lat="45.88639" lon="4.7393">
        <ele>187</ele>
        <time>2018-08-16T11:09:51Z</time>
      </trkpt>
      <trkpt lat="45.8864" lon="4.73937">
        <ele>187</ele>
        <time>2018-08-16T11:09:52Z</time>
      </trkpt>
      <trkpt lat="45.8864" lon="4.73945">
        <ele>187</ele>
        <time>2018-08-16T11:09:53Z</time>
      </trkpt>
      <trkpt lat="45.8864" lon="4.73954">
        <ele>187</ele>
        <time>2018-08-16T11:09:54Z</time>
      </trkpt>
      <trkpt lat="45.88642" lon="4.73965">
        <ele>187</ele>
        <time>2018-08-16T11:09:56Z</time>
      </trkpt>
      <trkpt lat="45.88642" lon="4.73973">
        <ele>187</ele>
        <time>2018-08-16T11:09:57Z</time>
      </trkpt>
      <trkpt lat="45.88644" lon="4.73981">
        <ele>187</ele>
        <time>2018-08-16T11:09:58Z</time>
      </trkpt>
      <trkpt lat="45.88645" lon="4.7399">
        <ele>187</ele>
        <time>2018-08-16T11:09:59Z</time>
      </trkpt>
      <trkpt lat="45.88646" lon="4.73998">
        <ele>186</ele>
        <time>2018-08-16T11:10:00Z</time>
      </trkpt>
      <trkpt lat="45.88649" lon="4.74006">
        <ele>187</ele>
        <time>2018-08-16T11:10:01Z</time>
      </trkpt>
      <trkpt lat="45.88651" lon="4.74012">
        <ele>187</ele>
        <time>2018-08-16T11:10:02Z</time>
      </trkpt>
      <trkpt lat="45.88653" lon="4.74018">
        <ele>187</ele>
        <time>2018-08-16T11:10:03Z</time>
      </trkpt>
      <trkpt lat="45.88653" lon="4.74026">
        <ele>187</ele>
        <time>2018-08-16T11:10:04Z</time>
      </trkpt>
      <trkpt lat="45.88654" lon="4.74035">
        <ele>187</ele>
        <time>2018-08-16T11:10:05Z</time>
      </trkpt>
      <trkpt lat="45.88656" lon="4.74043">
        <ele>187</ele>
        <time>2018-08-16T11:10:06Z</time>
      </trkpt>
      <trkpt lat="45.88658" lon="4.74051">
        <ele>187</ele>
        <time>2018-08-16T11:10:07Z</time>
      </trkpt>
      <trkpt lat="45.88661" lon="4.74059">
        <ele>187</ele>
        <time>2018-08-16T11:10:08Z</time>
      </trkpt>
      <trkpt lat="45.88663" lon="4.74067">
        <ele>188</ele>
        <time>2018-08-16T11:10:09Z</time>
      </trkpt>
      <trkpt lat="45.88666" lon="4.74074">
        <ele>188</ele>
        <time>2018-08-16T11:10:10Z</time>
      </trkpt>
      <trkpt lat="45.88668" lon="4.74082">
        <ele>188</ele>
        <time>2018-08-16T11:10:11Z</time>
      </trkpt>
      <trkpt lat="45.8867" lon="4.7409">
        <ele>188</ele>
        <time>2018-08-16T11:10:12Z</time>
      </trkpt>
      <trkpt lat="45.88673" lon="4.74097">
        <ele>188</ele>
        <time>2018-08-16T11:10:13Z</time>
      </trkpt>
      <trkpt lat="45.88677" lon="4.74104">
        <ele>188</ele>
        <time>2018-08-16T11:10:14Z</time>
      </trkpt>
      <trkpt lat="45.88681" lon="4.74107">
        <ele>188</ele>
        <time>2018-08-16T11:10:15Z</time>
      </trkpt>
      <trkpt lat="45.88686" lon="4.7411">
        <ele>188</ele>
        <time>2018-08-16T11:10:16Z</time>
      </trkpt>
      <trkpt lat="45.88691" lon="4.74112">
        <ele>188</ele>
        <time>2018-08-16T11:10:17Z</time>
      </trkpt>
      <trkpt lat="45.88699" lon="4.74113">
        <ele>188</ele>
        <time>2018-08-16T11:10:19Z</time>
      </trkpt>
      <trkpt lat="45.88703" lon="4.74113">
        <ele>188</ele>
        <time>2018-08-16T11:10:20Z</time>
      </trkpt>
      <trkpt lat="45.88707" lon="4.74115">
        <ele>188</ele>
        <time>2018-08-16T11:10:21Z</time>
      </trkpt>
      <trkpt lat="45.88711" lon="4.74119">
        <ele>188</ele>
        <time>2018-08-16T11:10:22Z</time>
      </trkpt>
      <trkpt lat="45.88714" lon="4.74123">
        <ele>188</ele>
        <time>2018-08-16T11:10:23Z</time>
      </trkpt>
      <trkpt lat="45.8872" lon="4.74127">
        <ele>188</ele>
        <time>2018-08-16T11:10:24Z</time>
      </trkpt>
      <trkpt lat="45.88724" lon="4.7413">
        <ele>188</ele>
        <time>2018-08-16T11:10:25Z</time>
      </trkpt>
      <trkpt lat="45.88729" lon="4.74133">
        <ele>188</ele>
        <time>2018-08-16T11:10:26Z</time>
      </trkpt>
      <trkpt lat="45.88733" lon="4.74136">
        <ele>188</ele>
        <time>2018-08-16T11:10:27Z</time>
      </trkpt>
      <trkpt lat="45.88738" lon="4.74141">
        <ele>188</ele>
        <time>2018-08-16T11:10:28Z</time>
      </trkpt>
      <trkpt lat="45.88742" lon="4.74145">
        <ele>188</ele>
        <time>2018-08-16T11:10:29Z</time>
      </trkpt>
      <trkpt lat="45.88746" lon="4.74148">
        <ele>188</ele>
        <time>2018-08-16T11:10:30Z</time>
      </trkpt>
      <trkpt lat="45.88751" lon="4.74151">
        <ele>187</ele>
        <time>2018-08-16T11:10:31Z</time>
      </trkpt>
      <trkpt lat="45.88755" lon="4.74154">
        <ele>187</ele>
        <time>2018-08-16T11:10:32Z</time>
      </trkpt>
      <trkpt lat="45.88763" lon="4.7416">
        <ele>187</ele>
        <time>2018-08-16T11:10:34Z</time>
      </trkpt>
      <trkpt lat="45.88767" lon="4.74163">
        <ele>187</ele>
        <time>2018-08-16T11:10:35Z</time>
      </trkpt>
      <trkpt lat="45.88775" lon="4.74169">
        <ele>188</ele>
        <time>2018-08-16T11:10:37Z</time>
      </trkpt>
      <trkpt lat="45.88778" lon="4.74172">
        <ele>188</ele>
        <time>2018-08-16T11:10:38Z</time>
      </trkpt>
      <trkpt lat="45.88783" lon="4.74173">
        <ele>188</ele>
        <time>2018-08-16T11:10:39Z</time>
      </trkpt>
      <trkpt lat="45.88788" lon="4.74177">
        <ele>188</ele>
        <time>2018-08-16T11:10:40Z</time>
      </trkpt>
      <trkpt lat="45.88792" lon="4.74181">
        <ele>188</ele>
        <time>2018-08-16T11:10:41Z</time>
      </trkpt>
      <trkpt lat="45.88798" lon="4.74183">
        <ele>187</ele>
        <time>2018-08-16T11:10:42Z</time>
      </trkpt>
      <trkpt lat="45.88804" lon="4.74185">
        <ele>187</ele>
        <time>2018-08-16T11:10:43Z</time>
      </trkpt>
      <trkpt lat="45.88809" lon="4.74187">
        <ele>187</ele>
        <time>2018-08-16T11:10:44Z</time>
      </trkpt>
      <trkpt lat="45.88814" lon="4.7419">
        <ele>187</ele>
        <time>2018-08-16T11:10:45Z</time>
      </trkpt>
      <trkpt lat="45.88819" lon="4.74192">
        <ele>187</ele>
        <time>2018-08-16T11:10:46Z</time>
      </trkpt>
      <trkpt lat="45.88824" lon="4.74194">
        <ele>187</ele>
        <time>2018-08-16T11:10:47Z</time>
      </trkpt>
      <trkpt lat="45.88829" lon="4.74197">
        <ele>187</ele>
        <time>2018-08-16T11:10:48Z</time>
      </trkpt>
      <trkpt lat="45.88833" lon="4.74199">
        <ele>187</ele>
        <time>2018-08-16T11:10:49Z</time>
      </trkpt>
      <trkpt lat="45.88837" lon="4.74202">
        <ele>187</ele>
        <time>2018-08-16T11:10:50Z</time>
      </trkpt>
      <trkpt lat="45.88843" lon="4.74207">
        <ele>187</ele>
        <time>2018-08-16T11:10:51Z</time>
      </trkpt>
      <trkpt lat="45.88848" lon="4.74211">
        <ele>187</ele>
        <time>2018-08-16T11:10:52Z</time>
      </trkpt>
      <trkpt lat="45.88853" lon="4.74214">
        <ele>187</ele>
        <time>2018-08-16T11:10:53Z</time>
      </trkpt>
      <trkpt lat="45.88858" lon="4.74216">
        <ele>187</ele>
        <time>2018-08-16T11:10:54Z</time>
      </trkpt>
      <trkpt lat="45.88863" lon="4.74219">
        <ele>187</ele>
        <time>2018-08-16T11:10:55Z</time>
      </trkpt>
      <trkpt lat="45.88868" lon="4.74222">
        <ele>187</ele>
        <time>2018-08-16T11:10:56Z</time>
      </trkpt>
      <trkpt lat="45.88872" lon="4.74227">
        <ele>187</ele>
        <time>2018-08-16T11:10:57Z</time>
      </trkpt>
      <trkpt lat="45.88877" lon="4.74232">
        <ele>187</ele>
        <time>2018-08-16T11:10:58Z</time>
      </trkpt>
      <trkpt lat="45.88885" lon="4.74236">
        <ele>187</ele>
        <time>2018-08-16T11:11:00Z</time>
      </trkpt>
      <trkpt lat="45.88888" lon="4.74239">
        <ele>187</ele>
        <time>2018-08-16T11:11:01Z</time>
      </trkpt>
      <trkpt lat="45.88892" lon="4.74242">
        <ele>187</ele>
        <time>2018-08-16T11:11:02Z</time>
      </trkpt>
      <trkpt lat="45.88896" lon="4.74244">
        <ele>187</ele>
        <time>2018-08-16T11:11:03Z</time>
      </trkpt>
      <trkpt lat="45.889" lon="4.74248">
        <ele>187</ele>
        <time>2018-08-16T11:11:04Z</time>
      </trkpt>
      <trkpt lat="45.88905" lon="4.74252">
        <ele>187</ele>
        <time>2018-08-16T11:11:05Z</time>
      </trkpt>
      <trkpt lat="45.88909" lon="4.74255">
        <ele>187</ele>
        <time>2018-08-16T11:11:06Z</time>
      </trkpt>
      <trkpt lat="45.88914" lon="4.7426">
        <ele>187</ele>
        <time>2018-08-16T11:11:07Z</time>
      </trkpt>
      <trkpt lat="45.88918" lon="4.74264">
        <ele>187</ele>
        <time>2018-08-16T11:11:08Z</time>
      </trkpt>
      <trkpt lat="45.88922" lon="4.74269">
        <ele>187</ele>
        <time>2018-08-16T11:11:09Z</time>
      </trkpt>
      <trkpt lat="45.8893" lon="4.74273">
        <ele>187</ele>
        <time>2018-08-16T11:11:11Z</time>
      </trkpt>
      <trkpt lat="45.88933" lon="4.74275">
        <ele>187</ele>
        <time>2018-08-16T11:11:12Z</time>
      </trkpt>
      <trkpt lat="45.88937" lon="4.74277">
        <ele>187</ele>
        <time>2018-08-16T11:11:13Z</time>
      </trkpt>
      <trkpt lat="45.88942" lon="4.74276">
        <ele>187</ele>
        <time>2018-08-16T11:11:14Z</time>
      </trkpt>
      <trkpt lat="45.88946" lon="4.74278">
        <ele>187</ele>
        <time>2018-08-16T11:11:15Z</time>
      </trkpt>
      <trkpt lat="45.88951" lon="4.7428">
        <ele>187</ele>
        <time>2018-08-16T11:11:16Z</time>
      </trkpt>
      <trkpt lat="45.88956" lon="4.7428">
        <ele>187</ele>
        <time>2018-08-16T11:11:17Z</time>
      </trkpt>
      <trkpt lat="45.8896" lon="4.74279">
        <ele>187</ele>
        <time>2018-08-16T11:11:18Z</time>
      </trkpt>
      <trkpt lat="45.88968" lon="4.74283">
        <ele>187</ele>
        <time>2018-08-16T11:11:22Z</time>
      </trkpt>
      <trkpt lat="45.88975" lon="4.74289">
        <ele>187</ele>
        <time>2018-08-16T11:11:23Z</time>
      </trkpt>
      <trkpt lat="45.8898" lon="4.74291">
        <ele>187</ele>
        <time>2018-08-16T11:11:24Z</time>
      </trkpt>
      <trkpt lat="45.88985" lon="4.7429">
        <ele>187</ele>
        <time>2018-08-16T11:11:25Z</time>
      </trkpt>
      <trkpt lat="45.88993" lon="4.74288">
        <ele>187</ele>
        <time>2018-08-16T11:11:27Z</time>
      </trkpt>
      <trkpt lat="45.88999" lon="4.74288">
        <ele>187</ele>
        <time>2018-08-16T11:11:28Z</time>
      </trkpt>
      <trkpt lat="45.89004" lon="4.74285">
        <ele>187</ele>
        <time>2018-08-16T11:11:29Z</time>
      </trkpt>
      <trkpt lat="45.89008" lon="4.74283">
        <ele>187</ele>
        <time>2018-08-16T11:11:30Z</time>
      </trkpt>
      <trkpt lat="45.89014" lon="4.74279">
        <ele>187</ele>
        <time>2018-08-16T11:11:31Z</time>
      </trkpt>
      <trkpt lat="45.89018" lon="4.7428">
        <ele>187</ele>
        <time>2018-08-16T11:11:32Z</time>
      </trkpt>
      <trkpt lat="45.89023" lon="4.74279">
        <ele>187</ele>
        <time>2018-08-16T11:11:33Z</time>
      </trkpt>
      <trkpt lat="45.89027" lon="4.74281">
        <ele>187</ele>
        <time>2018-08-16T11:11:34Z</time>
      </trkpt>
      <trkpt lat="45.89032" lon="4.74283">
        <ele>187</ele>
        <time>2018-08-16T11:11:35Z</time>
      </trkpt>
      <trkpt lat="45.89036" lon="4.74283">
        <ele>187</ele>
        <time>2018-08-16T11:11:36Z</time>
      </trkpt>
      <trkpt lat="45.89041" lon="4.74281">
        <ele>187</ele>
        <time>2018-08-16T11:11:37Z</time>
      </trkpt>
      <trkpt lat="45.89045" lon="4.74279">
        <ele>187</ele>
        <time>2018-08-16T11:11:38Z</time>
      </trkpt>
      <trkpt lat="45.89051" lon="4.74275">
        <ele>187</ele>
        <time>2018-08-16T11:11:39Z</time>
      </trkpt>
      <trkpt lat="45.89056" lon="4.74271">
        <ele>187</ele>
        <time>2018-08-16T11:11:40Z</time>
      </trkpt>
      <trkpt lat="45.89061" lon="4.74271">
        <ele>187</ele>
        <time>2018-08-16T11:11:41Z</time>
      </trkpt>
      <trkpt lat="45.89068" lon="4.74267">
        <ele>186</ele>
        <time>2018-08-16T11:11:42Z</time>
      </trkpt>
      <trkpt lat="45.89075" lon="4.74264">
        <ele>186</ele>
        <time>2018-08-16T11:11:43Z</time>
      </trkpt>
      <trkpt lat="45.8908" lon="4.74262">
        <ele>186</ele>
        <time>2018-08-16T11:11:44Z</time>
      </trkpt>
      <trkpt lat="45.89085" lon="4.74261">
        <ele>186</ele>
        <time>2018-08-16T11:11:45Z</time>
      </trkpt>
      <trkpt lat="45.89091" lon="4.74258">
        <ele>186</ele>
        <time>2018-08-16T11:11:46Z</time>
      </trkpt>
      <trkpt lat="45.89096" lon="4.74256">
        <ele>186</ele>
        <time>2018-08-16T11:11:47Z</time>
      </trkpt>
      <trkpt lat="45.89101" lon="4.74254">
        <ele>187</ele>
        <time>2018-08-16T11:11:48Z</time>
      </trkpt>
      <trkpt lat="45.89107" lon="4.74253">
        <ele>187</ele>
        <time>2018-08-16T11:11:49Z</time>
      </trkpt>
      <trkpt lat="45.89112" lon="4.74252">
        <ele>187</ele>
        <time>2018-08-16T11:11:50Z</time>
      </trkpt>
      <trkpt lat="45.89118" lon="4.74249">
        <ele>186</ele>
        <time>2018-08-16T11:11:51Z</time>
      </trkpt>
      <trkpt lat="45.89125" lon="4.74248">
        <ele>186</ele>
        <time>2018-08-16T11:11:52Z</time>
      </trkpt>
      <trkpt lat="45.89131" lon="4.74246">
        <ele>186</ele>
        <time>2018-08-16T11:11:53Z</time>
      </trkpt>
      <trkpt lat="45.89137" lon="4.74245">
        <ele>186</ele>
        <time>2018-08-16T11:11:54Z</time>
      </trkpt>
      <trkpt lat="45.8914" lon="4.74245">
        <ele>186</ele>
        <time>2018-08-16T11:11:55Z</time>
      </trkpt>
      <trkpt lat="45.89146" lon="4.74244">
        <ele>186</ele>
        <time>2018-08-16T11:11:56Z</time>
      </trkpt>
      <trkpt lat="45.89152" lon="4.7424">
        <ele>186</ele>
        <time>2018-08-16T11:11:57Z</time>
      </trkpt>
      <trkpt lat="45.89156" lon="4.74239">
        <ele>186</ele>
        <time>2018-08-16T11:11:58Z</time>
      </trkpt>
      <trkpt lat="45.89162" lon="4.74234">
        <ele>186</ele>
        <time>2018-08-16T11:11:59Z</time>
      </trkpt>
      <trkpt lat="45.89169" lon="4.74231">
        <ele>186</ele>
        <time>2018-08-16T11:12:00Z</time>
      </trkpt>
      <trkpt lat="45.89174" lon="4.74228">
        <ele>186</ele>
        <time>2018-08-16T11:12:01Z</time>
      </trkpt>
      <trkpt lat="45.89181" lon="4.74226">
        <ele>186</ele>
        <time>2018-08-16T11:12:02Z</time>
      </trkpt>
      <trkpt lat="45.89188" lon="4.74221">
        <ele>186</ele>
        <time>2018-08-16T11:12:03Z</time>
      </trkpt>
      <trkpt lat="45.89195" lon="4.74218">
        <ele>186</ele>
        <time>2018-08-16T11:12:04Z</time>
      </trkpt>
      <trkpt lat="45.89201" lon="4.74216">
        <ele>186</ele>
        <time>2018-08-16T11:12:05Z</time>
      </trkpt>
      <trkpt lat="45.89207" lon="4.74213">
        <ele>186</ele>
        <time>2018-08-16T11:12:06Z</time>
      </trkpt>
      <trkpt lat="45.89213" lon="4.74211">
        <ele>186</ele>
        <time>2018-08-16T11:12:07Z</time>
      </trkpt>
      <trkpt lat="45.8922" lon="4.74207">
        <ele>186</ele>
        <time>2018-08-16T11:12:08Z</time>
      </trkpt>
      <trkpt lat="45.89226" lon="4.74205">
        <ele>186</ele>
        <time>2018-08-16T11:12:09Z</time>
      </trkpt>
      <trkpt lat="45.89232" lon="4.74203">
        <ele>186</ele>
        <time>2018-08-16T11:12:10Z</time>
      </trkpt>
      <trkpt lat="45.89238" lon="4.74201">
        <ele>186</ele>
        <time>2018-08-16T11:12:11Z</time>
      </trkpt>
      <trkpt lat="45.89244" lon="4.74201">
        <ele>186</ele>
        <time>2018-08-16T11:12:12Z</time>
      </trkpt>
      <trkpt lat="45.8925" lon="4.74198">
        <ele>186</ele>
        <time>2018-08-16T11:12:13Z</time>
      </trkpt>
      <trkpt lat="45.89257" lon="4.74195">
        <ele>186</ele>
        <time>2018-08-16T11:12:14Z</time>
      </trkpt>
      <trkpt lat="45.89263" lon="4.74193">
        <ele>186</ele>
        <time>2018-08-16T11:12:15Z</time>
      </trkpt>
      <trkpt lat="45.89269" lon="4.74191">
        <ele>186</ele>
        <time>2018-08-16T11:12:16Z</time>
      </trkpt>
      <trkpt lat="45.89276" lon="4.74188">
        <ele>186</ele>
        <time>2018-08-16T11:12:17Z</time>
      </trkpt>
      <trkpt lat="45.89282" lon="4.74186">
        <ele>186</ele>
        <time>2018-08-16T11:12:18Z</time>
      </trkpt>
      <trkpt lat="45.89288" lon="4.74183">
        <ele>186</ele>
        <time>2018-08-16T11:12:19Z</time>
      </trkpt>
      <trkpt lat="45.89294" lon="4.74181">
        <ele>186</ele>
        <time>2018-08-16T11:12:20Z</time>
      </trkpt>
      <trkpt lat="45.893" lon="4.74178">
        <ele>186</ele>
        <time>2018-08-16T11:12:21Z</time>
      </trkpt>
      <trkpt lat="45.89306" lon="4.74175">
        <ele>186</ele>
        <time>2018-08-16T11:12:22Z</time>
      </trkpt>
      <trkpt lat="45.89314" lon="4.74173">
        <ele>186</ele>
        <time>2018-08-16T11:12:23Z</time>
      </trkpt>
      <trkpt lat="45.8932" lon="4.7417">
        <ele>186</ele>
        <time>2018-08-16T11:12:24Z</time>
      </trkpt>
      <trkpt lat="45.89326" lon="4.74168">
        <ele>186</ele>
        <time>2018-08-16T11:12:25Z</time>
      </trkpt>
      <trkpt lat="45.89332" lon="4.74163">
        <ele>186</ele>
        <time>2018-08-16T11:12:26Z</time>
      </trkpt>
      <trkpt lat="45.89338" lon="4.7416">
        <ele>185</ele>
        <time>2018-08-16T11:12:27Z</time>
      </trkpt>
      <trkpt lat="45.89344" lon="4.74157">
        <ele>185</ele>
        <time>2018-08-16T11:12:28Z</time>
      </trkpt>
      <trkpt lat="45.89349" lon="4.74155">
        <ele>185</ele>
        <time>2018-08-16T11:12:29Z</time>
      </trkpt>
      <trkpt lat="45.89356" lon="4.74149">
        <ele>185</ele>
        <time>2018-08-16T11:12:30Z</time>
      </trkpt>
      <trkpt lat="45.89363" lon="4.74145">
        <ele>184</ele>
        <time>2018-08-16T11:12:31Z</time>
      </trkpt>
      <trkpt lat="45.89368" lon="4.74143">
        <ele>184</ele>
        <time>2018-08-16T11:12:32Z</time>
      </trkpt>
      <trkpt lat="45.89374" lon="4.74142">
        <ele>184</ele>
        <time>2018-08-16T11:12:33Z</time>
      </trkpt>
      <trkpt lat="45.8938" lon="4.7414">
        <ele>184</ele>
        <time>2018-08-16T11:12:34Z</time>
      </trkpt>
      <trkpt lat="45.89387" lon="4.74137">
        <ele>184</ele>
        <time>2018-08-16T11:12:35Z</time>
      </trkpt>
      <trkpt lat="45.89392" lon="4.74134">
        <ele>184</ele>
        <time>2018-08-16T11:12:36Z</time>
      </trkpt>
      <trkpt lat="45.89398" lon="4.74133">
        <ele>184</ele>
        <time>2018-08-16T11:12:37Z</time>
      </trkpt>
      <trkpt lat="45.89404" lon="4.7413">
        <ele>184</ele>
        <time>2018-08-16T11:12:38Z</time>
      </trkpt>
      <trkpt lat="45.8941" lon="4.74127">
        <ele>184</ele>
        <time>2018-08-16T11:12:39Z</time>
      </trkpt>
      <trkpt lat="45.89417" lon="4.74125">
        <ele>184</ele>
        <time>2018-08-16T11:12:40Z</time>
      </trkpt>
      <trkpt lat="45.89422" lon="4.74123">
        <ele>183</ele>
        <time>2018-08-16T11:12:41Z</time>
      </trkpt>
      <trkpt lat="45.89428" lon="4.74122">
        <ele>183</ele>
        <time>2018-08-16T11:12:42Z</time>
      </trkpt>
      <trkpt lat="45.89434" lon="4.7412">
        <ele>183</ele>
        <time>2018-08-16T11:12:43Z</time>
      </trkpt>
      <trkpt lat="45.89439" lon="4.74117">
        <ele>183</ele>
        <time>2018-08-16T11:12:44Z</time>
      </trkpt>
      <trkpt lat="45.89445" lon="4.74114">
        <ele>183</ele>
        <time>2018-08-16T11:12:45Z</time>
      </trkpt>
      <trkpt lat="45.89452" lon="4.74111">
        <ele>183</ele>
        <time>2018-08-16T11:12:46Z</time>
      </trkpt>
      <trkpt lat="45.89458" lon="4.74105">
        <ele>182</ele>
        <time>2018-08-16T11:12:47Z</time>
      </trkpt>
      <trkpt lat="45.89464" lon="4.74102">
        <ele>182</ele>
        <time>2018-08-16T11:12:48Z</time>
      </trkpt>
      <trkpt lat="45.8947" lon="4.74099">
        <ele>182</ele>
        <time>2018-08-16T11:12:49Z</time>
      </trkpt>
      <trkpt lat="45.89477" lon="4.74097">
        <ele>182</ele>
        <time>2018-08-16T11:12:50Z</time>
      </trkpt>
      <trkpt lat="45.89483" lon="4.74095">
        <ele>182</ele>
        <time>2018-08-16T11:12:51Z</time>
      </trkpt>
      <trkpt lat="45.8949" lon="4.74092">
        <ele>182</ele>
        <time>2018-08-16T11:12:52Z</time>
      </trkpt>
      <trkpt lat="45.89497" lon="4.74088">
        <ele>181</ele>
        <time>2018-08-16T11:12:53Z</time>
      </trkpt>
      <trkpt lat="45.89503" lon="4.74085">
        <ele>181</ele>
        <time>2018-08-16T11:12:54Z</time>
      </trkpt>
      <trkpt lat="45.89509" lon="4.74084">
        <ele>181</ele>
        <time>2018-08-16T11:12:55Z</time>
      </trkpt>
      <trkpt lat="45.89516" lon="4.7408">
        <ele>181</ele>
        <time>2018-08-16T11:12:56Z</time>
      </trkpt>
      <trkpt lat="45.89522" lon="4.74078">
        <ele>181</ele>
        <time>2018-08-16T11:12:57Z</time>
      </trkpt>
      <trkpt lat="45.89528" lon="4.74076">
        <ele>181</ele>
        <time>2018-08-16T11:12:58Z</time>
      </trkpt>
      <trkpt lat="45.89534" lon="4.74074">
        <ele>181</ele>
        <time>2018-08-16T11:12:59Z</time>
      </trkpt>
      <trkpt lat="45.89539" lon="4.74071">
        <ele>181</ele>
        <time>2018-08-16T11:13:00Z</time>
      </trkpt>
      <trkpt lat="45.89545" lon="4.74069">
        <ele>181</ele>
        <time>2018-08-16T11:13:01Z</time>
      </trkpt>
      <trkpt lat="45.89551" lon="4.74066">
        <ele>181</ele>
        <time>2018-08-16T11:13:02Z</time>
      </trkpt>
      <trkpt lat="45.89557" lon="4.74063">
        <ele>181</ele>
        <time>2018-08-16T11:13:03Z</time>
      </trkpt>
      <trkpt lat="45.89564" lon="4.74061">
        <ele>181</ele>
        <time>2018-08-16T11:13:04Z</time>
      </trkpt>
      <trkpt lat="45.89571" lon="4.74059">
        <ele>181</ele>
        <time>2018-08-16T11:13:05Z</time>
      </trkpt>
      <trkpt lat="45.89577" lon="4.74054">
        <ele>181</ele>
        <time>2018-08-16T11:13:06Z</time>
      </trkpt>
      <trkpt lat="45.89583" lon="4.74051">
        <ele>181</ele>
        <time>2018-08-16T11:13:07Z</time>
      </trkpt>
      <trkpt lat="45.89589" lon="4.74049">
        <ele>180</ele>
        <time>2018-08-16T11:13:08Z</time>
      </trkpt>
      <trkpt lat="45.89596" lon="4.74045">
        <ele>180</ele>
        <time>2018-08-16T11:13:09Z</time>
      </trkpt>
      <trkpt lat="45.89601" lon="4.74044">
        <ele>180</ele>
        <time>2018-08-16T11:13:10Z</time>
      </trkpt>
      <trkpt lat="45.89606" lon="4.74042">
        <ele>180</ele>
        <time>2018-08-16T11:13:11Z</time>
      </trkpt>
      <trkpt lat="45.89612" lon="4.74039">
        <ele>180</ele>
        <time>2018-08-16T11:13:12Z</time>
      </trkpt>
      <trkpt lat="45.89619" lon="4.74036">
        <ele>180</ele>
        <time>2018-08-16T11:13:13Z</time>
      </trkpt>
      <trkpt lat="45.89625" lon="4.74037">
        <ele>180</ele>
        <time>2018-08-16T11:13:14Z</time>
      </trkpt>
      <trkpt lat="45.89631" lon="4.74035">
        <ele>180</ele>
        <time>2018-08-16T11:13:15Z</time>
      </trkpt>
      <trkpt lat="45.89637" lon="4.74032">
        <ele>180</ele>
        <time>2018-08-16T11:13:16Z</time>
      </trkpt>
      <trkpt lat="45.89644" lon="4.74028">
        <ele>180</ele>
        <time>2018-08-16T11:13:17Z</time>
      </trkpt>
      <trkpt lat="45.89651" lon="4.74025">
        <ele>180</ele>
        <time>2018-08-16T11:13:18Z</time>
      </trkpt>
      <trkpt lat="45.89657" lon="4.74023">
        <ele>180</ele>
        <time>2018-08-16T11:13:19Z</time>
      </trkpt>
      <trkpt lat="45.89663" lon="4.7402">
        <ele>180</ele>
        <time>2018-08-16T11:13:20Z</time>
      </trkpt>
      <trkpt lat="45.89669" lon="4.74017">
        <ele>179</ele>
        <time>2018-08-16T11:13:21Z</time>
      </trkpt>
      <trkpt lat="45.89675" lon="4.74012">
        <ele>179</ele>
        <time>2018-08-16T11:13:22Z</time>
      </trkpt>
      <trkpt lat="45.89682" lon="4.74009">
        <ele>179</ele>
        <time>2018-08-16T11:13:23Z</time>
      </trkpt>
      <trkpt lat="45.89688" lon="4.74008">
        <ele>179</ele>
        <time>2018-08-16T11:13:24Z</time>
      </trkpt>
      <trkpt lat="45.89694" lon="4.74006">
        <ele>179</ele>
        <time>2018-08-16T11:13:25Z</time>
      </trkpt>
      <trkpt lat="45.89699" lon="4.74004">
        <ele>179</ele>
        <time>2018-08-16T11:13:26Z</time>
      </trkpt>
      <trkpt lat="45.89706" lon="4.73998">
        <ele>178</ele>
        <time>2018-08-16T11:13:27Z</time>
      </trkpt>
      <trkpt lat="45.89712" lon="4.73996">
        <ele>178</ele>
        <time>2018-08-16T11:13:28Z</time>
      </trkpt>
      <trkpt lat="45.89717" lon="4.73995">
        <ele>178</ele>
        <time>2018-08-16T11:13:29Z</time>
      </trkpt>
      <trkpt lat="45.89723" lon="4.73992">
        <ele>178</ele>
        <time>2018-08-16T11:13:30Z</time>
      </trkpt>
      <trkpt lat="45.89729" lon="4.7399">
        <ele>178</ele>
        <time>2018-08-16T11:13:31Z</time>
      </trkpt>
      <trkpt lat="45.89735" lon="4.73987">
        <ele>178</ele>
        <time>2018-08-16T11:13:32Z</time>
      </trkpt>
      <trkpt lat="45.8974" lon="4.73984">
        <ele>178</ele>
        <time>2018-08-16T11:13:33Z</time>
      </trkpt>
      <trkpt lat="45.89746" lon="4.73981">
        <ele>178</ele>
        <time>2018-08-16T11:13:34Z</time>
      </trkpt>
      <trkpt lat="45.89752" lon="4.73978">
        <ele>178</ele>
        <time>2018-08-16T11:13:35Z</time>
      </trkpt>
      <trkpt lat="45.89758" lon="4.73976">
        <ele>178</ele>
        <time>2018-08-16T11:13:36Z</time>
      </trkpt>
      <trkpt lat="45.89764" lon="4.73972">
        <ele>178</ele>
        <time>2018-08-16T11:13:37Z</time>
      </trkpt>
      <trkpt lat="45.8977" lon="4.7397">
        <ele>179</ele>
        <time>2018-08-16T11:13:38Z</time>
      </trkpt>
      <trkpt lat="45.89774" lon="4.73967">
        <ele>179</ele>
        <time>2018-08-16T11:13:39Z</time>
      </trkpt>
      <trkpt lat="45.89781" lon="4.73963">
        <ele>179</ele>
        <time>2018-08-16T11:13:40Z</time>
      </trkpt>
      <trkpt lat="45.89788" lon="4.73959">
        <ele>179</ele>
        <time>2018-08-16T11:13:41Z</time>
      </trkpt>
      <trkpt lat="45.89794" lon="4.7396">
        <ele>179</ele>
        <time>2018-08-16T11:13:42Z</time>
      </trkpt>
      <trkpt lat="45.898" lon="4.73957">
        <ele>179</ele>
        <time>2018-08-16T11:13:43Z</time>
      </trkpt>
      <trkpt lat="45.89806" lon="4.73953">
        <ele>179</ele>
        <time>2018-08-16T11:13:44Z</time>
      </trkpt>
      <trkpt lat="45.89813" lon="4.7395">
        <ele>179</ele>
        <time>2018-08-16T11:13:45Z</time>
      </trkpt>
      <trkpt lat="45.89819" lon="4.73947">
        <ele>179</ele>
        <time>2018-08-16T11:13:46Z</time>
      </trkpt>
      <trkpt lat="45.89826" lon="4.73944">
        <ele>179</ele>
        <time>2018-08-16T11:13:47Z</time>
      </trkpt>
      <trkpt lat="45.89833" lon="4.73942">
        <ele>179</ele>
        <time>2018-08-16T11:13:48Z</time>
      </trkpt>
      <trkpt lat="45.8984" lon="4.73938">
        <ele>179</ele>
        <time>2018-08-16T11:13:49Z</time>
      </trkpt>
      <trkpt lat="45.89846" lon="4.73936">
        <ele>179</ele>
        <time>2018-08-16T11:13:50Z</time>
      </trkpt>
      <trkpt lat="45.89852" lon="4.73934">
        <ele>179</ele>
        <time>2018-08-16T11:13:51Z</time>
      </trkpt>
      <trkpt lat="45.89858" lon="4.73931">
        <ele>179</ele>
        <time>2018-08-16T11:13:52Z</time>
      </trkpt>
      <trkpt lat="45.89865" lon="4.73929">
        <ele>179</ele>
        <time>2018-08-16T11:13:53Z</time>
      </trkpt>
      <trkpt lat="45.8987" lon="4.73926">
        <ele>179</ele>
        <time>2018-08-16T11:13:54Z</time>
      </trkpt>
      <trkpt lat="45.89878" lon="4.73922">
        <ele>179</ele>
        <time>2018-08-16T11:13:55Z</time>
      </trkpt>
      <trkpt lat="45.89885" lon="4.73919">
        <ele>179</ele>
        <time>2018-08-16T11:13:56Z</time>
      </trkpt>
      <trkpt lat="45.89891" lon="4.73918">
        <ele>178</ele>
        <time>2018-08-16T11:13:57Z</time>
      </trkpt>
      <trkpt lat="45.89897" lon="4.73915">
        <ele>178</ele>
        <time>2018-08-16T11:13:58Z</time>
      </trkpt>
      <trkpt lat="45.89903" lon="4.73915">
        <ele>178</ele>
        <time>2018-08-16T11:13:59Z</time>
      </trkpt>
      <trkpt lat="45.89909" lon="4.73913">
        <ele>178</ele>
        <time>2018-08-16T11:14:00Z</time>
      </trkpt>
      <trkpt lat="45.89917" lon="4.73909">
        <ele>178</ele>
        <time>2018-08-16T11:14:01Z</time>
      </trkpt>
      <trkpt lat="45.89921" lon="4.73912">
        <ele>178</ele>
        <time>2018-08-16T11:14:02Z</time>
      </trkpt>
      <trkpt lat="45.89928" lon="4.73906">
        <ele>178</ele>
        <time>2018-08-16T11:14:03Z</time>
      </trkpt>
      <trkpt lat="45.89935" lon="4.73895">
        <ele>178</ele>
        <time>2018-08-16T11:14:04Z</time>
      </trkpt>
      <trkpt lat="45.8994" lon="4.73895">
        <ele>178</ele>
        <time>2018-08-16T11:14:05Z</time>
      </trkpt>
      <trkpt lat="45.89944" lon="4.73893">
        <ele>178</ele>
        <time>2018-08-16T11:14:06Z</time>
      </trkpt>
      <trkpt lat="45.8995" lon="4.7389">
        <ele>178</ele>
        <time>2018-08-16T11:14:07Z</time>
      </trkpt>
      <trkpt lat="45.89956" lon="4.73888">
        <ele>178</ele>
        <time>2018-08-16T11:14:08Z</time>
      </trkpt>
      <trkpt lat="45.89961" lon="4.73886">
        <ele>178</ele>
        <time>2018-08-16T11:14:09Z</time>
      </trkpt>
      <trkpt lat="45.89966" lon="4.73885">
        <ele>178</ele>
        <time>2018-08-16T11:14:10Z</time>
      </trkpt>
      <trkpt lat="45.89971" lon="4.73883">
        <ele>178</ele>
        <time>2018-08-16T11:14:11Z</time>
      </trkpt>
      <trkpt lat="45.89976" lon="4.73882">
        <ele>178</ele>
        <time>2018-08-16T11:14:12Z</time>
      </trkpt>
      <trkpt lat="45.8998" lon="4.73879">
        <ele>178</ele>
        <time>2018-08-16T11:14:13Z</time>
      </trkpt>
      <trkpt lat="45.89986" lon="4.73877">
        <ele>178</ele>
        <time>2018-08-16T11:14:14Z</time>
      </trkpt>
      <trkpt lat="45.89991" lon="4.73876">
        <ele>178</ele>
        <time>2018-08-16T11:14:15Z</time>
      </trkpt>
      <trkpt lat="45.89997" lon="4.73875">
        <ele>178</ele>
        <time>2018-08-16T11:14:16Z</time>
      </trkpt>
      <trkpt lat="45.90003" lon="4.73871">
        <ele>178</ele>
        <time>2018-08-16T11:14:17Z</time>
      </trkpt>
      <trkpt lat="45.90008" lon="4.73868">
        <ele>178</ele>
        <time>2018-08-16T11:14:18Z</time>
      </trkpt>
      <trkpt lat="45.90013" lon="4.73865">
        <ele>178</ele>
        <time>2018-08-16T11:14:19Z</time>
      </trkpt>
      <trkpt lat="45.9002" lon="4.73866">
        <ele>178</ele>
        <time>2018-08-16T11:14:20Z</time>
      </trkpt>
      <trkpt lat="45.90026" lon="4.73862">
        <ele>178</ele>
        <time>2018-08-16T11:14:21Z</time>
      </trkpt>
      <trkpt lat="45.9003" lon="4.73861">
        <ele>178</ele>
        <time>2018-08-16T11:14:22Z</time>
      </trkpt>
      <trkpt lat="45.90036" lon="4.73858">
        <ele>178</ele>
        <time>2018-08-16T11:14:23Z</time>
      </trkpt>
      <trkpt lat="45.90042" lon="4.73855">
        <ele>178</ele>
        <time>2018-08-16T11:14:24Z</time>
      </trkpt>
      <trkpt lat="45.90048" lon="4.73853">
        <ele>178</ele>
        <time>2018-08-16T11:14:25Z</time>
      </trkpt>
      <trkpt lat="45.90053" lon="4.73851">
        <ele>178</ele>
        <time>2018-08-16T11:14:26Z</time>
      </trkpt>
      <trkpt lat="45.90058" lon="4.73848">
        <ele>178</ele>
        <time>2018-08-16T11:14:27Z</time>
      </trkpt>
      <trkpt lat="45.90063" lon="4.73846">
        <ele>178</ele>
        <time>2018-08-16T11:14:28Z</time>
      </trkpt>
      <trkpt lat="45.90067" lon="4.73844">
        <ele>178</ele>
        <time>2018-08-16T11:14:29Z</time>
      </trkpt>
      <trkpt lat="45.90073" lon="4.73842">
        <ele>178</ele>
        <time>2018-08-16T11:14:30Z</time>
      </trkpt>
      <trkpt lat="45.90078" lon="4.73835">
        <ele>178</ele>
        <time>2018-08-16T11:14:31Z</time>
      </trkpt>
      <trkpt lat="45.90084" lon="4.73834">
        <ele>178</ele>
        <time>2018-08-16T11:14:32Z</time>
      </trkpt>
      <trkpt lat="45.9009" lon="4.73833">
        <ele>178</ele>
        <time>2018-08-16T11:14:33Z</time>
      </trkpt>
      <trkpt lat="45.90095" lon="4.73832">
        <ele>178</ele>
        <time>2018-08-16T11:14:34Z</time>
      </trkpt>
      <trkpt lat="45.90102" lon="4.73825">
        <ele>177</ele>
        <time>2018-08-16T11:14:35Z</time>
      </trkpt>
      <trkpt lat="45.90107" lon="4.73823">
        <ele>177</ele>
        <time>2018-08-16T11:14:36Z</time>
      </trkpt>
      <trkpt lat="45.90113" lon="4.73821">
        <ele>177</ele>
        <time>2018-08-16T11:14:37Z</time>
      </trkpt>
      <trkpt lat="45.90118" lon="4.7382">
        <ele>177</ele>
        <time>2018-08-16T11:14:38Z</time>
      </trkpt>
      <trkpt lat="45.90123" lon="4.73817">
        <ele>177</ele>
        <time>2018-08-16T11:14:39Z</time>
      </trkpt>
      <trkpt lat="45.90128" lon="4.73816">
        <ele>177</ele>
        <time>2018-08-16T11:14:40Z</time>
      </trkpt>
      <trkpt lat="45.90134" lon="4.73813">
        <ele>177</ele>
        <time>2018-08-16T11:14:41Z</time>
      </trkpt>
      <trkpt lat="45.90139" lon="4.73811">
        <ele>177</ele>
        <time>2018-08-16T11:14:42Z</time>
      </trkpt>
      <trkpt lat="45.90143" lon="4.7381">
        <ele>177</ele>
        <time>2018-08-16T11:14:43Z</time>
      </trkpt>
      <trkpt lat="45.9015" lon="4.73803">
        <ele>177</ele>
        <time>2018-08-16T11:14:44Z</time>
      </trkpt>
      <trkpt lat="45.90154" lon="4.738">
        <ele>177</ele>
        <time>2018-08-16T11:14:45Z</time>
      </trkpt>
      <trkpt lat="45.90159" lon="4.73799">
        <ele>176</ele>
        <time>2018-08-16T11:14:46Z</time>
      </trkpt>
      <trkpt lat="45.90165" lon="4.73799">
        <ele>176</ele>
        <time>2018-08-16T11:14:47Z</time>
      </trkpt>
      <trkpt lat="45.9017" lon="4.73797">
        <ele>177</ele>
        <time>2018-08-16T11:14:48Z</time>
      </trkpt>
      <trkpt lat="45.90176" lon="4.73796">
        <ele>177</ele>
        <time>2018-08-16T11:14:49Z</time>
      </trkpt>
      <trkpt lat="45.9018" lon="4.73794">
        <ele>177</ele>
        <time>2018-08-16T11:14:50Z</time>
      </trkpt>
      <trkpt lat="45.90186" lon="4.73792">
        <ele>177</ele>
        <time>2018-08-16T11:14:51Z</time>
      </trkpt>
      <trkpt lat="45.9019" lon="4.73787">
        <ele>177</ele>
        <time>2018-08-16T11:14:52Z</time>
      </trkpt>
      <trkpt lat="45.90195" lon="4.73785">
        <ele>177</ele>
        <time>2018-08-16T11:14:53Z</time>
      </trkpt>
      <trkpt lat="45.902" lon="4.73783">
        <ele>177</ele>
        <time>2018-08-16T11:14:54Z</time>
      </trkpt>
      <trkpt lat="45.90205" lon="4.73781">
        <ele>177</ele>
        <time>2018-08-16T11:14:55Z</time>
      </trkpt>
      <trkpt lat="45.9021" lon="4.73782">
        <ele>177</ele>
        <time>2018-08-16T11:14:56Z</time>
      </trkpt>
      <trkpt lat="45.90214" lon="4.7378">
        <ele>177</ele>
        <time>2018-08-16T11:14:57Z</time>
      </trkpt>
      <trkpt lat="45.9022" lon="4.73778">
        <ele>177</ele>
        <time>2018-08-16T11:14:58Z</time>
      </trkpt>
      <trkpt lat="45.90225" lon="4.73776">
        <ele>177</ele>
        <time>2018-08-16T11:14:59Z</time>
      </trkpt>
      <trkpt lat="45.9023" lon="4.73776">
        <ele>177</ele>
        <time>2018-08-16T11:15:00Z</time>
      </trkpt>
      <trkpt lat="45.90236" lon="4.73774">
        <ele>177</ele>
        <time>2018-08-16T11:15:01Z</time>
      </trkpt>
      <trkpt lat="45.90242" lon="4.73771">
        <ele>177</ele>
        <time>2018-08-16T11:15:02Z</time>
      </trkpt>
      <trkpt lat="45.90248" lon="4.73768">
        <ele>178</ele>
        <time>2018-08-16T11:15:03Z</time>
      </trkpt>
      <trkpt lat="45.90253" lon="4.73766">
        <ele>177</ele>
        <time>2018-08-16T11:15:04Z</time>
      </trkpt>
      <trkpt lat="45.90259" lon="4.73763">
        <ele>177</ele>
        <time>2018-08-16T11:15:05Z</time>
      </trkpt>
      <trkpt lat="45.90265" lon="4.7376">
        <ele>177</ele>
        <time>2018-08-16T11:15:06Z</time>
      </trkpt>
      <trkpt lat="45.9027" lon="4.73758">
        <ele>177</ele>
        <time>2018-08-16T11:15:07Z</time>
      </trkpt>
      <trkpt lat="45.90275" lon="4.73755">
        <ele>177</ele>
        <time>2018-08-16T11:15:08Z</time>
      </trkpt>
      <trkpt lat="45.9028" lon="4.73753">
        <ele>177</ele>
        <time>2018-08-16T11:15:09Z</time>
      </trkpt>
      <trkpt lat="45.90285" lon="4.7375">
        <ele>177</ele>
        <time>2018-08-16T11:15:10Z</time>
      </trkpt>
      <trkpt lat="45.90291" lon="4.73748">
        <ele>177</ele>
        <time>2018-08-16T11:15:11Z</time>
      </trkpt>
      <trkpt lat="45.90295" lon="4.73749">
        <ele>177</ele>
        <time>2018-08-16T11:15:12Z</time>
      </trkpt>
      <trkpt lat="45.90302" lon="4.73745">
        <ele>177</ele>
        <time>2018-08-16T11:15:13Z</time>
      </trkpt>
      <trkpt lat="45.90307" lon="4.73743">
        <ele>177</ele>
        <time>2018-08-16T11:15:14Z</time>
      </trkpt>
      <trkpt lat="45.90312" lon="4.73741">
        <ele>177</ele>
        <time>2018-08-16T11:15:15Z</time>
      </trkpt>
      <trkpt lat="45.90317" lon="4.73737">
        <ele>177</ele>
        <time>2018-08-16T11:15:16Z</time>
      </trkpt>
      <trkpt lat="45.90323" lon="4.73734">
        <ele>177</ele>
        <time>2018-08-16T11:15:17Z</time>
      </trkpt>
      <trkpt lat="45.90328" lon="4.73732">
        <ele>177</ele>
        <time>2018-08-16T11:15:18Z</time>
      </trkpt>
      <trkpt lat="45.90333" lon="4.73726">
        <ele>177</ele>
        <time>2018-08-16T11:15:19Z</time>
      </trkpt>
      <trkpt lat="45.90338" lon="4.73723">
        <ele>177</ele>
        <time>2018-08-16T11:15:20Z</time>
      </trkpt>
      <trkpt lat="45.90343" lon="4.73723">
        <ele>177</ele>
        <time>2018-08-16T11:15:21Z</time>
      </trkpt>
      <trkpt lat="45.90347" lon="4.73721">
        <ele>177</ele>
        <time>2018-08-16T11:15:22Z</time>
      </trkpt>
      <trkpt lat="45.90352" lon="4.73717">
        <ele>177</ele>
        <time>2018-08-16T11:15:23Z</time>
      </trkpt>
      <trkpt lat="45.90357" lon="4.73715">
        <ele>177</ele>
        <time>2018-08-16T11:15:24Z</time>
      </trkpt>
      <trkpt lat="45.90365" lon="4.73713">
        <ele>177</ele>
        <time>2018-08-16T11:15:26Z</time>
      </trkpt>
      <trkpt lat="45.9037" lon="4.73713">
        <ele>177</ele>
        <time>2018-08-16T11:15:27Z</time>
      </trkpt>
      <trkpt lat="45.90374" lon="4.73711">
        <ele>177</ele>
        <time>2018-08-16T11:15:28Z</time>
      </trkpt>
      <trkpt lat="45.90379" lon="4.73709">
        <ele>177</ele>
        <time>2018-08-16T11:15:29Z</time>
      </trkpt>
      <trkpt lat="45.90387" lon="4.73706">
        <ele>177</ele>
        <time>2018-08-16T11:15:31Z</time>
      </trkpt>
      <trkpt lat="45.90391" lon="4.73707">
        <ele>177</ele>
        <time>2018-08-16T11:15:32Z</time>
      </trkpt>
      <trkpt lat="45.90396" lon="4.73704">
        <ele>177</ele>
        <time>2018-08-16T11:15:33Z</time>
      </trkpt>
      <trkpt lat="45.904" lon="4.73701">
        <ele>177</ele>
        <time>2018-08-16T11:15:34Z</time>
      </trkpt>
      <trkpt lat="45.90404" lon="4.737">
        <ele>177</ele>
        <time>2018-08-16T11:15:35Z</time>
      </trkpt>
      <trkpt lat="45.90408" lon="4.73698">
        <ele>177</ele>
        <time>2018-08-16T11:15:36Z</time>
      </trkpt>
      <trkpt lat="45.90413" lon="4.73695">
        <ele>177</ele>
        <time>2018-08-16T11:15:37Z</time>
      </trkpt>
      <trkpt lat="45.90417" lon="4.73693">
        <ele>176</ele>
        <time>2018-08-16T11:15:38Z</time>
      </trkpt>
      <trkpt lat="45.90425" lon="4.73689">
        <ele>176</ele>
        <time>2018-08-16T11:15:40Z</time>
      </trkpt>
      <trkpt lat="45.90429" lon="4.73688">
        <ele>176</ele>
        <time>2018-08-16T11:15:41Z</time>
      </trkpt>
      <trkpt lat="45.90434" lon="4.73685">
        <ele>176</ele>
        <time>2018-08-16T11:15:42Z</time>
      </trkpt>
      <trkpt lat="45.90439" lon="4.73684">
        <ele>176</ele>
        <time>2018-08-16T11:15:43Z</time>
      </trkpt>
      <trkpt lat="45.90447" lon="4.7368">
        <ele>176</ele>
        <time>2018-08-16T11:15:45Z</time>
      </trkpt>
      <trkpt lat="45.90452" lon="4.73678">
        <ele>176</ele>
        <time>2018-08-16T11:15:46Z</time>
      </trkpt>
      <trkpt lat="45.90457" lon="4.73673">
        <ele>176</ele>
        <time>2018-08-16T11:15:47Z</time>
      </trkpt>
      <trkpt lat="45.90462" lon="4.73671">
        <ele>176</ele>
        <time>2018-08-16T11:15:48Z</time>
      </trkpt>
      <trkpt lat="45.90467" lon="4.73669">
        <ele>176</ele>
        <time>2018-08-16T11:15:49Z</time>
      </trkpt>
      <trkpt lat="45.90472" lon="4.73668">
        <ele>176</ele>
        <time>2018-08-16T11:15:50Z</time>
      </trkpt>
      <trkpt lat="45.90477" lon="4.73665">
        <ele>177</ele>
        <time>2018-08-16T11:15:51Z</time>
      </trkpt>
      <trkpt lat="45.90483" lon="4.73663">
        <ele>177</ele>
        <time>2018-08-16T11:15:52Z</time>
      </trkpt>
      <trkpt lat="45.90488" lon="4.73661">
        <ele>177</ele>
        <time>2018-08-16T11:15:53Z</time>
      </trkpt>
      <trkpt lat="45.90494" lon="4.73658">
        <ele>177</ele>
        <time>2018-08-16T11:15:54Z</time>
      </trkpt>
      <trkpt lat="45.90498" lon="4.73657">
        <ele>177</ele>
        <time>2018-08-16T11:15:55Z</time>
      </trkpt>
      <trkpt lat="45.90504" lon="4.73655">
        <ele>178</ele>
        <time>2018-08-16T11:15:56Z</time>
      </trkpt>
      <trkpt lat="45.90512" lon="4.73653">
        <ele>178</ele>
        <time>2018-08-16T11:15:58Z</time>
      </trkpt>
      <trkpt lat="45.90517" lon="4.73651">
        <ele>178</ele>
        <time>2018-08-16T11:15:59Z</time>
      </trkpt>
      <trkpt lat="45.90522" lon="4.7365">
        <ele>178</ele>
        <time>2018-08-16T11:16:00Z</time>
      </trkpt>
      <trkpt lat="45.90527" lon="4.73648">
        <ele>178</ele>
        <time>2018-08-16T11:16:01Z</time>
      </trkpt>
      <trkpt lat="45.90532" lon="4.73648">
        <ele>178</ele>
        <time>2018-08-16T11:16:02Z</time>
      </trkpt>
      <trkpt lat="45.90537" lon="4.73642">
        <ele>178</ele>
        <time>2018-08-16T11:16:03Z</time>
      </trkpt>
      <trkpt lat="45.90542" lon="4.73639">
        <ele>178</ele>
        <time>2018-08-16T11:16:04Z</time>
      </trkpt>
      <trkpt lat="45.90546" lon="4.73637">
        <ele>178</ele>
        <time>2018-08-16T11:16:05Z</time>
      </trkpt>
      <trkpt lat="45.90554" lon="4.73634">
        <ele>179</ele>
        <time>2018-08-16T11:16:07Z</time>
      </trkpt>
      <trkpt lat="45.90559" lon="4.73632">
        <ele>179</ele>
        <time>2018-08-16T11:16:08Z</time>
      </trkpt>
      <trkpt lat="45.90563" lon="4.73632">
        <ele>179</ele>
        <time>2018-08-16T11:16:09Z</time>
      </trkpt>
      <trkpt lat="45.90568" lon="4.7363">
        <ele>179</ele>
        <time>2018-08-16T11:16:10Z</time>
      </trkpt>
      <trkpt lat="45.90573" lon="4.73627">
        <ele>179</ele>
        <time>2018-08-16T11:16:11Z</time>
      </trkpt>
      <trkpt lat="45.90578" lon="4.73626">
        <ele>179</ele>
        <time>2018-08-16T11:16:12Z</time>
      </trkpt>
      <trkpt lat="45.90583" lon="4.73623">
        <ele>179</ele>
        <time>2018-08-16T11:16:13Z</time>
      </trkpt>
      <trkpt lat="45.90588" lon="4.73621">
        <ele>181</ele>
        <time>2018-08-16T11:16:14Z</time>
      </trkpt>
      <trkpt lat="45.90594" lon="4.73617">
        <ele>180</ele>
        <time>2018-08-16T11:16:15Z</time>
      </trkpt>
      <trkpt lat="45.90599" lon="4.73616">
        <ele>180</ele>
        <time>2018-08-16T11:16:16Z</time>
      </trkpt>
      <trkpt lat="45.90605" lon="4.73614">
        <ele>181</ele>
        <time>2018-08-16T11:16:17Z</time>
      </trkpt>
      <trkpt lat="45.9061" lon="4.73613">
        <ele>181</ele>
        <time>2018-08-16T11:16:18Z</time>
      </trkpt>
      <trkpt lat="45.90616" lon="4.7361">
        <ele>181</ele>
        <time>2018-08-16T11:16:19Z</time>
      </trkpt>
      <trkpt lat="45.90621" lon="4.73607">
        <ele>181</ele>
        <time>2018-08-16T11:16:20Z</time>
      </trkpt>
      <trkpt lat="45.90627" lon="4.73606">
        <ele>181</ele>
        <time>2018-08-16T11:16:21Z</time>
      </trkpt>
      <trkpt lat="45.90632" lon="4.73604">
        <ele>181</ele>
        <time>2018-08-16T11:16:22Z</time>
      </trkpt>
      <trkpt lat="45.90638" lon="4.73602">
        <ele>181</ele>
        <time>2018-08-16T11:16:23Z</time>
      </trkpt>
      <trkpt lat="45.90644" lon="4.736">
        <ele>181</ele>
        <time>2018-08-16T11:16:24Z</time>
      </trkpt>
      <trkpt lat="45.9065" lon="4.73597">
        <ele>181</ele>
        <time>2018-08-16T11:16:25Z</time>
      </trkpt>
      <trkpt lat="45.90656" lon="4.73595">
        <ele>181</ele>
        <time>2018-08-16T11:16:26Z</time>
      </trkpt>
      <trkpt lat="45.90662" lon="4.73591">
        <ele>180</ele>
        <time>2018-08-16T11:16:27Z</time>
      </trkpt>
      <trkpt lat="45.90668" lon="4.73588">
        <ele>180</ele>
        <time>2018-08-16T11:16:28Z</time>
      </trkpt>
      <trkpt lat="45.90674" lon="4.73586">
        <ele>180</ele>
        <time>2018-08-16T11:16:29Z</time>
      </trkpt>
      <trkpt lat="45.90681" lon="4.73584">
        <ele>181</ele>
        <time>2018-08-16T11:16:30Z</time>
      </trkpt>
      <trkpt lat="45.90688" lon="4.73582">
        <ele>179</ele>
        <time>2018-08-16T11:16:31Z</time>
      </trkpt>
      <trkpt lat="45.90694" lon="4.73579">
        <ele>178</ele>
        <time>2018-08-16T11:16:32Z</time>
      </trkpt>
      <trkpt lat="45.90702" lon="4.73575">
        <ele>178</ele>
        <time>2018-08-16T11:16:33Z</time>
      </trkpt>
      <trkpt lat="45.90709" lon="4.73571">
        <ele>178</ele>
        <time>2018-08-16T11:16:34Z</time>
      </trkpt>
      <trkpt lat="45.90716" lon="4.73568">
        <ele>178</ele>
        <time>2018-08-16T11:16:35Z</time>
      </trkpt>
      <trkpt lat="45.90724" lon="4.73565">
        <ele>178</ele>
        <time>2018-08-16T11:16:36Z</time>
      </trkpt>
      <trkpt lat="45.90732" lon="4.73562">
        <ele>178</ele>
        <time>2018-08-16T11:16:37Z</time>
      </trkpt>
      <trkpt lat="45.90739" lon="4.73559">
        <ele>178</ele>
        <time>2018-08-16T11:16:38Z</time>
      </trkpt>
      <trkpt lat="45.90747" lon="4.73555">
        <ele>178</ele>
        <time>2018-08-16T11:16:39Z</time>
      </trkpt>
      <trkpt lat="45.90755" lon="4.73552">
        <ele>177</ele>
        <time>2018-08-16T11:16:40Z</time>
      </trkpt>
      <trkpt lat="45.90763" lon="4.7355">
        <ele>176</ele>
        <time>2018-08-16T11:16:41Z</time>
      </trkpt>
      <trkpt lat="45.9077" lon="4.73546">
        <ele>176</ele>
        <time>2018-08-16T11:16:42Z</time>
      </trkpt>
      <trkpt lat="45.90778" lon="4.73543">
        <ele>176</ele>
        <time>2018-08-16T11:16:43Z</time>
      </trkpt>
      <trkpt lat="45.90785" lon="4.7354">
        <ele>176</ele>
        <time>2018-08-16T11:16:44Z</time>
      </trkpt>
      <trkpt lat="45.90792" lon="4.73537">
        <ele>176</ele>
        <time>2018-08-16T11:16:45Z</time>
      </trkpt>
      <trkpt lat="45.908" lon="4.73534">
        <ele>176</ele>
        <time>2018-08-16T11:16:46Z</time>
      </trkpt>
      <trkpt lat="45.90807" lon="4.73531">
        <ele>175</ele>
        <time>2018-08-16T11:16:47Z</time>
      </trkpt>
      <trkpt lat="45.90814" lon="4.73529">
        <ele>175</ele>
        <time>2018-08-16T11:16:48Z</time>
      </trkpt>
      <trkpt lat="45.90821" lon="4.73528">
        <ele>175</ele>
        <time>2018-08-16T11:16:49Z</time>
      </trkpt>
      <trkpt lat="45.90827" lon="4.73524">
        <ele>175</ele>
        <time>2018-08-16T11:16:50Z</time>
      </trkpt>
      <trkpt lat="45.90834" lon="4.73521">
        <ele>174</ele>
        <time>2018-08-16T11:16:51Z</time>
      </trkpt>
      <trkpt lat="45.9084" lon="4.7352">
        <ele>174</ele>
        <time>2018-08-16T11:16:52Z</time>
      </trkpt>
      <trkpt lat="45.90847" lon="4.73517">
        <ele>174</ele>
        <time>2018-08-16T11:16:53Z</time>
      </trkpt>
      <trkpt lat="45.90853" lon="4.73514">
        <ele>174</ele>
        <time>2018-08-16T11:16:54Z</time>
      </trkpt>
      <trkpt lat="45.90859" lon="4.73512">
        <ele>174</ele>
        <time>2018-08-16T11:16:55Z</time>
      </trkpt>
      <trkpt lat="45.90865" lon="4.73508">
        <ele>174</ele>
        <time>2018-08-16T11:16:56Z</time>
      </trkpt>
      <trkpt lat="45.90871" lon="4.73505">
        <ele>174</ele>
        <time>2018-08-16T11:16:57Z</time>
      </trkpt>
      <trkpt lat="45.90876" lon="4.73503">
        <ele>175</ele>
        <time>2018-08-16T11:16:58Z</time>
      </trkpt>
      <trkpt lat="45.90881" lon="4.73502">
        <ele>175</ele>
        <time>2018-08-16T11:16:59Z</time>
      </trkpt>
      <trkpt lat="45.90887" lon="4.73499">
        <ele>175</ele>
        <time>2018-08-16T11:17:00Z</time>
      </trkpt>
      <trkpt lat="45.90892" lon="4.73497">
        <ele>175</ele>
        <time>2018-08-16T11:17:01Z</time>
      </trkpt>
      <trkpt lat="45.90897" lon="4.73495">
        <ele>175</ele>
        <time>2018-08-16T11:17:02Z</time>
      </trkpt>
      <trkpt lat="45.90902" lon="4.73492">
        <ele>175</ele>
        <time>2018-08-16T11:17:03Z</time>
      </trkpt>
      <trkpt lat="45.90906" lon="4.7349">
        <ele>175</ele>
        <time>2018-08-16T11:17:04Z</time>
      </trkpt>
      <trkpt lat="45.90911" lon="4.73488">
        <ele>175</ele>
        <time>2018-08-16T11:17:05Z</time>
      </trkpt>
      <trkpt lat="45.90916" lon="4.73486">
        <ele>175</ele>
        <time>2018-08-16T11:17:06Z</time>
      </trkpt>
      <trkpt lat="45.90922" lon="4.73484">
        <ele>175</ele>
        <time>2018-08-16T11:17:07Z</time>
      </trkpt>
      <trkpt lat="45.90928" lon="4.7348">
        <ele>175</ele>
        <time>2018-08-16T11:17:08Z</time>
      </trkpt>
      <trkpt lat="45.90933" lon="4.73478">
        <ele>175</ele>
        <time>2018-08-16T11:17:09Z</time>
      </trkpt>
      <trkpt lat="45.90938" lon="4.73475">
        <ele>175</ele>
        <time>2018-08-16T11:17:10Z</time>
      </trkpt>
      <trkpt lat="45.90943" lon="4.73472">
        <ele>175</ele>
        <time>2018-08-16T11:17:11Z</time>
      </trkpt>
      <trkpt lat="45.90948" lon="4.73471">
        <ele>175</ele>
        <time>2018-08-16T11:17:12Z</time>
      </trkpt>
      <trkpt lat="45.90953" lon="4.73467">
        <ele>175</ele>
        <time>2018-08-16T11:17:13Z</time>
      </trkpt>
      <trkpt lat="45.90957" lon="4.73465">
        <ele>175</ele>
        <time>2018-08-16T11:17:14Z</time>
      </trkpt>
      <trkpt lat="45.90962" lon="4.73463">
        <ele>175</ele>
        <time>2018-08-16T11:17:15Z</time>
      </trkpt>
      <trkpt lat="45.90968" lon="4.7346">
        <ele>175</ele>
        <time>2018-08-16T11:17:16Z</time>
      </trkpt>
      <trkpt lat="45.90973" lon="4.73458">
        <ele>175</ele>
        <time>2018-08-16T11:17:17Z</time>
      </trkpt>
      <trkpt lat="45.90978" lon="4.73456">
        <ele>175</ele>
        <time>2018-08-16T11:17:18Z</time>
      </trkpt>
      <trkpt lat="45.90985" lon="4.73454">
        <ele>175</ele>
        <time>2018-08-16T11:17:19Z</time>
      </trkpt>
      <trkpt lat="45.90992" lon="4.7345">
        <ele>175</ele>
        <time>2018-08-16T11:17:20Z</time>
      </trkpt>
      <trkpt lat="45.90999" lon="4.73447">
        <ele>175</ele>
        <time>2018-08-16T11:17:21Z</time>
      </trkpt>
      <trkpt lat="45.91005" lon="4.73447">
        <ele>175</ele>
        <time>2018-08-16T11:17:22Z</time>
      </trkpt>
      <trkpt lat="45.9101" lon="4.73448">
        <ele>175</ele>
        <time>2018-08-16T11:17:23Z</time>
      </trkpt>
      <trkpt lat="45.91016" lon="4.73449">
        <ele>175</ele>
        <time>2018-08-16T11:17:24Z</time>
      </trkpt>
      <trkpt lat="45.9102" lon="4.73452">
        <ele>175</ele>
        <time>2018-08-16T11:17:25Z</time>
      </trkpt>
      <trkpt lat="45.91024" lon="4.73455">
        <ele>175</ele>
        <time>2018-08-16T11:17:26Z</time>
      </trkpt>
      <trkpt lat="45.91028" lon="4.7346">
        <ele>175</ele>
        <time>2018-08-16T11:17:27Z</time>
      </trkpt>
      <trkpt lat="45.91031" lon="4.73466">
        <ele>175</ele>
        <time>2018-08-16T11:17:28Z</time>
      </trkpt>
      <trkpt lat="45.91034" lon="4.73472">
        <ele>175</ele>
        <time>2018-08-16T11:17:29Z</time>
      </trkpt>
      <trkpt lat="45.91037" lon="4.73479">
        <ele>175</ele>
        <time>2018-08-16T11:17:30Z</time>
      </trkpt>
      <trkpt lat="45.9104" lon="4.73485">
        <ele>175</ele>
        <time>2018-08-16T11:17:31Z</time>
      </trkpt>
      <trkpt lat="45.91044" lon="4.73492">
        <ele>175</ele>
        <time>2018-08-16T11:17:32Z</time>
      </trkpt>
      <trkpt lat="45.91047" lon="4.73497">
        <ele>175</ele>
        <time>2018-08-16T11:17:33Z</time>
      </trkpt>
      <trkpt lat="45.9105" lon="4.73503">
        <ele>175</ele>
        <time>2018-08-16T11:17:34Z</time>
      </trkpt>
      <trkpt lat="45.91054" lon="4.7351">
        <ele>175</ele>
        <time>2018-08-16T11:17:35Z</time>
      </trkpt>
      <trkpt lat="45.91057" lon="4.73518">
        <ele>175</ele>
        <time>2018-08-16T11:17:36Z</time>
      </trkpt>
      <trkpt lat="45.9106" lon="4.73527">
        <ele>175</ele>
        <time>2018-08-16T11:17:37Z</time>
      </trkpt>
      <trkpt lat="45.91063" lon="4.73533">
        <ele>175</ele>
        <time>2018-08-16T11:17:38Z</time>
      </trkpt>
      <trkpt lat="45.91066" lon="4.73541">
        <ele>175</ele>
        <time>2018-08-16T11:17:39Z</time>
      </trkpt>
      <trkpt lat="45.9107" lon="4.73547">
        <ele>174</ele>
        <time>2018-08-16T11:17:40Z</time>
      </trkpt>
      <trkpt lat="45.91073" lon="4.73554">
        <ele>174</ele>
        <time>2018-08-16T11:17:41Z</time>
      </trkpt>
      <trkpt lat="45.91076" lon="4.73561">
        <ele>174</ele>
        <time>2018-08-16T11:17:42Z</time>
      </trkpt>
      <trkpt lat="45.91079" lon="4.73568">
        <ele>174</ele>
        <time>2018-08-16T11:17:43Z</time>
      </trkpt>
      <trkpt lat="45.91083" lon="4.73575">
        <ele>174</ele>
        <time>2018-08-16T11:17:44Z</time>
      </trkpt>
      <trkpt lat="45.91085" lon="4.73581">
        <ele>174</ele>
        <time>2018-08-16T11:17:45Z</time>
      </trkpt>
      <trkpt lat="45.91087" lon="4.73586">
        <ele>174</ele>
        <time>2018-08-16T11:17:46Z</time>
      </trkpt>
      <trkpt lat="45.9109" lon="4.73593">
        <ele>174</ele>
        <time>2018-08-16T11:17:47Z</time>
      </trkpt>
      <trkpt lat="45.91092" lon="4.73599">
        <ele>174</ele>
        <time>2018-08-16T11:17:48Z</time>
      </trkpt>
      <trkpt lat="45.91094" lon="4.73603">
        <ele>174</ele>
        <time>2018-08-16T11:17:49Z</time>
      </trkpt>
      <trkpt lat="45.91097" lon="4.73611">
        <ele>174</ele>
        <time>2018-08-16T11:17:50Z</time>
      </trkpt>
      <trkpt lat="45.91102" lon="4.73618">
        <ele>174</ele>
        <time>2018-08-16T11:17:51Z</time>
      </trkpt>
      <trkpt lat="45.91105" lon="4.73626">
        <ele>174</ele>
        <time>2018-08-16T11:17:52Z</time>
      </trkpt>
      <trkpt lat="45.91107" lon="4.73632">
        <ele>174</ele>
        <time>2018-08-16T11:17:53Z</time>
      </trkpt>
      <trkpt lat="45.9111" lon="4.7364">
        <ele>174</ele>
        <time>2018-08-16T11:17:54Z</time>
      </trkpt>
      <trkpt lat="45.91113" lon="4.73647">
        <ele>174</ele>
        <time>2018-08-16T11:17:55Z</time>
      </trkpt>
      <trkpt lat="45.91117" lon="4.73655">
        <ele>174</ele>
        <time>2018-08-16T11:17:56Z</time>
      </trkpt>
      <trkpt lat="45.9112" lon="4.7366">
        <ele>174</ele>
        <time>2018-08-16T11:17:57Z</time>
      </trkpt>
      <trkpt lat="45.91122" lon="4.73667">
        <ele>174</ele>
        <time>2018-08-16T11:17:58Z</time>
      </trkpt>
      <trkpt lat="45.91125" lon="4.73673">
        <ele>174</ele>
        <time>2018-08-16T11:17:59Z</time>
      </trkpt>
      <trkpt lat="45.91129" lon="4.7368">
        <ele>174</ele>
        <time>2018-08-16T11:18:00Z</time>
      </trkpt>
      <trkpt lat="45.91133" lon="4.73687">
        <ele>174</ele>
        <time>2018-08-16T11:18:01Z</time>
      </trkpt>
      <trkpt lat="45.91137" lon="4.73693">
        <ele>174</ele>
        <time>2018-08-16T11:18:02Z</time>
      </trkpt>
      <trkpt lat="45.91141" lon="4.737">
        <ele>174</ele>
        <time>2018-08-16T11:18:03Z</time>
      </trkpt>
      <trkpt lat="45.91145" lon="4.73708">
        <ele>174</ele>
        <time>2018-08-16T11:18:04Z</time>
      </trkpt>
      <trkpt lat="45.91148" lon="4.73715">
        <ele>174</ele>
        <time>2018-08-16T11:18:05Z</time>
      </trkpt>
      <trkpt lat="45.91153" lon="4.73721">
        <ele>175</ele>
        <time>2018-08-16T11:18:06Z</time>
      </trkpt>
      <trkpt lat="45.91158" lon="4.73726">
        <ele>175</ele>
        <time>2018-08-16T11:18:07Z</time>
      </trkpt>
      <trkpt lat="45.91165" lon="4.73728">
        <ele>175</ele>
        <time>2018-08-16T11:18:08Z</time>
      </trkpt>
      <trkpt lat="45.91168" lon="4.7373">
        <ele>175</ele>
        <time>2018-08-16T11:18:09Z</time>
      </trkpt>
      <trkpt lat="45.91174" lon="4.73733">
        <ele>175</ele>
        <time>2018-08-16T11:18:10Z</time>
      </trkpt>
      <trkpt lat="45.91179" lon="4.73734">
        <ele>175</ele>
        <time>2018-08-16T11:18:11Z</time>
      </trkpt>
      <trkpt lat="45.91184" lon="4.73736">
        <ele>175</ele>
        <time>2018-08-16T11:18:12Z</time>
      </trkpt>
      <trkpt lat="45.9119" lon="4.73736">
        <ele>175</ele>
        <time>2018-08-16T11:18:13Z</time>
      </trkpt>
      <trkpt lat="45.91196" lon="4.73737">
        <ele>175</ele>
        <time>2018-08-16T11:18:14Z</time>
      </trkpt>
      <trkpt lat="45.91203" lon="4.73736">
        <ele>175</ele>
        <time>2018-08-16T11:18:15Z</time>
      </trkpt>
      <trkpt lat="45.9121" lon="4.73735">
        <ele>175</ele>
        <time>2018-08-16T11:18:16Z</time>
      </trkpt>
      <trkpt lat="45.91217" lon="4.73735">
        <ele>175</ele>
        <time>2018-08-16T11:18:17Z</time>
      </trkpt>
      <trkpt lat="45.91223" lon="4.73736">
        <ele>175</ele>
        <time>2018-08-16T11:18:18Z</time>
      </trkpt>
      <trkpt lat="45.91229" lon="4.73736">
        <ele>175</ele>
        <time>2018-08-16T11:18:19Z</time>
      </trkpt>
      <trkpt lat="45.91235" lon="4.73738">
        <ele>175</ele>
        <time>2018-08-16T11:18:20Z</time>
      </trkpt>
      <trkpt lat="45.9124" lon="4.73739">
        <ele>175</ele>
        <time>2018-08-16T11:18:21Z</time>
      </trkpt>
      <trkpt lat="45.91246" lon="4.73739">
        <ele>175</ele>
        <time>2018-08-16T11:18:22Z</time>
      </trkpt>
      <trkpt lat="45.91251" lon="4.7374">
        <ele>175</ele>
        <time>2018-08-16T11:18:23Z</time>
      </trkpt>
      <trkpt lat="45.91256" lon="4.7374">
        <ele>175</ele>
        <time>2018-08-16T11:18:24Z</time>
      </trkpt>
      <trkpt lat="45.91261" lon="4.7374">
        <ele>175</ele>
        <time>2018-08-16T11:18:25Z</time>
      </trkpt>
      <trkpt lat="45.91266" lon="4.7374">
        <ele>174</ele>
        <time>2018-08-16T11:18:26Z</time>
      </trkpt>
      <trkpt lat="45.91273" lon="4.73747">
        <ele>174</ele>
        <time>2018-08-16T11:18:28Z</time>
      </trkpt>
      <trkpt lat="45.91278" lon="4.73748">
        <ele>174</ele>
        <time>2018-08-16T11:18:29Z</time>
      </trkpt>
      <trkpt lat="45.91284" lon="4.73747">
        <ele>174</ele>
        <time>2018-08-16T11:18:30Z</time>
      </trkpt>
      <trkpt lat="45.9129" lon="4.73748">
        <ele>174</ele>
        <time>2018-08-16T11:18:31Z</time>
      </trkpt>
      <trkpt lat="45.91296" lon="4.73747">
        <ele>174</ele>
        <time>2018-08-16T11:18:32Z</time>
      </trkpt>
      <trkpt lat="45.91303" lon="4.73745">
        <ele>174</ele>
        <time>2018-08-16T11:18:33Z</time>
      </trkpt>
      <trkpt lat="45.91309" lon="4.73744">
        <ele>174</ele>
        <time>2018-08-16T11:18:34Z</time>
      </trkpt>
      <trkpt lat="45.91316" lon="4.73743">
        <ele>174</ele>
        <time>2018-08-16T11:18:35Z</time>
      </trkpt>
      <trkpt lat="45.91322" lon="4.73743">
        <ele>173</ele>
        <time>2018-08-16T11:18:36Z</time>
      </trkpt>
      <trkpt lat="45.91327" lon="4.73743">
        <ele>173</ele>
        <time>2018-08-16T11:18:37Z</time>
      </trkpt>
      <trkpt lat="45.91333" lon="4.73744">
        <ele>173</ele>
        <time>2018-08-16T11:18:38Z</time>
      </trkpt>
      <trkpt lat="45.91338" lon="4.73744">
        <ele>173</ele>
        <time>2018-08-16T11:18:39Z</time>
      </trkpt>
      <trkpt lat="45.91343" lon="4.73744">
        <ele>173</ele>
        <time>2018-08-16T11:18:40Z</time>
      </trkpt>
      <trkpt lat="45.91348" lon="4.73743">
        <ele>173</ele>
        <time>2018-08-16T11:18:41Z</time>
      </trkpt>
      <trkpt lat="45.91353" lon="4.73742">
        <ele>173</ele>
        <time>2018-08-16T11:18:42Z</time>
      </trkpt>
      <trkpt lat="45.91359" lon="4.73742">
        <ele>173</ele>
        <time>2018-08-16T11:18:43Z</time>
      </trkpt>
      <trkpt lat="45.91365" lon="4.73742">
        <ele>173</ele>
        <time>2018-08-16T11:18:44Z</time>
      </trkpt>
      <trkpt lat="45.9137" lon="4.73744">
        <ele>173</ele>
        <time>2018-08-16T11:18:45Z</time>
      </trkpt>
      <trkpt lat="45.91377" lon="4.73743">
        <ele>173</ele>
        <time>2018-08-16T11:18:46Z</time>
      </trkpt>
      <trkpt lat="45.91383" lon="4.73743">
        <ele>173</ele>
        <time>2018-08-16T11:18:47Z</time>
      </trkpt>
      <trkpt lat="45.91388" lon="4.73744">
        <ele>173</ele>
        <time>2018-08-16T11:18:48Z</time>
      </trkpt>
      <trkpt lat="45.91394" lon="4.73744">
        <ele>173</ele>
        <time>2018-08-16T11:18:49Z</time>
      </trkpt>
      <trkpt lat="45.91399" lon="4.73744">
        <ele>173</ele>
        <time>2018-08-16T11:18:50Z</time>
      </trkpt>
      <trkpt lat="45.91404" lon="4.73744">
        <ele>173</ele>
        <time>2018-08-16T11:18:51Z</time>
      </trkpt>
      <trkpt lat="45.91409" lon="4.73743">
        <ele>172</ele>
        <time>2018-08-16T11:18:52Z</time>
      </trkpt>
      <trkpt lat="45.91414" lon="4.73743">
        <ele>172</ele>
        <time>2018-08-16T11:18:53Z</time>
      </trkpt>
      <trkpt lat="45.91418" lon="4.73743">
        <ele>172</ele>
        <time>2018-08-16T11:18:54Z</time>
      </trkpt>
      <trkpt lat="45.91423" lon="4.73743">
        <ele>173</ele>
        <time>2018-08-16T11:18:55Z</time>
      </trkpt>
      <trkpt lat="45.91428" lon="4.73745">
        <ele>173</ele>
        <time>2018-08-16T11:18:56Z</time>
      </trkpt>
      <trkpt lat="45.91434" lon="4.73745">
        <ele>173</ele>
        <time>2018-08-16T11:18:57Z</time>
      </trkpt>
      <trkpt lat="45.91439" lon="4.73746">
        <ele>173</ele>
        <time>2018-08-16T11:18:58Z</time>
      </trkpt>
      <trkpt lat="45.91446" lon="4.73742">
        <ele>173</ele>
        <time>2018-08-16T11:18:59Z</time>
      </trkpt>
      <trkpt lat="45.91452" lon="4.73739">
        <ele>173</ele>
        <time>2018-08-16T11:19:00Z</time>
      </trkpt>
      <trkpt lat="45.91458" lon="4.73738">
        <ele>174</ele>
        <time>2018-08-16T11:19:01Z</time>
      </trkpt>
      <trkpt lat="45.91463" lon="4.73737">
        <ele>174</ele>
        <time>2018-08-16T11:19:02Z</time>
      </trkpt>
      <trkpt lat="45.91469" lon="4.73739">
        <ele>174</ele>
        <time>2018-08-16T11:19:03Z</time>
      </trkpt>
      <trkpt lat="45.91474" lon="4.73738">
        <ele>174</ele>
        <time>2018-08-16T11:19:04Z</time>
      </trkpt>
      <trkpt lat="45.91479" lon="4.73738">
        <ele>174</ele>
        <time>2018-08-16T11:19:05Z</time>
      </trkpt>
      <trkpt lat="45.91483" lon="4.73739">
        <ele>174</ele>
        <time>2018-08-16T11:19:06Z</time>
      </trkpt>
      <trkpt lat="45.91491" lon="4.73735">
        <ele>174</ele>
        <time>2018-08-16T11:19:07Z</time>
      </trkpt>
      <trkpt lat="45.91496" lon="4.73735">
        <ele>174</ele>
        <time>2018-08-16T11:19:08Z</time>
      </trkpt>
      <trkpt lat="45.91502" lon="4.73736">
        <ele>174</ele>
        <time>2018-08-16T11:19:09Z</time>
      </trkpt>
      <trkpt lat="45.91508" lon="4.73737">
        <ele>174</ele>
        <time>2018-08-16T11:19:10Z</time>
      </trkpt>
      <trkpt lat="45.91514" lon="4.73738">
        <ele>174</ele>
        <time>2018-08-16T11:19:11Z</time>
      </trkpt>
      <trkpt lat="45.9152" lon="4.73739">
        <ele>174</ele>
        <time>2018-08-16T11:19:12Z</time>
      </trkpt>
      <trkpt lat="45.91526" lon="4.73739">
        <ele>174</ele>
        <time>2018-08-16T11:19:13Z</time>
      </trkpt>
      <trkpt lat="45.91533" lon="4.7374">
        <ele>174</ele>
        <time>2018-08-16T11:19:14Z</time>
      </trkpt>
      <trkpt lat="45.91538" lon="4.73739">
        <ele>174</ele>
        <time>2018-08-16T11:19:15Z</time>
      </trkpt>
      <trkpt lat="45.91545" lon="4.7374">
        <ele>174</ele>
        <time>2018-08-16T11:19:16Z</time>
      </trkpt>
      <trkpt lat="45.91551" lon="4.7374">
        <ele>174</ele>
        <time>2018-08-16T11:19:17Z</time>
      </trkpt>
      <trkpt lat="45.91556" lon="4.73741">
        <ele>174</ele>
        <time>2018-08-16T11:19:18Z</time>
      </trkpt>
      <trkpt lat="45.91562" lon="4.73743">
        <ele>173</ele>
        <time>2018-08-16T11:19:19Z</time>
      </trkpt>
      <trkpt lat="45.91568" lon="4.73742">
        <ele>173</ele>
        <time>2018-08-16T11:19:20Z</time>
      </trkpt>
      <trkpt lat="45.91575" lon="4.73742">
        <ele>173</ele>
        <time>2018-08-16T11:19:21Z</time>
      </trkpt>
      <trkpt lat="45.91581" lon="4.73742">
        <ele>173</ele>
        <time>2018-08-16T11:19:22Z</time>
      </trkpt>
      <trkpt lat="45.91587" lon="4.73741">
        <ele>173</ele>
        <time>2018-08-16T11:19:23Z</time>
      </trkpt>
      <trkpt lat="45.91593" lon="4.73741">
        <ele>173</ele>
        <time>2018-08-16T11:19:24Z</time>
      </trkpt>
      <trkpt lat="45.91599" lon="4.7374">
        <ele>173</ele>
        <time>2018-08-16T11:19:25Z</time>
      </trkpt>
      <trkpt lat="45.91604" lon="4.7374">
        <ele>173</ele>
        <time>2018-08-16T11:19:26Z</time>
      </trkpt>
      <trkpt lat="45.9161" lon="4.7374">
        <ele>173</ele>
        <time>2018-08-16T11:19:27Z</time>
      </trkpt>
      <trkpt lat="45.91616" lon="4.73741">
        <ele>173</ele>
        <time>2018-08-16T11:19:28Z</time>
      </trkpt>
      <trkpt lat="45.91621" lon="4.7374">
        <ele>173</ele>
        <time>2018-08-16T11:19:29Z</time>
      </trkpt>
      <trkpt lat="45.91627" lon="4.73739">
        <ele>172</ele>
        <time>2018-08-16T11:19:30Z</time>
      </trkpt>
      <trkpt lat="45.91633" lon="4.73738">
        <ele>172</ele>
        <time>2018-08-16T11:19:31Z</time>
      </trkpt>
      <trkpt lat="45.91638" lon="4.73738">
        <ele>172</ele>
        <time>2018-08-16T11:19:32Z</time>
      </trkpt>
      <trkpt lat="45.91645" lon="4.73739">
        <ele>172</ele>
        <time>2018-08-16T11:19:33Z</time>
      </trkpt>
      <trkpt lat="45.91651" lon="4.73739">
        <ele>172</ele>
        <time>2018-08-16T11:19:34Z</time>
      </trkpt>
      <trkpt lat="45.91659" lon="4.73733">
        <ele>172</ele>
        <time>2018-08-16T11:19:35Z</time>
      </trkpt>
      <trkpt lat="45.91666" lon="4.73732">
        <ele>172</ele>
        <time>2018-08-16T11:19:36Z</time>
      </trkpt>
      <trkpt lat="45.91672" lon="4.73732">
        <ele>172</ele>
        <time>2018-08-16T11:19:37Z</time>
      </trkpt>
      <trkpt lat="45.91678" lon="4.73729">
        <ele>172</ele>
        <time>2018-08-16T11:19:38Z</time>
      </trkpt>
      <trkpt lat="45.91684" lon="4.73729">
        <ele>172</ele>
        <time>2018-08-16T11:19:39Z</time>
      </trkpt>
      <trkpt lat="45.91689" lon="4.7373">
        <ele>172</ele>
        <time>2018-08-16T11:19:40Z</time>
      </trkpt>
      <trkpt lat="45.91694" lon="4.73731">
        <ele>172</ele>
        <time>2018-08-16T11:19:41Z</time>
      </trkpt>
      <trkpt lat="45.91699" lon="4.73732">
        <ele>172</ele>
        <time>2018-08-16T11:19:42Z</time>
      </trkpt>
      <trkpt lat="45.91703" lon="4.73734">
        <ele>172</ele>
        <time>2018-08-16T11:19:43Z</time>
      </trkpt>
      <trkpt lat="45.91708" lon="4.73734">
        <ele>172</ele>
        <time>2018-08-16T11:19:44Z</time>
      </trkpt>
      <trkpt lat="45.91714" lon="4.7373">
        <ele>173</ele>
        <time>2018-08-16T11:19:45Z</time>
      </trkpt>
      <trkpt lat="45.91721" lon="4.73727">
        <ele>173</ele>
        <time>2018-08-16T11:19:46Z</time>
      </trkpt>
      <trkpt lat="45.91726" lon="4.73726">
        <ele>173</ele>
        <time>2018-08-16T11:19:47Z</time>
      </trkpt>
      <trkpt lat="45.91731" lon="4.73727">
        <ele>173</ele>
        <time>2018-08-16T11:19:48Z</time>
      </trkpt>
      <trkpt lat="45.91737" lon="4.73729">
        <ele>173</ele>
        <time>2018-08-16T11:19:49Z</time>
      </trkpt>
      <trkpt lat="45.91743" lon="4.73728">
        <ele>173</ele>
        <time>2018-08-16T11:19:50Z</time>
      </trkpt>
      <trkpt lat="45.91749" lon="4.73728">
        <ele>173</ele>
        <time>2018-08-16T11:19:51Z</time>
      </trkpt>
      <trkpt lat="45.91755" lon="4.73728">
        <ele>173</ele>
        <time>2018-08-16T11:19:52Z</time>
      </trkpt>
      <trkpt lat="45.9176" lon="4.73728">
        <ele>173</ele>
        <time>2018-08-16T11:19:53Z</time>
      </trkpt>
      <trkpt lat="45.91766" lon="4.73725">
        <ele>173</ele>
        <time>2018-08-16T11:19:54Z</time>
      </trkpt>
      <trkpt lat="45.91771" lon="4.73725">
        <ele>173</ele>
        <time>2018-08-16T11:19:55Z</time>
      </trkpt>
      <trkpt lat="45.91776" lon="4.73725">
        <ele>173</ele>
        <time>2018-08-16T11:19:56Z</time>
      </trkpt>
      <trkpt lat="45.9178" lon="4.73729">
        <ele>173</ele>
        <time>2018-08-16T11:19:57Z</time>
      </trkpt>
      <trkpt lat="45.91785" lon="4.73729">
        <ele>173</ele>
        <time>2018-08-16T11:19:58Z</time>
      </trkpt>
      <trkpt lat="45.91791" lon="4.73728">
        <ele>173</ele>
        <time>2018-08-16T11:19:59Z</time>
      </trkpt>
      <trkpt lat="45.91798" lon="4.73727">
        <ele>172</ele>
        <time>2018-08-16T11:20:00Z</time>
      </trkpt>
      <trkpt lat="45.91806" lon="4.73726">
        <ele>172</ele>
        <time>2018-08-16T11:20:01Z</time>
      </trkpt>
      <trkpt lat="45.91812" lon="4.73727">
        <ele>172</ele>
        <time>2018-08-16T11:20:02Z</time>
      </trkpt>
      <trkpt lat="45.91819" lon="4.73727">
        <ele>172</ele>
        <time>2018-08-16T11:20:03Z</time>
      </trkpt>
      <trkpt lat="45.91824" lon="4.7373">
        <ele>172</ele>
        <time>2018-08-16T11:20:04Z</time>
      </trkpt>
      <trkpt lat="45.9183" lon="4.73726">
        <ele>172</ele>
        <time>2018-08-16T11:20:05Z</time>
      </trkpt>
      <trkpt lat="45.91835" lon="4.73725">
        <ele>172</ele>
        <time>2018-08-16T11:20:06Z</time>
      </trkpt>
      <trkpt lat="45.91841" lon="4.73725">
        <ele>172</ele>
        <time>2018-08-16T11:20:07Z</time>
      </trkpt>
      <trkpt lat="45.91846" lon="4.73729">
        <ele>172</ele>
        <time>2018-08-16T11:20:08Z</time>
      </trkpt>
      <trkpt lat="45.91853" lon="4.73729">
        <ele>171</ele>
        <time>2018-08-16T11:20:09Z</time>
      </trkpt>
      <trkpt lat="45.91858" lon="4.7373">
        <ele>171</ele>
        <time>2018-08-16T11:20:10Z</time>
      </trkpt>
      <trkpt lat="45.91865" lon="4.73729">
        <ele>171</ele>
        <time>2018-08-16T11:20:11Z</time>
      </trkpt>
      <trkpt lat="45.91871" lon="4.73728">
        <ele>171</ele>
        <time>2018-08-16T11:20:12Z</time>
      </trkpt>
      <trkpt lat="45.91878" lon="4.73728">
        <ele>171</ele>
        <time>2018-08-16T11:20:13Z</time>
      </trkpt>
      <trkpt lat="45.91884" lon="4.7373">
        <ele>171</ele>
        <time>2018-08-16T11:20:14Z</time>
      </trkpt>
      <trkpt lat="45.91889" lon="4.73729">
        <ele>171</ele>
        <time>2018-08-16T11:20:15Z</time>
      </trkpt>
      <trkpt lat="45.91894" lon="4.73729">
        <ele>171</ele>
        <time>2018-08-16T11:20:16Z</time>
      </trkpt>
      <trkpt lat="45.919" lon="4.73729">
        <ele>171</ele>
        <time>2018-08-16T11:20:17Z</time>
      </trkpt>
      <trkpt lat="45.91905" lon="4.7373">
        <ele>171</ele>
        <time>2018-08-16T11:20:18Z</time>
      </trkpt>
      <trkpt lat="45.9191" lon="4.7373">
        <ele>171</ele>
        <time>2018-08-16T11:20:19Z</time>
      </trkpt>
      <trkpt lat="45.91915" lon="4.73729">
        <ele>171</ele>
        <time>2018-08-16T11:20:20Z</time>
      </trkpt>
      <trkpt lat="45.9192" lon="4.7373">
        <ele>170</ele>
        <time>2018-08-16T11:20:21Z</time>
      </trkpt>
      <trkpt lat="45.91926" lon="4.73731">
        <ele>170</ele>
        <time>2018-08-16T11:20:22Z</time>
      </trkpt>
      <trkpt lat="45.91931" lon="4.73732">
        <ele>170</ele>
        <time>2018-08-16T11:20:23Z</time>
      </trkpt>
      <trkpt lat="45.91937" lon="4.73733">
        <ele>170</ele>
        <time>2018-08-16T11:20:24Z</time>
      </trkpt>
      <trkpt lat="45.91941" lon="4.73733">
        <ele>170</ele>
        <time>2018-08-16T11:20:25Z</time>
      </trkpt>
      <trkpt lat="45.91947" lon="4.73734">
        <ele>170</ele>
        <time>2018-08-16T11:20:26Z</time>
      </trkpt>
      <trkpt lat="45.91953" lon="4.73732">
        <ele>170</ele>
        <time>2018-08-16T11:20:27Z</time>
      </trkpt>
      <trkpt lat="45.9196" lon="4.73729">
        <ele>171</ele>
        <time>2018-08-16T11:20:28Z</time>
      </trkpt>
      <trkpt lat="45.91966" lon="4.73728">
        <ele>171</ele>
        <time>2018-08-16T11:20:29Z</time>
      </trkpt>
      <trkpt lat="45.91972" lon="4.73728">
        <ele>171</ele>
        <time>2018-08-16T11:20:30Z</time>
      </trkpt>
      <trkpt lat="45.91977" lon="4.73727">
        <ele>171</ele>
        <time>2018-08-16T11:20:31Z</time>
      </trkpt>
      <trkpt lat="45.91982" lon="4.73727">
        <ele>171</ele>
        <time>2018-08-16T11:20:32Z</time>
      </trkpt>
      <trkpt lat="45.91987" lon="4.73727">
        <ele>171</ele>
        <time>2018-08-16T11:20:33Z</time>
      </trkpt>
      <trkpt lat="45.91992" lon="4.73727">
        <ele>171</ele>
        <time>2018-08-16T11:20:34Z</time>
      </trkpt>
      <trkpt lat="45.91996" lon="4.73728">
        <ele>171</ele>
        <time>2018-08-16T11:20:35Z</time>
      </trkpt>
      <trkpt lat="45.92001" lon="4.73727">
        <ele>171</ele>
        <time>2018-08-16T11:20:36Z</time>
      </trkpt>
      <trkpt lat="45.92007" lon="4.73726">
        <ele>171</ele>
        <time>2018-08-16T11:20:37Z</time>
      </trkpt>
      <trkpt lat="45.92012" lon="4.73726">
        <ele>171</ele>
        <time>2018-08-16T11:20:38Z</time>
      </trkpt>
      <trkpt lat="45.92018" lon="4.73725">
        <ele>171</ele>
        <time>2018-08-16T11:20:39Z</time>
      </trkpt>
      <trkpt lat="45.92023" lon="4.73726">
        <ele>171</ele>
        <time>2018-08-16T11:20:40Z</time>
      </trkpt>
      <trkpt lat="45.92029" lon="4.73725">
        <ele>171</ele>
        <time>2018-08-16T11:20:41Z</time>
      </trkpt>
      <trkpt lat="45.92034" lon="4.73726">
        <ele>171</ele>
        <time>2018-08-16T11:20:42Z</time>
      </trkpt>
      <trkpt lat="45.9204" lon="4.73727">
        <ele>171</ele>
        <time>2018-08-16T11:20:43Z</time>
      </trkpt>
      <trkpt lat="45.92046" lon="4.73726">
        <ele>171</ele>
        <time>2018-08-16T11:20:44Z</time>
      </trkpt>
      <trkpt lat="45.92051" lon="4.73726">
        <ele>171</ele>
        <time>2018-08-16T11:20:45Z</time>
      </trkpt>
      <trkpt lat="45.92057" lon="4.73725">
        <ele>171</ele>
        <time>2018-08-16T11:20:46Z</time>
      </trkpt>
      <trkpt lat="45.92064" lon="4.73724">
        <ele>171</ele>
        <time>2018-08-16T11:20:47Z</time>
      </trkpt>
      <trkpt lat="45.9207" lon="4.73726">
        <ele>171</ele>
        <time>2018-08-16T11:20:48Z</time>
      </trkpt>
      <trkpt lat="45.92076" lon="4.73725">
        <ele>171</ele>
        <time>2018-08-16T11:20:49Z</time>
      </trkpt>
      <trkpt lat="45.92082" lon="4.73725">
        <ele>171</ele>
        <time>2018-08-16T11:20:50Z</time>
      </trkpt>
      <trkpt lat="45.92088" lon="4.73724">
        <ele>171</ele>
        <time>2018-08-16T11:20:51Z</time>
      </trkpt>
      <trkpt lat="45.92092" lon="4.73725">
        <ele>171</ele>
        <time>2018-08-16T11:20:52Z</time>
      </trkpt>
      <trkpt lat="45.92098" lon="4.73724">
        <ele>171</ele>
        <time>2018-08-16T11:20:53Z</time>
      </trkpt>
      <trkpt lat="45.92104" lon="4.73722">
        <ele>171</ele>
        <time>2018-08-16T11:20:54Z</time>
      </trkpt>
      <trkpt lat="45.9211" lon="4.73719">
        <ele>171</ele>
        <time>2018-08-16T11:20:55Z</time>
      </trkpt>
      <trkpt lat="45.92115" lon="4.73718">
        <ele>171</ele>
        <time>2018-08-16T11:20:56Z</time>
      </trkpt>
      <trkpt lat="45.9212" lon="4.73717">
        <ele>171</ele>
        <time>2018-08-16T11:20:57Z</time>
      </trkpt>
      <trkpt lat="45.92125" lon="4.73715">
        <ele>171</ele>
        <time>2018-08-16T11:20:58Z</time>
      </trkpt>
      <trkpt lat="45.92131" lon="4.73713">
        <ele>171</ele>
        <time>2018-08-16T11:20:59Z</time>
      </trkpt>
      <trkpt lat="45.92135" lon="4.73712">
        <ele>171</ele>
        <time>2018-08-16T11:21:00Z</time>
      </trkpt>
      <trkpt lat="45.9214" lon="4.73711">
        <ele>171</ele>
        <time>2018-08-16T11:21:01Z</time>
      </trkpt>
      <trkpt lat="45.92146" lon="4.7371">
        <ele>171</ele>
        <time>2018-08-16T11:21:02Z</time>
      </trkpt>
      <trkpt lat="45.92152" lon="4.73707">
        <ele>171</ele>
        <time>2018-08-16T11:21:03Z</time>
      </trkpt>
      <trkpt lat="45.92159" lon="4.73704">
        <ele>171</ele>
        <time>2018-08-16T11:21:04Z</time>
      </trkpt>
      <trkpt lat="45.92164" lon="4.73703">
        <ele>171</ele>
        <time>2018-08-16T11:21:05Z</time>
      </trkpt>
      <trkpt lat="45.92169" lon="4.73701">
        <ele>171</ele>
        <time>2018-08-16T11:21:06Z</time>
      </trkpt>
      <trkpt lat="45.92175" lon="4.73697">
        <ele>171</ele>
        <time>2018-08-16T11:21:07Z</time>
      </trkpt>
      <trkpt lat="45.92179" lon="4.73698">
        <ele>171</ele>
        <time>2018-08-16T11:21:08Z</time>
      </trkpt>
      <trkpt lat="45.92185" lon="4.73693">
        <ele>171</ele>
        <time>2018-08-16T11:21:09Z</time>
      </trkpt>
      <trkpt lat="45.9219" lon="4.73691">
        <ele>171</ele>
        <time>2018-08-16T11:21:10Z</time>
      </trkpt>
      <trkpt lat="45.92197" lon="4.73685">
        <ele>171</ele>
        <time>2018-08-16T11:21:11Z</time>
      </trkpt>
      <trkpt lat="45.92203" lon="4.73681">
        <ele>171</ele>
        <time>2018-08-16T11:21:12Z</time>
      </trkpt>
      <trkpt lat="45.92209" lon="4.73677">
        <ele>171</ele>
        <time>2018-08-16T11:21:13Z</time>
      </trkpt>
      <trkpt lat="45.92214" lon="4.73673">
        <ele>171</ele>
        <time>2018-08-16T11:21:14Z</time>
      </trkpt>
      <trkpt lat="45.9222" lon="4.7367">
        <ele>171</ele>
        <time>2018-08-16T11:21:15Z</time>
      </trkpt>
      <trkpt lat="45.92225" lon="4.73667">
        <ele>171</ele>
        <time>2018-08-16T11:21:16Z</time>
      </trkpt>
      <trkpt lat="45.9223" lon="4.73663">
        <ele>171</ele>
        <time>2018-08-16T11:21:17Z</time>
      </trkpt>
      <trkpt lat="45.92239" lon="4.7366">
        <ele>171</ele>
        <time>2018-08-16T11:21:19Z</time>
      </trkpt>
      <trkpt lat="45.92243" lon="4.73658">
        <ele>171</ele>
        <time>2018-08-16T11:21:20Z</time>
      </trkpt>
      <trkpt lat="45.92248" lon="4.73656">
        <ele>171</ele>
        <time>2018-08-16T11:21:21Z</time>
      </trkpt>
      <trkpt lat="45.92252" lon="4.73651">
        <ele>171</ele>
        <time>2018-08-16T11:21:22Z</time>
      </trkpt>
      <trkpt lat="45.92258" lon="4.73647">
        <ele>171</ele>
        <time>2018-08-16T11:21:23Z</time>
      </trkpt>
      <trkpt lat="45.92263" lon="4.73644">
        <ele>172</ele>
        <time>2018-08-16T11:21:24Z</time>
      </trkpt>
      <trkpt lat="45.92268" lon="4.7364">
        <ele>172</ele>
        <time>2018-08-16T11:21:25Z</time>
      </trkpt>
      <trkpt lat="45.92273" lon="4.73641">
        <ele>172</ele>
        <time>2018-08-16T11:21:26Z</time>
      </trkpt>
      <trkpt lat="45.92279" lon="4.73639">
        <ele>172</ele>
        <time>2018-08-16T11:21:27Z</time>
      </trkpt>
      <trkpt lat="45.92285" lon="4.73636">
        <ele>172</ele>
        <time>2018-08-16T11:21:28Z</time>
      </trkpt>
      <trkpt lat="45.92291" lon="4.73639">
        <ele>172</ele>
        <time>2018-08-16T11:21:30Z</time>
      </trkpt>
      <trkpt lat="45.92296" lon="4.73636">
        <ele>172</ele>
        <time>2018-08-16T11:21:31Z</time>
      </trkpt>
      <trkpt lat="45.92302" lon="4.73633">
        <ele>172</ele>
        <time>2018-08-16T11:21:32Z</time>
      </trkpt>
      <trkpt lat="45.92307" lon="4.73628">
        <ele>172</ele>
        <time>2018-08-16T11:21:33Z</time>
      </trkpt>
      <trkpt lat="45.92312" lon="4.73626">
        <ele>172</ele>
        <time>2018-08-16T11:21:34Z</time>
      </trkpt>
      <trkpt lat="45.92316" lon="4.73623">
        <ele>172</ele>
        <time>2018-08-16T11:21:35Z</time>
      </trkpt>
      <trkpt lat="45.92321" lon="4.73621">
        <ele>172</ele>
        <time>2018-08-16T11:21:36Z</time>
      </trkpt>
      <trkpt lat="45.92326" lon="4.73616">
        <ele>172</ele>
        <time>2018-08-16T11:21:37Z</time>
      </trkpt>
      <trkpt lat="45.92334" lon="4.73612">
        <ele>173</ele>
        <time>2018-08-16T11:21:39Z</time>
      </trkpt>
      <trkpt lat="45.92338" lon="4.73612">
        <ele>173</ele>
        <time>2018-08-16T11:21:40Z</time>
      </trkpt>
      <trkpt lat="45.92343" lon="4.73609">
        <ele>173</ele>
        <time>2018-08-16T11:21:41Z</time>
      </trkpt>
      <trkpt lat="45.92348" lon="4.73606">
        <ele>173</ele>
        <time>2018-08-16T11:21:42Z</time>
      </trkpt>
      <trkpt lat="45.92353" lon="4.73603">
        <ele>173</ele>
        <time>2018-08-16T11:21:43Z</time>
      </trkpt>
      <trkpt lat="45.92357" lon="4.736">
        <ele>173</ele>
        <time>2018-08-16T11:21:44Z</time>
      </trkpt>
      <trkpt lat="45.92362" lon="4.73599">
        <ele>173</ele>
        <time>2018-08-16T11:21:45Z</time>
      </trkpt>
      <trkpt lat="45.92366" lon="4.73596">
        <ele>173</ele>
        <time>2018-08-16T11:21:46Z</time>
      </trkpt>
      <trkpt lat="45.92371" lon="4.73594">
        <ele>173</ele>
        <time>2018-08-16T11:21:47Z</time>
      </trkpt>
      <trkpt lat="45.92376" lon="4.73593">
        <ele>173</ele>
        <time>2018-08-16T11:21:48Z</time>
      </trkpt>
      <trkpt lat="45.9238" lon="4.7359">
        <ele>173</ele>
        <time>2018-08-16T11:21:49Z</time>
      </trkpt>
      <trkpt lat="45.92384" lon="4.73587">
        <ele>173</ele>
        <time>2018-08-16T11:21:50Z</time>
      </trkpt>
      <trkpt lat="45.92392" lon="4.73581">
        <ele>173</ele>
        <time>2018-08-16T11:21:52Z</time>
      </trkpt>
      <trkpt lat="45.92395" lon="4.73579">
        <ele>173</ele>
        <time>2018-08-16T11:21:53Z</time>
      </trkpt>
      <trkpt lat="45.92404" lon="4.73574">
        <ele>173</ele>
        <time>2018-08-16T11:21:55Z</time>
      </trkpt>
      <trkpt lat="45.9241" lon="4.73573">
        <ele>173</ele>
        <time>2018-08-16T11:21:56Z</time>
      </trkpt>
      <trkpt lat="45.92416" lon="4.7357">
        <ele>173</ele>
        <time>2018-08-16T11:21:57Z</time>
      </trkpt>
      <trkpt lat="45.92421" lon="4.73567">
        <ele>174</ele>
        <time>2018-08-16T11:21:58Z</time>
      </trkpt>
      <trkpt lat="45.92425" lon="4.73564">
        <ele>174</ele>
        <time>2018-08-16T11:21:59Z</time>
      </trkpt>
      <trkpt lat="45.9243" lon="4.73561">
        <ele>174</ele>
        <time>2018-08-16T11:22:00Z</time>
      </trkpt>
      <trkpt lat="45.92434" lon="4.73559">
        <ele>174</ele>
        <time>2018-08-16T11:22:01Z</time>
      </trkpt>
      <trkpt lat="45.9244" lon="4.73557">
        <ele>174</ele>
        <time>2018-08-16T11:22:02Z</time>
      </trkpt>
      <trkpt lat="45.92447" lon="4.73553">
        <ele>174</ele>
        <time>2018-08-16T11:22:04Z</time>
      </trkpt>
      <trkpt lat="45.92451" lon="4.73551">
        <ele>174</ele>
        <time>2018-08-16T11:22:05Z</time>
      </trkpt>
      <trkpt lat="45.92458" lon="4.73551">
        <ele>174</ele>
        <time>2018-08-16T11:22:07Z</time>
      </trkpt>
      <trkpt lat="45.92462" lon="4.73552">
        <ele>173</ele>
        <time>2018-08-16T11:22:08Z</time>
      </trkpt>
      <trkpt lat="45.92465" lon="4.73563">
        <ele>173</ele>
        <time>2018-08-16T11:22:10Z</time>
      </trkpt>
      <trkpt lat="45.92465" lon="4.73568">
        <ele>173</ele>
        <time>2018-08-16T11:22:11Z</time>
      </trkpt>
      <trkpt lat="45.92465" lon="4.73575">
        <ele>173</ele>
        <time>2018-08-16T11:22:12Z</time>
      </trkpt>
      <trkpt lat="45.92465" lon="4.73581">
        <ele>173</ele>
        <time>2018-08-16T11:22:13Z</time>
      </trkpt>
      <trkpt lat="45.92465" lon="4.73589">
        <ele>174</ele>
        <time>2018-08-16T11:22:14Z</time>
      </trkpt>
      <trkpt lat="45.92466" lon="4.73596">
        <ele>174</ele>
        <time>2018-08-16T11:22:15Z</time>
      </trkpt>
      <trkpt lat="45.92467" lon="4.73603">
        <ele>174</ele>
        <time>2018-08-16T11:22:16Z</time>
      </trkpt>
      <trkpt lat="45.92467" lon="4.73611">
        <ele>174</ele>
        <time>2018-08-16T11:22:17Z</time>
      </trkpt>
      <trkpt lat="45.92466" lon="4.73619">
        <ele>174</ele>
        <time>2018-08-16T11:22:18Z</time>
      </trkpt>
      <trkpt lat="45.92466" lon="4.73626">
        <ele>174</ele>
        <time>2018-08-16T11:22:19Z</time>
      </trkpt>
      <trkpt lat="45.92467" lon="4.73633">
        <ele>174</ele>
        <time>2018-08-16T11:22:20Z</time>
      </trkpt>
      <trkpt lat="45.92468" lon="4.7364">
        <ele>174</ele>
        <time>2018-08-16T11:22:21Z</time>
      </trkpt>
      <trkpt lat="45.92468" lon="4.73645">
        <ele>174</ele>
        <time>2018-08-16T11:22:22Z</time>
      </trkpt>
      <trkpt lat="45.9247" lon="4.73654">
        <ele>174</ele>
        <time>2018-08-16T11:22:23Z</time>
      </trkpt>
      <trkpt lat="45.92466" lon="4.73664">
        <ele>174</ele>
        <time>2018-08-16T11:22:25Z</time>
      </trkpt>
      <trkpt lat="45.92466" lon="4.73665">
        <ele>174</ele>
        <time>2018-08-16T11:22:26Z</time>
      </trkpt>
      <trkpt lat="45.92465" lon="4.73675">
        <ele>174</ele>
        <time>2018-08-16T11:22:28Z</time>
      </trkpt>
      <trkpt lat="45.92465" lon="4.73682">
        <ele>174</ele>
        <time>2018-08-16T11:22:29Z</time>
      </trkpt>
      <trkpt lat="45.92463" lon="4.73693">
        <ele>174</ele>
        <time>2018-08-16T11:22:31Z</time>
      </trkpt>
      <trkpt lat="45.92464" lon="4.73695">
        <ele>174</ele>
        <time>2018-08-16T11:22:32Z</time>
      </trkpt>
      <trkpt lat="45.92461" lon="4.73707">
        <ele>174</ele>
        <time>2018-08-16T11:22:49Z</time>
      </trkpt>
      <trkpt lat="45.9246" lon="4.73707">
        <ele>174</ele>
        <time>2018-08-16T11:22:50Z</time>
      </trkpt>
      <trkpt lat="45.9246" lon="4.73707">
        <ele>174</ele>
        <time>2018-08-16T11:22:51Z</time>
      </trkpt>
      <trkpt lat="45.92459" lon="4.73707">
        <ele>174</ele>
        <time>2018-08-16T11:22:52Z</time>
      </trkpt>
      <trkpt lat="45.92459" lon="4.73708">
        <ele>174</ele>
        <time>2018-08-16T11:23:08.973Z</time>
      </trkpt>
    </trkseg>
  </trk>
</gpx>